<?xml version="1.0" encoding="UTF-8" standalone="no" ?>
<gpx xmlns="http://www.topografix.com/GPX/1/1" xmlns:xsi="http://www.w3.org/2001/XMLSchema-instance" xsi:schemaLocation="http://www.topografix.com/GPX/1/1 http://www.topografix.com/GPX/1/1/gpx.xsd" version="1.1" creator="VisuGPX - https://www.visugpx.com">
  <metadata>
    <name>ballade cartron ribou noues retour sur CHOLET</name>
    <desc><![CDATA[Entrainement St Jacques de Compostelle sur

CHOLET]]></desc>
  </metadata>
  <trk>
    <name><![CDATA[entrainement st jacques avec jean-luc]]></name>
    <trkseg>
      <trkpt lat="47.05616" lon="-0.86932">
        <ele>91</ele>
        <time>2015-03-16T07:31:50Z</time>
      </trkpt>
      <trkpt lat="47.05608" lon="-0.8697">
        <ele>90</ele>
        <time>2015-03-16T07:32:08Z</time>
      </trkpt>
      <trkpt lat="47.05607" lon="-0.86974">
        <ele>90</ele>
        <time>2015-03-16T07:32:10Z</time>
      </trkpt>
      <trkpt lat="47.05606" lon="-0.86977">
        <ele>89</ele>
        <time>2015-03-16T07:32:12Z</time>
      </trkpt>
      <trkpt lat="47.05606" lon="-0.8698">
        <ele>89</ele>
        <time>2015-03-16T07:32:14Z</time>
      </trkpt>
      <trkpt lat="47.05605" lon="-0.86984">
        <ele>87</ele>
        <time>2015-03-16T07:32:16Z</time>
      </trkpt>
      <trkpt lat="47.05604" lon="-0.86987">
        <ele>87</ele>
        <time>2015-03-16T07:32:18Z</time>
      </trkpt>
      <trkpt lat="47.05603" lon="-0.86991">
        <ele>86</ele>
        <time>2015-03-16T07:32:20Z</time>
      </trkpt>
      <trkpt lat="47.05603" lon="-0.86995">
        <ele>85</ele>
        <time>2015-03-16T07:32:22Z</time>
      </trkpt>
      <trkpt lat="47.05602" lon="-0.86999">
        <ele>85</ele>
        <time>2015-03-16T07:32:24Z</time>
      </trkpt>
      <trkpt lat="47.05602" lon="-0.87002">
        <ele>84</ele>
        <time>2015-03-16T07:32:26Z</time>
      </trkpt>
      <trkpt lat="47.056" lon="-0.87006">
        <ele>84</ele>
        <time>2015-03-16T07:32:28Z</time>
      </trkpt>
      <trkpt lat="47.056" lon="-0.8701">
        <ele>83</ele>
        <time>2015-03-16T07:32:30Z</time>
      </trkpt>
      <trkpt lat="47.05599" lon="-0.87014">
        <ele>83</ele>
        <time>2015-03-16T07:32:32Z</time>
      </trkpt>
      <trkpt lat="47.05598" lon="-0.87018">
        <ele>83</ele>
        <time>2015-03-16T07:32:34Z</time>
      </trkpt>
      <trkpt lat="47.05598" lon="-0.87022">
        <ele>83</ele>
        <time>2015-03-16T07:32:36Z</time>
      </trkpt>
      <trkpt lat="47.05598" lon="-0.87027">
        <ele>83</ele>
        <time>2015-03-16T07:32:38Z</time>
      </trkpt>
      <trkpt lat="47.05598" lon="-0.87031">
        <ele>83</ele>
        <time>2015-03-16T07:32:40Z</time>
      </trkpt>
      <trkpt lat="47.05599" lon="-0.87035">
        <ele>83</ele>
        <time>2015-03-16T07:32:42Z</time>
      </trkpt>
      <trkpt lat="47.056" lon="-0.87039">
        <ele>83</ele>
        <time>2015-03-16T07:32:44Z</time>
      </trkpt>
      <trkpt lat="47.05604" lon="-0.87043">
        <ele>83</ele>
        <time>2015-03-16T07:32:47Z</time>
      </trkpt>
      <trkpt lat="47.05605" lon="-0.87046">
        <ele>83</ele>
        <time>2015-03-16T07:32:50Z</time>
      </trkpt>
      <trkpt lat="47.05607" lon="-0.8705">
        <ele>85</ele>
        <time>2015-03-16T07:32:55Z</time>
      </trkpt>
      <trkpt lat="47.05609" lon="-0.8705">
        <ele>87</ele>
        <time>2015-03-16T07:32:57Z</time>
      </trkpt>
      <trkpt lat="47.0561" lon="-0.87048">
        <ele>88</ele>
        <time>2015-03-16T07:32:59Z</time>
      </trkpt>
      <trkpt lat="47.05612" lon="-0.87047">
        <ele>89</ele>
        <time>2015-03-16T07:33:01Z</time>
      </trkpt>
      <trkpt lat="47.05613" lon="-0.87047">
        <ele>91</ele>
        <time>2015-03-16T07:33:03Z</time>
      </trkpt>
      <trkpt lat="47.05616" lon="-0.87045">
        <ele>93</ele>
        <time>2015-03-16T07:33:05Z</time>
      </trkpt>
      <trkpt lat="47.05618" lon="-0.87044">
        <ele>95</ele>
        <time>2015-03-16T07:33:07Z</time>
      </trkpt>
      <trkpt lat="47.0562" lon="-0.87044">
        <ele>97</ele>
        <time>2015-03-16T07:33:09Z</time>
      </trkpt>
      <trkpt lat="47.05623" lon="-0.87042">
        <ele>99</ele>
        <time>2015-03-16T07:33:11Z</time>
      </trkpt>
      <trkpt lat="47.05624" lon="-0.8704">
        <ele>103</ele>
        <time>2015-03-16T07:33:13Z</time>
      </trkpt>
      <trkpt lat="47.05626" lon="-0.87034">
        <ele>110</ele>
        <time>2015-03-16T07:33:16Z</time>
      </trkpt>
      <trkpt lat="47.05627" lon="-0.87032">
        <ele>116</ele>
        <time>2015-03-16T07:33:18Z</time>
      </trkpt>
      <trkpt lat="47.05628" lon="-0.87028">
        <ele>127</ele>
        <time>2015-03-16T07:33:21Z</time>
      </trkpt>
      <trkpt lat="47.05628" lon="-0.87023">
        <ele>139</ele>
        <time>2015-03-16T07:33:24Z</time>
      </trkpt>
      <trkpt lat="47.0563" lon="-0.87025">
        <ele>147</ele>
        <time>2015-03-16T07:33:26Z</time>
      </trkpt>
      <trkpt lat="47.05634" lon="-0.87035">
        <ele>154</ele>
        <time>2015-03-16T07:33:28Z</time>
      </trkpt>
      <trkpt lat="47.05637" lon="-0.87037">
        <ele>160</ele>
        <time>2015-03-16T07:33:30Z</time>
      </trkpt>
      <trkpt lat="47.05639" lon="-0.87041">
        <ele>165</ele>
        <time>2015-03-16T07:33:32Z</time>
      </trkpt>
      <trkpt lat="47.05642" lon="-0.87045">
        <ele>171</ele>
        <time>2015-03-16T07:33:34Z</time>
      </trkpt>
      <trkpt lat="47.05645" lon="-0.87048">
        <ele>175</ele>
        <time>2015-03-16T07:33:36Z</time>
      </trkpt>
      <trkpt lat="47.05648" lon="-0.8705">
        <ele>179</ele>
        <time>2015-03-16T07:33:38Z</time>
      </trkpt>
      <trkpt lat="47.05651" lon="-0.87051">
        <ele>182</ele>
        <time>2015-03-16T07:33:41Z</time>
      </trkpt>
      <trkpt lat="47.05655" lon="-0.87055">
        <ele>182</ele>
        <time>2015-03-16T07:33:43Z</time>
      </trkpt>
      <trkpt lat="47.05659" lon="-0.87061">
        <ele>181</ele>
        <time>2015-03-16T07:33:45Z</time>
      </trkpt>
      <trkpt lat="47.05663" lon="-0.87068">
        <ele>177</ele>
        <time>2015-03-16T07:33:47Z</time>
      </trkpt>
      <trkpt lat="47.05666" lon="-0.87075">
        <ele>172</ele>
        <time>2015-03-16T07:33:49Z</time>
      </trkpt>
      <trkpt lat="47.05667" lon="-0.8708">
        <ele>166</ele>
        <time>2015-03-16T07:33:51Z</time>
      </trkpt>
      <trkpt lat="47.05671" lon="-0.87085">
        <ele>159</ele>
        <time>2015-03-16T07:33:53Z</time>
      </trkpt>
      <trkpt lat="47.05676" lon="-0.8709">
        <ele>150</ele>
        <time>2015-03-16T07:33:55Z</time>
      </trkpt>
      <trkpt lat="47.05676" lon="-0.87094">
        <ele>138</ele>
        <time>2015-03-16T07:33:57Z</time>
      </trkpt>
      <trkpt lat="47.05676" lon="-0.87098">
        <ele>126</ele>
        <time>2015-03-16T07:33:59Z</time>
      </trkpt>
      <trkpt lat="47.05675" lon="-0.87103">
        <ele>114</ele>
        <time>2015-03-16T07:34:01Z</time>
      </trkpt>
      <trkpt lat="47.05676" lon="-0.87109">
        <ele>104</ele>
        <time>2015-03-16T07:34:03Z</time>
      </trkpt>
      <trkpt lat="47.05676" lon="-0.87113">
        <ele>97</ele>
        <time>2015-03-16T07:34:05Z</time>
      </trkpt>
      <trkpt lat="47.05677" lon="-0.87119">
        <ele>92</ele>
        <time>2015-03-16T07:34:07Z</time>
      </trkpt>
      <trkpt lat="47.05678" lon="-0.87125">
        <ele>88</ele>
        <time>2015-03-16T07:34:09Z</time>
      </trkpt>
      <trkpt lat="47.05679" lon="-0.8713">
        <ele>86</ele>
        <time>2015-03-16T07:34:11Z</time>
      </trkpt>
      <trkpt lat="47.05679" lon="-0.87134">
        <ele>86</ele>
        <time>2015-03-16T07:34:13Z</time>
      </trkpt>
      <trkpt lat="47.05679" lon="-0.87139">
        <ele>86</ele>
        <time>2015-03-16T07:34:15Z</time>
      </trkpt>
      <trkpt lat="47.05679" lon="-0.87143">
        <ele>86</ele>
        <time>2015-03-16T07:34:17Z</time>
      </trkpt>
      <trkpt lat="47.05679" lon="-0.87148">
        <ele>86</ele>
        <time>2015-03-16T07:34:19Z</time>
      </trkpt>
      <trkpt lat="47.0568" lon="-0.87153">
        <ele>86</ele>
        <time>2015-03-16T07:34:21Z</time>
      </trkpt>
      <trkpt lat="47.0568" lon="-0.87158">
        <ele>86</ele>
        <time>2015-03-16T07:34:23Z</time>
      </trkpt>
      <trkpt lat="47.05681" lon="-0.87163">
        <ele>87</ele>
        <time>2015-03-16T07:34:25Z</time>
      </trkpt>
      <trkpt lat="47.05682" lon="-0.87168">
        <ele>89</ele>
        <time>2015-03-16T07:34:27Z</time>
      </trkpt>
      <trkpt lat="47.05684" lon="-0.87173">
        <ele>91</ele>
        <time>2015-03-16T07:34:29Z</time>
      </trkpt>
      <trkpt lat="47.05683" lon="-0.87177">
        <ele>93</ele>
        <time>2015-03-16T07:34:31Z</time>
      </trkpt>
      <trkpt lat="47.05683" lon="-0.87181">
        <ele>95</ele>
        <time>2015-03-16T07:34:33Z</time>
      </trkpt>
      <trkpt lat="47.05684" lon="-0.87185">
        <ele>95</ele>
        <time>2015-03-16T07:34:35Z</time>
      </trkpt>
      <trkpt lat="47.05684" lon="-0.87187">
        <ele>95</ele>
        <time>2015-03-16T07:34:37Z</time>
      </trkpt>
      <trkpt lat="47.05685" lon="-0.8719">
        <ele>95</ele>
        <time>2015-03-16T07:34:39Z</time>
      </trkpt>
      <trkpt lat="47.05685" lon="-0.87195">
        <ele>95</ele>
        <time>2015-03-16T07:34:41Z</time>
      </trkpt>
      <trkpt lat="47.05687" lon="-0.87201">
        <ele>95</ele>
        <time>2015-03-16T07:34:43Z</time>
      </trkpt>
      <trkpt lat="47.05687" lon="-0.87206">
        <ele>96</ele>
        <time>2015-03-16T07:34:45Z</time>
      </trkpt>
      <trkpt lat="47.05687" lon="-0.87211">
        <ele>98</ele>
        <time>2015-03-16T07:34:47Z</time>
      </trkpt>
      <trkpt lat="47.05687" lon="-0.87214">
        <ele>99</ele>
        <time>2015-03-16T07:34:49Z</time>
      </trkpt>
      <trkpt lat="47.05687" lon="-0.8722">
        <ele>99</ele>
        <time>2015-03-16T07:34:51Z</time>
      </trkpt>
      <trkpt lat="47.05687" lon="-0.87224">
        <ele>99</ele>
        <time>2015-03-16T07:34:53Z</time>
      </trkpt>
      <trkpt lat="47.05688" lon="-0.87229">
        <ele>99</ele>
        <time>2015-03-16T07:34:57Z</time>
      </trkpt>
      <trkpt lat="47.05688" lon="-0.87234">
        <ele>99</ele>
        <time>2015-03-16T07:34:59Z</time>
      </trkpt>
      <trkpt lat="47.05689" lon="-0.87239">
        <ele>99</ele>
        <time>2015-03-16T07:35:01Z</time>
      </trkpt>
      <trkpt lat="47.0569" lon="-0.87244">
        <ele>99</ele>
        <time>2015-03-16T07:35:03Z</time>
      </trkpt>
      <trkpt lat="47.0569" lon="-0.8725">
        <ele>99</ele>
        <time>2015-03-16T07:35:05Z</time>
      </trkpt>
      <trkpt lat="47.05688" lon="-0.87253">
        <ele>99</ele>
        <time>2015-03-16T07:35:07Z</time>
      </trkpt>
      <trkpt lat="47.05689" lon="-0.87259">
        <ele>99</ele>
        <time>2015-03-16T07:35:09Z</time>
      </trkpt>
      <trkpt lat="47.05689" lon="-0.87263">
        <ele>99</ele>
        <time>2015-03-16T07:35:11Z</time>
      </trkpt>
      <trkpt lat="47.0569" lon="-0.87268">
        <ele>100</ele>
        <time>2015-03-16T07:35:13Z</time>
      </trkpt>
      <trkpt lat="47.0569" lon="-0.87272">
        <ele>102</ele>
        <time>2015-03-16T07:35:15Z</time>
      </trkpt>
      <trkpt lat="47.05689" lon="-0.87277">
        <ele>103</ele>
        <time>2015-03-16T07:35:17Z</time>
      </trkpt>
      <trkpt lat="47.05688" lon="-0.87282">
        <ele>105</ele>
        <time>2015-03-16T07:35:19Z</time>
      </trkpt>
      <trkpt lat="47.05687" lon="-0.87286">
        <ele>107</ele>
        <time>2015-03-16T07:35:21Z</time>
      </trkpt>
      <trkpt lat="47.05685" lon="-0.87289">
        <ele>107</ele>
        <time>2015-03-16T07:35:23Z</time>
      </trkpt>
      <trkpt lat="47.05682" lon="-0.87294">
        <ele>107</ele>
        <time>2015-03-16T07:35:25Z</time>
      </trkpt>
      <trkpt lat="47.05681" lon="-0.87295">
        <ele>107</ele>
        <time>2015-03-16T07:35:27Z</time>
      </trkpt>
      <trkpt lat="47.0568" lon="-0.87298">
        <ele>106</ele>
        <time>2015-03-16T07:35:29Z</time>
      </trkpt>
      <trkpt lat="47.05678" lon="-0.87303">
        <ele>103</ele>
        <time>2015-03-16T07:35:32Z</time>
      </trkpt>
      <trkpt lat="47.05677" lon="-0.87305">
        <ele>101</ele>
        <time>2015-03-16T07:35:34Z</time>
      </trkpt>
      <trkpt lat="47.05676" lon="-0.87309">
        <ele>99</ele>
        <time>2015-03-16T07:35:36Z</time>
      </trkpt>
      <trkpt lat="47.05674" lon="-0.87313">
        <ele>97</ele>
        <time>2015-03-16T07:35:38Z</time>
      </trkpt>
      <trkpt lat="47.05674" lon="-0.87317">
        <ele>97</ele>
        <time>2015-03-16T07:35:40Z</time>
      </trkpt>
      <trkpt lat="47.05673" lon="-0.8732">
        <ele>97</ele>
        <time>2015-03-16T07:35:42Z</time>
      </trkpt>
      <trkpt lat="47.05673" lon="-0.87323">
        <ele>97</ele>
        <time>2015-03-16T07:35:44Z</time>
      </trkpt>
      <trkpt lat="47.05673" lon="-0.87327">
        <ele>97</ele>
        <time>2015-03-16T07:35:46Z</time>
      </trkpt>
      <trkpt lat="47.05672" lon="-0.87332">
        <ele>97</ele>
        <time>2015-03-16T07:35:48Z</time>
      </trkpt>
      <trkpt lat="47.05671" lon="-0.87337">
        <ele>97</ele>
        <time>2015-03-16T07:35:50Z</time>
      </trkpt>
      <trkpt lat="47.0567" lon="-0.87342">
        <ele>97</ele>
        <time>2015-03-16T07:35:52Z</time>
      </trkpt>
      <trkpt lat="47.05669" lon="-0.87346">
        <ele>98</ele>
        <time>2015-03-16T07:35:54Z</time>
      </trkpt>
      <trkpt lat="47.05668" lon="-0.8735">
        <ele>99</ele>
        <time>2015-03-16T07:35:56Z</time>
      </trkpt>
      <trkpt lat="47.05667" lon="-0.87355">
        <ele>99</ele>
        <time>2015-03-16T07:35:58Z</time>
      </trkpt>
      <trkpt lat="47.05666" lon="-0.87359">
        <ele>100</ele>
        <time>2015-03-16T07:36:00Z</time>
      </trkpt>
      <trkpt lat="47.05666" lon="-0.87363">
        <ele>101</ele>
        <time>2015-03-16T07:36:02Z</time>
      </trkpt>
      <trkpt lat="47.05665" lon="-0.87368">
        <ele>103</ele>
        <time>2015-03-16T07:36:04Z</time>
      </trkpt>
      <trkpt lat="47.05663" lon="-0.87373">
        <ele>105</ele>
        <time>2015-03-16T07:36:06Z</time>
      </trkpt>
      <trkpt lat="47.05663" lon="-0.87378">
        <ele>107</ele>
        <time>2015-03-16T07:36:08Z</time>
      </trkpt>
      <trkpt lat="47.05661" lon="-0.87383">
        <ele>109</ele>
        <time>2015-03-16T07:36:10Z</time>
      </trkpt>
      <trkpt lat="47.0566" lon="-0.87388">
        <ele>111</ele>
        <time>2015-03-16T07:36:12Z</time>
      </trkpt>
      <trkpt lat="47.05659" lon="-0.87394">
        <ele>113</ele>
        <time>2015-03-16T07:36:15Z</time>
      </trkpt>
      <trkpt lat="47.05658" lon="-0.87398">
        <ele>113</ele>
        <time>2015-03-16T07:36:17Z</time>
      </trkpt>
      <trkpt lat="47.05655" lon="-0.87401">
        <ele>113</ele>
        <time>2015-03-16T07:36:19Z</time>
      </trkpt>
      <trkpt lat="47.05653" lon="-0.87406">
        <ele>113</ele>
        <time>2015-03-16T07:36:21Z</time>
      </trkpt>
      <trkpt lat="47.05653" lon="-0.8741">
        <ele>113</ele>
        <time>2015-03-16T07:36:23Z</time>
      </trkpt>
      <trkpt lat="47.05651" lon="-0.87416">
        <ele>114</ele>
        <time>2015-03-16T07:36:25Z</time>
      </trkpt>
      <trkpt lat="47.0565" lon="-0.8742">
        <ele>116</ele>
        <time>2015-03-16T07:36:27Z</time>
      </trkpt>
      <trkpt lat="47.05649" lon="-0.87426">
        <ele>116</ele>
        <time>2015-03-16T07:36:29Z</time>
      </trkpt>
      <trkpt lat="47.05648" lon="-0.87429">
        <ele>118</ele>
        <time>2015-03-16T07:36:31Z</time>
      </trkpt>
      <trkpt lat="47.05647" lon="-0.87434">
        <ele>118</ele>
        <time>2015-03-16T07:36:33Z</time>
      </trkpt>
      <trkpt lat="47.05645" lon="-0.87439">
        <ele>118</ele>
        <time>2015-03-16T07:36:35Z</time>
      </trkpt>
      <trkpt lat="47.05643" lon="-0.87442">
        <ele>118</ele>
        <time>2015-03-16T07:36:37Z</time>
      </trkpt>
      <trkpt lat="47.05643" lon="-0.87445">
        <ele>118</ele>
        <time>2015-03-16T07:36:39Z</time>
      </trkpt>
      <trkpt lat="47.05642" lon="-0.87448">
        <ele>118</ele>
        <time>2015-03-16T07:36:41Z</time>
      </trkpt>
      <trkpt lat="47.05641" lon="-0.87451">
        <ele>118</ele>
        <time>2015-03-16T07:36:43Z</time>
      </trkpt>
      <trkpt lat="47.05639" lon="-0.87455">
        <ele>118</ele>
        <time>2015-03-16T07:36:45Z</time>
      </trkpt>
      <trkpt lat="47.05639" lon="-0.87459">
        <ele>118</ele>
        <time>2015-03-16T07:36:47Z</time>
      </trkpt>
      <trkpt lat="47.05637" lon="-0.87464">
        <ele>119</ele>
        <time>2015-03-16T07:36:49Z</time>
      </trkpt>
      <trkpt lat="47.05636" lon="-0.87468">
        <ele>120</ele>
        <time>2015-03-16T07:36:51Z</time>
      </trkpt>
      <trkpt lat="47.05634" lon="-0.87472">
        <ele>120</ele>
        <time>2015-03-16T07:36:53Z</time>
      </trkpt>
      <trkpt lat="47.05632" lon="-0.87476">
        <ele>121</ele>
        <time>2015-03-16T07:36:55Z</time>
      </trkpt>
      <trkpt lat="47.05631" lon="-0.87479">
        <ele>121</ele>
        <time>2015-03-16T07:36:57Z</time>
      </trkpt>
      <trkpt lat="47.0563" lon="-0.87483">
        <ele>121</ele>
        <time>2015-03-16T07:36:59Z</time>
      </trkpt>
      <trkpt lat="47.0563" lon="-0.87488">
        <ele>121</ele>
        <time>2015-03-16T07:37:01Z</time>
      </trkpt>
      <trkpt lat="47.0563" lon="-0.87492">
        <ele>121</ele>
        <time>2015-03-16T07:37:03Z</time>
      </trkpt>
      <trkpt lat="47.05629" lon="-0.87496">
        <ele>121</ele>
        <time>2015-03-16T07:37:05Z</time>
      </trkpt>
      <trkpt lat="47.05629" lon="-0.87501">
        <ele>121</ele>
        <time>2015-03-16T07:37:07Z</time>
      </trkpt>
      <trkpt lat="47.05629" lon="-0.87505">
        <ele>121</ele>
        <time>2015-03-16T07:37:09Z</time>
      </trkpt>
      <trkpt lat="47.05628" lon="-0.87509">
        <ele>121</ele>
        <time>2015-03-16T07:37:11Z</time>
      </trkpt>
      <trkpt lat="47.05627" lon="-0.87512">
        <ele>121</ele>
        <time>2015-03-16T07:37:13Z</time>
      </trkpt>
      <trkpt lat="47.05625" lon="-0.87515">
        <ele>121</ele>
        <time>2015-03-16T07:37:15Z</time>
      </trkpt>
      <trkpt lat="47.05622" lon="-0.87515">
        <ele>120</ele>
        <time>2015-03-16T07:37:17Z</time>
      </trkpt>
      <trkpt lat="47.05619" lon="-0.87515">
        <ele>118</ele>
        <time>2015-03-16T07:37:19Z</time>
      </trkpt>
      <trkpt lat="47.05616" lon="-0.87517">
        <ele>114</ele>
        <time>2015-03-16T07:37:23Z</time>
      </trkpt>
      <trkpt lat="47.05614" lon="-0.8752">
        <ele>112</ele>
        <time>2015-03-16T07:37:25Z</time>
      </trkpt>
      <trkpt lat="47.05612" lon="-0.87523">
        <ele>110</ele>
        <time>2015-03-16T07:37:27Z</time>
      </trkpt>
      <trkpt lat="47.0561" lon="-0.87527">
        <ele>108</ele>
        <time>2015-03-16T07:37:29Z</time>
      </trkpt>
      <trkpt lat="47.05608" lon="-0.87532">
        <ele>106</ele>
        <time>2015-03-16T07:37:31Z</time>
      </trkpt>
      <trkpt lat="47.05605" lon="-0.87536">
        <ele>105</ele>
        <time>2015-03-16T07:37:33Z</time>
      </trkpt>
      <trkpt lat="47.05604" lon="-0.87541">
        <ele>105</ele>
        <time>2015-03-16T07:37:35Z</time>
      </trkpt>
      <trkpt lat="47.05603" lon="-0.87545">
        <ele>105</ele>
        <time>2015-03-16T07:37:37Z</time>
      </trkpt>
      <trkpt lat="47.05601" lon="-0.87552">
        <ele>105</ele>
        <time>2015-03-16T07:37:40Z</time>
      </trkpt>
      <trkpt lat="47.05599" lon="-0.87558">
        <ele>103</ele>
        <time>2015-03-16T07:37:43Z</time>
      </trkpt>
      <trkpt lat="47.05597" lon="-0.87563">
        <ele>103</ele>
        <time>2015-03-16T07:37:45Z</time>
      </trkpt>
      <trkpt lat="47.05596" lon="-0.8757">
        <ele>103</ele>
        <time>2015-03-16T07:37:47Z</time>
      </trkpt>
      <trkpt lat="47.05594" lon="-0.87577">
        <ele>103</ele>
        <time>2015-03-16T07:37:49Z</time>
      </trkpt>
      <trkpt lat="47.05593" lon="-0.87581">
        <ele>103</ele>
        <time>2015-03-16T07:37:51Z</time>
      </trkpt>
      <trkpt lat="47.05591" lon="-0.87586">
        <ele>103</ele>
        <time>2015-03-16T07:37:54Z</time>
      </trkpt>
      <trkpt lat="47.05589" lon="-0.87589">
        <ele>103</ele>
        <time>2015-03-16T07:37:56Z</time>
      </trkpt>
      <trkpt lat="47.05588" lon="-0.87589">
        <ele>103</ele>
        <time>2015-03-16T07:37:58Z</time>
      </trkpt>
      <trkpt lat="47.05586" lon="-0.8759">
        <ele>102</ele>
        <time>2015-03-16T07:38:00Z</time>
      </trkpt>
      <trkpt lat="47.05584" lon="-0.87592">
        <ele>100</ele>
        <time>2015-03-16T07:38:02Z</time>
      </trkpt>
      <trkpt lat="47.05582" lon="-0.87596">
        <ele>98</ele>
        <time>2015-03-16T07:38:04Z</time>
      </trkpt>
      <trkpt lat="47.05581" lon="-0.876">
        <ele>95</ele>
        <time>2015-03-16T07:38:07Z</time>
      </trkpt>
      <trkpt lat="47.05579" lon="-0.87603">
        <ele>93</ele>
        <time>2015-03-16T07:38:09Z</time>
      </trkpt>
      <trkpt lat="47.05577" lon="-0.87607">
        <ele>91</ele>
        <time>2015-03-16T07:38:11Z</time>
      </trkpt>
      <trkpt lat="47.05576" lon="-0.8761">
        <ele>90</ele>
        <time>2015-03-16T07:38:13Z</time>
      </trkpt>
      <trkpt lat="47.05574" lon="-0.87615">
        <ele>90</ele>
        <time>2015-03-16T07:38:15Z</time>
      </trkpt>
      <trkpt lat="47.05573" lon="-0.87619">
        <ele>90</ele>
        <time>2015-03-16T07:38:17Z</time>
      </trkpt>
      <trkpt lat="47.05572" lon="-0.87623">
        <ele>90</ele>
        <time>2015-03-16T07:38:19Z</time>
      </trkpt>
      <trkpt lat="47.0557" lon="-0.87626">
        <ele>90</ele>
        <time>2015-03-16T07:38:21Z</time>
      </trkpt>
      <trkpt lat="47.05568" lon="-0.87629">
        <ele>90</ele>
        <time>2015-03-16T07:38:23Z</time>
      </trkpt>
      <trkpt lat="47.05566" lon="-0.8763">
        <ele>90</ele>
        <time>2015-03-16T07:38:25Z</time>
      </trkpt>
      <trkpt lat="47.05563" lon="-0.87629">
        <ele>90</ele>
        <time>2015-03-16T07:38:27Z</time>
      </trkpt>
      <trkpt lat="47.0556" lon="-0.87629">
        <ele>90</ele>
        <time>2015-03-16T07:38:29Z</time>
      </trkpt>
      <trkpt lat="47.05558" lon="-0.87629">
        <ele>88</ele>
        <time>2015-03-16T07:38:31Z</time>
      </trkpt>
      <trkpt lat="47.05556" lon="-0.8763">
        <ele>87</ele>
        <time>2015-03-16T07:38:33Z</time>
      </trkpt>
      <trkpt lat="47.05555" lon="-0.87634">
        <ele>86</ele>
        <time>2015-03-16T07:38:35Z</time>
      </trkpt>
      <trkpt lat="47.05554" lon="-0.87638">
        <ele>85</ele>
        <time>2015-03-16T07:38:37Z</time>
      </trkpt>
      <trkpt lat="47.05552" lon="-0.87643">
        <ele>85</ele>
        <time>2015-03-16T07:38:39Z</time>
      </trkpt>
      <trkpt lat="47.05551" lon="-0.87646">
        <ele>85</ele>
        <time>2015-03-16T07:38:41Z</time>
      </trkpt>
      <trkpt lat="47.0555" lon="-0.87651">
        <ele>85</ele>
        <time>2015-03-16T07:38:43Z</time>
      </trkpt>
      <trkpt lat="47.05549" lon="-0.87655">
        <ele>85</ele>
        <time>2015-03-16T07:38:45Z</time>
      </trkpt>
      <trkpt lat="47.05549" lon="-0.8766">
        <ele>85</ele>
        <time>2015-03-16T07:38:47Z</time>
      </trkpt>
      <trkpt lat="47.05549" lon="-0.87664">
        <ele>85</ele>
        <time>2015-03-16T07:38:49Z</time>
      </trkpt>
      <trkpt lat="47.05548" lon="-0.87668">
        <ele>85</ele>
        <time>2015-03-16T07:38:52Z</time>
      </trkpt>
      <trkpt lat="47.05547" lon="-0.8767">
        <ele>85</ele>
        <time>2015-03-16T07:38:54Z</time>
      </trkpt>
      <trkpt lat="47.05545" lon="-0.87671">
        <ele>85</ele>
        <time>2015-03-16T07:38:56Z</time>
      </trkpt>
      <trkpt lat="47.05543" lon="-0.87673">
        <ele>84</ele>
        <time>2015-03-16T07:38:58Z</time>
      </trkpt>
      <trkpt lat="47.05541" lon="-0.87673">
        <ele>83</ele>
        <time>2015-03-16T07:39:00Z</time>
      </trkpt>
      <trkpt lat="47.05538" lon="-0.87673">
        <ele>82</ele>
        <time>2015-03-16T07:39:02Z</time>
      </trkpt>
      <trkpt lat="47.05534" lon="-0.87672">
        <ele>81</ele>
        <time>2015-03-16T07:39:04Z</time>
      </trkpt>
      <trkpt lat="47.05532" lon="-0.87671">
        <ele>80</ele>
        <time>2015-03-16T07:39:06Z</time>
      </trkpt>
      <trkpt lat="47.0553" lon="-0.8767">
        <ele>79</ele>
        <time>2015-03-16T07:39:08Z</time>
      </trkpt>
      <trkpt lat="47.05527" lon="-0.87667">
        <ele>77</ele>
        <time>2015-03-16T07:39:11Z</time>
      </trkpt>
      <trkpt lat="47.05524" lon="-0.87665">
        <ele>75</ele>
        <time>2015-03-16T07:39:13Z</time>
      </trkpt>
      <trkpt lat="47.05521" lon="-0.87663">
        <ele>73</ele>
        <time>2015-03-16T07:39:16Z</time>
      </trkpt>
      <trkpt lat="47.05519" lon="-0.87662">
        <ele>73</ele>
        <time>2015-03-16T07:39:18Z</time>
      </trkpt>
      <trkpt lat="47.05516" lon="-0.87661">
        <ele>72</ele>
        <time>2015-03-16T07:39:20Z</time>
      </trkpt>
      <trkpt lat="47.05514" lon="-0.8766">
        <ele>71</ele>
        <time>2015-03-16T07:39:22Z</time>
      </trkpt>
      <trkpt lat="47.05511" lon="-0.87659">
        <ele>71</ele>
        <time>2015-03-16T07:39:24Z</time>
      </trkpt>
      <trkpt lat="47.05508" lon="-0.87658">
        <ele>71</ele>
        <time>2015-03-16T07:39:26Z</time>
      </trkpt>
      <trkpt lat="47.05506" lon="-0.87657">
        <ele>71</ele>
        <time>2015-03-16T07:39:28Z</time>
      </trkpt>
      <trkpt lat="47.05503" lon="-0.87656">
        <ele>71</ele>
        <time>2015-03-16T07:39:30Z</time>
      </trkpt>
      <trkpt lat="47.055" lon="-0.87656">
        <ele>71</ele>
        <time>2015-03-16T07:39:32Z</time>
      </trkpt>
      <trkpt lat="47.05497" lon="-0.87657">
        <ele>71</ele>
        <time>2015-03-16T07:39:34Z</time>
      </trkpt>
      <trkpt lat="47.05494" lon="-0.87656">
        <ele>71</ele>
        <time>2015-03-16T07:39:36Z</time>
      </trkpt>
      <trkpt lat="47.05491" lon="-0.87655">
        <ele>71</ele>
        <time>2015-03-16T07:39:39Z</time>
      </trkpt>
      <trkpt lat="47.05489" lon="-0.87654">
        <ele>71</ele>
        <time>2015-03-16T07:39:41Z</time>
      </trkpt>
      <trkpt lat="47.05487" lon="-0.87652">
        <ele>71</ele>
        <time>2015-03-16T07:39:43Z</time>
      </trkpt>
      <trkpt lat="47.05485" lon="-0.8765">
        <ele>71</ele>
        <time>2015-03-16T07:39:45Z</time>
      </trkpt>
      <trkpt lat="47.05481" lon="-0.87647">
        <ele>71</ele>
        <time>2015-03-16T07:39:47Z</time>
      </trkpt>
      <trkpt lat="47.05479" lon="-0.87646">
        <ele>71</ele>
        <time>2015-03-16T07:39:49Z</time>
      </trkpt>
      <trkpt lat="47.05477" lon="-0.87643">
        <ele>71</ele>
        <time>2015-03-16T07:39:51Z</time>
      </trkpt>
      <trkpt lat="47.05475" lon="-0.87641">
        <ele>71</ele>
        <time>2015-03-16T07:39:53Z</time>
      </trkpt>
      <trkpt lat="47.05473" lon="-0.87639">
        <ele>71</ele>
        <time>2015-03-16T07:39:55Z</time>
      </trkpt>
      <trkpt lat="47.05471" lon="-0.87638">
        <ele>71</ele>
        <time>2015-03-16T07:39:57Z</time>
      </trkpt>
      <trkpt lat="47.05468" lon="-0.87638">
        <ele>71</ele>
        <time>2015-03-16T07:39:59Z</time>
      </trkpt>
      <trkpt lat="47.05465" lon="-0.87635">
        <ele>70</ele>
        <time>2015-03-16T07:40:02Z</time>
      </trkpt>
      <trkpt lat="47.05463" lon="-0.87634">
        <ele>69</ele>
        <time>2015-03-16T07:40:04Z</time>
      </trkpt>
      <trkpt lat="47.0546" lon="-0.87632">
        <ele>69</ele>
        <time>2015-03-16T07:40:06Z</time>
      </trkpt>
      <trkpt lat="47.05458" lon="-0.8763">
        <ele>68</ele>
        <time>2015-03-16T07:40:08Z</time>
      </trkpt>
      <trkpt lat="47.05456" lon="-0.87628">
        <ele>67</ele>
        <time>2015-03-16T07:40:10Z</time>
      </trkpt>
      <trkpt lat="47.05453" lon="-0.87626">
        <ele>67</ele>
        <time>2015-03-16T07:40:12Z</time>
      </trkpt>
      <trkpt lat="47.0545" lon="-0.87625">
        <ele>67</ele>
        <time>2015-03-16T07:40:14Z</time>
      </trkpt>
      <trkpt lat="47.05447" lon="-0.87623">
        <ele>67</ele>
        <time>2015-03-16T07:40:16Z</time>
      </trkpt>
      <trkpt lat="47.05445" lon="-0.87622">
        <ele>67</ele>
        <time>2015-03-16T07:40:18Z</time>
      </trkpt>
      <trkpt lat="47.05443" lon="-0.8762">
        <ele>67</ele>
        <time>2015-03-16T07:40:20Z</time>
      </trkpt>
      <trkpt lat="47.05441" lon="-0.87618">
        <ele>67</ele>
        <time>2015-03-16T07:40:22Z</time>
      </trkpt>
      <trkpt lat="47.05439" lon="-0.87616">
        <ele>66</ele>
        <time>2015-03-16T07:40:24Z</time>
      </trkpt>
      <trkpt lat="47.05436" lon="-0.87615">
        <ele>66</ele>
        <time>2015-03-16T07:40:26Z</time>
      </trkpt>
      <trkpt lat="47.05433" lon="-0.87612">
        <ele>65</ele>
        <time>2015-03-16T07:40:29Z</time>
      </trkpt>
      <trkpt lat="47.0543" lon="-0.87612">
        <ele>65</ele>
        <time>2015-03-16T07:40:31Z</time>
      </trkpt>
      <trkpt lat="47.05426" lon="-0.8761">
        <ele>65</ele>
        <time>2015-03-16T07:40:33Z</time>
      </trkpt>
      <trkpt lat="47.05422" lon="-0.87609">
        <ele>65</ele>
        <time>2015-03-16T07:40:35Z</time>
      </trkpt>
      <trkpt lat="47.05419" lon="-0.87608">
        <ele>65</ele>
        <time>2015-03-16T07:40:37Z</time>
      </trkpt>
      <trkpt lat="47.05416" lon="-0.87607">
        <ele>65</ele>
        <time>2015-03-16T07:40:39Z</time>
      </trkpt>
      <trkpt lat="47.05413" lon="-0.87605">
        <ele>65</ele>
        <time>2015-03-16T07:40:41Z</time>
      </trkpt>
      <trkpt lat="47.05411" lon="-0.87603">
        <ele>65</ele>
        <time>2015-03-16T07:40:43Z</time>
      </trkpt>
      <trkpt lat="47.05408" lon="-0.87601">
        <ele>65</ele>
        <time>2015-03-16T07:40:45Z</time>
      </trkpt>
      <trkpt lat="47.05406" lon="-0.87599">
        <ele>65</ele>
        <time>2015-03-16T07:40:47Z</time>
      </trkpt>
      <trkpt lat="47.05403" lon="-0.87597">
        <ele>65</ele>
        <time>2015-03-16T07:40:49Z</time>
      </trkpt>
      <trkpt lat="47.054" lon="-0.87595">
        <ele>65</ele>
        <time>2015-03-16T07:40:51Z</time>
      </trkpt>
      <trkpt lat="47.05399" lon="-0.87593">
        <ele>65</ele>
        <time>2015-03-16T07:40:53Z</time>
      </trkpt>
      <trkpt lat="47.05396" lon="-0.87589">
        <ele>65</ele>
        <time>2015-03-16T07:40:56Z</time>
      </trkpt>
      <trkpt lat="47.05394" lon="-0.87587">
        <ele>65</ele>
        <time>2015-03-16T07:40:58Z</time>
      </trkpt>
      <trkpt lat="47.05391" lon="-0.87586">
        <ele>65</ele>
        <time>2015-03-16T07:41:00Z</time>
      </trkpt>
      <trkpt lat="47.05389" lon="-0.87584">
        <ele>65</ele>
        <time>2015-03-16T07:41:02Z</time>
      </trkpt>
      <trkpt lat="47.05386" lon="-0.87582">
        <ele>65</ele>
        <time>2015-03-16T07:41:04Z</time>
      </trkpt>
      <trkpt lat="47.05384" lon="-0.87581">
        <ele>65</ele>
        <time>2015-03-16T07:41:06Z</time>
      </trkpt>
      <trkpt lat="47.0538" lon="-0.87578">
        <ele>65</ele>
        <time>2015-03-16T07:41:08Z</time>
      </trkpt>
      <trkpt lat="47.05378" lon="-0.87577">
        <ele>65</ele>
        <time>2015-03-16T07:41:10Z</time>
      </trkpt>
      <trkpt lat="47.05375" lon="-0.87577">
        <ele>65</ele>
        <time>2015-03-16T07:41:12Z</time>
      </trkpt>
      <trkpt lat="47.05373" lon="-0.87577">
        <ele>65</ele>
        <time>2015-03-16T07:41:14Z</time>
      </trkpt>
      <trkpt lat="47.05369" lon="-0.8758">
        <ele>65</ele>
        <time>2015-03-16T07:41:17Z</time>
      </trkpt>
      <trkpt lat="47.05367" lon="-0.87582">
        <ele>65</ele>
        <time>2015-03-16T07:41:19Z</time>
      </trkpt>
      <trkpt lat="47.05366" lon="-0.87587">
        <ele>65</ele>
        <time>2015-03-16T07:41:21Z</time>
      </trkpt>
      <trkpt lat="47.05365" lon="-0.87591">
        <ele>65</ele>
        <time>2015-03-16T07:41:23Z</time>
      </trkpt>
      <trkpt lat="47.05364" lon="-0.87595">
        <ele>65</ele>
        <time>2015-03-16T07:41:25Z</time>
      </trkpt>
      <trkpt lat="47.05364" lon="-0.87599">
        <ele>65</ele>
        <time>2015-03-16T07:41:27Z</time>
      </trkpt>
      <trkpt lat="47.05365" lon="-0.87603">
        <ele>65</ele>
        <time>2015-03-16T07:41:29Z</time>
      </trkpt>
      <trkpt lat="47.05365" lon="-0.87608">
        <ele>66</ele>
        <time>2015-03-16T07:41:31Z</time>
      </trkpt>
      <trkpt lat="47.05366" lon="-0.87612">
        <ele>66</ele>
        <time>2015-03-16T07:41:33Z</time>
      </trkpt>
      <trkpt lat="47.05367" lon="-0.87616">
        <ele>66</ele>
        <time>2015-03-16T07:41:35Z</time>
      </trkpt>
      <trkpt lat="47.05368" lon="-0.87619">
        <ele>67</ele>
        <time>2015-03-16T07:41:37Z</time>
      </trkpt>
      <trkpt lat="47.05368" lon="-0.87623">
        <ele>67</ele>
        <time>2015-03-16T07:41:39Z</time>
      </trkpt>
      <trkpt lat="47.05368" lon="-0.87627">
        <ele>67</ele>
        <time>2015-03-16T07:41:41Z</time>
      </trkpt>
      <trkpt lat="47.05368" lon="-0.87631">
        <ele>67</ele>
        <time>2015-03-16T07:41:43Z</time>
      </trkpt>
      <trkpt lat="47.05368" lon="-0.87636">
        <ele>67</ele>
        <time>2015-03-16T07:41:45Z</time>
      </trkpt>
      <trkpt lat="47.05368" lon="-0.8764">
        <ele>67</ele>
        <time>2015-03-16T07:41:47Z</time>
      </trkpt>
      <trkpt lat="47.05368" lon="-0.87644">
        <ele>67</ele>
        <time>2015-03-16T07:41:49Z</time>
      </trkpt>
      <trkpt lat="47.05368" lon="-0.87648">
        <ele>67</ele>
        <time>2015-03-16T07:41:51Z</time>
      </trkpt>
      <trkpt lat="47.05367" lon="-0.87652">
        <ele>67</ele>
        <time>2015-03-16T07:41:53Z</time>
      </trkpt>
      <trkpt lat="47.05365" lon="-0.87654">
        <ele>67</ele>
        <time>2015-03-16T07:41:55Z</time>
      </trkpt>
      <trkpt lat="47.05362" lon="-0.87656">
        <ele>67</ele>
        <time>2015-03-16T07:41:57Z</time>
      </trkpt>
      <trkpt lat="47.0536" lon="-0.87658">
        <ele>67</ele>
        <time>2015-03-16T07:41:59Z</time>
      </trkpt>
      <trkpt lat="47.05356" lon="-0.87661">
        <ele>67</ele>
        <time>2015-03-16T07:42:02Z</time>
      </trkpt>
      <trkpt lat="47.05354" lon="-0.87662">
        <ele>67</ele>
        <time>2015-03-16T07:42:04Z</time>
      </trkpt>
      <trkpt lat="47.05351" lon="-0.87662">
        <ele>67</ele>
        <time>2015-03-16T07:42:06Z</time>
      </trkpt>
      <trkpt lat="47.05348" lon="-0.87661">
        <ele>67</ele>
        <time>2015-03-16T07:42:09Z</time>
      </trkpt>
      <trkpt lat="47.05346" lon="-0.87661">
        <ele>67</ele>
        <time>2015-03-16T07:42:11Z</time>
      </trkpt>
      <trkpt lat="47.05343" lon="-0.8766">
        <ele>67</ele>
        <time>2015-03-16T07:42:13Z</time>
      </trkpt>
      <trkpt lat="47.05341" lon="-0.8766">
        <ele>67</ele>
        <time>2015-03-16T07:42:15Z</time>
      </trkpt>
      <trkpt lat="47.05338" lon="-0.87659">
        <ele>66</ele>
        <time>2015-03-16T07:42:17Z</time>
      </trkpt>
      <trkpt lat="47.05335" lon="-0.87658">
        <ele>66</ele>
        <time>2015-03-16T07:42:19Z</time>
      </trkpt>
      <trkpt lat="47.05333" lon="-0.87657">
        <ele>65</ele>
        <time>2015-03-16T07:42:21Z</time>
      </trkpt>
      <trkpt lat="47.0533" lon="-0.87657">
        <ele>65</ele>
        <time>2015-03-16T07:42:23Z</time>
      </trkpt>
      <trkpt lat="47.05327" lon="-0.87657">
        <ele>65</ele>
        <time>2015-03-16T07:42:25Z</time>
      </trkpt>
      <trkpt lat="47.05324" lon="-0.87656">
        <ele>65</ele>
        <time>2015-03-16T07:42:27Z</time>
      </trkpt>
      <trkpt lat="47.05322" lon="-0.87655">
        <ele>64</ele>
        <time>2015-03-16T07:42:29Z</time>
      </trkpt>
      <trkpt lat="47.05319" lon="-0.87653">
        <ele>64</ele>
        <time>2015-03-16T07:42:31Z</time>
      </trkpt>
      <trkpt lat="47.05317" lon="-0.87653">
        <ele>64</ele>
        <time>2015-03-16T07:42:33Z</time>
      </trkpt>
      <trkpt lat="47.05314" lon="-0.87653">
        <ele>64</ele>
        <time>2015-03-16T07:42:35Z</time>
      </trkpt>
      <trkpt lat="47.05312" lon="-0.87652">
        <ele>63</ele>
        <time>2015-03-16T07:42:37Z</time>
      </trkpt>
      <trkpt lat="47.0531" lon="-0.87651">
        <ele>63</ele>
        <time>2015-03-16T07:42:39Z</time>
      </trkpt>
      <trkpt lat="47.05306" lon="-0.8765">
        <ele>63</ele>
        <time>2015-03-16T07:42:41Z</time>
      </trkpt>
      <trkpt lat="47.05303" lon="-0.87649">
        <ele>63</ele>
        <time>2015-03-16T07:42:43Z</time>
      </trkpt>
      <trkpt lat="47.05299" lon="-0.87648">
        <ele>63</ele>
        <time>2015-03-16T07:42:45Z</time>
      </trkpt>
      <trkpt lat="47.05297" lon="-0.87647">
        <ele>63</ele>
        <time>2015-03-16T07:42:47Z</time>
      </trkpt>
      <trkpt lat="47.05295" lon="-0.87646">
        <ele>63</ele>
        <time>2015-03-16T07:42:49Z</time>
      </trkpt>
      <trkpt lat="47.05291" lon="-0.87645">
        <ele>63</ele>
        <time>2015-03-16T07:42:51Z</time>
      </trkpt>
      <trkpt lat="47.05289" lon="-0.87643">
        <ele>63</ele>
        <time>2015-03-16T07:42:53Z</time>
      </trkpt>
      <trkpt lat="47.05286" lon="-0.87642">
        <ele>63</ele>
        <time>2015-03-16T07:42:55Z</time>
      </trkpt>
      <trkpt lat="47.05283" lon="-0.8764">
        <ele>63</ele>
        <time>2015-03-16T07:42:57Z</time>
      </trkpt>
      <trkpt lat="47.0528" lon="-0.87637">
        <ele>63</ele>
        <time>2015-03-16T07:43:00Z</time>
      </trkpt>
      <trkpt lat="47.05276" lon="-0.87636">
        <ele>63</ele>
        <time>2015-03-16T07:43:03Z</time>
      </trkpt>
      <trkpt lat="47.05273" lon="-0.87634">
        <ele>63</ele>
        <time>2015-03-16T07:43:05Z</time>
      </trkpt>
      <trkpt lat="47.0527" lon="-0.87632">
        <ele>63</ele>
        <time>2015-03-16T07:43:07Z</time>
      </trkpt>
      <trkpt lat="47.05266" lon="-0.87631">
        <ele>63</ele>
        <time>2015-03-16T07:43:09Z</time>
      </trkpt>
      <trkpt lat="47.05264" lon="-0.87628">
        <ele>63</ele>
        <time>2015-03-16T07:43:11Z</time>
      </trkpt>
      <trkpt lat="47.05262" lon="-0.87625">
        <ele>64</ele>
        <time>2015-03-16T07:43:13Z</time>
      </trkpt>
      <trkpt lat="47.05261" lon="-0.87623">
        <ele>64</ele>
        <time>2015-03-16T07:43:15Z</time>
      </trkpt>
      <trkpt lat="47.05259" lon="-0.8762">
        <ele>64</ele>
        <time>2015-03-16T07:43:17Z</time>
      </trkpt>
      <trkpt lat="47.05256" lon="-0.87616">
        <ele>64</ele>
        <time>2015-03-16T07:43:20Z</time>
      </trkpt>
      <trkpt lat="47.05254" lon="-0.87612">
        <ele>64</ele>
        <time>2015-03-16T07:43:22Z</time>
      </trkpt>
      <trkpt lat="47.05252" lon="-0.87608">
        <ele>64</ele>
        <time>2015-03-16T07:43:25Z</time>
      </trkpt>
      <trkpt lat="47.0525" lon="-0.87606">
        <ele>64</ele>
        <time>2015-03-16T07:43:27Z</time>
      </trkpt>
      <trkpt lat="47.05247" lon="-0.87602">
        <ele>64</ele>
        <time>2015-03-16T07:43:30Z</time>
      </trkpt>
      <trkpt lat="47.05246" lon="-0.87599">
        <ele>64</ele>
        <time>2015-03-16T07:43:32Z</time>
      </trkpt>
      <trkpt lat="47.05246" lon="-0.87596">
        <ele>64</ele>
        <time>2015-03-16T07:43:34Z</time>
      </trkpt>
      <trkpt lat="47.05244" lon="-0.87593">
        <ele>64</ele>
        <time>2015-03-16T07:43:36Z</time>
      </trkpt>
      <trkpt lat="47.05243" lon="-0.8759">
        <ele>64</ele>
        <time>2015-03-16T07:43:38Z</time>
      </trkpt>
      <trkpt lat="47.05242" lon="-0.87586">
        <ele>64</ele>
        <time>2015-03-16T07:43:40Z</time>
      </trkpt>
      <trkpt lat="47.05241" lon="-0.87582">
        <ele>64</ele>
        <time>2015-03-16T07:43:42Z</time>
      </trkpt>
      <trkpt lat="47.05239" lon="-0.87578">
        <ele>64</ele>
        <time>2015-03-16T07:43:44Z</time>
      </trkpt>
      <trkpt lat="47.05238" lon="-0.87575">
        <ele>64</ele>
        <time>2015-03-16T07:43:46Z</time>
      </trkpt>
      <trkpt lat="47.05236" lon="-0.87572">
        <ele>64</ele>
        <time>2015-03-16T07:43:48Z</time>
      </trkpt>
      <trkpt lat="47.05235" lon="-0.87568">
        <ele>64</ele>
        <time>2015-03-16T07:43:50Z</time>
      </trkpt>
      <trkpt lat="47.05233" lon="-0.87565">
        <ele>64</ele>
        <time>2015-03-16T07:43:52Z</time>
      </trkpt>
      <trkpt lat="47.05232" lon="-0.87562">
        <ele>64</ele>
        <time>2015-03-16T07:43:54Z</time>
      </trkpt>
      <trkpt lat="47.0523" lon="-0.8756">
        <ele>64</ele>
        <time>2015-03-16T07:43:56Z</time>
      </trkpt>
      <trkpt lat="47.05228" lon="-0.87558">
        <ele>64</ele>
        <time>2015-03-16T07:43:58Z</time>
      </trkpt>
      <trkpt lat="47.05225" lon="-0.87556">
        <ele>64</ele>
        <time>2015-03-16T07:44:00Z</time>
      </trkpt>
      <trkpt lat="47.05223" lon="-0.87554">
        <ele>64</ele>
        <time>2015-03-16T07:44:02Z</time>
      </trkpt>
      <trkpt lat="47.05221" lon="-0.87552">
        <ele>64</ele>
        <time>2015-03-16T07:44:04Z</time>
      </trkpt>
      <trkpt lat="47.05218" lon="-0.87549">
        <ele>64</ele>
        <time>2015-03-16T07:44:07Z</time>
      </trkpt>
      <trkpt lat="47.05215" lon="-0.87549">
        <ele>64</ele>
        <time>2015-03-16T07:44:09Z</time>
      </trkpt>
      <trkpt lat="47.05212" lon="-0.87548">
        <ele>64</ele>
        <time>2015-03-16T07:44:11Z</time>
      </trkpt>
      <trkpt lat="47.0521" lon="-0.87546">
        <ele>64</ele>
        <time>2015-03-16T07:44:13Z</time>
      </trkpt>
      <trkpt lat="47.05207" lon="-0.87546">
        <ele>64</ele>
        <time>2015-03-16T07:44:15Z</time>
      </trkpt>
      <trkpt lat="47.05205" lon="-0.87545">
        <ele>64</ele>
        <time>2015-03-16T07:44:17Z</time>
      </trkpt>
      <trkpt lat="47.05202" lon="-0.87543">
        <ele>64</ele>
        <time>2015-03-16T07:44:19Z</time>
      </trkpt>
      <trkpt lat="47.05199" lon="-0.87542">
        <ele>64</ele>
        <time>2015-03-16T07:44:21Z</time>
      </trkpt>
      <trkpt lat="47.05196" lon="-0.87541">
        <ele>64</ele>
        <time>2015-03-16T07:44:23Z</time>
      </trkpt>
      <trkpt lat="47.05193" lon="-0.87539">
        <ele>64</ele>
        <time>2015-03-16T07:44:25Z</time>
      </trkpt>
      <trkpt lat="47.05191" lon="-0.87537">
        <ele>64</ele>
        <time>2015-03-16T07:44:27Z</time>
      </trkpt>
      <trkpt lat="47.05188" lon="-0.87534">
        <ele>64</ele>
        <time>2015-03-16T07:44:29Z</time>
      </trkpt>
      <trkpt lat="47.05186" lon="-0.87532">
        <ele>64</ele>
        <time>2015-03-16T07:44:31Z</time>
      </trkpt>
      <trkpt lat="47.05183" lon="-0.87529">
        <ele>64</ele>
        <time>2015-03-16T07:44:34Z</time>
      </trkpt>
      <trkpt lat="47.05179" lon="-0.87525">
        <ele>64</ele>
        <time>2015-03-16T07:44:37Z</time>
      </trkpt>
      <trkpt lat="47.05176" lon="-0.87522">
        <ele>64</ele>
        <time>2015-03-16T07:44:40Z</time>
      </trkpt>
      <trkpt lat="47.05174" lon="-0.8752">
        <ele>64</ele>
        <time>2015-03-16T07:44:42Z</time>
      </trkpt>
      <trkpt lat="47.05173" lon="-0.87517">
        <ele>64</ele>
        <time>2015-03-16T07:44:44Z</time>
      </trkpt>
      <trkpt lat="47.05171" lon="-0.87512">
        <ele>64</ele>
        <time>2015-03-16T07:44:47Z</time>
      </trkpt>
      <trkpt lat="47.05169" lon="-0.8751">
        <ele>64</ele>
        <time>2015-03-16T07:44:49Z</time>
      </trkpt>
      <trkpt lat="47.05167" lon="-0.87507">
        <ele>64</ele>
        <time>2015-03-16T07:44:51Z</time>
      </trkpt>
      <trkpt lat="47.05166" lon="-0.87504">
        <ele>64</ele>
        <time>2015-03-16T07:44:53Z</time>
      </trkpt>
      <trkpt lat="47.05165" lon="-0.875">
        <ele>64</ele>
        <time>2015-03-16T07:44:55Z</time>
      </trkpt>
      <trkpt lat="47.05164" lon="-0.87497">
        <ele>64</ele>
        <time>2015-03-16T07:44:57Z</time>
      </trkpt>
      <trkpt lat="47.05162" lon="-0.87492">
        <ele>64</ele>
        <time>2015-03-16T07:45:00Z</time>
      </trkpt>
      <trkpt lat="47.0516" lon="-0.8749">
        <ele>64</ele>
        <time>2015-03-16T07:45:02Z</time>
      </trkpt>
      <trkpt lat="47.05159" lon="-0.87486">
        <ele>64</ele>
        <time>2015-03-16T07:45:04Z</time>
      </trkpt>
      <trkpt lat="47.05157" lon="-0.87482">
        <ele>64</ele>
        <time>2015-03-16T07:45:06Z</time>
      </trkpt>
      <trkpt lat="47.05154" lon="-0.87478">
        <ele>64</ele>
        <time>2015-03-16T07:45:08Z</time>
      </trkpt>
      <trkpt lat="47.05151" lon="-0.87474">
        <ele>64</ele>
        <time>2015-03-16T07:45:10Z</time>
      </trkpt>
      <trkpt lat="47.05149" lon="-0.87472">
        <ele>64</ele>
        <time>2015-03-16T07:45:12Z</time>
      </trkpt>
      <trkpt lat="47.05146" lon="-0.8747">
        <ele>64</ele>
        <time>2015-03-16T07:45:14Z</time>
      </trkpt>
      <trkpt lat="47.05143" lon="-0.87468">
        <ele>65</ele>
        <time>2015-03-16T07:45:16Z</time>
      </trkpt>
      <trkpt lat="47.0514" lon="-0.87466">
        <ele>65</ele>
        <time>2015-03-16T07:45:18Z</time>
      </trkpt>
      <trkpt lat="47.05137" lon="-0.87466">
        <ele>66</ele>
        <time>2015-03-16T07:45:20Z</time>
      </trkpt>
      <trkpt lat="47.05134" lon="-0.87466">
        <ele>66</ele>
        <time>2015-03-16T07:45:22Z</time>
      </trkpt>
      <trkpt lat="47.05131" lon="-0.87465">
        <ele>66</ele>
        <time>2015-03-16T07:45:24Z</time>
      </trkpt>
      <trkpt lat="47.05128" lon="-0.87464">
        <ele>66</ele>
        <time>2015-03-16T07:45:26Z</time>
      </trkpt>
      <trkpt lat="47.05126" lon="-0.87463">
        <ele>67</ele>
        <time>2015-03-16T07:45:28Z</time>
      </trkpt>
      <trkpt lat="47.05123" lon="-0.87463">
        <ele>67</ele>
        <time>2015-03-16T07:45:30Z</time>
      </trkpt>
      <trkpt lat="47.0512" lon="-0.87462">
        <ele>67</ele>
        <time>2015-03-16T07:45:32Z</time>
      </trkpt>
      <trkpt lat="47.05118" lon="-0.87461">
        <ele>67</ele>
        <time>2015-03-16T07:45:34Z</time>
      </trkpt>
      <trkpt lat="47.05114" lon="-0.87459">
        <ele>67</ele>
        <time>2015-03-16T07:45:37Z</time>
      </trkpt>
      <trkpt lat="47.05112" lon="-0.87457">
        <ele>67</ele>
        <time>2015-03-16T07:45:39Z</time>
      </trkpt>
      <trkpt lat="47.05109" lon="-0.87456">
        <ele>67</ele>
        <time>2015-03-16T07:45:41Z</time>
      </trkpt>
      <trkpt lat="47.05107" lon="-0.87453">
        <ele>67</ele>
        <time>2015-03-16T07:45:43Z</time>
      </trkpt>
      <trkpt lat="47.05104" lon="-0.87452">
        <ele>67</ele>
        <time>2015-03-16T07:45:45Z</time>
      </trkpt>
      <trkpt lat="47.05102" lon="-0.8745">
        <ele>67</ele>
        <time>2015-03-16T07:45:47Z</time>
      </trkpt>
      <trkpt lat="47.051" lon="-0.87448">
        <ele>67</ele>
        <time>2015-03-16T07:45:49Z</time>
      </trkpt>
      <trkpt lat="47.05097" lon="-0.87447">
        <ele>67</ele>
        <time>2015-03-16T07:45:51Z</time>
      </trkpt>
      <trkpt lat="47.05094" lon="-0.87446">
        <ele>67</ele>
        <time>2015-03-16T07:45:53Z</time>
      </trkpt>
      <trkpt lat="47.05092" lon="-0.87445">
        <ele>67</ele>
        <time>2015-03-16T07:45:55Z</time>
      </trkpt>
      <trkpt lat="47.05088" lon="-0.87442">
        <ele>67</ele>
        <time>2015-03-16T07:45:58Z</time>
      </trkpt>
      <trkpt lat="47.05086" lon="-0.87441">
        <ele>67</ele>
        <time>2015-03-16T07:46:00Z</time>
      </trkpt>
      <trkpt lat="47.05084" lon="-0.87441">
        <ele>67</ele>
        <time>2015-03-16T07:46:02Z</time>
      </trkpt>
      <trkpt lat="47.0508" lon="-0.8744">
        <ele>67</ele>
        <time>2015-03-16T07:46:05Z</time>
      </trkpt>
      <trkpt lat="47.05077" lon="-0.87439">
        <ele>67</ele>
        <time>2015-03-16T07:46:07Z</time>
      </trkpt>
      <trkpt lat="47.05075" lon="-0.87439">
        <ele>67</ele>
        <time>2015-03-16T07:46:09Z</time>
      </trkpt>
      <trkpt lat="47.05072" lon="-0.87439">
        <ele>67</ele>
        <time>2015-03-16T07:46:11Z</time>
      </trkpt>
      <trkpt lat="47.0507" lon="-0.87438">
        <ele>67</ele>
        <time>2015-03-16T07:46:13Z</time>
      </trkpt>
      <trkpt lat="47.05068" lon="-0.8744">
        <ele>67</ele>
        <time>2015-03-16T07:46:15Z</time>
      </trkpt>
      <trkpt lat="47.05065" lon="-0.87439">
        <ele>67</ele>
        <time>2015-03-16T07:46:17Z</time>
      </trkpt>
      <trkpt lat="47.05062" lon="-0.87438">
        <ele>67</ele>
        <time>2015-03-16T07:46:19Z</time>
      </trkpt>
      <trkpt lat="47.05059" lon="-0.87437">
        <ele>67</ele>
        <time>2015-03-16T07:46:21Z</time>
      </trkpt>
      <trkpt lat="47.05057" lon="-0.87436">
        <ele>67</ele>
        <time>2015-03-16T07:46:23Z</time>
      </trkpt>
      <trkpt lat="47.05054" lon="-0.87436">
        <ele>67</ele>
        <time>2015-03-16T07:46:25Z</time>
      </trkpt>
      <trkpt lat="47.05051" lon="-0.87434">
        <ele>67</ele>
        <time>2015-03-16T07:46:27Z</time>
      </trkpt>
      <trkpt lat="47.05049" lon="-0.87433">
        <ele>67</ele>
        <time>2015-03-16T07:46:29Z</time>
      </trkpt>
      <trkpt lat="47.05046" lon="-0.87432">
        <ele>67</ele>
        <time>2015-03-16T07:46:31Z</time>
      </trkpt>
      <trkpt lat="47.05043" lon="-0.87432">
        <ele>67</ele>
        <time>2015-03-16T07:46:33Z</time>
      </trkpt>
      <trkpt lat="47.05041" lon="-0.87431">
        <ele>67</ele>
        <time>2015-03-16T07:46:35Z</time>
      </trkpt>
      <trkpt lat="47.05038" lon="-0.8743">
        <ele>67</ele>
        <time>2015-03-16T07:46:37Z</time>
      </trkpt>
      <trkpt lat="47.05036" lon="-0.8743">
        <ele>67</ele>
        <time>2015-03-16T07:46:39Z</time>
      </trkpt>
      <trkpt lat="47.05033" lon="-0.8743">
        <ele>67</ele>
        <time>2015-03-16T07:46:41Z</time>
      </trkpt>
      <trkpt lat="47.0503" lon="-0.87429">
        <ele>67</ele>
        <time>2015-03-16T07:46:43Z</time>
      </trkpt>
      <trkpt lat="47.05027" lon="-0.87429">
        <ele>66</ele>
        <time>2015-03-16T07:46:45Z</time>
      </trkpt>
      <trkpt lat="47.05024" lon="-0.87428">
        <ele>66</ele>
        <time>2015-03-16T07:46:47Z</time>
      </trkpt>
      <trkpt lat="47.05022" lon="-0.87428">
        <ele>66</ele>
        <time>2015-03-16T07:46:49Z</time>
      </trkpt>
      <trkpt lat="47.05019" lon="-0.87428">
        <ele>66</ele>
        <time>2015-03-16T07:46:51Z</time>
      </trkpt>
      <trkpt lat="47.05016" lon="-0.87428">
        <ele>66</ele>
        <time>2015-03-16T07:46:53Z</time>
      </trkpt>
      <trkpt lat="47.05013" lon="-0.87427">
        <ele>66</ele>
        <time>2015-03-16T07:46:55Z</time>
      </trkpt>
      <trkpt lat="47.05011" lon="-0.87426">
        <ele>66</ele>
        <time>2015-03-16T07:46:57Z</time>
      </trkpt>
      <trkpt lat="47.05009" lon="-0.87423">
        <ele>66</ele>
        <time>2015-03-16T07:46:59Z</time>
      </trkpt>
      <trkpt lat="47.05008" lon="-0.8742">
        <ele>66</ele>
        <time>2015-03-16T07:47:01Z</time>
      </trkpt>
      <trkpt lat="47.05008" lon="-0.87416">
        <ele>66</ele>
        <time>2015-03-16T07:47:03Z</time>
      </trkpt>
      <trkpt lat="47.05008" lon="-0.87412">
        <ele>66</ele>
        <time>2015-03-16T07:47:05Z</time>
      </trkpt>
      <trkpt lat="47.05008" lon="-0.87408">
        <ele>66</ele>
        <time>2015-03-16T07:47:07Z</time>
      </trkpt>
      <trkpt lat="47.05008" lon="-0.87405">
        <ele>66</ele>
        <time>2015-03-16T07:47:09Z</time>
      </trkpt>
      <trkpt lat="47.05008" lon="-0.87401">
        <ele>66</ele>
        <time>2015-03-16T07:47:11Z</time>
      </trkpt>
      <trkpt lat="47.05007" lon="-0.87397">
        <ele>66</ele>
        <time>2015-03-16T07:47:13Z</time>
      </trkpt>
      <trkpt lat="47.05005" lon="-0.87394">
        <ele>66</ele>
        <time>2015-03-16T07:47:15Z</time>
      </trkpt>
      <trkpt lat="47.05002" lon="-0.87393">
        <ele>66</ele>
        <time>2015-03-16T07:47:17Z</time>
      </trkpt>
      <trkpt lat="47.05" lon="-0.87393">
        <ele>66</ele>
        <time>2015-03-16T07:47:19Z</time>
      </trkpt>
      <trkpt lat="47.04998" lon="-0.87393">
        <ele>66</ele>
        <time>2015-03-16T07:47:21Z</time>
      </trkpt>
      <trkpt lat="47.04995" lon="-0.87392">
        <ele>66</ele>
        <time>2015-03-16T07:47:23Z</time>
      </trkpt>
      <trkpt lat="47.04993" lon="-0.87391">
        <ele>66</ele>
        <time>2015-03-16T07:47:25Z</time>
      </trkpt>
      <trkpt lat="47.04991" lon="-0.8739">
        <ele>66</ele>
        <time>2015-03-16T07:47:27Z</time>
      </trkpt>
      <trkpt lat="47.04988" lon="-0.87389">
        <ele>66</ele>
        <time>2015-03-16T07:47:29Z</time>
      </trkpt>
      <trkpt lat="47.04986" lon="-0.87388">
        <ele>66</ele>
        <time>2015-03-16T07:47:31Z</time>
      </trkpt>
      <trkpt lat="47.04984" lon="-0.87386">
        <ele>66</ele>
        <time>2015-03-16T07:47:33Z</time>
      </trkpt>
      <trkpt lat="47.04981" lon="-0.87385">
        <ele>66</ele>
        <time>2015-03-16T07:47:35Z</time>
      </trkpt>
      <trkpt lat="47.04978" lon="-0.87382">
        <ele>66</ele>
        <time>2015-03-16T07:47:38Z</time>
      </trkpt>
      <trkpt lat="47.04975" lon="-0.87379">
        <ele>66</ele>
        <time>2015-03-16T07:47:41Z</time>
      </trkpt>
      <trkpt lat="47.04973" lon="-0.87376">
        <ele>66</ele>
        <time>2015-03-16T07:47:43Z</time>
      </trkpt>
      <trkpt lat="47.04972" lon="-0.87375">
        <ele>66</ele>
        <time>2015-03-16T07:47:45Z</time>
      </trkpt>
      <trkpt lat="47.04971" lon="-0.87372">
        <ele>65</ele>
        <time>2015-03-16T07:47:47Z</time>
      </trkpt>
      <trkpt lat="47.04969" lon="-0.87369">
        <ele>65</ele>
        <time>2015-03-16T07:47:49Z</time>
      </trkpt>
      <trkpt lat="47.04967" lon="-0.87365">
        <ele>64</ele>
        <time>2015-03-16T07:47:52Z</time>
      </trkpt>
      <trkpt lat="47.04966" lon="-0.87362">
        <ele>64</ele>
        <time>2015-03-16T07:47:54Z</time>
      </trkpt>
      <trkpt lat="47.04964" lon="-0.87358">
        <ele>64</ele>
        <time>2015-03-16T07:47:56Z</time>
      </trkpt>
      <trkpt lat="47.04964" lon="-0.87354">
        <ele>64</ele>
        <time>2015-03-16T07:47:58Z</time>
      </trkpt>
      <trkpt lat="47.04962" lon="-0.8735">
        <ele>64</ele>
        <time>2015-03-16T07:48:00Z</time>
      </trkpt>
      <trkpt lat="47.04959" lon="-0.87346">
        <ele>64</ele>
        <time>2015-03-16T07:48:03Z</time>
      </trkpt>
      <trkpt lat="47.04956" lon="-0.87342">
        <ele>64</ele>
        <time>2015-03-16T07:48:06Z</time>
      </trkpt>
      <trkpt lat="47.04955" lon="-0.8734">
        <ele>64</ele>
        <time>2015-03-16T07:48:08Z</time>
      </trkpt>
      <trkpt lat="47.04952" lon="-0.87337">
        <ele>64</ele>
        <time>2015-03-16T07:48:10Z</time>
      </trkpt>
      <trkpt lat="47.04949" lon="-0.87335">
        <ele>64</ele>
        <time>2015-03-16T07:48:12Z</time>
      </trkpt>
      <trkpt lat="47.04947" lon="-0.87332">
        <ele>64</ele>
        <time>2015-03-16T07:48:14Z</time>
      </trkpt>
      <trkpt lat="47.04945" lon="-0.8733">
        <ele>64</ele>
        <time>2015-03-16T07:48:16Z</time>
      </trkpt>
      <trkpt lat="47.04943" lon="-0.8733">
        <ele>64</ele>
        <time>2015-03-16T07:48:18Z</time>
      </trkpt>
      <trkpt lat="47.0494" lon="-0.87329">
        <ele>64</ele>
        <time>2015-03-16T07:48:20Z</time>
      </trkpt>
      <trkpt lat="47.04938" lon="-0.87326">
        <ele>64</ele>
        <time>2015-03-16T07:48:22Z</time>
      </trkpt>
      <trkpt lat="47.04934" lon="-0.87324">
        <ele>64</ele>
        <time>2015-03-16T07:48:24Z</time>
      </trkpt>
      <trkpt lat="47.04931" lon="-0.87322">
        <ele>64</ele>
        <time>2015-03-16T07:48:26Z</time>
      </trkpt>
      <trkpt lat="47.04929" lon="-0.87319">
        <ele>64</ele>
        <time>2015-03-16T07:48:28Z</time>
      </trkpt>
      <trkpt lat="47.04927" lon="-0.87316">
        <ele>64</ele>
        <time>2015-03-16T07:48:30Z</time>
      </trkpt>
      <trkpt lat="47.04927" lon="-0.87314">
        <ele>64</ele>
        <time>2015-03-16T07:48:32Z</time>
      </trkpt>
      <trkpt lat="47.04927" lon="-0.87312">
        <ele>64</ele>
        <time>2015-03-16T07:48:34Z</time>
      </trkpt>
      <trkpt lat="47.04928" lon="-0.87309">
        <ele>64</ele>
        <time>2015-03-16T07:48:36Z</time>
      </trkpt>
      <trkpt lat="47.04927" lon="-0.87306">
        <ele>64</ele>
        <time>2015-03-16T07:48:38Z</time>
      </trkpt>
      <trkpt lat="47.04927" lon="-0.87302">
        <ele>64</ele>
        <time>2015-03-16T07:48:40Z</time>
      </trkpt>
      <trkpt lat="47.04927" lon="-0.87299">
        <ele>64</ele>
        <time>2015-03-16T07:48:42Z</time>
      </trkpt>
      <trkpt lat="47.04928" lon="-0.87296">
        <ele>64</ele>
        <time>2015-03-16T07:48:44Z</time>
      </trkpt>
      <trkpt lat="47.04929" lon="-0.87292">
        <ele>64</ele>
        <time>2015-03-16T07:48:46Z</time>
      </trkpt>
      <trkpt lat="47.0493" lon="-0.87288">
        <ele>64</ele>
        <time>2015-03-16T07:48:48Z</time>
      </trkpt>
      <trkpt lat="47.0493" lon="-0.87284">
        <ele>64</ele>
        <time>2015-03-16T07:48:50Z</time>
      </trkpt>
      <trkpt lat="47.04931" lon="-0.8728">
        <ele>64</ele>
        <time>2015-03-16T07:48:52Z</time>
      </trkpt>
      <trkpt lat="47.04931" lon="-0.87277">
        <ele>64</ele>
        <time>2015-03-16T07:48:54Z</time>
      </trkpt>
      <trkpt lat="47.04931" lon="-0.87272">
        <ele>64</ele>
        <time>2015-03-16T07:48:56Z</time>
      </trkpt>
      <trkpt lat="47.04931" lon="-0.87267">
        <ele>64</ele>
        <time>2015-03-16T07:48:58Z</time>
      </trkpt>
      <trkpt lat="47.0493" lon="-0.87262">
        <ele>64</ele>
        <time>2015-03-16T07:49:00Z</time>
      </trkpt>
      <trkpt lat="47.04929" lon="-0.87259">
        <ele>64</ele>
        <time>2015-03-16T07:49:02Z</time>
      </trkpt>
      <trkpt lat="47.04928" lon="-0.87255">
        <ele>64</ele>
        <time>2015-03-16T07:49:04Z</time>
      </trkpt>
      <trkpt lat="47.04927" lon="-0.87251">
        <ele>64</ele>
        <time>2015-03-16T07:49:06Z</time>
      </trkpt>
      <trkpt lat="47.04926" lon="-0.87248">
        <ele>64</ele>
        <time>2015-03-16T07:49:08Z</time>
      </trkpt>
      <trkpt lat="47.04924" lon="-0.87245">
        <ele>64</ele>
        <time>2015-03-16T07:49:10Z</time>
      </trkpt>
      <trkpt lat="47.04922" lon="-0.87242">
        <ele>64</ele>
        <time>2015-03-16T07:49:12Z</time>
      </trkpt>
      <trkpt lat="47.0492" lon="-0.87238">
        <ele>64</ele>
        <time>2015-03-16T07:49:15Z</time>
      </trkpt>
      <trkpt lat="47.04918" lon="-0.87234">
        <ele>64</ele>
        <time>2015-03-16T07:49:17Z</time>
      </trkpt>
      <trkpt lat="47.04915" lon="-0.8723">
        <ele>64</ele>
        <time>2015-03-16T07:49:19Z</time>
      </trkpt>
      <trkpt lat="47.04913" lon="-0.87226">
        <ele>64</ele>
        <time>2015-03-16T07:49:21Z</time>
      </trkpt>
      <trkpt lat="47.0491" lon="-0.87222">
        <ele>65</ele>
        <time>2015-03-16T07:49:24Z</time>
      </trkpt>
      <trkpt lat="47.04907" lon="-0.87219">
        <ele>65</ele>
        <time>2015-03-16T07:49:27Z</time>
      </trkpt>
      <trkpt lat="47.04905" lon="-0.87214">
        <ele>65</ele>
        <time>2015-03-16T07:49:30Z</time>
      </trkpt>
      <trkpt lat="47.04904" lon="-0.87212">
        <ele>65</ele>
        <time>2015-03-16T07:49:32Z</time>
      </trkpt>
      <trkpt lat="47.04902" lon="-0.8721">
        <ele>65</ele>
        <time>2015-03-16T07:49:34Z</time>
      </trkpt>
      <trkpt lat="47.049" lon="-0.87207">
        <ele>65</ele>
        <time>2015-03-16T07:49:36Z</time>
      </trkpt>
      <trkpt lat="47.04898" lon="-0.87202">
        <ele>65</ele>
        <time>2015-03-16T07:49:38Z</time>
      </trkpt>
      <trkpt lat="47.04896" lon="-0.87198">
        <ele>65</ele>
        <time>2015-03-16T07:49:41Z</time>
      </trkpt>
      <trkpt lat="47.04894" lon="-0.87196">
        <ele>65</ele>
        <time>2015-03-16T07:49:43Z</time>
      </trkpt>
      <trkpt lat="47.04891" lon="-0.87194">
        <ele>65</ele>
        <time>2015-03-16T07:49:45Z</time>
      </trkpt>
      <trkpt lat="47.04888" lon="-0.87191">
        <ele>65</ele>
        <time>2015-03-16T07:49:48Z</time>
      </trkpt>
      <trkpt lat="47.04885" lon="-0.8719">
        <ele>65</ele>
        <time>2015-03-16T07:49:50Z</time>
      </trkpt>
      <trkpt lat="47.04883" lon="-0.87188">
        <ele>65</ele>
        <time>2015-03-16T07:49:52Z</time>
      </trkpt>
      <trkpt lat="47.0488" lon="-0.87187">
        <ele>65</ele>
        <time>2015-03-16T07:49:54Z</time>
      </trkpt>
      <trkpt lat="47.04877" lon="-0.87186">
        <ele>65</ele>
        <time>2015-03-16T07:49:56Z</time>
      </trkpt>
      <trkpt lat="47.04875" lon="-0.87186">
        <ele>65</ele>
        <time>2015-03-16T07:49:58Z</time>
      </trkpt>
      <trkpt lat="47.04872" lon="-0.87186">
        <ele>65</ele>
        <time>2015-03-16T07:50:00Z</time>
      </trkpt>
      <trkpt lat="47.04869" lon="-0.87186">
        <ele>65</ele>
        <time>2015-03-16T07:50:02Z</time>
      </trkpt>
      <trkpt lat="47.04866" lon="-0.87186">
        <ele>65</ele>
        <time>2015-03-16T07:50:04Z</time>
      </trkpt>
      <trkpt lat="47.04863" lon="-0.87186">
        <ele>65</ele>
        <time>2015-03-16T07:50:06Z</time>
      </trkpt>
      <trkpt lat="47.04861" lon="-0.87187">
        <ele>65</ele>
        <time>2015-03-16T07:50:08Z</time>
      </trkpt>
      <trkpt lat="47.04858" lon="-0.87186">
        <ele>65</ele>
        <time>2015-03-16T07:50:11Z</time>
      </trkpt>
      <trkpt lat="47.04855" lon="-0.87184">
        <ele>65</ele>
        <time>2015-03-16T07:50:13Z</time>
      </trkpt>
      <trkpt lat="47.04853" lon="-0.87183">
        <ele>65</ele>
        <time>2015-03-16T07:50:15Z</time>
      </trkpt>
      <trkpt lat="47.0485" lon="-0.87183">
        <ele>65</ele>
        <time>2015-03-16T07:50:17Z</time>
      </trkpt>
      <trkpt lat="47.04848" lon="-0.87183">
        <ele>65</ele>
        <time>2015-03-16T07:50:19Z</time>
      </trkpt>
      <trkpt lat="47.04845" lon="-0.87183">
        <ele>65</ele>
        <time>2015-03-16T07:50:21Z</time>
      </trkpt>
      <trkpt lat="47.04842" lon="-0.87184">
        <ele>65</ele>
        <time>2015-03-16T07:50:23Z</time>
      </trkpt>
      <trkpt lat="47.04839" lon="-0.87185">
        <ele>65</ele>
        <time>2015-03-16T07:50:25Z</time>
      </trkpt>
      <trkpt lat="47.04836" lon="-0.87186">
        <ele>65</ele>
        <time>2015-03-16T07:50:27Z</time>
      </trkpt>
      <trkpt lat="47.04833" lon="-0.87186">
        <ele>65</ele>
        <time>2015-03-16T07:50:29Z</time>
      </trkpt>
      <trkpt lat="47.0483" lon="-0.87186">
        <ele>65</ele>
        <time>2015-03-16T07:50:31Z</time>
      </trkpt>
      <trkpt lat="47.04826" lon="-0.87186">
        <ele>65</ele>
        <time>2015-03-16T07:50:33Z</time>
      </trkpt>
      <trkpt lat="47.04823" lon="-0.87187">
        <ele>65</ele>
        <time>2015-03-16T07:50:36Z</time>
      </trkpt>
      <trkpt lat="47.04821" lon="-0.87187">
        <ele>65</ele>
        <time>2015-03-16T07:50:38Z</time>
      </trkpt>
      <trkpt lat="47.04818" lon="-0.87187">
        <ele>65</ele>
        <time>2015-03-16T07:50:40Z</time>
      </trkpt>
      <trkpt lat="47.04815" lon="-0.87187">
        <ele>65</ele>
        <time>2015-03-16T07:50:42Z</time>
      </trkpt>
      <trkpt lat="47.04813" lon="-0.87187">
        <ele>65</ele>
        <time>2015-03-16T07:50:44Z</time>
      </trkpt>
      <trkpt lat="47.0481" lon="-0.87187">
        <ele>65</ele>
        <time>2015-03-16T07:50:46Z</time>
      </trkpt>
      <trkpt lat="47.04808" lon="-0.87186">
        <ele>65</ele>
        <time>2015-03-16T07:50:48Z</time>
      </trkpt>
      <trkpt lat="47.04805" lon="-0.87185">
        <ele>65</ele>
        <time>2015-03-16T07:50:50Z</time>
      </trkpt>
      <trkpt lat="47.04802" lon="-0.87184">
        <ele>65</ele>
        <time>2015-03-16T07:50:52Z</time>
      </trkpt>
      <trkpt lat="47.048" lon="-0.87182">
        <ele>65</ele>
        <time>2015-03-16T07:50:54Z</time>
      </trkpt>
      <trkpt lat="47.04797" lon="-0.87179">
        <ele>65</ele>
        <time>2015-03-16T07:50:57Z</time>
      </trkpt>
      <trkpt lat="47.04795" lon="-0.87176">
        <ele>65</ele>
        <time>2015-03-16T07:50:59Z</time>
      </trkpt>
      <trkpt lat="47.04793" lon="-0.87173">
        <ele>65</ele>
        <time>2015-03-16T07:51:01Z</time>
      </trkpt>
      <trkpt lat="47.0479" lon="-0.87168">
        <ele>65</ele>
        <time>2015-03-16T07:51:04Z</time>
      </trkpt>
      <trkpt lat="47.04789" lon="-0.87165">
        <ele>65</ele>
        <time>2015-03-16T07:51:06Z</time>
      </trkpt>
      <trkpt lat="47.04788" lon="-0.87162">
        <ele>65</ele>
        <time>2015-03-16T07:51:08Z</time>
      </trkpt>
      <trkpt lat="47.04787" lon="-0.87159">
        <ele>65</ele>
        <time>2015-03-16T07:51:10Z</time>
      </trkpt>
      <trkpt lat="47.04785" lon="-0.87157">
        <ele>65</ele>
        <time>2015-03-16T07:51:12Z</time>
      </trkpt>
      <trkpt lat="47.04784" lon="-0.87154">
        <ele>65</ele>
        <time>2015-03-16T07:51:14Z</time>
      </trkpt>
      <trkpt lat="47.04783" lon="-0.87151">
        <ele>65</ele>
        <time>2015-03-16T07:51:16Z</time>
      </trkpt>
      <trkpt lat="47.04781" lon="-0.87148">
        <ele>65</ele>
        <time>2015-03-16T07:51:18Z</time>
      </trkpt>
      <trkpt lat="47.0478" lon="-0.87144">
        <ele>65</ele>
        <time>2015-03-16T07:51:20Z</time>
      </trkpt>
      <trkpt lat="47.04778" lon="-0.87141">
        <ele>65</ele>
        <time>2015-03-16T07:51:22Z</time>
      </trkpt>
      <trkpt lat="47.04777" lon="-0.87137">
        <ele>65</ele>
        <time>2015-03-16T07:51:24Z</time>
      </trkpt>
      <trkpt lat="47.04775" lon="-0.87134">
        <ele>65</ele>
        <time>2015-03-16T07:51:26Z</time>
      </trkpt>
      <trkpt lat="47.04774" lon="-0.8713">
        <ele>65</ele>
        <time>2015-03-16T07:51:28Z</time>
      </trkpt>
      <trkpt lat="47.04773" lon="-0.87126">
        <ele>65</ele>
        <time>2015-03-16T07:51:31Z</time>
      </trkpt>
      <trkpt lat="47.04771" lon="-0.87122">
        <ele>65</ele>
        <time>2015-03-16T07:51:34Z</time>
      </trkpt>
      <trkpt lat="47.0477" lon="-0.87119">
        <ele>65</ele>
        <time>2015-03-16T07:51:36Z</time>
      </trkpt>
      <trkpt lat="47.04769" lon="-0.87116">
        <ele>65</ele>
        <time>2015-03-16T07:51:38Z</time>
      </trkpt>
      <trkpt lat="47.04768" lon="-0.87113">
        <ele>64</ele>
        <time>2015-03-16T07:51:40Z</time>
      </trkpt>
      <trkpt lat="47.04767" lon="-0.87109">
        <ele>64</ele>
        <time>2015-03-16T07:51:42Z</time>
      </trkpt>
      <trkpt lat="47.04766" lon="-0.87106">
        <ele>64</ele>
        <time>2015-03-16T07:51:44Z</time>
      </trkpt>
      <trkpt lat="47.04765" lon="-0.87101">
        <ele>64</ele>
        <time>2015-03-16T07:51:46Z</time>
      </trkpt>
      <trkpt lat="47.04764" lon="-0.87095">
        <ele>64</ele>
        <time>2015-03-16T07:51:48Z</time>
      </trkpt>
      <trkpt lat="47.04763" lon="-0.8709">
        <ele>64</ele>
        <time>2015-03-16T07:51:50Z</time>
      </trkpt>
      <trkpt lat="47.04763" lon="-0.87086">
        <ele>64</ele>
        <time>2015-03-16T07:51:52Z</time>
      </trkpt>
      <trkpt lat="47.04761" lon="-0.87081">
        <ele>64</ele>
        <time>2015-03-16T07:51:54Z</time>
      </trkpt>
      <trkpt lat="47.0476" lon="-0.87078">
        <ele>64</ele>
        <time>2015-03-16T07:51:56Z</time>
      </trkpt>
      <trkpt lat="47.04759" lon="-0.87075">
        <ele>64</ele>
        <time>2015-03-16T07:51:58Z</time>
      </trkpt>
      <trkpt lat="47.04758" lon="-0.8707">
        <ele>64</ele>
        <time>2015-03-16T07:52:00Z</time>
      </trkpt>
      <trkpt lat="47.04756" lon="-0.87066">
        <ele>64</ele>
        <time>2015-03-16T07:52:02Z</time>
      </trkpt>
      <trkpt lat="47.04754" lon="-0.87063">
        <ele>64</ele>
        <time>2015-03-16T07:52:04Z</time>
      </trkpt>
      <trkpt lat="47.04753" lon="-0.87059">
        <ele>64</ele>
        <time>2015-03-16T07:52:06Z</time>
      </trkpt>
      <trkpt lat="47.04751" lon="-0.87056">
        <ele>64</ele>
        <time>2015-03-16T07:52:08Z</time>
      </trkpt>
      <trkpt lat="47.0475" lon="-0.87053">
        <ele>64</ele>
        <time>2015-03-16T07:52:10Z</time>
      </trkpt>
      <trkpt lat="47.04748" lon="-0.87048">
        <ele>64</ele>
        <time>2015-03-16T07:52:13Z</time>
      </trkpt>
      <trkpt lat="47.04747" lon="-0.87045">
        <ele>64</ele>
        <time>2015-03-16T07:52:15Z</time>
      </trkpt>
      <trkpt lat="47.04745" lon="-0.87042">
        <ele>64</ele>
        <time>2015-03-16T07:52:17Z</time>
      </trkpt>
      <trkpt lat="47.04743" lon="-0.87038">
        <ele>64</ele>
        <time>2015-03-16T07:52:20Z</time>
      </trkpt>
      <trkpt lat="47.04741" lon="-0.87036">
        <ele>64</ele>
        <time>2015-03-16T07:52:22Z</time>
      </trkpt>
      <trkpt lat="47.0474" lon="-0.87032">
        <ele>64</ele>
        <time>2015-03-16T07:52:24Z</time>
      </trkpt>
      <trkpt lat="47.04738" lon="-0.87029">
        <ele>64</ele>
        <time>2015-03-16T07:52:26Z</time>
      </trkpt>
      <trkpt lat="47.04737" lon="-0.87026">
        <ele>64</ele>
        <time>2015-03-16T07:52:28Z</time>
      </trkpt>
      <trkpt lat="47.04736" lon="-0.87024">
        <ele>64</ele>
        <time>2015-03-16T07:52:30Z</time>
      </trkpt>
      <trkpt lat="47.04734" lon="-0.87021">
        <ele>64</ele>
        <time>2015-03-16T07:52:32Z</time>
      </trkpt>
      <trkpt lat="47.04732" lon="-0.87019">
        <ele>64</ele>
        <time>2015-03-16T07:52:34Z</time>
      </trkpt>
      <trkpt lat="47.0473" lon="-0.87017">
        <ele>64</ele>
        <time>2015-03-16T07:52:36Z</time>
      </trkpt>
      <trkpt lat="47.04726" lon="-0.87017">
        <ele>64</ele>
        <time>2015-03-16T07:52:38Z</time>
      </trkpt>
      <trkpt lat="47.04724" lon="-0.87018">
        <ele>64</ele>
        <time>2015-03-16T07:52:40Z</time>
      </trkpt>
      <trkpt lat="47.04721" lon="-0.87019">
        <ele>64</ele>
        <time>2015-03-16T07:52:42Z</time>
      </trkpt>
      <trkpt lat="47.04718" lon="-0.87021">
        <ele>64</ele>
        <time>2015-03-16T07:52:44Z</time>
      </trkpt>
      <trkpt lat="47.04716" lon="-0.87024">
        <ele>64</ele>
        <time>2015-03-16T07:52:46Z</time>
      </trkpt>
      <trkpt lat="47.04713" lon="-0.87025">
        <ele>64</ele>
        <time>2015-03-16T07:52:48Z</time>
      </trkpt>
      <trkpt lat="47.04711" lon="-0.87027">
        <ele>64</ele>
        <time>2015-03-16T07:52:50Z</time>
      </trkpt>
      <trkpt lat="47.04709" lon="-0.87029">
        <ele>64</ele>
        <time>2015-03-16T07:52:52Z</time>
      </trkpt>
      <trkpt lat="47.04707" lon="-0.87032">
        <ele>64</ele>
        <time>2015-03-16T07:52:54Z</time>
      </trkpt>
      <trkpt lat="47.04704" lon="-0.87034">
        <ele>64</ele>
        <time>2015-03-16T07:52:56Z</time>
      </trkpt>
      <trkpt lat="47.04702" lon="-0.87036">
        <ele>64</ele>
        <time>2015-03-16T07:52:58Z</time>
      </trkpt>
      <trkpt lat="47.04699" lon="-0.87038">
        <ele>64</ele>
        <time>2015-03-16T07:53:00Z</time>
      </trkpt>
      <trkpt lat="47.04696" lon="-0.87039">
        <ele>65</ele>
        <time>2015-03-16T07:53:03Z</time>
      </trkpt>
      <trkpt lat="47.04695" lon="-0.87039">
        <ele>65</ele>
        <time>2015-03-16T07:53:07Z</time>
      </trkpt>
      <trkpt lat="47.04692" lon="-0.87038">
        <ele>65</ele>
        <time>2015-03-16T07:53:09Z</time>
      </trkpt>
      <trkpt lat="47.0469" lon="-0.87039">
        <ele>65</ele>
        <time>2015-03-16T07:53:11Z</time>
      </trkpt>
      <trkpt lat="47.04687" lon="-0.8704">
        <ele>65</ele>
        <time>2015-03-16T07:53:13Z</time>
      </trkpt>
      <trkpt lat="47.04685" lon="-0.8704">
        <ele>65</ele>
        <time>2015-03-16T07:53:15Z</time>
      </trkpt>
      <trkpt lat="47.04682" lon="-0.87041">
        <ele>65</ele>
        <time>2015-03-16T07:53:17Z</time>
      </trkpt>
      <trkpt lat="47.0468" lon="-0.87043">
        <ele>65</ele>
        <time>2015-03-16T07:53:19Z</time>
      </trkpt>
      <trkpt lat="47.04678" lon="-0.87044">
        <ele>65</ele>
        <time>2015-03-16T07:53:21Z</time>
      </trkpt>
      <trkpt lat="47.04675" lon="-0.87046">
        <ele>65</ele>
        <time>2015-03-16T07:53:23Z</time>
      </trkpt>
      <trkpt lat="47.04672" lon="-0.87048">
        <ele>65</ele>
        <time>2015-03-16T07:53:26Z</time>
      </trkpt>
      <trkpt lat="47.0467" lon="-0.87049">
        <ele>66</ele>
        <time>2015-03-16T07:53:28Z</time>
      </trkpt>
      <trkpt lat="47.04667" lon="-0.87051">
        <ele>66</ele>
        <time>2015-03-16T07:53:30Z</time>
      </trkpt>
      <trkpt lat="47.04664" lon="-0.87053">
        <ele>66</ele>
        <time>2015-03-16T07:53:32Z</time>
      </trkpt>
      <trkpt lat="47.04661" lon="-0.87054">
        <ele>66</ele>
        <time>2015-03-16T07:53:34Z</time>
      </trkpt>
      <trkpt lat="47.04658" lon="-0.87055">
        <ele>67</ele>
        <time>2015-03-16T07:53:36Z</time>
      </trkpt>
      <trkpt lat="47.04656" lon="-0.87056">
        <ele>67</ele>
        <time>2015-03-16T07:53:38Z</time>
      </trkpt>
      <trkpt lat="47.04653" lon="-0.87057">
        <ele>67</ele>
        <time>2015-03-16T07:53:40Z</time>
      </trkpt>
      <trkpt lat="47.0465" lon="-0.87058">
        <ele>67</ele>
        <time>2015-03-16T07:53:42Z</time>
      </trkpt>
      <trkpt lat="47.04647" lon="-0.87054">
        <ele>67</ele>
        <time>2015-03-16T07:53:45Z</time>
      </trkpt>
      <trkpt lat="47.04646" lon="-0.87051">
        <ele>67</ele>
        <time>2015-03-16T07:53:47Z</time>
      </trkpt>
      <trkpt lat="47.04645" lon="-0.87047">
        <ele>67</ele>
        <time>2015-03-16T07:53:49Z</time>
      </trkpt>
      <trkpt lat="47.04645" lon="-0.87044">
        <ele>67</ele>
        <time>2015-03-16T07:53:51Z</time>
      </trkpt>
      <trkpt lat="47.04645" lon="-0.8704">
        <ele>67</ele>
        <time>2015-03-16T07:53:53Z</time>
      </trkpt>
      <trkpt lat="47.04645" lon="-0.87036">
        <ele>67</ele>
        <time>2015-03-16T07:53:55Z</time>
      </trkpt>
      <trkpt lat="47.04645" lon="-0.87032">
        <ele>67</ele>
        <time>2015-03-16T07:53:57Z</time>
      </trkpt>
      <trkpt lat="47.04646" lon="-0.87028">
        <ele>67</ele>
        <time>2015-03-16T07:54:00Z</time>
      </trkpt>
      <trkpt lat="47.04645" lon="-0.87023">
        <ele>67</ele>
        <time>2015-03-16T07:54:02Z</time>
      </trkpt>
      <trkpt lat="47.04644" lon="-0.87019">
        <ele>67</ele>
        <time>2015-03-16T07:54:04Z</time>
      </trkpt>
      <trkpt lat="47.04643" lon="-0.87014">
        <ele>67</ele>
        <time>2015-03-16T07:54:06Z</time>
      </trkpt>
      <trkpt lat="47.04642" lon="-0.8701">
        <ele>67</ele>
        <time>2015-03-16T07:54:08Z</time>
      </trkpt>
      <trkpt lat="47.04642" lon="-0.87006">
        <ele>67</ele>
        <time>2015-03-16T07:54:10Z</time>
      </trkpt>
      <trkpt lat="47.04641" lon="-0.87003">
        <ele>67</ele>
        <time>2015-03-16T07:54:12Z</time>
      </trkpt>
      <trkpt lat="47.04641" lon="-0.86999">
        <ele>67</ele>
        <time>2015-03-16T07:54:14Z</time>
      </trkpt>
      <trkpt lat="47.0464" lon="-0.86996">
        <ele>67</ele>
        <time>2015-03-16T07:54:16Z</time>
      </trkpt>
      <trkpt lat="47.04639" lon="-0.86992">
        <ele>67</ele>
        <time>2015-03-16T07:54:18Z</time>
      </trkpt>
      <trkpt lat="47.04639" lon="-0.86988">
        <ele>67</ele>
        <time>2015-03-16T07:54:20Z</time>
      </trkpt>
      <trkpt lat="47.04639" lon="-0.86984">
        <ele>67</ele>
        <time>2015-03-16T07:54:22Z</time>
      </trkpt>
      <trkpt lat="47.04639" lon="-0.86981">
        <ele>67</ele>
        <time>2015-03-16T07:54:24Z</time>
      </trkpt>
      <trkpt lat="47.04638" lon="-0.86976">
        <ele>67</ele>
        <time>2015-03-16T07:54:26Z</time>
      </trkpt>
      <trkpt lat="47.04637" lon="-0.86972">
        <ele>67</ele>
        <time>2015-03-16T07:54:28Z</time>
      </trkpt>
      <trkpt lat="47.04637" lon="-0.86968">
        <ele>67</ele>
        <time>2015-03-16T07:54:30Z</time>
      </trkpt>
      <trkpt lat="47.04636" lon="-0.86965">
        <ele>67</ele>
        <time>2015-03-16T07:54:32Z</time>
      </trkpt>
      <trkpt lat="47.04635" lon="-0.86961">
        <ele>67</ele>
        <time>2015-03-16T07:54:34Z</time>
      </trkpt>
      <trkpt lat="47.04635" lon="-0.86957">
        <ele>67</ele>
        <time>2015-03-16T07:54:36Z</time>
      </trkpt>
      <trkpt lat="47.04634" lon="-0.86953">
        <ele>67</ele>
        <time>2015-03-16T07:54:38Z</time>
      </trkpt>
      <trkpt lat="47.04633" lon="-0.86949">
        <ele>67</ele>
        <time>2015-03-16T07:54:40Z</time>
      </trkpt>
      <trkpt lat="47.04633" lon="-0.86945">
        <ele>67</ele>
        <time>2015-03-16T07:54:42Z</time>
      </trkpt>
      <trkpt lat="47.04632" lon="-0.86941">
        <ele>67</ele>
        <time>2015-03-16T07:54:44Z</time>
      </trkpt>
      <trkpt lat="47.04631" lon="-0.86936">
        <ele>67</ele>
        <time>2015-03-16T07:54:46Z</time>
      </trkpt>
      <trkpt lat="47.04631" lon="-0.86933">
        <ele>67</ele>
        <time>2015-03-16T07:54:48Z</time>
      </trkpt>
      <trkpt lat="47.0463" lon="-0.86929">
        <ele>67</ele>
        <time>2015-03-16T07:54:50Z</time>
      </trkpt>
      <trkpt lat="47.04629" lon="-0.86925">
        <ele>67</ele>
        <time>2015-03-16T07:54:52Z</time>
      </trkpt>
      <trkpt lat="47.04628" lon="-0.86922">
        <ele>67</ele>
        <time>2015-03-16T07:54:54Z</time>
      </trkpt>
      <trkpt lat="47.04627" lon="-0.86918">
        <ele>67</ele>
        <time>2015-03-16T07:54:56Z</time>
      </trkpt>
      <trkpt lat="47.04626" lon="-0.86914">
        <ele>67</ele>
        <time>2015-03-16T07:54:58Z</time>
      </trkpt>
      <trkpt lat="47.04625" lon="-0.8691">
        <ele>67</ele>
        <time>2015-03-16T07:55:00Z</time>
      </trkpt>
      <trkpt lat="47.04625" lon="-0.86907">
        <ele>67</ele>
        <time>2015-03-16T07:55:02Z</time>
      </trkpt>
      <trkpt lat="47.04623" lon="-0.86903">
        <ele>67</ele>
        <time>2015-03-16T07:55:04Z</time>
      </trkpt>
      <trkpt lat="47.04623" lon="-0.86899">
        <ele>67</ele>
        <time>2015-03-16T07:55:06Z</time>
      </trkpt>
      <trkpt lat="47.04622" lon="-0.86895">
        <ele>67</ele>
        <time>2015-03-16T07:55:08Z</time>
      </trkpt>
      <trkpt lat="47.04621" lon="-0.86891">
        <ele>67</ele>
        <time>2015-03-16T07:55:10Z</time>
      </trkpt>
      <trkpt lat="47.0462" lon="-0.86888">
        <ele>67</ele>
        <time>2015-03-16T07:55:12Z</time>
      </trkpt>
      <trkpt lat="47.0462" lon="-0.86884">
        <ele>67</ele>
        <time>2015-03-16T07:55:14Z</time>
      </trkpt>
      <trkpt lat="47.04619" lon="-0.8688">
        <ele>67</ele>
        <time>2015-03-16T07:55:16Z</time>
      </trkpt>
      <trkpt lat="47.04618" lon="-0.86877">
        <ele>67</ele>
        <time>2015-03-16T07:55:18Z</time>
      </trkpt>
      <trkpt lat="47.04617" lon="-0.86873">
        <ele>67</ele>
        <time>2015-03-16T07:55:20Z</time>
      </trkpt>
      <trkpt lat="47.04617" lon="-0.8687">
        <ele>67</ele>
        <time>2015-03-16T07:55:22Z</time>
      </trkpt>
      <trkpt lat="47.04617" lon="-0.86866">
        <ele>67</ele>
        <time>2015-03-16T07:55:24Z</time>
      </trkpt>
      <trkpt lat="47.04617" lon="-0.86862">
        <ele>67</ele>
        <time>2015-03-16T07:55:26Z</time>
      </trkpt>
      <trkpt lat="47.04616" lon="-0.86858">
        <ele>67</ele>
        <time>2015-03-16T07:55:28Z</time>
      </trkpt>
      <trkpt lat="47.04616" lon="-0.86854">
        <ele>67</ele>
        <time>2015-03-16T07:55:30Z</time>
      </trkpt>
      <trkpt lat="47.04615" lon="-0.8685">
        <ele>67</ele>
        <time>2015-03-16T07:55:32Z</time>
      </trkpt>
      <trkpt lat="47.04614" lon="-0.86847">
        <ele>67</ele>
        <time>2015-03-16T07:55:34Z</time>
      </trkpt>
      <trkpt lat="47.04613" lon="-0.86843">
        <ele>67</ele>
        <time>2015-03-16T07:55:36Z</time>
      </trkpt>
      <trkpt lat="47.04612" lon="-0.8684">
        <ele>67</ele>
        <time>2015-03-16T07:55:38Z</time>
      </trkpt>
      <trkpt lat="47.0461" lon="-0.86837">
        <ele>67</ele>
        <time>2015-03-16T07:55:40Z</time>
      </trkpt>
      <trkpt lat="47.04609" lon="-0.86832">
        <ele>67</ele>
        <time>2015-03-16T07:55:43Z</time>
      </trkpt>
      <trkpt lat="47.04607" lon="-0.86829">
        <ele>67</ele>
        <time>2015-03-16T07:55:45Z</time>
      </trkpt>
      <trkpt lat="47.04606" lon="-0.86825">
        <ele>67</ele>
        <time>2015-03-16T07:55:47Z</time>
      </trkpt>
      <trkpt lat="47.04605" lon="-0.86822">
        <ele>67</ele>
        <time>2015-03-16T07:55:49Z</time>
      </trkpt>
      <trkpt lat="47.04603" lon="-0.86818">
        <ele>67</ele>
        <time>2015-03-16T07:55:51Z</time>
      </trkpt>
      <trkpt lat="47.04602" lon="-0.86816">
        <ele>67</ele>
        <time>2015-03-16T07:55:53Z</time>
      </trkpt>
      <trkpt lat="47.046" lon="-0.86812">
        <ele>67</ele>
        <time>2015-03-16T07:55:55Z</time>
      </trkpt>
      <trkpt lat="47.04597" lon="-0.86808">
        <ele>67</ele>
        <time>2015-03-16T07:55:58Z</time>
      </trkpt>
      <trkpt lat="47.04595" lon="-0.86805">
        <ele>67</ele>
        <time>2015-03-16T07:56:00Z</time>
      </trkpt>
      <trkpt lat="47.04594" lon="-0.86802">
        <ele>67</ele>
        <time>2015-03-16T07:56:02Z</time>
      </trkpt>
      <trkpt lat="47.04592" lon="-0.86799">
        <ele>67</ele>
        <time>2015-03-16T07:56:04Z</time>
      </trkpt>
      <trkpt lat="47.04591" lon="-0.86796">
        <ele>67</ele>
        <time>2015-03-16T07:56:06Z</time>
      </trkpt>
      <trkpt lat="47.04589" lon="-0.86793">
        <ele>67</ele>
        <time>2015-03-16T07:56:08Z</time>
      </trkpt>
      <trkpt lat="47.04587" lon="-0.8679">
        <ele>67</ele>
        <time>2015-03-16T07:56:10Z</time>
      </trkpt>
      <trkpt lat="47.04586" lon="-0.86787">
        <ele>67</ele>
        <time>2015-03-16T07:56:12Z</time>
      </trkpt>
      <trkpt lat="47.04584" lon="-0.86785">
        <ele>67</ele>
        <time>2015-03-16T07:56:14Z</time>
      </trkpt>
      <trkpt lat="47.04583" lon="-0.86782">
        <ele>67</ele>
        <time>2015-03-16T07:56:16Z</time>
      </trkpt>
      <trkpt lat="47.04581" lon="-0.86778">
        <ele>67</ele>
        <time>2015-03-16T07:56:19Z</time>
      </trkpt>
      <trkpt lat="47.0458" lon="-0.86774">
        <ele>67</ele>
        <time>2015-03-16T07:56:21Z</time>
      </trkpt>
      <trkpt lat="47.04578" lon="-0.8677">
        <ele>67</ele>
        <time>2015-03-16T07:56:23Z</time>
      </trkpt>
      <trkpt lat="47.04577" lon="-0.86766">
        <ele>67</ele>
        <time>2015-03-16T07:56:26Z</time>
      </trkpt>
      <trkpt lat="47.04577" lon="-0.86762">
        <ele>67</ele>
        <time>2015-03-16T07:56:28Z</time>
      </trkpt>
      <trkpt lat="47.04577" lon="-0.86759">
        <ele>67</ele>
        <time>2015-03-16T07:56:30Z</time>
      </trkpt>
      <trkpt lat="47.04576" lon="-0.86756">
        <ele>67</ele>
        <time>2015-03-16T07:56:32Z</time>
      </trkpt>
      <trkpt lat="47.04576" lon="-0.86752">
        <ele>67</ele>
        <time>2015-03-16T07:56:34Z</time>
      </trkpt>
      <trkpt lat="47.04576" lon="-0.86748">
        <ele>67</ele>
        <time>2015-03-16T07:56:36Z</time>
      </trkpt>
      <trkpt lat="47.04576" lon="-0.86744">
        <ele>67</ele>
        <time>2015-03-16T07:56:38Z</time>
      </trkpt>
      <trkpt lat="47.04576" lon="-0.86741">
        <ele>67</ele>
        <time>2015-03-16T07:56:40Z</time>
      </trkpt>
      <trkpt lat="47.04577" lon="-0.86738">
        <ele>67</ele>
        <time>2015-03-16T07:56:42Z</time>
      </trkpt>
      <trkpt lat="47.04577" lon="-0.86734">
        <ele>67</ele>
        <time>2015-03-16T07:56:44Z</time>
      </trkpt>
      <trkpt lat="47.0458" lon="-0.8673">
        <ele>67</ele>
        <time>2015-03-16T07:56:47Z</time>
      </trkpt>
      <trkpt lat="47.04581" lon="-0.86726">
        <ele>67</ele>
        <time>2015-03-16T07:56:49Z</time>
      </trkpt>
      <trkpt lat="47.04584" lon="-0.86724">
        <ele>67</ele>
        <time>2015-03-16T07:56:51Z</time>
      </trkpt>
      <trkpt lat="47.04586" lon="-0.86721">
        <ele>67</ele>
        <time>2015-03-16T07:56:53Z</time>
      </trkpt>
      <trkpt lat="47.04589" lon="-0.86718">
        <ele>67</ele>
        <time>2015-03-16T07:56:55Z</time>
      </trkpt>
      <trkpt lat="47.04591" lon="-0.86715">
        <ele>67</ele>
        <time>2015-03-16T07:56:57Z</time>
      </trkpt>
      <trkpt lat="47.04593" lon="-0.86712">
        <ele>67</ele>
        <time>2015-03-16T07:56:59Z</time>
      </trkpt>
      <trkpt lat="47.04596" lon="-0.86709">
        <ele>67</ele>
        <time>2015-03-16T07:57:01Z</time>
      </trkpt>
      <trkpt lat="47.04598" lon="-0.86707">
        <ele>67</ele>
        <time>2015-03-16T07:57:03Z</time>
      </trkpt>
      <trkpt lat="47.04601" lon="-0.86705">
        <ele>67</ele>
        <time>2015-03-16T07:57:05Z</time>
      </trkpt>
      <trkpt lat="47.04604" lon="-0.86704">
        <ele>67</ele>
        <time>2015-03-16T07:57:07Z</time>
      </trkpt>
      <trkpt lat="47.04606" lon="-0.86702">
        <ele>67</ele>
        <time>2015-03-16T07:57:09Z</time>
      </trkpt>
      <trkpt lat="47.04608" lon="-0.86701">
        <ele>67</ele>
        <time>2015-03-16T07:57:11Z</time>
      </trkpt>
      <trkpt lat="47.04611" lon="-0.867">
        <ele>67</ele>
        <time>2015-03-16T07:57:13Z</time>
      </trkpt>
      <trkpt lat="47.04613" lon="-0.86699">
        <ele>67</ele>
        <time>2015-03-16T07:57:15Z</time>
      </trkpt>
      <trkpt lat="47.04616" lon="-0.86699">
        <ele>67</ele>
        <time>2015-03-16T07:57:17Z</time>
      </trkpt>
      <trkpt lat="47.04618" lon="-0.86698">
        <ele>67</ele>
        <time>2015-03-16T07:57:19Z</time>
      </trkpt>
      <trkpt lat="47.04621" lon="-0.86697">
        <ele>67</ele>
        <time>2015-03-16T07:57:21Z</time>
      </trkpt>
      <trkpt lat="47.04623" lon="-0.86696">
        <ele>67</ele>
        <time>2015-03-16T07:57:23Z</time>
      </trkpt>
      <trkpt lat="47.04625" lon="-0.86697">
        <ele>67</ele>
        <time>2015-03-16T07:57:25Z</time>
      </trkpt>
      <trkpt lat="47.04628" lon="-0.86697">
        <ele>67</ele>
        <time>2015-03-16T07:57:27Z</time>
      </trkpt>
      <trkpt lat="47.04631" lon="-0.86698">
        <ele>67</ele>
        <time>2015-03-16T07:57:29Z</time>
      </trkpt>
      <trkpt lat="47.04633" lon="-0.86698">
        <ele>67</ele>
        <time>2015-03-16T07:57:31Z</time>
      </trkpt>
      <trkpt lat="47.04635" lon="-0.86697">
        <ele>67</ele>
        <time>2015-03-16T07:57:33Z</time>
      </trkpt>
      <trkpt lat="47.04637" lon="-0.86694">
        <ele>67</ele>
        <time>2015-03-16T07:57:35Z</time>
      </trkpt>
      <trkpt lat="47.04638" lon="-0.86691">
        <ele>67</ele>
        <time>2015-03-16T07:57:37Z</time>
      </trkpt>
      <trkpt lat="47.04639" lon="-0.86688">
        <ele>67</ele>
        <time>2015-03-16T07:57:39Z</time>
      </trkpt>
      <trkpt lat="47.0464" lon="-0.86684">
        <ele>67</ele>
        <time>2015-03-16T07:57:41Z</time>
      </trkpt>
      <trkpt lat="47.04641" lon="-0.86679">
        <ele>67</ele>
        <time>2015-03-16T07:57:43Z</time>
      </trkpt>
      <trkpt lat="47.04641" lon="-0.86675">
        <ele>67</ele>
        <time>2015-03-16T07:57:45Z</time>
      </trkpt>
      <trkpt lat="47.04641" lon="-0.86671">
        <ele>67</ele>
        <time>2015-03-16T07:57:47Z</time>
      </trkpt>
      <trkpt lat="47.04641" lon="-0.86667">
        <ele>67</ele>
        <time>2015-03-16T07:57:49Z</time>
      </trkpt>
      <trkpt lat="47.04642" lon="-0.86663">
        <ele>67</ele>
        <time>2015-03-16T07:57:51Z</time>
      </trkpt>
      <trkpt lat="47.04642" lon="-0.86659">
        <ele>67</ele>
        <time>2015-03-16T07:57:53Z</time>
      </trkpt>
      <trkpt lat="47.04643" lon="-0.86655">
        <ele>67</ele>
        <time>2015-03-16T07:57:55Z</time>
      </trkpt>
      <trkpt lat="47.04643" lon="-0.86651">
        <ele>67</ele>
        <time>2015-03-16T07:57:57Z</time>
      </trkpt>
      <trkpt lat="47.04643" lon="-0.86648">
        <ele>67</ele>
        <time>2015-03-16T07:57:59Z</time>
      </trkpt>
      <trkpt lat="47.04644" lon="-0.86644">
        <ele>67</ele>
        <time>2015-03-16T07:58:01Z</time>
      </trkpt>
      <trkpt lat="47.04645" lon="-0.86641">
        <ele>67</ele>
        <time>2015-03-16T07:58:03Z</time>
      </trkpt>
      <trkpt lat="47.04645" lon="-0.86637">
        <ele>67</ele>
        <time>2015-03-16T07:58:05Z</time>
      </trkpt>
      <trkpt lat="47.04645" lon="-0.86633">
        <ele>67</ele>
        <time>2015-03-16T07:58:07Z</time>
      </trkpt>
      <trkpt lat="47.04645" lon="-0.8663">
        <ele>67</ele>
        <time>2015-03-16T07:58:09Z</time>
      </trkpt>
      <trkpt lat="47.04645" lon="-0.86626">
        <ele>67</ele>
        <time>2015-03-16T07:58:11Z</time>
      </trkpt>
      <trkpt lat="47.04645" lon="-0.86622">
        <ele>67</ele>
        <time>2015-03-16T07:58:13Z</time>
      </trkpt>
      <trkpt lat="47.04645" lon="-0.86619">
        <ele>67</ele>
        <time>2015-03-16T07:58:15Z</time>
      </trkpt>
      <trkpt lat="47.04646" lon="-0.86615">
        <ele>67</ele>
        <time>2015-03-16T07:58:17Z</time>
      </trkpt>
      <trkpt lat="47.04646" lon="-0.86611">
        <ele>67</ele>
        <time>2015-03-16T07:58:19Z</time>
      </trkpt>
      <trkpt lat="47.04646" lon="-0.86606">
        <ele>67</ele>
        <time>2015-03-16T07:58:21Z</time>
      </trkpt>
      <trkpt lat="47.04647" lon="-0.86602">
        <ele>67</ele>
        <time>2015-03-16T07:58:23Z</time>
      </trkpt>
      <trkpt lat="47.04649" lon="-0.86599">
        <ele>67</ele>
        <time>2015-03-16T07:58:25Z</time>
      </trkpt>
      <trkpt lat="47.04652" lon="-0.86596">
        <ele>67</ele>
        <time>2015-03-16T07:58:28Z</time>
      </trkpt>
      <trkpt lat="47.04654" lon="-0.86594">
        <ele>67</ele>
        <time>2015-03-16T07:58:30Z</time>
      </trkpt>
      <trkpt lat="47.04657" lon="-0.86593">
        <ele>67</ele>
        <time>2015-03-16T07:58:32Z</time>
      </trkpt>
      <trkpt lat="47.0466" lon="-0.86592">
        <ele>67</ele>
        <time>2015-03-16T07:58:34Z</time>
      </trkpt>
      <trkpt lat="47.04663" lon="-0.86591">
        <ele>67</ele>
        <time>2015-03-16T07:58:37Z</time>
      </trkpt>
      <trkpt lat="47.04665" lon="-0.86592">
        <ele>67</ele>
        <time>2015-03-16T07:58:39Z</time>
      </trkpt>
      <trkpt lat="47.04668" lon="-0.86593">
        <ele>67</ele>
        <time>2015-03-16T07:58:41Z</time>
      </trkpt>
      <trkpt lat="47.04671" lon="-0.86595">
        <ele>67</ele>
        <time>2015-03-16T07:58:44Z</time>
      </trkpt>
      <trkpt lat="47.04674" lon="-0.86596">
        <ele>67</ele>
        <time>2015-03-16T07:58:46Z</time>
      </trkpt>
      <trkpt lat="47.04677" lon="-0.86597">
        <ele>67</ele>
        <time>2015-03-16T07:58:48Z</time>
      </trkpt>
      <trkpt lat="47.0468" lon="-0.86596">
        <ele>67</ele>
        <time>2015-03-16T07:58:51Z</time>
      </trkpt>
      <trkpt lat="47.04682" lon="-0.86594">
        <ele>67</ele>
        <time>2015-03-16T07:58:53Z</time>
      </trkpt>
      <trkpt lat="47.04683" lon="-0.86591">
        <ele>67</ele>
        <time>2015-03-16T07:58:55Z</time>
      </trkpt>
      <trkpt lat="47.04685" lon="-0.86588">
        <ele>67</ele>
        <time>2015-03-16T07:58:57Z</time>
      </trkpt>
      <trkpt lat="47.04686" lon="-0.86585">
        <ele>67</ele>
        <time>2015-03-16T07:58:59Z</time>
      </trkpt>
      <trkpt lat="47.04688" lon="-0.86582">
        <ele>67</ele>
        <time>2015-03-16T07:59:01Z</time>
      </trkpt>
      <trkpt lat="47.04689" lon="-0.86578">
        <ele>67</ele>
        <time>2015-03-16T07:59:03Z</time>
      </trkpt>
      <trkpt lat="47.04689" lon="-0.86574">
        <ele>67</ele>
        <time>2015-03-16T07:59:05Z</time>
      </trkpt>
      <trkpt lat="47.0469" lon="-0.86571">
        <ele>67</ele>
        <time>2015-03-16T07:59:07Z</time>
      </trkpt>
      <trkpt lat="47.04691" lon="-0.86567">
        <ele>67</ele>
        <time>2015-03-16T07:59:09Z</time>
      </trkpt>
      <trkpt lat="47.04691" lon="-0.86564">
        <ele>67</ele>
        <time>2015-03-16T07:59:11Z</time>
      </trkpt>
      <trkpt lat="47.04692" lon="-0.86561">
        <ele>67</ele>
        <time>2015-03-16T07:59:13Z</time>
      </trkpt>
      <trkpt lat="47.04692" lon="-0.86557">
        <ele>67</ele>
        <time>2015-03-16T07:59:15Z</time>
      </trkpt>
      <trkpt lat="47.04693" lon="-0.86554">
        <ele>67</ele>
        <time>2015-03-16T07:59:17Z</time>
      </trkpt>
      <trkpt lat="47.04694" lon="-0.8655">
        <ele>67</ele>
        <time>2015-03-16T07:59:19Z</time>
      </trkpt>
      <trkpt lat="47.04694" lon="-0.86547">
        <ele>67</ele>
        <time>2015-03-16T07:59:21Z</time>
      </trkpt>
      <trkpt lat="47.04695" lon="-0.86543">
        <ele>67</ele>
        <time>2015-03-16T07:59:23Z</time>
      </trkpt>
      <trkpt lat="47.04695" lon="-0.86539">
        <ele>67</ele>
        <time>2015-03-16T07:59:25Z</time>
      </trkpt>
      <trkpt lat="47.04695" lon="-0.86536">
        <ele>67</ele>
        <time>2015-03-16T07:59:27Z</time>
      </trkpt>
      <trkpt lat="47.04694" lon="-0.86532">
        <ele>67</ele>
        <time>2015-03-16T07:59:29Z</time>
      </trkpt>
      <trkpt lat="47.04694" lon="-0.86528">
        <ele>67</ele>
        <time>2015-03-16T07:59:31Z</time>
      </trkpt>
      <trkpt lat="47.04694" lon="-0.86525">
        <ele>67</ele>
        <time>2015-03-16T07:59:34Z</time>
      </trkpt>
      <trkpt lat="47.04694" lon="-0.8652">
        <ele>67</ele>
        <time>2015-03-16T07:59:36Z</time>
      </trkpt>
      <trkpt lat="47.04693" lon="-0.86515">
        <ele>67</ele>
        <time>2015-03-16T07:59:38Z</time>
      </trkpt>
      <trkpt lat="47.04692" lon="-0.8651">
        <ele>67</ele>
        <time>2015-03-16T07:59:40Z</time>
      </trkpt>
      <trkpt lat="47.04692" lon="-0.86504">
        <ele>67</ele>
        <time>2015-03-16T07:59:42Z</time>
      </trkpt>
      <trkpt lat="47.04692" lon="-0.86499">
        <ele>67</ele>
        <time>2015-03-16T07:59:44Z</time>
      </trkpt>
      <trkpt lat="47.04692" lon="-0.86495">
        <ele>67</ele>
        <time>2015-03-16T07:59:46Z</time>
      </trkpt>
      <trkpt lat="47.04692" lon="-0.8649">
        <ele>67</ele>
        <time>2015-03-16T07:59:48Z</time>
      </trkpt>
      <trkpt lat="47.04691" lon="-0.86487">
        <ele>67</ele>
        <time>2015-03-16T07:59:50Z</time>
      </trkpt>
      <trkpt lat="47.04691" lon="-0.86481">
        <ele>67</ele>
        <time>2015-03-16T07:59:52Z</time>
      </trkpt>
      <trkpt lat="47.04691" lon="-0.86475">
        <ele>67</ele>
        <time>2015-03-16T07:59:55Z</time>
      </trkpt>
      <trkpt lat="47.04691" lon="-0.86471">
        <ele>67</ele>
        <time>2015-03-16T07:59:57Z</time>
      </trkpt>
      <trkpt lat="47.04691" lon="-0.86468">
        <ele>67</ele>
        <time>2015-03-16T07:59:59Z</time>
      </trkpt>
      <trkpt lat="47.04692" lon="-0.86464">
        <ele>67</ele>
        <time>2015-03-16T08:00:01Z</time>
      </trkpt>
      <trkpt lat="47.04691" lon="-0.86461">
        <ele>67</ele>
        <time>2015-03-16T08:00:03Z</time>
      </trkpt>
      <trkpt lat="47.04692" lon="-0.86457">
        <ele>67</ele>
        <time>2015-03-16T08:00:05Z</time>
      </trkpt>
      <trkpt lat="47.04692" lon="-0.86452">
        <ele>67</ele>
        <time>2015-03-16T08:00:07Z</time>
      </trkpt>
      <trkpt lat="47.04692" lon="-0.86449">
        <ele>67</ele>
        <time>2015-03-16T08:00:09Z</time>
      </trkpt>
      <trkpt lat="47.04693" lon="-0.86445">
        <ele>67</ele>
        <time>2015-03-16T08:00:11Z</time>
      </trkpt>
      <trkpt lat="47.04693" lon="-0.86441">
        <ele>67</ele>
        <time>2015-03-16T08:00:13Z</time>
      </trkpt>
      <trkpt lat="47.04693" lon="-0.86438">
        <ele>67</ele>
        <time>2015-03-16T08:00:15Z</time>
      </trkpt>
      <trkpt lat="47.04692" lon="-0.86434">
        <ele>67</ele>
        <time>2015-03-16T08:00:17Z</time>
      </trkpt>
      <trkpt lat="47.04691" lon="-0.8643">
        <ele>67</ele>
        <time>2015-03-16T08:00:19Z</time>
      </trkpt>
      <trkpt lat="47.0469" lon="-0.86427">
        <ele>67</ele>
        <time>2015-03-16T08:00:21Z</time>
      </trkpt>
      <trkpt lat="47.04688" lon="-0.86425">
        <ele>67</ele>
        <time>2015-03-16T08:00:23Z</time>
      </trkpt>
      <trkpt lat="47.04686" lon="-0.86423">
        <ele>67</ele>
        <time>2015-03-16T08:00:25Z</time>
      </trkpt>
      <trkpt lat="47.04684" lon="-0.86422">
        <ele>67</ele>
        <time>2015-03-16T08:00:27Z</time>
      </trkpt>
      <trkpt lat="47.04681" lon="-0.8642">
        <ele>67</ele>
        <time>2015-03-16T08:00:29Z</time>
      </trkpt>
      <trkpt lat="47.04679" lon="-0.86419">
        <ele>67</ele>
        <time>2015-03-16T08:00:31Z</time>
      </trkpt>
      <trkpt lat="47.04676" lon="-0.86419">
        <ele>67</ele>
        <time>2015-03-16T08:00:33Z</time>
      </trkpt>
      <trkpt lat="47.04673" lon="-0.86418">
        <ele>67</ele>
        <time>2015-03-16T08:00:35Z</time>
      </trkpt>
      <trkpt lat="47.04671" lon="-0.86417">
        <ele>67</ele>
        <time>2015-03-16T08:00:37Z</time>
      </trkpt>
      <trkpt lat="47.04668" lon="-0.86417">
        <ele>67</ele>
        <time>2015-03-16T08:00:39Z</time>
      </trkpt>
      <trkpt lat="47.04665" lon="-0.86416">
        <ele>67</ele>
        <time>2015-03-16T08:00:41Z</time>
      </trkpt>
      <trkpt lat="47.04663" lon="-0.86416">
        <ele>67</ele>
        <time>2015-03-16T08:00:43Z</time>
      </trkpt>
      <trkpt lat="47.0466" lon="-0.86415">
        <ele>67</ele>
        <time>2015-03-16T08:00:45Z</time>
      </trkpt>
      <trkpt lat="47.04658" lon="-0.86414">
        <ele>67</ele>
        <time>2015-03-16T08:00:47Z</time>
      </trkpt>
      <trkpt lat="47.04655" lon="-0.86414">
        <ele>67</ele>
        <time>2015-03-16T08:00:49Z</time>
      </trkpt>
      <trkpt lat="47.04653" lon="-0.86414">
        <ele>67</ele>
        <time>2015-03-16T08:00:51Z</time>
      </trkpt>
      <trkpt lat="47.0465" lon="-0.86413">
        <ele>67</ele>
        <time>2015-03-16T08:00:53Z</time>
      </trkpt>
      <trkpt lat="47.04648" lon="-0.86412">
        <ele>67</ele>
        <time>2015-03-16T08:00:55Z</time>
      </trkpt>
      <trkpt lat="47.04645" lon="-0.86411">
        <ele>67</ele>
        <time>2015-03-16T08:00:57Z</time>
      </trkpt>
      <trkpt lat="47.04643" lon="-0.8641">
        <ele>67</ele>
        <time>2015-03-16T08:00:59Z</time>
      </trkpt>
      <trkpt lat="47.04641" lon="-0.8641">
        <ele>67</ele>
        <time>2015-03-16T08:01:01Z</time>
      </trkpt>
      <trkpt lat="47.04638" lon="-0.8641">
        <ele>67</ele>
        <time>2015-03-16T08:01:04Z</time>
      </trkpt>
      <trkpt lat="47.04635" lon="-0.86409">
        <ele>67</ele>
        <time>2015-03-16T08:01:06Z</time>
      </trkpt>
      <trkpt lat="47.04632" lon="-0.86409">
        <ele>67</ele>
        <time>2015-03-16T08:01:09Z</time>
      </trkpt>
      <trkpt lat="47.04629" lon="-0.86408">
        <ele>67</ele>
        <time>2015-03-16T08:01:11Z</time>
      </trkpt>
      <trkpt lat="47.04625" lon="-0.86406">
        <ele>67</ele>
        <time>2015-03-16T08:01:14Z</time>
      </trkpt>
      <trkpt lat="47.04623" lon="-0.86405">
        <ele>67</ele>
        <time>2015-03-16T08:01:16Z</time>
      </trkpt>
      <trkpt lat="47.04621" lon="-0.86403">
        <ele>67</ele>
        <time>2015-03-16T08:01:18Z</time>
      </trkpt>
      <trkpt lat="47.04618" lon="-0.86402">
        <ele>67</ele>
        <time>2015-03-16T08:01:20Z</time>
      </trkpt>
      <trkpt lat="47.04616" lon="-0.86401">
        <ele>67</ele>
        <time>2015-03-16T08:01:22Z</time>
      </trkpt>
      <trkpt lat="47.04614" lon="-0.864">
        <ele>66</ele>
        <time>2015-03-16T08:01:24Z</time>
      </trkpt>
      <trkpt lat="47.04611" lon="-0.86398">
        <ele>65</ele>
        <time>2015-03-16T08:01:26Z</time>
      </trkpt>
      <trkpt lat="47.04609" lon="-0.86396">
        <ele>65</ele>
        <time>2015-03-16T08:01:28Z</time>
      </trkpt>
      <trkpt lat="47.04605" lon="-0.86395">
        <ele>65</ele>
        <time>2015-03-16T08:01:30Z</time>
      </trkpt>
      <trkpt lat="47.04602" lon="-0.86393">
        <ele>65</ele>
        <time>2015-03-16T08:01:32Z</time>
      </trkpt>
      <trkpt lat="47.04599" lon="-0.86392">
        <ele>65</ele>
        <time>2015-03-16T08:01:34Z</time>
      </trkpt>
      <trkpt lat="47.04597" lon="-0.86391">
        <ele>65</ele>
        <time>2015-03-16T08:01:36Z</time>
      </trkpt>
      <trkpt lat="47.04594" lon="-0.8639">
        <ele>65</ele>
        <time>2015-03-16T08:01:38Z</time>
      </trkpt>
      <trkpt lat="47.04592" lon="-0.86389">
        <ele>65</ele>
        <time>2015-03-16T08:01:40Z</time>
      </trkpt>
      <trkpt lat="47.04589" lon="-0.86388">
        <ele>65</ele>
        <time>2015-03-16T08:01:42Z</time>
      </trkpt>
      <trkpt lat="47.04587" lon="-0.86387">
        <ele>65</ele>
        <time>2015-03-16T08:01:44Z</time>
      </trkpt>
      <trkpt lat="47.04584" lon="-0.86387">
        <ele>65</ele>
        <time>2015-03-16T08:01:46Z</time>
      </trkpt>
      <trkpt lat="47.04581" lon="-0.86387">
        <ele>65</ele>
        <time>2015-03-16T08:01:48Z</time>
      </trkpt>
      <trkpt lat="47.04578" lon="-0.86386">
        <ele>65</ele>
        <time>2015-03-16T08:01:50Z</time>
      </trkpt>
      <trkpt lat="47.04576" lon="-0.86385">
        <ele>65</ele>
        <time>2015-03-16T08:01:52Z</time>
      </trkpt>
      <trkpt lat="47.04574" lon="-0.86384">
        <ele>65</ele>
        <time>2015-03-16T08:01:54Z</time>
      </trkpt>
      <trkpt lat="47.04572" lon="-0.86384">
        <ele>65</ele>
        <time>2015-03-16T08:01:56Z</time>
      </trkpt>
      <trkpt lat="47.04568" lon="-0.86384">
        <ele>65</ele>
        <time>2015-03-16T08:01:59Z</time>
      </trkpt>
      <trkpt lat="47.04566" lon="-0.86383">
        <ele>65</ele>
        <time>2015-03-16T08:02:01Z</time>
      </trkpt>
      <trkpt lat="47.04563" lon="-0.86383">
        <ele>65</ele>
        <time>2015-03-16T08:02:03Z</time>
      </trkpt>
      <trkpt lat="47.04558" lon="-0.86385">
        <ele>65</ele>
        <time>2015-03-16T08:02:06Z</time>
      </trkpt>
      <trkpt lat="47.04555" lon="-0.86386">
        <ele>65</ele>
        <time>2015-03-16T08:02:08Z</time>
      </trkpt>
      <trkpt lat="47.04551" lon="-0.86389">
        <ele>65</ele>
        <time>2015-03-16T08:02:11Z</time>
      </trkpt>
      <trkpt lat="47.04549" lon="-0.86392">
        <ele>65</ele>
        <time>2015-03-16T08:02:13Z</time>
      </trkpt>
      <trkpt lat="47.04546" lon="-0.86395">
        <ele>65</ele>
        <time>2015-03-16T08:02:16Z</time>
      </trkpt>
      <trkpt lat="47.04543" lon="-0.86398">
        <ele>65</ele>
        <time>2015-03-16T08:02:18Z</time>
      </trkpt>
      <trkpt lat="47.04538" lon="-0.86403">
        <ele>65</ele>
        <time>2015-03-16T08:02:22Z</time>
      </trkpt>
      <trkpt lat="47.04536" lon="-0.86407">
        <ele>65</ele>
        <time>2015-03-16T08:02:25Z</time>
      </trkpt>
      <trkpt lat="47.04533" lon="-0.86409">
        <ele>65</ele>
        <time>2015-03-16T08:02:28Z</time>
      </trkpt>
      <trkpt lat="47.04529" lon="-0.86411">
        <ele>65</ele>
        <time>2015-03-16T08:02:30Z</time>
      </trkpt>
      <trkpt lat="47.04525" lon="-0.86413">
        <ele>65</ele>
        <time>2015-03-16T08:02:33Z</time>
      </trkpt>
      <trkpt lat="47.04523" lon="-0.86415">
        <ele>65</ele>
        <time>2015-03-16T08:02:35Z</time>
      </trkpt>
      <trkpt lat="47.04519" lon="-0.86418">
        <ele>65</ele>
        <time>2015-03-16T08:02:39Z</time>
      </trkpt>
      <trkpt lat="47.04515" lon="-0.86421">
        <ele>65</ele>
        <time>2015-03-16T08:02:42Z</time>
      </trkpt>
      <trkpt lat="47.04511" lon="-0.86423">
        <ele>65</ele>
        <time>2015-03-16T08:02:45Z</time>
      </trkpt>
      <trkpt lat="47.04508" lon="-0.86425">
        <ele>66</ele>
        <time>2015-03-16T08:02:48Z</time>
      </trkpt>
      <trkpt lat="47.04506" lon="-0.86427">
        <ele>67</ele>
        <time>2015-03-16T08:02:50Z</time>
      </trkpt>
      <trkpt lat="47.04501" lon="-0.86429">
        <ele>68</ele>
        <time>2015-03-16T08:02:54Z</time>
      </trkpt>
      <trkpt lat="47.04498" lon="-0.8643">
        <ele>68</ele>
        <time>2015-03-16T08:02:57Z</time>
      </trkpt>
      <trkpt lat="47.04495" lon="-0.86431">
        <ele>69</ele>
        <time>2015-03-16T08:02:59Z</time>
      </trkpt>
      <trkpt lat="47.04492" lon="-0.86432">
        <ele>69</ele>
        <time>2015-03-16T08:03:01Z</time>
      </trkpt>
      <trkpt lat="47.0449" lon="-0.86432">
        <ele>69</ele>
        <time>2015-03-16T08:03:03Z</time>
      </trkpt>
      <trkpt lat="47.04487" lon="-0.86432">
        <ele>69</ele>
        <time>2015-03-16T08:03:05Z</time>
      </trkpt>
      <trkpt lat="47.04485" lon="-0.86432">
        <ele>69</ele>
        <time>2015-03-16T08:03:07Z</time>
      </trkpt>
      <trkpt lat="47.04482" lon="-0.86429">
        <ele>69</ele>
        <time>2015-03-16T08:03:10Z</time>
      </trkpt>
      <trkpt lat="47.04479" lon="-0.86428">
        <ele>69</ele>
        <time>2015-03-16T08:03:12Z</time>
      </trkpt>
      <trkpt lat="47.04477" lon="-0.86426">
        <ele>69</ele>
        <time>2015-03-16T08:03:14Z</time>
      </trkpt>
      <trkpt lat="47.04474" lon="-0.86425">
        <ele>69</ele>
        <time>2015-03-16T08:03:16Z</time>
      </trkpt>
      <trkpt lat="47.04472" lon="-0.86423">
        <ele>69</ele>
        <time>2015-03-16T08:03:18Z</time>
      </trkpt>
      <trkpt lat="47.04469" lon="-0.86422">
        <ele>69</ele>
        <time>2015-03-16T08:03:21Z</time>
      </trkpt>
      <trkpt lat="47.04465" lon="-0.86422">
        <ele>69</ele>
        <time>2015-03-16T08:03:23Z</time>
      </trkpt>
      <trkpt lat="47.04461" lon="-0.86422">
        <ele>69</ele>
        <time>2015-03-16T08:03:26Z</time>
      </trkpt>
      <trkpt lat="47.04458" lon="-0.86422">
        <ele>69</ele>
        <time>2015-03-16T08:03:28Z</time>
      </trkpt>
      <trkpt lat="47.04456" lon="-0.86421">
        <ele>69</ele>
        <time>2015-03-16T08:03:30Z</time>
      </trkpt>
      <trkpt lat="47.04453" lon="-0.86421">
        <ele>69</ele>
        <time>2015-03-16T08:03:32Z</time>
      </trkpt>
      <trkpt lat="47.0445" lon="-0.86421">
        <ele>69</ele>
        <time>2015-03-16T08:03:34Z</time>
      </trkpt>
      <trkpt lat="47.04448" lon="-0.8642">
        <ele>69</ele>
        <time>2015-03-16T08:03:36Z</time>
      </trkpt>
      <trkpt lat="47.04444" lon="-0.86419">
        <ele>69</ele>
        <time>2015-03-16T08:03:39Z</time>
      </trkpt>
      <trkpt lat="47.04441" lon="-0.86418">
        <ele>69</ele>
        <time>2015-03-16T08:03:42Z</time>
      </trkpt>
      <trkpt lat="47.04438" lon="-0.86419">
        <ele>69</ele>
        <time>2015-03-16T08:03:44Z</time>
      </trkpt>
      <trkpt lat="47.04435" lon="-0.86418">
        <ele>69</ele>
        <time>2015-03-16T08:03:46Z</time>
      </trkpt>
      <trkpt lat="47.04433" lon="-0.86418">
        <ele>69</ele>
        <time>2015-03-16T08:03:48Z</time>
      </trkpt>
      <trkpt lat="47.0443" lon="-0.86419">
        <ele>68</ele>
        <time>2015-03-16T08:03:50Z</time>
      </trkpt>
      <trkpt lat="47.04426" lon="-0.8642">
        <ele>68</ele>
        <time>2015-03-16T08:03:53Z</time>
      </trkpt>
      <trkpt lat="47.04424" lon="-0.8642">
        <ele>68</ele>
        <time>2015-03-16T08:03:55Z</time>
      </trkpt>
      <trkpt lat="47.04421" lon="-0.8642">
        <ele>68</ele>
        <time>2015-03-16T08:03:57Z</time>
      </trkpt>
      <trkpt lat="47.04419" lon="-0.86421">
        <ele>68</ele>
        <time>2015-03-16T08:03:59Z</time>
      </trkpt>
      <trkpt lat="47.04416" lon="-0.86421">
        <ele>68</ele>
        <time>2015-03-16T08:04:01Z</time>
      </trkpt>
      <trkpt lat="47.04413" lon="-0.86422">
        <ele>68</ele>
        <time>2015-03-16T08:04:03Z</time>
      </trkpt>
      <trkpt lat="47.0441" lon="-0.86424">
        <ele>68</ele>
        <time>2015-03-16T08:04:06Z</time>
      </trkpt>
      <trkpt lat="47.04406" lon="-0.86427">
        <ele>68</ele>
        <time>2015-03-16T08:04:09Z</time>
      </trkpt>
      <trkpt lat="47.04403" lon="-0.86429">
        <ele>68</ele>
        <time>2015-03-16T08:04:12Z</time>
      </trkpt>
      <trkpt lat="47.04399" lon="-0.86431">
        <ele>68</ele>
        <time>2015-03-16T08:04:15Z</time>
      </trkpt>
      <trkpt lat="47.04397" lon="-0.86432">
        <ele>68</ele>
        <time>2015-03-16T08:04:17Z</time>
      </trkpt>
      <trkpt lat="47.04393" lon="-0.86434">
        <ele>68</ele>
        <time>2015-03-16T08:04:21Z</time>
      </trkpt>
      <trkpt lat="47.0439" lon="-0.86433">
        <ele>68</ele>
        <time>2015-03-16T08:04:23Z</time>
      </trkpt>
      <trkpt lat="47.04385" lon="-0.8643">
        <ele>68</ele>
        <time>2015-03-16T08:04:27Z</time>
      </trkpt>
      <trkpt lat="47.04382" lon="-0.86428">
        <ele>68</ele>
        <time>2015-03-16T08:04:30Z</time>
      </trkpt>
      <trkpt lat="47.0438" lon="-0.86426">
        <ele>68</ele>
        <time>2015-03-16T08:04:32Z</time>
      </trkpt>
      <trkpt lat="47.04377" lon="-0.86424">
        <ele>68</ele>
        <time>2015-03-16T08:04:34Z</time>
      </trkpt>
      <trkpt lat="47.04374" lon="-0.86423">
        <ele>68</ele>
        <time>2015-03-16T08:04:36Z</time>
      </trkpt>
      <trkpt lat="47.04372" lon="-0.86422">
        <ele>68</ele>
        <time>2015-03-16T08:04:38Z</time>
      </trkpt>
      <trkpt lat="47.04368" lon="-0.8642">
        <ele>68</ele>
        <time>2015-03-16T08:04:41Z</time>
      </trkpt>
      <trkpt lat="47.04365" lon="-0.86419">
        <ele>68</ele>
        <time>2015-03-16T08:04:43Z</time>
      </trkpt>
      <trkpt lat="47.04361" lon="-0.86418">
        <ele>68</ele>
        <time>2015-03-16T08:04:46Z</time>
      </trkpt>
      <trkpt lat="47.04358" lon="-0.86418">
        <ele>68</ele>
        <time>2015-03-16T08:04:48Z</time>
      </trkpt>
      <trkpt lat="47.04356" lon="-0.86418">
        <ele>68</ele>
        <time>2015-03-16T08:04:50Z</time>
      </trkpt>
      <trkpt lat="47.04353" lon="-0.86418">
        <ele>68</ele>
        <time>2015-03-16T08:04:52Z</time>
      </trkpt>
      <trkpt lat="47.04351" lon="-0.86418">
        <ele>68</ele>
        <time>2015-03-16T08:04:54Z</time>
      </trkpt>
      <trkpt lat="47.04348" lon="-0.86418">
        <ele>68</ele>
        <time>2015-03-16T08:04:56Z</time>
      </trkpt>
      <trkpt lat="47.04344" lon="-0.86419">
        <ele>68</ele>
        <time>2015-03-16T08:04:59Z</time>
      </trkpt>
      <trkpt lat="47.04342" lon="-0.86419">
        <ele>68</ele>
        <time>2015-03-16T08:05:01Z</time>
      </trkpt>
      <trkpt lat="47.0434" lon="-0.86419">
        <ele>68</ele>
        <time>2015-03-16T08:05:03Z</time>
      </trkpt>
      <trkpt lat="47.04336" lon="-0.86419">
        <ele>68</ele>
        <time>2015-03-16T08:05:06Z</time>
      </trkpt>
      <trkpt lat="47.04333" lon="-0.86419">
        <ele>68</ele>
        <time>2015-03-16T08:05:08Z</time>
      </trkpt>
      <trkpt lat="47.04329" lon="-0.8642">
        <ele>68</ele>
        <time>2015-03-16T08:05:12Z</time>
      </trkpt>
      <trkpt lat="47.04325" lon="-0.86421">
        <ele>68</ele>
        <time>2015-03-16T08:05:15Z</time>
      </trkpt>
      <trkpt lat="47.04323" lon="-0.86421">
        <ele>68</ele>
        <time>2015-03-16T08:05:17Z</time>
      </trkpt>
      <trkpt lat="47.04318" lon="-0.86421">
        <ele>67</ele>
        <time>2015-03-16T08:05:21Z</time>
      </trkpt>
      <trkpt lat="47.04316" lon="-0.86421">
        <ele>66</ele>
        <time>2015-03-16T08:05:23Z</time>
      </trkpt>
      <trkpt lat="47.04313" lon="-0.8642">
        <ele>65</ele>
        <time>2015-03-16T08:05:26Z</time>
      </trkpt>
      <trkpt lat="47.0431" lon="-0.86419">
        <ele>64</ele>
        <time>2015-03-16T08:05:28Z</time>
      </trkpt>
      <trkpt lat="47.04306" lon="-0.86418">
        <ele>64</ele>
        <time>2015-03-16T08:05:31Z</time>
      </trkpt>
      <trkpt lat="47.04304" lon="-0.86417">
        <ele>63</ele>
        <time>2015-03-16T08:05:33Z</time>
      </trkpt>
      <trkpt lat="47.04301" lon="-0.86415">
        <ele>63</ele>
        <time>2015-03-16T08:05:35Z</time>
      </trkpt>
      <trkpt lat="47.04298" lon="-0.86412">
        <ele>63</ele>
        <time>2015-03-16T08:05:38Z</time>
      </trkpt>
      <trkpt lat="47.04295" lon="-0.86408">
        <ele>63</ele>
        <time>2015-03-16T08:05:41Z</time>
      </trkpt>
      <trkpt lat="47.04293" lon="-0.86405">
        <ele>63</ele>
        <time>2015-03-16T08:05:43Z</time>
      </trkpt>
      <trkpt lat="47.0429" lon="-0.864">
        <ele>63</ele>
        <time>2015-03-16T08:05:46Z</time>
      </trkpt>
      <trkpt lat="47.04287" lon="-0.86395">
        <ele>63</ele>
        <time>2015-03-16T08:05:50Z</time>
      </trkpt>
      <trkpt lat="47.04285" lon="-0.86392">
        <ele>63</ele>
        <time>2015-03-16T08:05:52Z</time>
      </trkpt>
      <trkpt lat="47.04284" lon="-0.86389">
        <ele>62</ele>
        <time>2015-03-16T08:05:54Z</time>
      </trkpt>
      <trkpt lat="47.04282" lon="-0.86386">
        <ele>62</ele>
        <time>2015-03-16T08:05:56Z</time>
      </trkpt>
      <trkpt lat="47.04281" lon="-0.86382">
        <ele>62</ele>
        <time>2015-03-16T08:05:58Z</time>
      </trkpt>
      <trkpt lat="47.04279" lon="-0.86379">
        <ele>62</ele>
        <time>2015-03-16T08:06:00Z</time>
      </trkpt>
      <trkpt lat="47.04276" lon="-0.86372">
        <ele>62</ele>
        <time>2015-03-16T08:06:04Z</time>
      </trkpt>
      <trkpt lat="47.04274" lon="-0.86369">
        <ele>62</ele>
        <time>2015-03-16T08:06:06Z</time>
      </trkpt>
      <trkpt lat="47.04271" lon="-0.86364">
        <ele>62</ele>
        <time>2015-03-16T08:06:10Z</time>
      </trkpt>
      <trkpt lat="47.04269" lon="-0.86359">
        <ele>62</ele>
        <time>2015-03-16T08:06:13Z</time>
      </trkpt>
      <trkpt lat="47.04268" lon="-0.86356">
        <ele>62</ele>
        <time>2015-03-16T08:06:15Z</time>
      </trkpt>
      <trkpt lat="47.04266" lon="-0.86353">
        <ele>62</ele>
        <time>2015-03-16T08:06:17Z</time>
      </trkpt>
      <trkpt lat="47.04263" lon="-0.86349">
        <ele>62</ele>
        <time>2015-03-16T08:06:20Z</time>
      </trkpt>
      <trkpt lat="47.04261" lon="-0.86347">
        <ele>62</ele>
        <time>2015-03-16T08:06:22Z</time>
      </trkpt>
      <trkpt lat="47.04256" lon="-0.86344">
        <ele>62</ele>
        <time>2015-03-16T08:06:25Z</time>
      </trkpt>
      <trkpt lat="47.04253" lon="-0.86343">
        <ele>62</ele>
        <time>2015-03-16T08:06:27Z</time>
      </trkpt>
      <trkpt lat="47.04248" lon="-0.86342">
        <ele>62</ele>
        <time>2015-03-16T08:06:30Z</time>
      </trkpt>
      <trkpt lat="47.04245" lon="-0.86343">
        <ele>62</ele>
        <time>2015-03-16T08:06:32Z</time>
      </trkpt>
      <trkpt lat="47.04242" lon="-0.86344">
        <ele>62</ele>
        <time>2015-03-16T08:06:34Z</time>
      </trkpt>
      <trkpt lat="47.04239" lon="-0.86346">
        <ele>63</ele>
        <time>2015-03-16T08:06:36Z</time>
      </trkpt>
      <trkpt lat="47.04236" lon="-0.86348">
        <ele>63</ele>
        <time>2015-03-16T08:06:38Z</time>
      </trkpt>
      <trkpt lat="47.04232" lon="-0.86351">
        <ele>63</ele>
        <time>2015-03-16T08:06:41Z</time>
      </trkpt>
      <trkpt lat="47.04229" lon="-0.86353">
        <ele>64</ele>
        <time>2015-03-16T08:06:43Z</time>
      </trkpt>
      <trkpt lat="47.04225" lon="-0.86356">
        <ele>64</ele>
        <time>2015-03-16T08:06:46Z</time>
      </trkpt>
      <trkpt lat="47.04222" lon="-0.86357">
        <ele>64</ele>
        <time>2015-03-16T08:06:48Z</time>
      </trkpt>
      <trkpt lat="47.04218" lon="-0.8636">
        <ele>64</ele>
        <time>2015-03-16T08:06:51Z</time>
      </trkpt>
      <trkpt lat="47.04215" lon="-0.86363">
        <ele>64</ele>
        <time>2015-03-16T08:06:53Z</time>
      </trkpt>
      <trkpt lat="47.04211" lon="-0.86366">
        <ele>65</ele>
        <time>2015-03-16T08:06:57Z</time>
      </trkpt>
      <trkpt lat="47.04209" lon="-0.86369">
        <ele>65</ele>
        <time>2015-03-16T08:06:59Z</time>
      </trkpt>
      <trkpt lat="47.04205" lon="-0.86372">
        <ele>65</ele>
        <time>2015-03-16T08:07:02Z</time>
      </trkpt>
      <trkpt lat="47.04202" lon="-0.86374">
        <ele>65</ele>
        <time>2015-03-16T08:07:04Z</time>
      </trkpt>
      <trkpt lat="47.04199" lon="-0.86376">
        <ele>65</ele>
        <time>2015-03-16T08:07:07Z</time>
      </trkpt>
      <trkpt lat="47.04196" lon="-0.86377">
        <ele>65</ele>
        <time>2015-03-16T08:07:09Z</time>
      </trkpt>
      <trkpt lat="47.04192" lon="-0.86376">
        <ele>65</ele>
        <time>2015-03-16T08:07:12Z</time>
      </trkpt>
      <trkpt lat="47.0419" lon="-0.86375">
        <ele>65</ele>
        <time>2015-03-16T08:07:14Z</time>
      </trkpt>
      <trkpt lat="47.04187" lon="-0.86374">
        <ele>65</ele>
        <time>2015-03-16T08:07:17Z</time>
      </trkpt>
      <trkpt lat="47.04184" lon="-0.8637">
        <ele>65</ele>
        <time>2015-03-16T08:07:20Z</time>
      </trkpt>
      <trkpt lat="47.04182" lon="-0.86365">
        <ele>65</ele>
        <time>2015-03-16T08:07:23Z</time>
      </trkpt>
      <trkpt lat="47.0418" lon="-0.86362">
        <ele>65</ele>
        <time>2015-03-16T08:07:25Z</time>
      </trkpt>
      <trkpt lat="47.04179" lon="-0.86357">
        <ele>65</ele>
        <time>2015-03-16T08:07:28Z</time>
      </trkpt>
      <trkpt lat="47.04178" lon="-0.86353">
        <ele>65</ele>
        <time>2015-03-16T08:07:30Z</time>
      </trkpt>
      <trkpt lat="47.04178" lon="-0.86347">
        <ele>65</ele>
        <time>2015-03-16T08:07:33Z</time>
      </trkpt>
      <trkpt lat="47.04178" lon="-0.86343">
        <ele>65</ele>
        <time>2015-03-16T08:07:35Z</time>
      </trkpt>
      <trkpt lat="47.04177" lon="-0.86337">
        <ele>65</ele>
        <time>2015-03-16T08:07:38Z</time>
      </trkpt>
      <trkpt lat="47.04177" lon="-0.86334">
        <ele>65</ele>
        <time>2015-03-16T08:07:40Z</time>
      </trkpt>
      <trkpt lat="47.04176" lon="-0.86328">
        <ele>65</ele>
        <time>2015-03-16T08:07:44Z</time>
      </trkpt>
      <trkpt lat="47.04174" lon="-0.86324">
        <ele>65</ele>
        <time>2015-03-16T08:07:47Z</time>
      </trkpt>
      <trkpt lat="47.04172" lon="-0.86321">
        <ele>65</ele>
        <time>2015-03-16T08:07:49Z</time>
      </trkpt>
      <trkpt lat="47.0417" lon="-0.86317">
        <ele>65</ele>
        <time>2015-03-16T08:07:52Z</time>
      </trkpt>
      <trkpt lat="47.04168" lon="-0.86314">
        <ele>65</ele>
        <time>2015-03-16T08:07:54Z</time>
      </trkpt>
      <trkpt lat="47.04166" lon="-0.86312">
        <ele>65</ele>
        <time>2015-03-16T08:07:56Z</time>
      </trkpt>
      <trkpt lat="47.04164" lon="-0.86307">
        <ele>65</ele>
        <time>2015-03-16T08:07:59Z</time>
      </trkpt>
      <trkpt lat="47.04163" lon="-0.86303">
        <ele>65</ele>
        <time>2015-03-16T08:08:01Z</time>
      </trkpt>
      <trkpt lat="47.04159" lon="-0.86298">
        <ele>65</ele>
        <time>2015-03-16T08:08:04Z</time>
      </trkpt>
      <trkpt lat="47.04157" lon="-0.86294">
        <ele>65</ele>
        <time>2015-03-16T08:08:06Z</time>
      </trkpt>
      <trkpt lat="47.04155" lon="-0.8629">
        <ele>65</ele>
        <time>2015-03-16T08:08:09Z</time>
      </trkpt>
      <trkpt lat="47.04153" lon="-0.86288">
        <ele>65</ele>
        <time>2015-03-16T08:08:11Z</time>
      </trkpt>
      <trkpt lat="47.04149" lon="-0.86283">
        <ele>65</ele>
        <time>2015-03-16T08:08:15Z</time>
      </trkpt>
      <trkpt lat="47.04147" lon="-0.86279">
        <ele>65</ele>
        <time>2015-03-16T08:08:17Z</time>
      </trkpt>
      <trkpt lat="47.04145" lon="-0.86275">
        <ele>65</ele>
        <time>2015-03-16T08:08:20Z</time>
      </trkpt>
      <trkpt lat="47.04142" lon="-0.86273">
        <ele>65</ele>
        <time>2015-03-16T08:08:22Z</time>
      </trkpt>
      <trkpt lat="47.04139" lon="-0.86269">
        <ele>65</ele>
        <time>2015-03-16T08:08:26Z</time>
      </trkpt>
      <trkpt lat="47.04137" lon="-0.86266">
        <ele>65</ele>
        <time>2015-03-16T08:08:28Z</time>
      </trkpt>
      <trkpt lat="47.04135" lon="-0.86265">
        <ele>65</ele>
        <time>2015-03-16T08:08:30Z</time>
      </trkpt>
      <trkpt lat="47.04134" lon="-0.86263">
        <ele>65</ele>
        <time>2015-03-16T08:08:32Z</time>
      </trkpt>
      <trkpt lat="47.0413" lon="-0.8626">
        <ele>65</ele>
        <time>2015-03-16T08:08:35Z</time>
      </trkpt>
      <trkpt lat="47.04128" lon="-0.86258">
        <ele>65</ele>
        <time>2015-03-16T08:08:37Z</time>
      </trkpt>
      <trkpt lat="47.04126" lon="-0.86256">
        <ele>65</ele>
        <time>2015-03-16T08:08:39Z</time>
      </trkpt>
      <trkpt lat="47.04124" lon="-0.86255">
        <ele>65</ele>
        <time>2015-03-16T08:08:41Z</time>
      </trkpt>
      <trkpt lat="47.04122" lon="-0.86254">
        <ele>65</ele>
        <time>2015-03-16T08:08:43Z</time>
      </trkpt>
      <trkpt lat="47.04119" lon="-0.86251">
        <ele>65</ele>
        <time>2015-03-16T08:08:46Z</time>
      </trkpt>
      <trkpt lat="47.04117" lon="-0.86248">
        <ele>65</ele>
        <time>2015-03-16T08:08:48Z</time>
      </trkpt>
      <trkpt lat="47.04114" lon="-0.86246">
        <ele>65</ele>
        <time>2015-03-16T08:08:51Z</time>
      </trkpt>
      <trkpt lat="47.0411" lon="-0.86243">
        <ele>65</ele>
        <time>2015-03-16T08:08:54Z</time>
      </trkpt>
      <trkpt lat="47.04109" lon="-0.86239">
        <ele>65</ele>
        <time>2015-03-16T08:08:56Z</time>
      </trkpt>
      <trkpt lat="47.04106" lon="-0.86235">
        <ele>65</ele>
        <time>2015-03-16T08:08:59Z</time>
      </trkpt>
      <trkpt lat="47.04103" lon="-0.86233">
        <ele>65</ele>
        <time>2015-03-16T08:09:02Z</time>
      </trkpt>
      <trkpt lat="47.041" lon="-0.86229">
        <ele>65</ele>
        <time>2015-03-16T08:09:05Z</time>
      </trkpt>
      <trkpt lat="47.04097" lon="-0.86228">
        <ele>65</ele>
        <time>2015-03-16T08:09:07Z</time>
      </trkpt>
      <trkpt lat="47.04094" lon="-0.86225">
        <ele>65</ele>
        <time>2015-03-16T08:09:10Z</time>
      </trkpt>
      <trkpt lat="47.04088" lon="-0.86223">
        <ele>65</ele>
        <time>2015-03-16T08:09:13Z</time>
      </trkpt>
      <trkpt lat="47.04085" lon="-0.86222">
        <ele>65</ele>
        <time>2015-03-16T08:09:15Z</time>
      </trkpt>
      <trkpt lat="47.04082" lon="-0.86224">
        <ele>65</ele>
        <time>2015-03-16T08:09:18Z</time>
      </trkpt>
      <trkpt lat="47.04079" lon="-0.86225">
        <ele>65</ele>
        <time>2015-03-16T08:09:20Z</time>
      </trkpt>
      <trkpt lat="47.04075" lon="-0.86225">
        <ele>65</ele>
        <time>2015-03-16T08:09:23Z</time>
      </trkpt>
      <trkpt lat="47.04071" lon="-0.86226">
        <ele>65</ele>
        <time>2015-03-16T08:09:25Z</time>
      </trkpt>
      <trkpt lat="47.04069" lon="-0.86228">
        <ele>65</ele>
        <time>2015-03-16T08:09:27Z</time>
      </trkpt>
      <trkpt lat="47.04066" lon="-0.86229">
        <ele>65</ele>
        <time>2015-03-16T08:09:29Z</time>
      </trkpt>
      <trkpt lat="47.04063" lon="-0.8623">
        <ele>65</ele>
        <time>2015-03-16T08:09:31Z</time>
      </trkpt>
      <trkpt lat="47.04059" lon="-0.86232">
        <ele>65</ele>
        <time>2015-03-16T08:09:33Z</time>
      </trkpt>
      <trkpt lat="47.04056" lon="-0.86235">
        <ele>65</ele>
        <time>2015-03-16T08:09:35Z</time>
      </trkpt>
      <trkpt lat="47.04053" lon="-0.86238">
        <ele>65</ele>
        <time>2015-03-16T08:09:38Z</time>
      </trkpt>
      <trkpt lat="47.0405" lon="-0.86239">
        <ele>65</ele>
        <time>2015-03-16T08:09:40Z</time>
      </trkpt>
      <trkpt lat="47.04047" lon="-0.86243">
        <ele>65</ele>
        <time>2015-03-16T08:09:43Z</time>
      </trkpt>
      <trkpt lat="47.04045" lon="-0.86246">
        <ele>65</ele>
        <time>2015-03-16T08:09:45Z</time>
      </trkpt>
      <trkpt lat="47.04043" lon="-0.86248">
        <ele>65</ele>
        <time>2015-03-16T08:09:47Z</time>
      </trkpt>
      <trkpt lat="47.0404" lon="-0.86251">
        <ele>65</ele>
        <time>2015-03-16T08:09:50Z</time>
      </trkpt>
      <trkpt lat="47.04037" lon="-0.86256">
        <ele>65</ele>
        <time>2015-03-16T08:09:53Z</time>
      </trkpt>
      <trkpt lat="47.04035" lon="-0.86258">
        <ele>65</ele>
        <time>2015-03-16T08:09:55Z</time>
      </trkpt>
      <trkpt lat="47.0403" lon="-0.86262">
        <ele>65</ele>
        <time>2015-03-16T08:09:59Z</time>
      </trkpt>
      <trkpt lat="47.04028" lon="-0.86264">
        <ele>65</ele>
        <time>2015-03-16T08:10:01Z</time>
      </trkpt>
      <trkpt lat="47.04025" lon="-0.86266">
        <ele>66</ele>
        <time>2015-03-16T08:10:03Z</time>
      </trkpt>
      <trkpt lat="47.04022" lon="-0.86269">
        <ele>66</ele>
        <time>2015-03-16T08:10:06Z</time>
      </trkpt>
      <trkpt lat="47.04018" lon="-0.86271">
        <ele>66</ele>
        <time>2015-03-16T08:10:09Z</time>
      </trkpt>
      <trkpt lat="47.04016" lon="-0.86273">
        <ele>66</ele>
        <time>2015-03-16T08:10:11Z</time>
      </trkpt>
      <trkpt lat="47.04014" lon="-0.86276">
        <ele>66</ele>
        <time>2015-03-16T08:10:13Z</time>
      </trkpt>
      <trkpt lat="47.04012" lon="-0.86277">
        <ele>67</ele>
        <time>2015-03-16T08:10:15Z</time>
      </trkpt>
      <trkpt lat="47.04009" lon="-0.86278">
        <ele>67</ele>
        <time>2015-03-16T08:10:17Z</time>
      </trkpt>
      <trkpt lat="47.04007" lon="-0.86279">
        <ele>67</ele>
        <time>2015-03-16T08:10:19Z</time>
      </trkpt>
      <trkpt lat="47.04004" lon="-0.86279">
        <ele>67</ele>
        <time>2015-03-16T08:10:21Z</time>
      </trkpt>
      <trkpt lat="47.04002" lon="-0.86279">
        <ele>67</ele>
        <time>2015-03-16T08:10:23Z</time>
      </trkpt>
      <trkpt lat="47.03999" lon="-0.86279">
        <ele>67</ele>
        <time>2015-03-16T08:10:26Z</time>
      </trkpt>
      <trkpt lat="47.03996" lon="-0.86279">
        <ele>67</ele>
        <time>2015-03-16T08:10:28Z</time>
      </trkpt>
      <trkpt lat="47.03993" lon="-0.86279">
        <ele>67</ele>
        <time>2015-03-16T08:10:30Z</time>
      </trkpt>
      <trkpt lat="47.03991" lon="-0.86278">
        <ele>67</ele>
        <time>2015-03-16T08:10:32Z</time>
      </trkpt>
      <trkpt lat="47.03988" lon="-0.86277">
        <ele>67</ele>
        <time>2015-03-16T08:10:34Z</time>
      </trkpt>
      <trkpt lat="47.03986" lon="-0.86276">
        <ele>67</ele>
        <time>2015-03-16T08:10:36Z</time>
      </trkpt>
      <trkpt lat="47.03984" lon="-0.86274">
        <ele>67</ele>
        <time>2015-03-16T08:10:38Z</time>
      </trkpt>
      <trkpt lat="47.03981" lon="-0.86273">
        <ele>67</ele>
        <time>2015-03-16T08:10:40Z</time>
      </trkpt>
      <trkpt lat="47.03978" lon="-0.86271">
        <ele>67</ele>
        <time>2015-03-16T08:10:43Z</time>
      </trkpt>
      <trkpt lat="47.03974" lon="-0.86269">
        <ele>67</ele>
        <time>2015-03-16T08:10:46Z</time>
      </trkpt>
      <trkpt lat="47.03971" lon="-0.86268">
        <ele>67</ele>
        <time>2015-03-16T08:10:48Z</time>
      </trkpt>
      <trkpt lat="47.03968" lon="-0.86267">
        <ele>67</ele>
        <time>2015-03-16T08:10:50Z</time>
      </trkpt>
      <trkpt lat="47.03965" lon="-0.86266">
        <ele>67</ele>
        <time>2015-03-16T08:10:52Z</time>
      </trkpt>
      <trkpt lat="47.03963" lon="-0.86265">
        <ele>67</ele>
        <time>2015-03-16T08:10:54Z</time>
      </trkpt>
      <trkpt lat="47.0396" lon="-0.86264">
        <ele>67</ele>
        <time>2015-03-16T08:10:56Z</time>
      </trkpt>
      <trkpt lat="47.03957" lon="-0.86264">
        <ele>67</ele>
        <time>2015-03-16T08:10:58Z</time>
      </trkpt>
      <trkpt lat="47.03955" lon="-0.86263">
        <ele>67</ele>
        <time>2015-03-16T08:11:00Z</time>
      </trkpt>
      <trkpt lat="47.03952" lon="-0.86262">
        <ele>67</ele>
        <time>2015-03-16T08:11:02Z</time>
      </trkpt>
      <trkpt lat="47.0395" lon="-0.86262">
        <ele>67</ele>
        <time>2015-03-16T08:11:04Z</time>
      </trkpt>
      <trkpt lat="47.03947" lon="-0.86261">
        <ele>67</ele>
        <time>2015-03-16T08:11:06Z</time>
      </trkpt>
      <trkpt lat="47.03944" lon="-0.86261">
        <ele>67</ele>
        <time>2015-03-16T08:11:08Z</time>
      </trkpt>
      <trkpt lat="47.03941" lon="-0.8626">
        <ele>67</ele>
        <time>2015-03-16T08:11:11Z</time>
      </trkpt>
      <trkpt lat="47.03938" lon="-0.8626">
        <ele>67</ele>
        <time>2015-03-16T08:11:13Z</time>
      </trkpt>
      <trkpt lat="47.03935" lon="-0.8626">
        <ele>67</ele>
        <time>2015-03-16T08:11:15Z</time>
      </trkpt>
      <trkpt lat="47.03932" lon="-0.8626">
        <ele>67</ele>
        <time>2015-03-16T08:11:17Z</time>
      </trkpt>
      <trkpt lat="47.0393" lon="-0.8626">
        <ele>67</ele>
        <time>2015-03-16T08:11:19Z</time>
      </trkpt>
      <trkpt lat="47.03927" lon="-0.8626">
        <ele>67</ele>
        <time>2015-03-16T08:11:21Z</time>
      </trkpt>
      <trkpt lat="47.03924" lon="-0.86259">
        <ele>67</ele>
        <time>2015-03-16T08:11:23Z</time>
      </trkpt>
      <trkpt lat="47.03921" lon="-0.86257">
        <ele>67</ele>
        <time>2015-03-16T08:11:25Z</time>
      </trkpt>
      <trkpt lat="47.03918" lon="-0.86257">
        <ele>67</ele>
        <time>2015-03-16T08:11:27Z</time>
      </trkpt>
      <trkpt lat="47.03916" lon="-0.86253">
        <ele>67</ele>
        <time>2015-03-16T08:11:30Z</time>
      </trkpt>
      <trkpt lat="47.03914" lon="-0.86252">
        <ele>67</ele>
        <time>2015-03-16T08:11:32Z</time>
      </trkpt>
      <trkpt lat="47.03913" lon="-0.86251">
        <ele>67</ele>
        <time>2015-03-16T08:11:34Z</time>
      </trkpt>
      <trkpt lat="47.03913" lon="-0.86249">
        <ele>67</ele>
        <time>2015-03-16T08:11:36Z</time>
      </trkpt>
      <trkpt lat="47.03913" lon="-0.86246">
        <ele>67</ele>
        <time>2015-03-16T08:11:38Z</time>
      </trkpt>
      <trkpt lat="47.03912" lon="-0.86242">
        <ele>67</ele>
        <time>2015-03-16T08:11:40Z</time>
      </trkpt>
      <trkpt lat="47.03911" lon="-0.86238">
        <ele>67</ele>
        <time>2015-03-16T08:11:42Z</time>
      </trkpt>
      <trkpt lat="47.03911" lon="-0.86234">
        <ele>68</ele>
        <time>2015-03-16T08:11:44Z</time>
      </trkpt>
      <trkpt lat="47.03909" lon="-0.8623">
        <ele>68</ele>
        <time>2015-03-16T08:11:47Z</time>
      </trkpt>
      <trkpt lat="47.03908" lon="-0.86226">
        <ele>68</ele>
        <time>2015-03-16T08:11:49Z</time>
      </trkpt>
      <trkpt lat="47.03905" lon="-0.86222">
        <ele>68</ele>
        <time>2015-03-16T08:11:52Z</time>
      </trkpt>
      <trkpt lat="47.03903" lon="-0.8622">
        <ele>68</ele>
        <time>2015-03-16T08:11:54Z</time>
      </trkpt>
      <trkpt lat="47.03902" lon="-0.86217">
        <ele>68</ele>
        <time>2015-03-16T08:11:56Z</time>
      </trkpt>
      <trkpt lat="47.03899" lon="-0.86213">
        <ele>68</ele>
        <time>2015-03-16T08:11:59Z</time>
      </trkpt>
      <trkpt lat="47.03898" lon="-0.86209">
        <ele>68</ele>
        <time>2015-03-16T08:12:01Z</time>
      </trkpt>
      <trkpt lat="47.03895" lon="-0.86205">
        <ele>68</ele>
        <time>2015-03-16T08:12:04Z</time>
      </trkpt>
      <trkpt lat="47.03894" lon="-0.86201">
        <ele>68</ele>
        <time>2015-03-16T08:12:06Z</time>
      </trkpt>
      <trkpt lat="47.03892" lon="-0.86197">
        <ele>68</ele>
        <time>2015-03-16T08:12:08Z</time>
      </trkpt>
      <trkpt lat="47.03892" lon="-0.86193">
        <ele>68</ele>
        <time>2015-03-16T08:12:10Z</time>
      </trkpt>
      <trkpt lat="47.03891" lon="-0.86189">
        <ele>68</ele>
        <time>2015-03-16T08:12:12Z</time>
      </trkpt>
      <trkpt lat="47.03891" lon="-0.86186">
        <ele>68</ele>
        <time>2015-03-16T08:12:14Z</time>
      </trkpt>
      <trkpt lat="47.03892" lon="-0.86183">
        <ele>68</ele>
        <time>2015-03-16T08:12:16Z</time>
      </trkpt>
      <trkpt lat="47.03892" lon="-0.86179">
        <ele>68</ele>
        <time>2015-03-16T08:12:18Z</time>
      </trkpt>
      <trkpt lat="47.03893" lon="-0.86174">
        <ele>68</ele>
        <time>2015-03-16T08:12:20Z</time>
      </trkpt>
      <trkpt lat="47.03893" lon="-0.8617">
        <ele>68</ele>
        <time>2015-03-16T08:12:22Z</time>
      </trkpt>
      <trkpt lat="47.03893" lon="-0.86166">
        <ele>68</ele>
        <time>2015-03-16T08:12:24Z</time>
      </trkpt>
      <trkpt lat="47.03891" lon="-0.86163">
        <ele>68</ele>
        <time>2015-03-16T08:12:26Z</time>
      </trkpt>
      <trkpt lat="47.03889" lon="-0.86159">
        <ele>68</ele>
        <time>2015-03-16T08:12:28Z</time>
      </trkpt>
      <trkpt lat="47.03888" lon="-0.86156">
        <ele>68</ele>
        <time>2015-03-16T08:12:30Z</time>
      </trkpt>
      <trkpt lat="47.03885" lon="-0.86154">
        <ele>68</ele>
        <time>2015-03-16T08:12:32Z</time>
      </trkpt>
      <trkpt lat="47.03881" lon="-0.86151">
        <ele>68</ele>
        <time>2015-03-16T08:12:35Z</time>
      </trkpt>
      <trkpt lat="47.03878" lon="-0.8615">
        <ele>68</ele>
        <time>2015-03-16T08:12:37Z</time>
      </trkpt>
      <trkpt lat="47.03876" lon="-0.86151">
        <ele>68</ele>
        <time>2015-03-16T08:12:39Z</time>
      </trkpt>
      <trkpt lat="47.03873" lon="-0.86152">
        <ele>68</ele>
        <time>2015-03-16T08:12:41Z</time>
      </trkpt>
      <trkpt lat="47.03871" lon="-0.86155">
        <ele>68</ele>
        <time>2015-03-16T08:12:43Z</time>
      </trkpt>
      <trkpt lat="47.03869" lon="-0.86157">
        <ele>68</ele>
        <time>2015-03-16T08:12:45Z</time>
      </trkpt>
      <trkpt lat="47.03866" lon="-0.86159">
        <ele>68</ele>
        <time>2015-03-16T08:12:47Z</time>
      </trkpt>
      <trkpt lat="47.03864" lon="-0.86161">
        <ele>68</ele>
        <time>2015-03-16T08:12:49Z</time>
      </trkpt>
      <trkpt lat="47.03862" lon="-0.86164">
        <ele>68</ele>
        <time>2015-03-16T08:12:51Z</time>
      </trkpt>
      <trkpt lat="47.03859" lon="-0.86167">
        <ele>67</ele>
        <time>2015-03-16T08:12:54Z</time>
      </trkpt>
      <trkpt lat="47.03857" lon="-0.8617">
        <ele>67</ele>
        <time>2015-03-16T08:12:56Z</time>
      </trkpt>
      <trkpt lat="47.03854" lon="-0.86171">
        <ele>66</ele>
        <time>2015-03-16T08:12:58Z</time>
      </trkpt>
      <trkpt lat="47.03851" lon="-0.86172">
        <ele>66</ele>
        <time>2015-03-16T08:13:00Z</time>
      </trkpt>
      <trkpt lat="47.03849" lon="-0.86172">
        <ele>66</ele>
        <time>2015-03-16T08:13:02Z</time>
      </trkpt>
      <trkpt lat="47.03846" lon="-0.86173">
        <ele>66</ele>
        <time>2015-03-16T08:13:04Z</time>
      </trkpt>
      <trkpt lat="47.03842" lon="-0.86174">
        <ele>66</ele>
        <time>2015-03-16T08:13:06Z</time>
      </trkpt>
      <trkpt lat="47.03839" lon="-0.86174">
        <ele>66</ele>
        <time>2015-03-16T08:13:08Z</time>
      </trkpt>
      <trkpt lat="47.03836" lon="-0.86175">
        <ele>66</ele>
        <time>2015-03-16T08:13:10Z</time>
      </trkpt>
      <trkpt lat="47.03832" lon="-0.86175">
        <ele>66</ele>
        <time>2015-03-16T08:13:12Z</time>
      </trkpt>
      <trkpt lat="47.03829" lon="-0.86176">
        <ele>66</ele>
        <time>2015-03-16T08:13:15Z</time>
      </trkpt>
      <trkpt lat="47.03826" lon="-0.86176">
        <ele>66</ele>
        <time>2015-03-16T08:13:17Z</time>
      </trkpt>
      <trkpt lat="47.03824" lon="-0.86175">
        <ele>66</ele>
        <time>2015-03-16T08:13:19Z</time>
      </trkpt>
      <trkpt lat="47.0382" lon="-0.86172">
        <ele>66</ele>
        <time>2015-03-16T08:13:22Z</time>
      </trkpt>
      <trkpt lat="47.03819" lon="-0.8617">
        <ele>66</ele>
        <time>2015-03-16T08:13:24Z</time>
      </trkpt>
      <trkpt lat="47.03817" lon="-0.86168">
        <ele>66</ele>
        <time>2015-03-16T08:13:26Z</time>
      </trkpt>
      <trkpt lat="47.03815" lon="-0.86165">
        <ele>66</ele>
        <time>2015-03-16T08:13:28Z</time>
      </trkpt>
      <trkpt lat="47.03814" lon="-0.86163">
        <ele>66</ele>
        <time>2015-03-16T08:13:30Z</time>
      </trkpt>
      <trkpt lat="47.03812" lon="-0.8616">
        <ele>66</ele>
        <time>2015-03-16T08:13:32Z</time>
      </trkpt>
      <trkpt lat="47.0381" lon="-0.86159">
        <ele>66</ele>
        <time>2015-03-16T08:13:34Z</time>
      </trkpt>
      <trkpt lat="47.03807" lon="-0.86157">
        <ele>66</ele>
        <time>2015-03-16T08:13:37Z</time>
      </trkpt>
      <trkpt lat="47.03805" lon="-0.86158">
        <ele>66</ele>
        <time>2015-03-16T08:13:39Z</time>
      </trkpt>
      <trkpt lat="47.03802" lon="-0.8616">
        <ele>66</ele>
        <time>2015-03-16T08:13:41Z</time>
      </trkpt>
      <trkpt lat="47.03799" lon="-0.86163">
        <ele>66</ele>
        <time>2015-03-16T08:13:43Z</time>
      </trkpt>
      <trkpt lat="47.03797" lon="-0.86164">
        <ele>66</ele>
        <time>2015-03-16T08:13:45Z</time>
      </trkpt>
      <trkpt lat="47.03794" lon="-0.86167">
        <ele>66</ele>
        <time>2015-03-16T08:13:48Z</time>
      </trkpt>
      <trkpt lat="47.03791" lon="-0.8617">
        <ele>66</ele>
        <time>2015-03-16T08:13:51Z</time>
      </trkpt>
      <trkpt lat="47.03788" lon="-0.86172">
        <ele>66</ele>
        <time>2015-03-16T08:13:53Z</time>
      </trkpt>
      <trkpt lat="47.03786" lon="-0.86173">
        <ele>66</ele>
        <time>2015-03-16T08:13:55Z</time>
      </trkpt>
      <trkpt lat="47.03783" lon="-0.86174">
        <ele>66</ele>
        <time>2015-03-16T08:13:57Z</time>
      </trkpt>
      <trkpt lat="47.03781" lon="-0.86175">
        <ele>66</ele>
        <time>2015-03-16T08:13:59Z</time>
      </trkpt>
      <trkpt lat="47.03778" lon="-0.86175">
        <ele>66</ele>
        <time>2015-03-16T08:14:01Z</time>
      </trkpt>
      <trkpt lat="47.03776" lon="-0.86175">
        <ele>66</ele>
        <time>2015-03-16T08:14:03Z</time>
      </trkpt>
      <trkpt lat="47.03773" lon="-0.86175">
        <ele>66</ele>
        <time>2015-03-16T08:14:05Z</time>
      </trkpt>
      <trkpt lat="47.0377" lon="-0.86175">
        <ele>66</ele>
        <time>2015-03-16T08:14:07Z</time>
      </trkpt>
      <trkpt lat="47.03768" lon="-0.86176">
        <ele>66</ele>
        <time>2015-03-16T08:14:09Z</time>
      </trkpt>
      <trkpt lat="47.03765" lon="-0.86177">
        <ele>66</ele>
        <time>2015-03-16T08:14:11Z</time>
      </trkpt>
      <trkpt lat="47.03762" lon="-0.86178">
        <ele>66</ele>
        <time>2015-03-16T08:14:13Z</time>
      </trkpt>
      <trkpt lat="47.03759" lon="-0.8618">
        <ele>66</ele>
        <time>2015-03-16T08:14:16Z</time>
      </trkpt>
      <trkpt lat="47.03756" lon="-0.86179">
        <ele>66</ele>
        <time>2015-03-16T08:14:18Z</time>
      </trkpt>
      <trkpt lat="47.03754" lon="-0.86179">
        <ele>66</ele>
        <time>2015-03-16T08:14:20Z</time>
      </trkpt>
      <trkpt lat="47.03751" lon="-0.86177">
        <ele>66</ele>
        <time>2015-03-16T08:14:22Z</time>
      </trkpt>
      <trkpt lat="47.03749" lon="-0.86176">
        <ele>66</ele>
        <time>2015-03-16T08:14:24Z</time>
      </trkpt>
      <trkpt lat="47.03747" lon="-0.86176">
        <ele>66</ele>
        <time>2015-03-16T08:14:26Z</time>
      </trkpt>
      <trkpt lat="47.03745" lon="-0.86174">
        <ele>66</ele>
        <time>2015-03-16T08:14:28Z</time>
      </trkpt>
      <trkpt lat="47.03744" lon="-0.86172">
        <ele>66</ele>
        <time>2015-03-16T08:14:30Z</time>
      </trkpt>
      <trkpt lat="47.03742" lon="-0.86171">
        <ele>66</ele>
        <time>2015-03-16T08:14:32Z</time>
      </trkpt>
      <trkpt lat="47.0374" lon="-0.86169">
        <ele>66</ele>
        <time>2015-03-16T08:14:34Z</time>
      </trkpt>
      <trkpt lat="47.03738" lon="-0.86167">
        <ele>66</ele>
        <time>2015-03-16T08:14:36Z</time>
      </trkpt>
      <trkpt lat="47.03736" lon="-0.86164">
        <ele>66</ele>
        <time>2015-03-16T08:14:38Z</time>
      </trkpt>
      <trkpt lat="47.03735" lon="-0.86161">
        <ele>66</ele>
        <time>2015-03-16T08:14:40Z</time>
      </trkpt>
      <trkpt lat="47.03734" lon="-0.86158">
        <ele>66</ele>
        <time>2015-03-16T08:14:42Z</time>
      </trkpt>
      <trkpt lat="47.03732" lon="-0.86155">
        <ele>66</ele>
        <time>2015-03-16T08:14:44Z</time>
      </trkpt>
      <trkpt lat="47.03731" lon="-0.86152">
        <ele>66</ele>
        <time>2015-03-16T08:14:46Z</time>
      </trkpt>
      <trkpt lat="47.0373" lon="-0.86149">
        <ele>66</ele>
        <time>2015-03-16T08:14:48Z</time>
      </trkpt>
      <trkpt lat="47.03727" lon="-0.86146">
        <ele>66</ele>
        <time>2015-03-16T08:14:50Z</time>
      </trkpt>
      <trkpt lat="47.03725" lon="-0.86142">
        <ele>66</ele>
        <time>2015-03-16T08:14:53Z</time>
      </trkpt>
      <trkpt lat="47.03723" lon="-0.86138">
        <ele>66</ele>
        <time>2015-03-16T08:14:55Z</time>
      </trkpt>
      <trkpt lat="47.03721" lon="-0.86133">
        <ele>66</ele>
        <time>2015-03-16T08:14:58Z</time>
      </trkpt>
      <trkpt lat="47.03719" lon="-0.86129">
        <ele>66</ele>
        <time>2015-03-16T08:15:01Z</time>
      </trkpt>
      <trkpt lat="47.03718" lon="-0.86126">
        <ele>66</ele>
        <time>2015-03-16T08:15:03Z</time>
      </trkpt>
      <trkpt lat="47.03717" lon="-0.86123">
        <ele>66</ele>
        <time>2015-03-16T08:15:05Z</time>
      </trkpt>
      <trkpt lat="47.03715" lon="-0.86119">
        <ele>66</ele>
        <time>2015-03-16T08:15:07Z</time>
      </trkpt>
      <trkpt lat="47.03713" lon="-0.86115">
        <ele>66</ele>
        <time>2015-03-16T08:15:09Z</time>
      </trkpt>
      <trkpt lat="47.03711" lon="-0.86112">
        <ele>66</ele>
        <time>2015-03-16T08:15:11Z</time>
      </trkpt>
      <trkpt lat="47.0371" lon="-0.86109">
        <ele>66</ele>
        <time>2015-03-16T08:15:13Z</time>
      </trkpt>
      <trkpt lat="47.03708" lon="-0.86106">
        <ele>66</ele>
        <time>2015-03-16T08:15:15Z</time>
      </trkpt>
      <trkpt lat="47.03706" lon="-0.86102">
        <ele>66</ele>
        <time>2015-03-16T08:15:17Z</time>
      </trkpt>
      <trkpt lat="47.03704" lon="-0.86098">
        <ele>66</ele>
        <time>2015-03-16T08:15:20Z</time>
      </trkpt>
      <trkpt lat="47.03701" lon="-0.86095">
        <ele>66</ele>
        <time>2015-03-16T08:15:22Z</time>
      </trkpt>
      <trkpt lat="47.037" lon="-0.86092">
        <ele>66</ele>
        <time>2015-03-16T08:15:24Z</time>
      </trkpt>
      <trkpt lat="47.03697" lon="-0.86089">
        <ele>66</ele>
        <time>2015-03-16T08:15:26Z</time>
      </trkpt>
      <trkpt lat="47.03696" lon="-0.86087">
        <ele>66</ele>
        <time>2015-03-16T08:15:28Z</time>
      </trkpt>
      <trkpt lat="47.03694" lon="-0.86085">
        <ele>66</ele>
        <time>2015-03-16T08:15:30Z</time>
      </trkpt>
      <trkpt lat="47.03692" lon="-0.86082">
        <ele>66</ele>
        <time>2015-03-16T08:15:32Z</time>
      </trkpt>
      <trkpt lat="47.0369" lon="-0.86079">
        <ele>66</ele>
        <time>2015-03-16T08:15:34Z</time>
      </trkpt>
      <trkpt lat="47.03688" lon="-0.86077">
        <ele>66</ele>
        <time>2015-03-16T08:15:36Z</time>
      </trkpt>
      <trkpt lat="47.03686" lon="-0.86075">
        <ele>66</ele>
        <time>2015-03-16T08:15:38Z</time>
      </trkpt>
      <trkpt lat="47.03683" lon="-0.86073">
        <ele>66</ele>
        <time>2015-03-16T08:15:40Z</time>
      </trkpt>
      <trkpt lat="47.03681" lon="-0.86071">
        <ele>66</ele>
        <time>2015-03-16T08:15:42Z</time>
      </trkpt>
      <trkpt lat="47.03679" lon="-0.86069">
        <ele>66</ele>
        <time>2015-03-16T08:15:44Z</time>
      </trkpt>
      <trkpt lat="47.03677" lon="-0.86067">
        <ele>66</ele>
        <time>2015-03-16T08:15:46Z</time>
      </trkpt>
      <trkpt lat="47.03674" lon="-0.86066">
        <ele>66</ele>
        <time>2015-03-16T08:15:48Z</time>
      </trkpt>
      <trkpt lat="47.03672" lon="-0.86065">
        <ele>66</ele>
        <time>2015-03-16T08:15:50Z</time>
      </trkpt>
      <trkpt lat="47.03669" lon="-0.86064">
        <ele>66</ele>
        <time>2015-03-16T08:15:52Z</time>
      </trkpt>
      <trkpt lat="47.03667" lon="-0.86064">
        <ele>66</ele>
        <time>2015-03-16T08:15:54Z</time>
      </trkpt>
      <trkpt lat="47.03664" lon="-0.86063">
        <ele>66</ele>
        <time>2015-03-16T08:15:56Z</time>
      </trkpt>
      <trkpt lat="47.03662" lon="-0.86063">
        <ele>66</ele>
        <time>2015-03-16T08:15:58Z</time>
      </trkpt>
      <trkpt lat="47.03658" lon="-0.86062">
        <ele>66</ele>
        <time>2015-03-16T08:16:01Z</time>
      </trkpt>
      <trkpt lat="47.03655" lon="-0.86062">
        <ele>66</ele>
        <time>2015-03-16T08:16:03Z</time>
      </trkpt>
      <trkpt lat="47.03652" lon="-0.86062">
        <ele>66</ele>
        <time>2015-03-16T08:16:05Z</time>
      </trkpt>
      <trkpt lat="47.0365" lon="-0.86061">
        <ele>66</ele>
        <time>2015-03-16T08:16:07Z</time>
      </trkpt>
      <trkpt lat="47.03647" lon="-0.86061">
        <ele>66</ele>
        <time>2015-03-16T08:16:09Z</time>
      </trkpt>
      <trkpt lat="47.03644" lon="-0.86061">
        <ele>66</ele>
        <time>2015-03-16T08:16:11Z</time>
      </trkpt>
      <trkpt lat="47.03642" lon="-0.86061">
        <ele>66</ele>
        <time>2015-03-16T08:16:13Z</time>
      </trkpt>
      <trkpt lat="47.03639" lon="-0.86061">
        <ele>66</ele>
        <time>2015-03-16T08:16:15Z</time>
      </trkpt>
      <trkpt lat="47.03636" lon="-0.86061">
        <ele>66</ele>
        <time>2015-03-16T08:16:18Z</time>
      </trkpt>
      <trkpt lat="47.03633" lon="-0.86061">
        <ele>66</ele>
        <time>2015-03-16T08:16:20Z</time>
      </trkpt>
      <trkpt lat="47.03631" lon="-0.86061">
        <ele>66</ele>
        <time>2015-03-16T08:16:22Z</time>
      </trkpt>
      <trkpt lat="47.03628" lon="-0.86061">
        <ele>66</ele>
        <time>2015-03-16T08:16:24Z</time>
      </trkpt>
      <trkpt lat="47.03625" lon="-0.86061">
        <ele>66</ele>
        <time>2015-03-16T08:16:26Z</time>
      </trkpt>
      <trkpt lat="47.03623" lon="-0.8606">
        <ele>66</ele>
        <time>2015-03-16T08:16:28Z</time>
      </trkpt>
      <trkpt lat="47.0362" lon="-0.8606">
        <ele>66</ele>
        <time>2015-03-16T08:16:30Z</time>
      </trkpt>
      <trkpt lat="47.03618" lon="-0.86059">
        <ele>66</ele>
        <time>2015-03-16T08:16:32Z</time>
      </trkpt>
      <trkpt lat="47.03615" lon="-0.86059">
        <ele>66</ele>
        <time>2015-03-16T08:16:34Z</time>
      </trkpt>
      <trkpt lat="47.03613" lon="-0.86059">
        <ele>66</ele>
        <time>2015-03-16T08:16:36Z</time>
      </trkpt>
      <trkpt lat="47.03611" lon="-0.86059">
        <ele>66</ele>
        <time>2015-03-16T08:16:38Z</time>
      </trkpt>
      <trkpt lat="47.03608" lon="-0.86059">
        <ele>66</ele>
        <time>2015-03-16T08:16:40Z</time>
      </trkpt>
      <trkpt lat="47.03605" lon="-0.86058">
        <ele>66</ele>
        <time>2015-03-16T08:16:42Z</time>
      </trkpt>
      <trkpt lat="47.03603" lon="-0.86058">
        <ele>66</ele>
        <time>2015-03-16T08:16:44Z</time>
      </trkpt>
      <trkpt lat="47.036" lon="-0.86058">
        <ele>66</ele>
        <time>2015-03-16T08:16:46Z</time>
      </trkpt>
      <trkpt lat="47.03597" lon="-0.86057">
        <ele>66</ele>
        <time>2015-03-16T08:16:48Z</time>
      </trkpt>
      <trkpt lat="47.03594" lon="-0.86057">
        <ele>66</ele>
        <time>2015-03-16T08:16:50Z</time>
      </trkpt>
      <trkpt lat="47.03592" lon="-0.86057">
        <ele>66</ele>
        <time>2015-03-16T08:16:52Z</time>
      </trkpt>
      <trkpt lat="47.03589" lon="-0.86056">
        <ele>66</ele>
        <time>2015-03-16T08:16:54Z</time>
      </trkpt>
      <trkpt lat="47.03586" lon="-0.86055">
        <ele>66</ele>
        <time>2015-03-16T08:16:56Z</time>
      </trkpt>
      <trkpt lat="47.03584" lon="-0.86055">
        <ele>66</ele>
        <time>2015-03-16T08:16:58Z</time>
      </trkpt>
      <trkpt lat="47.03581" lon="-0.86054">
        <ele>66</ele>
        <time>2015-03-16T08:17:00Z</time>
      </trkpt>
      <trkpt lat="47.03579" lon="-0.86054">
        <ele>66</ele>
        <time>2015-03-16T08:17:02Z</time>
      </trkpt>
      <trkpt lat="47.03576" lon="-0.86053">
        <ele>66</ele>
        <time>2015-03-16T08:17:04Z</time>
      </trkpt>
      <trkpt lat="47.03573" lon="-0.86052">
        <ele>66</ele>
        <time>2015-03-16T08:17:06Z</time>
      </trkpt>
      <trkpt lat="47.0357" lon="-0.86049">
        <ele>66</ele>
        <time>2015-03-16T08:17:09Z</time>
      </trkpt>
      <trkpt lat="47.03568" lon="-0.86048">
        <ele>66</ele>
        <time>2015-03-16T08:17:11Z</time>
      </trkpt>
      <trkpt lat="47.03565" lon="-0.86048">
        <ele>66</ele>
        <time>2015-03-16T08:17:14Z</time>
      </trkpt>
      <trkpt lat="47.03561" lon="-0.86046">
        <ele>66</ele>
        <time>2015-03-16T08:17:16Z</time>
      </trkpt>
      <trkpt lat="47.03559" lon="-0.86046">
        <ele>66</ele>
        <time>2015-03-16T08:17:18Z</time>
      </trkpt>
      <trkpt lat="47.03556" lon="-0.86045">
        <ele>66</ele>
        <time>2015-03-16T08:17:20Z</time>
      </trkpt>
      <trkpt lat="47.03553" lon="-0.86044">
        <ele>66</ele>
        <time>2015-03-16T08:17:22Z</time>
      </trkpt>
      <trkpt lat="47.03551" lon="-0.86044">
        <ele>66</ele>
        <time>2015-03-16T08:17:24Z</time>
      </trkpt>
      <trkpt lat="47.03548" lon="-0.86044">
        <ele>66</ele>
        <time>2015-03-16T08:17:26Z</time>
      </trkpt>
      <trkpt lat="47.03545" lon="-0.86043">
        <ele>66</ele>
        <time>2015-03-16T08:17:28Z</time>
      </trkpt>
      <trkpt lat="47.03543" lon="-0.86043">
        <ele>66</ele>
        <time>2015-03-16T08:17:30Z</time>
      </trkpt>
      <trkpt lat="47.0354" lon="-0.86043">
        <ele>66</ele>
        <time>2015-03-16T08:17:32Z</time>
      </trkpt>
      <trkpt lat="47.03538" lon="-0.86043">
        <ele>66</ele>
        <time>2015-03-16T08:17:34Z</time>
      </trkpt>
      <trkpt lat="47.03535" lon="-0.86043">
        <ele>66</ele>
        <time>2015-03-16T08:17:37Z</time>
      </trkpt>
      <trkpt lat="47.03533" lon="-0.86043">
        <ele>66</ele>
        <time>2015-03-16T08:17:39Z</time>
      </trkpt>
      <trkpt lat="47.03533" lon="-0.86045">
        <ele>67</ele>
        <time>2015-03-16T08:17:48Z</time>
      </trkpt>
      <trkpt lat="47.03534" lon="-0.86045">
        <ele>68</ele>
        <time>2015-03-16T08:17:54Z</time>
      </trkpt>
      <trkpt lat="47.03535" lon="-0.86046">
        <ele>70</ele>
        <time>2015-03-16T08:18:02Z</time>
      </trkpt>
      <trkpt lat="47.03535" lon="-0.86047">
        <ele>70</ele>
        <time>2015-03-16T08:18:17Z</time>
      </trkpt>
      <trkpt lat="47.03537" lon="-0.86046">
        <ele>70</ele>
        <time>2015-03-16T08:18:31Z</time>
      </trkpt>
      <trkpt lat="47.03535" lon="-0.86046">
        <ele>71</ele>
        <time>2015-03-16T08:18:46Z</time>
      </trkpt>
      <trkpt lat="47.03534" lon="-0.86044">
        <ele>71</ele>
        <time>2015-03-16T08:18:57Z</time>
      </trkpt>
      <trkpt lat="47.03532" lon="-0.86043">
        <ele>71</ele>
        <time>2015-03-16T08:18:59Z</time>
      </trkpt>
      <trkpt lat="47.03529" lon="-0.86042">
        <ele>71</ele>
        <time>2015-03-16T08:19:01Z</time>
      </trkpt>
      <trkpt lat="47.03526" lon="-0.8604">
        <ele>71</ele>
        <time>2015-03-16T08:19:03Z</time>
      </trkpt>
      <trkpt lat="47.03524" lon="-0.86039">
        <ele>71</ele>
        <time>2015-03-16T08:19:05Z</time>
      </trkpt>
      <trkpt lat="47.03521" lon="-0.86037">
        <ele>71</ele>
        <time>2015-03-16T08:19:07Z</time>
      </trkpt>
      <trkpt lat="47.03518" lon="-0.86036">
        <ele>71</ele>
        <time>2015-03-16T08:19:09Z</time>
      </trkpt>
      <trkpt lat="47.03514" lon="-0.86032">
        <ele>71</ele>
        <time>2015-03-16T08:19:12Z</time>
      </trkpt>
      <trkpt lat="47.03511" lon="-0.8603">
        <ele>71</ele>
        <time>2015-03-16T08:19:15Z</time>
      </trkpt>
      <trkpt lat="47.03509" lon="-0.86029">
        <ele>71</ele>
        <time>2015-03-16T08:19:17Z</time>
      </trkpt>
      <trkpt lat="47.03506" lon="-0.86027">
        <ele>71</ele>
        <time>2015-03-16T08:19:19Z</time>
      </trkpt>
      <trkpt lat="47.03503" lon="-0.86026">
        <ele>71</ele>
        <time>2015-03-16T08:19:21Z</time>
      </trkpt>
      <trkpt lat="47.035" lon="-0.86025">
        <ele>71</ele>
        <time>2015-03-16T08:19:23Z</time>
      </trkpt>
      <trkpt lat="47.03497" lon="-0.86022">
        <ele>71</ele>
        <time>2015-03-16T08:19:26Z</time>
      </trkpt>
      <trkpt lat="47.03496" lon="-0.86018">
        <ele>71</ele>
        <time>2015-03-16T08:19:28Z</time>
      </trkpt>
      <trkpt lat="47.03495" lon="-0.86014">
        <ele>71</ele>
        <time>2015-03-16T08:19:30Z</time>
      </trkpt>
      <trkpt lat="47.03494" lon="-0.8601">
        <ele>71</ele>
        <time>2015-03-16T08:19:33Z</time>
      </trkpt>
      <trkpt lat="47.03493" lon="-0.86006">
        <ele>71</ele>
        <time>2015-03-16T08:19:35Z</time>
      </trkpt>
      <trkpt lat="47.03492" lon="-0.86004">
        <ele>71</ele>
        <time>2015-03-16T08:19:37Z</time>
      </trkpt>
      <trkpt lat="47.03491" lon="-0.86001">
        <ele>71</ele>
        <time>2015-03-16T08:19:39Z</time>
      </trkpt>
      <trkpt lat="47.03491" lon="-0.85996">
        <ele>70</ele>
        <time>2015-03-16T08:19:41Z</time>
      </trkpt>
      <trkpt lat="47.03491" lon="-0.85992">
        <ele>70</ele>
        <time>2015-03-16T08:19:43Z</time>
      </trkpt>
      <trkpt lat="47.03491" lon="-0.85988">
        <ele>70</ele>
        <time>2015-03-16T08:19:45Z</time>
      </trkpt>
      <trkpt lat="47.03491" lon="-0.85983">
        <ele>70</ele>
        <time>2015-03-16T08:19:47Z</time>
      </trkpt>
      <trkpt lat="47.03491" lon="-0.85979">
        <ele>70</ele>
        <time>2015-03-16T08:19:49Z</time>
      </trkpt>
      <trkpt lat="47.03492" lon="-0.85974">
        <ele>70</ele>
        <time>2015-03-16T08:19:51Z</time>
      </trkpt>
      <trkpt lat="47.03491" lon="-0.8597">
        <ele>70</ele>
        <time>2015-03-16T08:19:53Z</time>
      </trkpt>
      <trkpt lat="47.03491" lon="-0.85965">
        <ele>70</ele>
        <time>2015-03-16T08:19:55Z</time>
      </trkpt>
      <trkpt lat="47.03491" lon="-0.85962">
        <ele>70</ele>
        <time>2015-03-16T08:19:57Z</time>
      </trkpt>
      <trkpt lat="47.0349" lon="-0.85958">
        <ele>70</ele>
        <time>2015-03-16T08:19:59Z</time>
      </trkpt>
      <trkpt lat="47.0349" lon="-0.85954">
        <ele>70</ele>
        <time>2015-03-16T08:20:01Z</time>
      </trkpt>
      <trkpt lat="47.0349" lon="-0.85949">
        <ele>70</ele>
        <time>2015-03-16T08:20:03Z</time>
      </trkpt>
      <trkpt lat="47.03489" lon="-0.85945">
        <ele>70</ele>
        <time>2015-03-16T08:20:05Z</time>
      </trkpt>
      <trkpt lat="47.03489" lon="-0.85942">
        <ele>70</ele>
        <time>2015-03-16T08:20:07Z</time>
      </trkpt>
      <trkpt lat="47.03488" lon="-0.85939">
        <ele>70</ele>
        <time>2015-03-16T08:20:09Z</time>
      </trkpt>
      <trkpt lat="47.03488" lon="-0.85936">
        <ele>70</ele>
        <time>2015-03-16T08:20:11Z</time>
      </trkpt>
      <trkpt lat="47.03485" lon="-0.85932">
        <ele>70</ele>
        <time>2015-03-16T08:20:13Z</time>
      </trkpt>
      <trkpt lat="47.03482" lon="-0.85927">
        <ele>70</ele>
        <time>2015-03-16T08:20:16Z</time>
      </trkpt>
      <trkpt lat="47.0348" lon="-0.85925">
        <ele>70</ele>
        <time>2015-03-16T08:20:18Z</time>
      </trkpt>
      <trkpt lat="47.03477" lon="-0.85921">
        <ele>70</ele>
        <time>2015-03-16T08:20:20Z</time>
      </trkpt>
      <trkpt lat="47.03475" lon="-0.85917">
        <ele>70</ele>
        <time>2015-03-16T08:20:22Z</time>
      </trkpt>
      <trkpt lat="47.03473" lon="-0.85913">
        <ele>70</ele>
        <time>2015-03-16T08:20:25Z</time>
      </trkpt>
      <trkpt lat="47.03471" lon="-0.85909">
        <ele>70</ele>
        <time>2015-03-16T08:20:27Z</time>
      </trkpt>
      <trkpt lat="47.03469" lon="-0.85906">
        <ele>70</ele>
        <time>2015-03-16T08:20:29Z</time>
      </trkpt>
      <trkpt lat="47.03468" lon="-0.85903">
        <ele>70</ele>
        <time>2015-03-16T08:20:31Z</time>
      </trkpt>
      <trkpt lat="47.03466" lon="-0.859">
        <ele>70</ele>
        <time>2015-03-16T08:20:33Z</time>
      </trkpt>
      <trkpt lat="47.03464" lon="-0.85897">
        <ele>70</ele>
        <time>2015-03-16T08:20:35Z</time>
      </trkpt>
      <trkpt lat="47.03461" lon="-0.85894">
        <ele>70</ele>
        <time>2015-03-16T08:20:37Z</time>
      </trkpt>
      <trkpt lat="47.0346" lon="-0.85891">
        <ele>70</ele>
        <time>2015-03-16T08:20:39Z</time>
      </trkpt>
      <trkpt lat="47.03458" lon="-0.85887">
        <ele>70</ele>
        <time>2015-03-16T08:20:41Z</time>
      </trkpt>
      <trkpt lat="47.03457" lon="-0.85885">
        <ele>70</ele>
        <time>2015-03-16T08:20:43Z</time>
      </trkpt>
      <trkpt lat="47.03455" lon="-0.85882">
        <ele>70</ele>
        <time>2015-03-16T08:20:45Z</time>
      </trkpt>
      <trkpt lat="47.03454" lon="-0.85878">
        <ele>70</ele>
        <time>2015-03-16T08:20:47Z</time>
      </trkpt>
      <trkpt lat="47.03452" lon="-0.85875">
        <ele>70</ele>
        <time>2015-03-16T08:20:49Z</time>
      </trkpt>
      <trkpt lat="47.0345" lon="-0.85871">
        <ele>70</ele>
        <time>2015-03-16T08:20:51Z</time>
      </trkpt>
      <trkpt lat="47.03449" lon="-0.85868">
        <ele>70</ele>
        <time>2015-03-16T08:20:53Z</time>
      </trkpt>
      <trkpt lat="47.03448" lon="-0.85865">
        <ele>70</ele>
        <time>2015-03-16T08:20:55Z</time>
      </trkpt>
      <trkpt lat="47.03448" lon="-0.8586">
        <ele>70</ele>
        <time>2015-03-16T08:20:57Z</time>
      </trkpt>
      <trkpt lat="47.03447" lon="-0.85857">
        <ele>70</ele>
        <time>2015-03-16T08:20:59Z</time>
      </trkpt>
      <trkpt lat="47.03447" lon="-0.85853">
        <ele>70</ele>
        <time>2015-03-16T08:21:01Z</time>
      </trkpt>
      <trkpt lat="47.03445" lon="-0.85849">
        <ele>70</ele>
        <time>2015-03-16T08:21:03Z</time>
      </trkpt>
      <trkpt lat="47.03444" lon="-0.85845">
        <ele>70</ele>
        <time>2015-03-16T08:21:05Z</time>
      </trkpt>
      <trkpt lat="47.03442" lon="-0.85842">
        <ele>70</ele>
        <time>2015-03-16T08:21:07Z</time>
      </trkpt>
      <trkpt lat="47.03439" lon="-0.85838">
        <ele>70</ele>
        <time>2015-03-16T08:21:09Z</time>
      </trkpt>
      <trkpt lat="47.03438" lon="-0.85834">
        <ele>70</ele>
        <time>2015-03-16T08:21:12Z</time>
      </trkpt>
      <trkpt lat="47.03437" lon="-0.85832">
        <ele>70</ele>
        <time>2015-03-16T08:21:15Z</time>
      </trkpt>
      <trkpt lat="47.03435" lon="-0.8583">
        <ele>70</ele>
        <time>2015-03-16T08:21:17Z</time>
      </trkpt>
      <trkpt lat="47.03434" lon="-0.85827">
        <ele>70</ele>
        <time>2015-03-16T08:21:19Z</time>
      </trkpt>
      <trkpt lat="47.03433" lon="-0.85825">
        <ele>70</ele>
        <time>2015-03-16T08:21:21Z</time>
      </trkpt>
      <trkpt lat="47.03431" lon="-0.85822">
        <ele>70</ele>
        <time>2015-03-16T08:21:23Z</time>
      </trkpt>
      <trkpt lat="47.0343" lon="-0.85819">
        <ele>70</ele>
        <time>2015-03-16T08:21:25Z</time>
      </trkpt>
      <trkpt lat="47.03428" lon="-0.85816">
        <ele>70</ele>
        <time>2015-03-16T08:21:27Z</time>
      </trkpt>
      <trkpt lat="47.03426" lon="-0.85812">
        <ele>70</ele>
        <time>2015-03-16T08:21:30Z</time>
      </trkpt>
      <trkpt lat="47.03424" lon="-0.85808">
        <ele>70</ele>
        <time>2015-03-16T08:21:32Z</time>
      </trkpt>
      <trkpt lat="47.03423" lon="-0.85805">
        <ele>70</ele>
        <time>2015-03-16T08:21:34Z</time>
      </trkpt>
      <trkpt lat="47.03421" lon="-0.85802">
        <ele>70</ele>
        <time>2015-03-16T08:21:36Z</time>
      </trkpt>
      <trkpt lat="47.0342" lon="-0.85799">
        <ele>70</ele>
        <time>2015-03-16T08:21:38Z</time>
      </trkpt>
      <trkpt lat="47.03417" lon="-0.85795">
        <ele>70</ele>
        <time>2015-03-16T08:21:40Z</time>
      </trkpt>
      <trkpt lat="47.03413" lon="-0.85789">
        <ele>70</ele>
        <time>2015-03-16T08:21:42Z</time>
      </trkpt>
      <trkpt lat="47.03411" lon="-0.85785">
        <ele>70</ele>
        <time>2015-03-16T08:21:44Z</time>
      </trkpt>
      <trkpt lat="47.0341" lon="-0.85781">
        <ele>70</ele>
        <time>2015-03-16T08:21:46Z</time>
      </trkpt>
      <trkpt lat="47.03406" lon="-0.85776">
        <ele>70</ele>
        <time>2015-03-16T08:21:48Z</time>
      </trkpt>
      <trkpt lat="47.03404" lon="-0.85773">
        <ele>70</ele>
        <time>2015-03-16T08:21:50Z</time>
      </trkpt>
      <trkpt lat="47.034" lon="-0.85769">
        <ele>70</ele>
        <time>2015-03-16T08:21:52Z</time>
      </trkpt>
      <trkpt lat="47.03399" lon="-0.85765">
        <ele>70</ele>
        <time>2015-03-16T08:21:54Z</time>
      </trkpt>
      <trkpt lat="47.03397" lon="-0.85761">
        <ele>70</ele>
        <time>2015-03-16T08:21:56Z</time>
      </trkpt>
      <trkpt lat="47.03394" lon="-0.85758">
        <ele>70</ele>
        <time>2015-03-16T08:21:58Z</time>
      </trkpt>
      <trkpt lat="47.0339" lon="-0.85753">
        <ele>70</ele>
        <time>2015-03-16T08:22:01Z</time>
      </trkpt>
      <trkpt lat="47.03388" lon="-0.8575">
        <ele>70</ele>
        <time>2015-03-16T08:22:03Z</time>
      </trkpt>
      <trkpt lat="47.03387" lon="-0.85747">
        <ele>70</ele>
        <time>2015-03-16T08:22:06Z</time>
      </trkpt>
      <trkpt lat="47.03387" lon="-0.85746">
        <ele>70</ele>
        <time>2015-03-16T08:22:08Z</time>
      </trkpt>
      <trkpt lat="47.03385" lon="-0.85742">
        <ele>70</ele>
        <time>2015-03-16T08:22:11Z</time>
      </trkpt>
      <trkpt lat="47.03384" lon="-0.85739">
        <ele>70</ele>
        <time>2015-03-16T08:22:14Z</time>
      </trkpt>
      <trkpt lat="47.03379" lon="-0.85738">
        <ele>70</ele>
        <time>2015-03-16T08:22:16Z</time>
      </trkpt>
      <trkpt lat="47.03375" lon="-0.85736">
        <ele>70</ele>
        <time>2015-03-16T08:22:18Z</time>
      </trkpt>
      <trkpt lat="47.03374" lon="-0.85737">
        <ele>70</ele>
        <time>2015-03-16T08:22:20Z</time>
      </trkpt>
      <trkpt lat="47.03373" lon="-0.85739">
        <ele>70</ele>
        <time>2015-03-16T08:22:22Z</time>
      </trkpt>
      <trkpt lat="47.0337" lon="-0.85739">
        <ele>70</ele>
        <time>2015-03-16T08:22:24Z</time>
      </trkpt>
      <trkpt lat="47.03368" lon="-0.85738">
        <ele>70</ele>
        <time>2015-03-16T08:22:26Z</time>
      </trkpt>
      <trkpt lat="47.03365" lon="-0.85738">
        <ele>70</ele>
        <time>2015-03-16T08:22:29Z</time>
      </trkpt>
      <trkpt lat="47.03362" lon="-0.85738">
        <ele>70</ele>
        <time>2015-03-16T08:22:31Z</time>
      </trkpt>
      <trkpt lat="47.03359" lon="-0.85739">
        <ele>70</ele>
        <time>2015-03-16T08:22:33Z</time>
      </trkpt>
      <trkpt lat="47.03356" lon="-0.85739">
        <ele>70</ele>
        <time>2015-03-16T08:22:36Z</time>
      </trkpt>
      <trkpt lat="47.03353" lon="-0.85739">
        <ele>70</ele>
        <time>2015-03-16T08:22:38Z</time>
      </trkpt>
      <trkpt lat="47.03351" lon="-0.8574">
        <ele>70</ele>
        <time>2015-03-16T08:22:40Z</time>
      </trkpt>
      <trkpt lat="47.03348" lon="-0.85741">
        <ele>70</ele>
        <time>2015-03-16T08:22:42Z</time>
      </trkpt>
      <trkpt lat="47.03345" lon="-0.85742">
        <ele>70</ele>
        <time>2015-03-16T08:22:44Z</time>
      </trkpt>
      <trkpt lat="47.03342" lon="-0.85742">
        <ele>70</ele>
        <time>2015-03-16T08:22:46Z</time>
      </trkpt>
      <trkpt lat="47.0334" lon="-0.85744">
        <ele>70</ele>
        <time>2015-03-16T08:22:48Z</time>
      </trkpt>
      <trkpt lat="47.03337" lon="-0.85745">
        <ele>70</ele>
        <time>2015-03-16T08:22:50Z</time>
      </trkpt>
      <trkpt lat="47.03334" lon="-0.85743">
        <ele>70</ele>
        <time>2015-03-16T08:22:53Z</time>
      </trkpt>
      <trkpt lat="47.03332" lon="-0.8574">
        <ele>70</ele>
        <time>2015-03-16T08:22:55Z</time>
      </trkpt>
      <trkpt lat="47.03332" lon="-0.85737">
        <ele>70</ele>
        <time>2015-03-16T08:22:57Z</time>
      </trkpt>
      <trkpt lat="47.03333" lon="-0.85734">
        <ele>70</ele>
        <time>2015-03-16T08:22:59Z</time>
      </trkpt>
      <trkpt lat="47.03333" lon="-0.85731">
        <ele>69</ele>
        <time>2015-03-16T08:23:01Z</time>
      </trkpt>
      <trkpt lat="47.03334" lon="-0.85728">
        <ele>68</ele>
        <time>2015-03-16T08:23:03Z</time>
      </trkpt>
      <trkpt lat="47.03335" lon="-0.85725">
        <ele>67</ele>
        <time>2015-03-16T08:23:05Z</time>
      </trkpt>
      <trkpt lat="47.03335" lon="-0.85721">
        <ele>67</ele>
        <time>2015-03-16T08:23:07Z</time>
      </trkpt>
      <trkpt lat="47.03336" lon="-0.85717">
        <ele>67</ele>
        <time>2015-03-16T08:23:09Z</time>
      </trkpt>
      <trkpt lat="47.03337" lon="-0.85714">
        <ele>67</ele>
        <time>2015-03-16T08:23:11Z</time>
      </trkpt>
      <trkpt lat="47.03338" lon="-0.8571">
        <ele>67</ele>
        <time>2015-03-16T08:23:13Z</time>
      </trkpt>
      <trkpt lat="47.03339" lon="-0.85707">
        <ele>67</ele>
        <time>2015-03-16T08:23:15Z</time>
      </trkpt>
      <trkpt lat="47.0334" lon="-0.85703">
        <ele>67</ele>
        <time>2015-03-16T08:23:17Z</time>
      </trkpt>
      <trkpt lat="47.03341" lon="-0.857">
        <ele>67</ele>
        <time>2015-03-16T08:23:19Z</time>
      </trkpt>
      <trkpt lat="47.03341" lon="-0.85696">
        <ele>67</ele>
        <time>2015-03-16T08:23:21Z</time>
      </trkpt>
      <trkpt lat="47.03342" lon="-0.85692">
        <ele>67</ele>
        <time>2015-03-16T08:23:23Z</time>
      </trkpt>
      <trkpt lat="47.03342" lon="-0.85688">
        <ele>67</ele>
        <time>2015-03-16T08:23:25Z</time>
      </trkpt>
      <trkpt lat="47.03343" lon="-0.85684">
        <ele>67</ele>
        <time>2015-03-16T08:23:27Z</time>
      </trkpt>
      <trkpt lat="47.03344" lon="-0.8568">
        <ele>67</ele>
        <time>2015-03-16T08:23:29Z</time>
      </trkpt>
      <trkpt lat="47.03344" lon="-0.85676">
        <ele>67</ele>
        <time>2015-03-16T08:23:31Z</time>
      </trkpt>
      <trkpt lat="47.03344" lon="-0.85672">
        <ele>67</ele>
        <time>2015-03-16T08:23:33Z</time>
      </trkpt>
      <trkpt lat="47.03343" lon="-0.85668">
        <ele>67</ele>
        <time>2015-03-16T08:23:35Z</time>
      </trkpt>
      <trkpt lat="47.03342" lon="-0.85664">
        <ele>67</ele>
        <time>2015-03-16T08:23:37Z</time>
      </trkpt>
      <trkpt lat="47.03342" lon="-0.8566">
        <ele>67</ele>
        <time>2015-03-16T08:23:39Z</time>
      </trkpt>
      <trkpt lat="47.03341" lon="-0.85656">
        <ele>67</ele>
        <time>2015-03-16T08:23:41Z</time>
      </trkpt>
      <trkpt lat="47.03341" lon="-0.85652">
        <ele>67</ele>
        <time>2015-03-16T08:23:43Z</time>
      </trkpt>
      <trkpt lat="47.03339" lon="-0.85648">
        <ele>67</ele>
        <time>2015-03-16T08:23:46Z</time>
      </trkpt>
      <trkpt lat="47.03337" lon="-0.85645">
        <ele>67</ele>
        <time>2015-03-16T08:23:48Z</time>
      </trkpt>
      <trkpt lat="47.03335" lon="-0.85641">
        <ele>67</ele>
        <time>2015-03-16T08:23:50Z</time>
      </trkpt>
      <trkpt lat="47.03333" lon="-0.85639">
        <ele>67</ele>
        <time>2015-03-16T08:23:52Z</time>
      </trkpt>
      <trkpt lat="47.0333" lon="-0.85637">
        <ele>67</ele>
        <time>2015-03-16T08:23:54Z</time>
      </trkpt>
      <trkpt lat="47.03328" lon="-0.85635">
        <ele>67</ele>
        <time>2015-03-16T08:23:56Z</time>
      </trkpt>
      <trkpt lat="47.03326" lon="-0.85634">
        <ele>67</ele>
        <time>2015-03-16T08:23:58Z</time>
      </trkpt>
      <trkpt lat="47.03323" lon="-0.85632">
        <ele>67</ele>
        <time>2015-03-16T08:24:00Z</time>
      </trkpt>
      <trkpt lat="47.03321" lon="-0.85632">
        <ele>67</ele>
        <time>2015-03-16T08:24:02Z</time>
      </trkpt>
      <trkpt lat="47.03318" lon="-0.85632">
        <ele>67</ele>
        <time>2015-03-16T08:24:04Z</time>
      </trkpt>
      <trkpt lat="47.03316" lon="-0.85633">
        <ele>67</ele>
        <time>2015-03-16T08:24:06Z</time>
      </trkpt>
      <trkpt lat="47.03312" lon="-0.85635">
        <ele>67</ele>
        <time>2015-03-16T08:24:09Z</time>
      </trkpt>
      <trkpt lat="47.03309" lon="-0.85636">
        <ele>67</ele>
        <time>2015-03-16T08:24:11Z</time>
      </trkpt>
      <trkpt lat="47.03307" lon="-0.85637">
        <ele>67</ele>
        <time>2015-03-16T08:24:13Z</time>
      </trkpt>
      <trkpt lat="47.03304" lon="-0.85637">
        <ele>67</ele>
        <time>2015-03-16T08:24:15Z</time>
      </trkpt>
      <trkpt lat="47.03301" lon="-0.85636">
        <ele>67</ele>
        <time>2015-03-16T08:24:17Z</time>
      </trkpt>
      <trkpt lat="47.03299" lon="-0.85636">
        <ele>67</ele>
        <time>2015-03-16T08:24:19Z</time>
      </trkpt>
      <trkpt lat="47.03296" lon="-0.85634">
        <ele>67</ele>
        <time>2015-03-16T08:24:21Z</time>
      </trkpt>
      <trkpt lat="47.03294" lon="-0.8563">
        <ele>67</ele>
        <time>2015-03-16T08:24:24Z</time>
      </trkpt>
      <trkpt lat="47.03292" lon="-0.85628">
        <ele>67</ele>
        <time>2015-03-16T08:24:26Z</time>
      </trkpt>
      <trkpt lat="47.03291" lon="-0.85625">
        <ele>67</ele>
        <time>2015-03-16T08:24:28Z</time>
      </trkpt>
      <trkpt lat="47.03289" lon="-0.85622">
        <ele>67</ele>
        <time>2015-03-16T08:24:30Z</time>
      </trkpt>
      <trkpt lat="47.03288" lon="-0.85619">
        <ele>67</ele>
        <time>2015-03-16T08:24:32Z</time>
      </trkpt>
      <trkpt lat="47.03287" lon="-0.85617">
        <ele>66</ele>
        <time>2015-03-16T08:24:34Z</time>
      </trkpt>
      <trkpt lat="47.03285" lon="-0.85614">
        <ele>64</ele>
        <time>2015-03-16T08:24:36Z</time>
      </trkpt>
      <trkpt lat="47.03285" lon="-0.85609">
        <ele>62</ele>
        <time>2015-03-16T08:24:38Z</time>
      </trkpt>
      <trkpt lat="47.03286" lon="-0.85606">
        <ele>60</ele>
        <time>2015-03-16T08:24:40Z</time>
      </trkpt>
      <trkpt lat="47.03283" lon="-0.85605">
        <ele>59</ele>
        <time>2015-03-16T08:24:43Z</time>
      </trkpt>
      <trkpt lat="47.03281" lon="-0.85604">
        <ele>58</ele>
        <time>2015-03-16T08:24:45Z</time>
      </trkpt>
      <trkpt lat="47.03277" lon="-0.85601">
        <ele>58</ele>
        <time>2015-03-16T08:24:47Z</time>
      </trkpt>
      <trkpt lat="47.03273" lon="-0.85598">
        <ele>58</ele>
        <time>2015-03-16T08:24:49Z</time>
      </trkpt>
      <trkpt lat="47.0327" lon="-0.85597">
        <ele>58</ele>
        <time>2015-03-16T08:24:51Z</time>
      </trkpt>
      <trkpt lat="47.03266" lon="-0.85594">
        <ele>58</ele>
        <time>2015-03-16T08:24:53Z</time>
      </trkpt>
      <trkpt lat="47.03263" lon="-0.85592">
        <ele>59</ele>
        <time>2015-03-16T08:24:55Z</time>
      </trkpt>
      <trkpt lat="47.03261" lon="-0.8559">
        <ele>60</ele>
        <time>2015-03-16T08:24:57Z</time>
      </trkpt>
      <trkpt lat="47.03258" lon="-0.85588">
        <ele>61</ele>
        <time>2015-03-16T08:24:59Z</time>
      </trkpt>
      <trkpt lat="47.03255" lon="-0.85584">
        <ele>61</ele>
        <time>2015-03-16T08:25:02Z</time>
      </trkpt>
      <trkpt lat="47.03253" lon="-0.85582">
        <ele>62</ele>
        <time>2015-03-16T08:25:04Z</time>
      </trkpt>
      <trkpt lat="47.03251" lon="-0.8558">
        <ele>62</ele>
        <time>2015-03-16T08:25:06Z</time>
      </trkpt>
      <trkpt lat="47.0325" lon="-0.85577">
        <ele>62</ele>
        <time>2015-03-16T08:25:08Z</time>
      </trkpt>
      <trkpt lat="47.0325" lon="-0.85575">
        <ele>62</ele>
        <time>2015-03-16T08:25:10Z</time>
      </trkpt>
      <trkpt lat="47.03249" lon="-0.85572">
        <ele>62</ele>
        <time>2015-03-16T08:25:12Z</time>
      </trkpt>
      <trkpt lat="47.03248" lon="-0.85568">
        <ele>62</ele>
        <time>2015-03-16T08:25:14Z</time>
      </trkpt>
      <trkpt lat="47.03246" lon="-0.85565">
        <ele>62</ele>
        <time>2015-03-16T08:25:16Z</time>
      </trkpt>
      <trkpt lat="47.03244" lon="-0.85562">
        <ele>62</ele>
        <time>2015-03-16T08:25:18Z</time>
      </trkpt>
      <trkpt lat="47.03243" lon="-0.85557">
        <ele>62</ele>
        <time>2015-03-16T08:25:20Z</time>
      </trkpt>
      <trkpt lat="47.03243" lon="-0.85553">
        <ele>62</ele>
        <time>2015-03-16T08:25:22Z</time>
      </trkpt>
      <trkpt lat="47.03244" lon="-0.85549">
        <ele>62</ele>
        <time>2015-03-16T08:25:25Z</time>
      </trkpt>
      <trkpt lat="47.03245" lon="-0.8555">
        <ele>62</ele>
        <time>2015-03-16T08:25:27Z</time>
      </trkpt>
      <trkpt lat="47.03246" lon="-0.85551">
        <ele>63</ele>
        <time>2015-03-16T08:25:29Z</time>
      </trkpt>
      <trkpt lat="47.03248" lon="-0.85551">
        <ele>63</ele>
        <time>2015-03-16T08:25:31Z</time>
      </trkpt>
      <trkpt lat="47.0325" lon="-0.85553">
        <ele>64</ele>
        <time>2015-03-16T08:25:33Z</time>
      </trkpt>
      <trkpt lat="47.03252" lon="-0.85553">
        <ele>64</ele>
        <time>2015-03-16T08:25:36Z</time>
      </trkpt>
      <trkpt lat="47.03254" lon="-0.85554">
        <ele>65</ele>
        <time>2015-03-16T08:25:38Z</time>
      </trkpt>
      <trkpt lat="47.03255" lon="-0.85554">
        <ele>65</ele>
        <time>2015-03-16T08:25:40Z</time>
      </trkpt>
      <trkpt lat="47.03257" lon="-0.85555">
        <ele>65</ele>
        <time>2015-03-16T08:25:42Z</time>
      </trkpt>
      <trkpt lat="47.03259" lon="-0.85556">
        <ele>65</ele>
        <time>2015-03-16T08:25:44Z</time>
      </trkpt>
      <trkpt lat="47.03261" lon="-0.85557">
        <ele>66</ele>
        <time>2015-03-16T08:25:46Z</time>
      </trkpt>
      <trkpt lat="47.03263" lon="-0.85558">
        <ele>67</ele>
        <time>2015-03-16T08:25:48Z</time>
      </trkpt>
      <trkpt lat="47.03265" lon="-0.85559">
        <ele>67</ele>
        <time>2015-03-16T08:25:50Z</time>
      </trkpt>
      <trkpt lat="47.03267" lon="-0.8556">
        <ele>68</ele>
        <time>2015-03-16T08:25:52Z</time>
      </trkpt>
      <trkpt lat="47.03269" lon="-0.85561">
        <ele>69</ele>
        <time>2015-03-16T08:25:54Z</time>
      </trkpt>
      <trkpt lat="47.03272" lon="-0.85562">
        <ele>70</ele>
        <time>2015-03-16T08:25:57Z</time>
      </trkpt>
      <trkpt lat="47.03273" lon="-0.85561">
        <ele>71</ele>
        <time>2015-03-16T08:25:59Z</time>
      </trkpt>
      <trkpt lat="47.03274" lon="-0.85558">
        <ele>72</ele>
        <time>2015-03-16T08:26:01Z</time>
      </trkpt>
      <trkpt lat="47.03274" lon="-0.85557">
        <ele>72</ele>
        <time>2015-03-16T08:26:03Z</time>
      </trkpt>
      <trkpt lat="47.03273" lon="-0.85555">
        <ele>72</ele>
        <time>2015-03-16T08:26:05Z</time>
      </trkpt>
      <trkpt lat="47.03272" lon="-0.85553">
        <ele>73</ele>
        <time>2015-03-16T08:26:08Z</time>
      </trkpt>
      <trkpt lat="47.0327" lon="-0.85552">
        <ele>73</ele>
        <time>2015-03-16T08:26:10Z</time>
      </trkpt>
      <trkpt lat="47.03269" lon="-0.8555">
        <ele>74</ele>
        <time>2015-03-16T08:26:12Z</time>
      </trkpt>
      <trkpt lat="47.03268" lon="-0.85547">
        <ele>74</ele>
        <time>2015-03-16T08:26:14Z</time>
      </trkpt>
      <trkpt lat="47.03266" lon="-0.85544">
        <ele>74</ele>
        <time>2015-03-16T08:26:17Z</time>
      </trkpt>
      <trkpt lat="47.03265" lon="-0.85542">
        <ele>74</ele>
        <time>2015-03-16T08:26:19Z</time>
      </trkpt>
      <trkpt lat="47.03263" lon="-0.85541">
        <ele>74</ele>
        <time>2015-03-16T08:26:21Z</time>
      </trkpt>
      <trkpt lat="47.03262" lon="-0.8554">
        <ele>74</ele>
        <time>2015-03-16T08:26:23Z</time>
      </trkpt>
      <trkpt lat="47.0326" lon="-0.85538">
        <ele>74</ele>
        <time>2015-03-16T08:26:25Z</time>
      </trkpt>
      <trkpt lat="47.03259" lon="-0.85537">
        <ele>74</ele>
        <time>2015-03-16T08:26:27Z</time>
      </trkpt>
      <trkpt lat="47.03257" lon="-0.85535">
        <ele>74</ele>
        <time>2015-03-16T08:26:29Z</time>
      </trkpt>
      <trkpt lat="47.03256" lon="-0.85532">
        <ele>74</ele>
        <time>2015-03-16T08:26:31Z</time>
      </trkpt>
      <trkpt lat="47.03256" lon="-0.8553">
        <ele>74</ele>
        <time>2015-03-16T08:26:33Z</time>
      </trkpt>
      <trkpt lat="47.03255" lon="-0.85527">
        <ele>74</ele>
        <time>2015-03-16T08:26:35Z</time>
      </trkpt>
      <trkpt lat="47.03253" lon="-0.85523">
        <ele>74</ele>
        <time>2015-03-16T08:26:37Z</time>
      </trkpt>
      <trkpt lat="47.03251" lon="-0.8552">
        <ele>74</ele>
        <time>2015-03-16T08:26:40Z</time>
      </trkpt>
      <trkpt lat="47.03249" lon="-0.85517">
        <ele>74</ele>
        <time>2015-03-16T08:26:42Z</time>
      </trkpt>
      <trkpt lat="47.03248" lon="-0.85515">
        <ele>74</ele>
        <time>2015-03-16T08:26:44Z</time>
      </trkpt>
      <trkpt lat="47.03246" lon="-0.85512">
        <ele>74</ele>
        <time>2015-03-16T08:26:46Z</time>
      </trkpt>
      <trkpt lat="47.03243" lon="-0.85509">
        <ele>75</ele>
        <time>2015-03-16T08:26:49Z</time>
      </trkpt>
      <trkpt lat="47.03241" lon="-0.85505">
        <ele>75</ele>
        <time>2015-03-16T08:26:51Z</time>
      </trkpt>
      <trkpt lat="47.03241" lon="-0.85503">
        <ele>76</ele>
        <time>2015-03-16T08:26:53Z</time>
      </trkpt>
      <trkpt lat="47.03241" lon="-0.855">
        <ele>77</ele>
        <time>2015-03-16T08:26:55Z</time>
      </trkpt>
      <trkpt lat="47.03241" lon="-0.85496">
        <ele>77</ele>
        <time>2015-03-16T08:26:57Z</time>
      </trkpt>
      <trkpt lat="47.03241" lon="-0.85492">
        <ele>78</ele>
        <time>2015-03-16T08:26:59Z</time>
      </trkpt>
      <trkpt lat="47.03242" lon="-0.8549">
        <ele>78</ele>
        <time>2015-03-16T08:27:01Z</time>
      </trkpt>
      <trkpt lat="47.03244" lon="-0.85485">
        <ele>79</ele>
        <time>2015-03-16T08:27:04Z</time>
      </trkpt>
      <trkpt lat="47.03245" lon="-0.85481">
        <ele>80</ele>
        <time>2015-03-16T08:27:07Z</time>
      </trkpt>
      <trkpt lat="47.03245" lon="-0.85478">
        <ele>81</ele>
        <time>2015-03-16T08:27:09Z</time>
      </trkpt>
      <trkpt lat="47.03247" lon="-0.85474">
        <ele>81</ele>
        <time>2015-03-16T08:27:12Z</time>
      </trkpt>
      <trkpt lat="47.03248" lon="-0.85471">
        <ele>81</ele>
        <time>2015-03-16T08:27:14Z</time>
      </trkpt>
      <trkpt lat="47.03249" lon="-0.85468">
        <ele>81</ele>
        <time>2015-03-16T08:27:16Z</time>
      </trkpt>
      <trkpt lat="47.0325" lon="-0.85464">
        <ele>82</ele>
        <time>2015-03-16T08:27:19Z</time>
      </trkpt>
      <trkpt lat="47.03251" lon="-0.85461">
        <ele>82</ele>
        <time>2015-03-16T08:27:21Z</time>
      </trkpt>
      <trkpt lat="47.03252" lon="-0.85458">
        <ele>82</ele>
        <time>2015-03-16T08:27:23Z</time>
      </trkpt>
      <trkpt lat="47.03253" lon="-0.85455">
        <ele>82</ele>
        <time>2015-03-16T08:27:25Z</time>
      </trkpt>
      <trkpt lat="47.03254" lon="-0.85452">
        <ele>82</ele>
        <time>2015-03-16T08:27:27Z</time>
      </trkpt>
      <trkpt lat="47.03256" lon="-0.85448">
        <ele>82</ele>
        <time>2015-03-16T08:27:30Z</time>
      </trkpt>
      <trkpt lat="47.03257" lon="-0.85445">
        <ele>82</ele>
        <time>2015-03-16T08:27:32Z</time>
      </trkpt>
      <trkpt lat="47.03258" lon="-0.85441">
        <ele>82</ele>
        <time>2015-03-16T08:27:34Z</time>
      </trkpt>
      <trkpt lat="47.03258" lon="-0.85438">
        <ele>82</ele>
        <time>2015-03-16T08:27:36Z</time>
      </trkpt>
      <trkpt lat="47.03259" lon="-0.85434">
        <ele>82</ele>
        <time>2015-03-16T08:27:38Z</time>
      </trkpt>
      <trkpt lat="47.0326" lon="-0.8543">
        <ele>82</ele>
        <time>2015-03-16T08:27:40Z</time>
      </trkpt>
      <trkpt lat="47.0326" lon="-0.85426">
        <ele>82</ele>
        <time>2015-03-16T08:27:42Z</time>
      </trkpt>
      <trkpt lat="47.03261" lon="-0.85422">
        <ele>83</ele>
        <time>2015-03-16T08:27:44Z</time>
      </trkpt>
      <trkpt lat="47.03262" lon="-0.85419">
        <ele>83</ele>
        <time>2015-03-16T08:27:46Z</time>
      </trkpt>
      <trkpt lat="47.03262" lon="-0.85414">
        <ele>84</ele>
        <time>2015-03-16T08:27:49Z</time>
      </trkpt>
      <trkpt lat="47.03263" lon="-0.85409">
        <ele>85</ele>
        <time>2015-03-16T08:27:51Z</time>
      </trkpt>
      <trkpt lat="47.03264" lon="-0.85404">
        <ele>86</ele>
        <time>2015-03-16T08:27:53Z</time>
      </trkpt>
      <trkpt lat="47.03265" lon="-0.85401">
        <ele>86</ele>
        <time>2015-03-16T08:27:55Z</time>
      </trkpt>
      <trkpt lat="47.03265" lon="-0.85398">
        <ele>86</ele>
        <time>2015-03-16T08:27:57Z</time>
      </trkpt>
      <trkpt lat="47.03266" lon="-0.85394">
        <ele>86</ele>
        <time>2015-03-16T08:27:59Z</time>
      </trkpt>
      <trkpt lat="47.03267" lon="-0.8539">
        <ele>86</ele>
        <time>2015-03-16T08:28:01Z</time>
      </trkpt>
      <trkpt lat="47.03268" lon="-0.85387">
        <ele>86</ele>
        <time>2015-03-16T08:28:03Z</time>
      </trkpt>
      <trkpt lat="47.03269" lon="-0.85382">
        <ele>86</ele>
        <time>2015-03-16T08:28:05Z</time>
      </trkpt>
      <trkpt lat="47.0327" lon="-0.85378">
        <ele>87</ele>
        <time>2015-03-16T08:28:07Z</time>
      </trkpt>
      <trkpt lat="47.0327" lon="-0.85376">
        <ele>87</ele>
        <time>2015-03-16T08:28:09Z</time>
      </trkpt>
      <trkpt lat="47.03271" lon="-0.85372">
        <ele>87</ele>
        <time>2015-03-16T08:28:11Z</time>
      </trkpt>
      <trkpt lat="47.03272" lon="-0.85369">
        <ele>87</ele>
        <time>2015-03-16T08:28:13Z</time>
      </trkpt>
      <trkpt lat="47.03272" lon="-0.85365">
        <ele>87</ele>
        <time>2015-03-16T08:28:15Z</time>
      </trkpt>
      <trkpt lat="47.03273" lon="-0.85361">
        <ele>87</ele>
        <time>2015-03-16T08:28:17Z</time>
      </trkpt>
      <trkpt lat="47.03274" lon="-0.85358">
        <ele>88</ele>
        <time>2015-03-16T08:28:19Z</time>
      </trkpt>
      <trkpt lat="47.03275" lon="-0.85354">
        <ele>88</ele>
        <time>2015-03-16T08:28:21Z</time>
      </trkpt>
      <trkpt lat="47.03275" lon="-0.85351">
        <ele>88</ele>
        <time>2015-03-16T08:28:23Z</time>
      </trkpt>
      <trkpt lat="47.03276" lon="-0.85348">
        <ele>88</ele>
        <time>2015-03-16T08:28:25Z</time>
      </trkpt>
      <trkpt lat="47.03277" lon="-0.85343">
        <ele>88</ele>
        <time>2015-03-16T08:28:28Z</time>
      </trkpt>
      <trkpt lat="47.03278" lon="-0.8534">
        <ele>88</ele>
        <time>2015-03-16T08:28:30Z</time>
      </trkpt>
      <trkpt lat="47.03279" lon="-0.85336">
        <ele>88</ele>
        <time>2015-03-16T08:28:32Z</time>
      </trkpt>
      <trkpt lat="47.0328" lon="-0.85333">
        <ele>88</ele>
        <time>2015-03-16T08:28:34Z</time>
      </trkpt>
      <trkpt lat="47.03281" lon="-0.85329">
        <ele>88</ele>
        <time>2015-03-16T08:28:36Z</time>
      </trkpt>
      <trkpt lat="47.03282" lon="-0.85325">
        <ele>88</ele>
        <time>2015-03-16T08:28:38Z</time>
      </trkpt>
      <trkpt lat="47.03283" lon="-0.85322">
        <ele>88</ele>
        <time>2015-03-16T08:28:40Z</time>
      </trkpt>
      <trkpt lat="47.03283" lon="-0.85319">
        <ele>88</ele>
        <time>2015-03-16T08:28:42Z</time>
      </trkpt>
      <trkpt lat="47.03284" lon="-0.85315">
        <ele>88</ele>
        <time>2015-03-16T08:28:44Z</time>
      </trkpt>
      <trkpt lat="47.03284" lon="-0.85312">
        <ele>88</ele>
        <time>2015-03-16T08:28:46Z</time>
      </trkpt>
      <trkpt lat="47.03286" lon="-0.85308">
        <ele>88</ele>
        <time>2015-03-16T08:28:48Z</time>
      </trkpt>
      <trkpt lat="47.03286" lon="-0.85305">
        <ele>88</ele>
        <time>2015-03-16T08:28:50Z</time>
      </trkpt>
      <trkpt lat="47.03287" lon="-0.85301">
        <ele>88</ele>
        <time>2015-03-16T08:28:52Z</time>
      </trkpt>
      <trkpt lat="47.03287" lon="-0.85298">
        <ele>88</ele>
        <time>2015-03-16T08:28:54Z</time>
      </trkpt>
      <trkpt lat="47.03288" lon="-0.85295">
        <ele>89</ele>
        <time>2015-03-16T08:28:56Z</time>
      </trkpt>
      <trkpt lat="47.03289" lon="-0.85292">
        <ele>89</ele>
        <time>2015-03-16T08:28:58Z</time>
      </trkpt>
      <trkpt lat="47.03289" lon="-0.85289">
        <ele>89</ele>
        <time>2015-03-16T08:29:00Z</time>
      </trkpt>
      <trkpt lat="47.0329" lon="-0.85285">
        <ele>89</ele>
        <time>2015-03-16T08:29:02Z</time>
      </trkpt>
      <trkpt lat="47.0329" lon="-0.85281">
        <ele>89</ele>
        <time>2015-03-16T08:29:04Z</time>
      </trkpt>
      <trkpt lat="47.03292" lon="-0.85276">
        <ele>89</ele>
        <time>2015-03-16T08:29:07Z</time>
      </trkpt>
      <trkpt lat="47.03293" lon="-0.85272">
        <ele>89</ele>
        <time>2015-03-16T08:29:09Z</time>
      </trkpt>
      <trkpt lat="47.03294" lon="-0.85269">
        <ele>89</ele>
        <time>2015-03-16T08:29:11Z</time>
      </trkpt>
      <trkpt lat="47.03294" lon="-0.85264">
        <ele>89</ele>
        <time>2015-03-16T08:29:13Z</time>
      </trkpt>
      <trkpt lat="47.03294" lon="-0.85261">
        <ele>89</ele>
        <time>2015-03-16T08:29:15Z</time>
      </trkpt>
      <trkpt lat="47.03292" lon="-0.85257">
        <ele>89</ele>
        <time>2015-03-16T08:29:17Z</time>
      </trkpt>
      <trkpt lat="47.0329" lon="-0.85254">
        <ele>89</ele>
        <time>2015-03-16T08:29:20Z</time>
      </trkpt>
      <trkpt lat="47.03288" lon="-0.85252">
        <ele>89</ele>
        <time>2015-03-16T08:29:22Z</time>
      </trkpt>
      <trkpt lat="47.03285" lon="-0.8525">
        <ele>89</ele>
        <time>2015-03-16T08:29:24Z</time>
      </trkpt>
      <trkpt lat="47.03283" lon="-0.85249">
        <ele>89</ele>
        <time>2015-03-16T08:29:26Z</time>
      </trkpt>
      <trkpt lat="47.03281" lon="-0.85247">
        <ele>89</ele>
        <time>2015-03-16T08:29:28Z</time>
      </trkpt>
      <trkpt lat="47.03279" lon="-0.85246">
        <ele>89</ele>
        <time>2015-03-16T08:29:30Z</time>
      </trkpt>
      <trkpt lat="47.03277" lon="-0.85245">
        <ele>89</ele>
        <time>2015-03-16T08:29:32Z</time>
      </trkpt>
      <trkpt lat="47.03275" lon="-0.85242">
        <ele>89</ele>
        <time>2015-03-16T08:29:34Z</time>
      </trkpt>
      <trkpt lat="47.03272" lon="-0.8524">
        <ele>89</ele>
        <time>2015-03-16T08:29:36Z</time>
      </trkpt>
      <trkpt lat="47.03269" lon="-0.85238">
        <ele>89</ele>
        <time>2015-03-16T08:29:38Z</time>
      </trkpt>
      <trkpt lat="47.03267" lon="-0.85237">
        <ele>89</ele>
        <time>2015-03-16T08:29:40Z</time>
      </trkpt>
      <trkpt lat="47.03263" lon="-0.85235">
        <ele>89</ele>
        <time>2015-03-16T08:29:43Z</time>
      </trkpt>
      <trkpt lat="47.03261" lon="-0.85234">
        <ele>89</ele>
        <time>2015-03-16T08:29:45Z</time>
      </trkpt>
      <trkpt lat="47.03259" lon="-0.85232">
        <ele>89</ele>
        <time>2015-03-16T08:29:47Z</time>
      </trkpt>
      <trkpt lat="47.03255" lon="-0.8523">
        <ele>89</ele>
        <time>2015-03-16T08:29:50Z</time>
      </trkpt>
      <trkpt lat="47.03253" lon="-0.85229">
        <ele>89</ele>
        <time>2015-03-16T08:29:52Z</time>
      </trkpt>
      <trkpt lat="47.0325" lon="-0.85228">
        <ele>89</ele>
        <time>2015-03-16T08:29:54Z</time>
      </trkpt>
      <trkpt lat="47.03248" lon="-0.85226">
        <ele>89</ele>
        <time>2015-03-16T08:29:56Z</time>
      </trkpt>
      <trkpt lat="47.03245" lon="-0.85225">
        <ele>89</ele>
        <time>2015-03-16T08:29:58Z</time>
      </trkpt>
      <trkpt lat="47.03242" lon="-0.85224">
        <ele>89</ele>
        <time>2015-03-16T08:30:00Z</time>
      </trkpt>
      <trkpt lat="47.0324" lon="-0.85223">
        <ele>89</ele>
        <time>2015-03-16T08:30:02Z</time>
      </trkpt>
      <trkpt lat="47.03237" lon="-0.85221">
        <ele>89</ele>
        <time>2015-03-16T08:30:04Z</time>
      </trkpt>
      <trkpt lat="47.03234" lon="-0.8522">
        <ele>89</ele>
        <time>2015-03-16T08:30:06Z</time>
      </trkpt>
      <trkpt lat="47.03232" lon="-0.85219">
        <ele>89</ele>
        <time>2015-03-16T08:30:08Z</time>
      </trkpt>
      <trkpt lat="47.03229" lon="-0.85217">
        <ele>89</ele>
        <time>2015-03-16T08:30:10Z</time>
      </trkpt>
      <trkpt lat="47.03227" lon="-0.85216">
        <ele>89</ele>
        <time>2015-03-16T08:30:12Z</time>
      </trkpt>
      <trkpt lat="47.03224" lon="-0.85215">
        <ele>89</ele>
        <time>2015-03-16T08:30:14Z</time>
      </trkpt>
      <trkpt lat="47.03221" lon="-0.85213">
        <ele>89</ele>
        <time>2015-03-16T08:30:16Z</time>
      </trkpt>
      <trkpt lat="47.03218" lon="-0.85212">
        <ele>89</ele>
        <time>2015-03-16T08:30:18Z</time>
      </trkpt>
      <trkpt lat="47.03216" lon="-0.85211">
        <ele>89</ele>
        <time>2015-03-16T08:30:20Z</time>
      </trkpt>
      <trkpt lat="47.03213" lon="-0.8521">
        <ele>89</ele>
        <time>2015-03-16T08:30:22Z</time>
      </trkpt>
      <trkpt lat="47.0321" lon="-0.85209">
        <ele>89</ele>
        <time>2015-03-16T08:30:24Z</time>
      </trkpt>
      <trkpt lat="47.03208" lon="-0.85208">
        <ele>89</ele>
        <time>2015-03-16T08:30:26Z</time>
      </trkpt>
      <trkpt lat="47.03205" lon="-0.85207">
        <ele>89</ele>
        <time>2015-03-16T08:30:28Z</time>
      </trkpt>
      <trkpt lat="47.03203" lon="-0.85206">
        <ele>89</ele>
        <time>2015-03-16T08:30:30Z</time>
      </trkpt>
      <trkpt lat="47.032" lon="-0.85206">
        <ele>89</ele>
        <time>2015-03-16T08:30:32Z</time>
      </trkpt>
      <trkpt lat="47.03198" lon="-0.85205">
        <ele>89</ele>
        <time>2015-03-16T08:30:34Z</time>
      </trkpt>
      <trkpt lat="47.03196" lon="-0.85204">
        <ele>89</ele>
        <time>2015-03-16T08:30:36Z</time>
      </trkpt>
      <trkpt lat="47.03193" lon="-0.852">
        <ele>89</ele>
        <time>2015-03-16T08:30:39Z</time>
      </trkpt>
      <trkpt lat="47.03192" lon="-0.85196">
        <ele>89</ele>
        <time>2015-03-16T08:30:41Z</time>
      </trkpt>
      <trkpt lat="47.03191" lon="-0.85193">
        <ele>89</ele>
        <time>2015-03-16T08:30:43Z</time>
      </trkpt>
      <trkpt lat="47.03188" lon="-0.85189">
        <ele>89</ele>
        <time>2015-03-16T08:30:46Z</time>
      </trkpt>
      <trkpt lat="47.03186" lon="-0.85187">
        <ele>89</ele>
        <time>2015-03-16T08:30:48Z</time>
      </trkpt>
      <trkpt lat="47.03184" lon="-0.85186">
        <ele>89</ele>
        <time>2015-03-16T08:30:50Z</time>
      </trkpt>
      <trkpt lat="47.03181" lon="-0.85185">
        <ele>89</ele>
        <time>2015-03-16T08:30:52Z</time>
      </trkpt>
      <trkpt lat="47.03178" lon="-0.85185">
        <ele>89</ele>
        <time>2015-03-16T08:30:54Z</time>
      </trkpt>
      <trkpt lat="47.03175" lon="-0.85185">
        <ele>89</ele>
        <time>2015-03-16T08:30:56Z</time>
      </trkpt>
      <trkpt lat="47.03173" lon="-0.85184">
        <ele>90</ele>
        <time>2015-03-16T08:30:58Z</time>
      </trkpt>
      <trkpt lat="47.0317" lon="-0.85184">
        <ele>90</ele>
        <time>2015-03-16T08:31:00Z</time>
      </trkpt>
      <trkpt lat="47.03168" lon="-0.85184">
        <ele>90</ele>
        <time>2015-03-16T08:31:02Z</time>
      </trkpt>
      <trkpt lat="47.03165" lon="-0.85184">
        <ele>90</ele>
        <time>2015-03-16T08:31:04Z</time>
      </trkpt>
      <trkpt lat="47.03163" lon="-0.85184">
        <ele>90</ele>
        <time>2015-03-16T08:31:06Z</time>
      </trkpt>
      <trkpt lat="47.0316" lon="-0.85184">
        <ele>90</ele>
        <time>2015-03-16T08:31:08Z</time>
      </trkpt>
      <trkpt lat="47.03158" lon="-0.85184">
        <ele>90</ele>
        <time>2015-03-16T08:31:10Z</time>
      </trkpt>
      <trkpt lat="47.03156" lon="-0.85183">
        <ele>90</ele>
        <time>2015-03-16T08:31:12Z</time>
      </trkpt>
      <trkpt lat="47.03153" lon="-0.85183">
        <ele>90</ele>
        <time>2015-03-16T08:31:14Z</time>
      </trkpt>
      <trkpt lat="47.0315" lon="-0.85184">
        <ele>90</ele>
        <time>2015-03-16T08:31:16Z</time>
      </trkpt>
      <trkpt lat="47.03147" lon="-0.85184">
        <ele>90</ele>
        <time>2015-03-16T08:31:18Z</time>
      </trkpt>
      <trkpt lat="47.03144" lon="-0.85183">
        <ele>90</ele>
        <time>2015-03-16T08:31:20Z</time>
      </trkpt>
      <trkpt lat="47.03141" lon="-0.85182">
        <ele>90</ele>
        <time>2015-03-16T08:31:22Z</time>
      </trkpt>
      <trkpt lat="47.03138" lon="-0.85182">
        <ele>90</ele>
        <time>2015-03-16T08:31:24Z</time>
      </trkpt>
      <trkpt lat="47.03135" lon="-0.85182">
        <ele>91</ele>
        <time>2015-03-16T08:31:26Z</time>
      </trkpt>
      <trkpt lat="47.03133" lon="-0.85182">
        <ele>91</ele>
        <time>2015-03-16T08:31:28Z</time>
      </trkpt>
      <trkpt lat="47.0313" lon="-0.85182">
        <ele>91</ele>
        <time>2015-03-16T08:31:30Z</time>
      </trkpt>
      <trkpt lat="47.03127" lon="-0.85182">
        <ele>92</ele>
        <time>2015-03-16T08:31:32Z</time>
      </trkpt>
      <trkpt lat="47.03124" lon="-0.85182">
        <ele>92</ele>
        <time>2015-03-16T08:31:34Z</time>
      </trkpt>
      <trkpt lat="47.03121" lon="-0.85182">
        <ele>92</ele>
        <time>2015-03-16T08:31:36Z</time>
      </trkpt>
      <trkpt lat="47.03119" lon="-0.85182">
        <ele>92</ele>
        <time>2015-03-16T08:31:38Z</time>
      </trkpt>
      <trkpt lat="47.03116" lon="-0.85182">
        <ele>92</ele>
        <time>2015-03-16T08:31:40Z</time>
      </trkpt>
      <trkpt lat="47.03113" lon="-0.85183">
        <ele>92</ele>
        <time>2015-03-16T08:31:42Z</time>
      </trkpt>
      <trkpt lat="47.0311" lon="-0.85183">
        <ele>92</ele>
        <time>2015-03-16T08:31:44Z</time>
      </trkpt>
      <trkpt lat="47.03108" lon="-0.85184">
        <ele>92</ele>
        <time>2015-03-16T08:31:46Z</time>
      </trkpt>
      <trkpt lat="47.03105" lon="-0.85185">
        <ele>92</ele>
        <time>2015-03-16T08:31:48Z</time>
      </trkpt>
      <trkpt lat="47.03102" lon="-0.85185">
        <ele>92</ele>
        <time>2015-03-16T08:31:50Z</time>
      </trkpt>
      <trkpt lat="47.03099" lon="-0.85186">
        <ele>92</ele>
        <time>2015-03-16T08:31:52Z</time>
      </trkpt>
      <trkpt lat="47.03096" lon="-0.85186">
        <ele>92</ele>
        <time>2015-03-16T08:31:54Z</time>
      </trkpt>
      <trkpt lat="47.03094" lon="-0.85188">
        <ele>92</ele>
        <time>2015-03-16T08:31:56Z</time>
      </trkpt>
      <trkpt lat="47.03091" lon="-0.85189">
        <ele>92</ele>
        <time>2015-03-16T08:31:58Z</time>
      </trkpt>
      <trkpt lat="47.03088" lon="-0.8519">
        <ele>92</ele>
        <time>2015-03-16T08:32:00Z</time>
      </trkpt>
      <trkpt lat="47.03086" lon="-0.8519">
        <ele>92</ele>
        <time>2015-03-16T08:32:02Z</time>
      </trkpt>
      <trkpt lat="47.03083" lon="-0.85191">
        <ele>92</ele>
        <time>2015-03-16T08:32:04Z</time>
      </trkpt>
      <trkpt lat="47.0308" lon="-0.85192">
        <ele>92</ele>
        <time>2015-03-16T08:32:06Z</time>
      </trkpt>
      <trkpt lat="47.03078" lon="-0.85192">
        <ele>92</ele>
        <time>2015-03-16T08:32:08Z</time>
      </trkpt>
      <trkpt lat="47.03075" lon="-0.85193">
        <ele>92</ele>
        <time>2015-03-16T08:32:10Z</time>
      </trkpt>
      <trkpt lat="47.03072" lon="-0.85193">
        <ele>92</ele>
        <time>2015-03-16T08:32:12Z</time>
      </trkpt>
      <trkpt lat="47.0307" lon="-0.85194">
        <ele>92</ele>
        <time>2015-03-16T08:32:14Z</time>
      </trkpt>
      <trkpt lat="47.03067" lon="-0.85195">
        <ele>92</ele>
        <time>2015-03-16T08:32:16Z</time>
      </trkpt>
      <trkpt lat="47.03064" lon="-0.85195">
        <ele>92</ele>
        <time>2015-03-16T08:32:18Z</time>
      </trkpt>
      <trkpt lat="47.03061" lon="-0.85197">
        <ele>92</ele>
        <time>2015-03-16T08:32:20Z</time>
      </trkpt>
      <trkpt lat="47.03059" lon="-0.85197">
        <ele>92</ele>
        <time>2015-03-16T08:32:22Z</time>
      </trkpt>
      <trkpt lat="47.03056" lon="-0.85198">
        <ele>92</ele>
        <time>2015-03-16T08:32:24Z</time>
      </trkpt>
      <trkpt lat="47.03054" lon="-0.85198">
        <ele>92</ele>
        <time>2015-03-16T08:32:26Z</time>
      </trkpt>
      <trkpt lat="47.03051" lon="-0.85198">
        <ele>92</ele>
        <time>2015-03-16T08:32:28Z</time>
      </trkpt>
      <trkpt lat="47.03048" lon="-0.85198">
        <ele>92</ele>
        <time>2015-03-16T08:32:30Z</time>
      </trkpt>
      <trkpt lat="47.03046" lon="-0.85198">
        <ele>92</ele>
        <time>2015-03-16T08:32:32Z</time>
      </trkpt>
      <trkpt lat="47.03043" lon="-0.85197">
        <ele>92</ele>
        <time>2015-03-16T08:32:34Z</time>
      </trkpt>
      <trkpt lat="47.0304" lon="-0.85197">
        <ele>92</ele>
        <time>2015-03-16T08:32:36Z</time>
      </trkpt>
      <trkpt lat="47.03038" lon="-0.85197">
        <ele>92</ele>
        <time>2015-03-16T08:32:38Z</time>
      </trkpt>
      <trkpt lat="47.03035" lon="-0.85197">
        <ele>92</ele>
        <time>2015-03-16T08:32:40Z</time>
      </trkpt>
      <trkpt lat="47.03032" lon="-0.85197">
        <ele>92</ele>
        <time>2015-03-16T08:32:42Z</time>
      </trkpt>
      <trkpt lat="47.0303" lon="-0.85197">
        <ele>92</ele>
        <time>2015-03-16T08:32:44Z</time>
      </trkpt>
      <trkpt lat="47.03027" lon="-0.85197">
        <ele>92</ele>
        <time>2015-03-16T08:32:46Z</time>
      </trkpt>
      <trkpt lat="47.03025" lon="-0.85195">
        <ele>92</ele>
        <time>2015-03-16T08:32:48Z</time>
      </trkpt>
      <trkpt lat="47.03022" lon="-0.85195">
        <ele>92</ele>
        <time>2015-03-16T08:32:50Z</time>
      </trkpt>
      <trkpt lat="47.03019" lon="-0.85196">
        <ele>92</ele>
        <time>2015-03-16T08:32:52Z</time>
      </trkpt>
      <trkpt lat="47.03017" lon="-0.85196">
        <ele>92</ele>
        <time>2015-03-16T08:32:54Z</time>
      </trkpt>
      <trkpt lat="47.03014" lon="-0.85195">
        <ele>92</ele>
        <time>2015-03-16T08:32:56Z</time>
      </trkpt>
      <trkpt lat="47.03011" lon="-0.85195">
        <ele>92</ele>
        <time>2015-03-16T08:32:58Z</time>
      </trkpt>
      <trkpt lat="47.03009" lon="-0.85195">
        <ele>92</ele>
        <time>2015-03-16T08:33:00Z</time>
      </trkpt>
      <trkpt lat="47.03006" lon="-0.85195">
        <ele>92</ele>
        <time>2015-03-16T08:33:02Z</time>
      </trkpt>
      <trkpt lat="47.03003" lon="-0.85195">
        <ele>92</ele>
        <time>2015-03-16T08:33:04Z</time>
      </trkpt>
      <trkpt lat="47.03001" lon="-0.85194">
        <ele>92</ele>
        <time>2015-03-16T08:33:06Z</time>
      </trkpt>
      <trkpt lat="47.02999" lon="-0.85194">
        <ele>92</ele>
        <time>2015-03-16T08:33:08Z</time>
      </trkpt>
      <trkpt lat="47.02996" lon="-0.85194">
        <ele>92</ele>
        <time>2015-03-16T08:33:10Z</time>
      </trkpt>
      <trkpt lat="47.02994" lon="-0.85194">
        <ele>91</ele>
        <time>2015-03-16T08:33:12Z</time>
      </trkpt>
      <trkpt lat="47.02991" lon="-0.85194">
        <ele>91</ele>
        <time>2015-03-16T08:33:14Z</time>
      </trkpt>
      <trkpt lat="47.02988" lon="-0.85194">
        <ele>91</ele>
        <time>2015-03-16T08:33:16Z</time>
      </trkpt>
      <trkpt lat="47.02986" lon="-0.85194">
        <ele>91</ele>
        <time>2015-03-16T08:33:18Z</time>
      </trkpt>
      <trkpt lat="47.02983" lon="-0.85194">
        <ele>91</ele>
        <time>2015-03-16T08:33:20Z</time>
      </trkpt>
      <trkpt lat="47.02981" lon="-0.85194">
        <ele>91</ele>
        <time>2015-03-16T08:33:22Z</time>
      </trkpt>
      <trkpt lat="47.02979" lon="-0.85193">
        <ele>90</ele>
        <time>2015-03-16T08:33:24Z</time>
      </trkpt>
      <trkpt lat="47.02976" lon="-0.85193">
        <ele>90</ele>
        <time>2015-03-16T08:33:26Z</time>
      </trkpt>
      <trkpt lat="47.02974" lon="-0.85192">
        <ele>90</ele>
        <time>2015-03-16T08:33:28Z</time>
      </trkpt>
      <trkpt lat="47.02972" lon="-0.85192">
        <ele>89</ele>
        <time>2015-03-16T08:33:30Z</time>
      </trkpt>
      <trkpt lat="47.02969" lon="-0.85193">
        <ele>89</ele>
        <time>2015-03-16T08:33:32Z</time>
      </trkpt>
      <trkpt lat="47.02967" lon="-0.85192">
        <ele>89</ele>
        <time>2015-03-16T08:33:34Z</time>
      </trkpt>
      <trkpt lat="47.02964" lon="-0.85192">
        <ele>89</ele>
        <time>2015-03-16T08:33:36Z</time>
      </trkpt>
      <trkpt lat="47.02961" lon="-0.85192">
        <ele>88</ele>
        <time>2015-03-16T08:33:38Z</time>
      </trkpt>
      <trkpt lat="47.02959" lon="-0.85192">
        <ele>88</ele>
        <time>2015-03-16T08:33:40Z</time>
      </trkpt>
      <trkpt lat="47.02956" lon="-0.85191">
        <ele>88</ele>
        <time>2015-03-16T08:33:42Z</time>
      </trkpt>
      <trkpt lat="47.02954" lon="-0.85191">
        <ele>88</ele>
        <time>2015-03-16T08:33:44Z</time>
      </trkpt>
      <trkpt lat="47.02951" lon="-0.85191">
        <ele>88</ele>
        <time>2015-03-16T08:33:46Z</time>
      </trkpt>
      <trkpt lat="47.02949" lon="-0.85191">
        <ele>87</ele>
        <time>2015-03-16T08:33:48Z</time>
      </trkpt>
      <trkpt lat="47.02946" lon="-0.8519">
        <ele>87</ele>
        <time>2015-03-16T08:33:50Z</time>
      </trkpt>
      <trkpt lat="47.02944" lon="-0.8519">
        <ele>87</ele>
        <time>2015-03-16T08:33:52Z</time>
      </trkpt>
      <trkpt lat="47.02942" lon="-0.8519">
        <ele>87</ele>
        <time>2015-03-16T08:33:54Z</time>
      </trkpt>
      <trkpt lat="47.02939" lon="-0.85189">
        <ele>87</ele>
        <time>2015-03-16T08:33:56Z</time>
      </trkpt>
      <trkpt lat="47.02936" lon="-0.85189">
        <ele>86</ele>
        <time>2015-03-16T08:33:58Z</time>
      </trkpt>
      <trkpt lat="47.02934" lon="-0.85189">
        <ele>86</ele>
        <time>2015-03-16T08:34:00Z</time>
      </trkpt>
      <trkpt lat="47.02932" lon="-0.85189">
        <ele>86</ele>
        <time>2015-03-16T08:34:02Z</time>
      </trkpt>
      <trkpt lat="47.02929" lon="-0.8519">
        <ele>86</ele>
        <time>2015-03-16T08:34:04Z</time>
      </trkpt>
      <trkpt lat="47.02925" lon="-0.85189">
        <ele>86</ele>
        <time>2015-03-16T08:34:06Z</time>
      </trkpt>
      <trkpt lat="47.02922" lon="-0.85189">
        <ele>86</ele>
        <time>2015-03-16T08:34:09Z</time>
      </trkpt>
      <trkpt lat="47.0292" lon="-0.85189">
        <ele>86</ele>
        <time>2015-03-16T08:34:11Z</time>
      </trkpt>
      <trkpt lat="47.02917" lon="-0.85189">
        <ele>86</ele>
        <time>2015-03-16T08:34:13Z</time>
      </trkpt>
      <trkpt lat="47.02914" lon="-0.85189">
        <ele>86</ele>
        <time>2015-03-16T08:34:15Z</time>
      </trkpt>
      <trkpt lat="47.02912" lon="-0.85189">
        <ele>86</ele>
        <time>2015-03-16T08:34:17Z</time>
      </trkpt>
      <trkpt lat="47.0291" lon="-0.85188">
        <ele>86</ele>
        <time>2015-03-16T08:34:19Z</time>
      </trkpt>
      <trkpt lat="47.02907" lon="-0.85189">
        <ele>86</ele>
        <time>2015-03-16T08:34:21Z</time>
      </trkpt>
      <trkpt lat="47.02905" lon="-0.85189">
        <ele>86</ele>
        <time>2015-03-16T08:34:23Z</time>
      </trkpt>
      <trkpt lat="47.02903" lon="-0.85188">
        <ele>85</ele>
        <time>2015-03-16T08:34:25Z</time>
      </trkpt>
      <trkpt lat="47.029" lon="-0.85188">
        <ele>85</ele>
        <time>2015-03-16T08:34:27Z</time>
      </trkpt>
      <trkpt lat="47.02896" lon="-0.85188">
        <ele>85</ele>
        <time>2015-03-16T08:34:29Z</time>
      </trkpt>
      <trkpt lat="47.02893" lon="-0.85187">
        <ele>85</ele>
        <time>2015-03-16T08:34:31Z</time>
      </trkpt>
      <trkpt lat="47.0289" lon="-0.85187">
        <ele>85</ele>
        <time>2015-03-16T08:34:33Z</time>
      </trkpt>
      <trkpt lat="47.02887" lon="-0.85188">
        <ele>85</ele>
        <time>2015-03-16T08:34:35Z</time>
      </trkpt>
      <trkpt lat="47.02884" lon="-0.85189">
        <ele>85</ele>
        <time>2015-03-16T08:34:37Z</time>
      </trkpt>
      <trkpt lat="47.02881" lon="-0.85189">
        <ele>85</ele>
        <time>2015-03-16T08:34:39Z</time>
      </trkpt>
      <trkpt lat="47.02879" lon="-0.85189">
        <ele>85</ele>
        <time>2015-03-16T08:34:41Z</time>
      </trkpt>
      <trkpt lat="47.02876" lon="-0.8519">
        <ele>85</ele>
        <time>2015-03-16T08:34:43Z</time>
      </trkpt>
      <trkpt lat="47.02873" lon="-0.85191">
        <ele>85</ele>
        <time>2015-03-16T08:34:45Z</time>
      </trkpt>
      <trkpt lat="47.0287" lon="-0.85192">
        <ele>85</ele>
        <time>2015-03-16T08:34:47Z</time>
      </trkpt>
      <trkpt lat="47.02868" lon="-0.85193">
        <ele>85</ele>
        <time>2015-03-16T08:34:49Z</time>
      </trkpt>
      <trkpt lat="47.02865" lon="-0.85194">
        <ele>85</ele>
        <time>2015-03-16T08:34:51Z</time>
      </trkpt>
      <trkpt lat="47.02862" lon="-0.85194">
        <ele>85</ele>
        <time>2015-03-16T08:34:53Z</time>
      </trkpt>
      <trkpt lat="47.0286" lon="-0.85195">
        <ele>85</ele>
        <time>2015-03-16T08:34:55Z</time>
      </trkpt>
      <trkpt lat="47.02857" lon="-0.85196">
        <ele>85</ele>
        <time>2015-03-16T08:34:57Z</time>
      </trkpt>
      <trkpt lat="47.02855" lon="-0.85197">
        <ele>85</ele>
        <time>2015-03-16T08:34:59Z</time>
      </trkpt>
      <trkpt lat="47.02851" lon="-0.85198">
        <ele>86</ele>
        <time>2015-03-16T08:35:02Z</time>
      </trkpt>
      <trkpt lat="47.02848" lon="-0.85199">
        <ele>86</ele>
        <time>2015-03-16T08:35:04Z</time>
      </trkpt>
      <trkpt lat="47.02845" lon="-0.85199">
        <ele>86</ele>
        <time>2015-03-16T08:35:06Z</time>
      </trkpt>
      <trkpt lat="47.02843" lon="-0.852">
        <ele>86</ele>
        <time>2015-03-16T08:35:08Z</time>
      </trkpt>
      <trkpt lat="47.0284" lon="-0.85201">
        <ele>86</ele>
        <time>2015-03-16T08:35:10Z</time>
      </trkpt>
      <trkpt lat="47.02838" lon="-0.85202">
        <ele>87</ele>
        <time>2015-03-16T08:35:12Z</time>
      </trkpt>
      <trkpt lat="47.02835" lon="-0.85204">
        <ele>87</ele>
        <time>2015-03-16T08:35:14Z</time>
      </trkpt>
      <trkpt lat="47.02833" lon="-0.85204">
        <ele>87</ele>
        <time>2015-03-16T08:35:16Z</time>
      </trkpt>
      <trkpt lat="47.0283" lon="-0.85206">
        <ele>87</ele>
        <time>2015-03-16T08:35:18Z</time>
      </trkpt>
      <trkpt lat="47.02828" lon="-0.85207">
        <ele>87</ele>
        <time>2015-03-16T08:35:20Z</time>
      </trkpt>
      <trkpt lat="47.02825" lon="-0.85208">
        <ele>87</ele>
        <time>2015-03-16T08:35:22Z</time>
      </trkpt>
      <trkpt lat="47.02822" lon="-0.85209">
        <ele>87</ele>
        <time>2015-03-16T08:35:24Z</time>
      </trkpt>
      <trkpt lat="47.02819" lon="-0.8521">
        <ele>87</ele>
        <time>2015-03-16T08:35:26Z</time>
      </trkpt>
      <trkpt lat="47.02817" lon="-0.8521">
        <ele>87</ele>
        <time>2015-03-16T08:35:28Z</time>
      </trkpt>
      <trkpt lat="47.02814" lon="-0.85211">
        <ele>87</ele>
        <time>2015-03-16T08:35:30Z</time>
      </trkpt>
      <trkpt lat="47.02811" lon="-0.85212">
        <ele>87</ele>
        <time>2015-03-16T08:35:32Z</time>
      </trkpt>
      <trkpt lat="47.02809" lon="-0.85213">
        <ele>87</ele>
        <time>2015-03-16T08:35:34Z</time>
      </trkpt>
      <trkpt lat="47.02805" lon="-0.85214">
        <ele>87</ele>
        <time>2015-03-16T08:35:37Z</time>
      </trkpt>
      <trkpt lat="47.02803" lon="-0.85216">
        <ele>87</ele>
        <time>2015-03-16T08:35:39Z</time>
      </trkpt>
      <trkpt lat="47.028" lon="-0.85217">
        <ele>87</ele>
        <time>2015-03-16T08:35:41Z</time>
      </trkpt>
      <trkpt lat="47.02798" lon="-0.85218">
        <ele>87</ele>
        <time>2015-03-16T08:35:43Z</time>
      </trkpt>
      <trkpt lat="47.02795" lon="-0.85219">
        <ele>87</ele>
        <time>2015-03-16T08:35:45Z</time>
      </trkpt>
      <trkpt lat="47.02793" lon="-0.8522">
        <ele>87</ele>
        <time>2015-03-16T08:35:47Z</time>
      </trkpt>
      <trkpt lat="47.0279" lon="-0.85221">
        <ele>87</ele>
        <time>2015-03-16T08:35:49Z</time>
      </trkpt>
      <trkpt lat="47.02788" lon="-0.85223">
        <ele>87</ele>
        <time>2015-03-16T08:35:51Z</time>
      </trkpt>
      <trkpt lat="47.02785" lon="-0.85224">
        <ele>87</ele>
        <time>2015-03-16T08:35:53Z</time>
      </trkpt>
      <trkpt lat="47.02782" lon="-0.85224">
        <ele>87</ele>
        <time>2015-03-16T08:35:55Z</time>
      </trkpt>
      <trkpt lat="47.02779" lon="-0.85225">
        <ele>87</ele>
        <time>2015-03-16T08:35:57Z</time>
      </trkpt>
      <trkpt lat="47.02776" lon="-0.85228">
        <ele>87</ele>
        <time>2015-03-16T08:36:00Z</time>
      </trkpt>
      <trkpt lat="47.02773" lon="-0.8523">
        <ele>87</ele>
        <time>2015-03-16T08:36:02Z</time>
      </trkpt>
      <trkpt lat="47.0277" lon="-0.85234">
        <ele>87</ele>
        <time>2015-03-16T08:36:05Z</time>
      </trkpt>
      <trkpt lat="47.02768" lon="-0.85236">
        <ele>87</ele>
        <time>2015-03-16T08:36:07Z</time>
      </trkpt>
      <trkpt lat="47.02766" lon="-0.85238">
        <ele>87</ele>
        <time>2015-03-16T08:36:09Z</time>
      </trkpt>
      <trkpt lat="47.02764" lon="-0.85241">
        <ele>87</ele>
        <time>2015-03-16T08:36:11Z</time>
      </trkpt>
      <trkpt lat="47.02762" lon="-0.85243">
        <ele>87</ele>
        <time>2015-03-16T08:36:13Z</time>
      </trkpt>
      <trkpt lat="47.02759" lon="-0.85246">
        <ele>87</ele>
        <time>2015-03-16T08:36:16Z</time>
      </trkpt>
      <trkpt lat="47.02757" lon="-0.85249">
        <ele>87</ele>
        <time>2015-03-16T08:36:18Z</time>
      </trkpt>
      <trkpt lat="47.02755" lon="-0.85251">
        <ele>87</ele>
        <time>2015-03-16T08:36:20Z</time>
      </trkpt>
      <trkpt lat="47.02753" lon="-0.85253">
        <ele>87</ele>
        <time>2015-03-16T08:36:22Z</time>
      </trkpt>
      <trkpt lat="47.02751" lon="-0.85256">
        <ele>87</ele>
        <time>2015-03-16T08:36:24Z</time>
      </trkpt>
      <trkpt lat="47.02748" lon="-0.85259">
        <ele>87</ele>
        <time>2015-03-16T08:36:26Z</time>
      </trkpt>
      <trkpt lat="47.02746" lon="-0.85261">
        <ele>87</ele>
        <time>2015-03-16T08:36:28Z</time>
      </trkpt>
      <trkpt lat="47.02744" lon="-0.85263">
        <ele>87</ele>
        <time>2015-03-16T08:36:30Z</time>
      </trkpt>
      <trkpt lat="47.02742" lon="-0.85266">
        <ele>87</ele>
        <time>2015-03-16T08:36:32Z</time>
      </trkpt>
      <trkpt lat="47.02739" lon="-0.85269">
        <ele>87</ele>
        <time>2015-03-16T08:36:35Z</time>
      </trkpt>
      <trkpt lat="47.02737" lon="-0.85272">
        <ele>87</ele>
        <time>2015-03-16T08:36:37Z</time>
      </trkpt>
      <trkpt lat="47.02735" lon="-0.85275">
        <ele>87</ele>
        <time>2015-03-16T08:36:39Z</time>
      </trkpt>
      <trkpt lat="47.02733" lon="-0.85277">
        <ele>87</ele>
        <time>2015-03-16T08:36:41Z</time>
      </trkpt>
      <trkpt lat="47.02731" lon="-0.8528">
        <ele>87</ele>
        <time>2015-03-16T08:36:43Z</time>
      </trkpt>
      <trkpt lat="47.02727" lon="-0.85283">
        <ele>87</ele>
        <time>2015-03-16T08:36:46Z</time>
      </trkpt>
      <trkpt lat="47.02725" lon="-0.85286">
        <ele>87</ele>
        <time>2015-03-16T08:36:48Z</time>
      </trkpt>
      <trkpt lat="47.02723" lon="-0.85288">
        <ele>87</ele>
        <time>2015-03-16T08:36:50Z</time>
      </trkpt>
      <trkpt lat="47.0272" lon="-0.85291">
        <ele>87</ele>
        <time>2015-03-16T08:36:52Z</time>
      </trkpt>
      <trkpt lat="47.02718" lon="-0.85293">
        <ele>87</ele>
        <time>2015-03-16T08:36:54Z</time>
      </trkpt>
      <trkpt lat="47.02715" lon="-0.85295">
        <ele>87</ele>
        <time>2015-03-16T08:36:56Z</time>
      </trkpt>
      <trkpt lat="47.02713" lon="-0.85295">
        <ele>87</ele>
        <time>2015-03-16T08:36:58Z</time>
      </trkpt>
      <trkpt lat="47.0271" lon="-0.85297">
        <ele>87</ele>
        <time>2015-03-16T08:37:00Z</time>
      </trkpt>
      <trkpt lat="47.02708" lon="-0.85298">
        <ele>87</ele>
        <time>2015-03-16T08:37:02Z</time>
      </trkpt>
      <trkpt lat="47.02705" lon="-0.85299">
        <ele>87</ele>
        <time>2015-03-16T08:37:04Z</time>
      </trkpt>
      <trkpt lat="47.02703" lon="-0.853">
        <ele>87</ele>
        <time>2015-03-16T08:37:06Z</time>
      </trkpt>
      <trkpt lat="47.02701" lon="-0.85301">
        <ele>87</ele>
        <time>2015-03-16T08:37:08Z</time>
      </trkpt>
      <trkpt lat="47.02698" lon="-0.85302">
        <ele>87</ele>
        <time>2015-03-16T08:37:10Z</time>
      </trkpt>
      <trkpt lat="47.02695" lon="-0.85302">
        <ele>87</ele>
        <time>2015-03-16T08:37:13Z</time>
      </trkpt>
      <trkpt lat="47.02693" lon="-0.85303">
        <ele>87</ele>
        <time>2015-03-16T08:37:15Z</time>
      </trkpt>
      <trkpt lat="47.02691" lon="-0.85304">
        <ele>87</ele>
        <time>2015-03-16T08:37:17Z</time>
      </trkpt>
      <trkpt lat="47.02688" lon="-0.85305">
        <ele>87</ele>
        <time>2015-03-16T08:37:19Z</time>
      </trkpt>
      <trkpt lat="47.02686" lon="-0.85306">
        <ele>86</ele>
        <time>2015-03-16T08:37:21Z</time>
      </trkpt>
      <trkpt lat="47.02682" lon="-0.85306">
        <ele>85</ele>
        <time>2015-03-16T08:37:24Z</time>
      </trkpt>
      <trkpt lat="47.02679" lon="-0.85307">
        <ele>85</ele>
        <time>2015-03-16T08:37:26Z</time>
      </trkpt>
      <trkpt lat="47.02677" lon="-0.85308">
        <ele>85</ele>
        <time>2015-03-16T08:37:28Z</time>
      </trkpt>
      <trkpt lat="47.02673" lon="-0.85309">
        <ele>84</ele>
        <time>2015-03-16T08:37:31Z</time>
      </trkpt>
      <trkpt lat="47.02671" lon="-0.85309">
        <ele>84</ele>
        <time>2015-03-16T08:37:33Z</time>
      </trkpt>
      <trkpt lat="47.02669" lon="-0.8531">
        <ele>83</ele>
        <time>2015-03-16T08:37:35Z</time>
      </trkpt>
      <trkpt lat="47.02665" lon="-0.85312">
        <ele>82</ele>
        <time>2015-03-16T08:37:38Z</time>
      </trkpt>
      <trkpt lat="47.02663" lon="-0.85312">
        <ele>82</ele>
        <time>2015-03-16T08:37:40Z</time>
      </trkpt>
      <trkpt lat="47.02662" lon="-0.85313">
        <ele>81</ele>
        <time>2015-03-16T08:37:42Z</time>
      </trkpt>
      <trkpt lat="47.02658" lon="-0.85313">
        <ele>80</ele>
        <time>2015-03-16T08:37:44Z</time>
      </trkpt>
      <trkpt lat="47.02656" lon="-0.85314">
        <ele>80</ele>
        <time>2015-03-16T08:37:46Z</time>
      </trkpt>
      <trkpt lat="47.02653" lon="-0.85314">
        <ele>80</ele>
        <time>2015-03-16T08:37:48Z</time>
      </trkpt>
      <trkpt lat="47.0265" lon="-0.85315">
        <ele>80</ele>
        <time>2015-03-16T08:37:50Z</time>
      </trkpt>
      <trkpt lat="47.02648" lon="-0.85315">
        <ele>79</ele>
        <time>2015-03-16T08:37:52Z</time>
      </trkpt>
      <trkpt lat="47.02646" lon="-0.85316">
        <ele>78</ele>
        <time>2015-03-16T08:37:54Z</time>
      </trkpt>
      <trkpt lat="47.02643" lon="-0.85316">
        <ele>77</ele>
        <time>2015-03-16T08:37:57Z</time>
      </trkpt>
      <trkpt lat="47.0264" lon="-0.85317">
        <ele>76</ele>
        <time>2015-03-16T08:37:59Z</time>
      </trkpt>
      <trkpt lat="47.02638" lon="-0.85317">
        <ele>76</ele>
        <time>2015-03-16T08:38:01Z</time>
      </trkpt>
      <trkpt lat="47.02635" lon="-0.85318">
        <ele>75</ele>
        <time>2015-03-16T08:38:03Z</time>
      </trkpt>
      <trkpt lat="47.02631" lon="-0.85318">
        <ele>75</ele>
        <time>2015-03-16T08:38:05Z</time>
      </trkpt>
      <trkpt lat="47.02629" lon="-0.85319">
        <ele>75</ele>
        <time>2015-03-16T08:38:07Z</time>
      </trkpt>
      <trkpt lat="47.02627" lon="-0.8532">
        <ele>75</ele>
        <time>2015-03-16T08:38:09Z</time>
      </trkpt>
      <trkpt lat="47.02624" lon="-0.85321">
        <ele>75</ele>
        <time>2015-03-16T08:38:11Z</time>
      </trkpt>
      <trkpt lat="47.02621" lon="-0.85321">
        <ele>75</ele>
        <time>2015-03-16T08:38:13Z</time>
      </trkpt>
      <trkpt lat="47.02619" lon="-0.85321">
        <ele>75</ele>
        <time>2015-03-16T08:38:15Z</time>
      </trkpt>
      <trkpt lat="47.02616" lon="-0.85322">
        <ele>75</ele>
        <time>2015-03-16T08:38:17Z</time>
      </trkpt>
      <trkpt lat="47.02613" lon="-0.85322">
        <ele>75</ele>
        <time>2015-03-16T08:38:19Z</time>
      </trkpt>
      <trkpt lat="47.02609" lon="-0.85323">
        <ele>75</ele>
        <time>2015-03-16T08:38:21Z</time>
      </trkpt>
      <trkpt lat="47.02607" lon="-0.85323">
        <ele>75</ele>
        <time>2015-03-16T08:38:23Z</time>
      </trkpt>
      <trkpt lat="47.02604" lon="-0.85323">
        <ele>75</ele>
        <time>2015-03-16T08:38:25Z</time>
      </trkpt>
      <trkpt lat="47.02601" lon="-0.85323">
        <ele>75</ele>
        <time>2015-03-16T08:38:27Z</time>
      </trkpt>
      <trkpt lat="47.02599" lon="-0.85323">
        <ele>75</ele>
        <time>2015-03-16T08:38:29Z</time>
      </trkpt>
      <trkpt lat="47.02596" lon="-0.85322">
        <ele>75</ele>
        <time>2015-03-16T08:38:31Z</time>
      </trkpt>
      <trkpt lat="47.02593" lon="-0.85322">
        <ele>75</ele>
        <time>2015-03-16T08:38:33Z</time>
      </trkpt>
      <trkpt lat="47.0259" lon="-0.85322">
        <ele>75</ele>
        <time>2015-03-16T08:38:36Z</time>
      </trkpt>
      <trkpt lat="47.02588" lon="-0.85325">
        <ele>75</ele>
        <time>2015-03-16T08:38:38Z</time>
      </trkpt>
      <trkpt lat="47.02585" lon="-0.85326">
        <ele>74</ele>
        <time>2015-03-16T08:38:40Z</time>
      </trkpt>
      <trkpt lat="47.02582" lon="-0.85326">
        <ele>74</ele>
        <time>2015-03-16T08:38:42Z</time>
      </trkpt>
      <trkpt lat="47.02579" lon="-0.85325">
        <ele>74</ele>
        <time>2015-03-16T08:38:44Z</time>
      </trkpt>
      <trkpt lat="47.02577" lon="-0.85324">
        <ele>74</ele>
        <time>2015-03-16T08:38:46Z</time>
      </trkpt>
      <trkpt lat="47.02574" lon="-0.85323">
        <ele>74</ele>
        <time>2015-03-16T08:38:48Z</time>
      </trkpt>
      <trkpt lat="47.02572" lon="-0.85322">
        <ele>74</ele>
        <time>2015-03-16T08:38:50Z</time>
      </trkpt>
      <trkpt lat="47.02569" lon="-0.85321">
        <ele>74</ele>
        <time>2015-03-16T08:38:52Z</time>
      </trkpt>
      <trkpt lat="47.02567" lon="-0.85321">
        <ele>74</ele>
        <time>2015-03-16T08:38:54Z</time>
      </trkpt>
      <trkpt lat="47.02564" lon="-0.85319">
        <ele>74</ele>
        <time>2015-03-16T08:38:56Z</time>
      </trkpt>
      <trkpt lat="47.02562" lon="-0.85318">
        <ele>74</ele>
        <time>2015-03-16T08:38:58Z</time>
      </trkpt>
      <trkpt lat="47.0256" lon="-0.85316">
        <ele>74</ele>
        <time>2015-03-16T08:39:00Z</time>
      </trkpt>
      <trkpt lat="47.02558" lon="-0.85314">
        <ele>74</ele>
        <time>2015-03-16T08:39:02Z</time>
      </trkpt>
      <trkpt lat="47.02556" lon="-0.85311">
        <ele>74</ele>
        <time>2015-03-16T08:39:04Z</time>
      </trkpt>
      <trkpt lat="47.02554" lon="-0.85308">
        <ele>74</ele>
        <time>2015-03-16T08:39:07Z</time>
      </trkpt>
      <trkpt lat="47.02552" lon="-0.85303">
        <ele>74</ele>
        <time>2015-03-16T08:39:10Z</time>
      </trkpt>
      <trkpt lat="47.0255" lon="-0.85301">
        <ele>74</ele>
        <time>2015-03-16T08:39:12Z</time>
      </trkpt>
      <trkpt lat="47.02549" lon="-0.85298">
        <ele>74</ele>
        <time>2015-03-16T08:39:14Z</time>
      </trkpt>
      <trkpt lat="47.02547" lon="-0.85295">
        <ele>74</ele>
        <time>2015-03-16T08:39:16Z</time>
      </trkpt>
      <trkpt lat="47.02545" lon="-0.85291">
        <ele>74</ele>
        <time>2015-03-16T08:39:19Z</time>
      </trkpt>
      <trkpt lat="47.02544" lon="-0.85288">
        <ele>73</ele>
        <time>2015-03-16T08:39:21Z</time>
      </trkpt>
      <trkpt lat="47.02542" lon="-0.85284">
        <ele>73</ele>
        <time>2015-03-16T08:39:24Z</time>
      </trkpt>
      <trkpt lat="47.0254" lon="-0.85282">
        <ele>73</ele>
        <time>2015-03-16T08:39:26Z</time>
      </trkpt>
      <trkpt lat="47.02539" lon="-0.8528">
        <ele>73</ele>
        <time>2015-03-16T08:39:28Z</time>
      </trkpt>
      <trkpt lat="47.02538" lon="-0.85277">
        <ele>72</ele>
        <time>2015-03-16T08:39:30Z</time>
      </trkpt>
      <trkpt lat="47.02536" lon="-0.85275">
        <ele>72</ele>
        <time>2015-03-16T08:39:32Z</time>
      </trkpt>
      <trkpt lat="47.02535" lon="-0.85273">
        <ele>71</ele>
        <time>2015-03-16T08:39:34Z</time>
      </trkpt>
      <trkpt lat="47.02533" lon="-0.8527">
        <ele>71</ele>
        <time>2015-03-16T08:39:36Z</time>
      </trkpt>
      <trkpt lat="47.02532" lon="-0.85267">
        <ele>71</ele>
        <time>2015-03-16T08:39:38Z</time>
      </trkpt>
      <trkpt lat="47.02531" lon="-0.85265">
        <ele>70</ele>
        <time>2015-03-16T08:39:40Z</time>
      </trkpt>
      <trkpt lat="47.02529" lon="-0.85262">
        <ele>70</ele>
        <time>2015-03-16T08:39:42Z</time>
      </trkpt>
      <trkpt lat="47.02527" lon="-0.8526">
        <ele>70</ele>
        <time>2015-03-16T08:39:44Z</time>
      </trkpt>
      <trkpt lat="47.02525" lon="-0.85258">
        <ele>70</ele>
        <time>2015-03-16T08:39:46Z</time>
      </trkpt>
      <trkpt lat="47.02523" lon="-0.85254">
        <ele>70</ele>
        <time>2015-03-16T08:39:49Z</time>
      </trkpt>
      <trkpt lat="47.0252" lon="-0.85252">
        <ele>69</ele>
        <time>2015-03-16T08:39:51Z</time>
      </trkpt>
      <trkpt lat="47.02519" lon="-0.8525">
        <ele>69</ele>
        <time>2015-03-16T08:39:53Z</time>
      </trkpt>
      <trkpt lat="47.02517" lon="-0.85248">
        <ele>69</ele>
        <time>2015-03-16T08:39:55Z</time>
      </trkpt>
      <trkpt lat="47.02515" lon="-0.85246">
        <ele>69</ele>
        <time>2015-03-16T08:39:57Z</time>
      </trkpt>
      <trkpt lat="47.02513" lon="-0.85244">
        <ele>69</ele>
        <time>2015-03-16T08:39:59Z</time>
      </trkpt>
      <trkpt lat="47.02511" lon="-0.85242">
        <ele>69</ele>
        <time>2015-03-16T08:40:01Z</time>
      </trkpt>
      <trkpt lat="47.02509" lon="-0.8524">
        <ele>69</ele>
        <time>2015-03-16T08:40:03Z</time>
      </trkpt>
      <trkpt lat="47.02507" lon="-0.85238">
        <ele>69</ele>
        <time>2015-03-16T08:40:05Z</time>
      </trkpt>
      <trkpt lat="47.02505" lon="-0.85236">
        <ele>69</ele>
        <time>2015-03-16T08:40:07Z</time>
      </trkpt>
      <trkpt lat="47.02502" lon="-0.85232">
        <ele>69</ele>
        <time>2015-03-16T08:40:10Z</time>
      </trkpt>
      <trkpt lat="47.02499" lon="-0.85229">
        <ele>69</ele>
        <time>2015-03-16T08:40:13Z</time>
      </trkpt>
      <trkpt lat="47.02496" lon="-0.85227">
        <ele>69</ele>
        <time>2015-03-16T08:40:15Z</time>
      </trkpt>
      <trkpt lat="47.02494" lon="-0.85225">
        <ele>69</ele>
        <time>2015-03-16T08:40:17Z</time>
      </trkpt>
      <trkpt lat="47.02493" lon="-0.85222">
        <ele>69</ele>
        <time>2015-03-16T08:40:19Z</time>
      </trkpt>
      <trkpt lat="47.02491" lon="-0.8522">
        <ele>69</ele>
        <time>2015-03-16T08:40:21Z</time>
      </trkpt>
      <trkpt lat="47.02488" lon="-0.85217">
        <ele>69</ele>
        <time>2015-03-16T08:40:23Z</time>
      </trkpt>
      <trkpt lat="47.02487" lon="-0.85215">
        <ele>69</ele>
        <time>2015-03-16T08:40:25Z</time>
      </trkpt>
      <trkpt lat="47.02486" lon="-0.85212">
        <ele>69</ele>
        <time>2015-03-16T08:40:27Z</time>
      </trkpt>
      <trkpt lat="47.02484" lon="-0.85209">
        <ele>69</ele>
        <time>2015-03-16T08:40:29Z</time>
      </trkpt>
      <trkpt lat="47.02482" lon="-0.85206">
        <ele>69</ele>
        <time>2015-03-16T08:40:31Z</time>
      </trkpt>
      <trkpt lat="47.02481" lon="-0.85203">
        <ele>69</ele>
        <time>2015-03-16T08:40:33Z</time>
      </trkpt>
      <trkpt lat="47.0248" lon="-0.85201">
        <ele>69</ele>
        <time>2015-03-16T08:40:35Z</time>
      </trkpt>
      <trkpt lat="47.02478" lon="-0.85198">
        <ele>69</ele>
        <time>2015-03-16T08:40:37Z</time>
      </trkpt>
      <trkpt lat="47.02475" lon="-0.85195">
        <ele>69</ele>
        <time>2015-03-16T08:40:39Z</time>
      </trkpt>
      <trkpt lat="47.02473" lon="-0.85192">
        <ele>69</ele>
        <time>2015-03-16T08:40:41Z</time>
      </trkpt>
      <trkpt lat="47.02472" lon="-0.85189">
        <ele>69</ele>
        <time>2015-03-16T08:40:43Z</time>
      </trkpt>
      <trkpt lat="47.0247" lon="-0.85187">
        <ele>69</ele>
        <time>2015-03-16T08:40:45Z</time>
      </trkpt>
      <trkpt lat="47.02468" lon="-0.85184">
        <ele>69</ele>
        <time>2015-03-16T08:40:47Z</time>
      </trkpt>
      <trkpt lat="47.02467" lon="-0.85181">
        <ele>69</ele>
        <time>2015-03-16T08:40:49Z</time>
      </trkpt>
      <trkpt lat="47.02465" lon="-0.85179">
        <ele>69</ele>
        <time>2015-03-16T08:40:51Z</time>
      </trkpt>
      <trkpt lat="47.02464" lon="-0.85176">
        <ele>69</ele>
        <time>2015-03-16T08:40:53Z</time>
      </trkpt>
      <trkpt lat="47.02462" lon="-0.85172">
        <ele>69</ele>
        <time>2015-03-16T08:40:55Z</time>
      </trkpt>
      <trkpt lat="47.02461" lon="-0.8517">
        <ele>69</ele>
        <time>2015-03-16T08:40:57Z</time>
      </trkpt>
      <trkpt lat="47.0246" lon="-0.85167">
        <ele>69</ele>
        <time>2015-03-16T08:40:59Z</time>
      </trkpt>
      <trkpt lat="47.02458" lon="-0.85164">
        <ele>69</ele>
        <time>2015-03-16T08:41:01Z</time>
      </trkpt>
      <trkpt lat="47.02457" lon="-0.85162">
        <ele>69</ele>
        <time>2015-03-16T08:41:03Z</time>
      </trkpt>
      <trkpt lat="47.02455" lon="-0.85159">
        <ele>69</ele>
        <time>2015-03-16T08:41:05Z</time>
      </trkpt>
      <trkpt lat="47.02452" lon="-0.85157">
        <ele>69</ele>
        <time>2015-03-16T08:41:07Z</time>
      </trkpt>
      <trkpt lat="47.02449" lon="-0.85153">
        <ele>69</ele>
        <time>2015-03-16T08:41:10Z</time>
      </trkpt>
      <trkpt lat="47.02447" lon="-0.85151">
        <ele>69</ele>
        <time>2015-03-16T08:41:12Z</time>
      </trkpt>
      <trkpt lat="47.02446" lon="-0.85149">
        <ele>69</ele>
        <time>2015-03-16T08:41:14Z</time>
      </trkpt>
      <trkpt lat="47.02443" lon="-0.85147">
        <ele>69</ele>
        <time>2015-03-16T08:41:16Z</time>
      </trkpt>
      <trkpt lat="47.02441" lon="-0.85145">
        <ele>69</ele>
        <time>2015-03-16T08:41:18Z</time>
      </trkpt>
      <trkpt lat="47.02439" lon="-0.85143">
        <ele>69</ele>
        <time>2015-03-16T08:41:20Z</time>
      </trkpt>
      <trkpt lat="47.02438" lon="-0.85141">
        <ele>69</ele>
        <time>2015-03-16T08:41:22Z</time>
      </trkpt>
      <trkpt lat="47.02435" lon="-0.85138">
        <ele>69</ele>
        <time>2015-03-16T08:41:25Z</time>
      </trkpt>
      <trkpt lat="47.02433" lon="-0.85136">
        <ele>69</ele>
        <time>2015-03-16T08:41:27Z</time>
      </trkpt>
      <trkpt lat="47.0243" lon="-0.85135">
        <ele>69</ele>
        <time>2015-03-16T08:41:29Z</time>
      </trkpt>
      <trkpt lat="47.02428" lon="-0.85133">
        <ele>69</ele>
        <time>2015-03-16T08:41:31Z</time>
      </trkpt>
      <trkpt lat="47.02427" lon="-0.85131">
        <ele>69</ele>
        <time>2015-03-16T08:41:33Z</time>
      </trkpt>
      <trkpt lat="47.02425" lon="-0.85129">
        <ele>69</ele>
        <time>2015-03-16T08:41:35Z</time>
      </trkpt>
      <trkpt lat="47.02422" lon="-0.85127">
        <ele>69</ele>
        <time>2015-03-16T08:41:37Z</time>
      </trkpt>
      <trkpt lat="47.0242" lon="-0.85125">
        <ele>69</ele>
        <time>2015-03-16T08:41:39Z</time>
      </trkpt>
      <trkpt lat="47.02419" lon="-0.85123">
        <ele>69</ele>
        <time>2015-03-16T08:41:41Z</time>
      </trkpt>
      <trkpt lat="47.02417" lon="-0.85122">
        <ele>69</ele>
        <time>2015-03-16T08:41:43Z</time>
      </trkpt>
      <trkpt lat="47.02415" lon="-0.8512">
        <ele>69</ele>
        <time>2015-03-16T08:41:45Z</time>
      </trkpt>
      <trkpt lat="47.02413" lon="-0.85119">
        <ele>69</ele>
        <time>2015-03-16T08:41:47Z</time>
      </trkpt>
      <trkpt lat="47.02411" lon="-0.85117">
        <ele>69</ele>
        <time>2015-03-16T08:41:49Z</time>
      </trkpt>
      <trkpt lat="47.02409" lon="-0.85115">
        <ele>69</ele>
        <time>2015-03-16T08:41:51Z</time>
      </trkpt>
      <trkpt lat="47.02407" lon="-0.85112">
        <ele>69</ele>
        <time>2015-03-16T08:41:53Z</time>
      </trkpt>
      <trkpt lat="47.02405" lon="-0.8511">
        <ele>69</ele>
        <time>2015-03-16T08:41:55Z</time>
      </trkpt>
      <trkpt lat="47.02404" lon="-0.85107">
        <ele>69</ele>
        <time>2015-03-16T08:41:57Z</time>
      </trkpt>
      <trkpt lat="47.02402" lon="-0.85105">
        <ele>68</ele>
        <time>2015-03-16T08:41:59Z</time>
      </trkpt>
      <trkpt lat="47.024" lon="-0.85103">
        <ele>68</ele>
        <time>2015-03-16T08:42:01Z</time>
      </trkpt>
      <trkpt lat="47.02397" lon="-0.851">
        <ele>68</ele>
        <time>2015-03-16T08:42:03Z</time>
      </trkpt>
      <trkpt lat="47.02395" lon="-0.85097">
        <ele>68</ele>
        <time>2015-03-16T08:42:05Z</time>
      </trkpt>
      <trkpt lat="47.02393" lon="-0.85095">
        <ele>68</ele>
        <time>2015-03-16T08:42:07Z</time>
      </trkpt>
      <trkpt lat="47.02391" lon="-0.85093">
        <ele>68</ele>
        <time>2015-03-16T08:42:09Z</time>
      </trkpt>
      <trkpt lat="47.02389" lon="-0.85092">
        <ele>68</ele>
        <time>2015-03-16T08:42:11Z</time>
      </trkpt>
      <trkpt lat="47.02388" lon="-0.85089">
        <ele>68</ele>
        <time>2015-03-16T08:42:13Z</time>
      </trkpt>
      <trkpt lat="47.02386" lon="-0.85087">
        <ele>68</ele>
        <time>2015-03-16T08:42:15Z</time>
      </trkpt>
      <trkpt lat="47.02384" lon="-0.85084">
        <ele>68</ele>
        <time>2015-03-16T08:42:17Z</time>
      </trkpt>
      <trkpt lat="47.02382" lon="-0.85082">
        <ele>68</ele>
        <time>2015-03-16T08:42:19Z</time>
      </trkpt>
      <trkpt lat="47.0238" lon="-0.85079">
        <ele>68</ele>
        <time>2015-03-16T08:42:21Z</time>
      </trkpt>
      <trkpt lat="47.02379" lon="-0.85078">
        <ele>68</ele>
        <time>2015-03-16T08:42:23Z</time>
      </trkpt>
      <trkpt lat="47.02378" lon="-0.85075">
        <ele>67</ele>
        <time>2015-03-16T08:42:25Z</time>
      </trkpt>
      <trkpt lat="47.02377" lon="-0.85073">
        <ele>67</ele>
        <time>2015-03-16T08:42:27Z</time>
      </trkpt>
      <trkpt lat="47.02376" lon="-0.8507">
        <ele>66</ele>
        <time>2015-03-16T08:42:29Z</time>
      </trkpt>
      <trkpt lat="47.02373" lon="-0.85066">
        <ele>66</ele>
        <time>2015-03-16T08:42:31Z</time>
      </trkpt>
      <trkpt lat="47.02371" lon="-0.85063">
        <ele>66</ele>
        <time>2015-03-16T08:42:33Z</time>
      </trkpt>
      <trkpt lat="47.0237" lon="-0.85058">
        <ele>66</ele>
        <time>2015-03-16T08:42:35Z</time>
      </trkpt>
      <trkpt lat="47.0237" lon="-0.85054">
        <ele>66</ele>
        <time>2015-03-16T08:42:37Z</time>
      </trkpt>
      <trkpt lat="47.02369" lon="-0.8505">
        <ele>66</ele>
        <time>2015-03-16T08:42:39Z</time>
      </trkpt>
      <trkpt lat="47.02368" lon="-0.85045">
        <ele>66</ele>
        <time>2015-03-16T08:42:41Z</time>
      </trkpt>
      <trkpt lat="47.02368" lon="-0.85041">
        <ele>66</ele>
        <time>2015-03-16T08:42:43Z</time>
      </trkpt>
      <trkpt lat="47.02367" lon="-0.85037">
        <ele>66</ele>
        <time>2015-03-16T08:42:45Z</time>
      </trkpt>
      <trkpt lat="47.02367" lon="-0.85034">
        <ele>66</ele>
        <time>2015-03-16T08:42:47Z</time>
      </trkpt>
      <trkpt lat="47.02366" lon="-0.8503">
        <ele>67</ele>
        <time>2015-03-16T08:42:49Z</time>
      </trkpt>
      <trkpt lat="47.02365" lon="-0.85026">
        <ele>67</ele>
        <time>2015-03-16T08:42:51Z</time>
      </trkpt>
      <trkpt lat="47.02365" lon="-0.85023">
        <ele>67</ele>
        <time>2015-03-16T08:42:53Z</time>
      </trkpt>
      <trkpt lat="47.02364" lon="-0.85019">
        <ele>67</ele>
        <time>2015-03-16T08:42:55Z</time>
      </trkpt>
      <trkpt lat="47.02364" lon="-0.85016">
        <ele>67</ele>
        <time>2015-03-16T08:42:57Z</time>
      </trkpt>
      <trkpt lat="47.02363" lon="-0.85012">
        <ele>68</ele>
        <time>2015-03-16T08:42:59Z</time>
      </trkpt>
      <trkpt lat="47.02361" lon="-0.85009">
        <ele>68</ele>
        <time>2015-03-16T08:43:01Z</time>
      </trkpt>
      <trkpt lat="47.0236" lon="-0.85005">
        <ele>68</ele>
        <time>2015-03-16T08:43:03Z</time>
      </trkpt>
      <trkpt lat="47.02359" lon="-0.85001">
        <ele>68</ele>
        <time>2015-03-16T08:43:05Z</time>
      </trkpt>
      <trkpt lat="47.02358" lon="-0.84997">
        <ele>69</ele>
        <time>2015-03-16T08:43:07Z</time>
      </trkpt>
      <trkpt lat="47.02357" lon="-0.84994">
        <ele>69</ele>
        <time>2015-03-16T08:43:09Z</time>
      </trkpt>
      <trkpt lat="47.02356" lon="-0.84991">
        <ele>70</ele>
        <time>2015-03-16T08:43:11Z</time>
      </trkpt>
      <trkpt lat="47.02356" lon="-0.84988">
        <ele>70</ele>
        <time>2015-03-16T08:43:13Z</time>
      </trkpt>
      <trkpt lat="47.02355" lon="-0.84985">
        <ele>70</ele>
        <time>2015-03-16T08:43:15Z</time>
      </trkpt>
      <trkpt lat="47.02354" lon="-0.84981">
        <ele>70</ele>
        <time>2015-03-16T08:43:17Z</time>
      </trkpt>
      <trkpt lat="47.02354" lon="-0.84978">
        <ele>70</ele>
        <time>2015-03-16T08:43:19Z</time>
      </trkpt>
      <trkpt lat="47.02353" lon="-0.84974">
        <ele>70</ele>
        <time>2015-03-16T08:43:21Z</time>
      </trkpt>
      <trkpt lat="47.02352" lon="-0.84971">
        <ele>70</ele>
        <time>2015-03-16T08:43:23Z</time>
      </trkpt>
      <trkpt lat="47.02351" lon="-0.84968">
        <ele>70</ele>
        <time>2015-03-16T08:43:25Z</time>
      </trkpt>
      <trkpt lat="47.0235" lon="-0.84965">
        <ele>70</ele>
        <time>2015-03-16T08:43:27Z</time>
      </trkpt>
      <trkpt lat="47.02349" lon="-0.84962">
        <ele>70</ele>
        <time>2015-03-16T08:43:29Z</time>
      </trkpt>
      <trkpt lat="47.02348" lon="-0.84958">
        <ele>70</ele>
        <time>2015-03-16T08:43:31Z</time>
      </trkpt>
      <trkpt lat="47.02348" lon="-0.84955">
        <ele>70</ele>
        <time>2015-03-16T08:43:33Z</time>
      </trkpt>
      <trkpt lat="47.02348" lon="-0.84951">
        <ele>70</ele>
        <time>2015-03-16T08:43:35Z</time>
      </trkpt>
      <trkpt lat="47.02348" lon="-0.84947">
        <ele>70</ele>
        <time>2015-03-16T08:43:37Z</time>
      </trkpt>
      <trkpt lat="47.02348" lon="-0.84944">
        <ele>70</ele>
        <time>2015-03-16T08:43:39Z</time>
      </trkpt>
      <trkpt lat="47.02348" lon="-0.8494">
        <ele>70</ele>
        <time>2015-03-16T08:43:41Z</time>
      </trkpt>
      <trkpt lat="47.02349" lon="-0.84936">
        <ele>70</ele>
        <time>2015-03-16T08:43:43Z</time>
      </trkpt>
      <trkpt lat="47.02349" lon="-0.84933">
        <ele>70</ele>
        <time>2015-03-16T08:43:45Z</time>
      </trkpt>
      <trkpt lat="47.02349" lon="-0.84929">
        <ele>70</ele>
        <time>2015-03-16T08:43:47Z</time>
      </trkpt>
      <trkpt lat="47.0235" lon="-0.84925">
        <ele>70</ele>
        <time>2015-03-16T08:43:49Z</time>
      </trkpt>
      <trkpt lat="47.0235" lon="-0.84922">
        <ele>70</ele>
        <time>2015-03-16T08:43:51Z</time>
      </trkpt>
      <trkpt lat="47.02351" lon="-0.84918">
        <ele>70</ele>
        <time>2015-03-16T08:43:53Z</time>
      </trkpt>
      <trkpt lat="47.02351" lon="-0.84914">
        <ele>70</ele>
        <time>2015-03-16T08:43:55Z</time>
      </trkpt>
      <trkpt lat="47.02352" lon="-0.84911">
        <ele>70</ele>
        <time>2015-03-16T08:43:57Z</time>
      </trkpt>
      <trkpt lat="47.02353" lon="-0.84907">
        <ele>70</ele>
        <time>2015-03-16T08:43:59Z</time>
      </trkpt>
      <trkpt lat="47.02354" lon="-0.84904">
        <ele>70</ele>
        <time>2015-03-16T08:44:01Z</time>
      </trkpt>
      <trkpt lat="47.02354" lon="-0.84901">
        <ele>70</ele>
        <time>2015-03-16T08:44:03Z</time>
      </trkpt>
      <trkpt lat="47.02356" lon="-0.84898">
        <ele>70</ele>
        <time>2015-03-16T08:44:05Z</time>
      </trkpt>
      <trkpt lat="47.02359" lon="-0.84894">
        <ele>70</ele>
        <time>2015-03-16T08:44:08Z</time>
      </trkpt>
      <trkpt lat="47.0236" lon="-0.84891">
        <ele>70</ele>
        <time>2015-03-16T08:44:10Z</time>
      </trkpt>
      <trkpt lat="47.02362" lon="-0.84888">
        <ele>70</ele>
        <time>2015-03-16T08:44:12Z</time>
      </trkpt>
      <trkpt lat="47.02364" lon="-0.84884">
        <ele>70</ele>
        <time>2015-03-16T08:44:15Z</time>
      </trkpt>
      <trkpt lat="47.02365" lon="-0.84882">
        <ele>70</ele>
        <time>2015-03-16T08:44:17Z</time>
      </trkpt>
      <trkpt lat="47.02369" lon="-0.84878">
        <ele>70</ele>
        <time>2015-03-16T08:44:20Z</time>
      </trkpt>
      <trkpt lat="47.0237" lon="-0.84875">
        <ele>70</ele>
        <time>2015-03-16T08:44:22Z</time>
      </trkpt>
      <trkpt lat="47.02372" lon="-0.84873">
        <ele>70</ele>
        <time>2015-03-16T08:44:24Z</time>
      </trkpt>
      <trkpt lat="47.02373" lon="-0.8487">
        <ele>70</ele>
        <time>2015-03-16T08:44:26Z</time>
      </trkpt>
      <trkpt lat="47.02375" lon="-0.84867">
        <ele>70</ele>
        <time>2015-03-16T08:44:28Z</time>
      </trkpt>
      <trkpt lat="47.02376" lon="-0.84864">
        <ele>70</ele>
        <time>2015-03-16T08:44:30Z</time>
      </trkpt>
      <trkpt lat="47.02377" lon="-0.84861">
        <ele>70</ele>
        <time>2015-03-16T08:44:32Z</time>
      </trkpt>
      <trkpt lat="47.02378" lon="-0.84858">
        <ele>70</ele>
        <time>2015-03-16T08:44:34Z</time>
      </trkpt>
      <trkpt lat="47.02381" lon="-0.84854">
        <ele>70</ele>
        <time>2015-03-16T08:44:37Z</time>
      </trkpt>
      <trkpt lat="47.02382" lon="-0.84851">
        <ele>70</ele>
        <time>2015-03-16T08:44:39Z</time>
      </trkpt>
      <trkpt lat="47.02383" lon="-0.84849">
        <ele>70</ele>
        <time>2015-03-16T08:44:41Z</time>
      </trkpt>
      <trkpt lat="47.02385" lon="-0.84844">
        <ele>70</ele>
        <time>2015-03-16T08:44:44Z</time>
      </trkpt>
      <trkpt lat="47.02386" lon="-0.84842">
        <ele>70</ele>
        <time>2015-03-16T08:44:46Z</time>
      </trkpt>
      <trkpt lat="47.02388" lon="-0.84839">
        <ele>70</ele>
        <time>2015-03-16T08:44:48Z</time>
      </trkpt>
      <trkpt lat="47.02389" lon="-0.84836">
        <ele>70</ele>
        <time>2015-03-16T08:44:50Z</time>
      </trkpt>
      <trkpt lat="47.02391" lon="-0.84833">
        <ele>70</ele>
        <time>2015-03-16T08:44:52Z</time>
      </trkpt>
      <trkpt lat="47.02393" lon="-0.8483">
        <ele>70</ele>
        <time>2015-03-16T08:44:54Z</time>
      </trkpt>
      <trkpt lat="47.02394" lon="-0.84825">
        <ele>70</ele>
        <time>2015-03-16T08:44:56Z</time>
      </trkpt>
      <trkpt lat="47.02396" lon="-0.84821">
        <ele>70</ele>
        <time>2015-03-16T08:44:59Z</time>
      </trkpt>
      <trkpt lat="47.02398" lon="-0.84818">
        <ele>70</ele>
        <time>2015-03-16T08:45:01Z</time>
      </trkpt>
      <trkpt lat="47.024" lon="-0.84815">
        <ele>70</ele>
        <time>2015-03-16T08:45:03Z</time>
      </trkpt>
      <trkpt lat="47.02401" lon="-0.84812">
        <ele>70</ele>
        <time>2015-03-16T08:45:05Z</time>
      </trkpt>
      <trkpt lat="47.02403" lon="-0.84809">
        <ele>70</ele>
        <time>2015-03-16T08:45:07Z</time>
      </trkpt>
      <trkpt lat="47.02404" lon="-0.84807">
        <ele>70</ele>
        <time>2015-03-16T08:45:09Z</time>
      </trkpt>
      <trkpt lat="47.02405" lon="-0.84805">
        <ele>70</ele>
        <time>2015-03-16T08:45:11Z</time>
      </trkpt>
      <trkpt lat="47.02409" lon="-0.84799">
        <ele>70</ele>
        <time>2015-03-16T08:45:15Z</time>
      </trkpt>
      <trkpt lat="47.02412" lon="-0.84797">
        <ele>70</ele>
        <time>2015-03-16T08:45:18Z</time>
      </trkpt>
      <trkpt lat="47.02415" lon="-0.84795">
        <ele>70</ele>
        <time>2015-03-16T08:45:20Z</time>
      </trkpt>
      <trkpt lat="47.02417" lon="-0.84794">
        <ele>70</ele>
        <time>2015-03-16T08:45:22Z</time>
      </trkpt>
      <trkpt lat="47.02422" lon="-0.84792">
        <ele>70</ele>
        <time>2015-03-16T08:45:25Z</time>
      </trkpt>
      <trkpt lat="47.02425" lon="-0.84791">
        <ele>70</ele>
        <time>2015-03-16T08:45:27Z</time>
      </trkpt>
      <trkpt lat="47.02427" lon="-0.8479">
        <ele>70</ele>
        <time>2015-03-16T08:45:29Z</time>
      </trkpt>
      <trkpt lat="47.0243" lon="-0.84789">
        <ele>70</ele>
        <time>2015-03-16T08:45:31Z</time>
      </trkpt>
      <trkpt lat="47.02432" lon="-0.84788">
        <ele>70</ele>
        <time>2015-03-16T08:45:33Z</time>
      </trkpt>
      <trkpt lat="47.02436" lon="-0.84787">
        <ele>70</ele>
        <time>2015-03-16T08:45:36Z</time>
      </trkpt>
      <trkpt lat="47.0244" lon="-0.84786">
        <ele>70</ele>
        <time>2015-03-16T08:45:39Z</time>
      </trkpt>
      <trkpt lat="47.02442" lon="-0.84785">
        <ele>70</ele>
        <time>2015-03-16T08:45:41Z</time>
      </trkpt>
      <trkpt lat="47.02445" lon="-0.84784">
        <ele>70</ele>
        <time>2015-03-16T08:45:43Z</time>
      </trkpt>
      <trkpt lat="47.02448" lon="-0.84783">
        <ele>70</ele>
        <time>2015-03-16T08:45:45Z</time>
      </trkpt>
      <trkpt lat="47.02449" lon="-0.84782">
        <ele>70</ele>
        <time>2015-03-16T08:45:47Z</time>
      </trkpt>
      <trkpt lat="47.02451" lon="-0.84782">
        <ele>70</ele>
        <time>2015-03-16T08:45:49Z</time>
      </trkpt>
      <trkpt lat="47.02454" lon="-0.8478">
        <ele>70</ele>
        <time>2015-03-16T08:45:52Z</time>
      </trkpt>
      <trkpt lat="47.02457" lon="-0.84779">
        <ele>70</ele>
        <time>2015-03-16T08:45:55Z</time>
      </trkpt>
      <trkpt lat="47.0246" lon="-0.84778">
        <ele>70</ele>
        <time>2015-03-16T08:45:57Z</time>
      </trkpt>
      <trkpt lat="47.02462" lon="-0.84777">
        <ele>70</ele>
        <time>2015-03-16T08:45:59Z</time>
      </trkpt>
      <trkpt lat="47.02467" lon="-0.84777">
        <ele>70</ele>
        <time>2015-03-16T08:46:03Z</time>
      </trkpt>
      <trkpt lat="47.0247" lon="-0.84774">
        <ele>70</ele>
        <time>2015-03-16T08:46:06Z</time>
      </trkpt>
      <trkpt lat="47.02472" lon="-0.8477">
        <ele>70</ele>
        <time>2015-03-16T08:46:08Z</time>
      </trkpt>
      <trkpt lat="47.02473" lon="-0.84766">
        <ele>71</ele>
        <time>2015-03-16T08:46:10Z</time>
      </trkpt>
      <trkpt lat="47.02473" lon="-0.84762">
        <ele>71</ele>
        <time>2015-03-16T08:46:12Z</time>
      </trkpt>
      <trkpt lat="47.02473" lon="-0.84759">
        <ele>72</ele>
        <time>2015-03-16T08:46:14Z</time>
      </trkpt>
      <trkpt lat="47.02473" lon="-0.84755">
        <ele>72</ele>
        <time>2015-03-16T08:46:16Z</time>
      </trkpt>
      <trkpt lat="47.02473" lon="-0.84751">
        <ele>72</ele>
        <time>2015-03-16T08:46:18Z</time>
      </trkpt>
      <trkpt lat="47.02473" lon="-0.84747">
        <ele>72</ele>
        <time>2015-03-16T08:46:20Z</time>
      </trkpt>
      <trkpt lat="47.02472" lon="-0.84743">
        <ele>72</ele>
        <time>2015-03-16T08:46:22Z</time>
      </trkpt>
      <trkpt lat="47.02472" lon="-0.84739">
        <ele>72</ele>
        <time>2015-03-16T08:46:24Z</time>
      </trkpt>
      <trkpt lat="47.02472" lon="-0.84736">
        <ele>72</ele>
        <time>2015-03-16T08:46:26Z</time>
      </trkpt>
      <trkpt lat="47.02471" lon="-0.84732">
        <ele>72</ele>
        <time>2015-03-16T08:46:28Z</time>
      </trkpt>
      <trkpt lat="47.0247" lon="-0.84729">
        <ele>72</ele>
        <time>2015-03-16T08:46:30Z</time>
      </trkpt>
      <trkpt lat="47.0247" lon="-0.84725">
        <ele>72</ele>
        <time>2015-03-16T08:46:32Z</time>
      </trkpt>
      <trkpt lat="47.02468" lon="-0.84722">
        <ele>72</ele>
        <time>2015-03-16T08:46:34Z</time>
      </trkpt>
      <trkpt lat="47.02468" lon="-0.84719">
        <ele>72</ele>
        <time>2015-03-16T08:46:36Z</time>
      </trkpt>
      <trkpt lat="47.02467" lon="-0.84716">
        <ele>72</ele>
        <time>2015-03-16T08:46:38Z</time>
      </trkpt>
      <trkpt lat="47.02466" lon="-0.84713">
        <ele>72</ele>
        <time>2015-03-16T08:46:40Z</time>
      </trkpt>
      <trkpt lat="47.02464" lon="-0.84708">
        <ele>72</ele>
        <time>2015-03-16T08:46:43Z</time>
      </trkpt>
      <trkpt lat="47.02464" lon="-0.84705">
        <ele>72</ele>
        <time>2015-03-16T08:46:45Z</time>
      </trkpt>
      <trkpt lat="47.02462" lon="-0.84701">
        <ele>73</ele>
        <time>2015-03-16T08:46:47Z</time>
      </trkpt>
      <trkpt lat="47.0246" lon="-0.84698">
        <ele>74</ele>
        <time>2015-03-16T08:46:49Z</time>
      </trkpt>
      <trkpt lat="47.02459" lon="-0.84695">
        <ele>74</ele>
        <time>2015-03-16T08:46:51Z</time>
      </trkpt>
      <trkpt lat="47.02457" lon="-0.8469">
        <ele>75</ele>
        <time>2015-03-16T08:46:54Z</time>
      </trkpt>
      <trkpt lat="47.02455" lon="-0.84688">
        <ele>75</ele>
        <time>2015-03-16T08:46:56Z</time>
      </trkpt>
      <trkpt lat="47.02453" lon="-0.84685">
        <ele>75</ele>
        <time>2015-03-16T08:46:59Z</time>
      </trkpt>
      <trkpt lat="47.02451" lon="-0.84681">
        <ele>75</ele>
        <time>2015-03-16T08:47:02Z</time>
      </trkpt>
      <trkpt lat="47.0245" lon="-0.84679">
        <ele>75</ele>
        <time>2015-03-16T08:47:04Z</time>
      </trkpt>
      <trkpt lat="47.02448" lon="-0.84675">
        <ele>75</ele>
        <time>2015-03-16T08:47:08Z</time>
      </trkpt>
      <trkpt lat="47.02447" lon="-0.84671">
        <ele>76</ele>
        <time>2015-03-16T08:47:11Z</time>
      </trkpt>
      <trkpt lat="47.02446" lon="-0.84668">
        <ele>76</ele>
        <time>2015-03-16T08:47:13Z</time>
      </trkpt>
      <trkpt lat="47.02448" lon="-0.84667">
        <ele>77</ele>
        <time>2015-03-16T08:47:15Z</time>
      </trkpt>
      <trkpt lat="47.0245" lon="-0.84663">
        <ele>79</ele>
        <time>2015-03-16T08:47:19Z</time>
      </trkpt>
      <trkpt lat="47.02451" lon="-0.84661">
        <ele>80</ele>
        <time>2015-03-16T08:47:21Z</time>
      </trkpt>
      <trkpt lat="47.02453" lon="-0.84657">
        <ele>81</ele>
        <time>2015-03-16T08:47:24Z</time>
      </trkpt>
      <trkpt lat="47.02452" lon="-0.84655">
        <ele>82</ele>
        <time>2015-03-16T08:47:27Z</time>
      </trkpt>
      <trkpt lat="47.02449" lon="-0.84655">
        <ele>83</ele>
        <time>2015-03-16T08:47:30Z</time>
      </trkpt>
      <trkpt lat="47.02446" lon="-0.84655">
        <ele>84</ele>
        <time>2015-03-16T08:47:33Z</time>
      </trkpt>
      <trkpt lat="47.02443" lon="-0.84654">
        <ele>84</ele>
        <time>2015-03-16T08:47:36Z</time>
      </trkpt>
      <trkpt lat="47.0244" lon="-0.84654">
        <ele>84</ele>
        <time>2015-03-16T08:47:38Z</time>
      </trkpt>
      <trkpt lat="47.02436" lon="-0.84654">
        <ele>85</ele>
        <time>2015-03-16T08:47:42Z</time>
      </trkpt>
      <trkpt lat="47.02434" lon="-0.84653">
        <ele>86</ele>
        <time>2015-03-16T08:47:44Z</time>
      </trkpt>
      <trkpt lat="47.0243" lon="-0.84653">
        <ele>86</ele>
        <time>2015-03-16T08:47:48Z</time>
      </trkpt>
      <trkpt lat="47.02428" lon="-0.84652">
        <ele>87</ele>
        <time>2015-03-16T08:47:50Z</time>
      </trkpt>
      <trkpt lat="47.02427" lon="-0.8465">
        <ele>89</ele>
        <time>2015-03-16T08:47:53Z</time>
      </trkpt>
      <trkpt lat="47.02427" lon="-0.84652">
        <ele>94</ele>
        <time>2015-03-16T08:47:58Z</time>
      </trkpt>
      <trkpt lat="47.02426" lon="-0.84651">
        <ele>95</ele>
        <time>2015-03-16T08:48:01Z</time>
      </trkpt>
      <trkpt lat="47.02427" lon="-0.84648">
        <ele>95</ele>
        <time>2015-03-16T08:48:03Z</time>
      </trkpt>
      <trkpt lat="47.02429" lon="-0.84644">
        <ele>95</ele>
        <time>2015-03-16T08:48:10Z</time>
      </trkpt>
      <trkpt lat="47.02427" lon="-0.84641">
        <ele>94</ele>
        <time>2015-03-16T08:48:13Z</time>
      </trkpt>
      <trkpt lat="47.02425" lon="-0.84639">
        <ele>94</ele>
        <time>2015-03-16T08:48:15Z</time>
      </trkpt>
      <trkpt lat="47.02424" lon="-0.84636">
        <ele>94</ele>
        <time>2015-03-16T08:48:19Z</time>
      </trkpt>
      <trkpt lat="47.02423" lon="-0.84634">
        <ele>94</ele>
        <time>2015-03-16T08:48:22Z</time>
      </trkpt>
      <trkpt lat="47.02422" lon="-0.8463">
        <ele>94</ele>
        <time>2015-03-16T08:48:27Z</time>
      </trkpt>
      <trkpt lat="47.02421" lon="-0.84627">
        <ele>94</ele>
        <time>2015-03-16T08:48:30Z</time>
      </trkpt>
      <trkpt lat="47.02419" lon="-0.84625">
        <ele>94</ele>
        <time>2015-03-16T08:48:33Z</time>
      </trkpt>
      <trkpt lat="47.02417" lon="-0.84622">
        <ele>95</ele>
        <time>2015-03-16T08:48:36Z</time>
      </trkpt>
      <trkpt lat="47.02415" lon="-0.8462">
        <ele>96</ele>
        <time>2015-03-16T08:48:38Z</time>
      </trkpt>
      <trkpt lat="47.02412" lon="-0.84617">
        <ele>98</ele>
        <time>2015-03-16T08:48:42Z</time>
      </trkpt>
      <trkpt lat="47.0241" lon="-0.84615">
        <ele>99</ele>
        <time>2015-03-16T08:48:44Z</time>
      </trkpt>
      <trkpt lat="47.02407" lon="-0.84613">
        <ele>101</ele>
        <time>2015-03-16T08:48:48Z</time>
      </trkpt>
      <trkpt lat="47.02406" lon="-0.84611">
        <ele>102</ele>
        <time>2015-03-16T08:48:50Z</time>
      </trkpt>
      <trkpt lat="47.02405" lon="-0.84606">
        <ele>102</ele>
        <time>2015-03-16T08:48:54Z</time>
      </trkpt>
      <trkpt lat="47.02403" lon="-0.84604">
        <ele>102</ele>
        <time>2015-03-16T08:48:56Z</time>
      </trkpt>
      <trkpt lat="47.02401" lon="-0.84602">
        <ele>102</ele>
        <time>2015-03-16T08:48:58Z</time>
      </trkpt>
      <trkpt lat="47.02399" lon="-0.846">
        <ele>102</ele>
        <time>2015-03-16T08:49:00Z</time>
      </trkpt>
      <trkpt lat="47.02394" lon="-0.846">
        <ele>102</ele>
        <time>2015-03-16T08:49:03Z</time>
      </trkpt>
      <trkpt lat="47.02393" lon="-0.84601">
        <ele>102</ele>
        <time>2015-03-16T08:49:05Z</time>
      </trkpt>
      <trkpt lat="47.02391" lon="-0.84601">
        <ele>102</ele>
        <time>2015-03-16T08:49:09Z</time>
      </trkpt>
      <trkpt lat="47.02389" lon="-0.84602">
        <ele>102</ele>
        <time>2015-03-16T08:49:12Z</time>
      </trkpt>
      <trkpt lat="47.02384" lon="-0.84601">
        <ele>102</ele>
        <time>2015-03-16T08:49:15Z</time>
      </trkpt>
      <trkpt lat="47.02382" lon="-0.84601">
        <ele>102</ele>
        <time>2015-03-16T08:49:17Z</time>
      </trkpt>
      <trkpt lat="47.0238" lon="-0.84601">
        <ele>102</ele>
        <time>2015-03-16T08:49:20Z</time>
      </trkpt>
      <trkpt lat="47.02377" lon="-0.846">
        <ele>102</ele>
        <time>2015-03-16T08:49:22Z</time>
      </trkpt>
      <trkpt lat="47.02373" lon="-0.84598">
        <ele>102</ele>
        <time>2015-03-16T08:49:25Z</time>
      </trkpt>
      <trkpt lat="47.02371" lon="-0.84598">
        <ele>102</ele>
        <time>2015-03-16T08:49:27Z</time>
      </trkpt>
      <trkpt lat="47.02366" lon="-0.84597">
        <ele>102</ele>
        <time>2015-03-16T08:49:31Z</time>
      </trkpt>
      <trkpt lat="47.02365" lon="-0.84597">
        <ele>102</ele>
        <time>2015-03-16T08:49:33Z</time>
      </trkpt>
      <trkpt lat="47.02363" lon="-0.84597">
        <ele>102</ele>
        <time>2015-03-16T08:49:35Z</time>
      </trkpt>
      <trkpt lat="47.02361" lon="-0.84597">
        <ele>102</ele>
        <time>2015-03-16T08:49:37Z</time>
      </trkpt>
      <trkpt lat="47.0236" lon="-0.84596">
        <ele>102</ele>
        <time>2015-03-16T08:49:39Z</time>
      </trkpt>
      <trkpt lat="47.02355" lon="-0.84596">
        <ele>102</ele>
        <time>2015-03-16T08:49:42Z</time>
      </trkpt>
      <trkpt lat="47.02352" lon="-0.84595">
        <ele>103</ele>
        <time>2015-03-16T08:49:44Z</time>
      </trkpt>
      <trkpt lat="47.02346" lon="-0.84593">
        <ele>103</ele>
        <time>2015-03-16T08:49:48Z</time>
      </trkpt>
      <trkpt lat="47.02345" lon="-0.84593">
        <ele>103</ele>
        <time>2015-03-16T08:49:50Z</time>
      </trkpt>
      <trkpt lat="47.02341" lon="-0.84592">
        <ele>103</ele>
        <time>2015-03-16T08:49:53Z</time>
      </trkpt>
      <trkpt lat="47.0234" lon="-0.84591">
        <ele>103</ele>
        <time>2015-03-16T08:49:55Z</time>
      </trkpt>
      <trkpt lat="47.02337" lon="-0.84591">
        <ele>103</ele>
        <time>2015-03-16T08:49:57Z</time>
      </trkpt>
      <trkpt lat="47.02333" lon="-0.8459">
        <ele>104</ele>
        <time>2015-03-16T08:50:00Z</time>
      </trkpt>
      <trkpt lat="47.02329" lon="-0.8459">
        <ele>104</ele>
        <time>2015-03-16T08:50:04Z</time>
      </trkpt>
      <trkpt lat="47.02326" lon="-0.84588">
        <ele>104</ele>
        <time>2015-03-16T08:50:06Z</time>
      </trkpt>
      <trkpt lat="47.02323" lon="-0.84585">
        <ele>104</ele>
        <time>2015-03-16T08:50:08Z</time>
      </trkpt>
      <trkpt lat="47.02321" lon="-0.84584">
        <ele>105</ele>
        <time>2015-03-16T08:50:10Z</time>
      </trkpt>
      <trkpt lat="47.02322" lon="-0.84578">
        <ele>107</ele>
        <time>2015-03-16T08:50:14Z</time>
      </trkpt>
      <trkpt lat="47.02321" lon="-0.84575">
        <ele>107</ele>
        <time>2015-03-16T08:50:16Z</time>
      </trkpt>
      <trkpt lat="47.0232" lon="-0.84572">
        <ele>107</ele>
        <time>2015-03-16T08:50:18Z</time>
      </trkpt>
      <trkpt lat="47.0232" lon="-0.8457">
        <ele>107</ele>
        <time>2015-03-16T08:50:20Z</time>
      </trkpt>
      <trkpt lat="47.02319" lon="-0.84566">
        <ele>107</ele>
        <time>2015-03-16T08:50:23Z</time>
      </trkpt>
      <trkpt lat="47.02319" lon="-0.8456">
        <ele>107</ele>
        <time>2015-03-16T08:50:25Z</time>
      </trkpt>
      <trkpt lat="47.02319" lon="-0.84556">
        <ele>109</ele>
        <time>2015-03-16T08:50:28Z</time>
      </trkpt>
      <trkpt lat="47.02319" lon="-0.84553">
        <ele>109</ele>
        <time>2015-03-16T08:50:30Z</time>
      </trkpt>
      <trkpt lat="47.02319" lon="-0.84543">
        <ele>111</ele>
        <time>2015-03-16T08:50:36Z</time>
      </trkpt>
      <trkpt lat="47.02315" lon="-0.84534">
        <ele>112</ele>
        <time>2015-03-16T08:50:40Z</time>
      </trkpt>
      <trkpt lat="47.02314" lon="-0.8453">
        <ele>112</ele>
        <time>2015-03-16T08:50:42Z</time>
      </trkpt>
      <trkpt lat="47.02315" lon="-0.84526">
        <ele>112</ele>
        <time>2015-03-16T08:50:44Z</time>
      </trkpt>
      <trkpt lat="47.02314" lon="-0.84523">
        <ele>112</ele>
        <time>2015-03-16T08:50:46Z</time>
      </trkpt>
      <trkpt lat="47.02314" lon="-0.84517">
        <ele>112</ele>
        <time>2015-03-16T08:50:49Z</time>
      </trkpt>
      <trkpt lat="47.02315" lon="-0.84515">
        <ele>112</ele>
        <time>2015-03-16T08:50:51Z</time>
      </trkpt>
      <trkpt lat="47.02315" lon="-0.84513">
        <ele>112</ele>
        <time>2015-03-16T08:50:53Z</time>
      </trkpt>
      <trkpt lat="47.02315" lon="-0.84508">
        <ele>112</ele>
        <time>2015-03-16T08:50:55Z</time>
      </trkpt>
      <trkpt lat="47.02315" lon="-0.84505">
        <ele>112</ele>
        <time>2015-03-16T08:50:57Z</time>
      </trkpt>
      <trkpt lat="47.02314" lon="-0.84501">
        <ele>112</ele>
        <time>2015-03-16T08:50:59Z</time>
      </trkpt>
      <trkpt lat="47.02313" lon="-0.84496">
        <ele>112</ele>
        <time>2015-03-16T08:51:02Z</time>
      </trkpt>
      <trkpt lat="47.02313" lon="-0.84493">
        <ele>113</ele>
        <time>2015-03-16T08:51:04Z</time>
      </trkpt>
      <trkpt lat="47.02314" lon="-0.8449">
        <ele>113</ele>
        <time>2015-03-16T08:51:06Z</time>
      </trkpt>
      <trkpt lat="47.02314" lon="-0.84487">
        <ele>113</ele>
        <time>2015-03-16T08:51:08Z</time>
      </trkpt>
      <trkpt lat="47.02314" lon="-0.84483">
        <ele>113</ele>
        <time>2015-03-16T08:51:10Z</time>
      </trkpt>
      <trkpt lat="47.02313" lon="-0.84481">
        <ele>113</ele>
        <time>2015-03-16T08:51:12Z</time>
      </trkpt>
      <trkpt lat="47.02313" lon="-0.84475">
        <ele>113</ele>
        <time>2015-03-16T08:51:15Z</time>
      </trkpt>
      <trkpt lat="47.02314" lon="-0.84471">
        <ele>113</ele>
        <time>2015-03-16T08:51:17Z</time>
      </trkpt>
      <trkpt lat="47.02312" lon="-0.84467">
        <ele>113</ele>
        <time>2015-03-16T08:51:20Z</time>
      </trkpt>
      <trkpt lat="47.02313" lon="-0.84463">
        <ele>113</ele>
        <time>2015-03-16T08:51:22Z</time>
      </trkpt>
      <trkpt lat="47.02312" lon="-0.84458">
        <ele>113</ele>
        <time>2015-03-16T08:51:25Z</time>
      </trkpt>
      <trkpt lat="47.02313" lon="-0.84454">
        <ele>113</ele>
        <time>2015-03-16T08:51:27Z</time>
      </trkpt>
      <trkpt lat="47.02313" lon="-0.84448">
        <ele>113</ele>
        <time>2015-03-16T08:51:30Z</time>
      </trkpt>
      <trkpt lat="47.02314" lon="-0.84445">
        <ele>113</ele>
        <time>2015-03-16T08:51:32Z</time>
      </trkpt>
      <trkpt lat="47.02314" lon="-0.84442">
        <ele>113</ele>
        <time>2015-03-16T08:51:34Z</time>
      </trkpt>
      <trkpt lat="47.02313" lon="-0.84439">
        <ele>113</ele>
        <time>2015-03-16T08:51:36Z</time>
      </trkpt>
      <trkpt lat="47.02313" lon="-0.84435">
        <ele>113</ele>
        <time>2015-03-16T08:51:38Z</time>
      </trkpt>
      <trkpt lat="47.02313" lon="-0.84431">
        <ele>113</ele>
        <time>2015-03-16T08:51:40Z</time>
      </trkpt>
      <trkpt lat="47.02313" lon="-0.84428">
        <ele>113</ele>
        <time>2015-03-16T08:51:42Z</time>
      </trkpt>
      <trkpt lat="47.02313" lon="-0.84423">
        <ele>113</ele>
        <time>2015-03-16T08:51:45Z</time>
      </trkpt>
      <trkpt lat="47.02314" lon="-0.84419">
        <ele>114</ele>
        <time>2015-03-16T08:51:48Z</time>
      </trkpt>
      <trkpt lat="47.02314" lon="-0.84413">
        <ele>114</ele>
        <time>2015-03-16T08:51:51Z</time>
      </trkpt>
      <trkpt lat="47.02314" lon="-0.8441">
        <ele>114</ele>
        <time>2015-03-16T08:51:53Z</time>
      </trkpt>
      <trkpt lat="47.02313" lon="-0.84404">
        <ele>114</ele>
        <time>2015-03-16T08:51:56Z</time>
      </trkpt>
      <trkpt lat="47.02313" lon="-0.844">
        <ele>114</ele>
        <time>2015-03-16T08:51:58Z</time>
      </trkpt>
      <trkpt lat="47.02313" lon="-0.84394">
        <ele>114</ele>
        <time>2015-03-16T08:52:01Z</time>
      </trkpt>
      <trkpt lat="47.02312" lon="-0.8439">
        <ele>114</ele>
        <time>2015-03-16T08:52:03Z</time>
      </trkpt>
      <trkpt lat="47.02312" lon="-0.84384">
        <ele>114</ele>
        <time>2015-03-16T08:52:06Z</time>
      </trkpt>
      <trkpt lat="47.02311" lon="-0.84381">
        <ele>114</ele>
        <time>2015-03-16T08:52:08Z</time>
      </trkpt>
      <trkpt lat="47.02311" lon="-0.84374">
        <ele>114</ele>
        <time>2015-03-16T08:52:11Z</time>
      </trkpt>
      <trkpt lat="47.0231" lon="-0.84371">
        <ele>114</ele>
        <time>2015-03-16T08:52:13Z</time>
      </trkpt>
      <trkpt lat="47.0231" lon="-0.84365">
        <ele>114</ele>
        <time>2015-03-16T08:52:16Z</time>
      </trkpt>
      <trkpt lat="47.0231" lon="-0.84361">
        <ele>114</ele>
        <time>2015-03-16T08:52:18Z</time>
      </trkpt>
      <trkpt lat="47.02309" lon="-0.84355">
        <ele>114</ele>
        <time>2015-03-16T08:52:21Z</time>
      </trkpt>
      <trkpt lat="47.02308" lon="-0.84351">
        <ele>114</ele>
        <time>2015-03-16T08:52:23Z</time>
      </trkpt>
      <trkpt lat="47.02308" lon="-0.84347">
        <ele>114</ele>
        <time>2015-03-16T08:52:25Z</time>
      </trkpt>
      <trkpt lat="47.02308" lon="-0.84343">
        <ele>114</ele>
        <time>2015-03-16T08:52:27Z</time>
      </trkpt>
      <trkpt lat="47.02307" lon="-0.84339">
        <ele>114</ele>
        <time>2015-03-16T08:52:29Z</time>
      </trkpt>
      <trkpt lat="47.02307" lon="-0.84335">
        <ele>114</ele>
        <time>2015-03-16T08:52:31Z</time>
      </trkpt>
      <trkpt lat="47.02307" lon="-0.84332">
        <ele>114</ele>
        <time>2015-03-16T08:52:33Z</time>
      </trkpt>
      <trkpt lat="47.02306" lon="-0.84328">
        <ele>114</ele>
        <time>2015-03-16T08:52:35Z</time>
      </trkpt>
      <trkpt lat="47.02306" lon="-0.84324">
        <ele>114</ele>
        <time>2015-03-16T08:52:37Z</time>
      </trkpt>
      <trkpt lat="47.02306" lon="-0.8432">
        <ele>114</ele>
        <time>2015-03-16T08:52:39Z</time>
      </trkpt>
      <trkpt lat="47.02306" lon="-0.84316">
        <ele>114</ele>
        <time>2015-03-16T08:52:41Z</time>
      </trkpt>
      <trkpt lat="47.02306" lon="-0.84313">
        <ele>114</ele>
        <time>2015-03-16T08:52:43Z</time>
      </trkpt>
      <trkpt lat="47.02306" lon="-0.84309">
        <ele>114</ele>
        <time>2015-03-16T08:52:45Z</time>
      </trkpt>
      <trkpt lat="47.02306" lon="-0.84305">
        <ele>113</ele>
        <time>2015-03-16T08:52:47Z</time>
      </trkpt>
      <trkpt lat="47.02306" lon="-0.84302">
        <ele>113</ele>
        <time>2015-03-16T08:52:49Z</time>
      </trkpt>
      <trkpt lat="47.02306" lon="-0.84297">
        <ele>113</ele>
        <time>2015-03-16T08:52:51Z</time>
      </trkpt>
      <trkpt lat="47.02306" lon="-0.84294">
        <ele>113</ele>
        <time>2015-03-16T08:52:53Z</time>
      </trkpt>
      <trkpt lat="47.02307" lon="-0.8429">
        <ele>113</ele>
        <time>2015-03-16T08:52:55Z</time>
      </trkpt>
      <trkpt lat="47.02306" lon="-0.84286">
        <ele>113</ele>
        <time>2015-03-16T08:52:57Z</time>
      </trkpt>
      <trkpt lat="47.02307" lon="-0.84281">
        <ele>113</ele>
        <time>2015-03-16T08:52:59Z</time>
      </trkpt>
      <trkpt lat="47.02308" lon="-0.84278">
        <ele>113</ele>
        <time>2015-03-16T08:53:01Z</time>
      </trkpt>
      <trkpt lat="47.02308" lon="-0.84274">
        <ele>113</ele>
        <time>2015-03-16T08:53:03Z</time>
      </trkpt>
      <trkpt lat="47.02308" lon="-0.84269">
        <ele>113</ele>
        <time>2015-03-16T08:53:06Z</time>
      </trkpt>
      <trkpt lat="47.02308" lon="-0.84265">
        <ele>113</ele>
        <time>2015-03-16T08:53:08Z</time>
      </trkpt>
      <trkpt lat="47.02308" lon="-0.84261">
        <ele>113</ele>
        <time>2015-03-16T08:53:10Z</time>
      </trkpt>
      <trkpt lat="47.02309" lon="-0.84258">
        <ele>113</ele>
        <time>2015-03-16T08:53:12Z</time>
      </trkpt>
      <trkpt lat="47.02309" lon="-0.84254">
        <ele>113</ele>
        <time>2015-03-16T08:53:14Z</time>
      </trkpt>
      <trkpt lat="47.02309" lon="-0.8425">
        <ele>113</ele>
        <time>2015-03-16T08:53:16Z</time>
      </trkpt>
      <trkpt lat="47.0231" lon="-0.84246">
        <ele>113</ele>
        <time>2015-03-16T08:53:18Z</time>
      </trkpt>
      <trkpt lat="47.02311" lon="-0.84241">
        <ele>113</ele>
        <time>2015-03-16T08:53:21Z</time>
      </trkpt>
      <trkpt lat="47.02311" lon="-0.84236">
        <ele>113</ele>
        <time>2015-03-16T08:53:23Z</time>
      </trkpt>
      <trkpt lat="47.02311" lon="-0.84233">
        <ele>113</ele>
        <time>2015-03-16T08:53:25Z</time>
      </trkpt>
      <trkpt lat="47.02312" lon="-0.84229">
        <ele>113</ele>
        <time>2015-03-16T08:53:27Z</time>
      </trkpt>
      <trkpt lat="47.02312" lon="-0.84226">
        <ele>113</ele>
        <time>2015-03-16T08:53:29Z</time>
      </trkpt>
      <trkpt lat="47.02312" lon="-0.84222">
        <ele>113</ele>
        <time>2015-03-16T08:53:31Z</time>
      </trkpt>
      <trkpt lat="47.02313" lon="-0.84219">
        <ele>113</ele>
        <time>2015-03-16T08:53:33Z</time>
      </trkpt>
      <trkpt lat="47.02313" lon="-0.84215">
        <ele>113</ele>
        <time>2015-03-16T08:53:35Z</time>
      </trkpt>
      <trkpt lat="47.02313" lon="-0.84211">
        <ele>113</ele>
        <time>2015-03-16T08:53:37Z</time>
      </trkpt>
      <trkpt lat="47.02313" lon="-0.84207">
        <ele>113</ele>
        <time>2015-03-16T08:53:39Z</time>
      </trkpt>
      <trkpt lat="47.02313" lon="-0.84203">
        <ele>113</ele>
        <time>2015-03-16T08:53:41Z</time>
      </trkpt>
      <trkpt lat="47.02314" lon="-0.842">
        <ele>113</ele>
        <time>2015-03-16T08:53:43Z</time>
      </trkpt>
      <trkpt lat="47.02313" lon="-0.84197">
        <ele>113</ele>
        <time>2015-03-16T08:53:45Z</time>
      </trkpt>
      <trkpt lat="47.02314" lon="-0.84193">
        <ele>113</ele>
        <time>2015-03-16T08:53:47Z</time>
      </trkpt>
      <trkpt lat="47.02313" lon="-0.84189">
        <ele>113</ele>
        <time>2015-03-16T08:53:49Z</time>
      </trkpt>
      <trkpt lat="47.02313" lon="-0.84185">
        <ele>113</ele>
        <time>2015-03-16T08:53:51Z</time>
      </trkpt>
      <trkpt lat="47.02314" lon="-0.84181">
        <ele>113</ele>
        <time>2015-03-16T08:53:53Z</time>
      </trkpt>
      <trkpt lat="47.02314" lon="-0.84177">
        <ele>113</ele>
        <time>2015-03-16T08:53:55Z</time>
      </trkpt>
      <trkpt lat="47.02314" lon="-0.84174">
        <ele>113</ele>
        <time>2015-03-16T08:53:57Z</time>
      </trkpt>
      <trkpt lat="47.02315" lon="-0.8417">
        <ele>113</ele>
        <time>2015-03-16T08:53:59Z</time>
      </trkpt>
      <trkpt lat="47.02315" lon="-0.84167">
        <ele>113</ele>
        <time>2015-03-16T08:54:01Z</time>
      </trkpt>
      <trkpt lat="47.02315" lon="-0.84163">
        <ele>113</ele>
        <time>2015-03-16T08:54:03Z</time>
      </trkpt>
      <trkpt lat="47.02315" lon="-0.8416">
        <ele>113</ele>
        <time>2015-03-16T08:54:05Z</time>
      </trkpt>
      <trkpt lat="47.02315" lon="-0.84157">
        <ele>113</ele>
        <time>2015-03-16T08:54:07Z</time>
      </trkpt>
      <trkpt lat="47.02314" lon="-0.84153">
        <ele>113</ele>
        <time>2015-03-16T08:54:09Z</time>
      </trkpt>
      <trkpt lat="47.02314" lon="-0.84149">
        <ele>113</ele>
        <time>2015-03-16T08:54:11Z</time>
      </trkpt>
      <trkpt lat="47.02314" lon="-0.84146">
        <ele>113</ele>
        <time>2015-03-16T08:54:13Z</time>
      </trkpt>
      <trkpt lat="47.02314" lon="-0.84141">
        <ele>113</ele>
        <time>2015-03-16T08:54:16Z</time>
      </trkpt>
      <trkpt lat="47.02314" lon="-0.84137">
        <ele>113</ele>
        <time>2015-03-16T08:54:18Z</time>
      </trkpt>
      <trkpt lat="47.02314" lon="-0.84133">
        <ele>112</ele>
        <time>2015-03-16T08:54:20Z</time>
      </trkpt>
      <trkpt lat="47.02314" lon="-0.84129">
        <ele>112</ele>
        <time>2015-03-16T08:54:23Z</time>
      </trkpt>
      <trkpt lat="47.02314" lon="-0.84126">
        <ele>112</ele>
        <time>2015-03-16T08:54:25Z</time>
      </trkpt>
      <trkpt lat="47.02314" lon="-0.84123">
        <ele>111</ele>
        <time>2015-03-16T08:54:27Z</time>
      </trkpt>
      <trkpt lat="47.02313" lon="-0.84119">
        <ele>111</ele>
        <time>2015-03-16T08:54:29Z</time>
      </trkpt>
      <trkpt lat="47.02313" lon="-0.84116">
        <ele>111</ele>
        <time>2015-03-16T08:54:31Z</time>
      </trkpt>
      <trkpt lat="47.02312" lon="-0.84113">
        <ele>111</ele>
        <time>2015-03-16T08:54:33Z</time>
      </trkpt>
      <trkpt lat="47.02311" lon="-0.84109">
        <ele>111</ele>
        <time>2015-03-16T08:54:35Z</time>
      </trkpt>
      <trkpt lat="47.02311" lon="-0.84105">
        <ele>111</ele>
        <time>2015-03-16T08:54:37Z</time>
      </trkpt>
      <trkpt lat="47.0231" lon="-0.84101">
        <ele>111</ele>
        <time>2015-03-16T08:54:39Z</time>
      </trkpt>
      <trkpt lat="47.02309" lon="-0.84097">
        <ele>111</ele>
        <time>2015-03-16T08:54:41Z</time>
      </trkpt>
      <trkpt lat="47.02309" lon="-0.84094">
        <ele>111</ele>
        <time>2015-03-16T08:54:43Z</time>
      </trkpt>
      <trkpt lat="47.02308" lon="-0.8409">
        <ele>111</ele>
        <time>2015-03-16T08:54:45Z</time>
      </trkpt>
      <trkpt lat="47.02307" lon="-0.84086">
        <ele>111</ele>
        <time>2015-03-16T08:54:47Z</time>
      </trkpt>
      <trkpt lat="47.02306" lon="-0.84083">
        <ele>111</ele>
        <time>2015-03-16T08:54:49Z</time>
      </trkpt>
      <trkpt lat="47.02305" lon="-0.8408">
        <ele>111</ele>
        <time>2015-03-16T08:54:51Z</time>
      </trkpt>
      <trkpt lat="47.02304" lon="-0.84076">
        <ele>111</ele>
        <time>2015-03-16T08:54:53Z</time>
      </trkpt>
      <trkpt lat="47.02303" lon="-0.84072">
        <ele>111</ele>
        <time>2015-03-16T08:54:55Z</time>
      </trkpt>
      <trkpt lat="47.02303" lon="-0.84068">
        <ele>111</ele>
        <time>2015-03-16T08:54:57Z</time>
      </trkpt>
      <trkpt lat="47.02301" lon="-0.84065">
        <ele>111</ele>
        <time>2015-03-16T08:54:59Z</time>
      </trkpt>
      <trkpt lat="47.023" lon="-0.84061">
        <ele>111</ele>
        <time>2015-03-16T08:55:01Z</time>
      </trkpt>
      <trkpt lat="47.02299" lon="-0.84057">
        <ele>111</ele>
        <time>2015-03-16T08:55:03Z</time>
      </trkpt>
      <trkpt lat="47.02298" lon="-0.84054">
        <ele>111</ele>
        <time>2015-03-16T08:55:05Z</time>
      </trkpt>
      <trkpt lat="47.02298" lon="-0.8405">
        <ele>111</ele>
        <time>2015-03-16T08:55:07Z</time>
      </trkpt>
      <trkpt lat="47.02296" lon="-0.84047">
        <ele>111</ele>
        <time>2015-03-16T08:55:09Z</time>
      </trkpt>
      <trkpt lat="47.02296" lon="-0.84044">
        <ele>111</ele>
        <time>2015-03-16T08:55:11Z</time>
      </trkpt>
      <trkpt lat="47.02295" lon="-0.8404">
        <ele>111</ele>
        <time>2015-03-16T08:55:13Z</time>
      </trkpt>
      <trkpt lat="47.02294" lon="-0.84037">
        <ele>111</ele>
        <time>2015-03-16T08:55:15Z</time>
      </trkpt>
      <trkpt lat="47.02293" lon="-0.84034">
        <ele>111</ele>
        <time>2015-03-16T08:55:17Z</time>
      </trkpt>
      <trkpt lat="47.02292" lon="-0.8403">
        <ele>111</ele>
        <time>2015-03-16T08:55:19Z</time>
      </trkpt>
      <trkpt lat="47.0229" lon="-0.84026">
        <ele>110</ele>
        <time>2015-03-16T08:55:22Z</time>
      </trkpt>
      <trkpt lat="47.0229" lon="-0.84022">
        <ele>110</ele>
        <time>2015-03-16T08:55:24Z</time>
      </trkpt>
      <trkpt lat="47.02288" lon="-0.84019">
        <ele>110</ele>
        <time>2015-03-16T08:55:26Z</time>
      </trkpt>
      <trkpt lat="47.02288" lon="-0.84016">
        <ele>110</ele>
        <time>2015-03-16T08:55:28Z</time>
      </trkpt>
      <trkpt lat="47.02287" lon="-0.84013">
        <ele>109</ele>
        <time>2015-03-16T08:55:30Z</time>
      </trkpt>
      <trkpt lat="47.02285" lon="-0.8401">
        <ele>109</ele>
        <time>2015-03-16T08:55:32Z</time>
      </trkpt>
      <trkpt lat="47.02284" lon="-0.84007">
        <ele>109</ele>
        <time>2015-03-16T08:55:34Z</time>
      </trkpt>
      <trkpt lat="47.02283" lon="-0.84004">
        <ele>109</ele>
        <time>2015-03-16T08:55:36Z</time>
      </trkpt>
      <trkpt lat="47.02282" lon="-0.84">
        <ele>109</ele>
        <time>2015-03-16T08:55:38Z</time>
      </trkpt>
      <trkpt lat="47.02281" lon="-0.83997">
        <ele>109</ele>
        <time>2015-03-16T08:55:40Z</time>
      </trkpt>
      <trkpt lat="47.0228" lon="-0.83994">
        <ele>109</ele>
        <time>2015-03-16T08:55:42Z</time>
      </trkpt>
      <trkpt lat="47.02277" lon="-0.83989">
        <ele>109</ele>
        <time>2015-03-16T08:55:45Z</time>
      </trkpt>
      <trkpt lat="47.02276" lon="-0.83986">
        <ele>109</ele>
        <time>2015-03-16T08:55:47Z</time>
      </trkpt>
      <trkpt lat="47.02275" lon="-0.83983">
        <ele>109</ele>
        <time>2015-03-16T08:55:49Z</time>
      </trkpt>
      <trkpt lat="47.02273" lon="-0.83979">
        <ele>109</ele>
        <time>2015-03-16T08:55:51Z</time>
      </trkpt>
      <trkpt lat="47.02271" lon="-0.83976">
        <ele>109</ele>
        <time>2015-03-16T08:55:53Z</time>
      </trkpt>
      <trkpt lat="47.02269" lon="-0.8397">
        <ele>109</ele>
        <time>2015-03-16T08:55:56Z</time>
      </trkpt>
      <trkpt lat="47.02268" lon="-0.83967">
        <ele>109</ele>
        <time>2015-03-16T08:55:58Z</time>
      </trkpt>
      <trkpt lat="47.02265" lon="-0.83962">
        <ele>109</ele>
        <time>2015-03-16T08:56:01Z</time>
      </trkpt>
      <trkpt lat="47.02264" lon="-0.83959">
        <ele>109</ele>
        <time>2015-03-16T08:56:03Z</time>
      </trkpt>
      <trkpt lat="47.02262" lon="-0.83955">
        <ele>109</ele>
        <time>2015-03-16T08:56:05Z</time>
      </trkpt>
      <trkpt lat="47.02261" lon="-0.83952">
        <ele>109</ele>
        <time>2015-03-16T08:56:07Z</time>
      </trkpt>
      <trkpt lat="47.02259" lon="-0.8395">
        <ele>109</ele>
        <time>2015-03-16T08:56:09Z</time>
      </trkpt>
      <trkpt lat="47.02258" lon="-0.83947">
        <ele>109</ele>
        <time>2015-03-16T08:56:11Z</time>
      </trkpt>
      <trkpt lat="47.02256" lon="-0.83943">
        <ele>109</ele>
        <time>2015-03-16T08:56:13Z</time>
      </trkpt>
      <trkpt lat="47.02253" lon="-0.83939">
        <ele>109</ele>
        <time>2015-03-16T08:56:16Z</time>
      </trkpt>
      <trkpt lat="47.02252" lon="-0.83936">
        <ele>109</ele>
        <time>2015-03-16T08:56:18Z</time>
      </trkpt>
      <trkpt lat="47.0225" lon="-0.83933">
        <ele>109</ele>
        <time>2015-03-16T08:56:20Z</time>
      </trkpt>
      <trkpt lat="47.02248" lon="-0.83929">
        <ele>109</ele>
        <time>2015-03-16T08:56:22Z</time>
      </trkpt>
      <trkpt lat="47.02246" lon="-0.83925">
        <ele>109</ele>
        <time>2015-03-16T08:56:25Z</time>
      </trkpt>
      <trkpt lat="47.02245" lon="-0.83921">
        <ele>109</ele>
        <time>2015-03-16T08:56:27Z</time>
      </trkpt>
      <trkpt lat="47.02243" lon="-0.83918">
        <ele>109</ele>
        <time>2015-03-16T08:56:29Z</time>
      </trkpt>
      <trkpt lat="47.02241" lon="-0.83915">
        <ele>109</ele>
        <time>2015-03-16T08:56:31Z</time>
      </trkpt>
      <trkpt lat="47.02239" lon="-0.83911">
        <ele>109</ele>
        <time>2015-03-16T08:56:34Z</time>
      </trkpt>
      <trkpt lat="47.02237" lon="-0.83906">
        <ele>109</ele>
        <time>2015-03-16T08:56:36Z</time>
      </trkpt>
      <trkpt lat="47.02235" lon="-0.83903">
        <ele>109</ele>
        <time>2015-03-16T08:56:38Z</time>
      </trkpt>
      <trkpt lat="47.02233" lon="-0.839">
        <ele>109</ele>
        <time>2015-03-16T08:56:40Z</time>
      </trkpt>
      <trkpt lat="47.02232" lon="-0.83896">
        <ele>109</ele>
        <time>2015-03-16T08:56:42Z</time>
      </trkpt>
      <trkpt lat="47.0223" lon="-0.83893">
        <ele>109</ele>
        <time>2015-03-16T08:56:44Z</time>
      </trkpt>
      <trkpt lat="47.02229" lon="-0.8389">
        <ele>109</ele>
        <time>2015-03-16T08:56:46Z</time>
      </trkpt>
      <trkpt lat="47.02228" lon="-0.83887">
        <ele>109</ele>
        <time>2015-03-16T08:56:48Z</time>
      </trkpt>
      <trkpt lat="47.02226" lon="-0.83883">
        <ele>109</ele>
        <time>2015-03-16T08:56:50Z</time>
      </trkpt>
      <trkpt lat="47.02225" lon="-0.8388">
        <ele>109</ele>
        <time>2015-03-16T08:56:52Z</time>
      </trkpt>
      <trkpt lat="47.02223" lon="-0.83876">
        <ele>109</ele>
        <time>2015-03-16T08:56:54Z</time>
      </trkpt>
      <trkpt lat="47.0222" lon="-0.83871">
        <ele>109</ele>
        <time>2015-03-16T08:56:56Z</time>
      </trkpt>
      <trkpt lat="47.02219" lon="-0.83868">
        <ele>109</ele>
        <time>2015-03-16T08:56:58Z</time>
      </trkpt>
      <trkpt lat="47.02217" lon="-0.83865">
        <ele>109</ele>
        <time>2015-03-16T08:57:00Z</time>
      </trkpt>
      <trkpt lat="47.02216" lon="-0.83862">
        <ele>109</ele>
        <time>2015-03-16T08:57:02Z</time>
      </trkpt>
      <trkpt lat="47.02215" lon="-0.83859">
        <ele>109</ele>
        <time>2015-03-16T08:57:04Z</time>
      </trkpt>
      <trkpt lat="47.02214" lon="-0.83855">
        <ele>109</ele>
        <time>2015-03-16T08:57:06Z</time>
      </trkpt>
      <trkpt lat="47.02212" lon="-0.83852">
        <ele>109</ele>
        <time>2015-03-16T08:57:08Z</time>
      </trkpt>
      <trkpt lat="47.02211" lon="-0.83849">
        <ele>109</ele>
        <time>2015-03-16T08:57:10Z</time>
      </trkpt>
      <trkpt lat="47.0221" lon="-0.83846">
        <ele>109</ele>
        <time>2015-03-16T08:57:12Z</time>
      </trkpt>
      <trkpt lat="47.02209" lon="-0.83843">
        <ele>109</ele>
        <time>2015-03-16T08:57:14Z</time>
      </trkpt>
      <trkpt lat="47.02208" lon="-0.83839">
        <ele>109</ele>
        <time>2015-03-16T08:57:16Z</time>
      </trkpt>
      <trkpt lat="47.02207" lon="-0.83836">
        <ele>109</ele>
        <time>2015-03-16T08:57:18Z</time>
      </trkpt>
      <trkpt lat="47.02206" lon="-0.83833">
        <ele>109</ele>
        <time>2015-03-16T08:57:20Z</time>
      </trkpt>
      <trkpt lat="47.02206" lon="-0.83829">
        <ele>109</ele>
        <time>2015-03-16T08:57:22Z</time>
      </trkpt>
      <trkpt lat="47.02208" lon="-0.83826">
        <ele>109</ele>
        <time>2015-03-16T08:57:24Z</time>
      </trkpt>
      <trkpt lat="47.02211" lon="-0.83823">
        <ele>109</ele>
        <time>2015-03-16T08:57:27Z</time>
      </trkpt>
      <trkpt lat="47.02213" lon="-0.8382">
        <ele>109</ele>
        <time>2015-03-16T08:57:29Z</time>
      </trkpt>
      <trkpt lat="47.02216" lon="-0.83817">
        <ele>109</ele>
        <time>2015-03-16T08:57:32Z</time>
      </trkpt>
      <trkpt lat="47.02219" lon="-0.83815">
        <ele>109</ele>
        <time>2015-03-16T08:57:34Z</time>
      </trkpt>
      <trkpt lat="47.02221" lon="-0.83813">
        <ele>109</ele>
        <time>2015-03-16T08:57:36Z</time>
      </trkpt>
      <trkpt lat="47.02224" lon="-0.8381">
        <ele>109</ele>
        <time>2015-03-16T08:57:39Z</time>
      </trkpt>
      <trkpt lat="47.02226" lon="-0.83808">
        <ele>109</ele>
        <time>2015-03-16T08:57:41Z</time>
      </trkpt>
      <trkpt lat="47.02228" lon="-0.83806">
        <ele>109</ele>
        <time>2015-03-16T08:57:43Z</time>
      </trkpt>
      <trkpt lat="47.02231" lon="-0.83802">
        <ele>109</ele>
        <time>2015-03-16T08:57:46Z</time>
      </trkpt>
      <trkpt lat="47.02233" lon="-0.838">
        <ele>109</ele>
        <time>2015-03-16T08:57:48Z</time>
      </trkpt>
      <trkpt lat="47.02235" lon="-0.83798">
        <ele>109</ele>
        <time>2015-03-16T08:57:50Z</time>
      </trkpt>
      <trkpt lat="47.02237" lon="-0.83796">
        <ele>110</ele>
        <time>2015-03-16T08:57:52Z</time>
      </trkpt>
      <trkpt lat="47.02239" lon="-0.83793">
        <ele>110</ele>
        <time>2015-03-16T08:57:54Z</time>
      </trkpt>
      <trkpt lat="47.0224" lon="-0.83792">
        <ele>110</ele>
        <time>2015-03-16T08:57:56Z</time>
      </trkpt>
      <trkpt lat="47.02243" lon="-0.8379">
        <ele>110</ele>
        <time>2015-03-16T08:57:58Z</time>
      </trkpt>
      <trkpt lat="47.02244" lon="-0.83787">
        <ele>110</ele>
        <time>2015-03-16T08:58:00Z</time>
      </trkpt>
      <trkpt lat="47.02247" lon="-0.83784">
        <ele>110</ele>
        <time>2015-03-16T08:58:03Z</time>
      </trkpt>
      <trkpt lat="47.02249" lon="-0.83782">
        <ele>110</ele>
        <time>2015-03-16T08:58:05Z</time>
      </trkpt>
      <trkpt lat="47.0225" lon="-0.8378">
        <ele>110</ele>
        <time>2015-03-16T08:58:07Z</time>
      </trkpt>
      <trkpt lat="47.02253" lon="-0.83777">
        <ele>110</ele>
        <time>2015-03-16T08:58:10Z</time>
      </trkpt>
      <trkpt lat="47.02255" lon="-0.83775">
        <ele>110</ele>
        <time>2015-03-16T08:58:12Z</time>
      </trkpt>
      <trkpt lat="47.02257" lon="-0.83773">
        <ele>110</ele>
        <time>2015-03-16T08:58:14Z</time>
      </trkpt>
      <trkpt lat="47.02259" lon="-0.83771">
        <ele>110</ele>
        <time>2015-03-16T08:58:16Z</time>
      </trkpt>
      <trkpt lat="47.02262" lon="-0.83769">
        <ele>110</ele>
        <time>2015-03-16T08:58:18Z</time>
      </trkpt>
      <trkpt lat="47.02264" lon="-0.83766">
        <ele>110</ele>
        <time>2015-03-16T08:58:20Z</time>
      </trkpt>
      <trkpt lat="47.02266" lon="-0.83764">
        <ele>110</ele>
        <time>2015-03-16T08:58:22Z</time>
      </trkpt>
      <trkpt lat="47.02268" lon="-0.83762">
        <ele>110</ele>
        <time>2015-03-16T08:58:24Z</time>
      </trkpt>
      <trkpt lat="47.02271" lon="-0.8376">
        <ele>110</ele>
        <time>2015-03-16T08:58:26Z</time>
      </trkpt>
      <trkpt lat="47.02273" lon="-0.83758">
        <ele>110</ele>
        <time>2015-03-16T08:58:28Z</time>
      </trkpt>
      <trkpt lat="47.02275" lon="-0.83756">
        <ele>110</ele>
        <time>2015-03-16T08:58:30Z</time>
      </trkpt>
      <trkpt lat="47.02277" lon="-0.83754">
        <ele>110</ele>
        <time>2015-03-16T08:58:32Z</time>
      </trkpt>
      <trkpt lat="47.02279" lon="-0.83751">
        <ele>110</ele>
        <time>2015-03-16T08:58:34Z</time>
      </trkpt>
      <trkpt lat="47.0228" lon="-0.83749">
        <ele>110</ele>
        <time>2015-03-16T08:58:36Z</time>
      </trkpt>
      <trkpt lat="47.02283" lon="-0.83747">
        <ele>110</ele>
        <time>2015-03-16T08:58:38Z</time>
      </trkpt>
      <trkpt lat="47.02285" lon="-0.83745">
        <ele>110</ele>
        <time>2015-03-16T08:58:40Z</time>
      </trkpt>
      <trkpt lat="47.02287" lon="-0.83743">
        <ele>110</ele>
        <time>2015-03-16T08:58:42Z</time>
      </trkpt>
      <trkpt lat="47.0229" lon="-0.8374">
        <ele>110</ele>
        <time>2015-03-16T08:58:45Z</time>
      </trkpt>
      <trkpt lat="47.02293" lon="-0.83737">
        <ele>110</ele>
        <time>2015-03-16T08:58:47Z</time>
      </trkpt>
      <trkpt lat="47.02295" lon="-0.83736">
        <ele>110</ele>
        <time>2015-03-16T08:58:49Z</time>
      </trkpt>
      <trkpt lat="47.02296" lon="-0.83733">
        <ele>110</ele>
        <time>2015-03-16T08:58:51Z</time>
      </trkpt>
      <trkpt lat="47.02298" lon="-0.83731">
        <ele>110</ele>
        <time>2015-03-16T08:58:53Z</time>
      </trkpt>
      <trkpt lat="47.023" lon="-0.83728">
        <ele>110</ele>
        <time>2015-03-16T08:58:55Z</time>
      </trkpt>
      <trkpt lat="47.02302" lon="-0.83727">
        <ele>110</ele>
        <time>2015-03-16T08:58:57Z</time>
      </trkpt>
      <trkpt lat="47.02304" lon="-0.83725">
        <ele>110</ele>
        <time>2015-03-16T08:58:59Z</time>
      </trkpt>
      <trkpt lat="47.02306" lon="-0.83723">
        <ele>110</ele>
        <time>2015-03-16T08:59:01Z</time>
      </trkpt>
      <trkpt lat="47.02308" lon="-0.8372">
        <ele>110</ele>
        <time>2015-03-16T08:59:03Z</time>
      </trkpt>
      <trkpt lat="47.02309" lon="-0.83719">
        <ele>110</ele>
        <time>2015-03-16T08:59:05Z</time>
      </trkpt>
      <trkpt lat="47.02312" lon="-0.83715">
        <ele>110</ele>
        <time>2015-03-16T08:59:08Z</time>
      </trkpt>
      <trkpt lat="47.02314" lon="-0.83713">
        <ele>110</ele>
        <time>2015-03-16T08:59:10Z</time>
      </trkpt>
      <trkpt lat="47.02317" lon="-0.8371">
        <ele>110</ele>
        <time>2015-03-16T08:59:12Z</time>
      </trkpt>
      <trkpt lat="47.02319" lon="-0.83708">
        <ele>110</ele>
        <time>2015-03-16T08:59:14Z</time>
      </trkpt>
      <trkpt lat="47.02322" lon="-0.83706">
        <ele>110</ele>
        <time>2015-03-16T08:59:16Z</time>
      </trkpt>
      <trkpt lat="47.02323" lon="-0.83704">
        <ele>110</ele>
        <time>2015-03-16T08:59:18Z</time>
      </trkpt>
      <trkpt lat="47.02327" lon="-0.83701">
        <ele>110</ele>
        <time>2015-03-16T08:59:21Z</time>
      </trkpt>
      <trkpt lat="47.02328" lon="-0.83698">
        <ele>110</ele>
        <time>2015-03-16T08:59:23Z</time>
      </trkpt>
      <trkpt lat="47.02331" lon="-0.83696">
        <ele>110</ele>
        <time>2015-03-16T08:59:25Z</time>
      </trkpt>
      <trkpt lat="47.02333" lon="-0.83694">
        <ele>110</ele>
        <time>2015-03-16T08:59:27Z</time>
      </trkpt>
      <trkpt lat="47.02335" lon="-0.83692">
        <ele>110</ele>
        <time>2015-03-16T08:59:29Z</time>
      </trkpt>
      <trkpt lat="47.02337" lon="-0.83689">
        <ele>110</ele>
        <time>2015-03-16T08:59:31Z</time>
      </trkpt>
      <trkpt lat="47.02339" lon="-0.83688">
        <ele>110</ele>
        <time>2015-03-16T08:59:33Z</time>
      </trkpt>
      <trkpt lat="47.02343" lon="-0.83684">
        <ele>110</ele>
        <time>2015-03-16T08:59:36Z</time>
      </trkpt>
      <trkpt lat="47.02346" lon="-0.83681">
        <ele>110</ele>
        <time>2015-03-16T08:59:39Z</time>
      </trkpt>
      <trkpt lat="47.02348" lon="-0.83679">
        <ele>110</ele>
        <time>2015-03-16T08:59:41Z</time>
      </trkpt>
      <trkpt lat="47.02351" lon="-0.83676">
        <ele>110</ele>
        <time>2015-03-16T08:59:43Z</time>
      </trkpt>
      <trkpt lat="47.02353" lon="-0.83675">
        <ele>110</ele>
        <time>2015-03-16T08:59:45Z</time>
      </trkpt>
      <trkpt lat="47.02355" lon="-0.83672">
        <ele>110</ele>
        <time>2015-03-16T08:59:47Z</time>
      </trkpt>
      <trkpt lat="47.02357" lon="-0.8367">
        <ele>110</ele>
        <time>2015-03-16T08:59:49Z</time>
      </trkpt>
      <trkpt lat="47.0236" lon="-0.83668">
        <ele>110</ele>
        <time>2015-03-16T08:59:51Z</time>
      </trkpt>
      <trkpt lat="47.02363" lon="-0.83666">
        <ele>110</ele>
        <time>2015-03-16T08:59:54Z</time>
      </trkpt>
      <trkpt lat="47.02365" lon="-0.83664">
        <ele>110</ele>
        <time>2015-03-16T08:59:56Z</time>
      </trkpt>
      <trkpt lat="47.02367" lon="-0.83662">
        <ele>110</ele>
        <time>2015-03-16T08:59:58Z</time>
      </trkpt>
      <trkpt lat="47.02369" lon="-0.83659">
        <ele>110</ele>
        <time>2015-03-16T09:00:00Z</time>
      </trkpt>
      <trkpt lat="47.02371" lon="-0.83657">
        <ele>110</ele>
        <time>2015-03-16T09:00:02Z</time>
      </trkpt>
      <trkpt lat="47.02373" lon="-0.83654">
        <ele>110</ele>
        <time>2015-03-16T09:00:04Z</time>
      </trkpt>
      <trkpt lat="47.02375" lon="-0.83652">
        <ele>110</ele>
        <time>2015-03-16T09:00:06Z</time>
      </trkpt>
      <trkpt lat="47.02377" lon="-0.83649">
        <ele>110</ele>
        <time>2015-03-16T09:00:08Z</time>
      </trkpt>
      <trkpt lat="47.02379" lon="-0.83648">
        <ele>110</ele>
        <time>2015-03-16T09:00:10Z</time>
      </trkpt>
      <trkpt lat="47.02381" lon="-0.83646">
        <ele>110</ele>
        <time>2015-03-16T09:00:12Z</time>
      </trkpt>
      <trkpt lat="47.02383" lon="-0.83644">
        <ele>110</ele>
        <time>2015-03-16T09:00:14Z</time>
      </trkpt>
      <trkpt lat="47.02386" lon="-0.83641">
        <ele>110</ele>
        <time>2015-03-16T09:00:16Z</time>
      </trkpt>
      <trkpt lat="47.02388" lon="-0.83639">
        <ele>110</ele>
        <time>2015-03-16T09:00:18Z</time>
      </trkpt>
      <trkpt lat="47.02391" lon="-0.83637">
        <ele>110</ele>
        <time>2015-03-16T09:00:20Z</time>
      </trkpt>
      <trkpt lat="47.02393" lon="-0.83635">
        <ele>110</ele>
        <time>2015-03-16T09:00:22Z</time>
      </trkpt>
      <trkpt lat="47.02395" lon="-0.83632">
        <ele>110</ele>
        <time>2015-03-16T09:00:24Z</time>
      </trkpt>
      <trkpt lat="47.02398" lon="-0.83628">
        <ele>110</ele>
        <time>2015-03-16T09:00:27Z</time>
      </trkpt>
      <trkpt lat="47.02401" lon="-0.83626">
        <ele>110</ele>
        <time>2015-03-16T09:00:29Z</time>
      </trkpt>
      <trkpt lat="47.02402" lon="-0.83624">
        <ele>110</ele>
        <time>2015-03-16T09:00:31Z</time>
      </trkpt>
      <trkpt lat="47.02405" lon="-0.83622">
        <ele>110</ele>
        <time>2015-03-16T09:00:33Z</time>
      </trkpt>
      <trkpt lat="47.02407" lon="-0.8362">
        <ele>110</ele>
        <time>2015-03-16T09:00:35Z</time>
      </trkpt>
      <trkpt lat="47.02409" lon="-0.83618">
        <ele>110</ele>
        <time>2015-03-16T09:00:37Z</time>
      </trkpt>
      <trkpt lat="47.02412" lon="-0.83616">
        <ele>110</ele>
        <time>2015-03-16T09:00:39Z</time>
      </trkpt>
      <trkpt lat="47.02415" lon="-0.83612">
        <ele>110</ele>
        <time>2015-03-16T09:00:42Z</time>
      </trkpt>
      <trkpt lat="47.02417" lon="-0.8361">
        <ele>110</ele>
        <time>2015-03-16T09:00:44Z</time>
      </trkpt>
      <trkpt lat="47.02419" lon="-0.83608">
        <ele>110</ele>
        <time>2015-03-16T09:00:46Z</time>
      </trkpt>
      <trkpt lat="47.02422" lon="-0.83605">
        <ele>110</ele>
        <time>2015-03-16T09:00:48Z</time>
      </trkpt>
      <trkpt lat="47.02424" lon="-0.83604">
        <ele>110</ele>
        <time>2015-03-16T09:00:50Z</time>
      </trkpt>
      <trkpt lat="47.02426" lon="-0.83602">
        <ele>110</ele>
        <time>2015-03-16T09:00:52Z</time>
      </trkpt>
      <trkpt lat="47.02429" lon="-0.83599">
        <ele>110</ele>
        <time>2015-03-16T09:00:55Z</time>
      </trkpt>
      <trkpt lat="47.02432" lon="-0.83597">
        <ele>110</ele>
        <time>2015-03-16T09:00:57Z</time>
      </trkpt>
      <trkpt lat="47.02434" lon="-0.83595">
        <ele>110</ele>
        <time>2015-03-16T09:00:59Z</time>
      </trkpt>
      <trkpt lat="47.02436" lon="-0.83593">
        <ele>110</ele>
        <time>2015-03-16T09:01:01Z</time>
      </trkpt>
      <trkpt lat="47.02438" lon="-0.83591">
        <ele>110</ele>
        <time>2015-03-16T09:01:03Z</time>
      </trkpt>
      <trkpt lat="47.0244" lon="-0.83588">
        <ele>110</ele>
        <time>2015-03-16T09:01:05Z</time>
      </trkpt>
      <trkpt lat="47.02443" lon="-0.83586">
        <ele>110</ele>
        <time>2015-03-16T09:01:07Z</time>
      </trkpt>
      <trkpt lat="47.02445" lon="-0.83584">
        <ele>110</ele>
        <time>2015-03-16T09:01:09Z</time>
      </trkpt>
      <trkpt lat="47.02448" lon="-0.83581">
        <ele>110</ele>
        <time>2015-03-16T09:01:12Z</time>
      </trkpt>
      <trkpt lat="47.02451" lon="-0.83578">
        <ele>110</ele>
        <time>2015-03-16T09:01:14Z</time>
      </trkpt>
      <trkpt lat="47.02453" lon="-0.83576">
        <ele>110</ele>
        <time>2015-03-16T09:01:16Z</time>
      </trkpt>
      <trkpt lat="47.02455" lon="-0.83574">
        <ele>110</ele>
        <time>2015-03-16T09:01:18Z</time>
      </trkpt>
      <trkpt lat="47.02457" lon="-0.83571">
        <ele>110</ele>
        <time>2015-03-16T09:01:20Z</time>
      </trkpt>
      <trkpt lat="47.02459" lon="-0.83569">
        <ele>110</ele>
        <time>2015-03-16T09:01:22Z</time>
      </trkpt>
      <trkpt lat="47.02461" lon="-0.83567">
        <ele>110</ele>
        <time>2015-03-16T09:01:24Z</time>
      </trkpt>
      <trkpt lat="47.02463" lon="-0.83564">
        <ele>110</ele>
        <time>2015-03-16T09:01:26Z</time>
      </trkpt>
      <trkpt lat="47.02465" lon="-0.83562">
        <ele>110</ele>
        <time>2015-03-16T09:01:28Z</time>
      </trkpt>
      <trkpt lat="47.02467" lon="-0.83561">
        <ele>110</ele>
        <time>2015-03-16T09:01:30Z</time>
      </trkpt>
      <trkpt lat="47.0247" lon="-0.83558">
        <ele>110</ele>
        <time>2015-03-16T09:01:32Z</time>
      </trkpt>
      <trkpt lat="47.02472" lon="-0.83556">
        <ele>110</ele>
        <time>2015-03-16T09:01:34Z</time>
      </trkpt>
      <trkpt lat="47.02475" lon="-0.83553">
        <ele>110</ele>
        <time>2015-03-16T09:01:36Z</time>
      </trkpt>
      <trkpt lat="47.02477" lon="-0.83551">
        <ele>110</ele>
        <time>2015-03-16T09:01:38Z</time>
      </trkpt>
      <trkpt lat="47.0248" lon="-0.83549">
        <ele>110</ele>
        <time>2015-03-16T09:01:40Z</time>
      </trkpt>
      <trkpt lat="47.02482" lon="-0.83547">
        <ele>110</ele>
        <time>2015-03-16T09:01:42Z</time>
      </trkpt>
      <trkpt lat="47.02484" lon="-0.83544">
        <ele>110</ele>
        <time>2015-03-16T09:01:44Z</time>
      </trkpt>
      <trkpt lat="47.02486" lon="-0.83542">
        <ele>110</ele>
        <time>2015-03-16T09:01:46Z</time>
      </trkpt>
      <trkpt lat="47.0249" lon="-0.83538">
        <ele>110</ele>
        <time>2015-03-16T09:01:49Z</time>
      </trkpt>
      <trkpt lat="47.02492" lon="-0.83536">
        <ele>110</ele>
        <time>2015-03-16T09:01:51Z</time>
      </trkpt>
      <trkpt lat="47.02494" lon="-0.83534">
        <ele>110</ele>
        <time>2015-03-16T09:01:53Z</time>
      </trkpt>
      <trkpt lat="47.02496" lon="-0.83531">
        <ele>110</ele>
        <time>2015-03-16T09:01:55Z</time>
      </trkpt>
      <trkpt lat="47.02498" lon="-0.83529">
        <ele>110</ele>
        <time>2015-03-16T09:01:57Z</time>
      </trkpt>
      <trkpt lat="47.025" lon="-0.83527">
        <ele>110</ele>
        <time>2015-03-16T09:01:59Z</time>
      </trkpt>
      <trkpt lat="47.02502" lon="-0.83526">
        <ele>109</ele>
        <time>2015-03-16T09:02:01Z</time>
      </trkpt>
      <trkpt lat="47.02504" lon="-0.83523">
        <ele>109</ele>
        <time>2015-03-16T09:02:03Z</time>
      </trkpt>
      <trkpt lat="47.02507" lon="-0.8352">
        <ele>109</ele>
        <time>2015-03-16T09:02:06Z</time>
      </trkpt>
      <trkpt lat="47.0251" lon="-0.83517">
        <ele>109</ele>
        <time>2015-03-16T09:02:09Z</time>
      </trkpt>
      <trkpt lat="47.02512" lon="-0.83515">
        <ele>109</ele>
        <time>2015-03-16T09:02:11Z</time>
      </trkpt>
      <trkpt lat="47.02515" lon="-0.83511">
        <ele>108</ele>
        <time>2015-03-16T09:02:14Z</time>
      </trkpt>
      <trkpt lat="47.02517" lon="-0.83509">
        <ele>108</ele>
        <time>2015-03-16T09:02:16Z</time>
      </trkpt>
      <trkpt lat="47.0252" lon="-0.83508">
        <ele>108</ele>
        <time>2015-03-16T09:02:18Z</time>
      </trkpt>
      <trkpt lat="47.02522" lon="-0.83505">
        <ele>108</ele>
        <time>2015-03-16T09:02:20Z</time>
      </trkpt>
      <trkpt lat="47.02525" lon="-0.83501">
        <ele>108</ele>
        <time>2015-03-16T09:02:23Z</time>
      </trkpt>
      <trkpt lat="47.02527" lon="-0.83499">
        <ele>108</ele>
        <time>2015-03-16T09:02:25Z</time>
      </trkpt>
      <trkpt lat="47.02529" lon="-0.83497">
        <ele>108</ele>
        <time>2015-03-16T09:02:27Z</time>
      </trkpt>
      <trkpt lat="47.02531" lon="-0.83495">
        <ele>108</ele>
        <time>2015-03-16T09:02:29Z</time>
      </trkpt>
      <trkpt lat="47.02533" lon="-0.83493">
        <ele>108</ele>
        <time>2015-03-16T09:02:31Z</time>
      </trkpt>
      <trkpt lat="47.02535" lon="-0.83491">
        <ele>108</ele>
        <time>2015-03-16T09:02:33Z</time>
      </trkpt>
      <trkpt lat="47.02539" lon="-0.83487">
        <ele>107</ele>
        <time>2015-03-16T09:02:36Z</time>
      </trkpt>
      <trkpt lat="47.02541" lon="-0.83486">
        <ele>107</ele>
        <time>2015-03-16T09:02:38Z</time>
      </trkpt>
      <trkpt lat="47.02543" lon="-0.83483">
        <ele>107</ele>
        <time>2015-03-16T09:02:40Z</time>
      </trkpt>
      <trkpt lat="47.02546" lon="-0.83479">
        <ele>107</ele>
        <time>2015-03-16T09:02:43Z</time>
      </trkpt>
      <trkpt lat="47.02548" lon="-0.83477">
        <ele>107</ele>
        <time>2015-03-16T09:02:45Z</time>
      </trkpt>
      <trkpt lat="47.0255" lon="-0.83475">
        <ele>107</ele>
        <time>2015-03-16T09:02:47Z</time>
      </trkpt>
      <trkpt lat="47.02552" lon="-0.83473">
        <ele>107</ele>
        <time>2015-03-16T09:02:49Z</time>
      </trkpt>
      <trkpt lat="47.02555" lon="-0.8347">
        <ele>107</ele>
        <time>2015-03-16T09:02:52Z</time>
      </trkpt>
      <trkpt lat="47.02559" lon="-0.83467">
        <ele>107</ele>
        <time>2015-03-16T09:02:55Z</time>
      </trkpt>
      <trkpt lat="47.02561" lon="-0.83465">
        <ele>107</ele>
        <time>2015-03-16T09:02:57Z</time>
      </trkpt>
      <trkpt lat="47.02563" lon="-0.83462">
        <ele>107</ele>
        <time>2015-03-16T09:02:59Z</time>
      </trkpt>
      <trkpt lat="47.02565" lon="-0.8346">
        <ele>107</ele>
        <time>2015-03-16T09:03:01Z</time>
      </trkpt>
      <trkpt lat="47.02567" lon="-0.83458">
        <ele>107</ele>
        <time>2015-03-16T09:03:03Z</time>
      </trkpt>
      <trkpt lat="47.02569" lon="-0.83456">
        <ele>107</ele>
        <time>2015-03-16T09:03:05Z</time>
      </trkpt>
      <trkpt lat="47.02571" lon="-0.83454">
        <ele>107</ele>
        <time>2015-03-16T09:03:07Z</time>
      </trkpt>
      <trkpt lat="47.02574" lon="-0.83451">
        <ele>107</ele>
        <time>2015-03-16T09:03:09Z</time>
      </trkpt>
      <trkpt lat="47.02576" lon="-0.83449">
        <ele>107</ele>
        <time>2015-03-16T09:03:11Z</time>
      </trkpt>
      <trkpt lat="47.02578" lon="-0.83447">
        <ele>107</ele>
        <time>2015-03-16T09:03:13Z</time>
      </trkpt>
      <trkpt lat="47.02581" lon="-0.83445">
        <ele>107</ele>
        <time>2015-03-16T09:03:15Z</time>
      </trkpt>
      <trkpt lat="47.02583" lon="-0.83443">
        <ele>107</ele>
        <time>2015-03-16T09:03:17Z</time>
      </trkpt>
      <trkpt lat="47.02586" lon="-0.83439">
        <ele>107</ele>
        <time>2015-03-16T09:03:20Z</time>
      </trkpt>
      <trkpt lat="47.02589" lon="-0.83438">
        <ele>107</ele>
        <time>2015-03-16T09:03:22Z</time>
      </trkpt>
      <trkpt lat="47.02591" lon="-0.83436">
        <ele>107</ele>
        <time>2015-03-16T09:03:24Z</time>
      </trkpt>
      <trkpt lat="47.02593" lon="-0.83433">
        <ele>107</ele>
        <time>2015-03-16T09:03:26Z</time>
      </trkpt>
      <trkpt lat="47.02597" lon="-0.83429">
        <ele>107</ele>
        <time>2015-03-16T09:03:29Z</time>
      </trkpt>
      <trkpt lat="47.02599" lon="-0.83428">
        <ele>107</ele>
        <time>2015-03-16T09:03:31Z</time>
      </trkpt>
      <trkpt lat="47.02601" lon="-0.83425">
        <ele>107</ele>
        <time>2015-03-16T09:03:33Z</time>
      </trkpt>
      <trkpt lat="47.02604" lon="-0.83422">
        <ele>107</ele>
        <time>2015-03-16T09:03:36Z</time>
      </trkpt>
      <trkpt lat="47.02606" lon="-0.8342">
        <ele>107</ele>
        <time>2015-03-16T09:03:38Z</time>
      </trkpt>
      <trkpt lat="47.02608" lon="-0.83418">
        <ele>106</ele>
        <time>2015-03-16T09:03:40Z</time>
      </trkpt>
      <trkpt lat="47.0261" lon="-0.83416">
        <ele>106</ele>
        <time>2015-03-16T09:03:42Z</time>
      </trkpt>
      <trkpt lat="47.02613" lon="-0.83413">
        <ele>106</ele>
        <time>2015-03-16T09:03:44Z</time>
      </trkpt>
      <trkpt lat="47.02615" lon="-0.83411">
        <ele>106</ele>
        <time>2015-03-16T09:03:46Z</time>
      </trkpt>
      <trkpt lat="47.02617" lon="-0.83409">
        <ele>106</ele>
        <time>2015-03-16T09:03:48Z</time>
      </trkpt>
      <trkpt lat="47.02619" lon="-0.83407">
        <ele>106</ele>
        <time>2015-03-16T09:03:50Z</time>
      </trkpt>
      <trkpt lat="47.02621" lon="-0.83405">
        <ele>106</ele>
        <time>2015-03-16T09:03:52Z</time>
      </trkpt>
      <trkpt lat="47.02623" lon="-0.83403">
        <ele>106</ele>
        <time>2015-03-16T09:03:54Z</time>
      </trkpt>
      <trkpt lat="47.02626" lon="-0.83401">
        <ele>106</ele>
        <time>2015-03-16T09:03:56Z</time>
      </trkpt>
      <trkpt lat="47.02629" lon="-0.83398">
        <ele>106</ele>
        <time>2015-03-16T09:03:59Z</time>
      </trkpt>
      <trkpt lat="47.02631" lon="-0.83396">
        <ele>106</ele>
        <time>2015-03-16T09:04:01Z</time>
      </trkpt>
      <trkpt lat="47.02634" lon="-0.83393">
        <ele>106</ele>
        <time>2015-03-16T09:04:03Z</time>
      </trkpt>
      <trkpt lat="47.02636" lon="-0.83391">
        <ele>106</ele>
        <time>2015-03-16T09:04:05Z</time>
      </trkpt>
      <trkpt lat="47.02638" lon="-0.83389">
        <ele>106</ele>
        <time>2015-03-16T09:04:07Z</time>
      </trkpt>
      <trkpt lat="47.02641" lon="-0.83387">
        <ele>106</ele>
        <time>2015-03-16T09:04:09Z</time>
      </trkpt>
      <trkpt lat="47.02643" lon="-0.83385">
        <ele>106</ele>
        <time>2015-03-16T09:04:11Z</time>
      </trkpt>
      <trkpt lat="47.02645" lon="-0.83382">
        <ele>106</ele>
        <time>2015-03-16T09:04:13Z</time>
      </trkpt>
      <trkpt lat="47.02647" lon="-0.8338">
        <ele>106</ele>
        <time>2015-03-16T09:04:15Z</time>
      </trkpt>
      <trkpt lat="47.0265" lon="-0.83378">
        <ele>106</ele>
        <time>2015-03-16T09:04:17Z</time>
      </trkpt>
      <trkpt lat="47.02652" lon="-0.83376">
        <ele>106</ele>
        <time>2015-03-16T09:04:19Z</time>
      </trkpt>
      <trkpt lat="47.02654" lon="-0.83373">
        <ele>106</ele>
        <time>2015-03-16T09:04:21Z</time>
      </trkpt>
      <trkpt lat="47.02656" lon="-0.83371">
        <ele>106</ele>
        <time>2015-03-16T09:04:23Z</time>
      </trkpt>
      <trkpt lat="47.02658" lon="-0.83369">
        <ele>105</ele>
        <time>2015-03-16T09:04:25Z</time>
      </trkpt>
      <trkpt lat="47.0266" lon="-0.83367">
        <ele>105</ele>
        <time>2015-03-16T09:04:27Z</time>
      </trkpt>
      <trkpt lat="47.02662" lon="-0.83365">
        <ele>105</ele>
        <time>2015-03-16T09:04:29Z</time>
      </trkpt>
      <trkpt lat="47.02665" lon="-0.83362">
        <ele>105</ele>
        <time>2015-03-16T09:04:31Z</time>
      </trkpt>
      <trkpt lat="47.02667" lon="-0.8336">
        <ele>105</ele>
        <time>2015-03-16T09:04:33Z</time>
      </trkpt>
      <trkpt lat="47.02669" lon="-0.83358">
        <ele>105</ele>
        <time>2015-03-16T09:04:35Z</time>
      </trkpt>
      <trkpt lat="47.02671" lon="-0.83356">
        <ele>105</ele>
        <time>2015-03-16T09:04:37Z</time>
      </trkpt>
      <trkpt lat="47.02673" lon="-0.83354">
        <ele>105</ele>
        <time>2015-03-16T09:04:39Z</time>
      </trkpt>
      <trkpt lat="47.02676" lon="-0.83351">
        <ele>105</ele>
        <time>2015-03-16T09:04:41Z</time>
      </trkpt>
      <trkpt lat="47.02678" lon="-0.83349">
        <ele>105</ele>
        <time>2015-03-16T09:04:43Z</time>
      </trkpt>
      <trkpt lat="47.02681" lon="-0.83346">
        <ele>105</ele>
        <time>2015-03-16T09:04:46Z</time>
      </trkpt>
      <trkpt lat="47.02683" lon="-0.83344">
        <ele>105</ele>
        <time>2015-03-16T09:04:48Z</time>
      </trkpt>
      <trkpt lat="47.02686" lon="-0.83342">
        <ele>105</ele>
        <time>2015-03-16T09:04:50Z</time>
      </trkpt>
      <trkpt lat="47.02688" lon="-0.83339">
        <ele>105</ele>
        <time>2015-03-16T09:04:52Z</time>
      </trkpt>
      <trkpt lat="47.02691" lon="-0.83336">
        <ele>105</ele>
        <time>2015-03-16T09:04:55Z</time>
      </trkpt>
      <trkpt lat="47.02693" lon="-0.83335">
        <ele>105</ele>
        <time>2015-03-16T09:04:57Z</time>
      </trkpt>
      <trkpt lat="47.02695" lon="-0.83333">
        <ele>105</ele>
        <time>2015-03-16T09:04:59Z</time>
      </trkpt>
      <trkpt lat="47.02697" lon="-0.8333">
        <ele>105</ele>
        <time>2015-03-16T09:05:01Z</time>
      </trkpt>
      <trkpt lat="47.02699" lon="-0.83328">
        <ele>104</ele>
        <time>2015-03-16T09:05:03Z</time>
      </trkpt>
      <trkpt lat="47.02701" lon="-0.83326">
        <ele>104</ele>
        <time>2015-03-16T09:05:05Z</time>
      </trkpt>
      <trkpt lat="47.02703" lon="-0.83324">
        <ele>104</ele>
        <time>2015-03-16T09:05:07Z</time>
      </trkpt>
      <trkpt lat="47.02706" lon="-0.83321">
        <ele>104</ele>
        <time>2015-03-16T09:05:09Z</time>
      </trkpt>
      <trkpt lat="47.02708" lon="-0.83319">
        <ele>104</ele>
        <time>2015-03-16T09:05:11Z</time>
      </trkpt>
      <trkpt lat="47.0271" lon="-0.83316">
        <ele>104</ele>
        <time>2015-03-16T09:05:13Z</time>
      </trkpt>
      <trkpt lat="47.02714" lon="-0.83311">
        <ele>104</ele>
        <time>2015-03-16T09:05:17Z</time>
      </trkpt>
      <trkpt lat="47.02716" lon="-0.83309">
        <ele>104</ele>
        <time>2015-03-16T09:05:19Z</time>
      </trkpt>
      <trkpt lat="47.02718" lon="-0.83307">
        <ele>104</ele>
        <time>2015-03-16T09:05:21Z</time>
      </trkpt>
      <trkpt lat="47.02721" lon="-0.83305">
        <ele>104</ele>
        <time>2015-03-16T09:05:23Z</time>
      </trkpt>
      <trkpt lat="47.02723" lon="-0.83302">
        <ele>104</ele>
        <time>2015-03-16T09:05:25Z</time>
      </trkpt>
      <trkpt lat="47.02726" lon="-0.833">
        <ele>104</ele>
        <time>2015-03-16T09:05:28Z</time>
      </trkpt>
      <trkpt lat="47.02729" lon="-0.83297">
        <ele>104</ele>
        <time>2015-03-16T09:05:30Z</time>
      </trkpt>
      <trkpt lat="47.02732" lon="-0.83294">
        <ele>104</ele>
        <time>2015-03-16T09:05:33Z</time>
      </trkpt>
      <trkpt lat="47.02734" lon="-0.83292">
        <ele>104</ele>
        <time>2015-03-16T09:05:35Z</time>
      </trkpt>
      <trkpt lat="47.02737" lon="-0.8329">
        <ele>104</ele>
        <time>2015-03-16T09:05:37Z</time>
      </trkpt>
      <trkpt lat="47.02739" lon="-0.83288">
        <ele>104</ele>
        <time>2015-03-16T09:05:39Z</time>
      </trkpt>
      <trkpt lat="47.02741" lon="-0.83285">
        <ele>104</ele>
        <time>2015-03-16T09:05:41Z</time>
      </trkpt>
      <trkpt lat="47.02745" lon="-0.83282">
        <ele>104</ele>
        <time>2015-03-16T09:05:44Z</time>
      </trkpt>
      <trkpt lat="47.02747" lon="-0.8328">
        <ele>104</ele>
        <time>2015-03-16T09:05:46Z</time>
      </trkpt>
      <trkpt lat="47.02748" lon="-0.83278">
        <ele>104</ele>
        <time>2015-03-16T09:05:48Z</time>
      </trkpt>
      <trkpt lat="47.02751" lon="-0.83275">
        <ele>104</ele>
        <time>2015-03-16T09:05:50Z</time>
      </trkpt>
      <trkpt lat="47.02754" lon="-0.83273">
        <ele>104</ele>
        <time>2015-03-16T09:05:52Z</time>
      </trkpt>
      <trkpt lat="47.02757" lon="-0.8327">
        <ele>104</ele>
        <time>2015-03-16T09:05:55Z</time>
      </trkpt>
      <trkpt lat="47.02759" lon="-0.83268">
        <ele>104</ele>
        <time>2015-03-16T09:05:57Z</time>
      </trkpt>
      <trkpt lat="47.02763" lon="-0.83264">
        <ele>104</ele>
        <time>2015-03-16T09:06:00Z</time>
      </trkpt>
      <trkpt lat="47.02765" lon="-0.83262">
        <ele>104</ele>
        <time>2015-03-16T09:06:02Z</time>
      </trkpt>
      <trkpt lat="47.02767" lon="-0.8326">
        <ele>103</ele>
        <time>2015-03-16T09:06:04Z</time>
      </trkpt>
      <trkpt lat="47.02769" lon="-0.83258">
        <ele>103</ele>
        <time>2015-03-16T09:06:06Z</time>
      </trkpt>
      <trkpt lat="47.02772" lon="-0.83254">
        <ele>103</ele>
        <time>2015-03-16T09:06:09Z</time>
      </trkpt>
      <trkpt lat="47.02775" lon="-0.83251">
        <ele>103</ele>
        <time>2015-03-16T09:06:12Z</time>
      </trkpt>
      <trkpt lat="47.02777" lon="-0.83249">
        <ele>103</ele>
        <time>2015-03-16T09:06:14Z</time>
      </trkpt>
      <trkpt lat="47.02779" lon="-0.83247">
        <ele>103</ele>
        <time>2015-03-16T09:06:16Z</time>
      </trkpt>
      <trkpt lat="47.02782" lon="-0.83244">
        <ele>103</ele>
        <time>2015-03-16T09:06:18Z</time>
      </trkpt>
      <trkpt lat="47.02786" lon="-0.83239">
        <ele>103</ele>
        <time>2015-03-16T09:06:22Z</time>
      </trkpt>
      <trkpt lat="47.02789" lon="-0.83237">
        <ele>103</ele>
        <time>2015-03-16T09:06:25Z</time>
      </trkpt>
      <trkpt lat="47.02792" lon="-0.83234">
        <ele>103</ele>
        <time>2015-03-16T09:06:27Z</time>
      </trkpt>
      <trkpt lat="47.02794" lon="-0.83232">
        <ele>103</ele>
        <time>2015-03-16T09:06:29Z</time>
      </trkpt>
      <trkpt lat="47.02797" lon="-0.8323">
        <ele>103</ele>
        <time>2015-03-16T09:06:31Z</time>
      </trkpt>
      <trkpt lat="47.02798" lon="-0.83228">
        <ele>103</ele>
        <time>2015-03-16T09:06:33Z</time>
      </trkpt>
      <trkpt lat="47.02801" lon="-0.83226">
        <ele>102</ele>
        <time>2015-03-16T09:06:35Z</time>
      </trkpt>
      <trkpt lat="47.02804" lon="-0.83222">
        <ele>102</ele>
        <time>2015-03-16T09:06:38Z</time>
      </trkpt>
      <trkpt lat="47.02806" lon="-0.8322">
        <ele>102</ele>
        <time>2015-03-16T09:06:40Z</time>
      </trkpt>
      <trkpt lat="47.0281" lon="-0.83217">
        <ele>102</ele>
        <time>2015-03-16T09:06:43Z</time>
      </trkpt>
      <trkpt lat="47.02811" lon="-0.83214">
        <ele>101</ele>
        <time>2015-03-16T09:06:45Z</time>
      </trkpt>
      <trkpt lat="47.02814" lon="-0.83212">
        <ele>101</ele>
        <time>2015-03-16T09:06:47Z</time>
      </trkpt>
      <trkpt lat="47.02816" lon="-0.83209">
        <ele>101</ele>
        <time>2015-03-16T09:06:49Z</time>
      </trkpt>
      <trkpt lat="47.02819" lon="-0.83206">
        <ele>101</ele>
        <time>2015-03-16T09:06:52Z</time>
      </trkpt>
      <trkpt lat="47.02821" lon="-0.83204">
        <ele>101</ele>
        <time>2015-03-16T09:06:54Z</time>
      </trkpt>
      <trkpt lat="47.02823" lon="-0.83202">
        <ele>101</ele>
        <time>2015-03-16T09:06:56Z</time>
      </trkpt>
      <trkpt lat="47.02826" lon="-0.83198">
        <ele>101</ele>
        <time>2015-03-16T09:06:59Z</time>
      </trkpt>
      <trkpt lat="47.02828" lon="-0.83196">
        <ele>101</ele>
        <time>2015-03-16T09:07:01Z</time>
      </trkpt>
      <trkpt lat="47.0283" lon="-0.83195">
        <ele>101</ele>
        <time>2015-03-16T09:07:03Z</time>
      </trkpt>
      <trkpt lat="47.02832" lon="-0.83192">
        <ele>101</ele>
        <time>2015-03-16T09:07:05Z</time>
      </trkpt>
      <trkpt lat="47.02835" lon="-0.8319">
        <ele>101</ele>
        <time>2015-03-16T09:07:07Z</time>
      </trkpt>
      <trkpt lat="47.02837" lon="-0.83187">
        <ele>101</ele>
        <time>2015-03-16T09:07:09Z</time>
      </trkpt>
      <trkpt lat="47.02839" lon="-0.83185">
        <ele>101</ele>
        <time>2015-03-16T09:07:11Z</time>
      </trkpt>
      <trkpt lat="47.02841" lon="-0.83183">
        <ele>101</ele>
        <time>2015-03-16T09:07:13Z</time>
      </trkpt>
      <trkpt lat="47.02845" lon="-0.83179">
        <ele>101</ele>
        <time>2015-03-16T09:07:16Z</time>
      </trkpt>
      <trkpt lat="47.02847" lon="-0.83177">
        <ele>101</ele>
        <time>2015-03-16T09:07:18Z</time>
      </trkpt>
      <trkpt lat="47.02849" lon="-0.83175">
        <ele>101</ele>
        <time>2015-03-16T09:07:20Z</time>
      </trkpt>
      <trkpt lat="47.02851" lon="-0.83173">
        <ele>101</ele>
        <time>2015-03-16T09:07:22Z</time>
      </trkpt>
      <trkpt lat="47.02853" lon="-0.8317">
        <ele>101</ele>
        <time>2015-03-16T09:07:24Z</time>
      </trkpt>
      <trkpt lat="47.02856" lon="-0.83168">
        <ele>101</ele>
        <time>2015-03-16T09:07:26Z</time>
      </trkpt>
      <trkpt lat="47.02858" lon="-0.83166">
        <ele>101</ele>
        <time>2015-03-16T09:07:28Z</time>
      </trkpt>
      <trkpt lat="47.0286" lon="-0.83164">
        <ele>101</ele>
        <time>2015-03-16T09:07:30Z</time>
      </trkpt>
      <trkpt lat="47.02863" lon="-0.8316">
        <ele>101</ele>
        <time>2015-03-16T09:07:33Z</time>
      </trkpt>
      <trkpt lat="47.02865" lon="-0.83157">
        <ele>101</ele>
        <time>2015-03-16T09:07:35Z</time>
      </trkpt>
      <trkpt lat="47.02867" lon="-0.83155">
        <ele>100</ele>
        <time>2015-03-16T09:07:37Z</time>
      </trkpt>
      <trkpt lat="47.02869" lon="-0.83153">
        <ele>100</ele>
        <time>2015-03-16T09:07:39Z</time>
      </trkpt>
      <trkpt lat="47.02872" lon="-0.83149">
        <ele>100</ele>
        <time>2015-03-16T09:07:42Z</time>
      </trkpt>
      <trkpt lat="47.02876" lon="-0.83145">
        <ele>100</ele>
        <time>2015-03-16T09:07:45Z</time>
      </trkpt>
      <trkpt lat="47.02879" lon="-0.83143">
        <ele>100</ele>
        <time>2015-03-16T09:07:48Z</time>
      </trkpt>
      <trkpt lat="47.02881" lon="-0.83141">
        <ele>100</ele>
        <time>2015-03-16T09:07:50Z</time>
      </trkpt>
      <trkpt lat="47.02884" lon="-0.83138">
        <ele>100</ele>
        <time>2015-03-16T09:07:52Z</time>
      </trkpt>
      <trkpt lat="47.02887" lon="-0.83135">
        <ele>100</ele>
        <time>2015-03-16T09:07:55Z</time>
      </trkpt>
      <trkpt lat="47.02889" lon="-0.83133">
        <ele>99</ele>
        <time>2015-03-16T09:07:57Z</time>
      </trkpt>
      <trkpt lat="47.02891" lon="-0.83131">
        <ele>99</ele>
        <time>2015-03-16T09:07:59Z</time>
      </trkpt>
      <trkpt lat="47.02894" lon="-0.83129">
        <ele>99</ele>
        <time>2015-03-16T09:08:01Z</time>
      </trkpt>
      <trkpt lat="47.02896" lon="-0.83126">
        <ele>99</ele>
        <time>2015-03-16T09:08:03Z</time>
      </trkpt>
      <trkpt lat="47.02898" lon="-0.83124">
        <ele>99</ele>
        <time>2015-03-16T09:08:05Z</time>
      </trkpt>
      <trkpt lat="47.029" lon="-0.83122">
        <ele>99</ele>
        <time>2015-03-16T09:08:07Z</time>
      </trkpt>
      <trkpt lat="47.02902" lon="-0.8312">
        <ele>99</ele>
        <time>2015-03-16T09:08:09Z</time>
      </trkpt>
      <trkpt lat="47.02906" lon="-0.83116">
        <ele>99</ele>
        <time>2015-03-16T09:08:12Z</time>
      </trkpt>
      <trkpt lat="47.02909" lon="-0.83113">
        <ele>99</ele>
        <time>2015-03-16T09:08:15Z</time>
      </trkpt>
      <trkpt lat="47.02911" lon="-0.83111">
        <ele>99</ele>
        <time>2015-03-16T09:08:17Z</time>
      </trkpt>
      <trkpt lat="47.02913" lon="-0.83108">
        <ele>99</ele>
        <time>2015-03-16T09:08:19Z</time>
      </trkpt>
      <trkpt lat="47.02916" lon="-0.83106">
        <ele>99</ele>
        <time>2015-03-16T09:08:21Z</time>
      </trkpt>
      <trkpt lat="47.02919" lon="-0.83103">
        <ele>99</ele>
        <time>2015-03-16T09:08:24Z</time>
      </trkpt>
      <trkpt lat="47.02921" lon="-0.83101">
        <ele>98</ele>
        <time>2015-03-16T09:08:26Z</time>
      </trkpt>
      <trkpt lat="47.02923" lon="-0.83099">
        <ele>98</ele>
        <time>2015-03-16T09:08:28Z</time>
      </trkpt>
      <trkpt lat="47.02926" lon="-0.83097">
        <ele>98</ele>
        <time>2015-03-16T09:08:30Z</time>
      </trkpt>
      <trkpt lat="47.02927" lon="-0.83096">
        <ele>97</ele>
        <time>2015-03-16T09:08:32Z</time>
      </trkpt>
      <trkpt lat="47.02928" lon="-0.83095">
        <ele>97</ele>
        <time>2015-03-16T09:08:36Z</time>
      </trkpt>
      <trkpt lat="47.0293" lon="-0.83092">
        <ele>97</ele>
        <time>2015-03-16T09:08:38Z</time>
      </trkpt>
      <trkpt lat="47.02932" lon="-0.8309">
        <ele>97</ele>
        <time>2015-03-16T09:08:40Z</time>
      </trkpt>
      <trkpt lat="47.02935" lon="-0.83087">
        <ele>97</ele>
        <time>2015-03-16T09:08:43Z</time>
      </trkpt>
      <trkpt lat="47.02938" lon="-0.83083">
        <ele>97</ele>
        <time>2015-03-16T09:08:46Z</time>
      </trkpt>
      <trkpt lat="47.02942" lon="-0.83079">
        <ele>97</ele>
        <time>2015-03-16T09:08:49Z</time>
      </trkpt>
      <trkpt lat="47.02944" lon="-0.83077">
        <ele>97</ele>
        <time>2015-03-16T09:08:51Z</time>
      </trkpt>
      <trkpt lat="47.02947" lon="-0.83074">
        <ele>96</ele>
        <time>2015-03-16T09:08:54Z</time>
      </trkpt>
      <trkpt lat="47.02949" lon="-0.83072">
        <ele>96</ele>
        <time>2015-03-16T09:08:56Z</time>
      </trkpt>
      <trkpt lat="47.02951" lon="-0.83069">
        <ele>96</ele>
        <time>2015-03-16T09:08:58Z</time>
      </trkpt>
      <trkpt lat="47.02953" lon="-0.83067">
        <ele>96</ele>
        <time>2015-03-16T09:09:00Z</time>
      </trkpt>
      <trkpt lat="47.02956" lon="-0.83065">
        <ele>96</ele>
        <time>2015-03-16T09:09:02Z</time>
      </trkpt>
      <trkpt lat="47.02958" lon="-0.83064">
        <ele>95</ele>
        <time>2015-03-16T09:09:04Z</time>
      </trkpt>
      <trkpt lat="47.0296" lon="-0.83061">
        <ele>95</ele>
        <time>2015-03-16T09:09:06Z</time>
      </trkpt>
      <trkpt lat="47.02962" lon="-0.83059">
        <ele>95</ele>
        <time>2015-03-16T09:09:08Z</time>
      </trkpt>
      <trkpt lat="47.02964" lon="-0.83056">
        <ele>95</ele>
        <time>2015-03-16T09:09:10Z</time>
      </trkpt>
      <trkpt lat="47.02966" lon="-0.83054">
        <ele>95</ele>
        <time>2015-03-16T09:09:12Z</time>
      </trkpt>
      <trkpt lat="47.02969" lon="-0.8305">
        <ele>95</ele>
        <time>2015-03-16T09:09:15Z</time>
      </trkpt>
      <trkpt lat="47.02972" lon="-0.83048">
        <ele>95</ele>
        <time>2015-03-16T09:09:17Z</time>
      </trkpt>
      <trkpt lat="47.02974" lon="-0.83046">
        <ele>95</ele>
        <time>2015-03-16T09:09:19Z</time>
      </trkpt>
      <trkpt lat="47.02977" lon="-0.83043">
        <ele>95</ele>
        <time>2015-03-16T09:09:22Z</time>
      </trkpt>
      <trkpt lat="47.02979" lon="-0.83041">
        <ele>95</ele>
        <time>2015-03-16T09:09:24Z</time>
      </trkpt>
      <trkpt lat="47.02982" lon="-0.83038">
        <ele>94</ele>
        <time>2015-03-16T09:09:26Z</time>
      </trkpt>
      <trkpt lat="47.02984" lon="-0.83036">
        <ele>94</ele>
        <time>2015-03-16T09:09:28Z</time>
      </trkpt>
      <trkpt lat="47.02986" lon="-0.83034">
        <ele>94</ele>
        <time>2015-03-16T09:09:30Z</time>
      </trkpt>
      <trkpt lat="47.02988" lon="-0.83031">
        <ele>94</ele>
        <time>2015-03-16T09:09:32Z</time>
      </trkpt>
      <trkpt lat="47.02992" lon="-0.83029">
        <ele>94</ele>
        <time>2015-03-16T09:09:35Z</time>
      </trkpt>
      <trkpt lat="47.02994" lon="-0.83026">
        <ele>94</ele>
        <time>2015-03-16T09:09:37Z</time>
      </trkpt>
      <trkpt lat="47.02996" lon="-0.83024">
        <ele>94</ele>
        <time>2015-03-16T09:09:39Z</time>
      </trkpt>
      <trkpt lat="47.02998" lon="-0.83021">
        <ele>94</ele>
        <time>2015-03-16T09:09:41Z</time>
      </trkpt>
      <trkpt lat="47.03001" lon="-0.83019">
        <ele>94</ele>
        <time>2015-03-16T09:09:43Z</time>
      </trkpt>
      <trkpt lat="47.03003" lon="-0.83017">
        <ele>94</ele>
        <time>2015-03-16T09:09:45Z</time>
      </trkpt>
      <trkpt lat="47.03005" lon="-0.83015">
        <ele>94</ele>
        <time>2015-03-16T09:09:47Z</time>
      </trkpt>
      <trkpt lat="47.03007" lon="-0.83012">
        <ele>94</ele>
        <time>2015-03-16T09:09:49Z</time>
      </trkpt>
      <trkpt lat="47.03009" lon="-0.8301">
        <ele>94</ele>
        <time>2015-03-16T09:09:51Z</time>
      </trkpt>
      <trkpt lat="47.03013" lon="-0.83007">
        <ele>94</ele>
        <time>2015-03-16T09:09:54Z</time>
      </trkpt>
      <trkpt lat="47.03015" lon="-0.83005">
        <ele>94</ele>
        <time>2015-03-16T09:09:56Z</time>
      </trkpt>
      <trkpt lat="47.03018" lon="-0.83002">
        <ele>94</ele>
        <time>2015-03-16T09:09:59Z</time>
      </trkpt>
      <trkpt lat="47.0302" lon="-0.82999">
        <ele>94</ele>
        <time>2015-03-16T09:10:01Z</time>
      </trkpt>
      <trkpt lat="47.03023" lon="-0.82997">
        <ele>94</ele>
        <time>2015-03-16T09:10:03Z</time>
      </trkpt>
      <trkpt lat="47.03026" lon="-0.82994">
        <ele>94</ele>
        <time>2015-03-16T09:10:06Z</time>
      </trkpt>
      <trkpt lat="47.03028" lon="-0.82993">
        <ele>94</ele>
        <time>2015-03-16T09:10:08Z</time>
      </trkpt>
      <trkpt lat="47.0303" lon="-0.82991">
        <ele>94</ele>
        <time>2015-03-16T09:10:10Z</time>
      </trkpt>
      <trkpt lat="47.03031" lon="-0.82989">
        <ele>94</ele>
        <time>2015-03-16T09:10:12Z</time>
      </trkpt>
      <trkpt lat="47.03033" lon="-0.82987">
        <ele>94</ele>
        <time>2015-03-16T09:10:14Z</time>
      </trkpt>
      <trkpt lat="47.03036" lon="-0.82984">
        <ele>94</ele>
        <time>2015-03-16T09:10:16Z</time>
      </trkpt>
      <trkpt lat="47.03038" lon="-0.82982">
        <ele>94</ele>
        <time>2015-03-16T09:10:18Z</time>
      </trkpt>
      <trkpt lat="47.0304" lon="-0.8298">
        <ele>94</ele>
        <time>2015-03-16T09:10:20Z</time>
      </trkpt>
      <trkpt lat="47.03043" lon="-0.82976">
        <ele>94</ele>
        <time>2015-03-16T09:10:23Z</time>
      </trkpt>
      <trkpt lat="47.03045" lon="-0.82973">
        <ele>94</ele>
        <time>2015-03-16T09:10:25Z</time>
      </trkpt>
      <trkpt lat="47.03047" lon="-0.82971">
        <ele>94</ele>
        <time>2015-03-16T09:10:27Z</time>
      </trkpt>
      <trkpt lat="47.03049" lon="-0.82968">
        <ele>94</ele>
        <time>2015-03-16T09:10:29Z</time>
      </trkpt>
      <trkpt lat="47.03052" lon="-0.82964">
        <ele>94</ele>
        <time>2015-03-16T09:10:32Z</time>
      </trkpt>
      <trkpt lat="47.03055" lon="-0.82961">
        <ele>93</ele>
        <time>2015-03-16T09:10:35Z</time>
      </trkpt>
      <trkpt lat="47.03057" lon="-0.82959">
        <ele>93</ele>
        <time>2015-03-16T09:10:37Z</time>
      </trkpt>
      <trkpt lat="47.03059" lon="-0.82956">
        <ele>93</ele>
        <time>2015-03-16T09:10:39Z</time>
      </trkpt>
      <trkpt lat="47.03061" lon="-0.82954">
        <ele>92</ele>
        <time>2015-03-16T09:10:41Z</time>
      </trkpt>
      <trkpt lat="47.03064" lon="-0.82952">
        <ele>92</ele>
        <time>2015-03-16T09:10:43Z</time>
      </trkpt>
      <trkpt lat="47.03066" lon="-0.8295">
        <ele>92</ele>
        <time>2015-03-16T09:10:45Z</time>
      </trkpt>
      <trkpt lat="47.03068" lon="-0.82948">
        <ele>92</ele>
        <time>2015-03-16T09:10:47Z</time>
      </trkpt>
      <trkpt lat="47.0307" lon="-0.82946">
        <ele>92</ele>
        <time>2015-03-16T09:10:49Z</time>
      </trkpt>
      <trkpt lat="47.03072" lon="-0.82944">
        <ele>92</ele>
        <time>2015-03-16T09:10:51Z</time>
      </trkpt>
      <trkpt lat="47.03074" lon="-0.82942">
        <ele>92</ele>
        <time>2015-03-16T09:10:53Z</time>
      </trkpt>
      <trkpt lat="47.03077" lon="-0.8294">
        <ele>92</ele>
        <time>2015-03-16T09:10:55Z</time>
      </trkpt>
      <trkpt lat="47.03079" lon="-0.82938">
        <ele>92</ele>
        <time>2015-03-16T09:10:57Z</time>
      </trkpt>
      <trkpt lat="47.03081" lon="-0.82935">
        <ele>92</ele>
        <time>2015-03-16T09:10:59Z</time>
      </trkpt>
      <trkpt lat="47.03083" lon="-0.82933">
        <ele>92</ele>
        <time>2015-03-16T09:11:01Z</time>
      </trkpt>
      <trkpt lat="47.03086" lon="-0.82931">
        <ele>92</ele>
        <time>2015-03-16T09:11:03Z</time>
      </trkpt>
      <trkpt lat="47.03088" lon="-0.82929">
        <ele>91</ele>
        <time>2015-03-16T09:11:05Z</time>
      </trkpt>
      <trkpt lat="47.0309" lon="-0.82927">
        <ele>91</ele>
        <time>2015-03-16T09:11:07Z</time>
      </trkpt>
      <trkpt lat="47.03092" lon="-0.82924">
        <ele>91</ele>
        <time>2015-03-16T09:11:09Z</time>
      </trkpt>
      <trkpt lat="47.03094" lon="-0.82922">
        <ele>91</ele>
        <time>2015-03-16T09:11:11Z</time>
      </trkpt>
      <trkpt lat="47.03096" lon="-0.8292">
        <ele>90</ele>
        <time>2015-03-16T09:11:13Z</time>
      </trkpt>
      <trkpt lat="47.03099" lon="-0.82917">
        <ele>90</ele>
        <time>2015-03-16T09:11:16Z</time>
      </trkpt>
      <trkpt lat="47.03101" lon="-0.82915">
        <ele>90</ele>
        <time>2015-03-16T09:11:18Z</time>
      </trkpt>
      <trkpt lat="47.03104" lon="-0.82914">
        <ele>90</ele>
        <time>2015-03-16T09:11:20Z</time>
      </trkpt>
      <trkpt lat="47.03106" lon="-0.82912">
        <ele>90</ele>
        <time>2015-03-16T09:11:22Z</time>
      </trkpt>
      <trkpt lat="47.03108" lon="-0.82911">
        <ele>90</ele>
        <time>2015-03-16T09:11:24Z</time>
      </trkpt>
      <trkpt lat="47.0311" lon="-0.82908">
        <ele>90</ele>
        <time>2015-03-16T09:11:26Z</time>
      </trkpt>
      <trkpt lat="47.03112" lon="-0.82906">
        <ele>89</ele>
        <time>2015-03-16T09:11:28Z</time>
      </trkpt>
      <trkpt lat="47.03114" lon="-0.82904">
        <ele>89</ele>
        <time>2015-03-16T09:11:30Z</time>
      </trkpt>
      <trkpt lat="47.03115" lon="-0.82902">
        <ele>89</ele>
        <time>2015-03-16T09:11:32Z</time>
      </trkpt>
      <trkpt lat="47.03117" lon="-0.829">
        <ele>89</ele>
        <time>2015-03-16T09:11:34Z</time>
      </trkpt>
      <trkpt lat="47.03121" lon="-0.82897">
        <ele>89</ele>
        <time>2015-03-16T09:11:37Z</time>
      </trkpt>
      <trkpt lat="47.03123" lon="-0.82895">
        <ele>89</ele>
        <time>2015-03-16T09:11:39Z</time>
      </trkpt>
      <trkpt lat="47.03127" lon="-0.82893">
        <ele>89</ele>
        <time>2015-03-16T09:11:42Z</time>
      </trkpt>
      <trkpt lat="47.03129" lon="-0.8289">
        <ele>89</ele>
        <time>2015-03-16T09:11:44Z</time>
      </trkpt>
      <trkpt lat="47.03131" lon="-0.82889">
        <ele>89</ele>
        <time>2015-03-16T09:11:46Z</time>
      </trkpt>
      <trkpt lat="47.03133" lon="-0.82886">
        <ele>89</ele>
        <time>2015-03-16T09:11:48Z</time>
      </trkpt>
      <trkpt lat="47.03135" lon="-0.82885">
        <ele>89</ele>
        <time>2015-03-16T09:11:50Z</time>
      </trkpt>
      <trkpt lat="47.03136" lon="-0.82882">
        <ele>89</ele>
        <time>2015-03-16T09:11:52Z</time>
      </trkpt>
      <trkpt lat="47.03139" lon="-0.8288">
        <ele>89</ele>
        <time>2015-03-16T09:11:54Z</time>
      </trkpt>
      <trkpt lat="47.03141" lon="-0.82878">
        <ele>89</ele>
        <time>2015-03-16T09:11:56Z</time>
      </trkpt>
      <trkpt lat="47.03143" lon="-0.82876">
        <ele>89</ele>
        <time>2015-03-16T09:11:58Z</time>
      </trkpt>
      <trkpt lat="47.03145" lon="-0.82874">
        <ele>89</ele>
        <time>2015-03-16T09:12:00Z</time>
      </trkpt>
      <trkpt lat="47.03147" lon="-0.82871">
        <ele>89</ele>
        <time>2015-03-16T09:12:02Z</time>
      </trkpt>
      <trkpt lat="47.03149" lon="-0.82869">
        <ele>88</ele>
        <time>2015-03-16T09:12:04Z</time>
      </trkpt>
      <trkpt lat="47.03151" lon="-0.82867">
        <ele>88</ele>
        <time>2015-03-16T09:12:06Z</time>
      </trkpt>
      <trkpt lat="47.03153" lon="-0.82865">
        <ele>88</ele>
        <time>2015-03-16T09:12:08Z</time>
      </trkpt>
      <trkpt lat="47.03155" lon="-0.82863">
        <ele>88</ele>
        <time>2015-03-16T09:12:10Z</time>
      </trkpt>
      <trkpt lat="47.03157" lon="-0.82861">
        <ele>87</ele>
        <time>2015-03-16T09:12:12Z</time>
      </trkpt>
      <trkpt lat="47.03159" lon="-0.82859">
        <ele>87</ele>
        <time>2015-03-16T09:12:14Z</time>
      </trkpt>
      <trkpt lat="47.03161" lon="-0.82857">
        <ele>87</ele>
        <time>2015-03-16T09:12:16Z</time>
      </trkpt>
      <trkpt lat="47.03163" lon="-0.82854">
        <ele>87</ele>
        <time>2015-03-16T09:12:18Z</time>
      </trkpt>
      <trkpt lat="47.03164" lon="-0.82852">
        <ele>87</ele>
        <time>2015-03-16T09:12:20Z</time>
      </trkpt>
      <trkpt lat="47.03166" lon="-0.8285">
        <ele>87</ele>
        <time>2015-03-16T09:12:22Z</time>
      </trkpt>
      <trkpt lat="47.0317" lon="-0.82847">
        <ele>86</ele>
        <time>2015-03-16T09:12:25Z</time>
      </trkpt>
      <trkpt lat="47.03173" lon="-0.82844">
        <ele>86</ele>
        <time>2015-03-16T09:12:28Z</time>
      </trkpt>
      <trkpt lat="47.03176" lon="-0.8284">
        <ele>86</ele>
        <time>2015-03-16T09:12:31Z</time>
      </trkpt>
      <trkpt lat="47.03179" lon="-0.82838">
        <ele>86</ele>
        <time>2015-03-16T09:12:33Z</time>
      </trkpt>
      <trkpt lat="47.03181" lon="-0.82836">
        <ele>86</ele>
        <time>2015-03-16T09:12:35Z</time>
      </trkpt>
      <trkpt lat="47.03184" lon="-0.82833">
        <ele>86</ele>
        <time>2015-03-16T09:12:38Z</time>
      </trkpt>
      <trkpt lat="47.03186" lon="-0.82831">
        <ele>86</ele>
        <time>2015-03-16T09:12:40Z</time>
      </trkpt>
      <trkpt lat="47.03188" lon="-0.82829">
        <ele>85</ele>
        <time>2015-03-16T09:12:42Z</time>
      </trkpt>
      <trkpt lat="47.0319" lon="-0.82827">
        <ele>85</ele>
        <time>2015-03-16T09:12:44Z</time>
      </trkpt>
      <trkpt lat="47.03192" lon="-0.82824">
        <ele>85</ele>
        <time>2015-03-16T09:12:46Z</time>
      </trkpt>
      <trkpt lat="47.03194" lon="-0.82822">
        <ele>85</ele>
        <time>2015-03-16T09:12:48Z</time>
      </trkpt>
      <trkpt lat="47.03196" lon="-0.8282">
        <ele>85</ele>
        <time>2015-03-16T09:12:50Z</time>
      </trkpt>
      <trkpt lat="47.03199" lon="-0.82818">
        <ele>85</ele>
        <time>2015-03-16T09:12:52Z</time>
      </trkpt>
      <trkpt lat="47.03202" lon="-0.82815">
        <ele>85</ele>
        <time>2015-03-16T09:12:55Z</time>
      </trkpt>
      <trkpt lat="47.03205" lon="-0.82812">
        <ele>85</ele>
        <time>2015-03-16T09:12:58Z</time>
      </trkpt>
      <trkpt lat="47.03207" lon="-0.8281">
        <ele>85</ele>
        <time>2015-03-16T09:13:00Z</time>
      </trkpt>
      <trkpt lat="47.03209" lon="-0.82807">
        <ele>85</ele>
        <time>2015-03-16T09:13:02Z</time>
      </trkpt>
      <trkpt lat="47.0321" lon="-0.82805">
        <ele>85</ele>
        <time>2015-03-16T09:13:04Z</time>
      </trkpt>
      <trkpt lat="47.03212" lon="-0.82803">
        <ele>85</ele>
        <time>2015-03-16T09:13:06Z</time>
      </trkpt>
      <trkpt lat="47.03215" lon="-0.82801">
        <ele>85</ele>
        <time>2015-03-16T09:13:08Z</time>
      </trkpt>
      <trkpt lat="47.03217" lon="-0.82799">
        <ele>85</ele>
        <time>2015-03-16T09:13:10Z</time>
      </trkpt>
      <trkpt lat="47.0322" lon="-0.82796">
        <ele>85</ele>
        <time>2015-03-16T09:13:13Z</time>
      </trkpt>
      <trkpt lat="47.03221" lon="-0.82794">
        <ele>85</ele>
        <time>2015-03-16T09:13:15Z</time>
      </trkpt>
      <trkpt lat="47.03223" lon="-0.82792">
        <ele>85</ele>
        <time>2015-03-16T09:13:17Z</time>
      </trkpt>
      <trkpt lat="47.03226" lon="-0.82788">
        <ele>85</ele>
        <time>2015-03-16T09:13:20Z</time>
      </trkpt>
      <trkpt lat="47.03228" lon="-0.82787">
        <ele>85</ele>
        <time>2015-03-16T09:13:22Z</time>
      </trkpt>
      <trkpt lat="47.0323" lon="-0.82784">
        <ele>85</ele>
        <time>2015-03-16T09:13:24Z</time>
      </trkpt>
      <trkpt lat="47.03232" lon="-0.82783">
        <ele>85</ele>
        <time>2015-03-16T09:13:26Z</time>
      </trkpt>
      <trkpt lat="47.03235" lon="-0.82781">
        <ele>85</ele>
        <time>2015-03-16T09:13:28Z</time>
      </trkpt>
      <trkpt lat="47.03237" lon="-0.82779">
        <ele>85</ele>
        <time>2015-03-16T09:13:30Z</time>
      </trkpt>
      <trkpt lat="47.03239" lon="-0.82777">
        <ele>85</ele>
        <time>2015-03-16T09:13:32Z</time>
      </trkpt>
      <trkpt lat="47.03242" lon="-0.82774">
        <ele>85</ele>
        <time>2015-03-16T09:13:35Z</time>
      </trkpt>
      <trkpt lat="47.03244" lon="-0.82772">
        <ele>85</ele>
        <time>2015-03-16T09:13:37Z</time>
      </trkpt>
      <trkpt lat="47.03246" lon="-0.8277">
        <ele>85</ele>
        <time>2015-03-16T09:13:39Z</time>
      </trkpt>
      <trkpt lat="47.03249" lon="-0.82768">
        <ele>85</ele>
        <time>2015-03-16T09:13:41Z</time>
      </trkpt>
      <trkpt lat="47.03252" lon="-0.82765">
        <ele>85</ele>
        <time>2015-03-16T09:13:44Z</time>
      </trkpt>
      <trkpt lat="47.03254" lon="-0.82762">
        <ele>85</ele>
        <time>2015-03-16T09:13:46Z</time>
      </trkpt>
      <trkpt lat="47.03257" lon="-0.82759">
        <ele>85</ele>
        <time>2015-03-16T09:13:49Z</time>
      </trkpt>
      <trkpt lat="47.03259" lon="-0.82756">
        <ele>85</ele>
        <time>2015-03-16T09:13:51Z</time>
      </trkpt>
      <trkpt lat="47.03262" lon="-0.82753">
        <ele>85</ele>
        <time>2015-03-16T09:13:54Z</time>
      </trkpt>
      <trkpt lat="47.03265" lon="-0.82749">
        <ele>85</ele>
        <time>2015-03-16T09:13:57Z</time>
      </trkpt>
      <trkpt lat="47.03268" lon="-0.82747">
        <ele>85</ele>
        <time>2015-03-16T09:14:00Z</time>
      </trkpt>
      <trkpt lat="47.0327" lon="-0.82744">
        <ele>85</ele>
        <time>2015-03-16T09:14:02Z</time>
      </trkpt>
      <trkpt lat="47.03274" lon="-0.82741">
        <ele>85</ele>
        <time>2015-03-16T09:14:05Z</time>
      </trkpt>
      <trkpt lat="47.03276" lon="-0.82739">
        <ele>85</ele>
        <time>2015-03-16T09:14:07Z</time>
      </trkpt>
      <trkpt lat="47.03278" lon="-0.82737">
        <ele>85</ele>
        <time>2015-03-16T09:14:09Z</time>
      </trkpt>
      <trkpt lat="47.03279" lon="-0.82735">
        <ele>85</ele>
        <time>2015-03-16T09:14:11Z</time>
      </trkpt>
      <trkpt lat="47.03283" lon="-0.82731">
        <ele>85</ele>
        <time>2015-03-16T09:14:14Z</time>
      </trkpt>
      <trkpt lat="47.03286" lon="-0.82728">
        <ele>85</ele>
        <time>2015-03-16T09:14:17Z</time>
      </trkpt>
      <trkpt lat="47.03288" lon="-0.82726">
        <ele>85</ele>
        <time>2015-03-16T09:14:19Z</time>
      </trkpt>
      <trkpt lat="47.0329" lon="-0.82723">
        <ele>85</ele>
        <time>2015-03-16T09:14:21Z</time>
      </trkpt>
      <trkpt lat="47.03293" lon="-0.82721">
        <ele>85</ele>
        <time>2015-03-16T09:14:24Z</time>
      </trkpt>
      <trkpt lat="47.03296" lon="-0.82718">
        <ele>85</ele>
        <time>2015-03-16T09:14:26Z</time>
      </trkpt>
      <trkpt lat="47.03298" lon="-0.82717">
        <ele>85</ele>
        <time>2015-03-16T09:14:28Z</time>
      </trkpt>
      <trkpt lat="47.033" lon="-0.82715">
        <ele>85</ele>
        <time>2015-03-16T09:14:30Z</time>
      </trkpt>
      <trkpt lat="47.03302" lon="-0.82713">
        <ele>85</ele>
        <time>2015-03-16T09:14:32Z</time>
      </trkpt>
      <trkpt lat="47.03305" lon="-0.82709">
        <ele>85</ele>
        <time>2015-03-16T09:14:35Z</time>
      </trkpt>
      <trkpt lat="47.03307" lon="-0.82707">
        <ele>85</ele>
        <time>2015-03-16T09:14:37Z</time>
      </trkpt>
      <trkpt lat="47.03309" lon="-0.82705">
        <ele>85</ele>
        <time>2015-03-16T09:14:39Z</time>
      </trkpt>
      <trkpt lat="47.03311" lon="-0.82703">
        <ele>85</ele>
        <time>2015-03-16T09:14:41Z</time>
      </trkpt>
      <trkpt lat="47.03313" lon="-0.82701">
        <ele>85</ele>
        <time>2015-03-16T09:14:43Z</time>
      </trkpt>
      <trkpt lat="47.03315" lon="-0.82699">
        <ele>85</ele>
        <time>2015-03-16T09:14:45Z</time>
      </trkpt>
      <trkpt lat="47.03317" lon="-0.82696">
        <ele>85</ele>
        <time>2015-03-16T09:14:47Z</time>
      </trkpt>
      <trkpt lat="47.0332" lon="-0.82693">
        <ele>85</ele>
        <time>2015-03-16T09:14:50Z</time>
      </trkpt>
      <trkpt lat="47.03322" lon="-0.82691">
        <ele>85</ele>
        <time>2015-03-16T09:14:52Z</time>
      </trkpt>
      <trkpt lat="47.03324" lon="-0.82689">
        <ele>85</ele>
        <time>2015-03-16T09:14:54Z</time>
      </trkpt>
      <trkpt lat="47.03326" lon="-0.82687">
        <ele>85</ele>
        <time>2015-03-16T09:14:56Z</time>
      </trkpt>
      <trkpt lat="47.03328" lon="-0.82685">
        <ele>85</ele>
        <time>2015-03-16T09:14:58Z</time>
      </trkpt>
      <trkpt lat="47.0333" lon="-0.82683">
        <ele>85</ele>
        <time>2015-03-16T09:15:00Z</time>
      </trkpt>
      <trkpt lat="47.03332" lon="-0.82681">
        <ele>85</ele>
        <time>2015-03-16T09:15:02Z</time>
      </trkpt>
      <trkpt lat="47.03334" lon="-0.82679">
        <ele>85</ele>
        <time>2015-03-16T09:15:04Z</time>
      </trkpt>
      <trkpt lat="47.03336" lon="-0.82678">
        <ele>85</ele>
        <time>2015-03-16T09:15:06Z</time>
      </trkpt>
      <trkpt lat="47.03338" lon="-0.82675">
        <ele>85</ele>
        <time>2015-03-16T09:15:08Z</time>
      </trkpt>
      <trkpt lat="47.0334" lon="-0.82673">
        <ele>85</ele>
        <time>2015-03-16T09:15:10Z</time>
      </trkpt>
      <trkpt lat="47.03342" lon="-0.82672">
        <ele>85</ele>
        <time>2015-03-16T09:15:12Z</time>
      </trkpt>
      <trkpt lat="47.03344" lon="-0.8267">
        <ele>85</ele>
        <time>2015-03-16T09:15:14Z</time>
      </trkpt>
      <trkpt lat="47.03346" lon="-0.82667">
        <ele>85</ele>
        <time>2015-03-16T09:15:16Z</time>
      </trkpt>
      <trkpt lat="47.03348" lon="-0.82665">
        <ele>85</ele>
        <time>2015-03-16T09:15:18Z</time>
      </trkpt>
      <trkpt lat="47.0335" lon="-0.82664">
        <ele>85</ele>
        <time>2015-03-16T09:15:20Z</time>
      </trkpt>
      <trkpt lat="47.03352" lon="-0.82661">
        <ele>85</ele>
        <time>2015-03-16T09:15:22Z</time>
      </trkpt>
      <trkpt lat="47.03354" lon="-0.8266">
        <ele>85</ele>
        <time>2015-03-16T09:15:24Z</time>
      </trkpt>
      <trkpt lat="47.03356" lon="-0.82658">
        <ele>85</ele>
        <time>2015-03-16T09:15:26Z</time>
      </trkpt>
      <trkpt lat="47.03358" lon="-0.82655">
        <ele>85</ele>
        <time>2015-03-16T09:15:28Z</time>
      </trkpt>
      <trkpt lat="47.0336" lon="-0.82653">
        <ele>85</ele>
        <time>2015-03-16T09:15:30Z</time>
      </trkpt>
      <trkpt lat="47.03361" lon="-0.82652">
        <ele>85</ele>
        <time>2015-03-16T09:15:32Z</time>
      </trkpt>
      <trkpt lat="47.03365" lon="-0.82648">
        <ele>85</ele>
        <time>2015-03-16T09:15:35Z</time>
      </trkpt>
      <trkpt lat="47.03368" lon="-0.82646">
        <ele>85</ele>
        <time>2015-03-16T09:15:38Z</time>
      </trkpt>
      <trkpt lat="47.0337" lon="-0.82644">
        <ele>85</ele>
        <time>2015-03-16T09:15:40Z</time>
      </trkpt>
      <trkpt lat="47.03373" lon="-0.82641">
        <ele>85</ele>
        <time>2015-03-16T09:15:43Z</time>
      </trkpt>
      <trkpt lat="47.03375" lon="-0.82639">
        <ele>85</ele>
        <time>2015-03-16T09:15:45Z</time>
      </trkpt>
      <trkpt lat="47.03377" lon="-0.82637">
        <ele>85</ele>
        <time>2015-03-16T09:15:47Z</time>
      </trkpt>
      <trkpt lat="47.0338" lon="-0.82635">
        <ele>85</ele>
        <time>2015-03-16T09:15:49Z</time>
      </trkpt>
      <trkpt lat="47.03381" lon="-0.82633">
        <ele>85</ele>
        <time>2015-03-16T09:15:51Z</time>
      </trkpt>
      <trkpt lat="47.03383" lon="-0.82631">
        <ele>85</ele>
        <time>2015-03-16T09:15:53Z</time>
      </trkpt>
      <trkpt lat="47.03386" lon="-0.82629">
        <ele>85</ele>
        <time>2015-03-16T09:15:55Z</time>
      </trkpt>
      <trkpt lat="47.03387" lon="-0.82627">
        <ele>85</ele>
        <time>2015-03-16T09:15:57Z</time>
      </trkpt>
      <trkpt lat="47.03389" lon="-0.82625">
        <ele>85</ele>
        <time>2015-03-16T09:15:59Z</time>
      </trkpt>
      <trkpt lat="47.03392" lon="-0.82623">
        <ele>85</ele>
        <time>2015-03-16T09:16:01Z</time>
      </trkpt>
      <trkpt lat="47.03394" lon="-0.8262">
        <ele>85</ele>
        <time>2015-03-16T09:16:04Z</time>
      </trkpt>
      <trkpt lat="47.03397" lon="-0.82618">
        <ele>85</ele>
        <time>2015-03-16T09:16:06Z</time>
      </trkpt>
      <trkpt lat="47.03399" lon="-0.82616">
        <ele>85</ele>
        <time>2015-03-16T09:16:08Z</time>
      </trkpt>
      <trkpt lat="47.034" lon="-0.82614">
        <ele>85</ele>
        <time>2015-03-16T09:16:10Z</time>
      </trkpt>
      <trkpt lat="47.03402" lon="-0.82612">
        <ele>85</ele>
        <time>2015-03-16T09:16:12Z</time>
      </trkpt>
      <trkpt lat="47.03405" lon="-0.8261">
        <ele>85</ele>
        <time>2015-03-16T09:16:14Z</time>
      </trkpt>
      <trkpt lat="47.03406" lon="-0.82608">
        <ele>86</ele>
        <time>2015-03-16T09:16:16Z</time>
      </trkpt>
      <trkpt lat="47.03408" lon="-0.82606">
        <ele>86</ele>
        <time>2015-03-16T09:16:18Z</time>
      </trkpt>
      <trkpt lat="47.0341" lon="-0.82604">
        <ele>86</ele>
        <time>2015-03-16T09:16:20Z</time>
      </trkpt>
      <trkpt lat="47.03412" lon="-0.82602">
        <ele>86</ele>
        <time>2015-03-16T09:16:22Z</time>
      </trkpt>
      <trkpt lat="47.03414" lon="-0.826">
        <ele>86</ele>
        <time>2015-03-16T09:16:24Z</time>
      </trkpt>
      <trkpt lat="47.03416" lon="-0.82599">
        <ele>86</ele>
        <time>2015-03-16T09:16:26Z</time>
      </trkpt>
      <trkpt lat="47.03418" lon="-0.82596">
        <ele>86</ele>
        <time>2015-03-16T09:16:28Z</time>
      </trkpt>
      <trkpt lat="47.0342" lon="-0.82594">
        <ele>86</ele>
        <time>2015-03-16T09:16:30Z</time>
      </trkpt>
      <trkpt lat="47.03423" lon="-0.82592">
        <ele>86</ele>
        <time>2015-03-16T09:16:33Z</time>
      </trkpt>
      <trkpt lat="47.03425" lon="-0.8259">
        <ele>86</ele>
        <time>2015-03-16T09:16:35Z</time>
      </trkpt>
      <trkpt lat="47.03427" lon="-0.82588">
        <ele>86</ele>
        <time>2015-03-16T09:16:37Z</time>
      </trkpt>
      <trkpt lat="47.03429" lon="-0.82586">
        <ele>86</ele>
        <time>2015-03-16T09:16:39Z</time>
      </trkpt>
      <trkpt lat="47.03431" lon="-0.82584">
        <ele>86</ele>
        <time>2015-03-16T09:16:41Z</time>
      </trkpt>
      <trkpt lat="47.03433" lon="-0.82582">
        <ele>86</ele>
        <time>2015-03-16T09:16:43Z</time>
      </trkpt>
      <trkpt lat="47.03435" lon="-0.8258">
        <ele>86</ele>
        <time>2015-03-16T09:16:45Z</time>
      </trkpt>
      <trkpt lat="47.03437" lon="-0.82578">
        <ele>86</ele>
        <time>2015-03-16T09:16:47Z</time>
      </trkpt>
      <trkpt lat="47.03441" lon="-0.82574">
        <ele>86</ele>
        <time>2015-03-16T09:16:50Z</time>
      </trkpt>
      <trkpt lat="47.03443" lon="-0.82573">
        <ele>86</ele>
        <time>2015-03-16T09:16:52Z</time>
      </trkpt>
      <trkpt lat="47.03445" lon="-0.82571">
        <ele>86</ele>
        <time>2015-03-16T09:16:54Z</time>
      </trkpt>
      <trkpt lat="47.03447" lon="-0.82569">
        <ele>86</ele>
        <time>2015-03-16T09:16:56Z</time>
      </trkpt>
      <trkpt lat="47.03448" lon="-0.82566">
        <ele>86</ele>
        <time>2015-03-16T09:16:58Z</time>
      </trkpt>
      <trkpt lat="47.0345" lon="-0.82565">
        <ele>86</ele>
        <time>2015-03-16T09:17:00Z</time>
      </trkpt>
      <trkpt lat="47.03452" lon="-0.82563">
        <ele>86</ele>
        <time>2015-03-16T09:17:02Z</time>
      </trkpt>
      <trkpt lat="47.03455" lon="-0.8256">
        <ele>86</ele>
        <time>2015-03-16T09:17:04Z</time>
      </trkpt>
      <trkpt lat="47.03456" lon="-0.82558">
        <ele>86</ele>
        <time>2015-03-16T09:17:06Z</time>
      </trkpt>
      <trkpt lat="47.03458" lon="-0.82556">
        <ele>87</ele>
        <time>2015-03-16T09:17:08Z</time>
      </trkpt>
      <trkpt lat="47.0346" lon="-0.82554">
        <ele>87</ele>
        <time>2015-03-16T09:17:10Z</time>
      </trkpt>
      <trkpt lat="47.03463" lon="-0.82551">
        <ele>87</ele>
        <time>2015-03-16T09:17:13Z</time>
      </trkpt>
      <trkpt lat="47.03465" lon="-0.82549">
        <ele>87</ele>
        <time>2015-03-16T09:17:15Z</time>
      </trkpt>
      <trkpt lat="47.03467" lon="-0.82547">
        <ele>87</ele>
        <time>2015-03-16T09:17:17Z</time>
      </trkpt>
      <trkpt lat="47.03469" lon="-0.82544">
        <ele>87</ele>
        <time>2015-03-16T09:17:19Z</time>
      </trkpt>
      <trkpt lat="47.03471" lon="-0.82542">
        <ele>88</ele>
        <time>2015-03-16T09:17:21Z</time>
      </trkpt>
      <trkpt lat="47.03473" lon="-0.8254">
        <ele>88</ele>
        <time>2015-03-16T09:17:23Z</time>
      </trkpt>
      <trkpt lat="47.03476" lon="-0.82537">
        <ele>88</ele>
        <time>2015-03-16T09:17:26Z</time>
      </trkpt>
      <trkpt lat="47.03478" lon="-0.82535">
        <ele>88</ele>
        <time>2015-03-16T09:17:28Z</time>
      </trkpt>
      <trkpt lat="47.0348" lon="-0.82533">
        <ele>88</ele>
        <time>2015-03-16T09:17:30Z</time>
      </trkpt>
      <trkpt lat="47.03482" lon="-0.82531">
        <ele>88</ele>
        <time>2015-03-16T09:17:32Z</time>
      </trkpt>
      <trkpt lat="47.03484" lon="-0.82529">
        <ele>88</ele>
        <time>2015-03-16T09:17:34Z</time>
      </trkpt>
      <trkpt lat="47.03486" lon="-0.82527">
        <ele>88</ele>
        <time>2015-03-16T09:17:36Z</time>
      </trkpt>
      <trkpt lat="47.03489" lon="-0.82525">
        <ele>88</ele>
        <time>2015-03-16T09:17:39Z</time>
      </trkpt>
      <trkpt lat="47.03491" lon="-0.82523">
        <ele>88</ele>
        <time>2015-03-16T09:17:41Z</time>
      </trkpt>
      <trkpt lat="47.03493" lon="-0.8252">
        <ele>88</ele>
        <time>2015-03-16T09:17:43Z</time>
      </trkpt>
      <trkpt lat="47.03495" lon="-0.82518">
        <ele>89</ele>
        <time>2015-03-16T09:17:45Z</time>
      </trkpt>
      <trkpt lat="47.03497" lon="-0.82516">
        <ele>89</ele>
        <time>2015-03-16T09:17:47Z</time>
      </trkpt>
      <trkpt lat="47.03499" lon="-0.82514">
        <ele>89</ele>
        <time>2015-03-16T09:17:49Z</time>
      </trkpt>
      <trkpt lat="47.03501" lon="-0.82513">
        <ele>89</ele>
        <time>2015-03-16T09:17:51Z</time>
      </trkpt>
      <trkpt lat="47.03504" lon="-0.82511">
        <ele>89</ele>
        <time>2015-03-16T09:17:53Z</time>
      </trkpt>
      <trkpt lat="47.03506" lon="-0.82508">
        <ele>89</ele>
        <time>2015-03-16T09:17:55Z</time>
      </trkpt>
      <trkpt lat="47.03508" lon="-0.82506">
        <ele>90</ele>
        <time>2015-03-16T09:17:57Z</time>
      </trkpt>
      <trkpt lat="47.03511" lon="-0.82503">
        <ele>90</ele>
        <time>2015-03-16T09:18:00Z</time>
      </trkpt>
      <trkpt lat="47.03513" lon="-0.82501">
        <ele>90</ele>
        <time>2015-03-16T09:18:02Z</time>
      </trkpt>
      <trkpt lat="47.03515" lon="-0.82498">
        <ele>90</ele>
        <time>2015-03-16T09:18:04Z</time>
      </trkpt>
      <trkpt lat="47.03518" lon="-0.82496">
        <ele>90</ele>
        <time>2015-03-16T09:18:06Z</time>
      </trkpt>
      <trkpt lat="47.03521" lon="-0.82493">
        <ele>90</ele>
        <time>2015-03-16T09:18:09Z</time>
      </trkpt>
      <trkpt lat="47.03523" lon="-0.82491">
        <ele>90</ele>
        <time>2015-03-16T09:18:11Z</time>
      </trkpt>
      <trkpt lat="47.03526" lon="-0.82488">
        <ele>91</ele>
        <time>2015-03-16T09:18:14Z</time>
      </trkpt>
      <trkpt lat="47.03529" lon="-0.82486">
        <ele>91</ele>
        <time>2015-03-16T09:18:17Z</time>
      </trkpt>
      <trkpt lat="47.03532" lon="-0.82482">
        <ele>91</ele>
        <time>2015-03-16T09:18:20Z</time>
      </trkpt>
      <trkpt lat="47.03534" lon="-0.8248">
        <ele>92</ele>
        <time>2015-03-16T09:18:22Z</time>
      </trkpt>
      <trkpt lat="47.03536" lon="-0.82478">
        <ele>92</ele>
        <time>2015-03-16T09:18:24Z</time>
      </trkpt>
      <trkpt lat="47.03538" lon="-0.82476">
        <ele>92</ele>
        <time>2015-03-16T09:18:26Z</time>
      </trkpt>
      <trkpt lat="47.0354" lon="-0.82474">
        <ele>92</ele>
        <time>2015-03-16T09:18:28Z</time>
      </trkpt>
      <trkpt lat="47.03542" lon="-0.82473">
        <ele>92</ele>
        <time>2015-03-16T09:18:30Z</time>
      </trkpt>
      <trkpt lat="47.03544" lon="-0.82471">
        <ele>92</ele>
        <time>2015-03-16T09:18:32Z</time>
      </trkpt>
      <trkpt lat="47.03546" lon="-0.82468">
        <ele>92</ele>
        <time>2015-03-16T09:18:34Z</time>
      </trkpt>
      <trkpt lat="47.03548" lon="-0.82467">
        <ele>93</ele>
        <time>2015-03-16T09:18:36Z</time>
      </trkpt>
      <trkpt lat="47.0355" lon="-0.82464">
        <ele>93</ele>
        <time>2015-03-16T09:18:38Z</time>
      </trkpt>
      <trkpt lat="47.03553" lon="-0.82462">
        <ele>93</ele>
        <time>2015-03-16T09:18:41Z</time>
      </trkpt>
      <trkpt lat="47.03555" lon="-0.8246">
        <ele>93</ele>
        <time>2015-03-16T09:18:43Z</time>
      </trkpt>
      <trkpt lat="47.03557" lon="-0.82458">
        <ele>93</ele>
        <time>2015-03-16T09:18:45Z</time>
      </trkpt>
      <trkpt lat="47.03559" lon="-0.82456">
        <ele>93</ele>
        <time>2015-03-16T09:18:47Z</time>
      </trkpt>
      <trkpt lat="47.03561" lon="-0.82455">
        <ele>93</ele>
        <time>2015-03-16T09:18:49Z</time>
      </trkpt>
      <trkpt lat="47.03563" lon="-0.82453">
        <ele>93</ele>
        <time>2015-03-16T09:18:51Z</time>
      </trkpt>
      <trkpt lat="47.03565" lon="-0.82451">
        <ele>93</ele>
        <time>2015-03-16T09:18:53Z</time>
      </trkpt>
      <trkpt lat="47.03567" lon="-0.8245">
        <ele>93</ele>
        <time>2015-03-16T09:18:55Z</time>
      </trkpt>
      <trkpt lat="47.03569" lon="-0.82447">
        <ele>93</ele>
        <time>2015-03-16T09:18:57Z</time>
      </trkpt>
      <trkpt lat="47.03571" lon="-0.82446">
        <ele>93</ele>
        <time>2015-03-16T09:18:59Z</time>
      </trkpt>
      <trkpt lat="47.03574" lon="-0.82444">
        <ele>93</ele>
        <time>2015-03-16T09:19:01Z</time>
      </trkpt>
      <trkpt lat="47.03576" lon="-0.82442">
        <ele>93</ele>
        <time>2015-03-16T09:19:03Z</time>
      </trkpt>
      <trkpt lat="47.03577" lon="-0.8244">
        <ele>93</ele>
        <time>2015-03-16T09:19:05Z</time>
      </trkpt>
      <trkpt lat="47.0358" lon="-0.82437">
        <ele>93</ele>
        <time>2015-03-16T09:19:07Z</time>
      </trkpt>
      <trkpt lat="47.03582" lon="-0.82436">
        <ele>93</ele>
        <time>2015-03-16T09:19:09Z</time>
      </trkpt>
      <trkpt lat="47.03584" lon="-0.82434">
        <ele>94</ele>
        <time>2015-03-16T09:19:11Z</time>
      </trkpt>
      <trkpt lat="47.03587" lon="-0.8243">
        <ele>94</ele>
        <time>2015-03-16T09:19:14Z</time>
      </trkpt>
      <trkpt lat="47.03589" lon="-0.82428">
        <ele>94</ele>
        <time>2015-03-16T09:19:16Z</time>
      </trkpt>
      <trkpt lat="47.03591" lon="-0.82427">
        <ele>94</ele>
        <time>2015-03-16T09:19:18Z</time>
      </trkpt>
      <trkpt lat="47.03593" lon="-0.82425">
        <ele>95</ele>
        <time>2015-03-16T09:19:20Z</time>
      </trkpt>
      <trkpt lat="47.03595" lon="-0.82423">
        <ele>95</ele>
        <time>2015-03-16T09:19:22Z</time>
      </trkpt>
      <trkpt lat="47.03597" lon="-0.82421">
        <ele>95</ele>
        <time>2015-03-16T09:19:24Z</time>
      </trkpt>
      <trkpt lat="47.03599" lon="-0.82419">
        <ele>95</ele>
        <time>2015-03-16T09:19:26Z</time>
      </trkpt>
      <trkpt lat="47.03602" lon="-0.82417">
        <ele>95</ele>
        <time>2015-03-16T09:19:28Z</time>
      </trkpt>
      <trkpt lat="47.03604" lon="-0.82415">
        <ele>95</ele>
        <time>2015-03-16T09:19:30Z</time>
      </trkpt>
      <trkpt lat="47.03606" lon="-0.82414">
        <ele>95</ele>
        <time>2015-03-16T09:19:32Z</time>
      </trkpt>
      <trkpt lat="47.03608" lon="-0.82412">
        <ele>95</ele>
        <time>2015-03-16T09:19:34Z</time>
      </trkpt>
      <trkpt lat="47.03611" lon="-0.82411">
        <ele>95</ele>
        <time>2015-03-16T09:19:36Z</time>
      </trkpt>
      <trkpt lat="47.03613" lon="-0.82409">
        <ele>95</ele>
        <time>2015-03-16T09:19:38Z</time>
      </trkpt>
      <trkpt lat="47.03615" lon="-0.82408">
        <ele>95</ele>
        <time>2015-03-16T09:19:40Z</time>
      </trkpt>
      <trkpt lat="47.03617" lon="-0.82406">
        <ele>95</ele>
        <time>2015-03-16T09:19:42Z</time>
      </trkpt>
      <trkpt lat="47.0362" lon="-0.82405">
        <ele>95</ele>
        <time>2015-03-16T09:19:44Z</time>
      </trkpt>
      <trkpt lat="47.03622" lon="-0.82404">
        <ele>95</ele>
        <time>2015-03-16T09:19:46Z</time>
      </trkpt>
      <trkpt lat="47.03625" lon="-0.82403">
        <ele>95</ele>
        <time>2015-03-16T09:19:48Z</time>
      </trkpt>
      <trkpt lat="47.03628" lon="-0.82402">
        <ele>95</ele>
        <time>2015-03-16T09:19:51Z</time>
      </trkpt>
      <trkpt lat="47.0363" lon="-0.82401">
        <ele>95</ele>
        <time>2015-03-16T09:19:53Z</time>
      </trkpt>
      <trkpt lat="47.03632" lon="-0.824">
        <ele>95</ele>
        <time>2015-03-16T09:19:55Z</time>
      </trkpt>
      <trkpt lat="47.03635" lon="-0.82399">
        <ele>95</ele>
        <time>2015-03-16T09:19:57Z</time>
      </trkpt>
      <trkpt lat="47.03637" lon="-0.82398">
        <ele>95</ele>
        <time>2015-03-16T09:19:59Z</time>
      </trkpt>
      <trkpt lat="47.0364" lon="-0.82398">
        <ele>95</ele>
        <time>2015-03-16T09:20:01Z</time>
      </trkpt>
      <trkpt lat="47.03642" lon="-0.82397">
        <ele>95</ele>
        <time>2015-03-16T09:20:03Z</time>
      </trkpt>
      <trkpt lat="47.03644" lon="-0.82397">
        <ele>95</ele>
        <time>2015-03-16T09:20:05Z</time>
      </trkpt>
      <trkpt lat="47.03647" lon="-0.82396">
        <ele>95</ele>
        <time>2015-03-16T09:20:07Z</time>
      </trkpt>
      <trkpt lat="47.0365" lon="-0.82396">
        <ele>95</ele>
        <time>2015-03-16T09:20:09Z</time>
      </trkpt>
      <trkpt lat="47.03652" lon="-0.82396">
        <ele>95</ele>
        <time>2015-03-16T09:20:11Z</time>
      </trkpt>
      <trkpt lat="47.03654" lon="-0.82396">
        <ele>95</ele>
        <time>2015-03-16T09:20:13Z</time>
      </trkpt>
      <trkpt lat="47.03657" lon="-0.82396">
        <ele>95</ele>
        <time>2015-03-16T09:20:15Z</time>
      </trkpt>
      <trkpt lat="47.03659" lon="-0.82397">
        <ele>95</ele>
        <time>2015-03-16T09:20:17Z</time>
      </trkpt>
      <trkpt lat="47.03662" lon="-0.82397">
        <ele>95</ele>
        <time>2015-03-16T09:20:19Z</time>
      </trkpt>
      <trkpt lat="47.03664" lon="-0.82398">
        <ele>95</ele>
        <time>2015-03-16T09:20:21Z</time>
      </trkpt>
      <trkpt lat="47.03667" lon="-0.82397">
        <ele>95</ele>
        <time>2015-03-16T09:20:23Z</time>
      </trkpt>
      <trkpt lat="47.0367" lon="-0.82396">
        <ele>95</ele>
        <time>2015-03-16T09:20:25Z</time>
      </trkpt>
      <trkpt lat="47.03673" lon="-0.82397">
        <ele>95</ele>
        <time>2015-03-16T09:20:28Z</time>
      </trkpt>
      <trkpt lat="47.03676" lon="-0.82397">
        <ele>95</ele>
        <time>2015-03-16T09:20:30Z</time>
      </trkpt>
      <trkpt lat="47.03678" lon="-0.82397">
        <ele>96</ele>
        <time>2015-03-16T09:20:32Z</time>
      </trkpt>
      <trkpt lat="47.03681" lon="-0.82398">
        <ele>96</ele>
        <time>2015-03-16T09:20:34Z</time>
      </trkpt>
      <trkpt lat="47.03683" lon="-0.82398">
        <ele>96</ele>
        <time>2015-03-16T09:20:36Z</time>
      </trkpt>
      <trkpt lat="47.03685" lon="-0.82398">
        <ele>96</ele>
        <time>2015-03-16T09:20:38Z</time>
      </trkpt>
      <trkpt lat="47.03688" lon="-0.82398">
        <ele>96</ele>
        <time>2015-03-16T09:20:40Z</time>
      </trkpt>
      <trkpt lat="47.03691" lon="-0.82397">
        <ele>96</ele>
        <time>2015-03-16T09:20:43Z</time>
      </trkpt>
      <trkpt lat="47.03694" lon="-0.82397">
        <ele>96</ele>
        <time>2015-03-16T09:20:45Z</time>
      </trkpt>
      <trkpt lat="47.03697" lon="-0.82396">
        <ele>96</ele>
        <time>2015-03-16T09:20:47Z</time>
      </trkpt>
      <trkpt lat="47.037" lon="-0.82396">
        <ele>96</ele>
        <time>2015-03-16T09:20:50Z</time>
      </trkpt>
      <trkpt lat="47.03703" lon="-0.82394">
        <ele>96</ele>
        <time>2015-03-16T09:20:52Z</time>
      </trkpt>
      <trkpt lat="47.03705" lon="-0.82394">
        <ele>96</ele>
        <time>2015-03-16T09:20:54Z</time>
      </trkpt>
      <trkpt lat="47.03707" lon="-0.82394">
        <ele>96</ele>
        <time>2015-03-16T09:20:56Z</time>
      </trkpt>
      <trkpt lat="47.0371" lon="-0.82393">
        <ele>96</ele>
        <time>2015-03-16T09:20:58Z</time>
      </trkpt>
      <trkpt lat="47.03713" lon="-0.82392">
        <ele>96</ele>
        <time>2015-03-16T09:21:00Z</time>
      </trkpt>
      <trkpt lat="47.03715" lon="-0.8239">
        <ele>96</ele>
        <time>2015-03-16T09:21:02Z</time>
      </trkpt>
      <trkpt lat="47.03717" lon="-0.82389">
        <ele>96</ele>
        <time>2015-03-16T09:21:04Z</time>
      </trkpt>
      <trkpt lat="47.0372" lon="-0.82388">
        <ele>96</ele>
        <time>2015-03-16T09:21:06Z</time>
      </trkpt>
      <trkpt lat="47.03722" lon="-0.82387">
        <ele>96</ele>
        <time>2015-03-16T09:21:08Z</time>
      </trkpt>
      <trkpt lat="47.03725" lon="-0.82386">
        <ele>96</ele>
        <time>2015-03-16T09:21:10Z</time>
      </trkpt>
      <trkpt lat="47.03727" lon="-0.82385">
        <ele>96</ele>
        <time>2015-03-16T09:21:12Z</time>
      </trkpt>
      <trkpt lat="47.0373" lon="-0.82384">
        <ele>96</ele>
        <time>2015-03-16T09:21:14Z</time>
      </trkpt>
      <trkpt lat="47.03732" lon="-0.82383">
        <ele>96</ele>
        <time>2015-03-16T09:21:16Z</time>
      </trkpt>
      <trkpt lat="47.03735" lon="-0.82381">
        <ele>96</ele>
        <time>2015-03-16T09:21:18Z</time>
      </trkpt>
      <trkpt lat="47.03738" lon="-0.8238">
        <ele>96</ele>
        <time>2015-03-16T09:21:21Z</time>
      </trkpt>
      <trkpt lat="47.0374" lon="-0.82378">
        <ele>96</ele>
        <time>2015-03-16T09:21:23Z</time>
      </trkpt>
      <trkpt lat="47.03743" lon="-0.82376">
        <ele>96</ele>
        <time>2015-03-16T09:21:25Z</time>
      </trkpt>
      <trkpt lat="47.03746" lon="-0.82375">
        <ele>96</ele>
        <time>2015-03-16T09:21:27Z</time>
      </trkpt>
      <trkpt lat="47.03748" lon="-0.82373">
        <ele>96</ele>
        <time>2015-03-16T09:21:29Z</time>
      </trkpt>
      <trkpt lat="47.03751" lon="-0.82372">
        <ele>96</ele>
        <time>2015-03-16T09:21:31Z</time>
      </trkpt>
      <trkpt lat="47.03754" lon="-0.82371">
        <ele>96</ele>
        <time>2015-03-16T09:21:33Z</time>
      </trkpt>
      <trkpt lat="47.03757" lon="-0.82369">
        <ele>97</ele>
        <time>2015-03-16T09:21:35Z</time>
      </trkpt>
      <trkpt lat="47.03759" lon="-0.82368">
        <ele>97</ele>
        <time>2015-03-16T09:21:37Z</time>
      </trkpt>
      <trkpt lat="47.03762" lon="-0.82367">
        <ele>97</ele>
        <time>2015-03-16T09:21:39Z</time>
      </trkpt>
      <trkpt lat="47.03764" lon="-0.82365">
        <ele>97</ele>
        <time>2015-03-16T09:21:41Z</time>
      </trkpt>
      <trkpt lat="47.03767" lon="-0.82364">
        <ele>97</ele>
        <time>2015-03-16T09:21:43Z</time>
      </trkpt>
      <trkpt lat="47.0377" lon="-0.82363">
        <ele>97</ele>
        <time>2015-03-16T09:21:45Z</time>
      </trkpt>
      <trkpt lat="47.03772" lon="-0.82361">
        <ele>97</ele>
        <time>2015-03-16T09:21:47Z</time>
      </trkpt>
      <trkpt lat="47.03775" lon="-0.82361">
        <ele>97</ele>
        <time>2015-03-16T09:21:49Z</time>
      </trkpt>
      <trkpt lat="47.03778" lon="-0.82359">
        <ele>98</ele>
        <time>2015-03-16T09:21:52Z</time>
      </trkpt>
      <trkpt lat="47.03781" lon="-0.82358">
        <ele>98</ele>
        <time>2015-03-16T09:21:55Z</time>
      </trkpt>
      <trkpt lat="47.03783" lon="-0.82357">
        <ele>98</ele>
        <time>2015-03-16T09:21:57Z</time>
      </trkpt>
      <trkpt lat="47.03786" lon="-0.82355">
        <ele>98</ele>
        <time>2015-03-16T09:22:00Z</time>
      </trkpt>
      <trkpt lat="47.03789" lon="-0.82354">
        <ele>98</ele>
        <time>2015-03-16T09:22:02Z</time>
      </trkpt>
      <trkpt lat="47.03791" lon="-0.82353">
        <ele>98</ele>
        <time>2015-03-16T09:22:04Z</time>
      </trkpt>
      <trkpt lat="47.03794" lon="-0.82352">
        <ele>98</ele>
        <time>2015-03-16T09:22:06Z</time>
      </trkpt>
      <trkpt lat="47.03796" lon="-0.82351">
        <ele>98</ele>
        <time>2015-03-16T09:22:08Z</time>
      </trkpt>
      <trkpt lat="47.03799" lon="-0.8235">
        <ele>98</ele>
        <time>2015-03-16T09:22:10Z</time>
      </trkpt>
      <trkpt lat="47.03801" lon="-0.82349">
        <ele>98</ele>
        <time>2015-03-16T09:22:12Z</time>
      </trkpt>
      <trkpt lat="47.03804" lon="-0.82347">
        <ele>98</ele>
        <time>2015-03-16T09:22:14Z</time>
      </trkpt>
      <trkpt lat="47.03807" lon="-0.82346">
        <ele>98</ele>
        <time>2015-03-16T09:22:16Z</time>
      </trkpt>
      <trkpt lat="47.03809" lon="-0.82345">
        <ele>98</ele>
        <time>2015-03-16T09:22:18Z</time>
      </trkpt>
      <trkpt lat="47.03812" lon="-0.82344">
        <ele>98</ele>
        <time>2015-03-16T09:22:20Z</time>
      </trkpt>
      <trkpt lat="47.03814" lon="-0.82343">
        <ele>98</ele>
        <time>2015-03-16T09:22:22Z</time>
      </trkpt>
      <trkpt lat="47.03817" lon="-0.82341">
        <ele>98</ele>
        <time>2015-03-16T09:22:24Z</time>
      </trkpt>
      <trkpt lat="47.0382" lon="-0.8234">
        <ele>98</ele>
        <time>2015-03-16T09:22:27Z</time>
      </trkpt>
      <trkpt lat="47.03822" lon="-0.82337">
        <ele>98</ele>
        <time>2015-03-16T09:22:29Z</time>
      </trkpt>
      <trkpt lat="47.03825" lon="-0.82336">
        <ele>98</ele>
        <time>2015-03-16T09:22:31Z</time>
      </trkpt>
      <trkpt lat="47.03828" lon="-0.82334">
        <ele>98</ele>
        <time>2015-03-16T09:22:33Z</time>
      </trkpt>
      <trkpt lat="47.03831" lon="-0.82332">
        <ele>98</ele>
        <time>2015-03-16T09:22:35Z</time>
      </trkpt>
      <trkpt lat="47.03834" lon="-0.82329">
        <ele>98</ele>
        <time>2015-03-16T09:22:38Z</time>
      </trkpt>
      <trkpt lat="47.03836" lon="-0.82327">
        <ele>98</ele>
        <time>2015-03-16T09:22:40Z</time>
      </trkpt>
      <trkpt lat="47.03838" lon="-0.82325">
        <ele>98</ele>
        <time>2015-03-16T09:22:42Z</time>
      </trkpt>
      <trkpt lat="47.0384" lon="-0.82323">
        <ele>98</ele>
        <time>2015-03-16T09:22:44Z</time>
      </trkpt>
      <trkpt lat="47.03842" lon="-0.8232">
        <ele>98</ele>
        <time>2015-03-16T09:22:46Z</time>
      </trkpt>
      <trkpt lat="47.03844" lon="-0.82318">
        <ele>98</ele>
        <time>2015-03-16T09:22:48Z</time>
      </trkpt>
      <trkpt lat="47.03846" lon="-0.82315">
        <ele>98</ele>
        <time>2015-03-16T09:22:50Z</time>
      </trkpt>
      <trkpt lat="47.03849" lon="-0.82313">
        <ele>98</ele>
        <time>2015-03-16T09:22:52Z</time>
      </trkpt>
      <trkpt lat="47.03851" lon="-0.8231">
        <ele>98</ele>
        <time>2015-03-16T09:22:55Z</time>
      </trkpt>
      <trkpt lat="47.03853" lon="-0.82307">
        <ele>98</ele>
        <time>2015-03-16T09:22:57Z</time>
      </trkpt>
      <trkpt lat="47.03855" lon="-0.82305">
        <ele>98</ele>
        <time>2015-03-16T09:22:59Z</time>
      </trkpt>
      <trkpt lat="47.03856" lon="-0.82301">
        <ele>98</ele>
        <time>2015-03-16T09:23:01Z</time>
      </trkpt>
      <trkpt lat="47.03858" lon="-0.82296">
        <ele>98</ele>
        <time>2015-03-16T09:23:03Z</time>
      </trkpt>
      <trkpt lat="47.03861" lon="-0.82289">
        <ele>98</ele>
        <time>2015-03-16T09:23:05Z</time>
      </trkpt>
      <trkpt lat="47.03865" lon="-0.82283">
        <ele>98</ele>
        <time>2015-03-16T09:23:08Z</time>
      </trkpt>
      <trkpt lat="47.03867" lon="-0.8228">
        <ele>98</ele>
        <time>2015-03-16T09:23:11Z</time>
      </trkpt>
      <trkpt lat="47.0387" lon="-0.82279">
        <ele>98</ele>
        <time>2015-03-16T09:23:14Z</time>
      </trkpt>
      <trkpt lat="47.03873" lon="-0.82278">
        <ele>98</ele>
        <time>2015-03-16T09:23:16Z</time>
      </trkpt>
      <trkpt lat="47.03876" lon="-0.82276">
        <ele>98</ele>
        <time>2015-03-16T09:23:18Z</time>
      </trkpt>
      <trkpt lat="47.03878" lon="-0.82275">
        <ele>98</ele>
        <time>2015-03-16T09:23:20Z</time>
      </trkpt>
      <trkpt lat="47.03881" lon="-0.82274">
        <ele>98</ele>
        <time>2015-03-16T09:23:22Z</time>
      </trkpt>
      <trkpt lat="47.03884" lon="-0.82273">
        <ele>98</ele>
        <time>2015-03-16T09:23:25Z</time>
      </trkpt>
      <trkpt lat="47.03886" lon="-0.82272">
        <ele>98</ele>
        <time>2015-03-16T09:23:27Z</time>
      </trkpt>
      <trkpt lat="47.03887" lon="-0.82271">
        <ele>98</ele>
        <time>2015-03-16T09:23:29Z</time>
      </trkpt>
      <trkpt lat="47.03891" lon="-0.8227">
        <ele>98</ele>
        <time>2015-03-16T09:23:32Z</time>
      </trkpt>
      <trkpt lat="47.03893" lon="-0.82269">
        <ele>98</ele>
        <time>2015-03-16T09:23:34Z</time>
      </trkpt>
      <trkpt lat="47.03896" lon="-0.82268">
        <ele>98</ele>
        <time>2015-03-16T09:23:36Z</time>
      </trkpt>
      <trkpt lat="47.03899" lon="-0.82266">
        <ele>98</ele>
        <time>2015-03-16T09:23:38Z</time>
      </trkpt>
      <trkpt lat="47.03902" lon="-0.82265">
        <ele>97</ele>
        <time>2015-03-16T09:23:40Z</time>
      </trkpt>
      <trkpt lat="47.03904" lon="-0.82265">
        <ele>97</ele>
        <time>2015-03-16T09:23:42Z</time>
      </trkpt>
      <trkpt lat="47.03906" lon="-0.82265">
        <ele>97</ele>
        <time>2015-03-16T09:23:44Z</time>
      </trkpt>
      <trkpt lat="47.03909" lon="-0.82263">
        <ele>97</ele>
        <time>2015-03-16T09:23:46Z</time>
      </trkpt>
      <trkpt lat="47.03911" lon="-0.82264">
        <ele>96</ele>
        <time>2015-03-16T09:23:48Z</time>
      </trkpt>
      <trkpt lat="47.03912" lon="-0.82263">
        <ele>96</ele>
        <time>2015-03-16T09:23:50Z</time>
      </trkpt>
      <trkpt lat="47.03914" lon="-0.82262">
        <ele>95</ele>
        <time>2015-03-16T09:23:52Z</time>
      </trkpt>
      <trkpt lat="47.03916" lon="-0.82262">
        <ele>94</ele>
        <time>2015-03-16T09:23:54Z</time>
      </trkpt>
      <trkpt lat="47.03918" lon="-0.82262">
        <ele>93</ele>
        <time>2015-03-16T09:23:56Z</time>
      </trkpt>
      <trkpt lat="47.03919" lon="-0.82261">
        <ele>93</ele>
        <time>2015-03-16T09:23:58Z</time>
      </trkpt>
      <trkpt lat="47.03921" lon="-0.8226">
        <ele>92</ele>
        <time>2015-03-16T09:24:00Z</time>
      </trkpt>
      <trkpt lat="47.03923" lon="-0.82259">
        <ele>91</ele>
        <time>2015-03-16T09:24:02Z</time>
      </trkpt>
      <trkpt lat="47.03925" lon="-0.82259">
        <ele>90</ele>
        <time>2015-03-16T09:24:04Z</time>
      </trkpt>
      <trkpt lat="47.03927" lon="-0.82258">
        <ele>90</ele>
        <time>2015-03-16T09:24:06Z</time>
      </trkpt>
      <trkpt lat="47.0393" lon="-0.82257">
        <ele>89</ele>
        <time>2015-03-16T09:24:08Z</time>
      </trkpt>
      <trkpt lat="47.03933" lon="-0.82255">
        <ele>89</ele>
        <time>2015-03-16T09:24:10Z</time>
      </trkpt>
      <trkpt lat="47.03935" lon="-0.82253">
        <ele>88</ele>
        <time>2015-03-16T09:24:12Z</time>
      </trkpt>
      <trkpt lat="47.03939" lon="-0.82252">
        <ele>88</ele>
        <time>2015-03-16T09:24:14Z</time>
      </trkpt>
      <trkpt lat="47.03941" lon="-0.82251">
        <ele>88</ele>
        <time>2015-03-16T09:24:16Z</time>
      </trkpt>
      <trkpt lat="47.03943" lon="-0.8225">
        <ele>87</ele>
        <time>2015-03-16T09:24:18Z</time>
      </trkpt>
      <trkpt lat="47.03945" lon="-0.82249">
        <ele>86</ele>
        <time>2015-03-16T09:24:20Z</time>
      </trkpt>
      <trkpt lat="47.03947" lon="-0.82248">
        <ele>86</ele>
        <time>2015-03-16T09:24:22Z</time>
      </trkpt>
      <trkpt lat="47.03952" lon="-0.82247">
        <ele>86</ele>
        <time>2015-03-16T09:24:24Z</time>
      </trkpt>
      <trkpt lat="47.03954" lon="-0.82246">
        <ele>86</ele>
        <time>2015-03-16T09:24:26Z</time>
      </trkpt>
      <trkpt lat="47.03956" lon="-0.82244">
        <ele>86</ele>
        <time>2015-03-16T09:24:28Z</time>
      </trkpt>
      <trkpt lat="47.03959" lon="-0.82243">
        <ele>86</ele>
        <time>2015-03-16T09:24:30Z</time>
      </trkpt>
      <trkpt lat="47.03961" lon="-0.82242">
        <ele>86</ele>
        <time>2015-03-16T09:24:32Z</time>
      </trkpt>
      <trkpt lat="47.03964" lon="-0.82241">
        <ele>86</ele>
        <time>2015-03-16T09:24:34Z</time>
      </trkpt>
      <trkpt lat="47.03966" lon="-0.82239">
        <ele>86</ele>
        <time>2015-03-16T09:24:36Z</time>
      </trkpt>
      <trkpt lat="47.03969" lon="-0.82237">
        <ele>85</ele>
        <time>2015-03-16T09:24:38Z</time>
      </trkpt>
      <trkpt lat="47.03971" lon="-0.82236">
        <ele>85</ele>
        <time>2015-03-16T09:24:40Z</time>
      </trkpt>
      <trkpt lat="47.03974" lon="-0.82235">
        <ele>85</ele>
        <time>2015-03-16T09:24:42Z</time>
      </trkpt>
      <trkpt lat="47.03976" lon="-0.82234">
        <ele>85</ele>
        <time>2015-03-16T09:24:44Z</time>
      </trkpt>
      <trkpt lat="47.03979" lon="-0.82232">
        <ele>85</ele>
        <time>2015-03-16T09:24:46Z</time>
      </trkpt>
      <trkpt lat="47.03981" lon="-0.82231">
        <ele>84</ele>
        <time>2015-03-16T09:24:48Z</time>
      </trkpt>
      <trkpt lat="47.03983" lon="-0.82229">
        <ele>84</ele>
        <time>2015-03-16T09:24:50Z</time>
      </trkpt>
      <trkpt lat="47.03986" lon="-0.82228">
        <ele>84</ele>
        <time>2015-03-16T09:24:52Z</time>
      </trkpt>
      <trkpt lat="47.03989" lon="-0.82226">
        <ele>84</ele>
        <time>2015-03-16T09:24:54Z</time>
      </trkpt>
      <trkpt lat="47.03991" lon="-0.82225">
        <ele>84</ele>
        <time>2015-03-16T09:24:56Z</time>
      </trkpt>
      <trkpt lat="47.03994" lon="-0.82225">
        <ele>84</ele>
        <time>2015-03-16T09:24:58Z</time>
      </trkpt>
      <trkpt lat="47.03996" lon="-0.82223">
        <ele>84</ele>
        <time>2015-03-16T09:25:00Z</time>
      </trkpt>
      <trkpt lat="47.03999" lon="-0.82222">
        <ele>84</ele>
        <time>2015-03-16T09:25:02Z</time>
      </trkpt>
      <trkpt lat="47.04002" lon="-0.82221">
        <ele>84</ele>
        <time>2015-03-16T09:25:04Z</time>
      </trkpt>
      <trkpt lat="47.04005" lon="-0.8222">
        <ele>84</ele>
        <time>2015-03-16T09:25:06Z</time>
      </trkpt>
      <trkpt lat="47.04007" lon="-0.82218">
        <ele>84</ele>
        <time>2015-03-16T09:25:08Z</time>
      </trkpt>
      <trkpt lat="47.0401" lon="-0.82217">
        <ele>84</ele>
        <time>2015-03-16T09:25:10Z</time>
      </trkpt>
      <trkpt lat="47.04013" lon="-0.82217">
        <ele>84</ele>
        <time>2015-03-16T09:25:12Z</time>
      </trkpt>
      <trkpt lat="47.04015" lon="-0.82216">
        <ele>84</ele>
        <time>2015-03-16T09:25:14Z</time>
      </trkpt>
      <trkpt lat="47.04017" lon="-0.82215">
        <ele>84</ele>
        <time>2015-03-16T09:25:16Z</time>
      </trkpt>
      <trkpt lat="47.0402" lon="-0.82213">
        <ele>84</ele>
        <time>2015-03-16T09:25:19Z</time>
      </trkpt>
      <trkpt lat="47.04023" lon="-0.82212">
        <ele>84</ele>
        <time>2015-03-16T09:25:21Z</time>
      </trkpt>
      <trkpt lat="47.04025" lon="-0.82211">
        <ele>84</ele>
        <time>2015-03-16T09:25:23Z</time>
      </trkpt>
      <trkpt lat="47.04027" lon="-0.8221">
        <ele>84</ele>
        <time>2015-03-16T09:25:25Z</time>
      </trkpt>
      <trkpt lat="47.0403" lon="-0.82209">
        <ele>84</ele>
        <time>2015-03-16T09:25:27Z</time>
      </trkpt>
      <trkpt lat="47.04032" lon="-0.82208">
        <ele>84</ele>
        <time>2015-03-16T09:25:29Z</time>
      </trkpt>
      <trkpt lat="47.04035" lon="-0.82207">
        <ele>84</ele>
        <time>2015-03-16T09:25:31Z</time>
      </trkpt>
      <trkpt lat="47.04037" lon="-0.82206">
        <ele>84</ele>
        <time>2015-03-16T09:25:33Z</time>
      </trkpt>
      <trkpt lat="47.04039" lon="-0.82205">
        <ele>84</ele>
        <time>2015-03-16T09:25:35Z</time>
      </trkpt>
      <trkpt lat="47.04041" lon="-0.82203">
        <ele>84</ele>
        <time>2015-03-16T09:25:37Z</time>
      </trkpt>
      <trkpt lat="47.04044" lon="-0.82202">
        <ele>84</ele>
        <time>2015-03-16T09:25:39Z</time>
      </trkpt>
      <trkpt lat="47.04046" lon="-0.82201">
        <ele>84</ele>
        <time>2015-03-16T09:25:41Z</time>
      </trkpt>
      <trkpt lat="47.04048" lon="-0.822">
        <ele>84</ele>
        <time>2015-03-16T09:25:43Z</time>
      </trkpt>
      <trkpt lat="47.0405" lon="-0.82199">
        <ele>84</ele>
        <time>2015-03-16T09:25:45Z</time>
      </trkpt>
      <trkpt lat="47.04053" lon="-0.82198">
        <ele>84</ele>
        <time>2015-03-16T09:25:47Z</time>
      </trkpt>
      <trkpt lat="47.04055" lon="-0.82197">
        <ele>84</ele>
        <time>2015-03-16T09:25:49Z</time>
      </trkpt>
      <trkpt lat="47.04057" lon="-0.82196">
        <ele>84</ele>
        <time>2015-03-16T09:25:51Z</time>
      </trkpt>
      <trkpt lat="47.0406" lon="-0.82195">
        <ele>84</ele>
        <time>2015-03-16T09:25:53Z</time>
      </trkpt>
      <trkpt lat="47.04063" lon="-0.82193">
        <ele>84</ele>
        <time>2015-03-16T09:25:55Z</time>
      </trkpt>
      <trkpt lat="47.04065" lon="-0.82192">
        <ele>84</ele>
        <time>2015-03-16T09:25:57Z</time>
      </trkpt>
      <trkpt lat="47.04067" lon="-0.82191">
        <ele>84</ele>
        <time>2015-03-16T09:25:59Z</time>
      </trkpt>
      <trkpt lat="47.04071" lon="-0.82189">
        <ele>84</ele>
        <time>2015-03-16T09:26:02Z</time>
      </trkpt>
      <trkpt lat="47.04073" lon="-0.82188">
        <ele>84</ele>
        <time>2015-03-16T09:26:04Z</time>
      </trkpt>
      <trkpt lat="47.04075" lon="-0.82187">
        <ele>85</ele>
        <time>2015-03-16T09:26:06Z</time>
      </trkpt>
      <trkpt lat="47.04077" lon="-0.82186">
        <ele>85</ele>
        <time>2015-03-16T09:26:08Z</time>
      </trkpt>
      <trkpt lat="47.04079" lon="-0.82185">
        <ele>85</ele>
        <time>2015-03-16T09:26:10Z</time>
      </trkpt>
      <trkpt lat="47.04081" lon="-0.82183">
        <ele>85</ele>
        <time>2015-03-16T09:26:12Z</time>
      </trkpt>
      <trkpt lat="47.04083" lon="-0.8218">
        <ele>85</ele>
        <time>2015-03-16T09:26:14Z</time>
      </trkpt>
      <trkpt lat="47.04085" lon="-0.82178">
        <ele>85</ele>
        <time>2015-03-16T09:26:16Z</time>
      </trkpt>
      <trkpt lat="47.04087" lon="-0.82176">
        <ele>86</ele>
        <time>2015-03-16T09:26:18Z</time>
      </trkpt>
      <trkpt lat="47.04089" lon="-0.82174">
        <ele>86</ele>
        <time>2015-03-16T09:26:20Z</time>
      </trkpt>
      <trkpt lat="47.04092" lon="-0.82173">
        <ele>86</ele>
        <time>2015-03-16T09:26:22Z</time>
      </trkpt>
      <trkpt lat="47.04094" lon="-0.82172">
        <ele>86</ele>
        <time>2015-03-16T09:26:24Z</time>
      </trkpt>
      <trkpt lat="47.04096" lon="-0.82171">
        <ele>86</ele>
        <time>2015-03-16T09:26:26Z</time>
      </trkpt>
      <trkpt lat="47.041" lon="-0.8217">
        <ele>86</ele>
        <time>2015-03-16T09:26:29Z</time>
      </trkpt>
      <trkpt lat="47.04102" lon="-0.8217">
        <ele>86</ele>
        <time>2015-03-16T09:26:31Z</time>
      </trkpt>
      <trkpt lat="47.04104" lon="-0.82169">
        <ele>86</ele>
        <time>2015-03-16T09:26:33Z</time>
      </trkpt>
      <trkpt lat="47.04107" lon="-0.82169">
        <ele>87</ele>
        <time>2015-03-16T09:26:36Z</time>
      </trkpt>
      <trkpt lat="47.0411" lon="-0.82169">
        <ele>87</ele>
        <time>2015-03-16T09:26:38Z</time>
      </trkpt>
      <trkpt lat="47.04112" lon="-0.82169">
        <ele>87</ele>
        <time>2015-03-16T09:26:40Z</time>
      </trkpt>
      <trkpt lat="47.04116" lon="-0.82169">
        <ele>87</ele>
        <time>2015-03-16T09:26:43Z</time>
      </trkpt>
      <trkpt lat="47.04118" lon="-0.82168">
        <ele>87</ele>
        <time>2015-03-16T09:26:45Z</time>
      </trkpt>
      <trkpt lat="47.04121" lon="-0.82167">
        <ele>87</ele>
        <time>2015-03-16T09:26:47Z</time>
      </trkpt>
      <trkpt lat="47.04124" lon="-0.82166">
        <ele>88</ele>
        <time>2015-03-16T09:26:49Z</time>
      </trkpt>
      <trkpt lat="47.04126" lon="-0.82165">
        <ele>88</ele>
        <time>2015-03-16T09:26:51Z</time>
      </trkpt>
      <trkpt lat="47.04128" lon="-0.82164">
        <ele>88</ele>
        <time>2015-03-16T09:26:53Z</time>
      </trkpt>
      <trkpt lat="47.04132" lon="-0.82163">
        <ele>89</ele>
        <time>2015-03-16T09:26:56Z</time>
      </trkpt>
      <trkpt lat="47.04134" lon="-0.82161">
        <ele>89</ele>
        <time>2015-03-16T09:26:58Z</time>
      </trkpt>
      <trkpt lat="47.04136" lon="-0.8216">
        <ele>89</ele>
        <time>2015-03-16T09:27:00Z</time>
      </trkpt>
      <trkpt lat="47.04139" lon="-0.82158">
        <ele>89</ele>
        <time>2015-03-16T09:27:02Z</time>
      </trkpt>
      <trkpt lat="47.04141" lon="-0.82156">
        <ele>90</ele>
        <time>2015-03-16T09:27:04Z</time>
      </trkpt>
      <trkpt lat="47.04143" lon="-0.82153">
        <ele>90</ele>
        <time>2015-03-16T09:27:06Z</time>
      </trkpt>
      <trkpt lat="47.04145" lon="-0.82151">
        <ele>91</ele>
        <time>2015-03-16T09:27:08Z</time>
      </trkpt>
      <trkpt lat="47.04148" lon="-0.82148">
        <ele>91</ele>
        <time>2015-03-16T09:27:11Z</time>
      </trkpt>
      <trkpt lat="47.04151" lon="-0.82146">
        <ele>91</ele>
        <time>2015-03-16T09:27:13Z</time>
      </trkpt>
      <trkpt lat="47.04153" lon="-0.82145">
        <ele>91</ele>
        <time>2015-03-16T09:27:15Z</time>
      </trkpt>
      <trkpt lat="47.04156" lon="-0.82145">
        <ele>92</ele>
        <time>2015-03-16T09:27:17Z</time>
      </trkpt>
      <trkpt lat="47.04159" lon="-0.82144">
        <ele>92</ele>
        <time>2015-03-16T09:27:19Z</time>
      </trkpt>
      <trkpt lat="47.04161" lon="-0.82143">
        <ele>93</ele>
        <time>2015-03-16T09:27:21Z</time>
      </trkpt>
      <trkpt lat="47.04164" lon="-0.82142">
        <ele>93</ele>
        <time>2015-03-16T09:27:23Z</time>
      </trkpt>
      <trkpt lat="47.04166" lon="-0.82141">
        <ele>93</ele>
        <time>2015-03-16T09:27:25Z</time>
      </trkpt>
      <trkpt lat="47.04169" lon="-0.8214">
        <ele>93</ele>
        <time>2015-03-16T09:27:27Z</time>
      </trkpt>
      <trkpt lat="47.04171" lon="-0.82138">
        <ele>93</ele>
        <time>2015-03-16T09:27:29Z</time>
      </trkpt>
      <trkpt lat="47.04173" lon="-0.82136">
        <ele>93</ele>
        <time>2015-03-16T09:27:31Z</time>
      </trkpt>
      <trkpt lat="47.04175" lon="-0.82134">
        <ele>93</ele>
        <time>2015-03-16T09:27:33Z</time>
      </trkpt>
      <trkpt lat="47.04177" lon="-0.82132">
        <ele>93</ele>
        <time>2015-03-16T09:27:35Z</time>
      </trkpt>
      <trkpt lat="47.04179" lon="-0.82129">
        <ele>93</ele>
        <time>2015-03-16T09:27:37Z</time>
      </trkpt>
      <trkpt lat="47.04181" lon="-0.82127">
        <ele>94</ele>
        <time>2015-03-16T09:27:39Z</time>
      </trkpt>
      <trkpt lat="47.04184" lon="-0.82127">
        <ele>94</ele>
        <time>2015-03-16T09:27:41Z</time>
      </trkpt>
      <trkpt lat="47.04186" lon="-0.82126">
        <ele>94</ele>
        <time>2015-03-16T09:27:43Z</time>
      </trkpt>
      <trkpt lat="47.04189" lon="-0.82125">
        <ele>94</ele>
        <time>2015-03-16T09:27:45Z</time>
      </trkpt>
      <trkpt lat="47.04191" lon="-0.82125">
        <ele>94</ele>
        <time>2015-03-16T09:27:47Z</time>
      </trkpt>
      <trkpt lat="47.04194" lon="-0.82126">
        <ele>94</ele>
        <time>2015-03-16T09:27:50Z</time>
      </trkpt>
      <trkpt lat="47.04197" lon="-0.82126">
        <ele>94</ele>
        <time>2015-03-16T09:27:52Z</time>
      </trkpt>
      <trkpt lat="47.04199" lon="-0.82125">
        <ele>95</ele>
        <time>2015-03-16T09:27:54Z</time>
      </trkpt>
      <trkpt lat="47.04202" lon="-0.82125">
        <ele>95</ele>
        <time>2015-03-16T09:27:56Z</time>
      </trkpt>
      <trkpt lat="47.04204" lon="-0.82125">
        <ele>95</ele>
        <time>2015-03-16T09:27:58Z</time>
      </trkpt>
      <trkpt lat="47.04206" lon="-0.82125">
        <ele>95</ele>
        <time>2015-03-16T09:28:00Z</time>
      </trkpt>
      <trkpt lat="47.04209" lon="-0.82124">
        <ele>95</ele>
        <time>2015-03-16T09:28:02Z</time>
      </trkpt>
      <trkpt lat="47.04211" lon="-0.82123">
        <ele>95</ele>
        <time>2015-03-16T09:28:04Z</time>
      </trkpt>
      <trkpt lat="47.04214" lon="-0.82122">
        <ele>95</ele>
        <time>2015-03-16T09:28:06Z</time>
      </trkpt>
      <trkpt lat="47.04216" lon="-0.82121">
        <ele>95</ele>
        <time>2015-03-16T09:28:08Z</time>
      </trkpt>
      <trkpt lat="47.0422" lon="-0.8212">
        <ele>96</ele>
        <time>2015-03-16T09:28:11Z</time>
      </trkpt>
      <trkpt lat="47.04222" lon="-0.82118">
        <ele>96</ele>
        <time>2015-03-16T09:28:13Z</time>
      </trkpt>
      <trkpt lat="47.04224" lon="-0.82117">
        <ele>96</ele>
        <time>2015-03-16T09:28:15Z</time>
      </trkpt>
      <trkpt lat="47.04227" lon="-0.82116">
        <ele>96</ele>
        <time>2015-03-16T09:28:17Z</time>
      </trkpt>
      <trkpt lat="47.04229" lon="-0.82115">
        <ele>96</ele>
        <time>2015-03-16T09:28:19Z</time>
      </trkpt>
      <trkpt lat="47.04231" lon="-0.82114">
        <ele>97</ele>
        <time>2015-03-16T09:28:21Z</time>
      </trkpt>
      <trkpt lat="47.04234" lon="-0.82113">
        <ele>97</ele>
        <time>2015-03-16T09:28:24Z</time>
      </trkpt>
      <trkpt lat="47.04237" lon="-0.82112">
        <ele>97</ele>
        <time>2015-03-16T09:28:26Z</time>
      </trkpt>
      <trkpt lat="47.04239" lon="-0.82111">
        <ele>97</ele>
        <time>2015-03-16T09:28:28Z</time>
      </trkpt>
      <trkpt lat="47.04242" lon="-0.8211">
        <ele>98</ele>
        <time>2015-03-16T09:28:30Z</time>
      </trkpt>
      <trkpt lat="47.04244" lon="-0.82109">
        <ele>98</ele>
        <time>2015-03-16T09:28:32Z</time>
      </trkpt>
      <trkpt lat="47.04246" lon="-0.82108">
        <ele>99</ele>
        <time>2015-03-16T09:28:34Z</time>
      </trkpt>
      <trkpt lat="47.04248" lon="-0.82107">
        <ele>99</ele>
        <time>2015-03-16T09:28:36Z</time>
      </trkpt>
      <trkpt lat="47.04251" lon="-0.82104">
        <ele>99</ele>
        <time>2015-03-16T09:28:39Z</time>
      </trkpt>
      <trkpt lat="47.04255" lon="-0.82103">
        <ele>99</ele>
        <time>2015-03-16T09:28:42Z</time>
      </trkpt>
      <trkpt lat="47.04258" lon="-0.82101">
        <ele>99</ele>
        <time>2015-03-16T09:28:45Z</time>
      </trkpt>
      <trkpt lat="47.04261" lon="-0.821">
        <ele>99</ele>
        <time>2015-03-16T09:28:47Z</time>
      </trkpt>
      <trkpt lat="47.04263" lon="-0.821">
        <ele>99</ele>
        <time>2015-03-16T09:28:49Z</time>
      </trkpt>
      <trkpt lat="47.04265" lon="-0.82099">
        <ele>99</ele>
        <time>2015-03-16T09:28:51Z</time>
      </trkpt>
      <trkpt lat="47.04268" lon="-0.82097">
        <ele>100</ele>
        <time>2015-03-16T09:28:53Z</time>
      </trkpt>
      <trkpt lat="47.04271" lon="-0.82096">
        <ele>100</ele>
        <time>2015-03-16T09:28:56Z</time>
      </trkpt>
      <trkpt lat="47.04273" lon="-0.82095">
        <ele>100</ele>
        <time>2015-03-16T09:28:58Z</time>
      </trkpt>
      <trkpt lat="47.04276" lon="-0.82094">
        <ele>100</ele>
        <time>2015-03-16T09:29:00Z</time>
      </trkpt>
      <trkpt lat="47.04279" lon="-0.82092">
        <ele>101</ele>
        <time>2015-03-16T09:29:03Z</time>
      </trkpt>
      <trkpt lat="47.04281" lon="-0.82091">
        <ele>101</ele>
        <time>2015-03-16T09:29:05Z</time>
      </trkpt>
      <trkpt lat="47.04285" lon="-0.82089">
        <ele>101</ele>
        <time>2015-03-16T09:29:08Z</time>
      </trkpt>
      <trkpt lat="47.04287" lon="-0.82088">
        <ele>101</ele>
        <time>2015-03-16T09:29:10Z</time>
      </trkpt>
      <trkpt lat="47.04289" lon="-0.82087">
        <ele>101</ele>
        <time>2015-03-16T09:29:12Z</time>
      </trkpt>
      <trkpt lat="47.04291" lon="-0.82086">
        <ele>101</ele>
        <time>2015-03-16T09:29:14Z</time>
      </trkpt>
      <trkpt lat="47.04293" lon="-0.82085">
        <ele>101</ele>
        <time>2015-03-16T09:29:16Z</time>
      </trkpt>
      <trkpt lat="47.04296" lon="-0.82084">
        <ele>102</ele>
        <time>2015-03-16T09:29:19Z</time>
      </trkpt>
      <trkpt lat="47.04298" lon="-0.82083">
        <ele>102</ele>
        <time>2015-03-16T09:29:21Z</time>
      </trkpt>
      <trkpt lat="47.04301" lon="-0.82081">
        <ele>102</ele>
        <time>2015-03-16T09:29:23Z</time>
      </trkpt>
      <trkpt lat="47.04303" lon="-0.82081">
        <ele>102</ele>
        <time>2015-03-16T09:29:25Z</time>
      </trkpt>
      <trkpt lat="47.04305" lon="-0.8208">
        <ele>102</ele>
        <time>2015-03-16T09:29:27Z</time>
      </trkpt>
      <trkpt lat="47.04307" lon="-0.82078">
        <ele>102</ele>
        <time>2015-03-16T09:29:29Z</time>
      </trkpt>
      <trkpt lat="47.04309" lon="-0.82078">
        <ele>102</ele>
        <time>2015-03-16T09:29:31Z</time>
      </trkpt>
      <trkpt lat="47.04311" lon="-0.82077">
        <ele>102</ele>
        <time>2015-03-16T09:29:33Z</time>
      </trkpt>
      <trkpt lat="47.04313" lon="-0.82075">
        <ele>102</ele>
        <time>2015-03-16T09:29:35Z</time>
      </trkpt>
      <trkpt lat="47.04315" lon="-0.82074">
        <ele>102</ele>
        <time>2015-03-16T09:29:37Z</time>
      </trkpt>
      <trkpt lat="47.04317" lon="-0.82073">
        <ele>102</ele>
        <time>2015-03-16T09:29:39Z</time>
      </trkpt>
      <trkpt lat="47.04321" lon="-0.82071">
        <ele>102</ele>
        <time>2015-03-16T09:29:42Z</time>
      </trkpt>
      <trkpt lat="47.04323" lon="-0.8207">
        <ele>102</ele>
        <time>2015-03-16T09:29:44Z</time>
      </trkpt>
      <trkpt lat="47.04326" lon="-0.82069">
        <ele>102</ele>
        <time>2015-03-16T09:29:47Z</time>
      </trkpt>
      <trkpt lat="47.04328" lon="-0.82068">
        <ele>102</ele>
        <time>2015-03-16T09:29:49Z</time>
      </trkpt>
      <trkpt lat="47.0433" lon="-0.82067">
        <ele>102</ele>
        <time>2015-03-16T09:29:51Z</time>
      </trkpt>
      <trkpt lat="47.04332" lon="-0.82065">
        <ele>102</ele>
        <time>2015-03-16T09:29:53Z</time>
      </trkpt>
      <trkpt lat="47.04335" lon="-0.82064">
        <ele>102</ele>
        <time>2015-03-16T09:29:55Z</time>
      </trkpt>
      <trkpt lat="47.04337" lon="-0.82064">
        <ele>102</ele>
        <time>2015-03-16T09:29:57Z</time>
      </trkpt>
      <trkpt lat="47.04339" lon="-0.82063">
        <ele>102</ele>
        <time>2015-03-16T09:29:59Z</time>
      </trkpt>
      <trkpt lat="47.04341" lon="-0.82063">
        <ele>102</ele>
        <time>2015-03-16T09:30:01Z</time>
      </trkpt>
      <trkpt lat="47.04343" lon="-0.82061">
        <ele>103</ele>
        <time>2015-03-16T09:30:03Z</time>
      </trkpt>
      <trkpt lat="47.04346" lon="-0.8206">
        <ele>103</ele>
        <time>2015-03-16T09:30:05Z</time>
      </trkpt>
      <trkpt lat="47.04349" lon="-0.82057">
        <ele>103</ele>
        <time>2015-03-16T09:30:08Z</time>
      </trkpt>
      <trkpt lat="47.04351" lon="-0.82056">
        <ele>103</ele>
        <time>2015-03-16T09:30:10Z</time>
      </trkpt>
      <trkpt lat="47.04353" lon="-0.82056">
        <ele>103</ele>
        <time>2015-03-16T09:30:12Z</time>
      </trkpt>
      <trkpt lat="47.04355" lon="-0.82055">
        <ele>103</ele>
        <time>2015-03-16T09:30:14Z</time>
      </trkpt>
      <trkpt lat="47.04357" lon="-0.82054">
        <ele>103</ele>
        <time>2015-03-16T09:30:16Z</time>
      </trkpt>
      <trkpt lat="47.0436" lon="-0.82053">
        <ele>103</ele>
        <time>2015-03-16T09:30:18Z</time>
      </trkpt>
      <trkpt lat="47.04363" lon="-0.82051">
        <ele>104</ele>
        <time>2015-03-16T09:30:21Z</time>
      </trkpt>
      <trkpt lat="47.04366" lon="-0.8205">
        <ele>104</ele>
        <time>2015-03-16T09:30:23Z</time>
      </trkpt>
      <trkpt lat="47.04368" lon="-0.82049">
        <ele>104</ele>
        <time>2015-03-16T09:30:25Z</time>
      </trkpt>
      <trkpt lat="47.0437" lon="-0.82048">
        <ele>105</ele>
        <time>2015-03-16T09:30:27Z</time>
      </trkpt>
      <trkpt lat="47.04372" lon="-0.82047">
        <ele>105</ele>
        <time>2015-03-16T09:30:29Z</time>
      </trkpt>
      <trkpt lat="47.04376" lon="-0.82045">
        <ele>105</ele>
        <time>2015-03-16T09:30:32Z</time>
      </trkpt>
      <trkpt lat="47.04379" lon="-0.82044">
        <ele>105</ele>
        <time>2015-03-16T09:30:35Z</time>
      </trkpt>
      <trkpt lat="47.04382" lon="-0.82042">
        <ele>105</ele>
        <time>2015-03-16T09:30:37Z</time>
      </trkpt>
      <trkpt lat="47.04385" lon="-0.82041">
        <ele>105</ele>
        <time>2015-03-16T09:30:40Z</time>
      </trkpt>
      <trkpt lat="47.04387" lon="-0.8204">
        <ele>105</ele>
        <time>2015-03-16T09:30:42Z</time>
      </trkpt>
      <trkpt lat="47.04389" lon="-0.82038">
        <ele>106</ele>
        <time>2015-03-16T09:30:44Z</time>
      </trkpt>
      <trkpt lat="47.04393" lon="-0.82037">
        <ele>106</ele>
        <time>2015-03-16T09:30:47Z</time>
      </trkpt>
      <trkpt lat="47.04395" lon="-0.82036">
        <ele>106</ele>
        <time>2015-03-16T09:30:49Z</time>
      </trkpt>
      <trkpt lat="47.04398" lon="-0.82034">
        <ele>106</ele>
        <time>2015-03-16T09:30:52Z</time>
      </trkpt>
      <trkpt lat="47.04401" lon="-0.82033">
        <ele>106</ele>
        <time>2015-03-16T09:30:54Z</time>
      </trkpt>
      <trkpt lat="47.04403" lon="-0.82032">
        <ele>106</ele>
        <time>2015-03-16T09:30:56Z</time>
      </trkpt>
      <trkpt lat="47.04406" lon="-0.82031">
        <ele>106</ele>
        <time>2015-03-16T09:30:58Z</time>
      </trkpt>
      <trkpt lat="47.04408" lon="-0.8203">
        <ele>107</ele>
        <time>2015-03-16T09:31:00Z</time>
      </trkpt>
      <trkpt lat="47.04411" lon="-0.82029">
        <ele>107</ele>
        <time>2015-03-16T09:31:02Z</time>
      </trkpt>
      <trkpt lat="47.04413" lon="-0.82028">
        <ele>107</ele>
        <time>2015-03-16T09:31:04Z</time>
      </trkpt>
      <trkpt lat="47.04415" lon="-0.82027">
        <ele>107</ele>
        <time>2015-03-16T09:31:06Z</time>
      </trkpt>
      <trkpt lat="47.04418" lon="-0.82026">
        <ele>108</ele>
        <time>2015-03-16T09:31:08Z</time>
      </trkpt>
      <trkpt lat="47.0442" lon="-0.82025">
        <ele>108</ele>
        <time>2015-03-16T09:31:10Z</time>
      </trkpt>
      <trkpt lat="47.04422" lon="-0.82024">
        <ele>108</ele>
        <time>2015-03-16T09:31:12Z</time>
      </trkpt>
      <trkpt lat="47.04425" lon="-0.82023">
        <ele>108</ele>
        <time>2015-03-16T09:31:14Z</time>
      </trkpt>
      <trkpt lat="47.04427" lon="-0.82021">
        <ele>108</ele>
        <time>2015-03-16T09:31:16Z</time>
      </trkpt>
      <trkpt lat="47.0443" lon="-0.82021">
        <ele>109</ele>
        <time>2015-03-16T09:31:18Z</time>
      </trkpt>
      <trkpt lat="47.04432" lon="-0.82019">
        <ele>109</ele>
        <time>2015-03-16T09:31:20Z</time>
      </trkpt>
      <trkpt lat="47.04435" lon="-0.82018">
        <ele>109</ele>
        <time>2015-03-16T09:31:22Z</time>
      </trkpt>
      <trkpt lat="47.04437" lon="-0.82017">
        <ele>109</ele>
        <time>2015-03-16T09:31:24Z</time>
      </trkpt>
      <trkpt lat="47.04439" lon="-0.82016">
        <ele>109</ele>
        <time>2015-03-16T09:31:26Z</time>
      </trkpt>
      <trkpt lat="47.04442" lon="-0.82014">
        <ele>110</ele>
        <time>2015-03-16T09:31:28Z</time>
      </trkpt>
      <trkpt lat="47.04445" lon="-0.82013">
        <ele>110</ele>
        <time>2015-03-16T09:31:31Z</time>
      </trkpt>
      <trkpt lat="47.04448" lon="-0.82012">
        <ele>110</ele>
        <time>2015-03-16T09:31:33Z</time>
      </trkpt>
      <trkpt lat="47.0445" lon="-0.82011">
        <ele>110</ele>
        <time>2015-03-16T09:31:35Z</time>
      </trkpt>
      <trkpt lat="47.04453" lon="-0.8201">
        <ele>110</ele>
        <time>2015-03-16T09:31:37Z</time>
      </trkpt>
      <trkpt lat="47.04455" lon="-0.82008">
        <ele>110</ele>
        <time>2015-03-16T09:31:39Z</time>
      </trkpt>
      <trkpt lat="47.04457" lon="-0.82007">
        <ele>110</ele>
        <time>2015-03-16T09:31:41Z</time>
      </trkpt>
      <trkpt lat="47.0446" lon="-0.82007">
        <ele>111</ele>
        <time>2015-03-16T09:31:43Z</time>
      </trkpt>
      <trkpt lat="47.04462" lon="-0.82006">
        <ele>111</ele>
        <time>2015-03-16T09:31:45Z</time>
      </trkpt>
      <trkpt lat="47.04465" lon="-0.82005">
        <ele>111</ele>
        <time>2015-03-16T09:31:47Z</time>
      </trkpt>
      <trkpt lat="47.04467" lon="-0.82004">
        <ele>111</ele>
        <time>2015-03-16T09:31:49Z</time>
      </trkpt>
      <trkpt lat="47.0447" lon="-0.82003">
        <ele>111</ele>
        <time>2015-03-16T09:31:51Z</time>
      </trkpt>
      <trkpt lat="47.04472" lon="-0.82001">
        <ele>111</ele>
        <time>2015-03-16T09:31:53Z</time>
      </trkpt>
      <trkpt lat="47.04474" lon="-0.82">
        <ele>112</ele>
        <time>2015-03-16T09:31:55Z</time>
      </trkpt>
      <trkpt lat="47.04476" lon="-0.81999">
        <ele>112</ele>
        <time>2015-03-16T09:31:57Z</time>
      </trkpt>
      <trkpt lat="47.04479" lon="-0.81998">
        <ele>112</ele>
        <time>2015-03-16T09:31:59Z</time>
      </trkpt>
      <trkpt lat="47.04482" lon="-0.81996">
        <ele>112</ele>
        <time>2015-03-16T09:32:01Z</time>
      </trkpt>
      <trkpt lat="47.04485" lon="-0.81994">
        <ele>113</ele>
        <time>2015-03-16T09:32:04Z</time>
      </trkpt>
      <trkpt lat="47.04487" lon="-0.81993">
        <ele>113</ele>
        <time>2015-03-16T09:32:06Z</time>
      </trkpt>
      <trkpt lat="47.04489" lon="-0.81991">
        <ele>113</ele>
        <time>2015-03-16T09:32:08Z</time>
      </trkpt>
      <trkpt lat="47.04491" lon="-0.8199">
        <ele>113</ele>
        <time>2015-03-16T09:32:10Z</time>
      </trkpt>
      <trkpt lat="47.04493" lon="-0.81989">
        <ele>113</ele>
        <time>2015-03-16T09:32:12Z</time>
      </trkpt>
      <trkpt lat="47.04496" lon="-0.81988">
        <ele>113</ele>
        <time>2015-03-16T09:32:14Z</time>
      </trkpt>
      <trkpt lat="47.04498" lon="-0.81986">
        <ele>113</ele>
        <time>2015-03-16T09:32:16Z</time>
      </trkpt>
      <trkpt lat="47.04501" lon="-0.81985">
        <ele>113</ele>
        <time>2015-03-16T09:32:18Z</time>
      </trkpt>
      <trkpt lat="47.04503" lon="-0.81984">
        <ele>113</ele>
        <time>2015-03-16T09:32:20Z</time>
      </trkpt>
      <trkpt lat="47.04506" lon="-0.81982">
        <ele>113</ele>
        <time>2015-03-16T09:32:22Z</time>
      </trkpt>
      <trkpt lat="47.04508" lon="-0.81981">
        <ele>113</ele>
        <time>2015-03-16T09:32:24Z</time>
      </trkpt>
      <trkpt lat="47.0451" lon="-0.8198">
        <ele>113</ele>
        <time>2015-03-16T09:32:26Z</time>
      </trkpt>
      <trkpt lat="47.04512" lon="-0.81978">
        <ele>113</ele>
        <time>2015-03-16T09:32:28Z</time>
      </trkpt>
      <trkpt lat="47.04516" lon="-0.81976">
        <ele>113</ele>
        <time>2015-03-16T09:32:31Z</time>
      </trkpt>
      <trkpt lat="47.04519" lon="-0.81974">
        <ele>113</ele>
        <time>2015-03-16T09:32:34Z</time>
      </trkpt>
      <trkpt lat="47.04522" lon="-0.81972">
        <ele>113</ele>
        <time>2015-03-16T09:32:36Z</time>
      </trkpt>
      <trkpt lat="47.04524" lon="-0.81971">
        <ele>113</ele>
        <time>2015-03-16T09:32:38Z</time>
      </trkpt>
      <trkpt lat="47.04526" lon="-0.81971">
        <ele>113</ele>
        <time>2015-03-16T09:32:40Z</time>
      </trkpt>
      <trkpt lat="47.04528" lon="-0.81972">
        <ele>113</ele>
        <time>2015-03-16T09:32:42Z</time>
      </trkpt>
      <trkpt lat="47.04532" lon="-0.81975">
        <ele>113</ele>
        <time>2015-03-16T09:32:45Z</time>
      </trkpt>
      <trkpt lat="47.04535" lon="-0.81979">
        <ele>113</ele>
        <time>2015-03-16T09:32:48Z</time>
      </trkpt>
      <trkpt lat="47.04537" lon="-0.81982">
        <ele>113</ele>
        <time>2015-03-16T09:32:50Z</time>
      </trkpt>
      <trkpt lat="47.04539" lon="-0.81985">
        <ele>113</ele>
        <time>2015-03-16T09:32:52Z</time>
      </trkpt>
      <trkpt lat="47.0454" lon="-0.81989">
        <ele>113</ele>
        <time>2015-03-16T09:32:54Z</time>
      </trkpt>
      <trkpt lat="47.04541" lon="-0.81991">
        <ele>113</ele>
        <time>2015-03-16T09:32:56Z</time>
      </trkpt>
      <trkpt lat="47.04543" lon="-0.81994">
        <ele>113</ele>
        <time>2015-03-16T09:32:58Z</time>
      </trkpt>
      <trkpt lat="47.04544" lon="-0.81998">
        <ele>113</ele>
        <time>2015-03-16T09:33:00Z</time>
      </trkpt>
      <trkpt lat="47.04544" lon="-0.82002">
        <ele>113</ele>
        <time>2015-03-16T09:33:02Z</time>
      </trkpt>
      <trkpt lat="47.04544" lon="-0.82006">
        <ele>113</ele>
        <time>2015-03-16T09:33:04Z</time>
      </trkpt>
      <trkpt lat="47.04544" lon="-0.8201">
        <ele>113</ele>
        <time>2015-03-16T09:33:06Z</time>
      </trkpt>
      <trkpt lat="47.04546" lon="-0.82013">
        <ele>113</ele>
        <time>2015-03-16T09:33:08Z</time>
      </trkpt>
      <trkpt lat="47.04547" lon="-0.82017">
        <ele>113</ele>
        <time>2015-03-16T09:33:10Z</time>
      </trkpt>
      <trkpt lat="47.04548" lon="-0.82021">
        <ele>113</ele>
        <time>2015-03-16T09:33:12Z</time>
      </trkpt>
      <trkpt lat="47.04549" lon="-0.82024">
        <ele>113</ele>
        <time>2015-03-16T09:33:14Z</time>
      </trkpt>
      <trkpt lat="47.0455" lon="-0.82028">
        <ele>113</ele>
        <time>2015-03-16T09:33:16Z</time>
      </trkpt>
      <trkpt lat="47.0455" lon="-0.82031">
        <ele>113</ele>
        <time>2015-03-16T09:33:18Z</time>
      </trkpt>
      <trkpt lat="47.04551" lon="-0.82035">
        <ele>113</ele>
        <time>2015-03-16T09:33:20Z</time>
      </trkpt>
      <trkpt lat="47.04553" lon="-0.82039">
        <ele>113</ele>
        <time>2015-03-16T09:33:22Z</time>
      </trkpt>
      <trkpt lat="47.04554" lon="-0.82042">
        <ele>113</ele>
        <time>2015-03-16T09:33:24Z</time>
      </trkpt>
      <trkpt lat="47.04555" lon="-0.82046">
        <ele>113</ele>
        <time>2015-03-16T09:33:26Z</time>
      </trkpt>
      <trkpt lat="47.04557" lon="-0.8205">
        <ele>113</ele>
        <time>2015-03-16T09:33:29Z</time>
      </trkpt>
      <trkpt lat="47.0456" lon="-0.82055">
        <ele>113</ele>
        <time>2015-03-16T09:33:32Z</time>
      </trkpt>
      <trkpt lat="47.04561" lon="-0.82059">
        <ele>113</ele>
        <time>2015-03-16T09:33:34Z</time>
      </trkpt>
      <trkpt lat="47.04562" lon="-0.82061">
        <ele>113</ele>
        <time>2015-03-16T09:33:36Z</time>
      </trkpt>
      <trkpt lat="47.04564" lon="-0.82065">
        <ele>113</ele>
        <time>2015-03-16T09:33:38Z</time>
      </trkpt>
      <trkpt lat="47.04565" lon="-0.82068">
        <ele>113</ele>
        <time>2015-03-16T09:33:40Z</time>
      </trkpt>
      <trkpt lat="47.04567" lon="-0.82072">
        <ele>113</ele>
        <time>2015-03-16T09:33:42Z</time>
      </trkpt>
      <trkpt lat="47.04567" lon="-0.82076">
        <ele>113</ele>
        <time>2015-03-16T09:33:44Z</time>
      </trkpt>
      <trkpt lat="47.04567" lon="-0.8208">
        <ele>113</ele>
        <time>2015-03-16T09:33:46Z</time>
      </trkpt>
      <trkpt lat="47.04567" lon="-0.82083">
        <ele>112</ele>
        <time>2015-03-16T09:33:48Z</time>
      </trkpt>
      <trkpt lat="47.04569" lon="-0.82088">
        <ele>111</ele>
        <time>2015-03-16T09:33:51Z</time>
      </trkpt>
      <trkpt lat="47.0457" lon="-0.82091">
        <ele>111</ele>
        <time>2015-03-16T09:33:53Z</time>
      </trkpt>
      <trkpt lat="47.04573" lon="-0.82096">
        <ele>111</ele>
        <time>2015-03-16T09:33:57Z</time>
      </trkpt>
      <trkpt lat="47.04575" lon="-0.821">
        <ele>111</ele>
        <time>2015-03-16T09:33:59Z</time>
      </trkpt>
      <trkpt lat="47.04576" lon="-0.82104">
        <ele>111</ele>
        <time>2015-03-16T09:34:01Z</time>
      </trkpt>
      <trkpt lat="47.0458" lon="-0.82108">
        <ele>111</ele>
        <time>2015-03-16T09:34:05Z</time>
      </trkpt>
      <trkpt lat="47.04583" lon="-0.82109">
        <ele>111</ele>
        <time>2015-03-16T09:34:08Z</time>
      </trkpt>
      <trkpt lat="47.04586" lon="-0.8211">
        <ele>111</ele>
        <time>2015-03-16T09:34:11Z</time>
      </trkpt>
      <trkpt lat="47.04588" lon="-0.82111">
        <ele>111</ele>
        <time>2015-03-16T09:34:13Z</time>
      </trkpt>
      <trkpt lat="47.04592" lon="-0.82112">
        <ele>111</ele>
        <time>2015-03-16T09:34:16Z</time>
      </trkpt>
      <trkpt lat="47.04595" lon="-0.82113">
        <ele>110</ele>
        <time>2015-03-16T09:34:18Z</time>
      </trkpt>
      <trkpt lat="47.04599" lon="-0.82116">
        <ele>110</ele>
        <time>2015-03-16T09:34:22Z</time>
      </trkpt>
      <trkpt lat="47.04601" lon="-0.82118">
        <ele>110</ele>
        <time>2015-03-16T09:34:24Z</time>
      </trkpt>
      <trkpt lat="47.04606" lon="-0.82121">
        <ele>109</ele>
        <time>2015-03-16T09:34:28Z</time>
      </trkpt>
      <trkpt lat="47.04608" lon="-0.82125">
        <ele>109</ele>
        <time>2015-03-16T09:34:31Z</time>
      </trkpt>
      <trkpt lat="47.0461" lon="-0.82127">
        <ele>109</ele>
        <time>2015-03-16T09:34:33Z</time>
      </trkpt>
      <trkpt lat="47.04613" lon="-0.8213">
        <ele>109</ele>
        <time>2015-03-16T09:34:35Z</time>
      </trkpt>
      <trkpt lat="47.04618" lon="-0.82133">
        <ele>109</ele>
        <time>2015-03-16T09:34:38Z</time>
      </trkpt>
      <trkpt lat="47.0462" lon="-0.82135">
        <ele>109</ele>
        <time>2015-03-16T09:34:40Z</time>
      </trkpt>
      <trkpt lat="47.04624" lon="-0.82139">
        <ele>109</ele>
        <time>2015-03-16T09:34:44Z</time>
      </trkpt>
      <trkpt lat="47.04626" lon="-0.82142">
        <ele>109</ele>
        <time>2015-03-16T09:34:46Z</time>
      </trkpt>
      <trkpt lat="47.04629" lon="-0.82145">
        <ele>109</ele>
        <time>2015-03-16T09:34:50Z</time>
      </trkpt>
      <trkpt lat="47.04631" lon="-0.82147">
        <ele>109</ele>
        <time>2015-03-16T09:34:52Z</time>
      </trkpt>
      <trkpt lat="47.04635" lon="-0.82149">
        <ele>109</ele>
        <time>2015-03-16T09:34:56Z</time>
      </trkpt>
      <trkpt lat="47.04638" lon="-0.82151">
        <ele>109</ele>
        <time>2015-03-16T09:34:58Z</time>
      </trkpt>
      <trkpt lat="47.04641" lon="-0.82154">
        <ele>109</ele>
        <time>2015-03-16T09:35:02Z</time>
      </trkpt>
      <trkpt lat="47.04644" lon="-0.82155">
        <ele>109</ele>
        <time>2015-03-16T09:35:04Z</time>
      </trkpt>
      <trkpt lat="47.04646" lon="-0.82155">
        <ele>109</ele>
        <time>2015-03-16T09:35:06Z</time>
      </trkpt>
      <trkpt lat="47.04648" lon="-0.82156">
        <ele>109</ele>
        <time>2015-03-16T09:35:08Z</time>
      </trkpt>
      <trkpt lat="47.04652" lon="-0.82158">
        <ele>109</ele>
        <time>2015-03-16T09:35:12Z</time>
      </trkpt>
      <trkpt lat="47.04655" lon="-0.82158">
        <ele>109</ele>
        <time>2015-03-16T09:35:14Z</time>
      </trkpt>
      <trkpt lat="47.04658" lon="-0.8216">
        <ele>109</ele>
        <time>2015-03-16T09:35:17Z</time>
      </trkpt>
      <trkpt lat="47.04662" lon="-0.82161">
        <ele>109</ele>
        <time>2015-03-16T09:35:19Z</time>
      </trkpt>
      <trkpt lat="47.04664" lon="-0.82163">
        <ele>109</ele>
        <time>2015-03-16T09:35:21Z</time>
      </trkpt>
      <trkpt lat="47.04667" lon="-0.82166">
        <ele>110</ele>
        <time>2015-03-16T09:35:24Z</time>
      </trkpt>
      <trkpt lat="47.0467" lon="-0.82168">
        <ele>111</ele>
        <time>2015-03-16T09:35:26Z</time>
      </trkpt>
      <trkpt lat="47.04675" lon="-0.8217">
        <ele>114</ele>
        <time>2015-03-16T09:35:29Z</time>
      </trkpt>
      <trkpt lat="47.04679" lon="-0.82171">
        <ele>115</ele>
        <time>2015-03-16T09:35:32Z</time>
      </trkpt>
      <trkpt lat="47.04681" lon="-0.82171">
        <ele>115</ele>
        <time>2015-03-16T09:35:34Z</time>
      </trkpt>
      <trkpt lat="47.04684" lon="-0.82173">
        <ele>115</ele>
        <time>2015-03-16T09:35:37Z</time>
      </trkpt>
      <trkpt lat="47.04688" lon="-0.82174">
        <ele>115</ele>
        <time>2015-03-16T09:35:40Z</time>
      </trkpt>
      <trkpt lat="47.0469" lon="-0.82175">
        <ele>115</ele>
        <time>2015-03-16T09:35:42Z</time>
      </trkpt>
      <trkpt lat="47.04693" lon="-0.82179">
        <ele>115</ele>
        <time>2015-03-16T09:35:46Z</time>
      </trkpt>
      <trkpt lat="47.04696" lon="-0.82181">
        <ele>115</ele>
        <time>2015-03-16T09:35:48Z</time>
      </trkpt>
      <trkpt lat="47.04697" lon="-0.82182">
        <ele>115</ele>
        <time>2015-03-16T09:35:50Z</time>
      </trkpt>
      <trkpt lat="47.04699" lon="-0.82184">
        <ele>115</ele>
        <time>2015-03-16T09:35:52Z</time>
      </trkpt>
      <trkpt lat="47.04702" lon="-0.82189">
        <ele>115</ele>
        <time>2015-03-16T09:35:56Z</time>
      </trkpt>
      <trkpt lat="47.04704" lon="-0.82191">
        <ele>115</ele>
        <time>2015-03-16T09:35:58Z</time>
      </trkpt>
      <trkpt lat="47.04705" lon="-0.82193">
        <ele>115</ele>
        <time>2015-03-16T09:36:00Z</time>
      </trkpt>
      <trkpt lat="47.04707" lon="-0.82197">
        <ele>115</ele>
        <time>2015-03-16T09:36:02Z</time>
      </trkpt>
      <trkpt lat="47.04708" lon="-0.82199">
        <ele>115</ele>
        <time>2015-03-16T09:36:04Z</time>
      </trkpt>
      <trkpt lat="47.0471" lon="-0.82204">
        <ele>115</ele>
        <time>2015-03-16T09:36:07Z</time>
      </trkpt>
      <trkpt lat="47.04711" lon="-0.82206">
        <ele>115</ele>
        <time>2015-03-16T09:36:09Z</time>
      </trkpt>
      <trkpt lat="47.04712" lon="-0.82211">
        <ele>115</ele>
        <time>2015-03-16T09:36:12Z</time>
      </trkpt>
      <trkpt lat="47.04713" lon="-0.82214">
        <ele>115</ele>
        <time>2015-03-16T09:36:14Z</time>
      </trkpt>
      <trkpt lat="47.04714" lon="-0.82217">
        <ele>115</ele>
        <time>2015-03-16T09:36:16Z</time>
      </trkpt>
      <trkpt lat="47.04717" lon="-0.82221">
        <ele>115</ele>
        <time>2015-03-16T09:36:19Z</time>
      </trkpt>
      <trkpt lat="47.04718" lon="-0.82225">
        <ele>115</ele>
        <time>2015-03-16T09:36:21Z</time>
      </trkpt>
      <trkpt lat="47.04719" lon="-0.82228">
        <ele>116</ele>
        <time>2015-03-16T09:36:23Z</time>
      </trkpt>
      <trkpt lat="47.0472" lon="-0.82231">
        <ele>117</ele>
        <time>2015-03-16T09:36:25Z</time>
      </trkpt>
      <trkpt lat="47.04721" lon="-0.82235">
        <ele>118</ele>
        <time>2015-03-16T09:36:27Z</time>
      </trkpt>
      <trkpt lat="47.04722" lon="-0.82237">
        <ele>119</ele>
        <time>2015-03-16T09:36:29Z</time>
      </trkpt>
      <trkpt lat="47.04723" lon="-0.82242">
        <ele>120</ele>
        <time>2015-03-16T09:36:32Z</time>
      </trkpt>
      <trkpt lat="47.04724" lon="-0.82245">
        <ele>120</ele>
        <time>2015-03-16T09:36:34Z</time>
      </trkpt>
      <trkpt lat="47.04725" lon="-0.82249">
        <ele>120</ele>
        <time>2015-03-16T09:36:36Z</time>
      </trkpt>
      <trkpt lat="47.04726" lon="-0.82252">
        <ele>120</ele>
        <time>2015-03-16T09:36:38Z</time>
      </trkpt>
      <trkpt lat="47.04728" lon="-0.82256">
        <ele>120</ele>
        <time>2015-03-16T09:36:40Z</time>
      </trkpt>
      <trkpt lat="47.0473" lon="-0.82259">
        <ele>120</ele>
        <time>2015-03-16T09:36:43Z</time>
      </trkpt>
      <trkpt lat="47.04732" lon="-0.8226">
        <ele>120</ele>
        <time>2015-03-16T09:36:45Z</time>
      </trkpt>
      <trkpt lat="47.04734" lon="-0.8226">
        <ele>120</ele>
        <time>2015-03-16T09:36:47Z</time>
      </trkpt>
      <trkpt lat="47.04736" lon="-0.82258">
        <ele>120</ele>
        <time>2015-03-16T09:36:49Z</time>
      </trkpt>
      <trkpt lat="47.0474" lon="-0.82257">
        <ele>120</ele>
        <time>2015-03-16T09:36:52Z</time>
      </trkpt>
      <trkpt lat="47.04745" lon="-0.82256">
        <ele>120</ele>
        <time>2015-03-16T09:36:55Z</time>
      </trkpt>
      <trkpt lat="47.04747" lon="-0.82255">
        <ele>120</ele>
        <time>2015-03-16T09:36:57Z</time>
      </trkpt>
      <trkpt lat="47.04751" lon="-0.82253">
        <ele>120</ele>
        <time>2015-03-16T09:37:00Z</time>
      </trkpt>
      <trkpt lat="47.04754" lon="-0.82252">
        <ele>120</ele>
        <time>2015-03-16T09:37:03Z</time>
      </trkpt>
      <trkpt lat="47.04759" lon="-0.82249">
        <ele>120</ele>
        <time>2015-03-16T09:37:07Z</time>
      </trkpt>
      <trkpt lat="47.04761" lon="-0.82248">
        <ele>120</ele>
        <time>2015-03-16T09:37:09Z</time>
      </trkpt>
      <trkpt lat="47.04765" lon="-0.82245">
        <ele>120</ele>
        <time>2015-03-16T09:37:13Z</time>
      </trkpt>
      <trkpt lat="47.04768" lon="-0.82244">
        <ele>121</ele>
        <time>2015-03-16T09:37:15Z</time>
      </trkpt>
      <trkpt lat="47.04771" lon="-0.82242">
        <ele>121</ele>
        <time>2015-03-16T09:37:19Z</time>
      </trkpt>
      <trkpt lat="47.04773" lon="-0.8224">
        <ele>121</ele>
        <time>2015-03-16T09:37:21Z</time>
      </trkpt>
      <trkpt lat="47.04777" lon="-0.82239">
        <ele>121</ele>
        <time>2015-03-16T09:37:24Z</time>
      </trkpt>
      <trkpt lat="47.04779" lon="-0.82237">
        <ele>121</ele>
        <time>2015-03-16T09:37:26Z</time>
      </trkpt>
      <trkpt lat="47.04782" lon="-0.82236">
        <ele>121</ele>
        <time>2015-03-16T09:37:28Z</time>
      </trkpt>
      <trkpt lat="47.04784" lon="-0.82235">
        <ele>121</ele>
        <time>2015-03-16T09:37:30Z</time>
      </trkpt>
      <trkpt lat="47.04786" lon="-0.82233">
        <ele>121</ele>
        <time>2015-03-16T09:37:32Z</time>
      </trkpt>
      <trkpt lat="47.0479" lon="-0.82231">
        <ele>121</ele>
        <time>2015-03-16T09:37:35Z</time>
      </trkpt>
      <trkpt lat="47.04792" lon="-0.8223">
        <ele>121</ele>
        <time>2015-03-16T09:37:37Z</time>
      </trkpt>
      <trkpt lat="47.04797" lon="-0.82228">
        <ele>121</ele>
        <time>2015-03-16T09:37:41Z</time>
      </trkpt>
      <trkpt lat="47.04801" lon="-0.82226">
        <ele>121</ele>
        <time>2015-03-16T09:37:44Z</time>
      </trkpt>
      <trkpt lat="47.04804" lon="-0.82223">
        <ele>121</ele>
        <time>2015-03-16T09:37:47Z</time>
      </trkpt>
      <trkpt lat="47.04808" lon="-0.82221">
        <ele>121</ele>
        <time>2015-03-16T09:37:50Z</time>
      </trkpt>
      <trkpt lat="47.0481" lon="-0.8222">
        <ele>121</ele>
        <time>2015-03-16T09:37:52Z</time>
      </trkpt>
      <trkpt lat="47.04814" lon="-0.82218">
        <ele>121</ele>
        <time>2015-03-16T09:37:55Z</time>
      </trkpt>
      <trkpt lat="47.04816" lon="-0.82216">
        <ele>121</ele>
        <time>2015-03-16T09:37:57Z</time>
      </trkpt>
      <trkpt lat="47.04821" lon="-0.82213">
        <ele>121</ele>
        <time>2015-03-16T09:38:01Z</time>
      </trkpt>
      <trkpt lat="47.04823" lon="-0.82212">
        <ele>121</ele>
        <time>2015-03-16T09:38:03Z</time>
      </trkpt>
      <trkpt lat="47.04826" lon="-0.8221">
        <ele>121</ele>
        <time>2015-03-16T09:38:06Z</time>
      </trkpt>
      <trkpt lat="47.04829" lon="-0.82209">
        <ele>121</ele>
        <time>2015-03-16T09:38:08Z</time>
      </trkpt>
      <trkpt lat="47.04832" lon="-0.82207">
        <ele>121</ele>
        <time>2015-03-16T09:38:11Z</time>
      </trkpt>
      <trkpt lat="47.04835" lon="-0.82205">
        <ele>121</ele>
        <time>2015-03-16T09:38:14Z</time>
      </trkpt>
      <trkpt lat="47.04837" lon="-0.82203">
        <ele>121</ele>
        <time>2015-03-16T09:38:16Z</time>
      </trkpt>
      <trkpt lat="47.04841" lon="-0.82201">
        <ele>122</ele>
        <time>2015-03-16T09:38:19Z</time>
      </trkpt>
      <trkpt lat="47.04844" lon="-0.822">
        <ele>122</ele>
        <time>2015-03-16T09:38:21Z</time>
      </trkpt>
      <trkpt lat="47.04846" lon="-0.82199">
        <ele>122</ele>
        <time>2015-03-16T09:38:23Z</time>
      </trkpt>
      <trkpt lat="47.04848" lon="-0.82197">
        <ele>123</ele>
        <time>2015-03-16T09:38:25Z</time>
      </trkpt>
      <trkpt lat="47.0485" lon="-0.82196">
        <ele>123</ele>
        <time>2015-03-16T09:38:27Z</time>
      </trkpt>
      <trkpt lat="47.04855" lon="-0.82193">
        <ele>123</ele>
        <time>2015-03-16T09:38:31Z</time>
      </trkpt>
      <trkpt lat="47.04858" lon="-0.82192">
        <ele>124</ele>
        <time>2015-03-16T09:38:33Z</time>
      </trkpt>
      <trkpt lat="47.04861" lon="-0.82189">
        <ele>124</ele>
        <time>2015-03-16T09:38:36Z</time>
      </trkpt>
      <trkpt lat="47.04865" lon="-0.82187">
        <ele>125</ele>
        <time>2015-03-16T09:38:39Z</time>
      </trkpt>
      <trkpt lat="47.04868" lon="-0.82185">
        <ele>125</ele>
        <time>2015-03-16T09:38:42Z</time>
      </trkpt>
      <trkpt lat="47.04872" lon="-0.82182">
        <ele>125</ele>
        <time>2015-03-16T09:38:46Z</time>
      </trkpt>
      <trkpt lat="47.04874" lon="-0.82181">
        <ele>125</ele>
        <time>2015-03-16T09:38:48Z</time>
      </trkpt>
      <trkpt lat="47.04878" lon="-0.82178">
        <ele>125</ele>
        <time>2015-03-16T09:38:51Z</time>
      </trkpt>
      <trkpt lat="47.0488" lon="-0.82177">
        <ele>126</ele>
        <time>2015-03-16T09:38:53Z</time>
      </trkpt>
      <trkpt lat="47.04884" lon="-0.82174">
        <ele>126</ele>
        <time>2015-03-16T09:38:57Z</time>
      </trkpt>
      <trkpt lat="47.04887" lon="-0.82172">
        <ele>126</ele>
        <time>2015-03-16T09:38:59Z</time>
      </trkpt>
      <trkpt lat="47.0489" lon="-0.8217">
        <ele>126</ele>
        <time>2015-03-16T09:39:02Z</time>
      </trkpt>
      <trkpt lat="47.04892" lon="-0.82169">
        <ele>126</ele>
        <time>2015-03-16T09:39:04Z</time>
      </trkpt>
      <trkpt lat="47.04897" lon="-0.82166">
        <ele>126</ele>
        <time>2015-03-16T09:39:08Z</time>
      </trkpt>
      <trkpt lat="47.04899" lon="-0.82165">
        <ele>127</ele>
        <time>2015-03-16T09:39:10Z</time>
      </trkpt>
      <trkpt lat="47.04902" lon="-0.82163">
        <ele>127</ele>
        <time>2015-03-16T09:39:13Z</time>
      </trkpt>
      <trkpt lat="47.04904" lon="-0.82161">
        <ele>127</ele>
        <time>2015-03-16T09:39:15Z</time>
      </trkpt>
      <trkpt lat="47.04908" lon="-0.8216">
        <ele>127</ele>
        <time>2015-03-16T09:39:18Z</time>
      </trkpt>
      <trkpt lat="47.04911" lon="-0.82157">
        <ele>128</ele>
        <time>2015-03-16T09:39:21Z</time>
      </trkpt>
      <trkpt lat="47.04915" lon="-0.82155">
        <ele>128</ele>
        <time>2015-03-16T09:39:25Z</time>
      </trkpt>
      <trkpt lat="47.04918" lon="-0.82153">
        <ele>128</ele>
        <time>2015-03-16T09:39:28Z</time>
      </trkpt>
      <trkpt lat="47.04921" lon="-0.82151">
        <ele>128</ele>
        <time>2015-03-16T09:39:30Z</time>
      </trkpt>
      <trkpt lat="47.04923" lon="-0.8215">
        <ele>128</ele>
        <time>2015-03-16T09:39:32Z</time>
      </trkpt>
      <trkpt lat="47.04925" lon="-0.82148">
        <ele>129</ele>
        <time>2015-03-16T09:39:34Z</time>
      </trkpt>
      <trkpt lat="47.04927" lon="-0.82147">
        <ele>129</ele>
        <time>2015-03-16T09:39:36Z</time>
      </trkpt>
      <trkpt lat="47.0493" lon="-0.82144">
        <ele>129</ele>
        <time>2015-03-16T09:39:39Z</time>
      </trkpt>
      <trkpt lat="47.04932" lon="-0.82143">
        <ele>129</ele>
        <time>2015-03-16T09:39:41Z</time>
      </trkpt>
      <trkpt lat="47.04936" lon="-0.82141">
        <ele>129</ele>
        <time>2015-03-16T09:39:44Z</time>
      </trkpt>
      <trkpt lat="47.0494" lon="-0.82139">
        <ele>129</ele>
        <time>2015-03-16T09:39:47Z</time>
      </trkpt>
      <trkpt lat="47.04942" lon="-0.82138">
        <ele>130</ele>
        <time>2015-03-16T09:39:49Z</time>
      </trkpt>
      <trkpt lat="47.04945" lon="-0.82136">
        <ele>130</ele>
        <time>2015-03-16T09:39:52Z</time>
      </trkpt>
      <trkpt lat="47.04948" lon="-0.82134">
        <ele>130</ele>
        <time>2015-03-16T09:39:55Z</time>
      </trkpt>
      <trkpt lat="47.0495" lon="-0.82132">
        <ele>130</ele>
        <time>2015-03-16T09:39:57Z</time>
      </trkpt>
      <trkpt lat="47.04953" lon="-0.82131">
        <ele>130</ele>
        <time>2015-03-16T09:40:00Z</time>
      </trkpt>
      <trkpt lat="47.04956" lon="-0.82129">
        <ele>130</ele>
        <time>2015-03-16T09:40:02Z</time>
      </trkpt>
      <trkpt lat="47.0496" lon="-0.82126">
        <ele>130</ele>
        <time>2015-03-16T09:40:06Z</time>
      </trkpt>
      <trkpt lat="47.04962" lon="-0.82125">
        <ele>130</ele>
        <time>2015-03-16T09:40:08Z</time>
      </trkpt>
      <trkpt lat="47.04965" lon="-0.82123">
        <ele>130</ele>
        <time>2015-03-16T09:40:11Z</time>
      </trkpt>
      <trkpt lat="47.04967" lon="-0.82122">
        <ele>130</ele>
        <time>2015-03-16T09:40:13Z</time>
      </trkpt>
      <trkpt lat="47.04971" lon="-0.8212">
        <ele>131</ele>
        <time>2015-03-16T09:40:16Z</time>
      </trkpt>
      <trkpt lat="47.04972" lon="-0.82119">
        <ele>131</ele>
        <time>2015-03-16T09:40:18Z</time>
      </trkpt>
      <trkpt lat="47.04976" lon="-0.82116">
        <ele>131</ele>
        <time>2015-03-16T09:40:21Z</time>
      </trkpt>
      <trkpt lat="47.04978" lon="-0.82115">
        <ele>131</ele>
        <time>2015-03-16T09:40:23Z</time>
      </trkpt>
      <trkpt lat="47.0498" lon="-0.82113">
        <ele>131</ele>
        <time>2015-03-16T09:40:25Z</time>
      </trkpt>
      <trkpt lat="47.04982" lon="-0.82112">
        <ele>131</ele>
        <time>2015-03-16T09:40:27Z</time>
      </trkpt>
      <trkpt lat="47.04985" lon="-0.8211">
        <ele>131</ele>
        <time>2015-03-16T09:40:30Z</time>
      </trkpt>
      <trkpt lat="47.04987" lon="-0.82109">
        <ele>131</ele>
        <time>2015-03-16T09:40:32Z</time>
      </trkpt>
      <trkpt lat="47.04989" lon="-0.82108">
        <ele>131</ele>
        <time>2015-03-16T09:40:34Z</time>
      </trkpt>
      <trkpt lat="47.04993" lon="-0.82105">
        <ele>131</ele>
        <time>2015-03-16T09:40:38Z</time>
      </trkpt>
      <trkpt lat="47.04996" lon="-0.82103">
        <ele>131</ele>
        <time>2015-03-16T09:40:41Z</time>
      </trkpt>
      <trkpt lat="47.04998" lon="-0.82102">
        <ele>131</ele>
        <time>2015-03-16T09:40:43Z</time>
      </trkpt>
      <trkpt lat="47.05001" lon="-0.821">
        <ele>131</ele>
        <time>2015-03-16T09:40:45Z</time>
      </trkpt>
      <trkpt lat="47.05003" lon="-0.82099">
        <ele>131</ele>
        <time>2015-03-16T09:40:47Z</time>
      </trkpt>
      <trkpt lat="47.05005" lon="-0.82098">
        <ele>131</ele>
        <time>2015-03-16T09:40:49Z</time>
      </trkpt>
      <trkpt lat="47.05008" lon="-0.82096">
        <ele>131</ele>
        <time>2015-03-16T09:40:53Z</time>
      </trkpt>
      <trkpt lat="47.05011" lon="-0.82095">
        <ele>131</ele>
        <time>2015-03-16T09:40:55Z</time>
      </trkpt>
      <trkpt lat="47.05012" lon="-0.82094">
        <ele>131</ele>
        <time>2015-03-16T09:40:57Z</time>
      </trkpt>
      <trkpt lat="47.05014" lon="-0.82093">
        <ele>131</ele>
        <time>2015-03-16T09:40:59Z</time>
      </trkpt>
      <trkpt lat="47.05016" lon="-0.82091">
        <ele>131</ele>
        <time>2015-03-16T09:41:01Z</time>
      </trkpt>
      <trkpt lat="47.0502" lon="-0.82089">
        <ele>131</ele>
        <time>2015-03-16T09:41:05Z</time>
      </trkpt>
      <trkpt lat="47.05022" lon="-0.82087">
        <ele>131</ele>
        <time>2015-03-16T09:41:07Z</time>
      </trkpt>
      <trkpt lat="47.05025" lon="-0.82084">
        <ele>131</ele>
        <time>2015-03-16T09:41:11Z</time>
      </trkpt>
      <trkpt lat="47.05027" lon="-0.82083">
        <ele>131</ele>
        <time>2015-03-16T09:41:13Z</time>
      </trkpt>
      <trkpt lat="47.05031" lon="-0.8208">
        <ele>131</ele>
        <time>2015-03-16T09:41:17Z</time>
      </trkpt>
      <trkpt lat="47.05033" lon="-0.82078">
        <ele>131</ele>
        <time>2015-03-16T09:41:19Z</time>
      </trkpt>
      <trkpt lat="47.05035" lon="-0.82077">
        <ele>131</ele>
        <time>2015-03-16T09:41:21Z</time>
      </trkpt>
      <trkpt lat="47.05036" lon="-0.82075">
        <ele>131</ele>
        <time>2015-03-16T09:41:23Z</time>
      </trkpt>
      <trkpt lat="47.05038" lon="-0.82074">
        <ele>131</ele>
        <time>2015-03-16T09:41:25Z</time>
      </trkpt>
      <trkpt lat="47.05042" lon="-0.82071">
        <ele>131</ele>
        <time>2015-03-16T09:41:29Z</time>
      </trkpt>
      <trkpt lat="47.05044" lon="-0.82069">
        <ele>131</ele>
        <time>2015-03-16T09:41:31Z</time>
      </trkpt>
      <trkpt lat="47.05046" lon="-0.82068">
        <ele>131</ele>
        <time>2015-03-16T09:41:33Z</time>
      </trkpt>
      <trkpt lat="47.05048" lon="-0.82067">
        <ele>131</ele>
        <time>2015-03-16T09:41:35Z</time>
      </trkpt>
      <trkpt lat="47.0505" lon="-0.82065">
        <ele>131</ele>
        <time>2015-03-16T09:41:37Z</time>
      </trkpt>
      <trkpt lat="47.05053" lon="-0.82063">
        <ele>131</ele>
        <time>2015-03-16T09:41:40Z</time>
      </trkpt>
      <trkpt lat="47.05055" lon="-0.82061">
        <ele>131</ele>
        <time>2015-03-16T09:41:42Z</time>
      </trkpt>
      <trkpt lat="47.05057" lon="-0.8206">
        <ele>131</ele>
        <time>2015-03-16T09:41:44Z</time>
      </trkpt>
      <trkpt lat="47.05059" lon="-0.82059">
        <ele>131</ele>
        <time>2015-03-16T09:41:46Z</time>
      </trkpt>
      <trkpt lat="47.05062" lon="-0.82057">
        <ele>131</ele>
        <time>2015-03-16T09:41:49Z</time>
      </trkpt>
      <trkpt lat="47.05064" lon="-0.82055">
        <ele>131</ele>
        <time>2015-03-16T09:41:51Z</time>
      </trkpt>
      <trkpt lat="47.05067" lon="-0.82053">
        <ele>131</ele>
        <time>2015-03-16T09:41:54Z</time>
      </trkpt>
      <trkpt lat="47.05069" lon="-0.82052">
        <ele>131</ele>
        <time>2015-03-16T09:41:56Z</time>
      </trkpt>
      <trkpt lat="47.05071" lon="-0.8205">
        <ele>131</ele>
        <time>2015-03-16T09:41:58Z</time>
      </trkpt>
      <trkpt lat="47.05073" lon="-0.82048">
        <ele>131</ele>
        <time>2015-03-16T09:42:00Z</time>
      </trkpt>
      <trkpt lat="47.05077" lon="-0.82047">
        <ele>131</ele>
        <time>2015-03-16T09:42:03Z</time>
      </trkpt>
      <trkpt lat="47.05079" lon="-0.82045">
        <ele>131</ele>
        <time>2015-03-16T09:42:05Z</time>
      </trkpt>
      <trkpt lat="47.05081" lon="-0.82044">
        <ele>131</ele>
        <time>2015-03-16T09:42:07Z</time>
      </trkpt>
      <trkpt lat="47.05083" lon="-0.82042">
        <ele>131</ele>
        <time>2015-03-16T09:42:09Z</time>
      </trkpt>
      <trkpt lat="47.05087" lon="-0.8204">
        <ele>131</ele>
        <time>2015-03-16T09:42:12Z</time>
      </trkpt>
      <trkpt lat="47.0509" lon="-0.82038">
        <ele>131</ele>
        <time>2015-03-16T09:42:15Z</time>
      </trkpt>
      <trkpt lat="47.05092" lon="-0.82036">
        <ele>131</ele>
        <time>2015-03-16T09:42:17Z</time>
      </trkpt>
      <trkpt lat="47.05094" lon="-0.82035">
        <ele>131</ele>
        <time>2015-03-16T09:42:19Z</time>
      </trkpt>
      <trkpt lat="47.05096" lon="-0.82035">
        <ele>131</ele>
        <time>2015-03-16T09:42:21Z</time>
      </trkpt>
      <trkpt lat="47.05099" lon="-0.82035">
        <ele>131</ele>
        <time>2015-03-16T09:42:23Z</time>
      </trkpt>
      <trkpt lat="47.05101" lon="-0.82034">
        <ele>131</ele>
        <time>2015-03-16T09:42:25Z</time>
      </trkpt>
      <trkpt lat="47.05104" lon="-0.82032">
        <ele>131</ele>
        <time>2015-03-16T09:42:27Z</time>
      </trkpt>
      <trkpt lat="47.05106" lon="-0.8203">
        <ele>131</ele>
        <time>2015-03-16T09:42:29Z</time>
      </trkpt>
      <trkpt lat="47.05108" lon="-0.82029">
        <ele>131</ele>
        <time>2015-03-16T09:42:31Z</time>
      </trkpt>
      <trkpt lat="47.05111" lon="-0.82028">
        <ele>131</ele>
        <time>2015-03-16T09:42:33Z</time>
      </trkpt>
      <trkpt lat="47.05114" lon="-0.82028">
        <ele>131</ele>
        <time>2015-03-16T09:42:35Z</time>
      </trkpt>
      <trkpt lat="47.05116" lon="-0.82028">
        <ele>131</ele>
        <time>2015-03-16T09:42:37Z</time>
      </trkpt>
      <trkpt lat="47.05119" lon="-0.82028">
        <ele>131</ele>
        <time>2015-03-16T09:42:39Z</time>
      </trkpt>
      <trkpt lat="47.05121" lon="-0.82028">
        <ele>131</ele>
        <time>2015-03-16T09:42:41Z</time>
      </trkpt>
      <trkpt lat="47.05124" lon="-0.82028">
        <ele>131</ele>
        <time>2015-03-16T09:42:43Z</time>
      </trkpt>
      <trkpt lat="47.05126" lon="-0.82028">
        <ele>131</ele>
        <time>2015-03-16T09:42:45Z</time>
      </trkpt>
      <trkpt lat="47.05129" lon="-0.82028">
        <ele>131</ele>
        <time>2015-03-16T09:42:47Z</time>
      </trkpt>
      <trkpt lat="47.05131" lon="-0.82028">
        <ele>131</ele>
        <time>2015-03-16T09:42:49Z</time>
      </trkpt>
      <trkpt lat="47.05135" lon="-0.82029">
        <ele>131</ele>
        <time>2015-03-16T09:42:51Z</time>
      </trkpt>
      <trkpt lat="47.05139" lon="-0.8203">
        <ele>131</ele>
        <time>2015-03-16T09:42:53Z</time>
      </trkpt>
      <trkpt lat="47.05142" lon="-0.8203">
        <ele>133</ele>
        <time>2015-03-16T09:42:55Z</time>
      </trkpt>
      <trkpt lat="47.05145" lon="-0.82031">
        <ele>134</ele>
        <time>2015-03-16T09:42:57Z</time>
      </trkpt>
      <trkpt lat="47.05148" lon="-0.82032">
        <ele>135</ele>
        <time>2015-03-16T09:42:59Z</time>
      </trkpt>
      <trkpt lat="47.05152" lon="-0.82033">
        <ele>136</ele>
        <time>2015-03-16T09:43:02Z</time>
      </trkpt>
      <trkpt lat="47.05155" lon="-0.82035">
        <ele>136</ele>
        <time>2015-03-16T09:43:04Z</time>
      </trkpt>
      <trkpt lat="47.05157" lon="-0.82034">
        <ele>136</ele>
        <time>2015-03-16T09:43:06Z</time>
      </trkpt>
      <trkpt lat="47.0516" lon="-0.82032">
        <ele>136</ele>
        <time>2015-03-16T09:43:09Z</time>
      </trkpt>
      <trkpt lat="47.05163" lon="-0.82031">
        <ele>136</ele>
        <time>2015-03-16T09:43:11Z</time>
      </trkpt>
      <trkpt lat="47.05166" lon="-0.82028">
        <ele>136</ele>
        <time>2015-03-16T09:43:14Z</time>
      </trkpt>
      <trkpt lat="47.05169" lon="-0.82025">
        <ele>136</ele>
        <time>2015-03-16T09:43:16Z</time>
      </trkpt>
      <trkpt lat="47.05172" lon="-0.82022">
        <ele>136</ele>
        <time>2015-03-16T09:43:18Z</time>
      </trkpt>
      <trkpt lat="47.05173" lon="-0.82019">
        <ele>136</ele>
        <time>2015-03-16T09:43:20Z</time>
      </trkpt>
      <trkpt lat="47.05175" lon="-0.82017">
        <ele>136</ele>
        <time>2015-03-16T09:43:22Z</time>
      </trkpt>
      <trkpt lat="47.05179" lon="-0.82014">
        <ele>136</ele>
        <time>2015-03-16T09:43:25Z</time>
      </trkpt>
      <trkpt lat="47.05182" lon="-0.82014">
        <ele>136</ele>
        <time>2015-03-16T09:43:27Z</time>
      </trkpt>
      <trkpt lat="47.05185" lon="-0.82012">
        <ele>136</ele>
        <time>2015-03-16T09:43:30Z</time>
      </trkpt>
      <trkpt lat="47.05188" lon="-0.82011">
        <ele>136</ele>
        <time>2015-03-16T09:43:33Z</time>
      </trkpt>
      <trkpt lat="47.05191" lon="-0.8201">
        <ele>136</ele>
        <time>2015-03-16T09:43:36Z</time>
      </trkpt>
      <trkpt lat="47.05195" lon="-0.8201">
        <ele>136</ele>
        <time>2015-03-16T09:43:39Z</time>
      </trkpt>
      <trkpt lat="47.05197" lon="-0.8201">
        <ele>136</ele>
        <time>2015-03-16T09:43:41Z</time>
      </trkpt>
      <trkpt lat="47.05199" lon="-0.82011">
        <ele>136</ele>
        <time>2015-03-16T09:43:43Z</time>
      </trkpt>
      <trkpt lat="47.05201" lon="-0.82011">
        <ele>136</ele>
        <time>2015-03-16T09:43:45Z</time>
      </trkpt>
      <trkpt lat="47.05204" lon="-0.82013">
        <ele>136</ele>
        <time>2015-03-16T09:43:48Z</time>
      </trkpt>
      <trkpt lat="47.05207" lon="-0.82016">
        <ele>136</ele>
        <time>2015-03-16T09:43:51Z</time>
      </trkpt>
      <trkpt lat="47.05209" lon="-0.82017">
        <ele>136</ele>
        <time>2015-03-16T09:43:53Z</time>
      </trkpt>
      <trkpt lat="47.05211" lon="-0.8202">
        <ele>136</ele>
        <time>2015-03-16T09:43:55Z</time>
      </trkpt>
      <trkpt lat="47.05212" lon="-0.82024">
        <ele>136</ele>
        <time>2015-03-16T09:43:57Z</time>
      </trkpt>
      <trkpt lat="47.05214" lon="-0.82027">
        <ele>136</ele>
        <time>2015-03-16T09:43:59Z</time>
      </trkpt>
      <trkpt lat="47.05215" lon="-0.8203">
        <ele>136</ele>
        <time>2015-03-16T09:44:01Z</time>
      </trkpt>
      <trkpt lat="47.05216" lon="-0.82035">
        <ele>136</ele>
        <time>2015-03-16T09:44:04Z</time>
      </trkpt>
      <trkpt lat="47.05217" lon="-0.82039">
        <ele>136</ele>
        <time>2015-03-16T09:44:06Z</time>
      </trkpt>
      <trkpt lat="47.05218" lon="-0.82042">
        <ele>136</ele>
        <time>2015-03-16T09:44:08Z</time>
      </trkpt>
      <trkpt lat="47.05219" lon="-0.82045">
        <ele>136</ele>
        <time>2015-03-16T09:44:10Z</time>
      </trkpt>
      <trkpt lat="47.05219" lon="-0.82048">
        <ele>136</ele>
        <time>2015-03-16T09:44:12Z</time>
      </trkpt>
      <trkpt lat="47.0522" lon="-0.82051">
        <ele>136</ele>
        <time>2015-03-16T09:44:14Z</time>
      </trkpt>
      <trkpt lat="47.0522" lon="-0.82055">
        <ele>136</ele>
        <time>2015-03-16T09:44:16Z</time>
      </trkpt>
      <trkpt lat="47.0522" lon="-0.82059">
        <ele>136</ele>
        <time>2015-03-16T09:44:18Z</time>
      </trkpt>
      <trkpt lat="47.05221" lon="-0.82062">
        <ele>136</ele>
        <time>2015-03-16T09:44:20Z</time>
      </trkpt>
      <trkpt lat="47.05221" lon="-0.82066">
        <ele>136</ele>
        <time>2015-03-16T09:44:22Z</time>
      </trkpt>
      <trkpt lat="47.05222" lon="-0.82069">
        <ele>136</ele>
        <time>2015-03-16T09:44:24Z</time>
      </trkpt>
      <trkpt lat="47.05224" lon="-0.82073">
        <ele>137</ele>
        <time>2015-03-16T09:44:26Z</time>
      </trkpt>
      <trkpt lat="47.05225" lon="-0.82078">
        <ele>137</ele>
        <time>2015-03-16T09:44:29Z</time>
      </trkpt>
      <trkpt lat="47.05225" lon="-0.82082">
        <ele>137</ele>
        <time>2015-03-16T09:44:32Z</time>
      </trkpt>
      <trkpt lat="47.05225" lon="-0.82086">
        <ele>138</ele>
        <time>2015-03-16T09:44:34Z</time>
      </trkpt>
      <trkpt lat="47.05226" lon="-0.82089">
        <ele>138</ele>
        <time>2015-03-16T09:44:36Z</time>
      </trkpt>
      <trkpt lat="47.05228" lon="-0.82092">
        <ele>138</ele>
        <time>2015-03-16T09:44:38Z</time>
      </trkpt>
      <trkpt lat="47.05228" lon="-0.82095">
        <ele>138</ele>
        <time>2015-03-16T09:44:40Z</time>
      </trkpt>
      <trkpt lat="47.05229" lon="-0.82099">
        <ele>138</ele>
        <time>2015-03-16T09:44:42Z</time>
      </trkpt>
      <trkpt lat="47.0523" lon="-0.82105">
        <ele>138</ele>
        <time>2015-03-16T09:44:45Z</time>
      </trkpt>
      <trkpt lat="47.05231" lon="-0.82108">
        <ele>138</ele>
        <time>2015-03-16T09:44:47Z</time>
      </trkpt>
      <trkpt lat="47.05233" lon="-0.82112">
        <ele>138</ele>
        <time>2015-03-16T09:44:50Z</time>
      </trkpt>
      <trkpt lat="47.05235" lon="-0.82114">
        <ele>138</ele>
        <time>2015-03-16T09:44:52Z</time>
      </trkpt>
      <trkpt lat="47.05237" lon="-0.82116">
        <ele>138</ele>
        <time>2015-03-16T09:44:54Z</time>
      </trkpt>
      <trkpt lat="47.05239" lon="-0.82117">
        <ele>138</ele>
        <time>2015-03-16T09:44:56Z</time>
      </trkpt>
      <trkpt lat="47.05241" lon="-0.82119">
        <ele>138</ele>
        <time>2015-03-16T09:44:58Z</time>
      </trkpt>
      <trkpt lat="47.05244" lon="-0.82119">
        <ele>138</ele>
        <time>2015-03-16T09:45:00Z</time>
      </trkpt>
      <trkpt lat="47.05247" lon="-0.82121">
        <ele>138</ele>
        <time>2015-03-16T09:45:03Z</time>
      </trkpt>
      <trkpt lat="47.05249" lon="-0.82122">
        <ele>138</ele>
        <time>2015-03-16T09:45:05Z</time>
      </trkpt>
      <trkpt lat="47.05252" lon="-0.82124">
        <ele>138</ele>
        <time>2015-03-16T09:45:07Z</time>
      </trkpt>
      <trkpt lat="47.05255" lon="-0.82125">
        <ele>138</ele>
        <time>2015-03-16T09:45:09Z</time>
      </trkpt>
      <trkpt lat="47.05259" lon="-0.82126">
        <ele>138</ele>
        <time>2015-03-16T09:45:11Z</time>
      </trkpt>
      <trkpt lat="47.05261" lon="-0.82127">
        <ele>138</ele>
        <time>2015-03-16T09:45:13Z</time>
      </trkpt>
      <trkpt lat="47.05264" lon="-0.82127">
        <ele>138</ele>
        <time>2015-03-16T09:45:15Z</time>
      </trkpt>
      <trkpt lat="47.05266" lon="-0.82128">
        <ele>138</ele>
        <time>2015-03-16T09:45:17Z</time>
      </trkpt>
      <trkpt lat="47.05268" lon="-0.82129">
        <ele>138</ele>
        <time>2015-03-16T09:45:19Z</time>
      </trkpt>
      <trkpt lat="47.0527" lon="-0.8213">
        <ele>138</ele>
        <time>2015-03-16T09:45:21Z</time>
      </trkpt>
      <trkpt lat="47.05273" lon="-0.82131">
        <ele>138</ele>
        <time>2015-03-16T09:45:23Z</time>
      </trkpt>
      <trkpt lat="47.05276" lon="-0.82132">
        <ele>138</ele>
        <time>2015-03-16T09:45:25Z</time>
      </trkpt>
      <trkpt lat="47.05279" lon="-0.82133">
        <ele>138</ele>
        <time>2015-03-16T09:45:27Z</time>
      </trkpt>
      <trkpt lat="47.05281" lon="-0.82133">
        <ele>138</ele>
        <time>2015-03-16T09:45:29Z</time>
      </trkpt>
      <trkpt lat="47.05283" lon="-0.82134">
        <ele>139</ele>
        <time>2015-03-16T09:45:31Z</time>
      </trkpt>
      <trkpt lat="47.05286" lon="-0.82134">
        <ele>139</ele>
        <time>2015-03-16T09:45:33Z</time>
      </trkpt>
      <trkpt lat="47.05289" lon="-0.82135">
        <ele>139</ele>
        <time>2015-03-16T09:45:36Z</time>
      </trkpt>
      <trkpt lat="47.05291" lon="-0.82136">
        <ele>139</ele>
        <time>2015-03-16T09:45:38Z</time>
      </trkpt>
      <trkpt lat="47.05295" lon="-0.82137">
        <ele>139</ele>
        <time>2015-03-16T09:45:41Z</time>
      </trkpt>
      <trkpt lat="47.05297" lon="-0.82137">
        <ele>139</ele>
        <time>2015-03-16T09:45:43Z</time>
      </trkpt>
      <trkpt lat="47.053" lon="-0.82137">
        <ele>139</ele>
        <time>2015-03-16T09:45:45Z</time>
      </trkpt>
      <trkpt lat="47.05302" lon="-0.82137">
        <ele>139</ele>
        <time>2015-03-16T09:45:47Z</time>
      </trkpt>
      <trkpt lat="47.05305" lon="-0.82137">
        <ele>139</ele>
        <time>2015-03-16T09:45:49Z</time>
      </trkpt>
      <trkpt lat="47.05308" lon="-0.82138">
        <ele>139</ele>
        <time>2015-03-16T09:45:51Z</time>
      </trkpt>
      <trkpt lat="47.0531" lon="-0.82139">
        <ele>140</ele>
        <time>2015-03-16T09:45:53Z</time>
      </trkpt>
      <trkpt lat="47.05312" lon="-0.8214">
        <ele>140</ele>
        <time>2015-03-16T09:45:55Z</time>
      </trkpt>
      <trkpt lat="47.05315" lon="-0.8214">
        <ele>140</ele>
        <time>2015-03-16T09:45:57Z</time>
      </trkpt>
      <trkpt lat="47.05317" lon="-0.82141">
        <ele>140</ele>
        <time>2015-03-16T09:45:59Z</time>
      </trkpt>
      <trkpt lat="47.0532" lon="-0.82141">
        <ele>140</ele>
        <time>2015-03-16T09:46:01Z</time>
      </trkpt>
      <trkpt lat="47.05322" lon="-0.8214">
        <ele>140</ele>
        <time>2015-03-16T09:46:03Z</time>
      </trkpt>
      <trkpt lat="47.05325" lon="-0.82141">
        <ele>140</ele>
        <time>2015-03-16T09:46:06Z</time>
      </trkpt>
      <trkpt lat="47.05328" lon="-0.82142">
        <ele>140</ele>
        <time>2015-03-16T09:46:08Z</time>
      </trkpt>
      <trkpt lat="47.05331" lon="-0.82143">
        <ele>140</ele>
        <time>2015-03-16T09:46:11Z</time>
      </trkpt>
      <trkpt lat="47.05333" lon="-0.82143">
        <ele>140</ele>
        <time>2015-03-16T09:46:13Z</time>
      </trkpt>
      <trkpt lat="47.05336" lon="-0.82143">
        <ele>140</ele>
        <time>2015-03-16T09:46:15Z</time>
      </trkpt>
      <trkpt lat="47.05338" lon="-0.82143">
        <ele>140</ele>
        <time>2015-03-16T09:46:17Z</time>
      </trkpt>
      <trkpt lat="47.0534" lon="-0.82143">
        <ele>140</ele>
        <time>2015-03-16T09:46:19Z</time>
      </trkpt>
      <trkpt lat="47.05342" lon="-0.82143">
        <ele>140</ele>
        <time>2015-03-16T09:46:21Z</time>
      </trkpt>
      <trkpt lat="47.05344" lon="-0.82143">
        <ele>140</ele>
        <time>2015-03-16T09:46:23Z</time>
      </trkpt>
      <trkpt lat="47.05347" lon="-0.82143">
        <ele>140</ele>
        <time>2015-03-16T09:46:25Z</time>
      </trkpt>
      <trkpt lat="47.05349" lon="-0.82143">
        <ele>140</ele>
        <time>2015-03-16T09:46:27Z</time>
      </trkpt>
      <trkpt lat="47.05352" lon="-0.82144">
        <ele>140</ele>
        <time>2015-03-16T09:46:30Z</time>
      </trkpt>
      <trkpt lat="47.05355" lon="-0.82144">
        <ele>140</ele>
        <time>2015-03-16T09:46:32Z</time>
      </trkpt>
      <trkpt lat="47.05357" lon="-0.82144">
        <ele>140</ele>
        <time>2015-03-16T09:46:34Z</time>
      </trkpt>
      <trkpt lat="47.0536" lon="-0.82143">
        <ele>140</ele>
        <time>2015-03-16T09:46:36Z</time>
      </trkpt>
      <trkpt lat="47.05362" lon="-0.82143">
        <ele>140</ele>
        <time>2015-03-16T09:46:38Z</time>
      </trkpt>
      <trkpt lat="47.05365" lon="-0.82143">
        <ele>140</ele>
        <time>2015-03-16T09:46:40Z</time>
      </trkpt>
      <trkpt lat="47.05367" lon="-0.82143">
        <ele>140</ele>
        <time>2015-03-16T09:46:42Z</time>
      </trkpt>
      <trkpt lat="47.05369" lon="-0.82143">
        <ele>140</ele>
        <time>2015-03-16T09:46:44Z</time>
      </trkpt>
      <trkpt lat="47.05372" lon="-0.82142">
        <ele>140</ele>
        <time>2015-03-16T09:46:46Z</time>
      </trkpt>
      <trkpt lat="47.05374" lon="-0.82142">
        <ele>140</ele>
        <time>2015-03-16T09:46:48Z</time>
      </trkpt>
      <trkpt lat="47.05378" lon="-0.82142">
        <ele>140</ele>
        <time>2015-03-16T09:46:51Z</time>
      </trkpt>
      <trkpt lat="47.0538" lon="-0.82141">
        <ele>140</ele>
        <time>2015-03-16T09:46:53Z</time>
      </trkpt>
      <trkpt lat="47.05384" lon="-0.82141">
        <ele>140</ele>
        <time>2015-03-16T09:46:56Z</time>
      </trkpt>
      <trkpt lat="47.05386" lon="-0.8214">
        <ele>140</ele>
        <time>2015-03-16T09:46:58Z</time>
      </trkpt>
      <trkpt lat="47.05389" lon="-0.8214">
        <ele>140</ele>
        <time>2015-03-16T09:47:00Z</time>
      </trkpt>
      <trkpt lat="47.05391" lon="-0.82139">
        <ele>140</ele>
        <time>2015-03-16T09:47:02Z</time>
      </trkpt>
      <trkpt lat="47.05393" lon="-0.82139">
        <ele>140</ele>
        <time>2015-03-16T09:47:04Z</time>
      </trkpt>
      <trkpt lat="47.05396" lon="-0.82138">
        <ele>140</ele>
        <time>2015-03-16T09:47:06Z</time>
      </trkpt>
      <trkpt lat="47.05398" lon="-0.82138">
        <ele>141</ele>
        <time>2015-03-16T09:47:08Z</time>
      </trkpt>
      <trkpt lat="47.054" lon="-0.82137">
        <ele>141</ele>
        <time>2015-03-16T09:47:10Z</time>
      </trkpt>
      <trkpt lat="47.05403" lon="-0.82136">
        <ele>141</ele>
        <time>2015-03-16T09:47:12Z</time>
      </trkpt>
      <trkpt lat="47.05406" lon="-0.82136">
        <ele>142</ele>
        <time>2015-03-16T09:47:15Z</time>
      </trkpt>
      <trkpt lat="47.05409" lon="-0.82135">
        <ele>142</ele>
        <time>2015-03-16T09:47:17Z</time>
      </trkpt>
      <trkpt lat="47.05412" lon="-0.82134">
        <ele>142</ele>
        <time>2015-03-16T09:47:20Z</time>
      </trkpt>
      <trkpt lat="47.05414" lon="-0.82134">
        <ele>142</ele>
        <time>2015-03-16T09:47:22Z</time>
      </trkpt>
      <trkpt lat="47.05418" lon="-0.82134">
        <ele>142</ele>
        <time>2015-03-16T09:47:25Z</time>
      </trkpt>
      <trkpt lat="47.05421" lon="-0.82133">
        <ele>142</ele>
        <time>2015-03-16T09:47:27Z</time>
      </trkpt>
      <trkpt lat="47.05423" lon="-0.82132">
        <ele>142</ele>
        <time>2015-03-16T09:47:29Z</time>
      </trkpt>
      <trkpt lat="47.05426" lon="-0.82131">
        <ele>143</ele>
        <time>2015-03-16T09:47:32Z</time>
      </trkpt>
      <trkpt lat="47.05429" lon="-0.82129">
        <ele>144</ele>
        <time>2015-03-16T09:47:35Z</time>
      </trkpt>
      <trkpt lat="47.05432" lon="-0.82129">
        <ele>144</ele>
        <time>2015-03-16T09:47:37Z</time>
      </trkpt>
      <trkpt lat="47.05434" lon="-0.82127">
        <ele>144</ele>
        <time>2015-03-16T09:47:39Z</time>
      </trkpt>
      <trkpt lat="47.05437" lon="-0.82126">
        <ele>144</ele>
        <time>2015-03-16T09:47:41Z</time>
      </trkpt>
      <trkpt lat="47.0544" lon="-0.82125">
        <ele>145</ele>
        <time>2015-03-16T09:47:43Z</time>
      </trkpt>
      <trkpt lat="47.05442" lon="-0.82124">
        <ele>145</ele>
        <time>2015-03-16T09:47:45Z</time>
      </trkpt>
      <trkpt lat="47.05444" lon="-0.82123">
        <ele>146</ele>
        <time>2015-03-16T09:47:47Z</time>
      </trkpt>
      <trkpt lat="47.05446" lon="-0.82122">
        <ele>146</ele>
        <time>2015-03-16T09:47:49Z</time>
      </trkpt>
      <trkpt lat="47.05448" lon="-0.8212">
        <ele>147</ele>
        <time>2015-03-16T09:47:51Z</time>
      </trkpt>
      <trkpt lat="47.05451" lon="-0.82119">
        <ele>147</ele>
        <time>2015-03-16T09:47:53Z</time>
      </trkpt>
      <trkpt lat="47.05453" lon="-0.82118">
        <ele>147</ele>
        <time>2015-03-16T09:47:55Z</time>
      </trkpt>
      <trkpt lat="47.05455" lon="-0.82116">
        <ele>147</ele>
        <time>2015-03-16T09:47:57Z</time>
      </trkpt>
      <trkpt lat="47.05457" lon="-0.82115">
        <ele>147</ele>
        <time>2015-03-16T09:47:59Z</time>
      </trkpt>
      <trkpt lat="47.05459" lon="-0.82113">
        <ele>148</ele>
        <time>2015-03-16T09:48:01Z</time>
      </trkpt>
      <trkpt lat="47.05461" lon="-0.82111">
        <ele>148</ele>
        <time>2015-03-16T09:48:03Z</time>
      </trkpt>
      <trkpt lat="47.05464" lon="-0.82109">
        <ele>148</ele>
        <time>2015-03-16T09:48:06Z</time>
      </trkpt>
      <trkpt lat="47.05466" lon="-0.82108">
        <ele>148</ele>
        <time>2015-03-16T09:48:08Z</time>
      </trkpt>
      <trkpt lat="47.05468" lon="-0.82106">
        <ele>148</ele>
        <time>2015-03-16T09:48:10Z</time>
      </trkpt>
      <trkpt lat="47.0547" lon="-0.82104">
        <ele>148</ele>
        <time>2015-03-16T09:48:12Z</time>
      </trkpt>
      <trkpt lat="47.05472" lon="-0.82103">
        <ele>148</ele>
        <time>2015-03-16T09:48:14Z</time>
      </trkpt>
      <trkpt lat="47.05475" lon="-0.82101">
        <ele>148</ele>
        <time>2015-03-16T09:48:16Z</time>
      </trkpt>
      <trkpt lat="47.05477" lon="-0.821">
        <ele>148</ele>
        <time>2015-03-16T09:48:18Z</time>
      </trkpt>
      <trkpt lat="47.05479" lon="-0.82098">
        <ele>148</ele>
        <time>2015-03-16T09:48:20Z</time>
      </trkpt>
      <trkpt lat="47.05481" lon="-0.82096">
        <ele>148</ele>
        <time>2015-03-16T09:48:22Z</time>
      </trkpt>
      <trkpt lat="47.05482" lon="-0.82094">
        <ele>148</ele>
        <time>2015-03-16T09:48:24Z</time>
      </trkpt>
      <trkpt lat="47.05484" lon="-0.82092">
        <ele>148</ele>
        <time>2015-03-16T09:48:26Z</time>
      </trkpt>
      <trkpt lat="47.05487" lon="-0.82091">
        <ele>148</ele>
        <time>2015-03-16T09:48:28Z</time>
      </trkpt>
      <trkpt lat="47.05489" lon="-0.82089">
        <ele>148</ele>
        <time>2015-03-16T09:48:30Z</time>
      </trkpt>
      <trkpt lat="47.0549" lon="-0.82087">
        <ele>148</ele>
        <time>2015-03-16T09:48:32Z</time>
      </trkpt>
      <trkpt lat="47.05493" lon="-0.82085">
        <ele>148</ele>
        <time>2015-03-16T09:48:34Z</time>
      </trkpt>
      <trkpt lat="47.05496" lon="-0.82082">
        <ele>149</ele>
        <time>2015-03-16T09:48:37Z</time>
      </trkpt>
      <trkpt lat="47.05498" lon="-0.82081">
        <ele>149</ele>
        <time>2015-03-16T09:48:39Z</time>
      </trkpt>
      <trkpt lat="47.055" lon="-0.82079">
        <ele>149</ele>
        <time>2015-03-16T09:48:41Z</time>
      </trkpt>
      <trkpt lat="47.05503" lon="-0.82078">
        <ele>149</ele>
        <time>2015-03-16T09:48:43Z</time>
      </trkpt>
      <trkpt lat="47.05505" lon="-0.82076">
        <ele>149</ele>
        <time>2015-03-16T09:48:45Z</time>
      </trkpt>
      <trkpt lat="47.05507" lon="-0.82075">
        <ele>149</ele>
        <time>2015-03-16T09:48:47Z</time>
      </trkpt>
      <trkpt lat="47.0551" lon="-0.82073">
        <ele>149</ele>
        <time>2015-03-16T09:48:49Z</time>
      </trkpt>
      <trkpt lat="47.05513" lon="-0.82071">
        <ele>149</ele>
        <time>2015-03-16T09:48:52Z</time>
      </trkpt>
      <trkpt lat="47.05515" lon="-0.8207">
        <ele>149</ele>
        <time>2015-03-16T09:48:54Z</time>
      </trkpt>
      <trkpt lat="47.05519" lon="-0.82068">
        <ele>149</ele>
        <time>2015-03-16T09:48:57Z</time>
      </trkpt>
      <trkpt lat="47.05521" lon="-0.82067">
        <ele>149</ele>
        <time>2015-03-16T09:48:59Z</time>
      </trkpt>
      <trkpt lat="47.05523" lon="-0.82067">
        <ele>149</ele>
        <time>2015-03-16T09:49:01Z</time>
      </trkpt>
      <trkpt lat="47.05526" lon="-0.82067">
        <ele>149</ele>
        <time>2015-03-16T09:49:03Z</time>
      </trkpt>
      <trkpt lat="47.05528" lon="-0.82068">
        <ele>149</ele>
        <time>2015-03-16T09:49:05Z</time>
      </trkpt>
      <trkpt lat="47.0553" lon="-0.82069">
        <ele>149</ele>
        <time>2015-03-16T09:49:07Z</time>
      </trkpt>
      <trkpt lat="47.05533" lon="-0.8207">
        <ele>149</ele>
        <time>2015-03-16T09:49:09Z</time>
      </trkpt>
      <trkpt lat="47.05535" lon="-0.82072">
        <ele>149</ele>
        <time>2015-03-16T09:49:11Z</time>
      </trkpt>
      <trkpt lat="47.05537" lon="-0.82074">
        <ele>149</ele>
        <time>2015-03-16T09:49:13Z</time>
      </trkpt>
      <trkpt lat="47.05538" lon="-0.82077">
        <ele>149</ele>
        <time>2015-03-16T09:49:15Z</time>
      </trkpt>
      <trkpt lat="47.0554" lon="-0.82079">
        <ele>149</ele>
        <time>2015-03-16T09:49:17Z</time>
      </trkpt>
      <trkpt lat="47.05542" lon="-0.82081">
        <ele>149</ele>
        <time>2015-03-16T09:49:19Z</time>
      </trkpt>
      <trkpt lat="47.05545" lon="-0.82083">
        <ele>149</ele>
        <time>2015-03-16T09:49:21Z</time>
      </trkpt>
      <trkpt lat="47.05547" lon="-0.82084">
        <ele>149</ele>
        <time>2015-03-16T09:49:23Z</time>
      </trkpt>
      <trkpt lat="47.05549" lon="-0.82085">
        <ele>150</ele>
        <time>2015-03-16T09:49:25Z</time>
      </trkpt>
      <trkpt lat="47.05552" lon="-0.82086">
        <ele>150</ele>
        <time>2015-03-16T09:49:27Z</time>
      </trkpt>
      <trkpt lat="47.05554" lon="-0.82087">
        <ele>150</ele>
        <time>2015-03-16T09:49:29Z</time>
      </trkpt>
      <trkpt lat="47.05556" lon="-0.82088">
        <ele>150</ele>
        <time>2015-03-16T09:49:31Z</time>
      </trkpt>
      <trkpt lat="47.05558" lon="-0.8209">
        <ele>150</ele>
        <time>2015-03-16T09:49:33Z</time>
      </trkpt>
      <trkpt lat="47.05561" lon="-0.82091">
        <ele>150</ele>
        <time>2015-03-16T09:49:36Z</time>
      </trkpt>
      <trkpt lat="47.05563" lon="-0.8209">
        <ele>150</ele>
        <time>2015-03-16T09:49:38Z</time>
      </trkpt>
      <trkpt lat="47.05566" lon="-0.8209">
        <ele>150</ele>
        <time>2015-03-16T09:49:41Z</time>
      </trkpt>
      <trkpt lat="47.05569" lon="-0.82091">
        <ele>150</ele>
        <time>2015-03-16T09:49:44Z</time>
      </trkpt>
      <trkpt lat="47.05572" lon="-0.82091">
        <ele>150</ele>
        <time>2015-03-16T09:49:46Z</time>
      </trkpt>
      <trkpt lat="47.05575" lon="-0.8209">
        <ele>150</ele>
        <time>2015-03-16T09:49:49Z</time>
      </trkpt>
      <trkpt lat="47.05578" lon="-0.8209">
        <ele>150</ele>
        <time>2015-03-16T09:49:52Z</time>
      </trkpt>
      <trkpt lat="47.0558" lon="-0.8209">
        <ele>150</ele>
        <time>2015-03-16T09:49:54Z</time>
      </trkpt>
      <trkpt lat="47.05583" lon="-0.8209">
        <ele>150</ele>
        <time>2015-03-16T09:49:56Z</time>
      </trkpt>
      <trkpt lat="47.05585" lon="-0.82089">
        <ele>150</ele>
        <time>2015-03-16T09:49:58Z</time>
      </trkpt>
      <trkpt lat="47.05587" lon="-0.82089">
        <ele>150</ele>
        <time>2015-03-16T09:50:00Z</time>
      </trkpt>
      <trkpt lat="47.0559" lon="-0.82088">
        <ele>150</ele>
        <time>2015-03-16T09:50:02Z</time>
      </trkpt>
      <trkpt lat="47.05592" lon="-0.82088">
        <ele>150</ele>
        <time>2015-03-16T09:50:04Z</time>
      </trkpt>
      <trkpt lat="47.05596" lon="-0.82088">
        <ele>150</ele>
        <time>2015-03-16T09:50:07Z</time>
      </trkpt>
      <trkpt lat="47.05598" lon="-0.82087">
        <ele>150</ele>
        <time>2015-03-16T09:50:09Z</time>
      </trkpt>
      <trkpt lat="47.05601" lon="-0.82086">
        <ele>150</ele>
        <time>2015-03-16T09:50:11Z</time>
      </trkpt>
      <trkpt lat="47.05605" lon="-0.82086">
        <ele>150</ele>
        <time>2015-03-16T09:50:13Z</time>
      </trkpt>
      <trkpt lat="47.05608" lon="-0.82085">
        <ele>150</ele>
        <time>2015-03-16T09:50:15Z</time>
      </trkpt>
      <trkpt lat="47.0561" lon="-0.82086">
        <ele>150</ele>
        <time>2015-03-16T09:50:17Z</time>
      </trkpt>
      <trkpt lat="47.05612" lon="-0.82085">
        <ele>150</ele>
        <time>2015-03-16T09:50:19Z</time>
      </trkpt>
      <trkpt lat="47.05615" lon="-0.82084">
        <ele>150</ele>
        <time>2015-03-16T09:50:22Z</time>
      </trkpt>
      <trkpt lat="47.05618" lon="-0.82083">
        <ele>150</ele>
        <time>2015-03-16T09:50:24Z</time>
      </trkpt>
      <trkpt lat="47.05621" lon="-0.82081">
        <ele>150</ele>
        <time>2015-03-16T09:50:26Z</time>
      </trkpt>
      <trkpt lat="47.05623" lon="-0.8208">
        <ele>150</ele>
        <time>2015-03-16T09:50:28Z</time>
      </trkpt>
      <trkpt lat="47.05626" lon="-0.82079">
        <ele>150</ele>
        <time>2015-03-16T09:50:30Z</time>
      </trkpt>
      <trkpt lat="47.05629" lon="-0.82077">
        <ele>150</ele>
        <time>2015-03-16T09:50:32Z</time>
      </trkpt>
      <trkpt lat="47.05632" lon="-0.82076">
        <ele>150</ele>
        <time>2015-03-16T09:50:34Z</time>
      </trkpt>
      <trkpt lat="47.05634" lon="-0.82075">
        <ele>150</ele>
        <time>2015-03-16T09:50:36Z</time>
      </trkpt>
      <trkpt lat="47.05637" lon="-0.82073">
        <ele>150</ele>
        <time>2015-03-16T09:50:38Z</time>
      </trkpt>
      <trkpt lat="47.05639" lon="-0.82072">
        <ele>150</ele>
        <time>2015-03-16T09:50:40Z</time>
      </trkpt>
      <trkpt lat="47.05642" lon="-0.82071">
        <ele>150</ele>
        <time>2015-03-16T09:50:42Z</time>
      </trkpt>
      <trkpt lat="47.05644" lon="-0.82069">
        <ele>150</ele>
        <time>2015-03-16T09:50:44Z</time>
      </trkpt>
      <trkpt lat="47.05647" lon="-0.82067">
        <ele>150</ele>
        <time>2015-03-16T09:50:46Z</time>
      </trkpt>
      <trkpt lat="47.0565" lon="-0.82065">
        <ele>150</ele>
        <time>2015-03-16T09:50:49Z</time>
      </trkpt>
      <trkpt lat="47.05652" lon="-0.82064">
        <ele>150</ele>
        <time>2015-03-16T09:50:51Z</time>
      </trkpt>
      <trkpt lat="47.05655" lon="-0.82063">
        <ele>150</ele>
        <time>2015-03-16T09:50:53Z</time>
      </trkpt>
      <trkpt lat="47.05658" lon="-0.82062">
        <ele>150</ele>
        <time>2015-03-16T09:50:55Z</time>
      </trkpt>
      <trkpt lat="47.0566" lon="-0.82061">
        <ele>150</ele>
        <time>2015-03-16T09:50:57Z</time>
      </trkpt>
      <trkpt lat="47.05663" lon="-0.82059">
        <ele>150</ele>
        <time>2015-03-16T09:50:59Z</time>
      </trkpt>
      <trkpt lat="47.05667" lon="-0.82056">
        <ele>150</ele>
        <time>2015-03-16T09:51:01Z</time>
      </trkpt>
      <trkpt lat="47.05669" lon="-0.82055">
        <ele>150</ele>
        <time>2015-03-16T09:51:03Z</time>
      </trkpt>
      <trkpt lat="47.05672" lon="-0.82054">
        <ele>150</ele>
        <time>2015-03-16T09:51:05Z</time>
      </trkpt>
      <trkpt lat="47.05674" lon="-0.82052">
        <ele>150</ele>
        <time>2015-03-16T09:51:07Z</time>
      </trkpt>
      <trkpt lat="47.05677" lon="-0.8205">
        <ele>150</ele>
        <time>2015-03-16T09:51:09Z</time>
      </trkpt>
      <trkpt lat="47.05678" lon="-0.82048">
        <ele>150</ele>
        <time>2015-03-16T09:51:11Z</time>
      </trkpt>
      <trkpt lat="47.0568" lon="-0.82046">
        <ele>150</ele>
        <time>2015-03-16T09:51:13Z</time>
      </trkpt>
      <trkpt lat="47.05682" lon="-0.82044">
        <ele>150</ele>
        <time>2015-03-16T09:51:15Z</time>
      </trkpt>
      <trkpt lat="47.05685" lon="-0.82043">
        <ele>150</ele>
        <time>2015-03-16T09:51:17Z</time>
      </trkpt>
      <trkpt lat="47.05688" lon="-0.8204">
        <ele>150</ele>
        <time>2015-03-16T09:51:20Z</time>
      </trkpt>
      <trkpt lat="47.0569" lon="-0.82039">
        <ele>150</ele>
        <time>2015-03-16T09:51:22Z</time>
      </trkpt>
      <trkpt lat="47.05692" lon="-0.82038">
        <ele>150</ele>
        <time>2015-03-16T09:51:24Z</time>
      </trkpt>
      <trkpt lat="47.05693" lon="-0.82037">
        <ele>150</ele>
        <time>2015-03-16T09:51:26Z</time>
      </trkpt>
      <trkpt lat="47.05697" lon="-0.82035">
        <ele>150</ele>
        <time>2015-03-16T09:51:29Z</time>
      </trkpt>
      <trkpt lat="47.05699" lon="-0.82033">
        <ele>150</ele>
        <time>2015-03-16T09:51:31Z</time>
      </trkpt>
      <trkpt lat="47.05702" lon="-0.82031">
        <ele>150</ele>
        <time>2015-03-16T09:51:34Z</time>
      </trkpt>
      <trkpt lat="47.05704" lon="-0.82029">
        <ele>150</ele>
        <time>2015-03-16T09:51:36Z</time>
      </trkpt>
      <trkpt lat="47.05706" lon="-0.82028">
        <ele>150</ele>
        <time>2015-03-16T09:51:38Z</time>
      </trkpt>
      <trkpt lat="47.05708" lon="-0.82026">
        <ele>150</ele>
        <time>2015-03-16T09:51:40Z</time>
      </trkpt>
      <trkpt lat="47.05711" lon="-0.82025">
        <ele>150</ele>
        <time>2015-03-16T09:51:42Z</time>
      </trkpt>
      <trkpt lat="47.05713" lon="-0.82023">
        <ele>150</ele>
        <time>2015-03-16T09:51:44Z</time>
      </trkpt>
      <trkpt lat="47.05715" lon="-0.82022">
        <ele>150</ele>
        <time>2015-03-16T09:51:46Z</time>
      </trkpt>
      <trkpt lat="47.05718" lon="-0.82019">
        <ele>150</ele>
        <time>2015-03-16T09:51:50Z</time>
      </trkpt>
      <trkpt lat="47.05721" lon="-0.82017">
        <ele>150</ele>
        <time>2015-03-16T09:51:52Z</time>
      </trkpt>
      <trkpt lat="47.05723" lon="-0.82016">
        <ele>150</ele>
        <time>2015-03-16T09:51:54Z</time>
      </trkpt>
      <trkpt lat="47.05725" lon="-0.82013">
        <ele>150</ele>
        <time>2015-03-16T09:51:56Z</time>
      </trkpt>
      <trkpt lat="47.05727" lon="-0.82012">
        <ele>150</ele>
        <time>2015-03-16T09:51:58Z</time>
      </trkpt>
      <trkpt lat="47.05728" lon="-0.82011">
        <ele>150</ele>
        <time>2015-03-16T09:52:00Z</time>
      </trkpt>
      <trkpt lat="47.05731" lon="-0.82009">
        <ele>150</ele>
        <time>2015-03-16T09:52:02Z</time>
      </trkpt>
      <trkpt lat="47.05732" lon="-0.82007">
        <ele>150</ele>
        <time>2015-03-16T09:52:04Z</time>
      </trkpt>
      <trkpt lat="47.05735" lon="-0.82005">
        <ele>150</ele>
        <time>2015-03-16T09:52:06Z</time>
      </trkpt>
      <trkpt lat="47.05738" lon="-0.82004">
        <ele>150</ele>
        <time>2015-03-16T09:52:08Z</time>
      </trkpt>
      <trkpt lat="47.0574" lon="-0.82003">
        <ele>150</ele>
        <time>2015-03-16T09:52:10Z</time>
      </trkpt>
      <trkpt lat="47.05743" lon="-0.82001">
        <ele>150</ele>
        <time>2015-03-16T09:52:12Z</time>
      </trkpt>
      <trkpt lat="47.05746" lon="-0.82">
        <ele>150</ele>
        <time>2015-03-16T09:52:14Z</time>
      </trkpt>
      <trkpt lat="47.05749" lon="-0.81998">
        <ele>150</ele>
        <time>2015-03-16T09:52:16Z</time>
      </trkpt>
      <trkpt lat="47.05752" lon="-0.81997">
        <ele>150</ele>
        <time>2015-03-16T09:52:18Z</time>
      </trkpt>
      <trkpt lat="47.05754" lon="-0.81996">
        <ele>150</ele>
        <time>2015-03-16T09:52:20Z</time>
      </trkpt>
      <trkpt lat="47.05756" lon="-0.81995">
        <ele>150</ele>
        <time>2015-03-16T09:52:22Z</time>
      </trkpt>
      <trkpt lat="47.05759" lon="-0.81993">
        <ele>150</ele>
        <time>2015-03-16T09:52:24Z</time>
      </trkpt>
      <trkpt lat="47.05761" lon="-0.81992">
        <ele>149</ele>
        <time>2015-03-16T09:52:26Z</time>
      </trkpt>
      <trkpt lat="47.05764" lon="-0.8199">
        <ele>149</ele>
        <time>2015-03-16T09:52:28Z</time>
      </trkpt>
      <trkpt lat="47.05766" lon="-0.81988">
        <ele>149</ele>
        <time>2015-03-16T09:52:30Z</time>
      </trkpt>
      <trkpt lat="47.05769" lon="-0.81985">
        <ele>149</ele>
        <time>2015-03-16T09:52:33Z</time>
      </trkpt>
      <trkpt lat="47.05771" lon="-0.81983">
        <ele>149</ele>
        <time>2015-03-16T09:52:35Z</time>
      </trkpt>
      <trkpt lat="47.05774" lon="-0.81981">
        <ele>149</ele>
        <time>2015-03-16T09:52:38Z</time>
      </trkpt>
      <trkpt lat="47.05776" lon="-0.8198">
        <ele>149</ele>
        <time>2015-03-16T09:52:40Z</time>
      </trkpt>
      <trkpt lat="47.05779" lon="-0.8198">
        <ele>149</ele>
        <time>2015-03-16T09:52:42Z</time>
      </trkpt>
      <trkpt lat="47.05781" lon="-0.81979">
        <ele>149</ele>
        <time>2015-03-16T09:52:44Z</time>
      </trkpt>
      <trkpt lat="47.05784" lon="-0.81979">
        <ele>149</ele>
        <time>2015-03-16T09:52:47Z</time>
      </trkpt>
      <trkpt lat="47.05787" lon="-0.81979">
        <ele>149</ele>
        <time>2015-03-16T09:52:49Z</time>
      </trkpt>
      <trkpt lat="47.0579" lon="-0.81979">
        <ele>148</ele>
        <time>2015-03-16T09:52:51Z</time>
      </trkpt>
      <trkpt lat="47.05791" lon="-0.81979">
        <ele>148</ele>
        <time>2015-03-16T09:52:53Z</time>
      </trkpt>
      <trkpt lat="47.05795" lon="-0.8198">
        <ele>148</ele>
        <time>2015-03-16T09:52:56Z</time>
      </trkpt>
      <trkpt lat="47.05797" lon="-0.8198">
        <ele>148</ele>
        <time>2015-03-16T09:52:58Z</time>
      </trkpt>
      <trkpt lat="47.058" lon="-0.8198">
        <ele>148</ele>
        <time>2015-03-16T09:53:00Z</time>
      </trkpt>
      <trkpt lat="47.05801" lon="-0.81981">
        <ele>148</ele>
        <time>2015-03-16T09:53:02Z</time>
      </trkpt>
      <trkpt lat="47.05804" lon="-0.8198">
        <ele>147</ele>
        <time>2015-03-16T09:53:04Z</time>
      </trkpt>
      <trkpt lat="47.05808" lon="-0.8198">
        <ele>147</ele>
        <time>2015-03-16T09:53:06Z</time>
      </trkpt>
      <trkpt lat="47.05811" lon="-0.81979">
        <ele>147</ele>
        <time>2015-03-16T09:53:09Z</time>
      </trkpt>
      <trkpt lat="47.05813" lon="-0.81979">
        <ele>147</ele>
        <time>2015-03-16T09:53:11Z</time>
      </trkpt>
      <trkpt lat="47.05816" lon="-0.81979">
        <ele>147</ele>
        <time>2015-03-16T09:53:14Z</time>
      </trkpt>
      <trkpt lat="47.05819" lon="-0.81979">
        <ele>147</ele>
        <time>2015-03-16T09:53:16Z</time>
      </trkpt>
      <trkpt lat="47.05821" lon="-0.81979">
        <ele>147</ele>
        <time>2015-03-16T09:53:18Z</time>
      </trkpt>
      <trkpt lat="47.05824" lon="-0.8198">
        <ele>147</ele>
        <time>2015-03-16T09:53:21Z</time>
      </trkpt>
      <trkpt lat="47.05825" lon="-0.8198">
        <ele>147</ele>
        <time>2015-03-16T09:53:23Z</time>
      </trkpt>
      <trkpt lat="47.05828" lon="-0.81979">
        <ele>147</ele>
        <time>2015-03-16T09:53:25Z</time>
      </trkpt>
      <trkpt lat="47.05831" lon="-0.81979">
        <ele>147</ele>
        <time>2015-03-16T09:53:28Z</time>
      </trkpt>
      <trkpt lat="47.05834" lon="-0.81979">
        <ele>147</ele>
        <time>2015-03-16T09:53:30Z</time>
      </trkpt>
      <trkpt lat="47.05837" lon="-0.81979">
        <ele>147</ele>
        <time>2015-03-16T09:53:32Z</time>
      </trkpt>
      <trkpt lat="47.0584" lon="-0.81979">
        <ele>147</ele>
        <time>2015-03-16T09:53:35Z</time>
      </trkpt>
      <trkpt lat="47.05843" lon="-0.81979">
        <ele>147</ele>
        <time>2015-03-16T09:53:38Z</time>
      </trkpt>
      <trkpt lat="47.05846" lon="-0.81979">
        <ele>147</ele>
        <time>2015-03-16T09:53:40Z</time>
      </trkpt>
      <trkpt lat="47.05851" lon="-0.81978">
        <ele>147</ele>
        <time>2015-03-16T09:53:42Z</time>
      </trkpt>
      <trkpt lat="47.05854" lon="-0.81979">
        <ele>147</ele>
        <time>2015-03-16T09:53:44Z</time>
      </trkpt>
      <trkpt lat="47.05857" lon="-0.81979">
        <ele>147</ele>
        <time>2015-03-16T09:53:46Z</time>
      </trkpt>
      <trkpt lat="47.0586" lon="-0.8198">
        <ele>147</ele>
        <time>2015-03-16T09:53:48Z</time>
      </trkpt>
      <trkpt lat="47.05862" lon="-0.8198">
        <ele>147</ele>
        <time>2015-03-16T09:53:50Z</time>
      </trkpt>
      <trkpt lat="47.05864" lon="-0.81979">
        <ele>147</ele>
        <time>2015-03-16T09:53:52Z</time>
      </trkpt>
      <trkpt lat="47.05867" lon="-0.81979">
        <ele>147</ele>
        <time>2015-03-16T09:53:54Z</time>
      </trkpt>
      <trkpt lat="47.05871" lon="-0.81979">
        <ele>147</ele>
        <time>2015-03-16T09:53:57Z</time>
      </trkpt>
      <trkpt lat="47.05872" lon="-0.81979">
        <ele>147</ele>
        <time>2015-03-16T09:53:59Z</time>
      </trkpt>
      <trkpt lat="47.05875" lon="-0.81979">
        <ele>147</ele>
        <time>2015-03-16T09:54:01Z</time>
      </trkpt>
      <trkpt lat="47.05877" lon="-0.8198">
        <ele>147</ele>
        <time>2015-03-16T09:54:03Z</time>
      </trkpt>
      <trkpt lat="47.05879" lon="-0.8198">
        <ele>147</ele>
        <time>2015-03-16T09:54:05Z</time>
      </trkpt>
      <trkpt lat="47.05882" lon="-0.8198">
        <ele>147</ele>
        <time>2015-03-16T09:54:07Z</time>
      </trkpt>
      <trkpt lat="47.05885" lon="-0.8198">
        <ele>147</ele>
        <time>2015-03-16T09:54:10Z</time>
      </trkpt>
      <trkpt lat="47.05887" lon="-0.8198">
        <ele>147</ele>
        <time>2015-03-16T09:54:12Z</time>
      </trkpt>
      <trkpt lat="47.05889" lon="-0.8198">
        <ele>147</ele>
        <time>2015-03-16T09:54:14Z</time>
      </trkpt>
      <trkpt lat="47.05892" lon="-0.8198">
        <ele>147</ele>
        <time>2015-03-16T09:54:16Z</time>
      </trkpt>
      <trkpt lat="47.05895" lon="-0.8198">
        <ele>147</ele>
        <time>2015-03-16T09:54:18Z</time>
      </trkpt>
      <trkpt lat="47.05897" lon="-0.8198">
        <ele>147</ele>
        <time>2015-03-16T09:54:20Z</time>
      </trkpt>
      <trkpt lat="47.05899" lon="-0.81981">
        <ele>147</ele>
        <time>2015-03-16T09:54:22Z</time>
      </trkpt>
      <trkpt lat="47.05901" lon="-0.81981">
        <ele>147</ele>
        <time>2015-03-16T09:54:24Z</time>
      </trkpt>
      <trkpt lat="47.05904" lon="-0.81982">
        <ele>147</ele>
        <time>2015-03-16T09:54:27Z</time>
      </trkpt>
      <trkpt lat="47.05907" lon="-0.81982">
        <ele>147</ele>
        <time>2015-03-16T09:54:29Z</time>
      </trkpt>
      <trkpt lat="47.05909" lon="-0.81982">
        <ele>147</ele>
        <time>2015-03-16T09:54:31Z</time>
      </trkpt>
      <trkpt lat="47.05913" lon="-0.81982">
        <ele>147</ele>
        <time>2015-03-16T09:54:34Z</time>
      </trkpt>
      <trkpt lat="47.05916" lon="-0.81982">
        <ele>147</ele>
        <time>2015-03-16T09:54:37Z</time>
      </trkpt>
      <trkpt lat="47.0592" lon="-0.81981">
        <ele>147</ele>
        <time>2015-03-16T09:54:39Z</time>
      </trkpt>
      <trkpt lat="47.05922" lon="-0.81982">
        <ele>147</ele>
        <time>2015-03-16T09:54:41Z</time>
      </trkpt>
      <trkpt lat="47.05924" lon="-0.81982">
        <ele>147</ele>
        <time>2015-03-16T09:54:43Z</time>
      </trkpt>
      <trkpt lat="47.05926" lon="-0.81981">
        <ele>147</ele>
        <time>2015-03-16T09:54:45Z</time>
      </trkpt>
      <trkpt lat="47.05928" lon="-0.8198">
        <ele>147</ele>
        <time>2015-03-16T09:54:47Z</time>
      </trkpt>
      <trkpt lat="47.0593" lon="-0.8198">
        <ele>147</ele>
        <time>2015-03-16T09:54:49Z</time>
      </trkpt>
      <trkpt lat="47.05934" lon="-0.81979">
        <ele>147</ele>
        <time>2015-03-16T09:54:51Z</time>
      </trkpt>
      <trkpt lat="47.05937" lon="-0.81977">
        <ele>147</ele>
        <time>2015-03-16T09:54:53Z</time>
      </trkpt>
      <trkpt lat="47.0594" lon="-0.81976">
        <ele>147</ele>
        <time>2015-03-16T09:54:55Z</time>
      </trkpt>
      <trkpt lat="47.05941" lon="-0.81977">
        <ele>147</ele>
        <time>2015-03-16T09:54:57Z</time>
      </trkpt>
      <trkpt lat="47.05944" lon="-0.81977">
        <ele>147</ele>
        <time>2015-03-16T09:55:00Z</time>
      </trkpt>
      <trkpt lat="47.05946" lon="-0.81978">
        <ele>147</ele>
        <time>2015-03-16T09:55:13Z</time>
      </trkpt>
      <trkpt lat="47.05945" lon="-0.81981">
        <ele>147</ele>
        <time>2015-03-16T09:55:15Z</time>
      </trkpt>
      <trkpt lat="47.05945" lon="-0.81984">
        <ele>147</ele>
        <time>2015-03-16T09:55:17Z</time>
      </trkpt>
      <trkpt lat="47.05944" lon="-0.81987">
        <ele>147</ele>
        <time>2015-03-16T09:55:19Z</time>
      </trkpt>
      <trkpt lat="47.05943" lon="-0.81991">
        <ele>147</ele>
        <time>2015-03-16T09:55:22Z</time>
      </trkpt>
      <trkpt lat="47.05942" lon="-0.81994">
        <ele>147</ele>
        <time>2015-03-16T09:55:24Z</time>
      </trkpt>
      <trkpt lat="47.05942" lon="-0.81998">
        <ele>147</ele>
        <time>2015-03-16T09:55:26Z</time>
      </trkpt>
      <trkpt lat="47.05941" lon="-0.82">
        <ele>147</ele>
        <time>2015-03-16T09:55:28Z</time>
      </trkpt>
      <trkpt lat="47.05941" lon="-0.82003">
        <ele>147</ele>
        <time>2015-03-16T09:55:30Z</time>
      </trkpt>
      <trkpt lat="47.05939" lon="-0.82007">
        <ele>147</ele>
        <time>2015-03-16T09:55:32Z</time>
      </trkpt>
      <trkpt lat="47.05938" lon="-0.82011">
        <ele>147</ele>
        <time>2015-03-16T09:55:35Z</time>
      </trkpt>
      <trkpt lat="47.05937" lon="-0.82013">
        <ele>147</ele>
        <time>2015-03-16T09:55:37Z</time>
      </trkpt>
      <trkpt lat="47.05936" lon="-0.82016">
        <ele>147</ele>
        <time>2015-03-16T09:55:39Z</time>
      </trkpt>
      <trkpt lat="47.05935" lon="-0.8202">
        <ele>147</ele>
        <time>2015-03-16T09:55:42Z</time>
      </trkpt>
      <trkpt lat="47.05935" lon="-0.82023">
        <ele>147</ele>
        <time>2015-03-16T09:55:44Z</time>
      </trkpt>
      <trkpt lat="47.05935" lon="-0.82026">
        <ele>147</ele>
        <time>2015-03-16T09:55:46Z</time>
      </trkpt>
      <trkpt lat="47.05934" lon="-0.82029">
        <ele>147</ele>
        <time>2015-03-16T09:55:48Z</time>
      </trkpt>
      <trkpt lat="47.05933" lon="-0.82033">
        <ele>147</ele>
        <time>2015-03-16T09:55:50Z</time>
      </trkpt>
      <trkpt lat="47.05932" lon="-0.82036">
        <ele>147</ele>
        <time>2015-03-16T09:55:52Z</time>
      </trkpt>
      <trkpt lat="47.05931" lon="-0.82039">
        <ele>147</ele>
        <time>2015-03-16T09:55:54Z</time>
      </trkpt>
      <trkpt lat="47.0593" lon="-0.82042">
        <ele>148</ele>
        <time>2015-03-16T09:55:56Z</time>
      </trkpt>
      <trkpt lat="47.05929" lon="-0.82046">
        <ele>149</ele>
        <time>2015-03-16T09:55:58Z</time>
      </trkpt>
      <trkpt lat="47.05928" lon="-0.8205">
        <ele>151</ele>
        <time>2015-03-16T09:56:00Z</time>
      </trkpt>
      <trkpt lat="47.05927" lon="-0.82052">
        <ele>152</ele>
        <time>2015-03-16T09:56:02Z</time>
      </trkpt>
      <trkpt lat="47.05926" lon="-0.82056">
        <ele>152</ele>
        <time>2015-03-16T09:56:04Z</time>
      </trkpt>
      <trkpt lat="47.05925" lon="-0.82059">
        <ele>153</ele>
        <time>2015-03-16T09:56:06Z</time>
      </trkpt>
      <trkpt lat="47.05925" lon="-0.82062">
        <ele>154</ele>
        <time>2015-03-16T09:56:08Z</time>
      </trkpt>
      <trkpt lat="47.05924" lon="-0.82067">
        <ele>155</ele>
        <time>2015-03-16T09:56:11Z</time>
      </trkpt>
      <trkpt lat="47.05923" lon="-0.8207">
        <ele>156</ele>
        <time>2015-03-16T09:56:13Z</time>
      </trkpt>
      <trkpt lat="47.05922" lon="-0.82073">
        <ele>156</ele>
        <time>2015-03-16T09:56:15Z</time>
      </trkpt>
      <trkpt lat="47.05921" lon="-0.82076">
        <ele>157</ele>
        <time>2015-03-16T09:56:17Z</time>
      </trkpt>
      <trkpt lat="47.0592" lon="-0.82079">
        <ele>158</ele>
        <time>2015-03-16T09:56:19Z</time>
      </trkpt>
      <trkpt lat="47.05918" lon="-0.82082">
        <ele>158</ele>
        <time>2015-03-16T09:56:21Z</time>
      </trkpt>
      <trkpt lat="47.05917" lon="-0.82085">
        <ele>159</ele>
        <time>2015-03-16T09:56:23Z</time>
      </trkpt>
      <trkpt lat="47.05916" lon="-0.82088">
        <ele>160</ele>
        <time>2015-03-16T09:56:25Z</time>
      </trkpt>
      <trkpt lat="47.05915" lon="-0.82091">
        <ele>161</ele>
        <time>2015-03-16T09:56:27Z</time>
      </trkpt>
      <trkpt lat="47.05915" lon="-0.82095">
        <ele>162</ele>
        <time>2015-03-16T09:56:29Z</time>
      </trkpt>
      <trkpt lat="47.05914" lon="-0.82098">
        <ele>162</ele>
        <time>2015-03-16T09:56:31Z</time>
      </trkpt>
      <trkpt lat="47.05914" lon="-0.82101">
        <ele>162</ele>
        <time>2015-03-16T09:56:33Z</time>
      </trkpt>
      <trkpt lat="47.05914" lon="-0.82104">
        <ele>163</ele>
        <time>2015-03-16T09:56:35Z</time>
      </trkpt>
      <trkpt lat="47.05912" lon="-0.82108">
        <ele>163</ele>
        <time>2015-03-16T09:56:38Z</time>
      </trkpt>
      <trkpt lat="47.05912" lon="-0.82112">
        <ele>163</ele>
        <time>2015-03-16T09:56:40Z</time>
      </trkpt>
      <trkpt lat="47.05911" lon="-0.82114">
        <ele>164</ele>
        <time>2015-03-16T09:56:42Z</time>
      </trkpt>
      <trkpt lat="47.0591" lon="-0.82117">
        <ele>164</ele>
        <time>2015-03-16T09:56:44Z</time>
      </trkpt>
      <trkpt lat="47.0591" lon="-0.82121">
        <ele>165</ele>
        <time>2015-03-16T09:56:46Z</time>
      </trkpt>
      <trkpt lat="47.0591" lon="-0.82124">
        <ele>165</ele>
        <time>2015-03-16T09:56:48Z</time>
      </trkpt>
      <trkpt lat="47.05909" lon="-0.82128">
        <ele>165</ele>
        <time>2015-03-16T09:56:50Z</time>
      </trkpt>
      <trkpt lat="47.05909" lon="-0.82131">
        <ele>165</ele>
        <time>2015-03-16T09:56:52Z</time>
      </trkpt>
      <trkpt lat="47.05907" lon="-0.82135">
        <ele>165</ele>
        <time>2015-03-16T09:56:55Z</time>
      </trkpt>
      <trkpt lat="47.05906" lon="-0.82138">
        <ele>165</ele>
        <time>2015-03-16T09:56:57Z</time>
      </trkpt>
      <trkpt lat="47.05904" lon="-0.82141">
        <ele>165</ele>
        <time>2015-03-16T09:56:59Z</time>
      </trkpt>
      <trkpt lat="47.05902" lon="-0.82144">
        <ele>165</ele>
        <time>2015-03-16T09:57:02Z</time>
      </trkpt>
      <trkpt lat="47.05901" lon="-0.82148">
        <ele>165</ele>
        <time>2015-03-16T09:57:04Z</time>
      </trkpt>
      <trkpt lat="47.059" lon="-0.82152">
        <ele>165</ele>
        <time>2015-03-16T09:57:06Z</time>
      </trkpt>
      <trkpt lat="47.05899" lon="-0.82155">
        <ele>165</ele>
        <time>2015-03-16T09:57:08Z</time>
      </trkpt>
      <trkpt lat="47.05896" lon="-0.82159">
        <ele>165</ele>
        <time>2015-03-16T09:57:11Z</time>
      </trkpt>
      <trkpt lat="47.05894" lon="-0.82164">
        <ele>165</ele>
        <time>2015-03-16T09:57:14Z</time>
      </trkpt>
      <trkpt lat="47.05893" lon="-0.82167">
        <ele>165</ele>
        <time>2015-03-16T09:57:16Z</time>
      </trkpt>
      <trkpt lat="47.05893" lon="-0.8217">
        <ele>165</ele>
        <time>2015-03-16T09:57:18Z</time>
      </trkpt>
      <trkpt lat="47.05894" lon="-0.82175">
        <ele>165</ele>
        <time>2015-03-16T09:57:20Z</time>
      </trkpt>
      <trkpt lat="47.05895" lon="-0.82179">
        <ele>165</ele>
        <time>2015-03-16T09:57:22Z</time>
      </trkpt>
      <trkpt lat="47.05897" lon="-0.82183">
        <ele>163</ele>
        <time>2015-03-16T09:57:24Z</time>
      </trkpt>
      <trkpt lat="47.05898" lon="-0.82187">
        <ele>162</ele>
        <time>2015-03-16T09:57:26Z</time>
      </trkpt>
      <trkpt lat="47.05897" lon="-0.82189">
        <ele>161</ele>
        <time>2015-03-16T09:57:28Z</time>
      </trkpt>
      <trkpt lat="47.05896" lon="-0.82192">
        <ele>160</ele>
        <time>2015-03-16T09:57:30Z</time>
      </trkpt>
      <trkpt lat="47.05895" lon="-0.82197">
        <ele>160</ele>
        <time>2015-03-16T09:57:33Z</time>
      </trkpt>
      <trkpt lat="47.05894" lon="-0.822">
        <ele>160</ele>
        <time>2015-03-16T09:57:35Z</time>
      </trkpt>
      <trkpt lat="47.05893" lon="-0.82203">
        <ele>160</ele>
        <time>2015-03-16T09:57:37Z</time>
      </trkpt>
      <trkpt lat="47.05892" lon="-0.82206">
        <ele>160</ele>
        <time>2015-03-16T09:57:39Z</time>
      </trkpt>
      <trkpt lat="47.05891" lon="-0.8221">
        <ele>160</ele>
        <time>2015-03-16T09:57:41Z</time>
      </trkpt>
      <trkpt lat="47.0589" lon="-0.82214">
        <ele>160</ele>
        <time>2015-03-16T09:57:43Z</time>
      </trkpt>
      <trkpt lat="47.0589" lon="-0.82217">
        <ele>160</ele>
        <time>2015-03-16T09:57:45Z</time>
      </trkpt>
      <trkpt lat="47.05889" lon="-0.82221">
        <ele>160</ele>
        <time>2015-03-16T09:57:47Z</time>
      </trkpt>
      <trkpt lat="47.05888" lon="-0.82224">
        <ele>160</ele>
        <time>2015-03-16T09:57:49Z</time>
      </trkpt>
      <trkpt lat="47.05887" lon="-0.82227">
        <ele>160</ele>
        <time>2015-03-16T09:57:51Z</time>
      </trkpt>
      <trkpt lat="47.05886" lon="-0.8223">
        <ele>160</ele>
        <time>2015-03-16T09:57:53Z</time>
      </trkpt>
      <trkpt lat="47.05885" lon="-0.82234">
        <ele>160</ele>
        <time>2015-03-16T09:57:56Z</time>
      </trkpt>
      <trkpt lat="47.05884" lon="-0.82238">
        <ele>160</ele>
        <time>2015-03-16T09:57:58Z</time>
      </trkpt>
      <trkpt lat="47.05883" lon="-0.82241">
        <ele>160</ele>
        <time>2015-03-16T09:58:00Z</time>
      </trkpt>
      <trkpt lat="47.05883" lon="-0.82245">
        <ele>160</ele>
        <time>2015-03-16T09:58:02Z</time>
      </trkpt>
      <trkpt lat="47.05883" lon="-0.82249">
        <ele>160</ele>
        <time>2015-03-16T09:58:04Z</time>
      </trkpt>
      <trkpt lat="47.05881" lon="-0.82253">
        <ele>160</ele>
        <time>2015-03-16T09:58:06Z</time>
      </trkpt>
      <trkpt lat="47.0588" lon="-0.82256">
        <ele>160</ele>
        <time>2015-03-16T09:58:08Z</time>
      </trkpt>
      <trkpt lat="47.05878" lon="-0.82259">
        <ele>160</ele>
        <time>2015-03-16T09:58:10Z</time>
      </trkpt>
      <trkpt lat="47.05876" lon="-0.82263">
        <ele>160</ele>
        <time>2015-03-16T09:58:13Z</time>
      </trkpt>
      <trkpt lat="47.05875" lon="-0.82266">
        <ele>160</ele>
        <time>2015-03-16T09:58:15Z</time>
      </trkpt>
      <trkpt lat="47.05873" lon="-0.82268">
        <ele>160</ele>
        <time>2015-03-16T09:58:17Z</time>
      </trkpt>
      <trkpt lat="47.05872" lon="-0.82271">
        <ele>160</ele>
        <time>2015-03-16T09:58:19Z</time>
      </trkpt>
      <trkpt lat="47.0587" lon="-0.82274">
        <ele>160</ele>
        <time>2015-03-16T09:58:21Z</time>
      </trkpt>
      <trkpt lat="47.0587" lon="-0.82278">
        <ele>160</ele>
        <time>2015-03-16T09:58:23Z</time>
      </trkpt>
      <trkpt lat="47.05871" lon="-0.82282">
        <ele>160</ele>
        <time>2015-03-16T09:58:25Z</time>
      </trkpt>
      <trkpt lat="47.05871" lon="-0.82285">
        <ele>160</ele>
        <time>2015-03-16T09:58:27Z</time>
      </trkpt>
      <trkpt lat="47.05871" lon="-0.82288">
        <ele>160</ele>
        <time>2015-03-16T09:58:29Z</time>
      </trkpt>
      <trkpt lat="47.0587" lon="-0.82292">
        <ele>160</ele>
        <time>2015-03-16T09:58:31Z</time>
      </trkpt>
      <trkpt lat="47.05869" lon="-0.82295">
        <ele>160</ele>
        <time>2015-03-16T09:58:33Z</time>
      </trkpt>
      <trkpt lat="47.05868" lon="-0.82299">
        <ele>160</ele>
        <time>2015-03-16T09:58:35Z</time>
      </trkpt>
      <trkpt lat="47.05867" lon="-0.82303">
        <ele>160</ele>
        <time>2015-03-16T09:58:37Z</time>
      </trkpt>
      <trkpt lat="47.05866" lon="-0.82306">
        <ele>160</ele>
        <time>2015-03-16T09:58:39Z</time>
      </trkpt>
      <trkpt lat="47.05863" lon="-0.8231">
        <ele>159</ele>
        <time>2015-03-16T09:58:42Z</time>
      </trkpt>
      <trkpt lat="47.05862" lon="-0.82313">
        <ele>159</ele>
        <time>2015-03-16T09:58:44Z</time>
      </trkpt>
      <trkpt lat="47.05859" lon="-0.82318">
        <ele>159</ele>
        <time>2015-03-16T09:58:47Z</time>
      </trkpt>
      <trkpt lat="47.05859" lon="-0.82322">
        <ele>158</ele>
        <time>2015-03-16T09:58:49Z</time>
      </trkpt>
      <trkpt lat="47.05858" lon="-0.82326">
        <ele>158</ele>
        <time>2015-03-16T09:58:51Z</time>
      </trkpt>
      <trkpt lat="47.05858" lon="-0.8233">
        <ele>157</ele>
        <time>2015-03-16T09:58:54Z</time>
      </trkpt>
      <trkpt lat="47.05857" lon="-0.82333">
        <ele>156</ele>
        <time>2015-03-16T09:58:56Z</time>
      </trkpt>
      <trkpt lat="47.05857" lon="-0.82337">
        <ele>156</ele>
        <time>2015-03-16T09:58:59Z</time>
      </trkpt>
      <trkpt lat="47.05856" lon="-0.8234">
        <ele>155</ele>
        <time>2015-03-16T09:59:01Z</time>
      </trkpt>
      <trkpt lat="47.05856" lon="-0.82344">
        <ele>155</ele>
        <time>2015-03-16T09:59:03Z</time>
      </trkpt>
      <trkpt lat="47.05856" lon="-0.82348">
        <ele>155</ele>
        <time>2015-03-16T09:59:05Z</time>
      </trkpt>
      <trkpt lat="47.05856" lon="-0.8235">
        <ele>155</ele>
        <time>2015-03-16T09:59:07Z</time>
      </trkpt>
      <trkpt lat="47.05856" lon="-0.82354">
        <ele>155</ele>
        <time>2015-03-16T09:59:09Z</time>
      </trkpt>
      <trkpt lat="47.05855" lon="-0.82358">
        <ele>155</ele>
        <time>2015-03-16T09:59:11Z</time>
      </trkpt>
      <trkpt lat="47.05855" lon="-0.82361">
        <ele>155</ele>
        <time>2015-03-16T09:59:13Z</time>
      </trkpt>
      <trkpt lat="47.05854" lon="-0.82364">
        <ele>155</ele>
        <time>2015-03-16T09:59:15Z</time>
      </trkpt>
      <trkpt lat="47.05853" lon="-0.82367">
        <ele>155</ele>
        <time>2015-03-16T09:59:17Z</time>
      </trkpt>
      <trkpt lat="47.05851" lon="-0.82372">
        <ele>155</ele>
        <time>2015-03-16T09:59:20Z</time>
      </trkpt>
      <trkpt lat="47.05849" lon="-0.82375">
        <ele>155</ele>
        <time>2015-03-16T09:59:22Z</time>
      </trkpt>
      <trkpt lat="47.05848" lon="-0.8238">
        <ele>155</ele>
        <time>2015-03-16T09:59:24Z</time>
      </trkpt>
      <trkpt lat="47.05848" lon="-0.82383">
        <ele>155</ele>
        <time>2015-03-16T09:59:26Z</time>
      </trkpt>
      <trkpt lat="47.05847" lon="-0.82386">
        <ele>155</ele>
        <time>2015-03-16T09:59:28Z</time>
      </trkpt>
      <trkpt lat="47.05846" lon="-0.8239">
        <ele>155</ele>
        <time>2015-03-16T09:59:30Z</time>
      </trkpt>
      <trkpt lat="47.05844" lon="-0.82393">
        <ele>155</ele>
        <time>2015-03-16T09:59:33Z</time>
      </trkpt>
      <trkpt lat="47.05843" lon="-0.82397">
        <ele>155</ele>
        <time>2015-03-16T09:59:35Z</time>
      </trkpt>
      <trkpt lat="47.05842" lon="-0.824">
        <ele>155</ele>
        <time>2015-03-16T09:59:37Z</time>
      </trkpt>
      <trkpt lat="47.05841" lon="-0.82403">
        <ele>155</ele>
        <time>2015-03-16T09:59:39Z</time>
      </trkpt>
      <trkpt lat="47.05839" lon="-0.82408">
        <ele>155</ele>
        <time>2015-03-16T09:59:42Z</time>
      </trkpt>
      <trkpt lat="47.05838" lon="-0.82411">
        <ele>155</ele>
        <time>2015-03-16T09:59:44Z</time>
      </trkpt>
      <trkpt lat="47.05837" lon="-0.82414">
        <ele>155</ele>
        <time>2015-03-16T09:59:46Z</time>
      </trkpt>
      <trkpt lat="47.05835" lon="-0.82416">
        <ele>155</ele>
        <time>2015-03-16T09:59:48Z</time>
      </trkpt>
      <trkpt lat="47.05835" lon="-0.82419">
        <ele>155</ele>
        <time>2015-03-16T09:59:50Z</time>
      </trkpt>
      <trkpt lat="47.05834" lon="-0.82423">
        <ele>155</ele>
        <time>2015-03-16T09:59:52Z</time>
      </trkpt>
      <trkpt lat="47.05834" lon="-0.82427">
        <ele>155</ele>
        <time>2015-03-16T09:59:54Z</time>
      </trkpt>
      <trkpt lat="47.05834" lon="-0.8243">
        <ele>155</ele>
        <time>2015-03-16T09:59:56Z</time>
      </trkpt>
      <trkpt lat="47.05833" lon="-0.82433">
        <ele>155</ele>
        <time>2015-03-16T09:59:58Z</time>
      </trkpt>
      <trkpt lat="47.05833" lon="-0.82437">
        <ele>155</ele>
        <time>2015-03-16T10:00:00Z</time>
      </trkpt>
      <trkpt lat="47.05832" lon="-0.82442">
        <ele>155</ele>
        <time>2015-03-16T10:00:03Z</time>
      </trkpt>
      <trkpt lat="47.05831" lon="-0.82446">
        <ele>155</ele>
        <time>2015-03-16T10:00:05Z</time>
      </trkpt>
      <trkpt lat="47.0583" lon="-0.82448">
        <ele>155</ele>
        <time>2015-03-16T10:00:07Z</time>
      </trkpt>
      <trkpt lat="47.05829" lon="-0.82451">
        <ele>155</ele>
        <time>2015-03-16T10:00:09Z</time>
      </trkpt>
      <trkpt lat="47.05827" lon="-0.82455">
        <ele>155</ele>
        <time>2015-03-16T10:00:11Z</time>
      </trkpt>
      <trkpt lat="47.05826" lon="-0.82459">
        <ele>155</ele>
        <time>2015-03-16T10:00:13Z</time>
      </trkpt>
      <trkpt lat="47.05825" lon="-0.82461">
        <ele>155</ele>
        <time>2015-03-16T10:00:15Z</time>
      </trkpt>
      <trkpt lat="47.05825" lon="-0.82464">
        <ele>155</ele>
        <time>2015-03-16T10:00:17Z</time>
      </trkpt>
      <trkpt lat="47.05824" lon="-0.82467">
        <ele>155</ele>
        <time>2015-03-16T10:00:19Z</time>
      </trkpt>
      <trkpt lat="47.05824" lon="-0.82469">
        <ele>155</ele>
        <time>2015-03-16T10:00:21Z</time>
      </trkpt>
      <trkpt lat="47.05824" lon="-0.82472">
        <ele>155</ele>
        <time>2015-03-16T10:00:23Z</time>
      </trkpt>
      <trkpt lat="47.05823" lon="-0.82477">
        <ele>155</ele>
        <time>2015-03-16T10:00:26Z</time>
      </trkpt>
      <trkpt lat="47.05823" lon="-0.8248">
        <ele>155</ele>
        <time>2015-03-16T10:00:28Z</time>
      </trkpt>
      <trkpt lat="47.05822" lon="-0.82484">
        <ele>155</ele>
        <time>2015-03-16T10:00:30Z</time>
      </trkpt>
      <trkpt lat="47.05822" lon="-0.82488">
        <ele>155</ele>
        <time>2015-03-16T10:00:32Z</time>
      </trkpt>
      <trkpt lat="47.05822" lon="-0.82491">
        <ele>155</ele>
        <time>2015-03-16T10:00:34Z</time>
      </trkpt>
      <trkpt lat="47.0582" lon="-0.82495">
        <ele>155</ele>
        <time>2015-03-16T10:00:36Z</time>
      </trkpt>
      <trkpt lat="47.05819" lon="-0.82499">
        <ele>155</ele>
        <time>2015-03-16T10:00:38Z</time>
      </trkpt>
      <trkpt lat="47.05818" lon="-0.82503">
        <ele>155</ele>
        <time>2015-03-16T10:00:40Z</time>
      </trkpt>
      <trkpt lat="47.05817" lon="-0.82506">
        <ele>156</ele>
        <time>2015-03-16T10:00:42Z</time>
      </trkpt>
      <trkpt lat="47.05817" lon="-0.8251">
        <ele>156</ele>
        <time>2015-03-16T10:00:44Z</time>
      </trkpt>
      <trkpt lat="47.05815" lon="-0.82514">
        <ele>156</ele>
        <time>2015-03-16T10:00:47Z</time>
      </trkpt>
      <trkpt lat="47.05814" lon="-0.82517">
        <ele>156</ele>
        <time>2015-03-16T10:00:49Z</time>
      </trkpt>
      <trkpt lat="47.05813" lon="-0.82522">
        <ele>157</ele>
        <time>2015-03-16T10:00:52Z</time>
      </trkpt>
      <trkpt lat="47.05812" lon="-0.82525">
        <ele>157</ele>
        <time>2015-03-16T10:00:54Z</time>
      </trkpt>
      <trkpt lat="47.05811" lon="-0.82528">
        <ele>157</ele>
        <time>2015-03-16T10:00:56Z</time>
      </trkpt>
      <trkpt lat="47.0581" lon="-0.82531">
        <ele>157</ele>
        <time>2015-03-16T10:00:58Z</time>
      </trkpt>
      <trkpt lat="47.05809" lon="-0.82535">
        <ele>157</ele>
        <time>2015-03-16T10:01:00Z</time>
      </trkpt>
      <trkpt lat="47.05808" lon="-0.82538">
        <ele>157</ele>
        <time>2015-03-16T10:01:02Z</time>
      </trkpt>
      <trkpt lat="47.05807" lon="-0.82542">
        <ele>157</ele>
        <time>2015-03-16T10:01:04Z</time>
      </trkpt>
      <trkpt lat="47.05806" lon="-0.82546">
        <ele>158</ele>
        <time>2015-03-16T10:01:06Z</time>
      </trkpt>
      <trkpt lat="47.05804" lon="-0.82549">
        <ele>158</ele>
        <time>2015-03-16T10:01:08Z</time>
      </trkpt>
      <trkpt lat="47.05804" lon="-0.82552">
        <ele>158</ele>
        <time>2015-03-16T10:01:10Z</time>
      </trkpt>
      <trkpt lat="47.05803" lon="-0.82555">
        <ele>159</ele>
        <time>2015-03-16T10:01:12Z</time>
      </trkpt>
      <trkpt lat="47.05802" lon="-0.82558">
        <ele>159</ele>
        <time>2015-03-16T10:01:14Z</time>
      </trkpt>
      <trkpt lat="47.05801" lon="-0.82561">
        <ele>159</ele>
        <time>2015-03-16T10:01:16Z</time>
      </trkpt>
      <trkpt lat="47.058" lon="-0.82564">
        <ele>159</ele>
        <time>2015-03-16T10:01:18Z</time>
      </trkpt>
      <trkpt lat="47.05799" lon="-0.82569">
        <ele>159</ele>
        <time>2015-03-16T10:01:21Z</time>
      </trkpt>
      <trkpt lat="47.05798" lon="-0.82572">
        <ele>159</ele>
        <time>2015-03-16T10:01:23Z</time>
      </trkpt>
      <trkpt lat="47.05798" lon="-0.82576">
        <ele>159</ele>
        <time>2015-03-16T10:01:25Z</time>
      </trkpt>
      <trkpt lat="47.05797" lon="-0.82579">
        <ele>159</ele>
        <time>2015-03-16T10:01:27Z</time>
      </trkpt>
      <trkpt lat="47.05796" lon="-0.82583">
        <ele>159</ele>
        <time>2015-03-16T10:01:29Z</time>
      </trkpt>
      <trkpt lat="47.05796" lon="-0.82587">
        <ele>159</ele>
        <time>2015-03-16T10:01:31Z</time>
      </trkpt>
      <trkpt lat="47.05795" lon="-0.8259">
        <ele>159</ele>
        <time>2015-03-16T10:01:33Z</time>
      </trkpt>
      <trkpt lat="47.05794" lon="-0.82594">
        <ele>159</ele>
        <time>2015-03-16T10:01:35Z</time>
      </trkpt>
      <trkpt lat="47.05793" lon="-0.82597">
        <ele>159</ele>
        <time>2015-03-16T10:01:37Z</time>
      </trkpt>
      <trkpt lat="47.05792" lon="-0.826">
        <ele>159</ele>
        <time>2015-03-16T10:01:39Z</time>
      </trkpt>
      <trkpt lat="47.0579" lon="-0.82604">
        <ele>159</ele>
        <time>2015-03-16T10:01:42Z</time>
      </trkpt>
      <trkpt lat="47.05788" lon="-0.82607">
        <ele>159</ele>
        <time>2015-03-16T10:01:44Z</time>
      </trkpt>
      <trkpt lat="47.05787" lon="-0.82611">
        <ele>159</ele>
        <time>2015-03-16T10:01:46Z</time>
      </trkpt>
      <trkpt lat="47.05786" lon="-0.82614">
        <ele>159</ele>
        <time>2015-03-16T10:01:48Z</time>
      </trkpt>
      <trkpt lat="47.05786" lon="-0.82618">
        <ele>159</ele>
        <time>2015-03-16T10:01:50Z</time>
      </trkpt>
      <trkpt lat="47.05785" lon="-0.82621">
        <ele>159</ele>
        <time>2015-03-16T10:01:52Z</time>
      </trkpt>
      <trkpt lat="47.05785" lon="-0.82625">
        <ele>159</ele>
        <time>2015-03-16T10:01:54Z</time>
      </trkpt>
      <trkpt lat="47.05785" lon="-0.82628">
        <ele>159</ele>
        <time>2015-03-16T10:01:56Z</time>
      </trkpt>
      <trkpt lat="47.05784" lon="-0.82632">
        <ele>159</ele>
        <time>2015-03-16T10:01:58Z</time>
      </trkpt>
      <trkpt lat="47.05782" lon="-0.82636">
        <ele>159</ele>
        <time>2015-03-16T10:02:00Z</time>
      </trkpt>
      <trkpt lat="47.05782" lon="-0.8264">
        <ele>159</ele>
        <time>2015-03-16T10:02:02Z</time>
      </trkpt>
      <trkpt lat="47.05781" lon="-0.82644">
        <ele>159</ele>
        <time>2015-03-16T10:02:04Z</time>
      </trkpt>
      <trkpt lat="47.0578" lon="-0.82647">
        <ele>159</ele>
        <time>2015-03-16T10:02:06Z</time>
      </trkpt>
      <trkpt lat="47.0578" lon="-0.82651">
        <ele>159</ele>
        <time>2015-03-16T10:02:08Z</time>
      </trkpt>
      <trkpt lat="47.05779" lon="-0.82655">
        <ele>159</ele>
        <time>2015-03-16T10:02:11Z</time>
      </trkpt>
      <trkpt lat="47.05778" lon="-0.82658">
        <ele>159</ele>
        <time>2015-03-16T10:02:13Z</time>
      </trkpt>
      <trkpt lat="47.05777" lon="-0.82661">
        <ele>159</ele>
        <time>2015-03-16T10:02:15Z</time>
      </trkpt>
      <trkpt lat="47.05776" lon="-0.82665">
        <ele>159</ele>
        <time>2015-03-16T10:02:17Z</time>
      </trkpt>
      <trkpt lat="47.05775" lon="-0.82668">
        <ele>159</ele>
        <time>2015-03-16T10:02:19Z</time>
      </trkpt>
      <trkpt lat="47.05774" lon="-0.82673">
        <ele>159</ele>
        <time>2015-03-16T10:02:22Z</time>
      </trkpt>
      <trkpt lat="47.05773" lon="-0.82676">
        <ele>159</ele>
        <time>2015-03-16T10:02:24Z</time>
      </trkpt>
      <trkpt lat="47.05772" lon="-0.82679">
        <ele>159</ele>
        <time>2015-03-16T10:02:26Z</time>
      </trkpt>
      <trkpt lat="47.05771" lon="-0.82683">
        <ele>160</ele>
        <time>2015-03-16T10:02:28Z</time>
      </trkpt>
      <trkpt lat="47.0577" lon="-0.82686">
        <ele>160</ele>
        <time>2015-03-16T10:02:30Z</time>
      </trkpt>
      <trkpt lat="47.0577" lon="-0.82689">
        <ele>160</ele>
        <time>2015-03-16T10:02:32Z</time>
      </trkpt>
      <trkpt lat="47.05769" lon="-0.82692">
        <ele>160</ele>
        <time>2015-03-16T10:02:34Z</time>
      </trkpt>
      <trkpt lat="47.05767" lon="-0.82696">
        <ele>160</ele>
        <time>2015-03-16T10:02:36Z</time>
      </trkpt>
      <trkpt lat="47.05766" lon="-0.82699">
        <ele>160</ele>
        <time>2015-03-16T10:02:38Z</time>
      </trkpt>
      <trkpt lat="47.05764" lon="-0.82701">
        <ele>160</ele>
        <time>2015-03-16T10:02:40Z</time>
      </trkpt>
      <trkpt lat="47.05763" lon="-0.82704">
        <ele>160</ele>
        <time>2015-03-16T10:02:42Z</time>
      </trkpt>
      <trkpt lat="47.05761" lon="-0.82706">
        <ele>160</ele>
        <time>2015-03-16T10:02:44Z</time>
      </trkpt>
      <trkpt lat="47.05759" lon="-0.82707">
        <ele>160</ele>
        <time>2015-03-16T10:02:46Z</time>
      </trkpt>
      <trkpt lat="47.05758" lon="-0.82709">
        <ele>159</ele>
        <time>2015-03-16T10:02:48Z</time>
      </trkpt>
      <trkpt lat="47.05756" lon="-0.8271">
        <ele>158</ele>
        <time>2015-03-16T10:02:50Z</time>
      </trkpt>
      <trkpt lat="47.05753" lon="-0.82711">
        <ele>157</ele>
        <time>2015-03-16T10:02:53Z</time>
      </trkpt>
      <trkpt lat="47.0575" lon="-0.82714">
        <ele>156</ele>
        <time>2015-03-16T10:02:56Z</time>
      </trkpt>
      <trkpt lat="47.05746" lon="-0.82715">
        <ele>156</ele>
        <time>2015-03-16T10:02:59Z</time>
      </trkpt>
      <trkpt lat="47.05744" lon="-0.82716">
        <ele>155</ele>
        <time>2015-03-16T10:03:01Z</time>
      </trkpt>
      <trkpt lat="47.0574" lon="-0.82718">
        <ele>154</ele>
        <time>2015-03-16T10:03:04Z</time>
      </trkpt>
      <trkpt lat="47.05738" lon="-0.82719">
        <ele>154</ele>
        <time>2015-03-16T10:03:06Z</time>
      </trkpt>
      <trkpt lat="47.05734" lon="-0.82721">
        <ele>153</ele>
        <time>2015-03-16T10:03:09Z</time>
      </trkpt>
      <trkpt lat="47.05731" lon="-0.82721">
        <ele>153</ele>
        <time>2015-03-16T10:03:12Z</time>
      </trkpt>
      <trkpt lat="47.05728" lon="-0.82721">
        <ele>153</ele>
        <time>2015-03-16T10:03:14Z</time>
      </trkpt>
      <trkpt lat="47.05726" lon="-0.82723">
        <ele>153</ele>
        <time>2015-03-16T10:03:16Z</time>
      </trkpt>
      <trkpt lat="47.05724" lon="-0.82727">
        <ele>152</ele>
        <time>2015-03-16T10:03:19Z</time>
      </trkpt>
      <trkpt lat="47.05721" lon="-0.82729">
        <ele>152</ele>
        <time>2015-03-16T10:03:21Z</time>
      </trkpt>
      <trkpt lat="47.0572" lon="-0.82731">
        <ele>151</ele>
        <time>2015-03-16T10:03:23Z</time>
      </trkpt>
      <trkpt lat="47.05717" lon="-0.82734">
        <ele>151</ele>
        <time>2015-03-16T10:03:25Z</time>
      </trkpt>
      <trkpt lat="47.05715" lon="-0.82736">
        <ele>150</ele>
        <time>2015-03-16T10:03:27Z</time>
      </trkpt>
      <trkpt lat="47.05713" lon="-0.82738">
        <ele>150</ele>
        <time>2015-03-16T10:03:29Z</time>
      </trkpt>
      <trkpt lat="47.0571" lon="-0.82741">
        <ele>149</ele>
        <time>2015-03-16T10:03:32Z</time>
      </trkpt>
      <trkpt lat="47.05708" lon="-0.82742">
        <ele>149</ele>
        <time>2015-03-16T10:03:34Z</time>
      </trkpt>
      <trkpt lat="47.05706" lon="-0.82743">
        <ele>149</ele>
        <time>2015-03-16T10:03:36Z</time>
      </trkpt>
      <trkpt lat="47.05703" lon="-0.82744">
        <ele>149</ele>
        <time>2015-03-16T10:03:38Z</time>
      </trkpt>
      <trkpt lat="47.057" lon="-0.82744">
        <ele>148</ele>
        <time>2015-03-16T10:03:40Z</time>
      </trkpt>
      <trkpt lat="47.05698" lon="-0.82745">
        <ele>147</ele>
        <time>2015-03-16T10:03:42Z</time>
      </trkpt>
      <trkpt lat="47.05695" lon="-0.82744">
        <ele>147</ele>
        <time>2015-03-16T10:03:44Z</time>
      </trkpt>
      <trkpt lat="47.05692" lon="-0.82745">
        <ele>147</ele>
        <time>2015-03-16T10:03:46Z</time>
      </trkpt>
      <trkpt lat="47.05689" lon="-0.82747">
        <ele>147</ele>
        <time>2015-03-16T10:03:48Z</time>
      </trkpt>
      <trkpt lat="47.05687" lon="-0.82749">
        <ele>147</ele>
        <time>2015-03-16T10:03:50Z</time>
      </trkpt>
      <trkpt lat="47.05685" lon="-0.8275">
        <ele>147</ele>
        <time>2015-03-16T10:03:52Z</time>
      </trkpt>
      <trkpt lat="47.05682" lon="-0.82751">
        <ele>147</ele>
        <time>2015-03-16T10:03:54Z</time>
      </trkpt>
      <trkpt lat="47.0568" lon="-0.82753">
        <ele>147</ele>
        <time>2015-03-16T10:03:56Z</time>
      </trkpt>
      <trkpt lat="47.05678" lon="-0.82755">
        <ele>147</ele>
        <time>2015-03-16T10:03:58Z</time>
      </trkpt>
      <trkpt lat="47.05676" lon="-0.82756">
        <ele>147</ele>
        <time>2015-03-16T10:04:00Z</time>
      </trkpt>
      <trkpt lat="47.05674" lon="-0.82758">
        <ele>147</ele>
        <time>2015-03-16T10:04:02Z</time>
      </trkpt>
      <trkpt lat="47.05672" lon="-0.82759">
        <ele>147</ele>
        <time>2015-03-16T10:04:04Z</time>
      </trkpt>
      <trkpt lat="47.05669" lon="-0.82759">
        <ele>147</ele>
        <time>2015-03-16T10:04:06Z</time>
      </trkpt>
      <trkpt lat="47.05667" lon="-0.82761">
        <ele>147</ele>
        <time>2015-03-16T10:04:08Z</time>
      </trkpt>
      <trkpt lat="47.05664" lon="-0.82762">
        <ele>147</ele>
        <time>2015-03-16T10:04:10Z</time>
      </trkpt>
      <trkpt lat="47.05662" lon="-0.82764">
        <ele>147</ele>
        <time>2015-03-16T10:04:12Z</time>
      </trkpt>
      <trkpt lat="47.05659" lon="-0.82765">
        <ele>147</ele>
        <time>2015-03-16T10:04:14Z</time>
      </trkpt>
      <trkpt lat="47.05658" lon="-0.82766">
        <ele>147</ele>
        <time>2015-03-16T10:04:16Z</time>
      </trkpt>
      <trkpt lat="47.05656" lon="-0.82768">
        <ele>147</ele>
        <time>2015-03-16T10:04:18Z</time>
      </trkpt>
      <trkpt lat="47.05652" lon="-0.82771">
        <ele>147</ele>
        <time>2015-03-16T10:04:21Z</time>
      </trkpt>
      <trkpt lat="47.0565" lon="-0.82772">
        <ele>147</ele>
        <time>2015-03-16T10:04:23Z</time>
      </trkpt>
      <trkpt lat="47.05647" lon="-0.82774">
        <ele>147</ele>
        <time>2015-03-16T10:04:25Z</time>
      </trkpt>
      <trkpt lat="47.05645" lon="-0.82775">
        <ele>147</ele>
        <time>2015-03-16T10:04:27Z</time>
      </trkpt>
      <trkpt lat="47.05642" lon="-0.82776">
        <ele>147</ele>
        <time>2015-03-16T10:04:29Z</time>
      </trkpt>
      <trkpt lat="47.05639" lon="-0.82779">
        <ele>147</ele>
        <time>2015-03-16T10:04:32Z</time>
      </trkpt>
      <trkpt lat="47.05637" lon="-0.8278">
        <ele>147</ele>
        <time>2015-03-16T10:04:34Z</time>
      </trkpt>
      <trkpt lat="47.05634" lon="-0.82782">
        <ele>147</ele>
        <time>2015-03-16T10:04:37Z</time>
      </trkpt>
      <trkpt lat="47.05632" lon="-0.82783">
        <ele>147</ele>
        <time>2015-03-16T10:04:39Z</time>
      </trkpt>
      <trkpt lat="47.05628" lon="-0.82786">
        <ele>147</ele>
        <time>2015-03-16T10:04:42Z</time>
      </trkpt>
      <trkpt lat="47.05626" lon="-0.82787">
        <ele>146</ele>
        <time>2015-03-16T10:04:44Z</time>
      </trkpt>
      <trkpt lat="47.05624" lon="-0.82789">
        <ele>146</ele>
        <time>2015-03-16T10:04:46Z</time>
      </trkpt>
      <trkpt lat="47.05621" lon="-0.8279">
        <ele>145</ele>
        <time>2015-03-16T10:04:48Z</time>
      </trkpt>
      <trkpt lat="47.05619" lon="-0.82792">
        <ele>145</ele>
        <time>2015-03-16T10:04:50Z</time>
      </trkpt>
      <trkpt lat="47.05616" lon="-0.82793">
        <ele>144</ele>
        <time>2015-03-16T10:04:52Z</time>
      </trkpt>
      <trkpt lat="47.05614" lon="-0.82794">
        <ele>144</ele>
        <time>2015-03-16T10:04:54Z</time>
      </trkpt>
      <trkpt lat="47.05612" lon="-0.82795">
        <ele>144</ele>
        <time>2015-03-16T10:04:56Z</time>
      </trkpt>
      <trkpt lat="47.05609" lon="-0.82797">
        <ele>144</ele>
        <time>2015-03-16T10:04:59Z</time>
      </trkpt>
      <trkpt lat="47.05606" lon="-0.82799">
        <ele>143</ele>
        <time>2015-03-16T10:05:01Z</time>
      </trkpt>
      <trkpt lat="47.05604" lon="-0.82801">
        <ele>143</ele>
        <time>2015-03-16T10:05:03Z</time>
      </trkpt>
      <trkpt lat="47.05602" lon="-0.82802">
        <ele>143</ele>
        <time>2015-03-16T10:05:05Z</time>
      </trkpt>
      <trkpt lat="47.05599" lon="-0.82804">
        <ele>142</ele>
        <time>2015-03-16T10:05:07Z</time>
      </trkpt>
      <trkpt lat="47.05596" lon="-0.82806">
        <ele>142</ele>
        <time>2015-03-16T10:05:10Z</time>
      </trkpt>
      <trkpt lat="47.05593" lon="-0.82808">
        <ele>142</ele>
        <time>2015-03-16T10:05:13Z</time>
      </trkpt>
      <trkpt lat="47.0559" lon="-0.8281">
        <ele>142</ele>
        <time>2015-03-16T10:05:15Z</time>
      </trkpt>
      <trkpt lat="47.05588" lon="-0.82811">
        <ele>142</ele>
        <time>2015-03-16T10:05:17Z</time>
      </trkpt>
      <trkpt lat="47.05585" lon="-0.82813">
        <ele>142</ele>
        <time>2015-03-16T10:05:19Z</time>
      </trkpt>
      <trkpt lat="47.05583" lon="-0.82814">
        <ele>142</ele>
        <time>2015-03-16T10:05:21Z</time>
      </trkpt>
      <trkpt lat="47.0558" lon="-0.82816">
        <ele>142</ele>
        <time>2015-03-16T10:05:24Z</time>
      </trkpt>
      <trkpt lat="47.05578" lon="-0.82818">
        <ele>142</ele>
        <time>2015-03-16T10:05:26Z</time>
      </trkpt>
      <trkpt lat="47.05576" lon="-0.8282">
        <ele>142</ele>
        <time>2015-03-16T10:05:28Z</time>
      </trkpt>
      <trkpt lat="47.05573" lon="-0.82822">
        <ele>142</ele>
        <time>2015-03-16T10:05:30Z</time>
      </trkpt>
      <trkpt lat="47.05571" lon="-0.82823">
        <ele>142</ele>
        <time>2015-03-16T10:05:32Z</time>
      </trkpt>
      <trkpt lat="47.05568" lon="-0.82824">
        <ele>142</ele>
        <time>2015-03-16T10:05:34Z</time>
      </trkpt>
      <trkpt lat="47.05566" lon="-0.82826">
        <ele>142</ele>
        <time>2015-03-16T10:05:36Z</time>
      </trkpt>
      <trkpt lat="47.05563" lon="-0.82827">
        <ele>142</ele>
        <time>2015-03-16T10:05:38Z</time>
      </trkpt>
      <trkpt lat="47.0556" lon="-0.8283">
        <ele>142</ele>
        <time>2015-03-16T10:05:41Z</time>
      </trkpt>
      <trkpt lat="47.05558" lon="-0.82832">
        <ele>142</ele>
        <time>2015-03-16T10:05:43Z</time>
      </trkpt>
      <trkpt lat="47.05556" lon="-0.82834">
        <ele>142</ele>
        <time>2015-03-16T10:05:45Z</time>
      </trkpt>
      <trkpt lat="47.05552" lon="-0.82836">
        <ele>142</ele>
        <time>2015-03-16T10:05:48Z</time>
      </trkpt>
      <trkpt lat="47.0555" lon="-0.82837">
        <ele>142</ele>
        <time>2015-03-16T10:05:50Z</time>
      </trkpt>
      <trkpt lat="47.05548" lon="-0.82839">
        <ele>142</ele>
        <time>2015-03-16T10:05:52Z</time>
      </trkpt>
      <trkpt lat="47.05545" lon="-0.8284">
        <ele>142</ele>
        <time>2015-03-16T10:05:54Z</time>
      </trkpt>
      <trkpt lat="47.05543" lon="-0.82841">
        <ele>142</ele>
        <time>2015-03-16T10:05:56Z</time>
      </trkpt>
      <trkpt lat="47.05539" lon="-0.82844">
        <ele>142</ele>
        <time>2015-03-16T10:05:59Z</time>
      </trkpt>
      <trkpt lat="47.05537" lon="-0.82845">
        <ele>142</ele>
        <time>2015-03-16T10:06:01Z</time>
      </trkpt>
      <trkpt lat="47.05535" lon="-0.82846">
        <ele>142</ele>
        <time>2015-03-16T10:06:03Z</time>
      </trkpt>
      <trkpt lat="47.05532" lon="-0.82847">
        <ele>142</ele>
        <time>2015-03-16T10:06:05Z</time>
      </trkpt>
      <trkpt lat="47.0553" lon="-0.82849">
        <ele>142</ele>
        <time>2015-03-16T10:06:07Z</time>
      </trkpt>
      <trkpt lat="47.05527" lon="-0.8285">
        <ele>142</ele>
        <time>2015-03-16T10:06:09Z</time>
      </trkpt>
      <trkpt lat="47.05524" lon="-0.82851">
        <ele>142</ele>
        <time>2015-03-16T10:06:11Z</time>
      </trkpt>
      <trkpt lat="47.05521" lon="-0.82852">
        <ele>142</ele>
        <time>2015-03-16T10:06:13Z</time>
      </trkpt>
      <trkpt lat="47.05519" lon="-0.82853">
        <ele>142</ele>
        <time>2015-03-16T10:06:15Z</time>
      </trkpt>
      <trkpt lat="47.05517" lon="-0.82855">
        <ele>142</ele>
        <time>2015-03-16T10:06:17Z</time>
      </trkpt>
      <trkpt lat="47.05514" lon="-0.82855">
        <ele>142</ele>
        <time>2015-03-16T10:06:19Z</time>
      </trkpt>
      <trkpt lat="47.05511" lon="-0.82857">
        <ele>142</ele>
        <time>2015-03-16T10:06:21Z</time>
      </trkpt>
      <trkpt lat="47.05509" lon="-0.82858">
        <ele>142</ele>
        <time>2015-03-16T10:06:23Z</time>
      </trkpt>
      <trkpt lat="47.05507" lon="-0.82859">
        <ele>142</ele>
        <time>2015-03-16T10:06:25Z</time>
      </trkpt>
      <trkpt lat="47.05504" lon="-0.8286">
        <ele>142</ele>
        <time>2015-03-16T10:06:27Z</time>
      </trkpt>
      <trkpt lat="47.05502" lon="-0.8286">
        <ele>142</ele>
        <time>2015-03-16T10:06:29Z</time>
      </trkpt>
      <trkpt lat="47.05499" lon="-0.82861">
        <ele>142</ele>
        <time>2015-03-16T10:06:31Z</time>
      </trkpt>
      <trkpt lat="47.05497" lon="-0.82863">
        <ele>142</ele>
        <time>2015-03-16T10:06:33Z</time>
      </trkpt>
      <trkpt lat="47.05494" lon="-0.82864">
        <ele>142</ele>
        <time>2015-03-16T10:06:35Z</time>
      </trkpt>
      <trkpt lat="47.05491" lon="-0.82866">
        <ele>142</ele>
        <time>2015-03-16T10:06:38Z</time>
      </trkpt>
      <trkpt lat="47.05488" lon="-0.82868">
        <ele>142</ele>
        <time>2015-03-16T10:06:41Z</time>
      </trkpt>
      <trkpt lat="47.05485" lon="-0.82869">
        <ele>142</ele>
        <time>2015-03-16T10:06:43Z</time>
      </trkpt>
      <trkpt lat="47.05482" lon="-0.82871">
        <ele>142</ele>
        <time>2015-03-16T10:06:46Z</time>
      </trkpt>
      <trkpt lat="47.05479" lon="-0.82873">
        <ele>141</ele>
        <time>2015-03-16T10:06:49Z</time>
      </trkpt>
      <trkpt lat="47.05476" lon="-0.82875">
        <ele>141</ele>
        <time>2015-03-16T10:06:51Z</time>
      </trkpt>
      <trkpt lat="47.05474" lon="-0.82876">
        <ele>141</ele>
        <time>2015-03-16T10:06:53Z</time>
      </trkpt>
      <trkpt lat="47.05471" lon="-0.82877">
        <ele>140</ele>
        <time>2015-03-16T10:06:55Z</time>
      </trkpt>
      <trkpt lat="47.05469" lon="-0.82878">
        <ele>140</ele>
        <time>2015-03-16T10:06:57Z</time>
      </trkpt>
      <trkpt lat="47.05467" lon="-0.82879">
        <ele>140</ele>
        <time>2015-03-16T10:06:59Z</time>
      </trkpt>
      <trkpt lat="47.05465" lon="-0.82881">
        <ele>140</ele>
        <time>2015-03-16T10:07:01Z</time>
      </trkpt>
      <trkpt lat="47.05464" lon="-0.82883">
        <ele>140</ele>
        <time>2015-03-16T10:07:03Z</time>
      </trkpt>
      <trkpt lat="47.05463" lon="-0.82887">
        <ele>140</ele>
        <time>2015-03-16T10:07:05Z</time>
      </trkpt>
      <trkpt lat="47.05462" lon="-0.8289">
        <ele>140</ele>
        <time>2015-03-16T10:07:07Z</time>
      </trkpt>
      <trkpt lat="47.05459" lon="-0.82893">
        <ele>140</ele>
        <time>2015-03-16T10:07:10Z</time>
      </trkpt>
      <trkpt lat="47.05457" lon="-0.82894">
        <ele>139</ele>
        <time>2015-03-16T10:07:12Z</time>
      </trkpt>
      <trkpt lat="47.05455" lon="-0.82896">
        <ele>139</ele>
        <time>2015-03-16T10:07:14Z</time>
      </trkpt>
      <trkpt lat="47.05452" lon="-0.82897">
        <ele>139</ele>
        <time>2015-03-16T10:07:16Z</time>
      </trkpt>
      <trkpt lat="47.0545" lon="-0.82899">
        <ele>139</ele>
        <time>2015-03-16T10:07:18Z</time>
      </trkpt>
      <trkpt lat="47.05448" lon="-0.82899">
        <ele>138</ele>
        <time>2015-03-16T10:07:20Z</time>
      </trkpt>
      <trkpt lat="47.05445" lon="-0.82901">
        <ele>138</ele>
        <time>2015-03-16T10:07:22Z</time>
      </trkpt>
      <trkpt lat="47.05442" lon="-0.82902">
        <ele>138</ele>
        <time>2015-03-16T10:07:24Z</time>
      </trkpt>
      <trkpt lat="47.0544" lon="-0.82903">
        <ele>138</ele>
        <time>2015-03-16T10:07:26Z</time>
      </trkpt>
      <trkpt lat="47.05437" lon="-0.82904">
        <ele>138</ele>
        <time>2015-03-16T10:07:28Z</time>
      </trkpt>
      <trkpt lat="47.05435" lon="-0.82905">
        <ele>138</ele>
        <time>2015-03-16T10:07:30Z</time>
      </trkpt>
      <trkpt lat="47.05433" lon="-0.82906">
        <ele>138</ele>
        <time>2015-03-16T10:07:32Z</time>
      </trkpt>
      <trkpt lat="47.0543" lon="-0.82907">
        <ele>138</ele>
        <time>2015-03-16T10:07:34Z</time>
      </trkpt>
      <trkpt lat="47.05428" lon="-0.82907">
        <ele>138</ele>
        <time>2015-03-16T10:07:36Z</time>
      </trkpt>
      <trkpt lat="47.05426" lon="-0.82908">
        <ele>138</ele>
        <time>2015-03-16T10:07:38Z</time>
      </trkpt>
      <trkpt lat="47.05423" lon="-0.8291">
        <ele>138</ele>
        <time>2015-03-16T10:07:40Z</time>
      </trkpt>
      <trkpt lat="47.05421" lon="-0.82911">
        <ele>138</ele>
        <time>2015-03-16T10:07:42Z</time>
      </trkpt>
      <trkpt lat="47.05418" lon="-0.82913">
        <ele>138</ele>
        <time>2015-03-16T10:07:44Z</time>
      </trkpt>
      <trkpt lat="47.05415" lon="-0.82914">
        <ele>138</ele>
        <time>2015-03-16T10:07:47Z</time>
      </trkpt>
      <trkpt lat="47.05412" lon="-0.82915">
        <ele>138</ele>
        <time>2015-03-16T10:07:49Z</time>
      </trkpt>
      <trkpt lat="47.0541" lon="-0.82917">
        <ele>138</ele>
        <time>2015-03-16T10:07:51Z</time>
      </trkpt>
      <trkpt lat="47.05407" lon="-0.82918">
        <ele>138</ele>
        <time>2015-03-16T10:07:53Z</time>
      </trkpt>
      <trkpt lat="47.05404" lon="-0.82918">
        <ele>138</ele>
        <time>2015-03-16T10:07:55Z</time>
      </trkpt>
      <trkpt lat="47.05402" lon="-0.82919">
        <ele>138</ele>
        <time>2015-03-16T10:07:57Z</time>
      </trkpt>
      <trkpt lat="47.054" lon="-0.82921">
        <ele>138</ele>
        <time>2015-03-16T10:07:59Z</time>
      </trkpt>
      <trkpt lat="47.05397" lon="-0.82922">
        <ele>138</ele>
        <time>2015-03-16T10:08:01Z</time>
      </trkpt>
      <trkpt lat="47.05395" lon="-0.82923">
        <ele>138</ele>
        <time>2015-03-16T10:08:03Z</time>
      </trkpt>
      <trkpt lat="47.05393" lon="-0.82923">
        <ele>138</ele>
        <time>2015-03-16T10:08:05Z</time>
      </trkpt>
      <trkpt lat="47.0539" lon="-0.82924">
        <ele>138</ele>
        <time>2015-03-16T10:08:07Z</time>
      </trkpt>
      <trkpt lat="47.05388" lon="-0.82925">
        <ele>138</ele>
        <time>2015-03-16T10:08:09Z</time>
      </trkpt>
      <trkpt lat="47.05384" lon="-0.82927">
        <ele>138</ele>
        <time>2015-03-16T10:08:12Z</time>
      </trkpt>
      <trkpt lat="47.05382" lon="-0.82928">
        <ele>138</ele>
        <time>2015-03-16T10:08:14Z</time>
      </trkpt>
      <trkpt lat="47.0538" lon="-0.82929">
        <ele>138</ele>
        <time>2015-03-16T10:08:16Z</time>
      </trkpt>
      <trkpt lat="47.05376" lon="-0.82931">
        <ele>138</ele>
        <time>2015-03-16T10:08:19Z</time>
      </trkpt>
      <trkpt lat="47.05375" lon="-0.82933">
        <ele>138</ele>
        <time>2015-03-16T10:08:21Z</time>
      </trkpt>
      <trkpt lat="47.05372" lon="-0.82934">
        <ele>138</ele>
        <time>2015-03-16T10:08:23Z</time>
      </trkpt>
      <trkpt lat="47.0537" lon="-0.82936">
        <ele>138</ele>
        <time>2015-03-16T10:08:25Z</time>
      </trkpt>
      <trkpt lat="47.05368" lon="-0.82937">
        <ele>138</ele>
        <time>2015-03-16T10:08:27Z</time>
      </trkpt>
      <trkpt lat="47.05365" lon="-0.82938">
        <ele>138</ele>
        <time>2015-03-16T10:08:29Z</time>
      </trkpt>
      <trkpt lat="47.05363" lon="-0.8294">
        <ele>138</ele>
        <time>2015-03-16T10:08:31Z</time>
      </trkpt>
      <trkpt lat="47.05361" lon="-0.82942">
        <ele>138</ele>
        <time>2015-03-16T10:08:33Z</time>
      </trkpt>
      <trkpt lat="47.05359" lon="-0.82943">
        <ele>138</ele>
        <time>2015-03-16T10:08:35Z</time>
      </trkpt>
      <trkpt lat="47.05357" lon="-0.82944">
        <ele>138</ele>
        <time>2015-03-16T10:08:37Z</time>
      </trkpt>
      <trkpt lat="47.05354" lon="-0.82946">
        <ele>138</ele>
        <time>2015-03-16T10:08:39Z</time>
      </trkpt>
      <trkpt lat="47.05351" lon="-0.82948">
        <ele>138</ele>
        <time>2015-03-16T10:08:42Z</time>
      </trkpt>
      <trkpt lat="47.05349" lon="-0.8295">
        <ele>138</ele>
        <time>2015-03-16T10:08:44Z</time>
      </trkpt>
      <trkpt lat="47.05346" lon="-0.82954">
        <ele>138</ele>
        <time>2015-03-16T10:08:47Z</time>
      </trkpt>
      <trkpt lat="47.05342" lon="-0.82956">
        <ele>138</ele>
        <time>2015-03-16T10:08:50Z</time>
      </trkpt>
      <trkpt lat="47.05341" lon="-0.82958">
        <ele>138</ele>
        <time>2015-03-16T10:08:52Z</time>
      </trkpt>
      <trkpt lat="47.05339" lon="-0.8296">
        <ele>138</ele>
        <time>2015-03-16T10:08:54Z</time>
      </trkpt>
      <trkpt lat="47.05336" lon="-0.82962">
        <ele>138</ele>
        <time>2015-03-16T10:08:56Z</time>
      </trkpt>
      <trkpt lat="47.05333" lon="-0.82964">
        <ele>138</ele>
        <time>2015-03-16T10:08:59Z</time>
      </trkpt>
      <trkpt lat="47.05331" lon="-0.82966">
        <ele>138</ele>
        <time>2015-03-16T10:09:01Z</time>
      </trkpt>
      <trkpt lat="47.05328" lon="-0.82969">
        <ele>138</ele>
        <time>2015-03-16T10:09:04Z</time>
      </trkpt>
      <trkpt lat="47.05325" lon="-0.82973">
        <ele>138</ele>
        <time>2015-03-16T10:09:07Z</time>
      </trkpt>
      <trkpt lat="47.05323" lon="-0.82975">
        <ele>138</ele>
        <time>2015-03-16T10:09:09Z</time>
      </trkpt>
      <trkpt lat="47.05321" lon="-0.82977">
        <ele>138</ele>
        <time>2015-03-16T10:09:11Z</time>
      </trkpt>
      <trkpt lat="47.05319" lon="-0.82982">
        <ele>138</ele>
        <time>2015-03-16T10:09:14Z</time>
      </trkpt>
      <trkpt lat="47.05317" lon="-0.82985">
        <ele>138</ele>
        <time>2015-03-16T10:09:16Z</time>
      </trkpt>
      <trkpt lat="47.05316" lon="-0.82987">
        <ele>138</ele>
        <time>2015-03-16T10:09:18Z</time>
      </trkpt>
      <trkpt lat="47.05315" lon="-0.8299">
        <ele>138</ele>
        <time>2015-03-16T10:09:20Z</time>
      </trkpt>
      <trkpt lat="47.05314" lon="-0.82993">
        <ele>138</ele>
        <time>2015-03-16T10:09:22Z</time>
      </trkpt>
      <trkpt lat="47.05313" lon="-0.82996">
        <ele>137</ele>
        <time>2015-03-16T10:09:24Z</time>
      </trkpt>
      <trkpt lat="47.05313" lon="-0.82999">
        <ele>136</ele>
        <time>2015-03-16T10:09:26Z</time>
      </trkpt>
      <trkpt lat="47.05312" lon="-0.83003">
        <ele>136</ele>
        <time>2015-03-16T10:09:28Z</time>
      </trkpt>
      <trkpt lat="47.05312" lon="-0.83006">
        <ele>135</ele>
        <time>2015-03-16T10:09:30Z</time>
      </trkpt>
      <trkpt lat="47.05312" lon="-0.83009">
        <ele>135</ele>
        <time>2015-03-16T10:09:32Z</time>
      </trkpt>
      <trkpt lat="47.05313" lon="-0.83012">
        <ele>134</ele>
        <time>2015-03-16T10:09:34Z</time>
      </trkpt>
      <trkpt lat="47.05314" lon="-0.83015">
        <ele>133</ele>
        <time>2015-03-16T10:09:36Z</time>
      </trkpt>
      <trkpt lat="47.05315" lon="-0.83018">
        <ele>132</ele>
        <time>2015-03-16T10:09:38Z</time>
      </trkpt>
      <trkpt lat="47.05316" lon="-0.83022">
        <ele>132</ele>
        <time>2015-03-16T10:09:40Z</time>
      </trkpt>
      <trkpt lat="47.05317" lon="-0.83025">
        <ele>131</ele>
        <time>2015-03-16T10:09:42Z</time>
      </trkpt>
      <trkpt lat="47.05318" lon="-0.83028">
        <ele>131</ele>
        <time>2015-03-16T10:09:44Z</time>
      </trkpt>
      <trkpt lat="47.05321" lon="-0.83032">
        <ele>131</ele>
        <time>2015-03-16T10:09:47Z</time>
      </trkpt>
      <trkpt lat="47.05323" lon="-0.83035">
        <ele>131</ele>
        <time>2015-03-16T10:09:49Z</time>
      </trkpt>
      <trkpt lat="47.05324" lon="-0.83039">
        <ele>131</ele>
        <time>2015-03-16T10:09:52Z</time>
      </trkpt>
      <trkpt lat="47.05324" lon="-0.83043">
        <ele>130</ele>
        <time>2015-03-16T10:09:54Z</time>
      </trkpt>
      <trkpt lat="47.05325" lon="-0.83045">
        <ele>130</ele>
        <time>2015-03-16T10:09:56Z</time>
      </trkpt>
      <trkpt lat="47.05325" lon="-0.83049">
        <ele>129</ele>
        <time>2015-03-16T10:09:58Z</time>
      </trkpt>
      <trkpt lat="47.05325" lon="-0.83052">
        <ele>129</ele>
        <time>2015-03-16T10:10:00Z</time>
      </trkpt>
      <trkpt lat="47.05324" lon="-0.83056">
        <ele>129</ele>
        <time>2015-03-16T10:10:02Z</time>
      </trkpt>
      <trkpt lat="47.05324" lon="-0.8306">
        <ele>129</ele>
        <time>2015-03-16T10:10:04Z</time>
      </trkpt>
      <trkpt lat="47.05325" lon="-0.83065">
        <ele>129</ele>
        <time>2015-03-16T10:10:06Z</time>
      </trkpt>
      <trkpt lat="47.05325" lon="-0.83068">
        <ele>129</ele>
        <time>2015-03-16T10:10:08Z</time>
      </trkpt>
      <trkpt lat="47.05325" lon="-0.83072">
        <ele>129</ele>
        <time>2015-03-16T10:10:10Z</time>
      </trkpt>
      <trkpt lat="47.05326" lon="-0.83074">
        <ele>129</ele>
        <time>2015-03-16T10:10:12Z</time>
      </trkpt>
      <trkpt lat="47.05325" lon="-0.83078">
        <ele>129</ele>
        <time>2015-03-16T10:10:14Z</time>
      </trkpt>
      <trkpt lat="47.05325" lon="-0.83081">
        <ele>129</ele>
        <time>2015-03-16T10:10:16Z</time>
      </trkpt>
      <trkpt lat="47.05324" lon="-0.83086">
        <ele>129</ele>
        <time>2015-03-16T10:10:18Z</time>
      </trkpt>
      <trkpt lat="47.05323" lon="-0.8309">
        <ele>129</ele>
        <time>2015-03-16T10:10:20Z</time>
      </trkpt>
      <trkpt lat="47.05323" lon="-0.83093">
        <ele>129</ele>
        <time>2015-03-16T10:10:22Z</time>
      </trkpt>
      <trkpt lat="47.05323" lon="-0.83096">
        <ele>129</ele>
        <time>2015-03-16T10:10:24Z</time>
      </trkpt>
      <trkpt lat="47.05322" lon="-0.83101">
        <ele>129</ele>
        <time>2015-03-16T10:10:26Z</time>
      </trkpt>
      <trkpt lat="47.05321" lon="-0.83104">
        <ele>129</ele>
        <time>2015-03-16T10:10:28Z</time>
      </trkpt>
      <trkpt lat="47.05321" lon="-0.83108">
        <ele>129</ele>
        <time>2015-03-16T10:10:31Z</time>
      </trkpt>
      <trkpt lat="47.0532" lon="-0.83111">
        <ele>129</ele>
        <time>2015-03-16T10:10:33Z</time>
      </trkpt>
      <trkpt lat="47.0532" lon="-0.83114">
        <ele>129</ele>
        <time>2015-03-16T10:10:35Z</time>
      </trkpt>
      <trkpt lat="47.05319" lon="-0.83119">
        <ele>129</ele>
        <time>2015-03-16T10:10:37Z</time>
      </trkpt>
      <trkpt lat="47.05318" lon="-0.83123">
        <ele>129</ele>
        <time>2015-03-16T10:10:39Z</time>
      </trkpt>
      <trkpt lat="47.05318" lon="-0.83127">
        <ele>129</ele>
        <time>2015-03-16T10:10:42Z</time>
      </trkpt>
      <trkpt lat="47.05318" lon="-0.83129">
        <ele>129</ele>
        <time>2015-03-16T10:10:44Z</time>
      </trkpt>
      <trkpt lat="47.05318" lon="-0.83133">
        <ele>129</ele>
        <time>2015-03-16T10:10:46Z</time>
      </trkpt>
      <trkpt lat="47.05318" lon="-0.83137">
        <ele>129</ele>
        <time>2015-03-16T10:10:48Z</time>
      </trkpt>
      <trkpt lat="47.05317" lon="-0.8314">
        <ele>129</ele>
        <time>2015-03-16T10:10:50Z</time>
      </trkpt>
      <trkpt lat="47.05317" lon="-0.83144">
        <ele>129</ele>
        <time>2015-03-16T10:10:52Z</time>
      </trkpt>
      <trkpt lat="47.05315" lon="-0.83148">
        <ele>129</ele>
        <time>2015-03-16T10:10:54Z</time>
      </trkpt>
      <trkpt lat="47.05312" lon="-0.83149">
        <ele>129</ele>
        <time>2015-03-16T10:10:56Z</time>
      </trkpt>
      <trkpt lat="47.05311" lon="-0.83151">
        <ele>129</ele>
        <time>2015-03-16T10:10:58Z</time>
      </trkpt>
      <trkpt lat="47.0531" lon="-0.83153">
        <ele>129</ele>
        <time>2015-03-16T10:11:00Z</time>
      </trkpt>
      <trkpt lat="47.05309" lon="-0.83154">
        <ele>129</ele>
        <time>2015-03-16T10:11:02Z</time>
      </trkpt>
      <trkpt lat="47.05307" lon="-0.83157">
        <ele>130</ele>
        <time>2015-03-16T10:11:04Z</time>
      </trkpt>
      <trkpt lat="47.05307" lon="-0.83159">
        <ele>130</ele>
        <time>2015-03-16T10:11:06Z</time>
      </trkpt>
      <trkpt lat="47.05307" lon="-0.83161">
        <ele>131</ele>
        <time>2015-03-16T10:11:08Z</time>
      </trkpt>
      <trkpt lat="47.05307" lon="-0.83164">
        <ele>131</ele>
        <time>2015-03-16T10:11:10Z</time>
      </trkpt>
      <trkpt lat="47.05307" lon="-0.83168">
        <ele>131</ele>
        <time>2015-03-16T10:11:12Z</time>
      </trkpt>
      <trkpt lat="47.05306" lon="-0.83171">
        <ele>131</ele>
        <time>2015-03-16T10:11:14Z</time>
      </trkpt>
      <trkpt lat="47.05305" lon="-0.83174">
        <ele>132</ele>
        <time>2015-03-16T10:11:16Z</time>
      </trkpt>
      <trkpt lat="47.05304" lon="-0.83178">
        <ele>132</ele>
        <time>2015-03-16T10:11:18Z</time>
      </trkpt>
      <trkpt lat="47.05302" lon="-0.83182">
        <ele>132</ele>
        <time>2015-03-16T10:11:21Z</time>
      </trkpt>
      <trkpt lat="47.05301" lon="-0.83184">
        <ele>132</ele>
        <time>2015-03-16T10:11:23Z</time>
      </trkpt>
      <trkpt lat="47.05299" lon="-0.83186">
        <ele>132</ele>
        <time>2015-03-16T10:11:25Z</time>
      </trkpt>
      <trkpt lat="47.05298" lon="-0.83188">
        <ele>132</ele>
        <time>2015-03-16T10:11:27Z</time>
      </trkpt>
      <trkpt lat="47.05296" lon="-0.8319">
        <ele>132</ele>
        <time>2015-03-16T10:11:29Z</time>
      </trkpt>
      <trkpt lat="47.05294" lon="-0.83194">
        <ele>132</ele>
        <time>2015-03-16T10:11:32Z</time>
      </trkpt>
      <trkpt lat="47.05292" lon="-0.83195">
        <ele>132</ele>
        <time>2015-03-16T10:11:34Z</time>
      </trkpt>
      <trkpt lat="47.05291" lon="-0.83197">
        <ele>132</ele>
        <time>2015-03-16T10:11:36Z</time>
      </trkpt>
      <trkpt lat="47.05289" lon="-0.832">
        <ele>132</ele>
        <time>2015-03-16T10:11:38Z</time>
      </trkpt>
      <trkpt lat="47.05288" lon="-0.83201">
        <ele>132</ele>
        <time>2015-03-16T10:11:40Z</time>
      </trkpt>
      <trkpt lat="47.05287" lon="-0.83204">
        <ele>132</ele>
        <time>2015-03-16T10:11:42Z</time>
      </trkpt>
      <trkpt lat="47.05286" lon="-0.83207">
        <ele>132</ele>
        <time>2015-03-16T10:11:44Z</time>
      </trkpt>
      <trkpt lat="47.05285" lon="-0.8321">
        <ele>132</ele>
        <time>2015-03-16T10:11:46Z</time>
      </trkpt>
      <trkpt lat="47.05284" lon="-0.83213">
        <ele>132</ele>
        <time>2015-03-16T10:11:49Z</time>
      </trkpt>
      <trkpt lat="47.05283" lon="-0.83215">
        <ele>132</ele>
        <time>2015-03-16T10:11:51Z</time>
      </trkpt>
      <trkpt lat="47.05281" lon="-0.83217">
        <ele>132</ele>
        <time>2015-03-16T10:11:53Z</time>
      </trkpt>
      <trkpt lat="47.05279" lon="-0.83219">
        <ele>132</ele>
        <time>2015-03-16T10:11:55Z</time>
      </trkpt>
      <trkpt lat="47.05277" lon="-0.83221">
        <ele>132</ele>
        <time>2015-03-16T10:11:57Z</time>
      </trkpt>
      <trkpt lat="47.05276" lon="-0.83223">
        <ele>132</ele>
        <time>2015-03-16T10:11:59Z</time>
      </trkpt>
      <trkpt lat="47.05274" lon="-0.83224">
        <ele>132</ele>
        <time>2015-03-16T10:12:01Z</time>
      </trkpt>
      <trkpt lat="47.05273" lon="-0.83227">
        <ele>132</ele>
        <time>2015-03-16T10:12:03Z</time>
      </trkpt>
      <trkpt lat="47.05271" lon="-0.8323">
        <ele>132</ele>
        <time>2015-03-16T10:12:05Z</time>
      </trkpt>
      <trkpt lat="47.05268" lon="-0.83233">
        <ele>132</ele>
        <time>2015-03-16T10:12:08Z</time>
      </trkpt>
      <trkpt lat="47.05266" lon="-0.83235">
        <ele>132</ele>
        <time>2015-03-16T10:12:10Z</time>
      </trkpt>
      <trkpt lat="47.05264" lon="-0.83238">
        <ele>132</ele>
        <time>2015-03-16T10:12:12Z</time>
      </trkpt>
      <trkpt lat="47.05261" lon="-0.8324">
        <ele>131</ele>
        <time>2015-03-16T10:12:15Z</time>
      </trkpt>
      <trkpt lat="47.05258" lon="-0.83243">
        <ele>131</ele>
        <time>2015-03-16T10:12:17Z</time>
      </trkpt>
      <trkpt lat="47.05256" lon="-0.83245">
        <ele>131</ele>
        <time>2015-03-16T10:12:19Z</time>
      </trkpt>
      <trkpt lat="47.05254" lon="-0.83247">
        <ele>131</ele>
        <time>2015-03-16T10:12:21Z</time>
      </trkpt>
      <trkpt lat="47.05253" lon="-0.83248">
        <ele>131</ele>
        <time>2015-03-16T10:12:23Z</time>
      </trkpt>
      <trkpt lat="47.0525" lon="-0.8325">
        <ele>131</ele>
        <time>2015-03-16T10:12:26Z</time>
      </trkpt>
      <trkpt lat="47.05249" lon="-0.83254">
        <ele>131</ele>
        <time>2015-03-16T10:12:28Z</time>
      </trkpt>
      <trkpt lat="47.05246" lon="-0.83255">
        <ele>131</ele>
        <time>2015-03-16T10:12:30Z</time>
      </trkpt>
      <trkpt lat="47.05243" lon="-0.83259">
        <ele>131</ele>
        <time>2015-03-16T10:12:33Z</time>
      </trkpt>
      <trkpt lat="47.05241" lon="-0.83261">
        <ele>131</ele>
        <time>2015-03-16T10:12:35Z</time>
      </trkpt>
      <trkpt lat="47.05238" lon="-0.83265">
        <ele>131</ele>
        <time>2015-03-16T10:12:38Z</time>
      </trkpt>
      <trkpt lat="47.05236" lon="-0.83267">
        <ele>131</ele>
        <time>2015-03-16T10:12:40Z</time>
      </trkpt>
      <trkpt lat="47.05233" lon="-0.83268">
        <ele>131</ele>
        <time>2015-03-16T10:12:43Z</time>
      </trkpt>
      <trkpt lat="47.0523" lon="-0.83271">
        <ele>131</ele>
        <time>2015-03-16T10:12:45Z</time>
      </trkpt>
      <trkpt lat="47.05228" lon="-0.83272">
        <ele>131</ele>
        <time>2015-03-16T10:12:47Z</time>
      </trkpt>
      <trkpt lat="47.05226" lon="-0.83274">
        <ele>131</ele>
        <time>2015-03-16T10:12:49Z</time>
      </trkpt>
      <trkpt lat="47.05223" lon="-0.83276">
        <ele>131</ele>
        <time>2015-03-16T10:12:51Z</time>
      </trkpt>
      <trkpt lat="47.05221" lon="-0.83278">
        <ele>131</ele>
        <time>2015-03-16T10:12:53Z</time>
      </trkpt>
      <trkpt lat="47.05218" lon="-0.8328">
        <ele>131</ele>
        <time>2015-03-16T10:12:56Z</time>
      </trkpt>
      <trkpt lat="47.05216" lon="-0.83283">
        <ele>131</ele>
        <time>2015-03-16T10:12:58Z</time>
      </trkpt>
      <trkpt lat="47.05214" lon="-0.83285">
        <ele>131</ele>
        <time>2015-03-16T10:13:00Z</time>
      </trkpt>
      <trkpt lat="47.05212" lon="-0.83287">
        <ele>131</ele>
        <time>2015-03-16T10:13:02Z</time>
      </trkpt>
      <trkpt lat="47.0521" lon="-0.8329">
        <ele>131</ele>
        <time>2015-03-16T10:13:04Z</time>
      </trkpt>
      <trkpt lat="47.05208" lon="-0.83293">
        <ele>131</ele>
        <time>2015-03-16T10:13:07Z</time>
      </trkpt>
      <trkpt lat="47.05206" lon="-0.83295">
        <ele>131</ele>
        <time>2015-03-16T10:13:09Z</time>
      </trkpt>
      <trkpt lat="47.05202" lon="-0.83298">
        <ele>131</ele>
        <time>2015-03-16T10:13:12Z</time>
      </trkpt>
      <trkpt lat="47.052" lon="-0.83301">
        <ele>131</ele>
        <time>2015-03-16T10:13:15Z</time>
      </trkpt>
      <trkpt lat="47.05198" lon="-0.83303">
        <ele>131</ele>
        <time>2015-03-16T10:13:17Z</time>
      </trkpt>
      <trkpt lat="47.05196" lon="-0.83306">
        <ele>131</ele>
        <time>2015-03-16T10:13:19Z</time>
      </trkpt>
      <trkpt lat="47.05194" lon="-0.83309">
        <ele>131</ele>
        <time>2015-03-16T10:13:21Z</time>
      </trkpt>
      <trkpt lat="47.05193" lon="-0.8331">
        <ele>131</ele>
        <time>2015-03-16T10:13:23Z</time>
      </trkpt>
      <trkpt lat="47.05191" lon="-0.83312">
        <ele>131</ele>
        <time>2015-03-16T10:13:25Z</time>
      </trkpt>
      <trkpt lat="47.05188" lon="-0.83314">
        <ele>131</ele>
        <time>2015-03-16T10:13:27Z</time>
      </trkpt>
      <trkpt lat="47.05186" lon="-0.83317">
        <ele>131</ele>
        <time>2015-03-16T10:13:29Z</time>
      </trkpt>
      <trkpt lat="47.05184" lon="-0.83318">
        <ele>131</ele>
        <time>2015-03-16T10:13:31Z</time>
      </trkpt>
      <trkpt lat="47.05182" lon="-0.8332">
        <ele>131</ele>
        <time>2015-03-16T10:13:33Z</time>
      </trkpt>
      <trkpt lat="47.0518" lon="-0.83323">
        <ele>131</ele>
        <time>2015-03-16T10:13:35Z</time>
      </trkpt>
      <trkpt lat="47.05178" lon="-0.83324">
        <ele>131</ele>
        <time>2015-03-16T10:13:37Z</time>
      </trkpt>
      <trkpt lat="47.05176" lon="-0.83324">
        <ele>131</ele>
        <time>2015-03-16T10:13:39Z</time>
      </trkpt>
      <trkpt lat="47.05174" lon="-0.83327">
        <ele>131</ele>
        <time>2015-03-16T10:13:41Z</time>
      </trkpt>
      <trkpt lat="47.05172" lon="-0.8333">
        <ele>131</ele>
        <time>2015-03-16T10:13:44Z</time>
      </trkpt>
      <trkpt lat="47.05169" lon="-0.83334">
        <ele>131</ele>
        <time>2015-03-16T10:13:47Z</time>
      </trkpt>
      <trkpt lat="47.05167" lon="-0.83337">
        <ele>131</ele>
        <time>2015-03-16T10:13:49Z</time>
      </trkpt>
      <trkpt lat="47.05165" lon="-0.83339">
        <ele>131</ele>
        <time>2015-03-16T10:13:51Z</time>
      </trkpt>
      <trkpt lat="47.05163" lon="-0.83341">
        <ele>131</ele>
        <time>2015-03-16T10:13:53Z</time>
      </trkpt>
      <trkpt lat="47.05161" lon="-0.83343">
        <ele>131</ele>
        <time>2015-03-16T10:13:55Z</time>
      </trkpt>
      <trkpt lat="47.05158" lon="-0.83346">
        <ele>131</ele>
        <time>2015-03-16T10:13:58Z</time>
      </trkpt>
      <trkpt lat="47.05154" lon="-0.83348">
        <ele>131</ele>
        <time>2015-03-16T10:14:01Z</time>
      </trkpt>
      <trkpt lat="47.05152" lon="-0.83351">
        <ele>131</ele>
        <time>2015-03-16T10:14:04Z</time>
      </trkpt>
      <trkpt lat="47.0515" lon="-0.83353">
        <ele>131</ele>
        <time>2015-03-16T10:14:06Z</time>
      </trkpt>
      <trkpt lat="47.05148" lon="-0.83356">
        <ele>131</ele>
        <time>2015-03-16T10:14:08Z</time>
      </trkpt>
      <trkpt lat="47.05147" lon="-0.83358">
        <ele>131</ele>
        <time>2015-03-16T10:14:10Z</time>
      </trkpt>
      <trkpt lat="47.05145" lon="-0.8336">
        <ele>131</ele>
        <time>2015-03-16T10:14:12Z</time>
      </trkpt>
      <trkpt lat="47.05144" lon="-0.83363">
        <ele>131</ele>
        <time>2015-03-16T10:14:14Z</time>
      </trkpt>
      <trkpt lat="47.05141" lon="-0.83368">
        <ele>131</ele>
        <time>2015-03-16T10:14:17Z</time>
      </trkpt>
      <trkpt lat="47.05139" lon="-0.83369">
        <ele>131</ele>
        <time>2015-03-16T10:14:19Z</time>
      </trkpt>
      <trkpt lat="47.05137" lon="-0.83373">
        <ele>131</ele>
        <time>2015-03-16T10:14:22Z</time>
      </trkpt>
      <trkpt lat="47.05135" lon="-0.83376">
        <ele>131</ele>
        <time>2015-03-16T10:14:24Z</time>
      </trkpt>
      <trkpt lat="47.05133" lon="-0.83378">
        <ele>131</ele>
        <time>2015-03-16T10:14:26Z</time>
      </trkpt>
      <trkpt lat="47.05131" lon="-0.83382">
        <ele>131</ele>
        <time>2015-03-16T10:14:29Z</time>
      </trkpt>
      <trkpt lat="47.05129" lon="-0.83385">
        <ele>131</ele>
        <time>2015-03-16T10:14:31Z</time>
      </trkpt>
      <trkpt lat="47.05127" lon="-0.83388">
        <ele>131</ele>
        <time>2015-03-16T10:14:33Z</time>
      </trkpt>
      <trkpt lat="47.05125" lon="-0.8339">
        <ele>131</ele>
        <time>2015-03-16T10:14:35Z</time>
      </trkpt>
      <trkpt lat="47.05123" lon="-0.83391">
        <ele>131</ele>
        <time>2015-03-16T10:14:37Z</time>
      </trkpt>
      <trkpt lat="47.05122" lon="-0.83394">
        <ele>131</ele>
        <time>2015-03-16T10:14:39Z</time>
      </trkpt>
      <trkpt lat="47.05119" lon="-0.83398">
        <ele>131</ele>
        <time>2015-03-16T10:14:42Z</time>
      </trkpt>
      <trkpt lat="47.05116" lon="-0.834">
        <ele>131</ele>
        <time>2015-03-16T10:14:45Z</time>
      </trkpt>
      <trkpt lat="47.05114" lon="-0.83402">
        <ele>131</ele>
        <time>2015-03-16T10:14:47Z</time>
      </trkpt>
      <trkpt lat="47.05112" lon="-0.83403">
        <ele>131</ele>
        <time>2015-03-16T10:14:49Z</time>
      </trkpt>
      <trkpt lat="47.0511" lon="-0.83404">
        <ele>131</ele>
        <time>2015-03-16T10:14:51Z</time>
      </trkpt>
      <trkpt lat="47.05108" lon="-0.83405">
        <ele>131</ele>
        <time>2015-03-16T10:14:53Z</time>
      </trkpt>
      <trkpt lat="47.05106" lon="-0.83407">
        <ele>131</ele>
        <time>2015-03-16T10:14:55Z</time>
      </trkpt>
      <trkpt lat="47.05104" lon="-0.83407">
        <ele>131</ele>
        <time>2015-03-16T10:14:57Z</time>
      </trkpt>
      <trkpt lat="47.05102" lon="-0.83406">
        <ele>131</ele>
        <time>2015-03-16T10:14:59Z</time>
      </trkpt>
      <trkpt lat="47.051" lon="-0.83406">
        <ele>131</ele>
        <time>2015-03-16T10:15:01Z</time>
      </trkpt>
      <trkpt lat="47.05098" lon="-0.83406">
        <ele>131</ele>
        <time>2015-03-16T10:15:03Z</time>
      </trkpt>
      <trkpt lat="47.05095" lon="-0.83405">
        <ele>131</ele>
        <time>2015-03-16T10:15:05Z</time>
      </trkpt>
      <trkpt lat="47.05093" lon="-0.83404">
        <ele>131</ele>
        <time>2015-03-16T10:15:07Z</time>
      </trkpt>
      <trkpt lat="47.05091" lon="-0.83404">
        <ele>131</ele>
        <time>2015-03-16T10:15:09Z</time>
      </trkpt>
      <trkpt lat="47.05088" lon="-0.83403">
        <ele>131</ele>
        <time>2015-03-16T10:15:12Z</time>
      </trkpt>
      <trkpt lat="47.05086" lon="-0.83403">
        <ele>131</ele>
        <time>2015-03-16T10:15:14Z</time>
      </trkpt>
      <trkpt lat="47.05085" lon="-0.83404">
        <ele>131</ele>
        <time>2015-03-16T10:15:16Z</time>
      </trkpt>
      <trkpt lat="47.05082" lon="-0.83406">
        <ele>131</ele>
        <time>2015-03-16T10:15:18Z</time>
      </trkpt>
      <trkpt lat="47.0508" lon="-0.83408">
        <ele>131</ele>
        <time>2015-03-16T10:15:20Z</time>
      </trkpt>
      <trkpt lat="47.04947" lon="-0.83498">
        <ele>130.13114929199</ele>
        <time>2015-03-16T10:15:20Z</time>
      </trkpt>
      <trkpt lat="47.04906" lon="-0.83536">
        <ele>129.94799804688</ele>
        <time>2015-03-16T10:15:20Z</time>
      </trkpt>
      <trkpt lat="47.04871" lon="-0.83531">
        <ele>129.87208557129</ele>
        <time>2015-03-16T10:15:20Z</time>
      </trkpt>
      <trkpt lat="47.04877" lon="-0.83586">
        <ele>129.79553222656</ele>
        <time>2015-03-16T10:15:20Z</time>
      </trkpt>
      <trkpt lat="47.04882" lon="-0.83628">
        <ele>129.73634338379</ele>
        <time>2015-03-16T10:15:20Z</time>
      </trkpt>
      <trkpt lat="47.04853" lon="-0.83702">
        <ele>129.36991882324</ele>
        <time>2015-03-16T10:15:20Z</time>
      </trkpt>
      <trkpt lat="47.04494" lon="-0.83924">
        <ele>127</ele>
        <time>2015-03-16T10:15:22Z</time>
      </trkpt>
      <trkpt lat="47.04492" lon="-0.83925">
        <ele>127</ele>
        <time>2015-03-16T10:15:24Z</time>
      </trkpt>
      <trkpt lat="47.04488" lon="-0.83928">
        <ele>127</ele>
        <time>2015-03-16T10:15:27Z</time>
      </trkpt>
      <trkpt lat="47.04486" lon="-0.8393">
        <ele>127</ele>
        <time>2015-03-16T10:15:29Z</time>
      </trkpt>
      <trkpt lat="47.04484" lon="-0.83932">
        <ele>127</ele>
        <time>2015-03-16T10:15:31Z</time>
      </trkpt>
      <trkpt lat="47.04482" lon="-0.83933">
        <ele>127</ele>
        <time>2015-03-16T10:15:33Z</time>
      </trkpt>
      <trkpt lat="47.04478" lon="-0.83936">
        <ele>127</ele>
        <time>2015-03-16T10:15:36Z</time>
      </trkpt>
      <trkpt lat="47.04476" lon="-0.83938">
        <ele>127</ele>
        <time>2015-03-16T10:15:38Z</time>
      </trkpt>
      <trkpt lat="47.04473" lon="-0.8394">
        <ele>127</ele>
        <time>2015-03-16T10:15:40Z</time>
      </trkpt>
      <trkpt lat="47.04471" lon="-0.83942">
        <ele>127</ele>
        <time>2015-03-16T10:15:42Z</time>
      </trkpt>
      <trkpt lat="47.04468" lon="-0.83945">
        <ele>126</ele>
        <time>2015-03-16T10:15:45Z</time>
      </trkpt>
      <trkpt lat="47.04466" lon="-0.83946">
        <ele>126</ele>
        <time>2015-03-16T10:15:47Z</time>
      </trkpt>
      <trkpt lat="47.04464" lon="-0.83947">
        <ele>125</ele>
        <time>2015-03-16T10:15:49Z</time>
      </trkpt>
      <trkpt lat="47.04461" lon="-0.83947">
        <ele>125</ele>
        <time>2015-03-16T10:15:51Z</time>
      </trkpt>
      <trkpt lat="47.04458" lon="-0.83948">
        <ele>125</ele>
        <time>2015-03-16T10:15:53Z</time>
      </trkpt>
      <trkpt lat="47.04456" lon="-0.83948">
        <ele>124</ele>
        <time>2015-03-16T10:15:55Z</time>
      </trkpt>
      <trkpt lat="47.04454" lon="-0.8395">
        <ele>124</ele>
        <time>2015-03-16T10:15:57Z</time>
      </trkpt>
      <trkpt lat="47.04451" lon="-0.83951">
        <ele>124</ele>
        <time>2015-03-16T10:15:59Z</time>
      </trkpt>
      <trkpt lat="47.04449" lon="-0.83953">
        <ele>124</ele>
        <time>2015-03-16T10:16:01Z</time>
      </trkpt>
      <trkpt lat="47.04446" lon="-0.83956">
        <ele>124</ele>
        <time>2015-03-16T10:16:04Z</time>
      </trkpt>
      <trkpt lat="47.04443" lon="-0.83957">
        <ele>124</ele>
        <time>2015-03-16T10:16:06Z</time>
      </trkpt>
      <trkpt lat="47.04441" lon="-0.83959">
        <ele>124</ele>
        <time>2015-03-16T10:16:08Z</time>
      </trkpt>
      <trkpt lat="47.04438" lon="-0.83961">
        <ele>124</ele>
        <time>2015-03-16T10:16:11Z</time>
      </trkpt>
      <trkpt lat="47.04435" lon="-0.83963">
        <ele>124</ele>
        <time>2015-03-16T10:16:13Z</time>
      </trkpt>
      <trkpt lat="47.04433" lon="-0.83965">
        <ele>124</ele>
        <time>2015-03-16T10:16:15Z</time>
      </trkpt>
      <trkpt lat="47.0443" lon="-0.83965">
        <ele>124</ele>
        <time>2015-03-16T10:16:17Z</time>
      </trkpt>
      <trkpt lat="47.04428" lon="-0.83966">
        <ele>124</ele>
        <time>2015-03-16T10:16:19Z</time>
      </trkpt>
      <trkpt lat="47.04426" lon="-0.83968">
        <ele>124</ele>
        <time>2015-03-16T10:16:21Z</time>
      </trkpt>
      <trkpt lat="47.04424" lon="-0.8397">
        <ele>124</ele>
        <time>2015-03-16T10:16:23Z</time>
      </trkpt>
      <trkpt lat="47.0442" lon="-0.83973">
        <ele>124</ele>
        <time>2015-03-16T10:16:26Z</time>
      </trkpt>
      <trkpt lat="47.04418" lon="-0.83974">
        <ele>124</ele>
        <time>2015-03-16T10:16:28Z</time>
      </trkpt>
      <trkpt lat="47.04416" lon="-0.83976">
        <ele>124</ele>
        <time>2015-03-16T10:16:30Z</time>
      </trkpt>
      <trkpt lat="47.04414" lon="-0.83977">
        <ele>124</ele>
        <time>2015-03-16T10:16:32Z</time>
      </trkpt>
      <trkpt lat="47.04411" lon="-0.83976">
        <ele>124</ele>
        <time>2015-03-16T10:16:34Z</time>
      </trkpt>
      <trkpt lat="47.04408" lon="-0.83976">
        <ele>124</ele>
        <time>2015-03-16T10:16:36Z</time>
      </trkpt>
      <trkpt lat="47.04406" lon="-0.83975">
        <ele>123</ele>
        <time>2015-03-16T10:16:38Z</time>
      </trkpt>
      <trkpt lat="47.04404" lon="-0.83973">
        <ele>123</ele>
        <time>2015-03-16T10:16:40Z</time>
      </trkpt>
      <trkpt lat="47.04402" lon="-0.8397">
        <ele>123</ele>
        <time>2015-03-16T10:16:42Z</time>
      </trkpt>
      <trkpt lat="47.044" lon="-0.83968">
        <ele>122</ele>
        <time>2015-03-16T10:16:44Z</time>
      </trkpt>
      <trkpt lat="47.04398" lon="-0.83964">
        <ele>122</ele>
        <time>2015-03-16T10:16:46Z</time>
      </trkpt>
      <trkpt lat="47.04395" lon="-0.8396">
        <ele>122</ele>
        <time>2015-03-16T10:16:49Z</time>
      </trkpt>
      <trkpt lat="47.04393" lon="-0.83958">
        <ele>122</ele>
        <time>2015-03-16T10:16:51Z</time>
      </trkpt>
      <trkpt lat="47.04392" lon="-0.83956">
        <ele>121</ele>
        <time>2015-03-16T10:16:53Z</time>
      </trkpt>
      <trkpt lat="47.04389" lon="-0.83952">
        <ele>121</ele>
        <time>2015-03-16T10:16:56Z</time>
      </trkpt>
      <trkpt lat="47.04387" lon="-0.8395">
        <ele>121</ele>
        <time>2015-03-16T10:16:58Z</time>
      </trkpt>
      <trkpt lat="47.04385" lon="-0.83948">
        <ele>121</ele>
        <time>2015-03-16T10:17:00Z</time>
      </trkpt>
      <trkpt lat="47.04383" lon="-0.83946">
        <ele>121</ele>
        <time>2015-03-16T10:17:02Z</time>
      </trkpt>
      <trkpt lat="47.04381" lon="-0.83942">
        <ele>121</ele>
        <time>2015-03-16T10:17:05Z</time>
      </trkpt>
      <trkpt lat="47.04379" lon="-0.83939">
        <ele>121</ele>
        <time>2015-03-16T10:17:07Z</time>
      </trkpt>
      <trkpt lat="47.04377" lon="-0.83937">
        <ele>121</ele>
        <time>2015-03-16T10:17:09Z</time>
      </trkpt>
      <trkpt lat="47.04376" lon="-0.83935">
        <ele>121</ele>
        <time>2015-03-16T10:17:11Z</time>
      </trkpt>
      <trkpt lat="47.04374" lon="-0.83933">
        <ele>121</ele>
        <time>2015-03-16T10:17:13Z</time>
      </trkpt>
      <trkpt lat="47.04372" lon="-0.83931">
        <ele>121</ele>
        <time>2015-03-16T10:17:15Z</time>
      </trkpt>
      <trkpt lat="47.0437" lon="-0.83929">
        <ele>121</ele>
        <time>2015-03-16T10:17:17Z</time>
      </trkpt>
      <trkpt lat="47.04368" lon="-0.83926">
        <ele>121</ele>
        <time>2015-03-16T10:17:19Z</time>
      </trkpt>
      <trkpt lat="47.04366" lon="-0.83925">
        <ele>120</ele>
        <time>2015-03-16T10:17:21Z</time>
      </trkpt>
      <trkpt lat="47.04364" lon="-0.83922">
        <ele>120</ele>
        <time>2015-03-16T10:17:23Z</time>
      </trkpt>
      <trkpt lat="47.04362" lon="-0.8392">
        <ele>120</ele>
        <time>2015-03-16T10:17:25Z</time>
      </trkpt>
      <trkpt lat="47.0436" lon="-0.83918">
        <ele>119</ele>
        <time>2015-03-16T10:17:27Z</time>
      </trkpt>
      <trkpt lat="47.04358" lon="-0.83916">
        <ele>119</ele>
        <time>2015-03-16T10:17:29Z</time>
      </trkpt>
      <trkpt lat="47.04355" lon="-0.83913">
        <ele>118</ele>
        <time>2015-03-16T10:17:32Z</time>
      </trkpt>
      <trkpt lat="47.04354" lon="-0.83911">
        <ele>118</ele>
        <time>2015-03-16T10:17:34Z</time>
      </trkpt>
      <trkpt lat="47.04352" lon="-0.83908">
        <ele>118</ele>
        <time>2015-03-16T10:17:36Z</time>
      </trkpt>
      <trkpt lat="47.0435" lon="-0.83906">
        <ele>118</ele>
        <time>2015-03-16T10:17:38Z</time>
      </trkpt>
      <trkpt lat="47.04348" lon="-0.83904">
        <ele>117</ele>
        <time>2015-03-16T10:17:40Z</time>
      </trkpt>
      <trkpt lat="47.04347" lon="-0.83902">
        <ele>117</ele>
        <time>2015-03-16T10:17:42Z</time>
      </trkpt>
      <trkpt lat="47.04345" lon="-0.839">
        <ele>116</ele>
        <time>2015-03-16T10:17:44Z</time>
      </trkpt>
      <trkpt lat="47.04343" lon="-0.83898">
        <ele>116</ele>
        <time>2015-03-16T10:17:46Z</time>
      </trkpt>
      <trkpt lat="47.04341" lon="-0.83896">
        <ele>116</ele>
        <time>2015-03-16T10:17:48Z</time>
      </trkpt>
      <trkpt lat="47.0434" lon="-0.83894">
        <ele>116</ele>
        <time>2015-03-16T10:17:50Z</time>
      </trkpt>
      <trkpt lat="47.04338" lon="-0.83892">
        <ele>116</ele>
        <time>2015-03-16T10:17:52Z</time>
      </trkpt>
      <trkpt lat="47.04336" lon="-0.83889">
        <ele>116</ele>
        <time>2015-03-16T10:17:54Z</time>
      </trkpt>
      <trkpt lat="47.04334" lon="-0.83887">
        <ele>116</ele>
        <time>2015-03-16T10:17:56Z</time>
      </trkpt>
      <trkpt lat="47.04332" lon="-0.83883">
        <ele>116</ele>
        <time>2015-03-16T10:17:59Z</time>
      </trkpt>
      <trkpt lat="47.0433" lon="-0.83881">
        <ele>116</ele>
        <time>2015-03-16T10:18:01Z</time>
      </trkpt>
      <trkpt lat="47.04328" lon="-0.83878">
        <ele>116</ele>
        <time>2015-03-16T10:18:03Z</time>
      </trkpt>
      <trkpt lat="47.04326" lon="-0.83874">
        <ele>116</ele>
        <time>2015-03-16T10:18:05Z</time>
      </trkpt>
      <trkpt lat="47.04324" lon="-0.83871">
        <ele>116</ele>
        <time>2015-03-16T10:18:07Z</time>
      </trkpt>
      <trkpt lat="47.04323" lon="-0.83868">
        <ele>116</ele>
        <time>2015-03-16T10:18:09Z</time>
      </trkpt>
      <trkpt lat="47.04321" lon="-0.83865">
        <ele>115</ele>
        <time>2015-03-16T10:18:11Z</time>
      </trkpt>
      <trkpt lat="47.04319" lon="-0.83862">
        <ele>115</ele>
        <time>2015-03-16T10:18:13Z</time>
      </trkpt>
      <trkpt lat="47.04317" lon="-0.83859">
        <ele>115</ele>
        <time>2015-03-16T10:18:15Z</time>
      </trkpt>
      <trkpt lat="47.04315" lon="-0.83856">
        <ele>114</ele>
        <time>2015-03-16T10:18:17Z</time>
      </trkpt>
      <trkpt lat="47.04314" lon="-0.83852">
        <ele>114</ele>
        <time>2015-03-16T10:18:19Z</time>
      </trkpt>
      <trkpt lat="47.04312" lon="-0.83848">
        <ele>114</ele>
        <time>2015-03-16T10:18:21Z</time>
      </trkpt>
      <trkpt lat="47.04311" lon="-0.83845">
        <ele>114</ele>
        <time>2015-03-16T10:18:23Z</time>
      </trkpt>
      <trkpt lat="47.04309" lon="-0.83842">
        <ele>114</ele>
        <time>2015-03-16T10:18:25Z</time>
      </trkpt>
      <trkpt lat="47.04307" lon="-0.8384">
        <ele>114</ele>
        <time>2015-03-16T10:18:27Z</time>
      </trkpt>
      <trkpt lat="47.04305" lon="-0.83836">
        <ele>114</ele>
        <time>2015-03-16T10:18:30Z</time>
      </trkpt>
      <trkpt lat="47.04303" lon="-0.83833">
        <ele>113</ele>
        <time>2015-03-16T10:18:32Z</time>
      </trkpt>
      <trkpt lat="47.04302" lon="-0.83831">
        <ele>113</ele>
        <time>2015-03-16T10:18:34Z</time>
      </trkpt>
      <trkpt lat="47.043" lon="-0.83829">
        <ele>113</ele>
        <time>2015-03-16T10:18:36Z</time>
      </trkpt>
      <trkpt lat="47.04298" lon="-0.83825">
        <ele>113</ele>
        <time>2015-03-16T10:18:38Z</time>
      </trkpt>
      <trkpt lat="47.04296" lon="-0.83822">
        <ele>113</ele>
        <time>2015-03-16T10:18:40Z</time>
      </trkpt>
      <trkpt lat="47.04294" lon="-0.8382">
        <ele>113</ele>
        <time>2015-03-16T10:18:42Z</time>
      </trkpt>
      <trkpt lat="47.04293" lon="-0.83817">
        <ele>113</ele>
        <time>2015-03-16T10:18:44Z</time>
      </trkpt>
      <trkpt lat="47.04291" lon="-0.83815">
        <ele>113</ele>
        <time>2015-03-16T10:18:46Z</time>
      </trkpt>
      <trkpt lat="47.04289" lon="-0.83812">
        <ele>113</ele>
        <time>2015-03-16T10:18:48Z</time>
      </trkpt>
      <trkpt lat="47.04287" lon="-0.8381">
        <ele>113</ele>
        <time>2015-03-16T10:18:50Z</time>
      </trkpt>
      <trkpt lat="47.04286" lon="-0.83807">
        <ele>112</ele>
        <time>2015-03-16T10:18:52Z</time>
      </trkpt>
      <trkpt lat="47.04285" lon="-0.83804">
        <ele>112</ele>
        <time>2015-03-16T10:18:54Z</time>
      </trkpt>
      <trkpt lat="47.04282" lon="-0.83801">
        <ele>111</ele>
        <time>2015-03-16T10:18:56Z</time>
      </trkpt>
      <trkpt lat="47.04281" lon="-0.83798">
        <ele>111</ele>
        <time>2015-03-16T10:18:58Z</time>
      </trkpt>
      <trkpt lat="47.0428" lon="-0.83795">
        <ele>111</ele>
        <time>2015-03-16T10:19:00Z</time>
      </trkpt>
      <trkpt lat="47.04278" lon="-0.83792">
        <ele>110</ele>
        <time>2015-03-16T10:19:02Z</time>
      </trkpt>
      <trkpt lat="47.04277" lon="-0.83788">
        <ele>110</ele>
        <time>2015-03-16T10:19:04Z</time>
      </trkpt>
      <trkpt lat="47.04275" lon="-0.83785">
        <ele>110</ele>
        <time>2015-03-16T10:19:06Z</time>
      </trkpt>
      <trkpt lat="47.04274" lon="-0.83782">
        <ele>110</ele>
        <time>2015-03-16T10:19:08Z</time>
      </trkpt>
      <trkpt lat="47.04272" lon="-0.83778">
        <ele>110</ele>
        <time>2015-03-16T10:19:10Z</time>
      </trkpt>
      <trkpt lat="47.04271" lon="-0.83774">
        <ele>110</ele>
        <time>2015-03-16T10:19:12Z</time>
      </trkpt>
      <trkpt lat="47.04268" lon="-0.8377">
        <ele>110</ele>
        <time>2015-03-16T10:19:15Z</time>
      </trkpt>
      <trkpt lat="47.04266" lon="-0.83768">
        <ele>110</ele>
        <time>2015-03-16T10:19:17Z</time>
      </trkpt>
      <trkpt lat="47.04265" lon="-0.83765">
        <ele>110</ele>
        <time>2015-03-16T10:19:19Z</time>
      </trkpt>
      <trkpt lat="47.04263" lon="-0.83761">
        <ele>109</ele>
        <time>2015-03-16T10:19:22Z</time>
      </trkpt>
      <trkpt lat="47.04261" lon="-0.83758">
        <ele>109</ele>
        <time>2015-03-16T10:19:24Z</time>
      </trkpt>
      <trkpt lat="47.0426" lon="-0.83755">
        <ele>108</ele>
        <time>2015-03-16T10:19:26Z</time>
      </trkpt>
      <trkpt lat="47.04258" lon="-0.83751">
        <ele>107</ele>
        <time>2015-03-16T10:19:29Z</time>
      </trkpt>
      <trkpt lat="47.04256" lon="-0.83748">
        <ele>107</ele>
        <time>2015-03-16T10:19:31Z</time>
      </trkpt>
      <trkpt lat="47.04253" lon="-0.83744">
        <ele>106</ele>
        <time>2015-03-16T10:19:34Z</time>
      </trkpt>
      <trkpt lat="47.04251" lon="-0.83742">
        <ele>105</ele>
        <time>2015-03-16T10:19:36Z</time>
      </trkpt>
      <trkpt lat="47.04249" lon="-0.83741">
        <ele>105</ele>
        <time>2015-03-16T10:19:38Z</time>
      </trkpt>
      <trkpt lat="47.04247" lon="-0.83742">
        <ele>104</ele>
        <time>2015-03-16T10:19:40Z</time>
      </trkpt>
      <trkpt lat="47.04244" lon="-0.83743">
        <ele>104</ele>
        <time>2015-03-16T10:19:42Z</time>
      </trkpt>
      <trkpt lat="47.04241" lon="-0.83744">
        <ele>104</ele>
        <time>2015-03-16T10:19:45Z</time>
      </trkpt>
      <trkpt lat="47.04238" lon="-0.83747">
        <ele>103</ele>
        <time>2015-03-16T10:19:49Z</time>
      </trkpt>
      <trkpt lat="47.04237" lon="-0.8375">
        <ele>103</ele>
        <time>2015-03-16T10:19:51Z</time>
      </trkpt>
      <trkpt lat="47.04235" lon="-0.83754">
        <ele>102</ele>
        <time>2015-03-16T10:19:54Z</time>
      </trkpt>
      <trkpt lat="47.04234" lon="-0.83756">
        <ele>102</ele>
        <time>2015-03-16T10:19:56Z</time>
      </trkpt>
      <trkpt lat="47.04232" lon="-0.83759">
        <ele>102</ele>
        <time>2015-03-16T10:19:58Z</time>
      </trkpt>
      <trkpt lat="47.04229" lon="-0.83764">
        <ele>102</ele>
        <time>2015-03-16T10:20:01Z</time>
      </trkpt>
      <trkpt lat="47.04227" lon="-0.83768">
        <ele>102</ele>
        <time>2015-03-16T10:20:03Z</time>
      </trkpt>
      <trkpt lat="47.04226" lon="-0.83772">
        <ele>102</ele>
        <time>2015-03-16T10:20:05Z</time>
      </trkpt>
      <trkpt lat="47.04225" lon="-0.83776">
        <ele>102</ele>
        <time>2015-03-16T10:20:07Z</time>
      </trkpt>
      <trkpt lat="47.04224" lon="-0.8378">
        <ele>102</ele>
        <time>2015-03-16T10:20:09Z</time>
      </trkpt>
      <trkpt lat="47.04222" lon="-0.83784">
        <ele>103</ele>
        <time>2015-03-16T10:20:12Z</time>
      </trkpt>
      <trkpt lat="47.0422" lon="-0.83788">
        <ele>104</ele>
        <time>2015-03-16T10:20:14Z</time>
      </trkpt>
      <trkpt lat="47.04219" lon="-0.83791">
        <ele>104</ele>
        <time>2015-03-16T10:20:16Z</time>
      </trkpt>
      <trkpt lat="47.04218" lon="-0.83795">
        <ele>104</ele>
        <time>2015-03-16T10:20:19Z</time>
      </trkpt>
      <trkpt lat="47.04216" lon="-0.83799">
        <ele>105</ele>
        <time>2015-03-16T10:20:21Z</time>
      </trkpt>
      <trkpt lat="47.04215" lon="-0.83804">
        <ele>105</ele>
        <time>2015-03-16T10:20:24Z</time>
      </trkpt>
      <trkpt lat="47.04213" lon="-0.83808">
        <ele>106</ele>
        <time>2015-03-16T10:20:27Z</time>
      </trkpt>
      <trkpt lat="47.04212" lon="-0.83811">
        <ele>106</ele>
        <time>2015-03-16T10:20:29Z</time>
      </trkpt>
      <trkpt lat="47.04211" lon="-0.83814">
        <ele>106</ele>
        <time>2015-03-16T10:20:31Z</time>
      </trkpt>
      <trkpt lat="47.0421" lon="-0.83819">
        <ele>107</ele>
        <time>2015-03-16T10:20:34Z</time>
      </trkpt>
      <trkpt lat="47.04207" lon="-0.83823">
        <ele>107</ele>
        <time>2015-03-16T10:20:37Z</time>
      </trkpt>
      <trkpt lat="47.04206" lon="-0.83826">
        <ele>107</ele>
        <time>2015-03-16T10:20:39Z</time>
      </trkpt>
      <trkpt lat="47.04204" lon="-0.8383">
        <ele>108</ele>
        <time>2015-03-16T10:20:42Z</time>
      </trkpt>
      <trkpt lat="47.04203" lon="-0.83834">
        <ele>108</ele>
        <time>2015-03-16T10:20:44Z</time>
      </trkpt>
      <trkpt lat="47.04202" lon="-0.83837">
        <ele>108</ele>
        <time>2015-03-16T10:20:46Z</time>
      </trkpt>
      <trkpt lat="47.04201" lon="-0.8384">
        <ele>109</ele>
        <time>2015-03-16T10:20:48Z</time>
      </trkpt>
      <trkpt lat="47.042" lon="-0.83843">
        <ele>109</ele>
        <time>2015-03-16T10:20:50Z</time>
      </trkpt>
      <trkpt lat="47.04199" lon="-0.83847">
        <ele>109</ele>
        <time>2015-03-16T10:20:52Z</time>
      </trkpt>
      <trkpt lat="47.04197" lon="-0.83851">
        <ele>110</ele>
        <time>2015-03-16T10:20:55Z</time>
      </trkpt>
      <trkpt lat="47.04197" lon="-0.83855">
        <ele>110</ele>
        <time>2015-03-16T10:20:57Z</time>
      </trkpt>
      <trkpt lat="47.04196" lon="-0.83858">
        <ele>110</ele>
        <time>2015-03-16T10:20:59Z</time>
      </trkpt>
      <trkpt lat="47.04195" lon="-0.83862">
        <ele>110</ele>
        <time>2015-03-16T10:21:01Z</time>
      </trkpt>
      <trkpt lat="47.04194" lon="-0.83865">
        <ele>110</ele>
        <time>2015-03-16T10:21:03Z</time>
      </trkpt>
      <trkpt lat="47.04193" lon="-0.8387">
        <ele>110</ele>
        <time>2015-03-16T10:21:06Z</time>
      </trkpt>
      <trkpt lat="47.04191" lon="-0.83874">
        <ele>110</ele>
        <time>2015-03-16T10:21:09Z</time>
      </trkpt>
      <trkpt lat="47.04189" lon="-0.83879">
        <ele>110</ele>
        <time>2015-03-16T10:21:12Z</time>
      </trkpt>
      <trkpt lat="47.04187" lon="-0.83883">
        <ele>110</ele>
        <time>2015-03-16T10:21:15Z</time>
      </trkpt>
      <trkpt lat="47.04186" lon="-0.83886">
        <ele>110</ele>
        <time>2015-03-16T10:21:17Z</time>
      </trkpt>
      <trkpt lat="47.04185" lon="-0.8389">
        <ele>110</ele>
        <time>2015-03-16T10:21:19Z</time>
      </trkpt>
      <trkpt lat="47.04184" lon="-0.83892">
        <ele>110</ele>
        <time>2015-03-16T10:21:21Z</time>
      </trkpt>
      <trkpt lat="47.04182" lon="-0.83895">
        <ele>110</ele>
        <time>2015-03-16T10:21:23Z</time>
      </trkpt>
      <trkpt lat="47.04181" lon="-0.83897">
        <ele>110</ele>
        <time>2015-03-16T10:21:25Z</time>
      </trkpt>
      <trkpt lat="47.04178" lon="-0.83902">
        <ele>110</ele>
        <time>2015-03-16T10:21:28Z</time>
      </trkpt>
      <trkpt lat="47.04174" lon="-0.83906">
        <ele>110</ele>
        <time>2015-03-16T10:21:32Z</time>
      </trkpt>
      <trkpt lat="47.04171" lon="-0.83908">
        <ele>110</ele>
        <time>2015-03-16T10:21:35Z</time>
      </trkpt>
      <trkpt lat="47.04169" lon="-0.83909">
        <ele>110</ele>
        <time>2015-03-16T10:21:37Z</time>
      </trkpt>
      <trkpt lat="47.04166" lon="-0.8391">
        <ele>110</ele>
        <time>2015-03-16T10:21:39Z</time>
      </trkpt>
      <trkpt lat="47.04165" lon="-0.83912">
        <ele>110</ele>
        <time>2015-03-16T10:21:41Z</time>
      </trkpt>
      <trkpt lat="47.04161" lon="-0.83914">
        <ele>110</ele>
        <time>2015-03-16T10:21:44Z</time>
      </trkpt>
      <trkpt lat="47.04157" lon="-0.83918">
        <ele>110</ele>
        <time>2015-03-16T10:21:48Z</time>
      </trkpt>
      <trkpt lat="47.04154" lon="-0.83921">
        <ele>110</ele>
        <time>2015-03-16T10:21:51Z</time>
      </trkpt>
      <trkpt lat="47.04151" lon="-0.83922">
        <ele>110</ele>
        <time>2015-03-16T10:21:53Z</time>
      </trkpt>
      <trkpt lat="47.04149" lon="-0.83924">
        <ele>110</ele>
        <time>2015-03-16T10:21:55Z</time>
      </trkpt>
      <trkpt lat="47.04147" lon="-0.83925">
        <ele>110</ele>
        <time>2015-03-16T10:21:57Z</time>
      </trkpt>
      <trkpt lat="47.04143" lon="-0.83926">
        <ele>109</ele>
        <time>2015-03-16T10:22:00Z</time>
      </trkpt>
      <trkpt lat="47.0414" lon="-0.8393">
        <ele>109</ele>
        <time>2015-03-16T10:22:03Z</time>
      </trkpt>
      <trkpt lat="47.04138" lon="-0.83934">
        <ele>109</ele>
        <time>2015-03-16T10:22:06Z</time>
      </trkpt>
      <trkpt lat="47.04135" lon="-0.83939">
        <ele>109</ele>
        <time>2015-03-16T10:22:10Z</time>
      </trkpt>
      <trkpt lat="47.04133" lon="-0.83942">
        <ele>109</ele>
        <time>2015-03-16T10:22:12Z</time>
      </trkpt>
      <trkpt lat="47.04131" lon="-0.83945">
        <ele>109</ele>
        <time>2015-03-16T10:22:15Z</time>
      </trkpt>
      <trkpt lat="47.04129" lon="-0.83949">
        <ele>109</ele>
        <time>2015-03-16T10:22:18Z</time>
      </trkpt>
      <trkpt lat="47.04126" lon="-0.83954">
        <ele>109</ele>
        <time>2015-03-16T10:22:22Z</time>
      </trkpt>
      <trkpt lat="47.04125" lon="-0.83957">
        <ele>109</ele>
        <time>2015-03-16T10:22:24Z</time>
      </trkpt>
      <trkpt lat="47.04124" lon="-0.8396">
        <ele>109</ele>
        <time>2015-03-16T10:22:26Z</time>
      </trkpt>
      <trkpt lat="47.04125" lon="-0.83966">
        <ele>109</ele>
        <time>2015-03-16T10:22:29Z</time>
      </trkpt>
      <trkpt lat="47.04125" lon="-0.83972">
        <ele>109</ele>
        <time>2015-03-16T10:22:32Z</time>
      </trkpt>
      <trkpt lat="47.04126" lon="-0.83977">
        <ele>109</ele>
        <time>2015-03-16T10:22:35Z</time>
      </trkpt>
      <trkpt lat="47.04129" lon="-0.83981">
        <ele>109</ele>
        <time>2015-03-16T10:22:38Z</time>
      </trkpt>
      <trkpt lat="47.04131" lon="-0.83983">
        <ele>109</ele>
        <time>2015-03-16T10:22:40Z</time>
      </trkpt>
      <trkpt lat="47.04134" lon="-0.83988">
        <ele>109</ele>
        <time>2015-03-16T10:22:44Z</time>
      </trkpt>
      <trkpt lat="47.04136" lon="-0.83991">
        <ele>109</ele>
        <time>2015-03-16T10:22:46Z</time>
      </trkpt>
      <trkpt lat="47.0414" lon="-0.83994">
        <ele>109</ele>
        <time>2015-03-16T10:22:50Z</time>
      </trkpt>
      <trkpt lat="47.04142" lon="-0.83996">
        <ele>109</ele>
        <time>2015-03-16T10:22:52Z</time>
      </trkpt>
      <trkpt lat="47.04146" lon="-0.83999">
        <ele>109</ele>
        <time>2015-03-16T10:22:55Z</time>
      </trkpt>
      <trkpt lat="47.04149" lon="-0.84001">
        <ele>109</ele>
        <time>2015-03-16T10:22:58Z</time>
      </trkpt>
      <trkpt lat="47.04152" lon="-0.84005">
        <ele>109</ele>
        <time>2015-03-16T10:23:01Z</time>
      </trkpt>
      <trkpt lat="47.04155" lon="-0.84008">
        <ele>109</ele>
        <time>2015-03-16T10:23:04Z</time>
      </trkpt>
      <trkpt lat="47.04159" lon="-0.84011">
        <ele>109</ele>
        <time>2015-03-16T10:23:07Z</time>
      </trkpt>
      <trkpt lat="47.04162" lon="-0.84014">
        <ele>109</ele>
        <time>2015-03-16T10:23:10Z</time>
      </trkpt>
      <trkpt lat="47.04166" lon="-0.84019">
        <ele>109</ele>
        <time>2015-03-16T10:23:14Z</time>
      </trkpt>
      <trkpt lat="47.04168" lon="-0.84021">
        <ele>109</ele>
        <time>2015-03-16T10:23:16Z</time>
      </trkpt>
      <trkpt lat="47.04172" lon="-0.84025">
        <ele>109</ele>
        <time>2015-03-16T10:23:20Z</time>
      </trkpt>
      <trkpt lat="47.04174" lon="-0.84027">
        <ele>109</ele>
        <time>2015-03-16T10:23:22Z</time>
      </trkpt>
      <trkpt lat="47.04176" lon="-0.84029">
        <ele>109</ele>
        <time>2015-03-16T10:23:24Z</time>
      </trkpt>
      <trkpt lat="47.04178" lon="-0.84031">
        <ele>109</ele>
        <time>2015-03-16T10:23:26Z</time>
      </trkpt>
      <trkpt lat="47.04182" lon="-0.84035">
        <ele>109</ele>
        <time>2015-03-16T10:23:30Z</time>
      </trkpt>
      <trkpt lat="47.04183" lon="-0.84037">
        <ele>109</ele>
        <time>2015-03-16T10:23:32Z</time>
      </trkpt>
      <trkpt lat="47.04187" lon="-0.84041">
        <ele>109</ele>
        <time>2015-03-16T10:23:36Z</time>
      </trkpt>
      <trkpt lat="47.04189" lon="-0.84044">
        <ele>109</ele>
        <time>2015-03-16T10:23:38Z</time>
      </trkpt>
      <trkpt lat="47.04192" lon="-0.84047">
        <ele>109</ele>
        <time>2015-03-16T10:23:42Z</time>
      </trkpt>
      <trkpt lat="47.04195" lon="-0.84051">
        <ele>109</ele>
        <time>2015-03-16T10:23:45Z</time>
      </trkpt>
      <trkpt lat="47.04199" lon="-0.84056">
        <ele>109</ele>
        <time>2015-03-16T10:23:49Z</time>
      </trkpt>
      <trkpt lat="47.04202" lon="-0.84059">
        <ele>109</ele>
        <time>2015-03-16T10:23:52Z</time>
      </trkpt>
      <trkpt lat="47.04204" lon="-0.84061">
        <ele>109</ele>
        <time>2015-03-16T10:23:54Z</time>
      </trkpt>
      <trkpt lat="47.04206" lon="-0.84065">
        <ele>109</ele>
        <time>2015-03-16T10:23:57Z</time>
      </trkpt>
      <trkpt lat="47.04208" lon="-0.84067">
        <ele>109</ele>
        <time>2015-03-16T10:23:59Z</time>
      </trkpt>
      <trkpt lat="47.04211" lon="-0.8407">
        <ele>109</ele>
        <time>2015-03-16T10:24:02Z</time>
      </trkpt>
      <trkpt lat="47.04213" lon="-0.84073">
        <ele>109</ele>
        <time>2015-03-16T10:24:04Z</time>
      </trkpt>
      <trkpt lat="47.04216" lon="-0.84076">
        <ele>109</ele>
        <time>2015-03-16T10:24:07Z</time>
      </trkpt>
      <trkpt lat="47.04218" lon="-0.84078">
        <ele>109</ele>
        <time>2015-03-16T10:24:09Z</time>
      </trkpt>
      <trkpt lat="47.04221" lon="-0.84083">
        <ele>110</ele>
        <time>2015-03-16T10:24:13Z</time>
      </trkpt>
      <trkpt lat="47.04223" lon="-0.84086">
        <ele>110</ele>
        <time>2015-03-16T10:24:15Z</time>
      </trkpt>
      <trkpt lat="47.04226" lon="-0.84089">
        <ele>110</ele>
        <time>2015-03-16T10:24:18Z</time>
      </trkpt>
      <trkpt lat="47.04227" lon="-0.84092">
        <ele>110</ele>
        <time>2015-03-16T10:24:20Z</time>
      </trkpt>
      <trkpt lat="47.04231" lon="-0.84096">
        <ele>110</ele>
        <time>2015-03-16T10:24:24Z</time>
      </trkpt>
      <trkpt lat="47.04233" lon="-0.841">
        <ele>110</ele>
        <time>2015-03-16T10:24:27Z</time>
      </trkpt>
      <trkpt lat="47.04235" lon="-0.84103">
        <ele>110</ele>
        <time>2015-03-16T10:24:29Z</time>
      </trkpt>
      <trkpt lat="47.04237" lon="-0.84106">
        <ele>110</ele>
        <time>2015-03-16T10:24:31Z</time>
      </trkpt>
      <trkpt lat="47.0424" lon="-0.8411">
        <ele>110</ele>
        <time>2015-03-16T10:24:34Z</time>
      </trkpt>
      <trkpt lat="47.04242" lon="-0.84114">
        <ele>110</ele>
        <time>2015-03-16T10:24:37Z</time>
      </trkpt>
      <trkpt lat="47.04246" lon="-0.84119">
        <ele>111</ele>
        <time>2015-03-16T10:24:41Z</time>
      </trkpt>
      <trkpt lat="47.04248" lon="-0.84122">
        <ele>111</ele>
        <time>2015-03-16T10:24:43Z</time>
      </trkpt>
      <trkpt lat="47.04266" lon="-0.8414">
        <ele>114</ele>
        <time>2015-03-16T10:24:48Z</time>
      </trkpt>
      <trkpt lat="47.04267" lon="-0.84143">
        <ele>114</ele>
        <time>2015-03-16T10:24:50Z</time>
      </trkpt>
      <trkpt lat="47.04268" lon="-0.84146">
        <ele>114</ele>
        <time>2015-03-16T10:24:52Z</time>
      </trkpt>
      <trkpt lat="47.04269" lon="-0.84149">
        <ele>114</ele>
        <time>2015-03-16T10:24:54Z</time>
      </trkpt>
      <trkpt lat="47.04271" lon="-0.84152">
        <ele>114</ele>
        <time>2015-03-16T10:24:56Z</time>
      </trkpt>
      <trkpt lat="47.04274" lon="-0.84158">
        <ele>114</ele>
        <time>2015-03-16T10:24:59Z</time>
      </trkpt>
      <trkpt lat="47.04276" lon="-0.84163">
        <ele>114</ele>
        <time>2015-03-16T10:25:01Z</time>
      </trkpt>
      <trkpt lat="47.04285" lon="-0.84174">
        <ele>114</ele>
        <time>2015-03-16T10:25:11Z</time>
      </trkpt>
      <trkpt lat="47.04292" lon="-0.84171">
        <ele>114</ele>
        <time>2015-03-16T10:25:13Z</time>
      </trkpt>
      <trkpt lat="47.04289" lon="-0.84176">
        <ele>116</ele>
        <time>2015-03-16T10:25:15Z</time>
      </trkpt>
      <trkpt lat="47.0429" lon="-0.84179">
        <ele>116</ele>
        <time>2015-03-16T10:25:17Z</time>
      </trkpt>
      <trkpt lat="47.04291" lon="-0.84184">
        <ele>116</ele>
        <time>2015-03-16T10:25:20Z</time>
      </trkpt>
      <trkpt lat="47.04292" lon="-0.84187">
        <ele>116</ele>
        <time>2015-03-16T10:25:22Z</time>
      </trkpt>
      <trkpt lat="47.04294" lon="-0.8419">
        <ele>116</ele>
        <time>2015-03-16T10:25:24Z</time>
      </trkpt>
      <trkpt lat="47.04295" lon="-0.84192">
        <ele>116</ele>
        <time>2015-03-16T10:25:26Z</time>
      </trkpt>
      <trkpt lat="47.04297" lon="-0.84196">
        <ele>116</ele>
        <time>2015-03-16T10:25:28Z</time>
      </trkpt>
      <trkpt lat="47.04298" lon="-0.84198">
        <ele>116</ele>
        <time>2015-03-16T10:25:30Z</time>
      </trkpt>
      <trkpt lat="47.043" lon="-0.84202">
        <ele>116</ele>
        <time>2015-03-16T10:25:32Z</time>
      </trkpt>
      <trkpt lat="47.04302" lon="-0.84205">
        <ele>116</ele>
        <time>2015-03-16T10:25:34Z</time>
      </trkpt>
      <trkpt lat="47.04303" lon="-0.84207">
        <ele>116</ele>
        <time>2015-03-16T10:25:36Z</time>
      </trkpt>
      <trkpt lat="47.04307" lon="-0.84213">
        <ele>116</ele>
        <time>2015-03-16T10:25:40Z</time>
      </trkpt>
      <trkpt lat="47.04308" lon="-0.84216">
        <ele>116</ele>
        <time>2015-03-16T10:25:42Z</time>
      </trkpt>
      <trkpt lat="47.0431" lon="-0.84219">
        <ele>116</ele>
        <time>2015-03-16T10:25:44Z</time>
      </trkpt>
      <trkpt lat="47.04312" lon="-0.84221">
        <ele>116</ele>
        <time>2015-03-16T10:25:46Z</time>
      </trkpt>
      <trkpt lat="47.04314" lon="-0.84224">
        <ele>116</ele>
        <time>2015-03-16T10:25:48Z</time>
      </trkpt>
      <trkpt lat="47.04316" lon="-0.84228">
        <ele>116</ele>
        <time>2015-03-16T10:25:51Z</time>
      </trkpt>
      <trkpt lat="47.04319" lon="-0.84232">
        <ele>116</ele>
        <time>2015-03-16T10:25:54Z</time>
      </trkpt>
      <trkpt lat="47.0432" lon="-0.84234">
        <ele>116</ele>
        <time>2015-03-16T10:25:56Z</time>
      </trkpt>
      <trkpt lat="47.04322" lon="-0.84237">
        <ele>116</ele>
        <time>2015-03-16T10:25:58Z</time>
      </trkpt>
      <trkpt lat="47.04323" lon="-0.8424">
        <ele>116</ele>
        <time>2015-03-16T10:26:00Z</time>
      </trkpt>
      <trkpt lat="47.04325" lon="-0.84242">
        <ele>116</ele>
        <time>2015-03-16T10:26:02Z</time>
      </trkpt>
      <trkpt lat="47.04327" lon="-0.84245">
        <ele>116</ele>
        <time>2015-03-16T10:26:04Z</time>
      </trkpt>
      <trkpt lat="47.04328" lon="-0.84247">
        <ele>116</ele>
        <time>2015-03-16T10:26:06Z</time>
      </trkpt>
      <trkpt lat="47.0433" lon="-0.8425">
        <ele>116</ele>
        <time>2015-03-16T10:26:08Z</time>
      </trkpt>
      <trkpt lat="47.04331" lon="-0.84253">
        <ele>116</ele>
        <time>2015-03-16T10:26:10Z</time>
      </trkpt>
      <trkpt lat="47.04334" lon="-0.84257">
        <ele>116</ele>
        <time>2015-03-16T10:26:13Z</time>
      </trkpt>
      <trkpt lat="47.04336" lon="-0.84262">
        <ele>116</ele>
        <time>2015-03-16T10:26:16Z</time>
      </trkpt>
      <trkpt lat="47.04338" lon="-0.84264">
        <ele>116</ele>
        <time>2015-03-16T10:26:18Z</time>
      </trkpt>
      <trkpt lat="47.0434" lon="-0.84267">
        <ele>117</ele>
        <time>2015-03-16T10:26:20Z</time>
      </trkpt>
      <trkpt lat="47.04341" lon="-0.8427">
        <ele>117</ele>
        <time>2015-03-16T10:26:22Z</time>
      </trkpt>
      <trkpt lat="47.04344" lon="-0.84274">
        <ele>117</ele>
        <time>2015-03-16T10:26:25Z</time>
      </trkpt>
      <trkpt lat="47.04345" lon="-0.84277">
        <ele>117</ele>
        <time>2015-03-16T10:26:27Z</time>
      </trkpt>
      <trkpt lat="47.04346" lon="-0.84281">
        <ele>117</ele>
        <time>2015-03-16T10:26:29Z</time>
      </trkpt>
      <trkpt lat="47.04348" lon="-0.84284">
        <ele>117</ele>
        <time>2015-03-16T10:26:31Z</time>
      </trkpt>
      <trkpt lat="47.04349" lon="-0.84286">
        <ele>118</ele>
        <time>2015-03-16T10:26:33Z</time>
      </trkpt>
      <trkpt lat="47.04349" lon="-0.84289">
        <ele>118</ele>
        <time>2015-03-16T10:26:35Z</time>
      </trkpt>
      <trkpt lat="47.04349" lon="-0.84293">
        <ele>118</ele>
        <time>2015-03-16T10:26:37Z</time>
      </trkpt>
      <trkpt lat="47.04348" lon="-0.84297">
        <ele>118</ele>
        <time>2015-03-16T10:26:39Z</time>
      </trkpt>
      <trkpt lat="47.04347" lon="-0.843">
        <ele>118</ele>
        <time>2015-03-16T10:26:41Z</time>
      </trkpt>
      <trkpt lat="47.04346" lon="-0.84304">
        <ele>118</ele>
        <time>2015-03-16T10:26:43Z</time>
      </trkpt>
      <trkpt lat="47.04345" lon="-0.84307">
        <ele>118</ele>
        <time>2015-03-16T10:26:45Z</time>
      </trkpt>
      <trkpt lat="47.04343" lon="-0.8431">
        <ele>118</ele>
        <time>2015-03-16T10:26:47Z</time>
      </trkpt>
      <trkpt lat="47.04342" lon="-0.84313">
        <ele>118</ele>
        <time>2015-03-16T10:26:49Z</time>
      </trkpt>
      <trkpt lat="47.04341" lon="-0.84317">
        <ele>118</ele>
        <time>2015-03-16T10:26:51Z</time>
      </trkpt>
      <trkpt lat="47.0434" lon="-0.8432">
        <ele>118</ele>
        <time>2015-03-16T10:26:53Z</time>
      </trkpt>
      <trkpt lat="47.04338" lon="-0.84326">
        <ele>118</ele>
        <time>2015-03-16T10:26:56Z</time>
      </trkpt>
      <trkpt lat="47.04337" lon="-0.84329">
        <ele>118</ele>
        <time>2015-03-16T10:26:58Z</time>
      </trkpt>
      <trkpt lat="47.04336" lon="-0.84333">
        <ele>118</ele>
        <time>2015-03-16T10:27:00Z</time>
      </trkpt>
      <trkpt lat="47.04335" lon="-0.84337">
        <ele>118</ele>
        <time>2015-03-16T10:27:02Z</time>
      </trkpt>
      <trkpt lat="47.04335" lon="-0.84341">
        <ele>118</ele>
        <time>2015-03-16T10:27:04Z</time>
      </trkpt>
      <trkpt lat="47.04334" lon="-0.84345">
        <ele>118</ele>
        <time>2015-03-16T10:27:06Z</time>
      </trkpt>
      <trkpt lat="47.04334" lon="-0.84348">
        <ele>118</ele>
        <time>2015-03-16T10:27:08Z</time>
      </trkpt>
      <trkpt lat="47.04333" lon="-0.84352">
        <ele>118</ele>
        <time>2015-03-16T10:27:10Z</time>
      </trkpt>
      <trkpt lat="47.04333" lon="-0.84355">
        <ele>118</ele>
        <time>2015-03-16T10:27:12Z</time>
      </trkpt>
      <trkpt lat="47.04333" lon="-0.84359">
        <ele>118</ele>
        <time>2015-03-16T10:27:14Z</time>
      </trkpt>
      <trkpt lat="47.04333" lon="-0.84363">
        <ele>118</ele>
        <time>2015-03-16T10:27:16Z</time>
      </trkpt>
      <trkpt lat="47.04333" lon="-0.84367">
        <ele>118</ele>
        <time>2015-03-16T10:27:18Z</time>
      </trkpt>
      <trkpt lat="47.04332" lon="-0.84371">
        <ele>118</ele>
        <time>2015-03-16T10:27:20Z</time>
      </trkpt>
      <trkpt lat="47.04332" lon="-0.84374">
        <ele>118</ele>
        <time>2015-03-16T10:27:22Z</time>
      </trkpt>
      <trkpt lat="47.04332" lon="-0.84378">
        <ele>118</ele>
        <time>2015-03-16T10:27:24Z</time>
      </trkpt>
      <trkpt lat="47.04332" lon="-0.84382">
        <ele>118</ele>
        <time>2015-03-16T10:27:26Z</time>
      </trkpt>
      <trkpt lat="47.04332" lon="-0.84386">
        <ele>118</ele>
        <time>2015-03-16T10:27:28Z</time>
      </trkpt>
      <trkpt lat="47.04332" lon="-0.8439">
        <ele>118</ele>
        <time>2015-03-16T10:27:30Z</time>
      </trkpt>
      <trkpt lat="47.04332" lon="-0.84394">
        <ele>118</ele>
        <time>2015-03-16T10:27:32Z</time>
      </trkpt>
      <trkpt lat="47.04333" lon="-0.84397">
        <ele>118</ele>
        <time>2015-03-16T10:27:34Z</time>
      </trkpt>
      <trkpt lat="47.04333" lon="-0.84401">
        <ele>118</ele>
        <time>2015-03-16T10:27:36Z</time>
      </trkpt>
      <trkpt lat="47.04334" lon="-0.84404">
        <ele>118</ele>
        <time>2015-03-16T10:27:38Z</time>
      </trkpt>
      <trkpt lat="47.04334" lon="-0.84408">
        <ele>118</ele>
        <time>2015-03-16T10:27:40Z</time>
      </trkpt>
      <trkpt lat="47.04334" lon="-0.84412">
        <ele>118</ele>
        <time>2015-03-16T10:27:42Z</time>
      </trkpt>
      <trkpt lat="47.04334" lon="-0.84416">
        <ele>118</ele>
        <time>2015-03-16T10:27:44Z</time>
      </trkpt>
      <trkpt lat="47.04334" lon="-0.84419">
        <ele>118</ele>
        <time>2015-03-16T10:27:46Z</time>
      </trkpt>
      <trkpt lat="47.04334" lon="-0.84423">
        <ele>118</ele>
        <time>2015-03-16T10:27:48Z</time>
      </trkpt>
      <trkpt lat="47.04334" lon="-0.84426">
        <ele>118</ele>
        <time>2015-03-16T10:27:50Z</time>
      </trkpt>
      <trkpt lat="47.04334" lon="-0.8443">
        <ele>118</ele>
        <time>2015-03-16T10:27:52Z</time>
      </trkpt>
      <trkpt lat="47.04334" lon="-0.84433">
        <ele>118</ele>
        <time>2015-03-16T10:27:54Z</time>
      </trkpt>
      <trkpt lat="47.04335" lon="-0.84437">
        <ele>118</ele>
        <time>2015-03-16T10:27:56Z</time>
      </trkpt>
      <trkpt lat="47.04335" lon="-0.8444">
        <ele>118</ele>
        <time>2015-03-16T10:27:58Z</time>
      </trkpt>
      <trkpt lat="47.04335" lon="-0.84444">
        <ele>118</ele>
        <time>2015-03-16T10:28:00Z</time>
      </trkpt>
      <trkpt lat="47.04335" lon="-0.84447">
        <ele>118</ele>
        <time>2015-03-16T10:28:02Z</time>
      </trkpt>
      <trkpt lat="47.04336" lon="-0.84451">
        <ele>118</ele>
        <time>2015-03-16T10:28:04Z</time>
      </trkpt>
      <trkpt lat="47.04336" lon="-0.84454">
        <ele>118</ele>
        <time>2015-03-16T10:28:06Z</time>
      </trkpt>
      <trkpt lat="47.04336" lon="-0.84457">
        <ele>118</ele>
        <time>2015-03-16T10:28:08Z</time>
      </trkpt>
      <trkpt lat="47.04336" lon="-0.84461">
        <ele>118</ele>
        <time>2015-03-16T10:28:10Z</time>
      </trkpt>
      <trkpt lat="47.04336" lon="-0.84464">
        <ele>117</ele>
        <time>2015-03-16T10:28:12Z</time>
      </trkpt>
      <trkpt lat="47.04336" lon="-0.84468">
        <ele>117</ele>
        <time>2015-03-16T10:28:14Z</time>
      </trkpt>
      <trkpt lat="47.04337" lon="-0.84471">
        <ele>116</ele>
        <time>2015-03-16T10:28:16Z</time>
      </trkpt>
      <trkpt lat="47.04336" lon="-0.84475">
        <ele>116</ele>
        <time>2015-03-16T10:28:18Z</time>
      </trkpt>
      <trkpt lat="47.04336" lon="-0.84479">
        <ele>116</ele>
        <time>2015-03-16T10:28:20Z</time>
      </trkpt>
      <trkpt lat="47.04336" lon="-0.84483">
        <ele>116</ele>
        <time>2015-03-16T10:28:22Z</time>
      </trkpt>
      <trkpt lat="47.04336" lon="-0.84487">
        <ele>116</ele>
        <time>2015-03-16T10:28:24Z</time>
      </trkpt>
      <trkpt lat="47.04336" lon="-0.84491">
        <ele>116</ele>
        <time>2015-03-16T10:28:26Z</time>
      </trkpt>
      <trkpt lat="47.04336" lon="-0.84494">
        <ele>116</ele>
        <time>2015-03-16T10:28:28Z</time>
      </trkpt>
      <trkpt lat="47.04337" lon="-0.84498">
        <ele>116</ele>
        <time>2015-03-16T10:28:30Z</time>
      </trkpt>
      <trkpt lat="47.04337" lon="-0.84502">
        <ele>116</ele>
        <time>2015-03-16T10:28:32Z</time>
      </trkpt>
      <trkpt lat="47.04338" lon="-0.84505">
        <ele>116</ele>
        <time>2015-03-16T10:28:34Z</time>
      </trkpt>
      <trkpt lat="47.04339" lon="-0.84509">
        <ele>116</ele>
        <time>2015-03-16T10:28:36Z</time>
      </trkpt>
      <trkpt lat="47.04339" lon="-0.84513">
        <ele>116</ele>
        <time>2015-03-16T10:28:38Z</time>
      </trkpt>
      <trkpt lat="47.04339" lon="-0.84517">
        <ele>116</ele>
        <time>2015-03-16T10:28:40Z</time>
      </trkpt>
      <trkpt lat="47.04339" lon="-0.84521">
        <ele>116</ele>
        <time>2015-03-16T10:28:42Z</time>
      </trkpt>
      <trkpt lat="47.04339" lon="-0.84525">
        <ele>116</ele>
        <time>2015-03-16T10:28:44Z</time>
      </trkpt>
      <trkpt lat="47.0434" lon="-0.8453">
        <ele>116</ele>
        <time>2015-03-16T10:28:46Z</time>
      </trkpt>
      <trkpt lat="47.0434" lon="-0.84534">
        <ele>116</ele>
        <time>2015-03-16T10:28:48Z</time>
      </trkpt>
      <trkpt lat="47.0434" lon="-0.84538">
        <ele>116</ele>
        <time>2015-03-16T10:28:50Z</time>
      </trkpt>
      <trkpt lat="47.0434" lon="-0.84541">
        <ele>116</ele>
        <time>2015-03-16T10:28:52Z</time>
      </trkpt>
      <trkpt lat="47.04341" lon="-0.84544">
        <ele>116</ele>
        <time>2015-03-16T10:28:54Z</time>
      </trkpt>
      <trkpt lat="47.04341" lon="-0.84547">
        <ele>116</ele>
        <time>2015-03-16T10:28:56Z</time>
      </trkpt>
      <trkpt lat="47.04341" lon="-0.84551">
        <ele>116</ele>
        <time>2015-03-16T10:28:58Z</time>
      </trkpt>
      <trkpt lat="47.0434" lon="-0.84556">
        <ele>116</ele>
        <time>2015-03-16T10:29:01Z</time>
      </trkpt>
      <trkpt lat="47.04341" lon="-0.84559">
        <ele>116</ele>
        <time>2015-03-16T10:29:03Z</time>
      </trkpt>
      <trkpt lat="47.04342" lon="-0.84563">
        <ele>116</ele>
        <time>2015-03-16T10:29:05Z</time>
      </trkpt>
      <trkpt lat="47.04342" lon="-0.84567">
        <ele>116</ele>
        <time>2015-03-16T10:29:07Z</time>
      </trkpt>
      <trkpt lat="47.04342" lon="-0.84571">
        <ele>116</ele>
        <time>2015-03-16T10:29:09Z</time>
      </trkpt>
      <trkpt lat="47.04342" lon="-0.84575">
        <ele>116</ele>
        <time>2015-03-16T10:29:11Z</time>
      </trkpt>
      <trkpt lat="47.04342" lon="-0.84579">
        <ele>116</ele>
        <time>2015-03-16T10:29:13Z</time>
      </trkpt>
      <trkpt lat="47.04342" lon="-0.84583">
        <ele>116</ele>
        <time>2015-03-16T10:29:15Z</time>
      </trkpt>
      <trkpt lat="47.04342" lon="-0.84586">
        <ele>116</ele>
        <time>2015-03-16T10:29:17Z</time>
      </trkpt>
      <trkpt lat="47.04342" lon="-0.84589">
        <ele>116</ele>
        <time>2015-03-16T10:29:19Z</time>
      </trkpt>
      <trkpt lat="47.04343" lon="-0.84593">
        <ele>116</ele>
        <time>2015-03-16T10:29:21Z</time>
      </trkpt>
      <trkpt lat="47.04343" lon="-0.84597">
        <ele>116</ele>
        <time>2015-03-16T10:29:23Z</time>
      </trkpt>
      <trkpt lat="47.04344" lon="-0.84601">
        <ele>116</ele>
        <time>2015-03-16T10:29:25Z</time>
      </trkpt>
      <trkpt lat="47.04344" lon="-0.84604">
        <ele>116</ele>
        <time>2015-03-16T10:29:27Z</time>
      </trkpt>
      <trkpt lat="47.04344" lon="-0.84608">
        <ele>116</ele>
        <time>2015-03-16T10:29:29Z</time>
      </trkpt>
      <trkpt lat="47.04345" lon="-0.84611">
        <ele>116</ele>
        <time>2015-03-16T10:29:31Z</time>
      </trkpt>
      <trkpt lat="47.04345" lon="-0.84615">
        <ele>115</ele>
        <time>2015-03-16T10:29:33Z</time>
      </trkpt>
      <trkpt lat="47.04345" lon="-0.84619">
        <ele>115</ele>
        <time>2015-03-16T10:29:35Z</time>
      </trkpt>
      <trkpt lat="47.04345" lon="-0.84623">
        <ele>114</ele>
        <time>2015-03-16T10:29:37Z</time>
      </trkpt>
      <trkpt lat="47.04346" lon="-0.84626">
        <ele>114</ele>
        <time>2015-03-16T10:29:39Z</time>
      </trkpt>
      <trkpt lat="47.04346" lon="-0.8463">
        <ele>114</ele>
        <time>2015-03-16T10:29:41Z</time>
      </trkpt>
      <trkpt lat="47.04345" lon="-0.84633">
        <ele>114</ele>
        <time>2015-03-16T10:29:43Z</time>
      </trkpt>
      <trkpt lat="47.04346" lon="-0.84638">
        <ele>114</ele>
        <time>2015-03-16T10:29:45Z</time>
      </trkpt>
      <trkpt lat="47.04346" lon="-0.84641">
        <ele>114</ele>
        <time>2015-03-16T10:29:47Z</time>
      </trkpt>
      <trkpt lat="47.04346" lon="-0.84645">
        <ele>114</ele>
        <time>2015-03-16T10:29:49Z</time>
      </trkpt>
      <trkpt lat="47.04346" lon="-0.84649">
        <ele>114</ele>
        <time>2015-03-16T10:29:51Z</time>
      </trkpt>
      <trkpt lat="47.04346" lon="-0.84652">
        <ele>114</ele>
        <time>2015-03-16T10:29:53Z</time>
      </trkpt>
      <trkpt lat="47.04347" lon="-0.84656">
        <ele>114</ele>
        <time>2015-03-16T10:29:55Z</time>
      </trkpt>
      <trkpt lat="47.04347" lon="-0.84659">
        <ele>114</ele>
        <time>2015-03-16T10:29:57Z</time>
      </trkpt>
      <trkpt lat="47.04347" lon="-0.84663">
        <ele>114</ele>
        <time>2015-03-16T10:29:59Z</time>
      </trkpt>
      <trkpt lat="47.04347" lon="-0.84667">
        <ele>114</ele>
        <time>2015-03-16T10:30:01Z</time>
      </trkpt>
      <trkpt lat="47.04347" lon="-0.84671">
        <ele>114</ele>
        <time>2015-03-16T10:30:03Z</time>
      </trkpt>
      <trkpt lat="47.04348" lon="-0.84674">
        <ele>114</ele>
        <time>2015-03-16T10:30:05Z</time>
      </trkpt>
      <trkpt lat="47.04348" lon="-0.84677">
        <ele>114</ele>
        <time>2015-03-16T10:30:07Z</time>
      </trkpt>
      <trkpt lat="47.04348" lon="-0.84681">
        <ele>114</ele>
        <time>2015-03-16T10:30:09Z</time>
      </trkpt>
      <trkpt lat="47.04348" lon="-0.84685">
        <ele>114</ele>
        <time>2015-03-16T10:30:11Z</time>
      </trkpt>
      <trkpt lat="47.04348" lon="-0.84689">
        <ele>114</ele>
        <time>2015-03-16T10:30:13Z</time>
      </trkpt>
      <trkpt lat="47.04348" lon="-0.84692">
        <ele>114</ele>
        <time>2015-03-16T10:30:15Z</time>
      </trkpt>
      <trkpt lat="47.04349" lon="-0.84696">
        <ele>114</ele>
        <time>2015-03-16T10:30:17Z</time>
      </trkpt>
      <trkpt lat="47.04349" lon="-0.84699">
        <ele>114</ele>
        <time>2015-03-16T10:30:19Z</time>
      </trkpt>
      <trkpt lat="47.04349" lon="-0.84703">
        <ele>114</ele>
        <time>2015-03-16T10:30:21Z</time>
      </trkpt>
      <trkpt lat="47.04349" lon="-0.84707">
        <ele>114</ele>
        <time>2015-03-16T10:30:23Z</time>
      </trkpt>
      <trkpt lat="47.0435" lon="-0.84711">
        <ele>114</ele>
        <time>2015-03-16T10:30:25Z</time>
      </trkpt>
      <trkpt lat="47.0435" lon="-0.84715">
        <ele>114</ele>
        <time>2015-03-16T10:30:27Z</time>
      </trkpt>
      <trkpt lat="47.0435" lon="-0.84718">
        <ele>114</ele>
        <time>2015-03-16T10:30:29Z</time>
      </trkpt>
      <trkpt lat="47.04351" lon="-0.84722">
        <ele>114</ele>
        <time>2015-03-16T10:30:31Z</time>
      </trkpt>
      <trkpt lat="47.04352" lon="-0.84726">
        <ele>114</ele>
        <time>2015-03-16T10:30:33Z</time>
      </trkpt>
      <trkpt lat="47.04353" lon="-0.84729">
        <ele>114</ele>
        <time>2015-03-16T10:30:35Z</time>
      </trkpt>
      <trkpt lat="47.04355" lon="-0.84733">
        <ele>114</ele>
        <time>2015-03-16T10:30:37Z</time>
      </trkpt>
      <trkpt lat="47.04356" lon="-0.84736">
        <ele>114</ele>
        <time>2015-03-16T10:30:39Z</time>
      </trkpt>
      <trkpt lat="47.04357" lon="-0.84739">
        <ele>114</ele>
        <time>2015-03-16T10:30:41Z</time>
      </trkpt>
      <trkpt lat="47.04359" lon="-0.84742">
        <ele>114</ele>
        <time>2015-03-16T10:30:43Z</time>
      </trkpt>
      <trkpt lat="47.0436" lon="-0.84746">
        <ele>114</ele>
        <time>2015-03-16T10:30:45Z</time>
      </trkpt>
      <trkpt lat="47.04361" lon="-0.84749">
        <ele>114</ele>
        <time>2015-03-16T10:30:47Z</time>
      </trkpt>
      <trkpt lat="47.04362" lon="-0.84752">
        <ele>114</ele>
        <time>2015-03-16T10:30:49Z</time>
      </trkpt>
      <trkpt lat="47.04364" lon="-0.84755">
        <ele>114</ele>
        <time>2015-03-16T10:30:51Z</time>
      </trkpt>
      <trkpt lat="47.04366" lon="-0.84758">
        <ele>114</ele>
        <time>2015-03-16T10:30:53Z</time>
      </trkpt>
      <trkpt lat="47.04367" lon="-0.84761">
        <ele>114</ele>
        <time>2015-03-16T10:30:55Z</time>
      </trkpt>
      <trkpt lat="47.04368" lon="-0.84764">
        <ele>114</ele>
        <time>2015-03-16T10:30:57Z</time>
      </trkpt>
      <trkpt lat="47.04369" lon="-0.84767">
        <ele>114</ele>
        <time>2015-03-16T10:30:59Z</time>
      </trkpt>
      <trkpt lat="47.04372" lon="-0.84769">
        <ele>114</ele>
        <time>2015-03-16T10:31:01Z</time>
      </trkpt>
      <trkpt lat="47.04373" lon="-0.84772">
        <ele>114</ele>
        <time>2015-03-16T10:31:03Z</time>
      </trkpt>
      <trkpt lat="47.04374" lon="-0.84775">
        <ele>114</ele>
        <time>2015-03-16T10:31:05Z</time>
      </trkpt>
      <trkpt lat="47.04375" lon="-0.84778">
        <ele>114</ele>
        <time>2015-03-16T10:31:07Z</time>
      </trkpt>
      <trkpt lat="47.04377" lon="-0.84781">
        <ele>114</ele>
        <time>2015-03-16T10:31:09Z</time>
      </trkpt>
      <trkpt lat="47.04379" lon="-0.84784">
        <ele>114</ele>
        <time>2015-03-16T10:31:11Z</time>
      </trkpt>
      <trkpt lat="47.04381" lon="-0.84787">
        <ele>114</ele>
        <time>2015-03-16T10:31:13Z</time>
      </trkpt>
      <trkpt lat="47.04383" lon="-0.8479">
        <ele>113</ele>
        <time>2015-03-16T10:31:15Z</time>
      </trkpt>
      <trkpt lat="47.04385" lon="-0.84794">
        <ele>113</ele>
        <time>2015-03-16T10:31:18Z</time>
      </trkpt>
      <trkpt lat="47.04388" lon="-0.84798">
        <ele>113</ele>
        <time>2015-03-16T10:31:21Z</time>
      </trkpt>
      <trkpt lat="47.0439" lon="-0.848">
        <ele>113</ele>
        <time>2015-03-16T10:31:23Z</time>
      </trkpt>
      <trkpt lat="47.04391" lon="-0.84803">
        <ele>112</ele>
        <time>2015-03-16T10:31:25Z</time>
      </trkpt>
      <trkpt lat="47.04393" lon="-0.84806">
        <ele>112</ele>
        <time>2015-03-16T10:31:27Z</time>
      </trkpt>
      <trkpt lat="47.04395" lon="-0.84809">
        <ele>112</ele>
        <time>2015-03-16T10:31:29Z</time>
      </trkpt>
      <trkpt lat="47.04396" lon="-0.84811">
        <ele>112</ele>
        <time>2015-03-16T10:31:31Z</time>
      </trkpt>
      <trkpt lat="47.04398" lon="-0.84814">
        <ele>112</ele>
        <time>2015-03-16T10:31:33Z</time>
      </trkpt>
      <trkpt lat="47.04399" lon="-0.84817">
        <ele>112</ele>
        <time>2015-03-16T10:31:35Z</time>
      </trkpt>
      <trkpt lat="47.04402" lon="-0.8482">
        <ele>112</ele>
        <time>2015-03-16T10:31:37Z</time>
      </trkpt>
      <trkpt lat="47.04403" lon="-0.84823">
        <ele>112</ele>
        <time>2015-03-16T10:31:39Z</time>
      </trkpt>
      <trkpt lat="47.04404" lon="-0.84826">
        <ele>112</ele>
        <time>2015-03-16T10:31:41Z</time>
      </trkpt>
      <trkpt lat="47.04406" lon="-0.84829">
        <ele>112</ele>
        <time>2015-03-16T10:31:43Z</time>
      </trkpt>
      <trkpt lat="47.04409" lon="-0.84833">
        <ele>112</ele>
        <time>2015-03-16T10:31:46Z</time>
      </trkpt>
      <trkpt lat="47.04411" lon="-0.84836">
        <ele>112</ele>
        <time>2015-03-16T10:31:48Z</time>
      </trkpt>
      <trkpt lat="47.04413" lon="-0.8484">
        <ele>112</ele>
        <time>2015-03-16T10:31:51Z</time>
      </trkpt>
      <trkpt lat="47.04414" lon="-0.84843">
        <ele>112</ele>
        <time>2015-03-16T10:31:53Z</time>
      </trkpt>
      <trkpt lat="47.04417" lon="-0.84847">
        <ele>112</ele>
        <time>2015-03-16T10:31:56Z</time>
      </trkpt>
      <trkpt lat="47.04419" lon="-0.84851">
        <ele>112</ele>
        <time>2015-03-16T10:31:58Z</time>
      </trkpt>
      <trkpt lat="47.04422" lon="-0.84853">
        <ele>111</ele>
        <time>2015-03-16T10:32:00Z</time>
      </trkpt>
      <trkpt lat="47.04423" lon="-0.84856">
        <ele>111</ele>
        <time>2015-03-16T10:32:02Z</time>
      </trkpt>
      <trkpt lat="47.04425" lon="-0.84859">
        <ele>111</ele>
        <time>2015-03-16T10:32:04Z</time>
      </trkpt>
      <trkpt lat="47.04427" lon="-0.84861">
        <ele>111</ele>
        <time>2015-03-16T10:32:06Z</time>
      </trkpt>
      <trkpt lat="47.04428" lon="-0.84863">
        <ele>110</ele>
        <time>2015-03-16T10:32:08Z</time>
      </trkpt>
      <trkpt lat="47.04431" lon="-0.84868">
        <ele>110</ele>
        <time>2015-03-16T10:32:11Z</time>
      </trkpt>
      <trkpt lat="47.04432" lon="-0.84871">
        <ele>110</ele>
        <time>2015-03-16T10:32:13Z</time>
      </trkpt>
      <trkpt lat="47.04434" lon="-0.84874">
        <ele>110</ele>
        <time>2015-03-16T10:32:15Z</time>
      </trkpt>
      <trkpt lat="47.04436" lon="-0.84877">
        <ele>110</ele>
        <time>2015-03-16T10:32:17Z</time>
      </trkpt>
      <trkpt lat="47.04438" lon="-0.8488">
        <ele>110</ele>
        <time>2015-03-16T10:32:19Z</time>
      </trkpt>
      <trkpt lat="47.04439" lon="-0.84883">
        <ele>110</ele>
        <time>2015-03-16T10:32:21Z</time>
      </trkpt>
      <trkpt lat="47.04441" lon="-0.84886">
        <ele>110</ele>
        <time>2015-03-16T10:32:23Z</time>
      </trkpt>
      <trkpt lat="47.04442" lon="-0.84889">
        <ele>110</ele>
        <time>2015-03-16T10:32:25Z</time>
      </trkpt>
      <trkpt lat="47.04443" lon="-0.84892">
        <ele>110</ele>
        <time>2015-03-16T10:32:27Z</time>
      </trkpt>
      <trkpt lat="47.04444" lon="-0.84895">
        <ele>110</ele>
        <time>2015-03-16T10:32:29Z</time>
      </trkpt>
      <trkpt lat="47.04446" lon="-0.84899">
        <ele>110</ele>
        <time>2015-03-16T10:32:31Z</time>
      </trkpt>
      <trkpt lat="47.04446" lon="-0.84902">
        <ele>110</ele>
        <time>2015-03-16T10:32:33Z</time>
      </trkpt>
      <trkpt lat="47.04447" lon="-0.84905">
        <ele>110</ele>
        <time>2015-03-16T10:32:35Z</time>
      </trkpt>
      <trkpt lat="47.04448" lon="-0.84908">
        <ele>110</ele>
        <time>2015-03-16T10:32:37Z</time>
      </trkpt>
      <trkpt lat="47.04449" lon="-0.84912">
        <ele>110</ele>
        <time>2015-03-16T10:32:39Z</time>
      </trkpt>
      <trkpt lat="47.04451" lon="-0.84915">
        <ele>110</ele>
        <time>2015-03-16T10:32:41Z</time>
      </trkpt>
      <trkpt lat="47.04451" lon="-0.84919">
        <ele>110</ele>
        <time>2015-03-16T10:32:43Z</time>
      </trkpt>
      <trkpt lat="47.04452" lon="-0.84922">
        <ele>110</ele>
        <time>2015-03-16T10:32:45Z</time>
      </trkpt>
      <trkpt lat="47.04453" lon="-0.84926">
        <ele>110</ele>
        <time>2015-03-16T10:32:47Z</time>
      </trkpt>
      <trkpt lat="47.04455" lon="-0.84929">
        <ele>110</ele>
        <time>2015-03-16T10:32:49Z</time>
      </trkpt>
      <trkpt lat="47.04456" lon="-0.84933">
        <ele>110</ele>
        <time>2015-03-16T10:32:51Z</time>
      </trkpt>
      <trkpt lat="47.04456" lon="-0.84936">
        <ele>110</ele>
        <time>2015-03-16T10:32:53Z</time>
      </trkpt>
      <trkpt lat="47.04457" lon="-0.84939">
        <ele>110</ele>
        <time>2015-03-16T10:32:55Z</time>
      </trkpt>
      <trkpt lat="47.04458" lon="-0.84943">
        <ele>110</ele>
        <time>2015-03-16T10:32:57Z</time>
      </trkpt>
      <trkpt lat="47.04459" lon="-0.84947">
        <ele>110</ele>
        <time>2015-03-16T10:32:59Z</time>
      </trkpt>
      <trkpt lat="47.04459" lon="-0.8495">
        <ele>110</ele>
        <time>2015-03-16T10:33:01Z</time>
      </trkpt>
      <trkpt lat="47.0446" lon="-0.84953">
        <ele>110</ele>
        <time>2015-03-16T10:33:03Z</time>
      </trkpt>
      <trkpt lat="47.04461" lon="-0.84957">
        <ele>110</ele>
        <time>2015-03-16T10:33:05Z</time>
      </trkpt>
      <trkpt lat="47.04463" lon="-0.84961">
        <ele>110</ele>
        <time>2015-03-16T10:33:07Z</time>
      </trkpt>
      <trkpt lat="47.04464" lon="-0.84964">
        <ele>110</ele>
        <time>2015-03-16T10:33:09Z</time>
      </trkpt>
      <trkpt lat="47.04464" lon="-0.84967">
        <ele>110</ele>
        <time>2015-03-16T10:33:11Z</time>
      </trkpt>
      <trkpt lat="47.04466" lon="-0.84971">
        <ele>110</ele>
        <time>2015-03-16T10:33:13Z</time>
      </trkpt>
      <trkpt lat="47.04468" lon="-0.84974">
        <ele>110</ele>
        <time>2015-03-16T10:33:15Z</time>
      </trkpt>
      <trkpt lat="47.0447" lon="-0.84978">
        <ele>110</ele>
        <time>2015-03-16T10:33:17Z</time>
      </trkpt>
      <trkpt lat="47.04471" lon="-0.8498">
        <ele>110</ele>
        <time>2015-03-16T10:33:19Z</time>
      </trkpt>
      <trkpt lat="47.04472" lon="-0.84984">
        <ele>110</ele>
        <time>2015-03-16T10:33:21Z</time>
      </trkpt>
      <trkpt lat="47.04474" lon="-0.84987">
        <ele>110</ele>
        <time>2015-03-16T10:33:23Z</time>
      </trkpt>
      <trkpt lat="47.04475" lon="-0.84991">
        <ele>110</ele>
        <time>2015-03-16T10:33:25Z</time>
      </trkpt>
      <trkpt lat="47.04476" lon="-0.84994">
        <ele>110</ele>
        <time>2015-03-16T10:33:27Z</time>
      </trkpt>
      <trkpt lat="47.04477" lon="-0.84997">
        <ele>110</ele>
        <time>2015-03-16T10:33:29Z</time>
      </trkpt>
      <trkpt lat="47.04479" lon="-0.85">
        <ele>110</ele>
        <time>2015-03-16T10:33:31Z</time>
      </trkpt>
      <trkpt lat="47.0448" lon="-0.85004">
        <ele>110</ele>
        <time>2015-03-16T10:33:33Z</time>
      </trkpt>
      <trkpt lat="47.04482" lon="-0.85006">
        <ele>110</ele>
        <time>2015-03-16T10:33:35Z</time>
      </trkpt>
      <trkpt lat="47.04484" lon="-0.85011">
        <ele>110</ele>
        <time>2015-03-16T10:33:38Z</time>
      </trkpt>
      <trkpt lat="47.04486" lon="-0.85014">
        <ele>110</ele>
        <time>2015-03-16T10:33:40Z</time>
      </trkpt>
      <trkpt lat="47.04487" lon="-0.85018">
        <ele>110</ele>
        <time>2015-03-16T10:33:42Z</time>
      </trkpt>
      <trkpt lat="47.04488" lon="-0.85021">
        <ele>110</ele>
        <time>2015-03-16T10:33:44Z</time>
      </trkpt>
      <trkpt lat="47.04491" lon="-0.85024">
        <ele>110</ele>
        <time>2015-03-16T10:33:46Z</time>
      </trkpt>
      <trkpt lat="47.04492" lon="-0.85027">
        <ele>110</ele>
        <time>2015-03-16T10:33:48Z</time>
      </trkpt>
      <trkpt lat="47.04493" lon="-0.85031">
        <ele>110</ele>
        <time>2015-03-16T10:33:50Z</time>
      </trkpt>
      <trkpt lat="47.04494" lon="-0.85034">
        <ele>110</ele>
        <time>2015-03-16T10:33:52Z</time>
      </trkpt>
      <trkpt lat="47.04496" lon="-0.85039">
        <ele>110</ele>
        <time>2015-03-16T10:33:55Z</time>
      </trkpt>
      <trkpt lat="47.04498" lon="-0.85042">
        <ele>110</ele>
        <time>2015-03-16T10:33:57Z</time>
      </trkpt>
      <trkpt lat="47.04499" lon="-0.85044">
        <ele>110</ele>
        <time>2015-03-16T10:33:59Z</time>
      </trkpt>
      <trkpt lat="47.04501" lon="-0.85047">
        <ele>110</ele>
        <time>2015-03-16T10:34:01Z</time>
      </trkpt>
      <trkpt lat="47.04502" lon="-0.8505">
        <ele>110</ele>
        <time>2015-03-16T10:34:03Z</time>
      </trkpt>
      <trkpt lat="47.04504" lon="-0.85053">
        <ele>110</ele>
        <time>2015-03-16T10:34:05Z</time>
      </trkpt>
      <trkpt lat="47.04506" lon="-0.85057">
        <ele>110</ele>
        <time>2015-03-16T10:34:08Z</time>
      </trkpt>
      <trkpt lat="47.04508" lon="-0.8506">
        <ele>110</ele>
        <time>2015-03-16T10:34:10Z</time>
      </trkpt>
      <trkpt lat="47.04509" lon="-0.85062">
        <ele>110</ele>
        <time>2015-03-16T10:34:12Z</time>
      </trkpt>
      <trkpt lat="47.04512" lon="-0.85065">
        <ele>110</ele>
        <time>2015-03-16T10:34:14Z</time>
      </trkpt>
      <trkpt lat="47.04514" lon="-0.85067">
        <ele>110</ele>
        <time>2015-03-16T10:34:16Z</time>
      </trkpt>
      <trkpt lat="47.04515" lon="-0.8507">
        <ele>110</ele>
        <time>2015-03-16T10:34:18Z</time>
      </trkpt>
      <trkpt lat="47.04518" lon="-0.85074">
        <ele>110</ele>
        <time>2015-03-16T10:34:21Z</time>
      </trkpt>
      <trkpt lat="47.0452" lon="-0.85076">
        <ele>110</ele>
        <time>2015-03-16T10:34:23Z</time>
      </trkpt>
      <trkpt lat="47.04522" lon="-0.85079">
        <ele>110</ele>
        <time>2015-03-16T10:34:25Z</time>
      </trkpt>
      <trkpt lat="47.04525" lon="-0.85083">
        <ele>110</ele>
        <time>2015-03-16T10:34:28Z</time>
      </trkpt>
      <trkpt lat="47.04527" lon="-0.85085">
        <ele>110</ele>
        <time>2015-03-16T10:34:30Z</time>
      </trkpt>
      <trkpt lat="47.04528" lon="-0.85088">
        <ele>110</ele>
        <time>2015-03-16T10:34:32Z</time>
      </trkpt>
      <trkpt lat="47.0453" lon="-0.8509">
        <ele>110</ele>
        <time>2015-03-16T10:34:34Z</time>
      </trkpt>
      <trkpt lat="47.04532" lon="-0.85093">
        <ele>110</ele>
        <time>2015-03-16T10:34:36Z</time>
      </trkpt>
      <trkpt lat="47.04534" lon="-0.85096">
        <ele>111</ele>
        <time>2015-03-16T10:34:38Z</time>
      </trkpt>
      <trkpt lat="47.04536" lon="-0.85098">
        <ele>111</ele>
        <time>2015-03-16T10:34:40Z</time>
      </trkpt>
      <trkpt lat="47.04537" lon="-0.85101">
        <ele>111</ele>
        <time>2015-03-16T10:34:42Z</time>
      </trkpt>
      <trkpt lat="47.0454" lon="-0.85105">
        <ele>111</ele>
        <time>2015-03-16T10:34:45Z</time>
      </trkpt>
      <trkpt lat="47.04541" lon="-0.85108">
        <ele>112</ele>
        <time>2015-03-16T10:34:47Z</time>
      </trkpt>
      <trkpt lat="47.04543" lon="-0.85111">
        <ele>112</ele>
        <time>2015-03-16T10:34:49Z</time>
      </trkpt>
      <trkpt lat="47.04545" lon="-0.85115">
        <ele>112</ele>
        <time>2015-03-16T10:34:52Z</time>
      </trkpt>
      <trkpt lat="47.04547" lon="-0.85118">
        <ele>112</ele>
        <time>2015-03-16T10:34:54Z</time>
      </trkpt>
      <trkpt lat="47.04549" lon="-0.85121">
        <ele>112</ele>
        <time>2015-03-16T10:34:56Z</time>
      </trkpt>
      <trkpt lat="47.0455" lon="-0.85124">
        <ele>112</ele>
        <time>2015-03-16T10:34:58Z</time>
      </trkpt>
      <trkpt lat="47.04552" lon="-0.85127">
        <ele>112</ele>
        <time>2015-03-16T10:35:00Z</time>
      </trkpt>
      <trkpt lat="47.04553" lon="-0.8513">
        <ele>112</ele>
        <time>2015-03-16T10:35:02Z</time>
      </trkpt>
      <trkpt lat="47.04554" lon="-0.85133">
        <ele>113</ele>
        <time>2015-03-16T10:35:04Z</time>
      </trkpt>
      <trkpt lat="47.04556" lon="-0.85136">
        <ele>113</ele>
        <time>2015-03-16T10:35:06Z</time>
      </trkpt>
      <trkpt lat="47.04557" lon="-0.85139">
        <ele>113</ele>
        <time>2015-03-16T10:35:08Z</time>
      </trkpt>
      <trkpt lat="47.04558" lon="-0.85142">
        <ele>113</ele>
        <time>2015-03-16T10:35:10Z</time>
      </trkpt>
      <trkpt lat="47.04559" lon="-0.85145">
        <ele>113</ele>
        <time>2015-03-16T10:35:12Z</time>
      </trkpt>
      <trkpt lat="47.04561" lon="-0.85149">
        <ele>113</ele>
        <time>2015-03-16T10:35:14Z</time>
      </trkpt>
      <trkpt lat="47.04562" lon="-0.85152">
        <ele>113</ele>
        <time>2015-03-16T10:35:16Z</time>
      </trkpt>
      <trkpt lat="47.04564" lon="-0.85155">
        <ele>113</ele>
        <time>2015-03-16T10:35:18Z</time>
      </trkpt>
      <trkpt lat="47.04565" lon="-0.85158">
        <ele>113</ele>
        <time>2015-03-16T10:35:20Z</time>
      </trkpt>
      <trkpt lat="47.04567" lon="-0.85162">
        <ele>113</ele>
        <time>2015-03-16T10:35:22Z</time>
      </trkpt>
      <trkpt lat="47.04567" lon="-0.85165">
        <ele>113</ele>
        <time>2015-03-16T10:35:24Z</time>
      </trkpt>
      <trkpt lat="47.04569" lon="-0.85168">
        <ele>113</ele>
        <time>2015-03-16T10:35:26Z</time>
      </trkpt>
      <trkpt lat="47.0457" lon="-0.85171">
        <ele>113</ele>
        <time>2015-03-16T10:35:28Z</time>
      </trkpt>
      <trkpt lat="47.04571" lon="-0.85174">
        <ele>113</ele>
        <time>2015-03-16T10:35:30Z</time>
      </trkpt>
      <trkpt lat="47.04573" lon="-0.85177">
        <ele>113</ele>
        <time>2015-03-16T10:35:32Z</time>
      </trkpt>
      <trkpt lat="47.04574" lon="-0.85181">
        <ele>113</ele>
        <time>2015-03-16T10:35:34Z</time>
      </trkpt>
      <trkpt lat="47.04575" lon="-0.85184">
        <ele>113</ele>
        <time>2015-03-16T10:35:36Z</time>
      </trkpt>
      <trkpt lat="47.04576" lon="-0.85188">
        <ele>113</ele>
        <time>2015-03-16T10:35:38Z</time>
      </trkpt>
      <trkpt lat="47.04577" lon="-0.85191">
        <ele>113</ele>
        <time>2015-03-16T10:35:40Z</time>
      </trkpt>
      <trkpt lat="47.04578" lon="-0.85194">
        <ele>113</ele>
        <time>2015-03-16T10:35:42Z</time>
      </trkpt>
      <trkpt lat="47.04579" lon="-0.85197">
        <ele>113</ele>
        <time>2015-03-16T10:35:44Z</time>
      </trkpt>
      <trkpt lat="47.04581" lon="-0.85201">
        <ele>113</ele>
        <time>2015-03-16T10:35:46Z</time>
      </trkpt>
      <trkpt lat="47.04582" lon="-0.85204">
        <ele>113</ele>
        <time>2015-03-16T10:35:48Z</time>
      </trkpt>
      <trkpt lat="47.04583" lon="-0.85207">
        <ele>113</ele>
        <time>2015-03-16T10:35:50Z</time>
      </trkpt>
      <trkpt lat="47.04584" lon="-0.85211">
        <ele>113</ele>
        <time>2015-03-16T10:35:52Z</time>
      </trkpt>
      <trkpt lat="47.04585" lon="-0.85214">
        <ele>113</ele>
        <time>2015-03-16T10:35:54Z</time>
      </trkpt>
      <trkpt lat="47.04586" lon="-0.85217">
        <ele>113</ele>
        <time>2015-03-16T10:35:56Z</time>
      </trkpt>
      <trkpt lat="47.04587" lon="-0.85221">
        <ele>113</ele>
        <time>2015-03-16T10:35:58Z</time>
      </trkpt>
      <trkpt lat="47.04588" lon="-0.85225">
        <ele>113</ele>
        <time>2015-03-16T10:36:00Z</time>
      </trkpt>
      <trkpt lat="47.04588" lon="-0.85228">
        <ele>113</ele>
        <time>2015-03-16T10:36:02Z</time>
      </trkpt>
      <trkpt lat="47.0459" lon="-0.85232">
        <ele>113</ele>
        <time>2015-03-16T10:36:04Z</time>
      </trkpt>
      <trkpt lat="47.04591" lon="-0.85235">
        <ele>113</ele>
        <time>2015-03-16T10:36:06Z</time>
      </trkpt>
      <trkpt lat="47.04592" lon="-0.85238">
        <ele>113</ele>
        <time>2015-03-16T10:36:08Z</time>
      </trkpt>
      <trkpt lat="47.04593" lon="-0.85241">
        <ele>113</ele>
        <time>2015-03-16T10:36:10Z</time>
      </trkpt>
      <trkpt lat="47.04594" lon="-0.85245">
        <ele>113</ele>
        <time>2015-03-16T10:36:12Z</time>
      </trkpt>
      <trkpt lat="47.04596" lon="-0.85248">
        <ele>113</ele>
        <time>2015-03-16T10:36:14Z</time>
      </trkpt>
      <trkpt lat="47.04597" lon="-0.85251">
        <ele>113</ele>
        <time>2015-03-16T10:36:16Z</time>
      </trkpt>
      <trkpt lat="47.04598" lon="-0.85254">
        <ele>113</ele>
        <time>2015-03-16T10:36:18Z</time>
      </trkpt>
      <trkpt lat="47.04599" lon="-0.85258">
        <ele>113</ele>
        <time>2015-03-16T10:36:20Z</time>
      </trkpt>
      <trkpt lat="47.046" lon="-0.85261">
        <ele>113</ele>
        <time>2015-03-16T10:36:22Z</time>
      </trkpt>
      <trkpt lat="47.04601" lon="-0.85264">
        <ele>113</ele>
        <time>2015-03-16T10:36:24Z</time>
      </trkpt>
      <trkpt lat="47.04603" lon="-0.85268">
        <ele>113</ele>
        <time>2015-03-16T10:36:26Z</time>
      </trkpt>
      <trkpt lat="47.04604" lon="-0.85271">
        <ele>113</ele>
        <time>2015-03-16T10:36:28Z</time>
      </trkpt>
      <trkpt lat="47.04605" lon="-0.85274">
        <ele>113</ele>
        <time>2015-03-16T10:36:30Z</time>
      </trkpt>
      <trkpt lat="47.04607" lon="-0.85277">
        <ele>113</ele>
        <time>2015-03-16T10:36:32Z</time>
      </trkpt>
      <trkpt lat="47.04608" lon="-0.85281">
        <ele>113</ele>
        <time>2015-03-16T10:36:34Z</time>
      </trkpt>
      <trkpt lat="47.04609" lon="-0.85284">
        <ele>113</ele>
        <time>2015-03-16T10:36:36Z</time>
      </trkpt>
      <trkpt lat="47.0461" lon="-0.85287">
        <ele>113</ele>
        <time>2015-03-16T10:36:38Z</time>
      </trkpt>
      <trkpt lat="47.04611" lon="-0.8529">
        <ele>113</ele>
        <time>2015-03-16T10:36:40Z</time>
      </trkpt>
      <trkpt lat="47.04612" lon="-0.85294">
        <ele>112</ele>
        <time>2015-03-16T10:36:42Z</time>
      </trkpt>
      <trkpt lat="47.04613" lon="-0.85297">
        <ele>112</ele>
        <time>2015-03-16T10:36:44Z</time>
      </trkpt>
      <trkpt lat="47.04614" lon="-0.853">
        <ele>112</ele>
        <time>2015-03-16T10:36:46Z</time>
      </trkpt>
      <trkpt lat="47.04615" lon="-0.85303">
        <ele>111</ele>
        <time>2015-03-16T10:36:48Z</time>
      </trkpt>
      <trkpt lat="47.04617" lon="-0.85307">
        <ele>111</ele>
        <time>2015-03-16T10:36:50Z</time>
      </trkpt>
      <trkpt lat="47.04618" lon="-0.8531">
        <ele>110</ele>
        <time>2015-03-16T10:36:52Z</time>
      </trkpt>
      <trkpt lat="47.04619" lon="-0.85313">
        <ele>110</ele>
        <time>2015-03-16T10:36:54Z</time>
      </trkpt>
      <trkpt lat="47.0462" lon="-0.85316">
        <ele>110</ele>
        <time>2015-03-16T10:36:56Z</time>
      </trkpt>
      <trkpt lat="47.04622" lon="-0.85319">
        <ele>110</ele>
        <time>2015-03-16T10:36:58Z</time>
      </trkpt>
      <trkpt lat="47.04623" lon="-0.85323">
        <ele>110</ele>
        <time>2015-03-16T10:37:00Z</time>
      </trkpt>
      <trkpt lat="47.04623" lon="-0.85327">
        <ele>110</ele>
        <time>2015-03-16T10:37:02Z</time>
      </trkpt>
      <trkpt lat="47.04625" lon="-0.85331">
        <ele>110</ele>
        <time>2015-03-16T10:37:04Z</time>
      </trkpt>
      <trkpt lat="47.04626" lon="-0.85335">
        <ele>110</ele>
        <time>2015-03-16T10:37:06Z</time>
      </trkpt>
      <trkpt lat="47.04628" lon="-0.85338">
        <ele>110</ele>
        <time>2015-03-16T10:37:08Z</time>
      </trkpt>
      <trkpt lat="47.04629" lon="-0.85341">
        <ele>109</ele>
        <time>2015-03-16T10:37:10Z</time>
      </trkpt>
      <trkpt lat="47.0463" lon="-0.85344">
        <ele>108</ele>
        <time>2015-03-16T10:37:12Z</time>
      </trkpt>
      <trkpt lat="47.04631" lon="-0.85348">
        <ele>107</ele>
        <time>2015-03-16T10:37:15Z</time>
      </trkpt>
      <trkpt lat="47.04633" lon="-0.85352">
        <ele>107</ele>
        <time>2015-03-16T10:37:17Z</time>
      </trkpt>
      <trkpt lat="47.04634" lon="-0.85355">
        <ele>106</ele>
        <time>2015-03-16T10:37:19Z</time>
      </trkpt>
      <trkpt lat="47.04635" lon="-0.85359">
        <ele>105</ele>
        <time>2015-03-16T10:37:21Z</time>
      </trkpt>
      <trkpt lat="47.04636" lon="-0.85363">
        <ele>105</ele>
        <time>2015-03-16T10:37:24Z</time>
      </trkpt>
      <trkpt lat="47.04637" lon="-0.85366">
        <ele>104</ele>
        <time>2015-03-16T10:37:26Z</time>
      </trkpt>
      <trkpt lat="47.04638" lon="-0.85369">
        <ele>103</ele>
        <time>2015-03-16T10:37:28Z</time>
      </trkpt>
      <trkpt lat="47.04639" lon="-0.85373">
        <ele>103</ele>
        <time>2015-03-16T10:37:30Z</time>
      </trkpt>
      <trkpt lat="47.04641" lon="-0.85377">
        <ele>103</ele>
        <time>2015-03-16T10:37:32Z</time>
      </trkpt>
      <trkpt lat="47.04641" lon="-0.8538">
        <ele>103</ele>
        <time>2015-03-16T10:37:34Z</time>
      </trkpt>
      <trkpt lat="47.04642" lon="-0.85384">
        <ele>103</ele>
        <time>2015-03-16T10:37:36Z</time>
      </trkpt>
      <trkpt lat="47.04643" lon="-0.85387">
        <ele>103</ele>
        <time>2015-03-16T10:37:38Z</time>
      </trkpt>
      <trkpt lat="47.04644" lon="-0.85391">
        <ele>102</ele>
        <time>2015-03-16T10:37:40Z</time>
      </trkpt>
      <trkpt lat="47.04646" lon="-0.85394">
        <ele>102</ele>
        <time>2015-03-16T10:37:42Z</time>
      </trkpt>
      <trkpt lat="47.04646" lon="-0.85397">
        <ele>102</ele>
        <time>2015-03-16T10:37:44Z</time>
      </trkpt>
      <trkpt lat="47.04647" lon="-0.854">
        <ele>102</ele>
        <time>2015-03-16T10:37:46Z</time>
      </trkpt>
      <trkpt lat="47.04649" lon="-0.85404">
        <ele>101</ele>
        <time>2015-03-16T10:37:48Z</time>
      </trkpt>
      <trkpt lat="47.0465" lon="-0.85408">
        <ele>101</ele>
        <time>2015-03-16T10:37:50Z</time>
      </trkpt>
      <trkpt lat="47.04652" lon="-0.85412">
        <ele>100</ele>
        <time>2015-03-16T10:37:53Z</time>
      </trkpt>
      <trkpt lat="47.04653" lon="-0.85415">
        <ele>99</ele>
        <time>2015-03-16T10:37:55Z</time>
      </trkpt>
      <trkpt lat="47.04654" lon="-0.85418">
        <ele>99</ele>
        <time>2015-03-16T10:37:57Z</time>
      </trkpt>
      <trkpt lat="47.04655" lon="-0.85422">
        <ele>98</ele>
        <time>2015-03-16T10:37:59Z</time>
      </trkpt>
      <trkpt lat="47.04656" lon="-0.85425">
        <ele>98</ele>
        <time>2015-03-16T10:38:01Z</time>
      </trkpt>
      <trkpt lat="47.04657" lon="-0.85429">
        <ele>98</ele>
        <time>2015-03-16T10:38:03Z</time>
      </trkpt>
      <trkpt lat="47.04658" lon="-0.85432">
        <ele>98</ele>
        <time>2015-03-16T10:38:05Z</time>
      </trkpt>
      <trkpt lat="47.04659" lon="-0.85435">
        <ele>98</ele>
        <time>2015-03-16T10:38:07Z</time>
      </trkpt>
      <trkpt lat="47.0466" lon="-0.85438">
        <ele>97</ele>
        <time>2015-03-16T10:38:09Z</time>
      </trkpt>
      <trkpt lat="47.04661" lon="-0.85441">
        <ele>97</ele>
        <time>2015-03-16T10:38:11Z</time>
      </trkpt>
      <trkpt lat="47.04662" lon="-0.85444">
        <ele>97</ele>
        <time>2015-03-16T10:38:13Z</time>
      </trkpt>
      <trkpt lat="47.04664" lon="-0.85447">
        <ele>97</ele>
        <time>2015-03-16T10:38:15Z</time>
      </trkpt>
      <trkpt lat="47.04665" lon="-0.85451">
        <ele>97</ele>
        <time>2015-03-16T10:38:17Z</time>
      </trkpt>
      <trkpt lat="47.04666" lon="-0.85454">
        <ele>96</ele>
        <time>2015-03-16T10:38:19Z</time>
      </trkpt>
      <trkpt lat="47.04667" lon="-0.85457">
        <ele>96</ele>
        <time>2015-03-16T10:38:21Z</time>
      </trkpt>
      <trkpt lat="47.04668" lon="-0.8546">
        <ele>95</ele>
        <time>2015-03-16T10:38:23Z</time>
      </trkpt>
      <trkpt lat="47.04669" lon="-0.85464">
        <ele>95</ele>
        <time>2015-03-16T10:38:25Z</time>
      </trkpt>
      <trkpt lat="47.0467" lon="-0.85467">
        <ele>94</ele>
        <time>2015-03-16T10:38:27Z</time>
      </trkpt>
      <trkpt lat="47.04671" lon="-0.85471">
        <ele>94</ele>
        <time>2015-03-16T10:38:30Z</time>
      </trkpt>
      <trkpt lat="47.04672" lon="-0.85474">
        <ele>94</ele>
        <time>2015-03-16T10:38:32Z</time>
      </trkpt>
      <trkpt lat="47.04673" lon="-0.85478">
        <ele>93</ele>
        <time>2015-03-16T10:38:34Z</time>
      </trkpt>
      <trkpt lat="47.04675" lon="-0.85482">
        <ele>93</ele>
        <time>2015-03-16T10:38:36Z</time>
      </trkpt>
      <trkpt lat="47.04675" lon="-0.85485">
        <ele>93</ele>
        <time>2015-03-16T10:38:38Z</time>
      </trkpt>
      <trkpt lat="47.04676" lon="-0.85488">
        <ele>92</ele>
        <time>2015-03-16T10:38:40Z</time>
      </trkpt>
      <trkpt lat="47.04676" lon="-0.85492">
        <ele>92</ele>
        <time>2015-03-16T10:38:42Z</time>
      </trkpt>
      <trkpt lat="47.04676" lon="-0.85496">
        <ele>92</ele>
        <time>2015-03-16T10:38:44Z</time>
      </trkpt>
      <trkpt lat="47.04676" lon="-0.855">
        <ele>92</ele>
        <time>2015-03-16T10:38:46Z</time>
      </trkpt>
      <trkpt lat="47.04675" lon="-0.85504">
        <ele>92</ele>
        <time>2015-03-16T10:38:48Z</time>
      </trkpt>
      <trkpt lat="47.04674" lon="-0.85507">
        <ele>92</ele>
        <time>2015-03-16T10:38:50Z</time>
      </trkpt>
      <trkpt lat="47.04673" lon="-0.85511">
        <ele>92</ele>
        <time>2015-03-16T10:38:52Z</time>
      </trkpt>
      <trkpt lat="47.04671" lon="-0.85516">
        <ele>92</ele>
        <time>2015-03-16T10:38:54Z</time>
      </trkpt>
      <trkpt lat="47.04671" lon="-0.85521">
        <ele>92</ele>
        <time>2015-03-16T10:38:56Z</time>
      </trkpt>
      <trkpt lat="47.0467" lon="-0.85525">
        <ele>92</ele>
        <time>2015-03-16T10:38:58Z</time>
      </trkpt>
      <trkpt lat="47.0467" lon="-0.85529">
        <ele>92</ele>
        <time>2015-03-16T10:39:00Z</time>
      </trkpt>
      <trkpt lat="47.0467" lon="-0.85534">
        <ele>92</ele>
        <time>2015-03-16T10:39:02Z</time>
      </trkpt>
      <trkpt lat="47.04671" lon="-0.85538">
        <ele>92</ele>
        <time>2015-03-16T10:39:04Z</time>
      </trkpt>
      <trkpt lat="47.04671" lon="-0.85541">
        <ele>92</ele>
        <time>2015-03-16T10:39:06Z</time>
      </trkpt>
      <trkpt lat="47.04672" lon="-0.85544">
        <ele>93</ele>
        <time>2015-03-16T10:39:08Z</time>
      </trkpt>
      <trkpt lat="47.04673" lon="-0.85548">
        <ele>93</ele>
        <time>2015-03-16T10:39:10Z</time>
      </trkpt>
      <trkpt lat="47.04673" lon="-0.85552">
        <ele>93</ele>
        <time>2015-03-16T10:39:12Z</time>
      </trkpt>
      <trkpt lat="47.04673" lon="-0.85555">
        <ele>93</ele>
        <time>2015-03-16T10:39:14Z</time>
      </trkpt>
      <trkpt lat="47.04674" lon="-0.85558">
        <ele>93</ele>
        <time>2015-03-16T10:39:16Z</time>
      </trkpt>
      <trkpt lat="47.04675" lon="-0.85562">
        <ele>93</ele>
        <time>2015-03-16T10:39:18Z</time>
      </trkpt>
      <trkpt lat="47.04675" lon="-0.85566">
        <ele>93</ele>
        <time>2015-03-16T10:39:20Z</time>
      </trkpt>
      <trkpt lat="47.04676" lon="-0.8557">
        <ele>93</ele>
        <time>2015-03-16T10:39:22Z</time>
      </trkpt>
      <trkpt lat="47.04677" lon="-0.85573">
        <ele>93</ele>
        <time>2015-03-16T10:39:24Z</time>
      </trkpt>
      <trkpt lat="47.04678" lon="-0.85576">
        <ele>93</ele>
        <time>2015-03-16T10:39:26Z</time>
      </trkpt>
      <trkpt lat="47.04678" lon="-0.8558">
        <ele>93</ele>
        <time>2015-03-16T10:39:28Z</time>
      </trkpt>
      <trkpt lat="47.04679" lon="-0.85583">
        <ele>93</ele>
        <time>2015-03-16T10:39:30Z</time>
      </trkpt>
      <trkpt lat="47.0468" lon="-0.85587">
        <ele>93</ele>
        <time>2015-03-16T10:39:32Z</time>
      </trkpt>
      <trkpt lat="47.04681" lon="-0.8559">
        <ele>93</ele>
        <time>2015-03-16T10:39:34Z</time>
      </trkpt>
      <trkpt lat="47.04681" lon="-0.85593">
        <ele>93</ele>
        <time>2015-03-16T10:39:36Z</time>
      </trkpt>
      <trkpt lat="47.04683" lon="-0.85597">
        <ele>93</ele>
        <time>2015-03-16T10:39:38Z</time>
      </trkpt>
      <trkpt lat="47.04683" lon="-0.856">
        <ele>93</ele>
        <time>2015-03-16T10:39:40Z</time>
      </trkpt>
      <trkpt lat="47.04684" lon="-0.85604">
        <ele>93</ele>
        <time>2015-03-16T10:39:42Z</time>
      </trkpt>
      <trkpt lat="47.04685" lon="-0.85607">
        <ele>93</ele>
        <time>2015-03-16T10:39:44Z</time>
      </trkpt>
      <trkpt lat="47.04685" lon="-0.85611">
        <ele>93</ele>
        <time>2015-03-16T10:39:46Z</time>
      </trkpt>
      <trkpt lat="47.04686" lon="-0.85614">
        <ele>93</ele>
        <time>2015-03-16T10:39:48Z</time>
      </trkpt>
      <trkpt lat="47.04688" lon="-0.85618">
        <ele>93</ele>
        <time>2015-03-16T10:39:50Z</time>
      </trkpt>
      <trkpt lat="47.04688" lon="-0.85622">
        <ele>93</ele>
        <time>2015-03-16T10:39:52Z</time>
      </trkpt>
      <trkpt lat="47.04689" lon="-0.85625">
        <ele>93</ele>
        <time>2015-03-16T10:39:54Z</time>
      </trkpt>
      <trkpt lat="47.0469" lon="-0.85628">
        <ele>93</ele>
        <time>2015-03-16T10:39:56Z</time>
      </trkpt>
      <trkpt lat="47.04691" lon="-0.85632">
        <ele>93</ele>
        <time>2015-03-16T10:39:58Z</time>
      </trkpt>
      <trkpt lat="47.04693" lon="-0.85635">
        <ele>93</ele>
        <time>2015-03-16T10:40:00Z</time>
      </trkpt>
      <trkpt lat="47.04694" lon="-0.85639">
        <ele>93</ele>
        <time>2015-03-16T10:40:02Z</time>
      </trkpt>
      <trkpt lat="47.04695" lon="-0.85642">
        <ele>93</ele>
        <time>2015-03-16T10:40:04Z</time>
      </trkpt>
      <trkpt lat="47.04696" lon="-0.85645">
        <ele>93</ele>
        <time>2015-03-16T10:40:06Z</time>
      </trkpt>
      <trkpt lat="47.04697" lon="-0.85649">
        <ele>93</ele>
        <time>2015-03-16T10:40:08Z</time>
      </trkpt>
      <trkpt lat="47.04698" lon="-0.85653">
        <ele>93</ele>
        <time>2015-03-16T10:40:10Z</time>
      </trkpt>
      <trkpt lat="47.04699" lon="-0.85656">
        <ele>93</ele>
        <time>2015-03-16T10:40:12Z</time>
      </trkpt>
      <trkpt lat="47.047" lon="-0.85659">
        <ele>93</ele>
        <time>2015-03-16T10:40:14Z</time>
      </trkpt>
      <trkpt lat="47.04702" lon="-0.85663">
        <ele>93</ele>
        <time>2015-03-16T10:40:16Z</time>
      </trkpt>
      <trkpt lat="47.04703" lon="-0.85666">
        <ele>93</ele>
        <time>2015-03-16T10:40:18Z</time>
      </trkpt>
      <trkpt lat="47.04704" lon="-0.8567">
        <ele>93</ele>
        <time>2015-03-16T10:40:20Z</time>
      </trkpt>
      <trkpt lat="47.04705" lon="-0.85674">
        <ele>93</ele>
        <time>2015-03-16T10:40:23Z</time>
      </trkpt>
      <trkpt lat="47.04706" lon="-0.85677">
        <ele>93</ele>
        <time>2015-03-16T10:40:25Z</time>
      </trkpt>
      <trkpt lat="47.04707" lon="-0.85681">
        <ele>93</ele>
        <time>2015-03-16T10:40:27Z</time>
      </trkpt>
      <trkpt lat="47.04708" lon="-0.85684">
        <ele>93</ele>
        <time>2015-03-16T10:40:29Z</time>
      </trkpt>
      <trkpt lat="47.04708" lon="-0.85687">
        <ele>93</ele>
        <time>2015-03-16T10:40:31Z</time>
      </trkpt>
      <trkpt lat="47.04709" lon="-0.85691">
        <ele>93</ele>
        <time>2015-03-16T10:40:33Z</time>
      </trkpt>
      <trkpt lat="47.0471" lon="-0.85695">
        <ele>93</ele>
        <time>2015-03-16T10:40:35Z</time>
      </trkpt>
      <trkpt lat="47.04711" lon="-0.85698">
        <ele>93</ele>
        <time>2015-03-16T10:40:37Z</time>
      </trkpt>
      <trkpt lat="47.04712" lon="-0.85702">
        <ele>93</ele>
        <time>2015-03-16T10:40:39Z</time>
      </trkpt>
      <trkpt lat="47.04713" lon="-0.85704">
        <ele>93</ele>
        <time>2015-03-16T10:40:41Z</time>
      </trkpt>
      <trkpt lat="47.04714" lon="-0.85708">
        <ele>93</ele>
        <time>2015-03-16T10:40:43Z</time>
      </trkpt>
      <trkpt lat="47.04715" lon="-0.85711">
        <ele>93</ele>
        <time>2015-03-16T10:40:45Z</time>
      </trkpt>
      <trkpt lat="47.04717" lon="-0.85715">
        <ele>93</ele>
        <time>2015-03-16T10:40:47Z</time>
      </trkpt>
      <trkpt lat="47.04718" lon="-0.85718">
        <ele>93</ele>
        <time>2015-03-16T10:40:49Z</time>
      </trkpt>
      <trkpt lat="47.04718" lon="-0.85721">
        <ele>93</ele>
        <time>2015-03-16T10:40:51Z</time>
      </trkpt>
      <trkpt lat="47.0472" lon="-0.85725">
        <ele>93</ele>
        <time>2015-03-16T10:40:53Z</time>
      </trkpt>
      <trkpt lat="47.04721" lon="-0.85728">
        <ele>93</ele>
        <time>2015-03-16T10:40:55Z</time>
      </trkpt>
      <trkpt lat="47.04722" lon="-0.85731">
        <ele>93</ele>
        <time>2015-03-16T10:40:57Z</time>
      </trkpt>
      <trkpt lat="47.04723" lon="-0.85734">
        <ele>92</ele>
        <time>2015-03-16T10:40:59Z</time>
      </trkpt>
      <trkpt lat="47.04725" lon="-0.85737">
        <ele>92</ele>
        <time>2015-03-16T10:41:01Z</time>
      </trkpt>
      <trkpt lat="47.04727" lon="-0.85741">
        <ele>92</ele>
        <time>2015-03-16T10:41:03Z</time>
      </trkpt>
      <trkpt lat="47.04728" lon="-0.85743">
        <ele>92</ele>
        <time>2015-03-16T10:41:05Z</time>
      </trkpt>
      <trkpt lat="47.0473" lon="-0.85747">
        <ele>92</ele>
        <time>2015-03-16T10:41:08Z</time>
      </trkpt>
      <trkpt lat="47.04732" lon="-0.85751">
        <ele>92</ele>
        <time>2015-03-16T10:41:10Z</time>
      </trkpt>
      <trkpt lat="47.04733" lon="-0.85754">
        <ele>92</ele>
        <time>2015-03-16T10:41:12Z</time>
      </trkpt>
      <trkpt lat="47.04734" lon="-0.85756">
        <ele>92</ele>
        <time>2015-03-16T10:41:14Z</time>
      </trkpt>
      <trkpt lat="47.04735" lon="-0.8576">
        <ele>92</ele>
        <time>2015-03-16T10:41:16Z</time>
      </trkpt>
      <trkpt lat="47.04736" lon="-0.85763">
        <ele>92</ele>
        <time>2015-03-16T10:41:18Z</time>
      </trkpt>
      <trkpt lat="47.04738" lon="-0.85767">
        <ele>92</ele>
        <time>2015-03-16T10:41:21Z</time>
      </trkpt>
      <trkpt lat="47.04738" lon="-0.85771">
        <ele>92</ele>
        <time>2015-03-16T10:41:23Z</time>
      </trkpt>
      <trkpt lat="47.04739" lon="-0.85774">
        <ele>92</ele>
        <time>2015-03-16T10:41:25Z</time>
      </trkpt>
      <trkpt lat="47.0474" lon="-0.85778">
        <ele>92</ele>
        <time>2015-03-16T10:41:27Z</time>
      </trkpt>
      <trkpt lat="47.04741" lon="-0.85782">
        <ele>92</ele>
        <time>2015-03-16T10:41:29Z</time>
      </trkpt>
      <trkpt lat="47.04742" lon="-0.85785">
        <ele>92</ele>
        <time>2015-03-16T10:41:31Z</time>
      </trkpt>
      <trkpt lat="47.04743" lon="-0.85789">
        <ele>92</ele>
        <time>2015-03-16T10:41:33Z</time>
      </trkpt>
      <trkpt lat="47.04744" lon="-0.85792">
        <ele>91</ele>
        <time>2015-03-16T10:41:35Z</time>
      </trkpt>
      <trkpt lat="47.04744" lon="-0.85797">
        <ele>91</ele>
        <time>2015-03-16T10:41:38Z</time>
      </trkpt>
      <trkpt lat="47.04745" lon="-0.858">
        <ele>91</ele>
        <time>2015-03-16T10:41:40Z</time>
      </trkpt>
      <trkpt lat="47.04745" lon="-0.85804">
        <ele>91</ele>
        <time>2015-03-16T10:41:42Z</time>
      </trkpt>
      <trkpt lat="47.04746" lon="-0.85808">
        <ele>91</ele>
        <time>2015-03-16T10:41:44Z</time>
      </trkpt>
      <trkpt lat="47.04747" lon="-0.85811">
        <ele>90</ele>
        <time>2015-03-16T10:41:46Z</time>
      </trkpt>
      <trkpt lat="47.04747" lon="-0.85814">
        <ele>90</ele>
        <time>2015-03-16T10:41:48Z</time>
      </trkpt>
      <trkpt lat="47.04747" lon="-0.85818">
        <ele>90</ele>
        <time>2015-03-16T10:41:50Z</time>
      </trkpt>
      <trkpt lat="47.04747" lon="-0.85822">
        <ele>90</ele>
        <time>2015-03-16T10:41:52Z</time>
      </trkpt>
      <trkpt lat="47.04747" lon="-0.85825">
        <ele>89</ele>
        <time>2015-03-16T10:41:54Z</time>
      </trkpt>
      <trkpt lat="47.04747" lon="-0.85829">
        <ele>89</ele>
        <time>2015-03-16T10:41:56Z</time>
      </trkpt>
      <trkpt lat="47.04747" lon="-0.85832">
        <ele>88</ele>
        <time>2015-03-16T10:41:58Z</time>
      </trkpt>
      <trkpt lat="47.04748" lon="-0.85836">
        <ele>88</ele>
        <time>2015-03-16T10:42:00Z</time>
      </trkpt>
      <trkpt lat="47.04748" lon="-0.85839">
        <ele>87</ele>
        <time>2015-03-16T10:42:02Z</time>
      </trkpt>
      <trkpt lat="47.04749" lon="-0.85843">
        <ele>87</ele>
        <time>2015-03-16T10:42:05Z</time>
      </trkpt>
      <trkpt lat="47.0475" lon="-0.85847">
        <ele>87</ele>
        <time>2015-03-16T10:42:07Z</time>
      </trkpt>
      <trkpt lat="47.0475" lon="-0.85852">
        <ele>87</ele>
        <time>2015-03-16T10:42:09Z</time>
      </trkpt>
      <trkpt lat="47.0475" lon="-0.85855">
        <ele>87</ele>
        <time>2015-03-16T10:42:11Z</time>
      </trkpt>
      <trkpt lat="47.0475" lon="-0.85858">
        <ele>87</ele>
        <time>2015-03-16T10:42:13Z</time>
      </trkpt>
      <trkpt lat="47.04751" lon="-0.85862">
        <ele>87</ele>
        <time>2015-03-16T10:42:15Z</time>
      </trkpt>
      <trkpt lat="47.04752" lon="-0.85865">
        <ele>87</ele>
        <time>2015-03-16T10:42:17Z</time>
      </trkpt>
      <trkpt lat="47.04752" lon="-0.85869">
        <ele>87</ele>
        <time>2015-03-16T10:42:19Z</time>
      </trkpt>
      <trkpt lat="47.04752" lon="-0.85872">
        <ele>87</ele>
        <time>2015-03-16T10:42:21Z</time>
      </trkpt>
      <trkpt lat="47.04752" lon="-0.85876">
        <ele>87</ele>
        <time>2015-03-16T10:42:23Z</time>
      </trkpt>
      <trkpt lat="47.04753" lon="-0.8588">
        <ele>87</ele>
        <time>2015-03-16T10:42:25Z</time>
      </trkpt>
      <trkpt lat="47.04753" lon="-0.85883">
        <ele>87</ele>
        <time>2015-03-16T10:42:27Z</time>
      </trkpt>
      <trkpt lat="47.04754" lon="-0.85887">
        <ele>87</ele>
        <time>2015-03-16T10:42:29Z</time>
      </trkpt>
      <trkpt lat="47.04754" lon="-0.8589">
        <ele>87</ele>
        <time>2015-03-16T10:42:31Z</time>
      </trkpt>
      <trkpt lat="47.04754" lon="-0.85894">
        <ele>87</ele>
        <time>2015-03-16T10:42:33Z</time>
      </trkpt>
      <trkpt lat="47.04754" lon="-0.85897">
        <ele>87</ele>
        <time>2015-03-16T10:42:35Z</time>
      </trkpt>
      <trkpt lat="47.04755" lon="-0.85901">
        <ele>87</ele>
        <time>2015-03-16T10:42:37Z</time>
      </trkpt>
      <trkpt lat="47.04755" lon="-0.85904">
        <ele>87</ele>
        <time>2015-03-16T10:42:39Z</time>
      </trkpt>
      <trkpt lat="47.04755" lon="-0.85908">
        <ele>87</ele>
        <time>2015-03-16T10:42:41Z</time>
      </trkpt>
      <trkpt lat="47.04756" lon="-0.85911">
        <ele>87</ele>
        <time>2015-03-16T10:42:43Z</time>
      </trkpt>
      <trkpt lat="47.04756" lon="-0.85914">
        <ele>87</ele>
        <time>2015-03-16T10:42:45Z</time>
      </trkpt>
      <trkpt lat="47.04757" lon="-0.85917">
        <ele>86</ele>
        <time>2015-03-16T10:42:47Z</time>
      </trkpt>
      <trkpt lat="47.04757" lon="-0.85921">
        <ele>86</ele>
        <time>2015-03-16T10:42:49Z</time>
      </trkpt>
      <trkpt lat="47.04758" lon="-0.85924">
        <ele>86</ele>
        <time>2015-03-16T10:42:51Z</time>
      </trkpt>
      <trkpt lat="47.04758" lon="-0.85927">
        <ele>86</ele>
        <time>2015-03-16T10:42:53Z</time>
      </trkpt>
      <trkpt lat="47.04759" lon="-0.8593">
        <ele>86</ele>
        <time>2015-03-16T10:42:55Z</time>
      </trkpt>
      <trkpt lat="47.0476" lon="-0.85934">
        <ele>86</ele>
        <time>2015-03-16T10:42:57Z</time>
      </trkpt>
      <trkpt lat="47.0476" lon="-0.85937">
        <ele>86</ele>
        <time>2015-03-16T10:42:59Z</time>
      </trkpt>
      <trkpt lat="47.0476" lon="-0.8594">
        <ele>86</ele>
        <time>2015-03-16T10:43:01Z</time>
      </trkpt>
      <trkpt lat="47.04761" lon="-0.85943">
        <ele>86</ele>
        <time>2015-03-16T10:43:03Z</time>
      </trkpt>
      <trkpt lat="47.04762" lon="-0.85947">
        <ele>85</ele>
        <time>2015-03-16T10:43:05Z</time>
      </trkpt>
      <trkpt lat="47.04763" lon="-0.8595">
        <ele>85</ele>
        <time>2015-03-16T10:43:07Z</time>
      </trkpt>
      <trkpt lat="47.04763" lon="-0.85953">
        <ele>84</ele>
        <time>2015-03-16T10:43:09Z</time>
      </trkpt>
      <trkpt lat="47.04763" lon="-0.85956">
        <ele>83</ele>
        <time>2015-03-16T10:43:11Z</time>
      </trkpt>
      <trkpt lat="47.04765" lon="-0.8596">
        <ele>83</ele>
        <time>2015-03-16T10:43:13Z</time>
      </trkpt>
      <trkpt lat="47.04765" lon="-0.85963">
        <ele>83</ele>
        <time>2015-03-16T10:43:15Z</time>
      </trkpt>
      <trkpt lat="47.04766" lon="-0.85968">
        <ele>82</ele>
        <time>2015-03-16T10:43:18Z</time>
      </trkpt>
      <trkpt lat="47.04767" lon="-0.85971">
        <ele>82</ele>
        <time>2015-03-16T10:43:20Z</time>
      </trkpt>
      <trkpt lat="47.04767" lon="-0.85975">
        <ele>82</ele>
        <time>2015-03-16T10:43:22Z</time>
      </trkpt>
      <trkpt lat="47.04768" lon="-0.85979">
        <ele>82</ele>
        <time>2015-03-16T10:43:25Z</time>
      </trkpt>
      <trkpt lat="47.04768" lon="-0.85984">
        <ele>82</ele>
        <time>2015-03-16T10:43:27Z</time>
      </trkpt>
      <trkpt lat="47.04769" lon="-0.85987">
        <ele>82</ele>
        <time>2015-03-16T10:43:29Z</time>
      </trkpt>
      <trkpt lat="47.0477" lon="-0.85991">
        <ele>82</ele>
        <time>2015-03-16T10:43:31Z</time>
      </trkpt>
      <trkpt lat="47.04771" lon="-0.85995">
        <ele>82</ele>
        <time>2015-03-16T10:43:33Z</time>
      </trkpt>
      <trkpt lat="47.04771" lon="-0.85998">
        <ele>82</ele>
        <time>2015-03-16T10:43:35Z</time>
      </trkpt>
      <trkpt lat="47.04772" lon="-0.86002">
        <ele>82</ele>
        <time>2015-03-16T10:43:37Z</time>
      </trkpt>
      <trkpt lat="47.04772" lon="-0.86007">
        <ele>82</ele>
        <time>2015-03-16T10:43:39Z</time>
      </trkpt>
      <trkpt lat="47.04773" lon="-0.8601">
        <ele>82</ele>
        <time>2015-03-16T10:43:41Z</time>
      </trkpt>
      <trkpt lat="47.04774" lon="-0.86014">
        <ele>82</ele>
        <time>2015-03-16T10:43:43Z</time>
      </trkpt>
      <trkpt lat="47.04774" lon="-0.86018">
        <ele>82</ele>
        <time>2015-03-16T10:43:45Z</time>
      </trkpt>
      <trkpt lat="47.04775" lon="-0.86021">
        <ele>82</ele>
        <time>2015-03-16T10:43:47Z</time>
      </trkpt>
      <trkpt lat="47.04776" lon="-0.86025">
        <ele>82</ele>
        <time>2015-03-16T10:43:49Z</time>
      </trkpt>
      <trkpt lat="47.04777" lon="-0.86028">
        <ele>82</ele>
        <time>2015-03-16T10:43:51Z</time>
      </trkpt>
      <trkpt lat="47.04777" lon="-0.86031">
        <ele>82</ele>
        <time>2015-03-16T10:43:53Z</time>
      </trkpt>
      <trkpt lat="47.04778" lon="-0.86035">
        <ele>82</ele>
        <time>2015-03-16T10:43:55Z</time>
      </trkpt>
      <trkpt lat="47.04778" lon="-0.86039">
        <ele>82</ele>
        <time>2015-03-16T10:43:57Z</time>
      </trkpt>
      <trkpt lat="47.04778" lon="-0.86042">
        <ele>82</ele>
        <time>2015-03-16T10:43:59Z</time>
      </trkpt>
      <trkpt lat="47.04778" lon="-0.86046">
        <ele>82</ele>
        <time>2015-03-16T10:44:01Z</time>
      </trkpt>
      <trkpt lat="47.04777" lon="-0.86049">
        <ele>82</ele>
        <time>2015-03-16T10:44:03Z</time>
      </trkpt>
      <trkpt lat="47.04776" lon="-0.86053">
        <ele>82</ele>
        <time>2015-03-16T10:44:05Z</time>
      </trkpt>
      <trkpt lat="47.04775" lon="-0.86057">
        <ele>82</ele>
        <time>2015-03-16T10:44:07Z</time>
      </trkpt>
      <trkpt lat="47.04774" lon="-0.8606">
        <ele>82</ele>
        <time>2015-03-16T10:44:09Z</time>
      </trkpt>
      <trkpt lat="47.04773" lon="-0.86063">
        <ele>82</ele>
        <time>2015-03-16T10:44:11Z</time>
      </trkpt>
      <trkpt lat="47.04771" lon="-0.86067">
        <ele>82</ele>
        <time>2015-03-16T10:44:14Z</time>
      </trkpt>
      <trkpt lat="47.04769" lon="-0.86068">
        <ele>82</ele>
        <time>2015-03-16T10:44:16Z</time>
      </trkpt>
      <trkpt lat="47.04767" lon="-0.86071">
        <ele>82</ele>
        <time>2015-03-16T10:44:18Z</time>
      </trkpt>
      <trkpt lat="47.04766" lon="-0.86075">
        <ele>82</ele>
        <time>2015-03-16T10:44:20Z</time>
      </trkpt>
      <trkpt lat="47.04764" lon="-0.86076">
        <ele>81</ele>
        <time>2015-03-16T10:44:22Z</time>
      </trkpt>
      <trkpt lat="47.04763" lon="-0.86079">
        <ele>81</ele>
        <time>2015-03-16T10:44:24Z</time>
      </trkpt>
      <trkpt lat="47.04761" lon="-0.86081">
        <ele>81</ele>
        <time>2015-03-16T10:44:26Z</time>
      </trkpt>
      <trkpt lat="47.0476" lon="-0.86084">
        <ele>81</ele>
        <time>2015-03-16T10:44:28Z</time>
      </trkpt>
      <trkpt lat="47.04758" lon="-0.86086">
        <ele>81</ele>
        <time>2015-03-16T10:44:30Z</time>
      </trkpt>
      <trkpt lat="47.04757" lon="-0.86088">
        <ele>80</ele>
        <time>2015-03-16T10:44:32Z</time>
      </trkpt>
      <trkpt lat="47.04756" lon="-0.86092">
        <ele>80</ele>
        <time>2015-03-16T10:44:34Z</time>
      </trkpt>
      <trkpt lat="47.04755" lon="-0.86095">
        <ele>80</ele>
        <time>2015-03-16T10:44:36Z</time>
      </trkpt>
      <trkpt lat="47.04755" lon="-0.86098">
        <ele>80</ele>
        <time>2015-03-16T10:44:38Z</time>
      </trkpt>
      <trkpt lat="47.04755" lon="-0.86102">
        <ele>80</ele>
        <time>2015-03-16T10:44:40Z</time>
      </trkpt>
      <trkpt lat="47.04754" lon="-0.86106">
        <ele>80</ele>
        <time>2015-03-16T10:44:42Z</time>
      </trkpt>
      <trkpt lat="47.04752" lon="-0.86109">
        <ele>80</ele>
        <time>2015-03-16T10:44:44Z</time>
      </trkpt>
      <trkpt lat="47.0475" lon="-0.86112">
        <ele>80</ele>
        <time>2015-03-16T10:44:46Z</time>
      </trkpt>
      <trkpt lat="47.04749" lon="-0.86116">
        <ele>80</ele>
        <time>2015-03-16T10:44:48Z</time>
      </trkpt>
      <trkpt lat="47.04747" lon="-0.8612">
        <ele>80</ele>
        <time>2015-03-16T10:44:50Z</time>
      </trkpt>
      <trkpt lat="47.04746" lon="-0.86123">
        <ele>80</ele>
        <time>2015-03-16T10:44:52Z</time>
      </trkpt>
      <trkpt lat="47.04745" lon="-0.86127">
        <ele>80</ele>
        <time>2015-03-16T10:44:54Z</time>
      </trkpt>
      <trkpt lat="47.04745" lon="-0.86131">
        <ele>80</ele>
        <time>2015-03-16T10:44:56Z</time>
      </trkpt>
      <trkpt lat="47.04746" lon="-0.86135">
        <ele>80</ele>
        <time>2015-03-16T10:44:58Z</time>
      </trkpt>
      <trkpt lat="47.04746" lon="-0.86138">
        <ele>80</ele>
        <time>2015-03-16T10:45:00Z</time>
      </trkpt>
      <trkpt lat="47.04747" lon="-0.86141">
        <ele>80</ele>
        <time>2015-03-16T10:45:02Z</time>
      </trkpt>
      <trkpt lat="47.04748" lon="-0.86146">
        <ele>80</ele>
        <time>2015-03-16T10:45:04Z</time>
      </trkpt>
      <trkpt lat="47.04748" lon="-0.8615">
        <ele>80</ele>
        <time>2015-03-16T10:45:06Z</time>
      </trkpt>
      <trkpt lat="47.04749" lon="-0.86154">
        <ele>81</ele>
        <time>2015-03-16T10:45:08Z</time>
      </trkpt>
      <trkpt lat="47.04749" lon="-0.86158">
        <ele>81</ele>
        <time>2015-03-16T10:45:10Z</time>
      </trkpt>
      <trkpt lat="47.04749" lon="-0.86161">
        <ele>81</ele>
        <time>2015-03-16T10:45:12Z</time>
      </trkpt>
      <trkpt lat="47.0475" lon="-0.86165">
        <ele>81</ele>
        <time>2015-03-16T10:45:14Z</time>
      </trkpt>
      <trkpt lat="47.0475" lon="-0.86168">
        <ele>82</ele>
        <time>2015-03-16T10:45:16Z</time>
      </trkpt>
      <trkpt lat="47.04751" lon="-0.86171">
        <ele>82</ele>
        <time>2015-03-16T10:45:18Z</time>
      </trkpt>
      <trkpt lat="47.04752" lon="-0.86175">
        <ele>82</ele>
        <time>2015-03-16T10:45:20Z</time>
      </trkpt>
      <trkpt lat="47.04754" lon="-0.86178">
        <ele>82</ele>
        <time>2015-03-16T10:45:22Z</time>
      </trkpt>
      <trkpt lat="47.04755" lon="-0.86183">
        <ele>82</ele>
        <time>2015-03-16T10:45:25Z</time>
      </trkpt>
      <trkpt lat="47.04757" lon="-0.86186">
        <ele>82</ele>
        <time>2015-03-16T10:45:27Z</time>
      </trkpt>
      <trkpt lat="47.04758" lon="-0.86188">
        <ele>82</ele>
        <time>2015-03-16T10:45:29Z</time>
      </trkpt>
      <trkpt lat="47.04759" lon="-0.86191">
        <ele>82</ele>
        <time>2015-03-16T10:45:31Z</time>
      </trkpt>
      <trkpt lat="47.0476" lon="-0.86194">
        <ele>82</ele>
        <time>2015-03-16T10:45:33Z</time>
      </trkpt>
      <trkpt lat="47.04762" lon="-0.86197">
        <ele>82</ele>
        <time>2015-03-16T10:45:35Z</time>
      </trkpt>
      <trkpt lat="47.04763" lon="-0.862">
        <ele>82</ele>
        <time>2015-03-16T10:45:37Z</time>
      </trkpt>
      <trkpt lat="47.04765" lon="-0.86204">
        <ele>82</ele>
        <time>2015-03-16T10:45:40Z</time>
      </trkpt>
      <trkpt lat="47.04767" lon="-0.86208">
        <ele>82</ele>
        <time>2015-03-16T10:45:43Z</time>
      </trkpt>
      <trkpt lat="47.04769" lon="-0.86211">
        <ele>82</ele>
        <time>2015-03-16T10:45:45Z</time>
      </trkpt>
      <trkpt lat="47.0477" lon="-0.86215">
        <ele>82</ele>
        <time>2015-03-16T10:45:47Z</time>
      </trkpt>
      <trkpt lat="47.04772" lon="-0.86219">
        <ele>82</ele>
        <time>2015-03-16T10:45:50Z</time>
      </trkpt>
      <trkpt lat="47.04773" lon="-0.86223">
        <ele>82</ele>
        <time>2015-03-16T10:45:52Z</time>
      </trkpt>
      <trkpt lat="47.04775" lon="-0.86226">
        <ele>82</ele>
        <time>2015-03-16T10:45:54Z</time>
      </trkpt>
      <trkpt lat="47.04777" lon="-0.8623">
        <ele>82</ele>
        <time>2015-03-16T10:45:56Z</time>
      </trkpt>
      <trkpt lat="47.04779" lon="-0.86233">
        <ele>82</ele>
        <time>2015-03-16T10:45:58Z</time>
      </trkpt>
      <trkpt lat="47.04781" lon="-0.86238">
        <ele>82</ele>
        <time>2015-03-16T10:46:01Z</time>
      </trkpt>
      <trkpt lat="47.04782" lon="-0.86242">
        <ele>82</ele>
        <time>2015-03-16T10:46:03Z</time>
      </trkpt>
      <trkpt lat="47.04784" lon="-0.86246">
        <ele>82</ele>
        <time>2015-03-16T10:46:05Z</time>
      </trkpt>
      <trkpt lat="47.04787" lon="-0.86249">
        <ele>82</ele>
        <time>2015-03-16T10:46:07Z</time>
      </trkpt>
      <trkpt lat="47.04789" lon="-0.86252">
        <ele>82</ele>
        <time>2015-03-16T10:46:09Z</time>
      </trkpt>
      <trkpt lat="47.04791" lon="-0.86255">
        <ele>82</ele>
        <time>2015-03-16T10:46:11Z</time>
      </trkpt>
      <trkpt lat="47.04792" lon="-0.86258">
        <ele>82</ele>
        <time>2015-03-16T10:46:13Z</time>
      </trkpt>
      <trkpt lat="47.04793" lon="-0.86261">
        <ele>82</ele>
        <time>2015-03-16T10:46:15Z</time>
      </trkpt>
      <trkpt lat="47.04796" lon="-0.86264">
        <ele>82</ele>
        <time>2015-03-16T10:46:17Z</time>
      </trkpt>
      <trkpt lat="47.04798" lon="-0.86266">
        <ele>82</ele>
        <time>2015-03-16T10:46:19Z</time>
      </trkpt>
      <trkpt lat="47.048" lon="-0.86268">
        <ele>82</ele>
        <time>2015-03-16T10:46:21Z</time>
      </trkpt>
      <trkpt lat="47.04801" lon="-0.86271">
        <ele>82</ele>
        <time>2015-03-16T10:46:23Z</time>
      </trkpt>
      <trkpt lat="47.04802" lon="-0.86274">
        <ele>82</ele>
        <time>2015-03-16T10:46:25Z</time>
      </trkpt>
      <trkpt lat="47.04804" lon="-0.86278">
        <ele>82</ele>
        <time>2015-03-16T10:46:27Z</time>
      </trkpt>
      <trkpt lat="47.04806" lon="-0.86281">
        <ele>82</ele>
        <time>2015-03-16T10:46:29Z</time>
      </trkpt>
      <trkpt lat="47.04808" lon="-0.86284">
        <ele>82</ele>
        <time>2015-03-16T10:46:31Z</time>
      </trkpt>
      <trkpt lat="47.0481" lon="-0.86288">
        <ele>82</ele>
        <time>2015-03-16T10:46:34Z</time>
      </trkpt>
      <trkpt lat="47.04812" lon="-0.86291">
        <ele>82</ele>
        <time>2015-03-16T10:46:36Z</time>
      </trkpt>
      <trkpt lat="47.04814" lon="-0.86294">
        <ele>82</ele>
        <time>2015-03-16T10:46:38Z</time>
      </trkpt>
      <trkpt lat="47.04815" lon="-0.86296">
        <ele>82</ele>
        <time>2015-03-16T10:46:40Z</time>
      </trkpt>
      <trkpt lat="47.04817" lon="-0.863">
        <ele>82</ele>
        <time>2015-03-16T10:46:42Z</time>
      </trkpt>
      <trkpt lat="47.04819" lon="-0.86304">
        <ele>82</ele>
        <time>2015-03-16T10:46:45Z</time>
      </trkpt>
      <trkpt lat="47.04821" lon="-0.86307">
        <ele>82</ele>
        <time>2015-03-16T10:46:47Z</time>
      </trkpt>
      <trkpt lat="47.04822" lon="-0.86311">
        <ele>82</ele>
        <time>2015-03-16T10:46:50Z</time>
      </trkpt>
      <trkpt lat="47.04824" lon="-0.86314">
        <ele>82</ele>
        <time>2015-03-16T10:46:52Z</time>
      </trkpt>
      <trkpt lat="47.04825" lon="-0.86317">
        <ele>82</ele>
        <time>2015-03-16T10:46:54Z</time>
      </trkpt>
      <trkpt lat="47.04826" lon="-0.8632">
        <ele>82</ele>
        <time>2015-03-16T10:46:56Z</time>
      </trkpt>
      <trkpt lat="47.04827" lon="-0.86322">
        <ele>82</ele>
        <time>2015-03-16T10:46:58Z</time>
      </trkpt>
      <trkpt lat="47.04828" lon="-0.86325">
        <ele>82</ele>
        <time>2015-03-16T10:47:00Z</time>
      </trkpt>
      <trkpt lat="47.0483" lon="-0.86329">
        <ele>82</ele>
        <time>2015-03-16T10:47:02Z</time>
      </trkpt>
      <trkpt lat="47.04831" lon="-0.86332">
        <ele>82</ele>
        <time>2015-03-16T10:47:04Z</time>
      </trkpt>
      <trkpt lat="47.04832" lon="-0.86335">
        <ele>82</ele>
        <time>2015-03-16T10:47:06Z</time>
      </trkpt>
      <trkpt lat="47.04833" lon="-0.86338">
        <ele>82</ele>
        <time>2015-03-16T10:47:08Z</time>
      </trkpt>
      <trkpt lat="47.04834" lon="-0.86341">
        <ele>82</ele>
        <time>2015-03-16T10:47:10Z</time>
      </trkpt>
      <trkpt lat="47.04835" lon="-0.86345">
        <ele>82</ele>
        <time>2015-03-16T10:47:12Z</time>
      </trkpt>
      <trkpt lat="47.04837" lon="-0.86348">
        <ele>82</ele>
        <time>2015-03-16T10:47:14Z</time>
      </trkpt>
      <trkpt lat="47.04837" lon="-0.86352">
        <ele>82</ele>
        <time>2015-03-16T10:47:16Z</time>
      </trkpt>
      <trkpt lat="47.04838" lon="-0.86355">
        <ele>81</ele>
        <time>2015-03-16T10:47:18Z</time>
      </trkpt>
      <trkpt lat="47.04839" lon="-0.86359">
        <ele>81</ele>
        <time>2015-03-16T10:47:20Z</time>
      </trkpt>
      <trkpt lat="47.0484" lon="-0.86362">
        <ele>81</ele>
        <time>2015-03-16T10:47:22Z</time>
      </trkpt>
      <trkpt lat="47.04841" lon="-0.86365">
        <ele>81</ele>
        <time>2015-03-16T10:47:24Z</time>
      </trkpt>
      <trkpt lat="47.04842" lon="-0.86368">
        <ele>80</ele>
        <time>2015-03-16T10:47:26Z</time>
      </trkpt>
      <trkpt lat="47.04843" lon="-0.86371">
        <ele>80</ele>
        <time>2015-03-16T10:47:28Z</time>
      </trkpt>
      <trkpt lat="47.04844" lon="-0.86375">
        <ele>80</ele>
        <time>2015-03-16T10:47:30Z</time>
      </trkpt>
      <trkpt lat="47.04845" lon="-0.86378">
        <ele>80</ele>
        <time>2015-03-16T10:47:32Z</time>
      </trkpt>
      <trkpt lat="47.04847" lon="-0.86382">
        <ele>80</ele>
        <time>2015-03-16T10:47:34Z</time>
      </trkpt>
      <trkpt lat="47.04848" lon="-0.86385">
        <ele>80</ele>
        <time>2015-03-16T10:47:36Z</time>
      </trkpt>
      <trkpt lat="47.04848" lon="-0.86388">
        <ele>79</ele>
        <time>2015-03-16T10:47:38Z</time>
      </trkpt>
      <trkpt lat="47.04849" lon="-0.86392">
        <ele>79</ele>
        <time>2015-03-16T10:47:40Z</time>
      </trkpt>
      <trkpt lat="47.0485" lon="-0.86395">
        <ele>79</ele>
        <time>2015-03-16T10:47:42Z</time>
      </trkpt>
      <trkpt lat="47.04851" lon="-0.86399">
        <ele>79</ele>
        <time>2015-03-16T10:47:44Z</time>
      </trkpt>
      <trkpt lat="47.04852" lon="-0.86402">
        <ele>79</ele>
        <time>2015-03-16T10:47:46Z</time>
      </trkpt>
      <trkpt lat="47.04853" lon="-0.86406">
        <ele>79</ele>
        <time>2015-03-16T10:47:48Z</time>
      </trkpt>
      <trkpt lat="47.04854" lon="-0.86408">
        <ele>79</ele>
        <time>2015-03-16T10:47:50Z</time>
      </trkpt>
      <trkpt lat="47.04857" lon="-0.86412">
        <ele>79</ele>
        <time>2015-03-16T10:47:53Z</time>
      </trkpt>
      <trkpt lat="47.04858" lon="-0.86416">
        <ele>78</ele>
        <time>2015-03-16T10:47:55Z</time>
      </trkpt>
      <trkpt lat="47.04859" lon="-0.86419">
        <ele>78</ele>
        <time>2015-03-16T10:47:57Z</time>
      </trkpt>
      <trkpt lat="47.0486" lon="-0.86422">
        <ele>77</ele>
        <time>2015-03-16T10:47:59Z</time>
      </trkpt>
      <trkpt lat="47.04862" lon="-0.86427">
        <ele>76</ele>
        <time>2015-03-16T10:48:02Z</time>
      </trkpt>
      <trkpt lat="47.04863" lon="-0.8643">
        <ele>76</ele>
        <time>2015-03-16T10:48:04Z</time>
      </trkpt>
      <trkpt lat="47.04865" lon="-0.86433">
        <ele>76</ele>
        <time>2015-03-16T10:48:06Z</time>
      </trkpt>
      <trkpt lat="47.04866" lon="-0.86436">
        <ele>76</ele>
        <time>2015-03-16T10:48:08Z</time>
      </trkpt>
      <trkpt lat="47.04868" lon="-0.86441">
        <ele>76</ele>
        <time>2015-03-16T10:48:11Z</time>
      </trkpt>
      <trkpt lat="47.0487" lon="-0.86444">
        <ele>76</ele>
        <time>2015-03-16T10:48:13Z</time>
      </trkpt>
      <trkpt lat="47.04871" lon="-0.86447">
        <ele>76</ele>
        <time>2015-03-16T10:48:15Z</time>
      </trkpt>
      <trkpt lat="47.04872" lon="-0.8645">
        <ele>76</ele>
        <time>2015-03-16T10:48:17Z</time>
      </trkpt>
      <trkpt lat="47.04874" lon="-0.86453">
        <ele>76</ele>
        <time>2015-03-16T10:48:19Z</time>
      </trkpt>
      <trkpt lat="47.04875" lon="-0.86456">
        <ele>76</ele>
        <time>2015-03-16T10:48:21Z</time>
      </trkpt>
      <trkpt lat="47.04876" lon="-0.86459">
        <ele>76</ele>
        <time>2015-03-16T10:48:23Z</time>
      </trkpt>
      <trkpt lat="47.04877" lon="-0.86462">
        <ele>76</ele>
        <time>2015-03-16T10:48:25Z</time>
      </trkpt>
      <trkpt lat="47.04879" lon="-0.86466">
        <ele>76</ele>
        <time>2015-03-16T10:48:27Z</time>
      </trkpt>
      <trkpt lat="47.0488" lon="-0.86469">
        <ele>76</ele>
        <time>2015-03-16T10:48:29Z</time>
      </trkpt>
      <trkpt lat="47.04882" lon="-0.86472">
        <ele>76</ele>
        <time>2015-03-16T10:48:31Z</time>
      </trkpt>
      <trkpt lat="47.04883" lon="-0.86475">
        <ele>76</ele>
        <time>2015-03-16T10:48:33Z</time>
      </trkpt>
      <trkpt lat="47.04884" lon="-0.86479">
        <ele>76</ele>
        <time>2015-03-16T10:48:35Z</time>
      </trkpt>
      <trkpt lat="47.04885" lon="-0.86482">
        <ele>76</ele>
        <time>2015-03-16T10:48:37Z</time>
      </trkpt>
      <trkpt lat="47.04886" lon="-0.86485">
        <ele>76</ele>
        <time>2015-03-16T10:48:39Z</time>
      </trkpt>
      <trkpt lat="47.04888" lon="-0.86489">
        <ele>76</ele>
        <time>2015-03-16T10:48:41Z</time>
      </trkpt>
      <trkpt lat="47.04889" lon="-0.86492">
        <ele>76</ele>
        <time>2015-03-16T10:48:43Z</time>
      </trkpt>
      <trkpt lat="47.0489" lon="-0.86495">
        <ele>76</ele>
        <time>2015-03-16T10:48:45Z</time>
      </trkpt>
      <trkpt lat="47.04892" lon="-0.86498">
        <ele>76</ele>
        <time>2015-03-16T10:48:47Z</time>
      </trkpt>
      <trkpt lat="47.04893" lon="-0.86501">
        <ele>76</ele>
        <time>2015-03-16T10:48:49Z</time>
      </trkpt>
      <trkpt lat="47.04895" lon="-0.86505">
        <ele>75</ele>
        <time>2015-03-16T10:48:52Z</time>
      </trkpt>
      <trkpt lat="47.04896" lon="-0.86508">
        <ele>75</ele>
        <time>2015-03-16T10:48:54Z</time>
      </trkpt>
      <trkpt lat="47.04897" lon="-0.86511">
        <ele>75</ele>
        <time>2015-03-16T10:48:56Z</time>
      </trkpt>
      <trkpt lat="47.04899" lon="-0.86514">
        <ele>74</ele>
        <time>2015-03-16T10:48:58Z</time>
      </trkpt>
      <trkpt lat="47.049" lon="-0.86517">
        <ele>74</ele>
        <time>2015-03-16T10:49:00Z</time>
      </trkpt>
      <trkpt lat="47.04902" lon="-0.86522">
        <ele>74</ele>
        <time>2015-03-16T10:49:03Z</time>
      </trkpt>
      <trkpt lat="47.04903" lon="-0.86525">
        <ele>74</ele>
        <time>2015-03-16T10:49:05Z</time>
      </trkpt>
      <trkpt lat="47.04904" lon="-0.86529">
        <ele>74</ele>
        <time>2015-03-16T10:49:07Z</time>
      </trkpt>
      <trkpt lat="47.04905" lon="-0.86532">
        <ele>74</ele>
        <time>2015-03-16T10:49:09Z</time>
      </trkpt>
      <trkpt lat="47.04906" lon="-0.86535">
        <ele>74</ele>
        <time>2015-03-16T10:49:11Z</time>
      </trkpt>
      <trkpt lat="47.04908" lon="-0.86538">
        <ele>74</ele>
        <time>2015-03-16T10:49:13Z</time>
      </trkpt>
      <trkpt lat="47.04908" lon="-0.86542">
        <ele>74</ele>
        <time>2015-03-16T10:49:15Z</time>
      </trkpt>
      <trkpt lat="47.0491" lon="-0.86546">
        <ele>74</ele>
        <time>2015-03-16T10:49:17Z</time>
      </trkpt>
      <trkpt lat="47.04911" lon="-0.86549">
        <ele>74</ele>
        <time>2015-03-16T10:49:19Z</time>
      </trkpt>
      <trkpt lat="47.04913" lon="-0.86552">
        <ele>74</ele>
        <time>2015-03-16T10:49:21Z</time>
      </trkpt>
      <trkpt lat="47.04914" lon="-0.86556">
        <ele>74</ele>
        <time>2015-03-16T10:49:23Z</time>
      </trkpt>
      <trkpt lat="47.04915" lon="-0.86559">
        <ele>74</ele>
        <time>2015-03-16T10:49:25Z</time>
      </trkpt>
      <trkpt lat="47.04916" lon="-0.86563">
        <ele>74</ele>
        <time>2015-03-16T10:49:27Z</time>
      </trkpt>
      <trkpt lat="47.04917" lon="-0.86566">
        <ele>74</ele>
        <time>2015-03-16T10:49:29Z</time>
      </trkpt>
      <trkpt lat="47.04918" lon="-0.8657">
        <ele>74</ele>
        <time>2015-03-16T10:49:31Z</time>
      </trkpt>
      <trkpt lat="47.04919" lon="-0.86574">
        <ele>74</ele>
        <time>2015-03-16T10:49:33Z</time>
      </trkpt>
      <trkpt lat="47.04919" lon="-0.86577">
        <ele>74</ele>
        <time>2015-03-16T10:49:35Z</time>
      </trkpt>
      <trkpt lat="47.04921" lon="-0.8658">
        <ele>74</ele>
        <time>2015-03-16T10:49:37Z</time>
      </trkpt>
      <trkpt lat="47.04922" lon="-0.86584">
        <ele>74</ele>
        <time>2015-03-16T10:49:39Z</time>
      </trkpt>
      <trkpt lat="47.04924" lon="-0.86588">
        <ele>74</ele>
        <time>2015-03-16T10:49:42Z</time>
      </trkpt>
      <trkpt lat="47.04926" lon="-0.8659">
        <ele>74</ele>
        <time>2015-03-16T10:49:44Z</time>
      </trkpt>
      <trkpt lat="47.04929" lon="-0.86592">
        <ele>74</ele>
        <time>2015-03-16T10:49:46Z</time>
      </trkpt>
      <trkpt lat="47.04929" lon="-0.8659">
        <ele>74</ele>
        <time>2015-03-16T10:49:48Z</time>
      </trkpt>
      <trkpt lat="47.0493" lon="-0.86586">
        <ele>74</ele>
        <time>2015-03-16T10:49:51Z</time>
      </trkpt>
      <trkpt lat="47.04932" lon="-0.86585">
        <ele>74</ele>
        <time>2015-03-16T10:49:53Z</time>
      </trkpt>
      <trkpt lat="47.04934" lon="-0.86584">
        <ele>74</ele>
        <time>2015-03-16T10:49:55Z</time>
      </trkpt>
      <trkpt lat="47.04936" lon="-0.86586">
        <ele>74</ele>
        <time>2015-03-16T10:49:57Z</time>
      </trkpt>
      <trkpt lat="47.04937" lon="-0.86589">
        <ele>74</ele>
        <time>2015-03-16T10:49:59Z</time>
      </trkpt>
      <trkpt lat="47.04937" lon="-0.86593">
        <ele>74</ele>
        <time>2015-03-16T10:50:01Z</time>
      </trkpt>
      <trkpt lat="47.04936" lon="-0.86596">
        <ele>74</ele>
        <time>2015-03-16T10:50:03Z</time>
      </trkpt>
      <trkpt lat="47.04935" lon="-0.866">
        <ele>74</ele>
        <time>2015-03-16T10:50:05Z</time>
      </trkpt>
      <trkpt lat="47.04935" lon="-0.86604">
        <ele>74</ele>
        <time>2015-03-16T10:50:07Z</time>
      </trkpt>
      <trkpt lat="47.04934" lon="-0.86607">
        <ele>74</ele>
        <time>2015-03-16T10:50:09Z</time>
      </trkpt>
      <trkpt lat="47.04934" lon="-0.86611">
        <ele>74</ele>
        <time>2015-03-16T10:50:11Z</time>
      </trkpt>
      <trkpt lat="47.04934" lon="-0.86614">
        <ele>74</ele>
        <time>2015-03-16T10:50:13Z</time>
      </trkpt>
      <trkpt lat="47.04933" lon="-0.86618">
        <ele>74</ele>
        <time>2015-03-16T10:50:15Z</time>
      </trkpt>
      <trkpt lat="47.04934" lon="-0.86621">
        <ele>74</ele>
        <time>2015-03-16T10:50:17Z</time>
      </trkpt>
      <trkpt lat="47.04935" lon="-0.86624">
        <ele>74</ele>
        <time>2015-03-16T10:50:19Z</time>
      </trkpt>
      <trkpt lat="47.04936" lon="-0.86627">
        <ele>74</ele>
        <time>2015-03-16T10:50:21Z</time>
      </trkpt>
      <trkpt lat="47.04939" lon="-0.86632">
        <ele>75</ele>
        <time>2015-03-16T10:50:24Z</time>
      </trkpt>
      <trkpt lat="47.0494" lon="-0.86634">
        <ele>75</ele>
        <time>2015-03-16T10:50:26Z</time>
      </trkpt>
      <trkpt lat="47.04941" lon="-0.86637">
        <ele>75</ele>
        <time>2015-03-16T10:50:28Z</time>
      </trkpt>
      <trkpt lat="47.04942" lon="-0.86639">
        <ele>75</ele>
        <time>2015-03-16T10:50:30Z</time>
      </trkpt>
      <trkpt lat="47.04943" lon="-0.86642">
        <ele>75</ele>
        <time>2015-03-16T10:50:32Z</time>
      </trkpt>
      <trkpt lat="47.04945" lon="-0.86644">
        <ele>75</ele>
        <time>2015-03-16T10:50:34Z</time>
      </trkpt>
      <trkpt lat="47.04946" lon="-0.86647">
        <ele>75</ele>
        <time>2015-03-16T10:50:36Z</time>
      </trkpt>
      <trkpt lat="47.04948" lon="-0.86651">
        <ele>75</ele>
        <time>2015-03-16T10:50:39Z</time>
      </trkpt>
      <trkpt lat="47.04949" lon="-0.86654">
        <ele>75</ele>
        <time>2015-03-16T10:50:41Z</time>
      </trkpt>
      <trkpt lat="47.04951" lon="-0.86657">
        <ele>75</ele>
        <time>2015-03-16T10:50:43Z</time>
      </trkpt>
      <trkpt lat="47.04952" lon="-0.86659">
        <ele>75</ele>
        <time>2015-03-16T10:50:45Z</time>
      </trkpt>
      <trkpt lat="47.04953" lon="-0.86662">
        <ele>75</ele>
        <time>2015-03-16T10:50:47Z</time>
      </trkpt>
      <trkpt lat="47.04955" lon="-0.86665">
        <ele>75</ele>
        <time>2015-03-16T10:50:49Z</time>
      </trkpt>
      <trkpt lat="47.04956" lon="-0.86668">
        <ele>75</ele>
        <time>2015-03-16T10:50:51Z</time>
      </trkpt>
      <trkpt lat="47.04958" lon="-0.86671">
        <ele>75</ele>
        <time>2015-03-16T10:50:53Z</time>
      </trkpt>
      <trkpt lat="47.04959" lon="-0.86673">
        <ele>75</ele>
        <time>2015-03-16T10:50:55Z</time>
      </trkpt>
      <trkpt lat="47.04961" lon="-0.86676">
        <ele>75</ele>
        <time>2015-03-16T10:50:57Z</time>
      </trkpt>
      <trkpt lat="47.04963" lon="-0.86678">
        <ele>75</ele>
        <time>2015-03-16T10:50:59Z</time>
      </trkpt>
      <trkpt lat="47.04965" lon="-0.8668">
        <ele>75</ele>
        <time>2015-03-16T10:51:01Z</time>
      </trkpt>
      <trkpt lat="47.04966" lon="-0.86683">
        <ele>75</ele>
        <time>2015-03-16T10:51:03Z</time>
      </trkpt>
      <trkpt lat="47.04968" lon="-0.86685">
        <ele>75</ele>
        <time>2015-03-16T10:51:05Z</time>
      </trkpt>
      <trkpt lat="47.0497" lon="-0.86689">
        <ele>75</ele>
        <time>2015-03-16T10:51:08Z</time>
      </trkpt>
      <trkpt lat="47.04972" lon="-0.86692">
        <ele>75</ele>
        <time>2015-03-16T10:51:10Z</time>
      </trkpt>
      <trkpt lat="47.04974" lon="-0.86694">
        <ele>75</ele>
        <time>2015-03-16T10:51:12Z</time>
      </trkpt>
      <trkpt lat="47.04976" lon="-0.86697">
        <ele>75</ele>
        <time>2015-03-16T10:51:14Z</time>
      </trkpt>
      <trkpt lat="47.04978" lon="-0.86699">
        <ele>75</ele>
        <time>2015-03-16T10:51:16Z</time>
      </trkpt>
      <trkpt lat="47.04979" lon="-0.86701">
        <ele>75</ele>
        <time>2015-03-16T10:51:18Z</time>
      </trkpt>
      <trkpt lat="47.04981" lon="-0.86704">
        <ele>75</ele>
        <time>2015-03-16T10:51:20Z</time>
      </trkpt>
      <trkpt lat="47.04983" lon="-0.86707">
        <ele>75</ele>
        <time>2015-03-16T10:51:22Z</time>
      </trkpt>
      <trkpt lat="47.04985" lon="-0.86709">
        <ele>75</ele>
        <time>2015-03-16T10:51:24Z</time>
      </trkpt>
      <trkpt lat="47.04986" lon="-0.86711">
        <ele>75</ele>
        <time>2015-03-16T10:51:26Z</time>
      </trkpt>
      <trkpt lat="47.04988" lon="-0.86713">
        <ele>75</ele>
        <time>2015-03-16T10:51:28Z</time>
      </trkpt>
      <trkpt lat="47.0499" lon="-0.86715">
        <ele>75</ele>
        <time>2015-03-16T10:51:30Z</time>
      </trkpt>
      <trkpt lat="47.04991" lon="-0.86718">
        <ele>75</ele>
        <time>2015-03-16T10:51:32Z</time>
      </trkpt>
      <trkpt lat="47.04993" lon="-0.86721">
        <ele>75</ele>
        <time>2015-03-16T10:51:34Z</time>
      </trkpt>
      <trkpt lat="47.04996" lon="-0.86724">
        <ele>75</ele>
        <time>2015-03-16T10:51:37Z</time>
      </trkpt>
      <trkpt lat="47.04998" lon="-0.86726">
        <ele>75</ele>
        <time>2015-03-16T10:51:39Z</time>
      </trkpt>
      <trkpt lat="47.05" lon="-0.86729">
        <ele>75</ele>
        <time>2015-03-16T10:51:41Z</time>
      </trkpt>
      <trkpt lat="47.05003" lon="-0.86733">
        <ele>75</ele>
        <time>2015-03-16T10:51:44Z</time>
      </trkpt>
      <trkpt lat="47.05004" lon="-0.86736">
        <ele>75</ele>
        <time>2015-03-16T10:51:46Z</time>
      </trkpt>
      <trkpt lat="47.05006" lon="-0.86738">
        <ele>75</ele>
        <time>2015-03-16T10:51:48Z</time>
      </trkpt>
      <trkpt lat="47.05009" lon="-0.8674">
        <ele>75</ele>
        <time>2015-03-16T10:51:51Z</time>
      </trkpt>
      <trkpt lat="47.05011" lon="-0.86742">
        <ele>75</ele>
        <time>2015-03-16T10:51:53Z</time>
      </trkpt>
      <trkpt lat="47.05013" lon="-0.86744">
        <ele>75</ele>
        <time>2015-03-16T10:51:55Z</time>
      </trkpt>
      <trkpt lat="47.05014" lon="-0.86747">
        <ele>75</ele>
        <time>2015-03-16T10:51:57Z</time>
      </trkpt>
      <trkpt lat="47.05016" lon="-0.86749">
        <ele>75</ele>
        <time>2015-03-16T10:51:59Z</time>
      </trkpt>
      <trkpt lat="47.05018" lon="-0.86751">
        <ele>75</ele>
        <time>2015-03-16T10:52:01Z</time>
      </trkpt>
      <trkpt lat="47.0502" lon="-0.86753">
        <ele>75</ele>
        <time>2015-03-16T10:52:03Z</time>
      </trkpt>
      <trkpt lat="47.05022" lon="-0.86755">
        <ele>75</ele>
        <time>2015-03-16T10:52:05Z</time>
      </trkpt>
      <trkpt lat="47.05026" lon="-0.86757">
        <ele>75</ele>
        <time>2015-03-16T10:52:08Z</time>
      </trkpt>
      <trkpt lat="47.05027" lon="-0.86759">
        <ele>75</ele>
        <time>2015-03-16T10:52:10Z</time>
      </trkpt>
      <trkpt lat="47.0503" lon="-0.86761">
        <ele>75</ele>
        <time>2015-03-16T10:52:12Z</time>
      </trkpt>
      <trkpt lat="47.05032" lon="-0.86763">
        <ele>75</ele>
        <time>2015-03-16T10:52:14Z</time>
      </trkpt>
      <trkpt lat="47.05033" lon="-0.86765">
        <ele>75</ele>
        <time>2015-03-16T10:52:16Z</time>
      </trkpt>
      <trkpt lat="47.05035" lon="-0.86766">
        <ele>75</ele>
        <time>2015-03-16T10:52:18Z</time>
      </trkpt>
      <trkpt lat="47.05038" lon="-0.86768">
        <ele>75</ele>
        <time>2015-03-16T10:52:20Z</time>
      </trkpt>
      <trkpt lat="47.0504" lon="-0.8677">
        <ele>75</ele>
        <time>2015-03-16T10:52:22Z</time>
      </trkpt>
      <trkpt lat="47.05042" lon="-0.86772">
        <ele>75</ele>
        <time>2015-03-16T10:52:24Z</time>
      </trkpt>
      <trkpt lat="47.05044" lon="-0.86773">
        <ele>75</ele>
        <time>2015-03-16T10:52:26Z</time>
      </trkpt>
      <trkpt lat="47.05047" lon="-0.86775">
        <ele>75</ele>
        <time>2015-03-16T10:52:29Z</time>
      </trkpt>
      <trkpt lat="47.05049" lon="-0.86777">
        <ele>75</ele>
        <time>2015-03-16T10:52:31Z</time>
      </trkpt>
      <trkpt lat="47.05051" lon="-0.8678">
        <ele>75</ele>
        <time>2015-03-16T10:52:33Z</time>
      </trkpt>
      <trkpt lat="47.05053" lon="-0.86783">
        <ele>75</ele>
        <time>2015-03-16T10:52:35Z</time>
      </trkpt>
      <trkpt lat="47.05056" lon="-0.86784">
        <ele>75</ele>
        <time>2015-03-16T10:52:37Z</time>
      </trkpt>
      <trkpt lat="47.05059" lon="-0.86786">
        <ele>75</ele>
        <time>2015-03-16T10:52:39Z</time>
      </trkpt>
      <trkpt lat="47.05061" lon="-0.86787">
        <ele>75</ele>
        <time>2015-03-16T10:52:41Z</time>
      </trkpt>
      <trkpt lat="47.05065" lon="-0.86788">
        <ele>75</ele>
        <time>2015-03-16T10:52:44Z</time>
      </trkpt>
      <trkpt lat="47.05067" lon="-0.8679">
        <ele>75</ele>
        <time>2015-03-16T10:52:46Z</time>
      </trkpt>
      <trkpt lat="47.0507" lon="-0.86793">
        <ele>75</ele>
        <time>2015-03-16T10:52:49Z</time>
      </trkpt>
      <trkpt lat="47.05074" lon="-0.86795">
        <ele>75</ele>
        <time>2015-03-16T10:52:52Z</time>
      </trkpt>
      <trkpt lat="47.05077" lon="-0.86798">
        <ele>75</ele>
        <time>2015-03-16T10:52:55Z</time>
      </trkpt>
      <trkpt lat="47.05079" lon="-0.868">
        <ele>75</ele>
        <time>2015-03-16T10:52:57Z</time>
      </trkpt>
      <trkpt lat="47.05081" lon="-0.86801">
        <ele>74</ele>
        <time>2015-03-16T10:52:59Z</time>
      </trkpt>
      <trkpt lat="47.05083" lon="-0.86803">
        <ele>74</ele>
        <time>2015-03-16T10:53:01Z</time>
      </trkpt>
      <trkpt lat="47.05085" lon="-0.86804">
        <ele>73</ele>
        <time>2015-03-16T10:53:03Z</time>
      </trkpt>
      <trkpt lat="47.05088" lon="-0.86805">
        <ele>72</ele>
        <time>2015-03-16T10:53:05Z</time>
      </trkpt>
      <trkpt lat="47.05089" lon="-0.86807">
        <ele>72</ele>
        <time>2015-03-16T10:53:07Z</time>
      </trkpt>
      <trkpt lat="47.05091" lon="-0.86809">
        <ele>71</ele>
        <time>2015-03-16T10:53:09Z</time>
      </trkpt>
      <trkpt lat="47.05093" lon="-0.8681">
        <ele>71</ele>
        <time>2015-03-16T10:53:11Z</time>
      </trkpt>
      <trkpt lat="47.05096" lon="-0.86812">
        <ele>70</ele>
        <time>2015-03-16T10:53:13Z</time>
      </trkpt>
      <trkpt lat="47.05098" lon="-0.86813">
        <ele>70</ele>
        <time>2015-03-16T10:53:15Z</time>
      </trkpt>
      <trkpt lat="47.051" lon="-0.86815">
        <ele>70</ele>
        <time>2015-03-16T10:53:17Z</time>
      </trkpt>
      <trkpt lat="47.05102" lon="-0.86817">
        <ele>70</ele>
        <time>2015-03-16T10:53:19Z</time>
      </trkpt>
      <trkpt lat="47.05105" lon="-0.8682">
        <ele>70</ele>
        <time>2015-03-16T10:53:22Z</time>
      </trkpt>
      <trkpt lat="47.05106" lon="-0.86822">
        <ele>70</ele>
        <time>2015-03-16T10:53:24Z</time>
      </trkpt>
      <trkpt lat="47.05109" lon="-0.86824">
        <ele>70</ele>
        <time>2015-03-16T10:53:26Z</time>
      </trkpt>
      <trkpt lat="47.05112" lon="-0.86826">
        <ele>70</ele>
        <time>2015-03-16T10:53:29Z</time>
      </trkpt>
      <trkpt lat="47.05114" lon="-0.86828">
        <ele>70</ele>
        <time>2015-03-16T10:53:31Z</time>
      </trkpt>
      <trkpt lat="47.05116" lon="-0.8683">
        <ele>70</ele>
        <time>2015-03-16T10:53:33Z</time>
      </trkpt>
      <trkpt lat="47.05118" lon="-0.86831">
        <ele>69</ele>
        <time>2015-03-16T10:53:35Z</time>
      </trkpt>
      <trkpt lat="47.05119" lon="-0.86833">
        <ele>69</ele>
        <time>2015-03-16T10:53:37Z</time>
      </trkpt>
      <trkpt lat="47.05121" lon="-0.86835">
        <ele>69</ele>
        <time>2015-03-16T10:53:39Z</time>
      </trkpt>
      <trkpt lat="47.05123" lon="-0.86837">
        <ele>69</ele>
        <time>2015-03-16T10:53:41Z</time>
      </trkpt>
      <trkpt lat="47.05125" lon="-0.86839">
        <ele>69</ele>
        <time>2015-03-16T10:53:43Z</time>
      </trkpt>
      <trkpt lat="47.05127" lon="-0.86841">
        <ele>69</ele>
        <time>2015-03-16T10:53:45Z</time>
      </trkpt>
      <trkpt lat="47.0513" lon="-0.86845">
        <ele>69</ele>
        <time>2015-03-16T10:53:48Z</time>
      </trkpt>
      <trkpt lat="47.05133" lon="-0.86847">
        <ele>69</ele>
        <time>2015-03-16T10:53:50Z</time>
      </trkpt>
      <trkpt lat="47.05135" lon="-0.86849">
        <ele>69</ele>
        <time>2015-03-16T10:53:52Z</time>
      </trkpt>
      <trkpt lat="47.05137" lon="-0.86851">
        <ele>69</ele>
        <time>2015-03-16T10:53:54Z</time>
      </trkpt>
      <trkpt lat="47.05139" lon="-0.86853">
        <ele>69</ele>
        <time>2015-03-16T10:53:56Z</time>
      </trkpt>
      <trkpt lat="47.05142" lon="-0.86855">
        <ele>69</ele>
        <time>2015-03-16T10:53:59Z</time>
      </trkpt>
      <trkpt lat="47.05144" lon="-0.86857">
        <ele>69</ele>
        <time>2015-03-16T10:54:01Z</time>
      </trkpt>
      <trkpt lat="47.05147" lon="-0.86858">
        <ele>69</ele>
        <time>2015-03-16T10:54:03Z</time>
      </trkpt>
      <trkpt lat="47.05149" lon="-0.8686">
        <ele>69</ele>
        <time>2015-03-16T10:54:05Z</time>
      </trkpt>
      <trkpt lat="47.05152" lon="-0.86861">
        <ele>69</ele>
        <time>2015-03-16T10:54:07Z</time>
      </trkpt>
      <trkpt lat="47.05155" lon="-0.86864">
        <ele>69</ele>
        <time>2015-03-16T10:54:10Z</time>
      </trkpt>
      <trkpt lat="47.05157" lon="-0.86865">
        <ele>69</ele>
        <time>2015-03-16T10:54:12Z</time>
      </trkpt>
      <trkpt lat="47.0516" lon="-0.86867">
        <ele>69</ele>
        <time>2015-03-16T10:54:14Z</time>
      </trkpt>
      <trkpt lat="47.05162" lon="-0.86869">
        <ele>69</ele>
        <time>2015-03-16T10:54:16Z</time>
      </trkpt>
      <trkpt lat="47.05164" lon="-0.8687">
        <ele>69</ele>
        <time>2015-03-16T10:54:18Z</time>
      </trkpt>
      <trkpt lat="47.05166" lon="-0.86872">
        <ele>69</ele>
        <time>2015-03-16T10:54:20Z</time>
      </trkpt>
      <trkpt lat="47.05169" lon="-0.86874">
        <ele>69</ele>
        <time>2015-03-16T10:54:22Z</time>
      </trkpt>
      <trkpt lat="47.0517" lon="-0.86876">
        <ele>69</ele>
        <time>2015-03-16T10:54:24Z</time>
      </trkpt>
      <trkpt lat="47.05172" lon="-0.86877">
        <ele>69</ele>
        <time>2015-03-16T10:54:26Z</time>
      </trkpt>
      <trkpt lat="47.05175" lon="-0.86879">
        <ele>69</ele>
        <time>2015-03-16T10:54:28Z</time>
      </trkpt>
      <trkpt lat="47.05178" lon="-0.86881">
        <ele>69</ele>
        <time>2015-03-16T10:54:31Z</time>
      </trkpt>
      <trkpt lat="47.0518" lon="-0.86882">
        <ele>69</ele>
        <time>2015-03-16T10:54:33Z</time>
      </trkpt>
      <trkpt lat="47.05182" lon="-0.86884">
        <ele>69</ele>
        <time>2015-03-16T10:54:35Z</time>
      </trkpt>
      <trkpt lat="47.05184" lon="-0.86885">
        <ele>69</ele>
        <time>2015-03-16T10:54:37Z</time>
      </trkpt>
      <trkpt lat="47.05186" lon="-0.86887">
        <ele>69</ele>
        <time>2015-03-16T10:54:39Z</time>
      </trkpt>
      <trkpt lat="47.05188" lon="-0.86888">
        <ele>69</ele>
        <time>2015-03-16T10:54:41Z</time>
      </trkpt>
      <trkpt lat="47.05191" lon="-0.86889">
        <ele>69</ele>
        <time>2015-03-16T10:54:43Z</time>
      </trkpt>
      <trkpt lat="47.05193" lon="-0.86891">
        <ele>69</ele>
        <time>2015-03-16T10:54:45Z</time>
      </trkpt>
      <trkpt lat="47.05196" lon="-0.86892">
        <ele>69</ele>
        <time>2015-03-16T10:54:47Z</time>
      </trkpt>
      <trkpt lat="47.05198" lon="-0.86893">
        <ele>69</ele>
        <time>2015-03-16T10:54:49Z</time>
      </trkpt>
      <trkpt lat="47.05201" lon="-0.86893">
        <ele>69</ele>
        <time>2015-03-16T10:54:51Z</time>
      </trkpt>
      <trkpt lat="47.05203" lon="-0.86894">
        <ele>69</ele>
        <time>2015-03-16T10:54:54Z</time>
      </trkpt>
      <trkpt lat="47.05205" lon="-0.86892">
        <ele>69</ele>
        <time>2015-03-16T10:54:56Z</time>
      </trkpt>
      <trkpt lat="47.05207" lon="-0.86891">
        <ele>69</ele>
        <time>2015-03-16T10:54:58Z</time>
      </trkpt>
      <trkpt lat="47.0521" lon="-0.8689">
        <ele>69</ele>
        <time>2015-03-16T10:55:00Z</time>
      </trkpt>
      <trkpt lat="47.05213" lon="-0.8689">
        <ele>69</ele>
        <time>2015-03-16T10:55:02Z</time>
      </trkpt>
      <trkpt lat="47.05216" lon="-0.86887">
        <ele>69</ele>
        <time>2015-03-16T10:55:05Z</time>
      </trkpt>
      <trkpt lat="47.05217" lon="-0.86884">
        <ele>69</ele>
        <time>2015-03-16T10:55:07Z</time>
      </trkpt>
      <trkpt lat="47.05219" lon="-0.86881">
        <ele>69</ele>
        <time>2015-03-16T10:55:09Z</time>
      </trkpt>
      <trkpt lat="47.0522" lon="-0.86878">
        <ele>69</ele>
        <time>2015-03-16T10:55:11Z</time>
      </trkpt>
      <trkpt lat="47.0522" lon="-0.86874">
        <ele>69</ele>
        <time>2015-03-16T10:55:13Z</time>
      </trkpt>
      <trkpt lat="47.0522" lon="-0.8687">
        <ele>69</ele>
        <time>2015-03-16T10:55:15Z</time>
      </trkpt>
      <trkpt lat="47.05221" lon="-0.86866">
        <ele>69</ele>
        <time>2015-03-16T10:55:17Z</time>
      </trkpt>
      <trkpt lat="47.05222" lon="-0.86862">
        <ele>69</ele>
        <time>2015-03-16T10:55:19Z</time>
      </trkpt>
      <trkpt lat="47.05222" lon="-0.86858">
        <ele>69</ele>
        <time>2015-03-16T10:55:21Z</time>
      </trkpt>
      <trkpt lat="47.05223" lon="-0.86854">
        <ele>69</ele>
        <time>2015-03-16T10:55:23Z</time>
      </trkpt>
      <trkpt lat="47.05224" lon="-0.86851">
        <ele>69</ele>
        <time>2015-03-16T10:55:25Z</time>
      </trkpt>
      <trkpt lat="47.05224" lon="-0.86848">
        <ele>69</ele>
        <time>2015-03-16T10:55:27Z</time>
      </trkpt>
      <trkpt lat="47.05225" lon="-0.86844">
        <ele>69</ele>
        <time>2015-03-16T10:55:29Z</time>
      </trkpt>
      <trkpt lat="47.05225" lon="-0.86841">
        <ele>69</ele>
        <time>2015-03-16T10:55:31Z</time>
      </trkpt>
      <trkpt lat="47.05226" lon="-0.86838">
        <ele>69</ele>
        <time>2015-03-16T10:55:33Z</time>
      </trkpt>
      <trkpt lat="47.05227" lon="-0.86834">
        <ele>69</ele>
        <time>2015-03-16T10:55:35Z</time>
      </trkpt>
      <trkpt lat="47.05227" lon="-0.86831">
        <ele>69</ele>
        <time>2015-03-16T10:55:37Z</time>
      </trkpt>
      <trkpt lat="47.05228" lon="-0.86828">
        <ele>69</ele>
        <time>2015-03-16T10:55:39Z</time>
      </trkpt>
      <trkpt lat="47.05228" lon="-0.86825">
        <ele>69</ele>
        <time>2015-03-16T10:55:41Z</time>
      </trkpt>
      <trkpt lat="47.05229" lon="-0.86821">
        <ele>69</ele>
        <time>2015-03-16T10:55:43Z</time>
      </trkpt>
      <trkpt lat="47.0523" lon="-0.86818">
        <ele>69</ele>
        <time>2015-03-16T10:55:45Z</time>
      </trkpt>
      <trkpt lat="47.0523" lon="-0.86814">
        <ele>69</ele>
        <time>2015-03-16T10:55:47Z</time>
      </trkpt>
      <trkpt lat="47.05231" lon="-0.86811">
        <ele>69</ele>
        <time>2015-03-16T10:55:49Z</time>
      </trkpt>
      <trkpt lat="47.05232" lon="-0.86807">
        <ele>69</ele>
        <time>2015-03-16T10:55:51Z</time>
      </trkpt>
      <trkpt lat="47.05233" lon="-0.86804">
        <ele>69</ele>
        <time>2015-03-16T10:55:53Z</time>
      </trkpt>
      <trkpt lat="47.05234" lon="-0.868">
        <ele>69</ele>
        <time>2015-03-16T10:55:56Z</time>
      </trkpt>
      <trkpt lat="47.05235" lon="-0.86796">
        <ele>69</ele>
        <time>2015-03-16T10:55:58Z</time>
      </trkpt>
      <trkpt lat="47.05235" lon="-0.86791">
        <ele>69</ele>
        <time>2015-03-16T10:56:01Z</time>
      </trkpt>
      <trkpt lat="47.05236" lon="-0.86788">
        <ele>69</ele>
        <time>2015-03-16T10:56:03Z</time>
      </trkpt>
      <trkpt lat="47.05237" lon="-0.86784">
        <ele>69</ele>
        <time>2015-03-16T10:56:05Z</time>
      </trkpt>
      <trkpt lat="47.05238" lon="-0.86781">
        <ele>69</ele>
        <time>2015-03-16T10:56:07Z</time>
      </trkpt>
      <trkpt lat="47.05239" lon="-0.86778">
        <ele>69</ele>
        <time>2015-03-16T10:56:09Z</time>
      </trkpt>
      <trkpt lat="47.05239" lon="-0.86774">
        <ele>70</ele>
        <time>2015-03-16T10:56:11Z</time>
      </trkpt>
      <trkpt lat="47.0524" lon="-0.86771">
        <ele>70</ele>
        <time>2015-03-16T10:56:13Z</time>
      </trkpt>
      <trkpt lat="47.05242" lon="-0.86766">
        <ele>70</ele>
        <time>2015-03-16T10:56:16Z</time>
      </trkpt>
      <trkpt lat="47.05242" lon="-0.86762">
        <ele>71</ele>
        <time>2015-03-16T10:56:18Z</time>
      </trkpt>
      <trkpt lat="47.05243" lon="-0.86759">
        <ele>71</ele>
        <time>2015-03-16T10:56:20Z</time>
      </trkpt>
      <trkpt lat="47.05243" lon="-0.86756">
        <ele>71</ele>
        <time>2015-03-16T10:56:22Z</time>
      </trkpt>
      <trkpt lat="47.05244" lon="-0.86752">
        <ele>71</ele>
        <time>2015-03-16T10:56:24Z</time>
      </trkpt>
      <trkpt lat="47.05244" lon="-0.86749">
        <ele>71</ele>
        <time>2015-03-16T10:56:26Z</time>
      </trkpt>
      <trkpt lat="47.05246" lon="-0.86745">
        <ele>71</ele>
        <time>2015-03-16T10:56:29Z</time>
      </trkpt>
      <trkpt lat="47.05247" lon="-0.86741">
        <ele>71</ele>
        <time>2015-03-16T10:56:31Z</time>
      </trkpt>
      <trkpt lat="47.05247" lon="-0.86737">
        <ele>71</ele>
        <time>2015-03-16T10:56:33Z</time>
      </trkpt>
      <trkpt lat="47.05248" lon="-0.86734">
        <ele>71</ele>
        <time>2015-03-16T10:56:35Z</time>
      </trkpt>
      <trkpt lat="47.05249" lon="-0.86731">
        <ele>71</ele>
        <time>2015-03-16T10:56:37Z</time>
      </trkpt>
      <trkpt lat="47.05249" lon="-0.86727">
        <ele>71</ele>
        <time>2015-03-16T10:56:39Z</time>
      </trkpt>
      <trkpt lat="47.05249" lon="-0.86723">
        <ele>71</ele>
        <time>2015-03-16T10:56:41Z</time>
      </trkpt>
      <trkpt lat="47.0525" lon="-0.8672">
        <ele>71</ele>
        <time>2015-03-16T10:56:43Z</time>
      </trkpt>
      <trkpt lat="47.05251" lon="-0.86717">
        <ele>71</ele>
        <time>2015-03-16T10:56:45Z</time>
      </trkpt>
      <trkpt lat="47.05252" lon="-0.86713">
        <ele>71</ele>
        <time>2015-03-16T10:56:47Z</time>
      </trkpt>
      <trkpt lat="47.05252" lon="-0.8671">
        <ele>71</ele>
        <time>2015-03-16T10:56:49Z</time>
      </trkpt>
      <trkpt lat="47.05254" lon="-0.86707">
        <ele>71</ele>
        <time>2015-03-16T10:56:51Z</time>
      </trkpt>
      <trkpt lat="47.05255" lon="-0.86703">
        <ele>71</ele>
        <time>2015-03-16T10:56:53Z</time>
      </trkpt>
      <trkpt lat="47.05256" lon="-0.867">
        <ele>71</ele>
        <time>2015-03-16T10:56:55Z</time>
      </trkpt>
      <trkpt lat="47.05257" lon="-0.86698">
        <ele>71</ele>
        <time>2015-03-16T10:56:57Z</time>
      </trkpt>
      <trkpt lat="47.05257" lon="-0.86695">
        <ele>71</ele>
        <time>2015-03-16T10:56:59Z</time>
      </trkpt>
      <trkpt lat="47.05259" lon="-0.86691">
        <ele>71</ele>
        <time>2015-03-16T10:57:01Z</time>
      </trkpt>
      <trkpt lat="47.0526" lon="-0.86688">
        <ele>71</ele>
        <time>2015-03-16T10:57:03Z</time>
      </trkpt>
      <trkpt lat="47.05261" lon="-0.86685">
        <ele>71</ele>
        <time>2015-03-16T10:57:05Z</time>
      </trkpt>
      <trkpt lat="47.05262" lon="-0.86682">
        <ele>71</ele>
        <time>2015-03-16T10:57:07Z</time>
      </trkpt>
      <trkpt lat="47.05264" lon="-0.86679">
        <ele>71</ele>
        <time>2015-03-16T10:57:09Z</time>
      </trkpt>
      <trkpt lat="47.05265" lon="-0.86676">
        <ele>71</ele>
        <time>2015-03-16T10:57:11Z</time>
      </trkpt>
      <trkpt lat="47.05266" lon="-0.86672">
        <ele>71</ele>
        <time>2015-03-16T10:57:13Z</time>
      </trkpt>
      <trkpt lat="47.05267" lon="-0.86668">
        <ele>71</ele>
        <time>2015-03-16T10:57:15Z</time>
      </trkpt>
      <trkpt lat="47.05268" lon="-0.86664">
        <ele>71</ele>
        <time>2015-03-16T10:57:17Z</time>
      </trkpt>
      <trkpt lat="47.0527" lon="-0.86662">
        <ele>71</ele>
        <time>2015-03-16T10:57:19Z</time>
      </trkpt>
      <trkpt lat="47.05272" lon="-0.86659">
        <ele>71</ele>
        <time>2015-03-16T10:57:21Z</time>
      </trkpt>
      <trkpt lat="47.05273" lon="-0.86655">
        <ele>71</ele>
        <time>2015-03-16T10:57:23Z</time>
      </trkpt>
      <trkpt lat="47.05274" lon="-0.86651">
        <ele>71</ele>
        <time>2015-03-16T10:57:26Z</time>
      </trkpt>
      <trkpt lat="47.05274" lon="-0.86648">
        <ele>71</ele>
        <time>2015-03-16T10:57:28Z</time>
      </trkpt>
      <trkpt lat="47.05275" lon="-0.86644">
        <ele>71</ele>
        <time>2015-03-16T10:57:30Z</time>
      </trkpt>
      <trkpt lat="47.05276" lon="-0.86641">
        <ele>71</ele>
        <time>2015-03-16T10:57:32Z</time>
      </trkpt>
      <trkpt lat="47.05278" lon="-0.86637">
        <ele>71</ele>
        <time>2015-03-16T10:57:35Z</time>
      </trkpt>
      <trkpt lat="47.05279" lon="-0.86633">
        <ele>71</ele>
        <time>2015-03-16T10:57:37Z</time>
      </trkpt>
      <trkpt lat="47.0528" lon="-0.8663">
        <ele>71</ele>
        <time>2015-03-16T10:57:39Z</time>
      </trkpt>
      <trkpt lat="47.05281" lon="-0.86627">
        <ele>71</ele>
        <time>2015-03-16T10:57:41Z</time>
      </trkpt>
      <trkpt lat="47.05282" lon="-0.86624">
        <ele>71</ele>
        <time>2015-03-16T10:57:43Z</time>
      </trkpt>
      <trkpt lat="47.05283" lon="-0.8662">
        <ele>71</ele>
        <time>2015-03-16T10:57:45Z</time>
      </trkpt>
      <trkpt lat="47.05284" lon="-0.86617">
        <ele>71</ele>
        <time>2015-03-16T10:57:47Z</time>
      </trkpt>
      <trkpt lat="47.05285" lon="-0.86614">
        <ele>71</ele>
        <time>2015-03-16T10:57:49Z</time>
      </trkpt>
      <trkpt lat="47.05286" lon="-0.8661">
        <ele>71</ele>
        <time>2015-03-16T10:57:51Z</time>
      </trkpt>
      <trkpt lat="47.05286" lon="-0.86607">
        <ele>71</ele>
        <time>2015-03-16T10:57:53Z</time>
      </trkpt>
      <trkpt lat="47.05288" lon="-0.86604">
        <ele>71</ele>
        <time>2015-03-16T10:57:55Z</time>
      </trkpt>
      <trkpt lat="47.05288" lon="-0.86601">
        <ele>71</ele>
        <time>2015-03-16T10:57:57Z</time>
      </trkpt>
      <trkpt lat="47.05289" lon="-0.86597">
        <ele>71</ele>
        <time>2015-03-16T10:57:59Z</time>
      </trkpt>
      <trkpt lat="47.0529" lon="-0.86593">
        <ele>71</ele>
        <time>2015-03-16T10:58:01Z</time>
      </trkpt>
      <trkpt lat="47.05291" lon="-0.8659">
        <ele>71</ele>
        <time>2015-03-16T10:58:03Z</time>
      </trkpt>
      <trkpt lat="47.05292" lon="-0.86587">
        <ele>71</ele>
        <time>2015-03-16T10:58:05Z</time>
      </trkpt>
      <trkpt lat="47.05293" lon="-0.86584">
        <ele>71</ele>
        <time>2015-03-16T10:58:07Z</time>
      </trkpt>
      <trkpt lat="47.05294" lon="-0.8658">
        <ele>71</ele>
        <time>2015-03-16T10:58:09Z</time>
      </trkpt>
      <trkpt lat="47.05295" lon="-0.86578">
        <ele>72</ele>
        <time>2015-03-16T10:58:11Z</time>
      </trkpt>
      <trkpt lat="47.05296" lon="-0.86574">
        <ele>72</ele>
        <time>2015-03-16T10:58:13Z</time>
      </trkpt>
      <trkpt lat="47.05297" lon="-0.86571">
        <ele>72</ele>
        <time>2015-03-16T10:58:15Z</time>
      </trkpt>
      <trkpt lat="47.05298" lon="-0.86567">
        <ele>73</ele>
        <time>2015-03-16T10:58:18Z</time>
      </trkpt>
      <trkpt lat="47.05299" lon="-0.86564">
        <ele>73</ele>
        <time>2015-03-16T10:58:20Z</time>
      </trkpt>
      <trkpt lat="47.053" lon="-0.8656">
        <ele>73</ele>
        <time>2015-03-16T10:58:22Z</time>
      </trkpt>
      <trkpt lat="47.05302" lon="-0.86556">
        <ele>73</ele>
        <time>2015-03-16T10:58:25Z</time>
      </trkpt>
      <trkpt lat="47.05302" lon="-0.86553">
        <ele>73</ele>
        <time>2015-03-16T10:58:27Z</time>
      </trkpt>
      <trkpt lat="47.05303" lon="-0.86549">
        <ele>73</ele>
        <time>2015-03-16T10:58:29Z</time>
      </trkpt>
      <trkpt lat="47.05304" lon="-0.86546">
        <ele>74</ele>
        <time>2015-03-16T10:58:31Z</time>
      </trkpt>
      <trkpt lat="47.05304" lon="-0.86543">
        <ele>74</ele>
        <time>2015-03-16T10:58:33Z</time>
      </trkpt>
      <trkpt lat="47.05305" lon="-0.86539">
        <ele>74</ele>
        <time>2015-03-16T10:58:35Z</time>
      </trkpt>
      <trkpt lat="47.05305" lon="-0.86536">
        <ele>74</ele>
        <time>2015-03-16T10:58:37Z</time>
      </trkpt>
      <trkpt lat="47.05306" lon="-0.86532">
        <ele>74</ele>
        <time>2015-03-16T10:58:39Z</time>
      </trkpt>
      <trkpt lat="47.05307" lon="-0.86528">
        <ele>74</ele>
        <time>2015-03-16T10:58:42Z</time>
      </trkpt>
      <trkpt lat="47.05309" lon="-0.86525">
        <ele>74</ele>
        <time>2015-03-16T10:58:44Z</time>
      </trkpt>
      <trkpt lat="47.0531" lon="-0.86522">
        <ele>74</ele>
        <time>2015-03-16T10:58:46Z</time>
      </trkpt>
      <trkpt lat="47.0531" lon="-0.86519">
        <ele>74</ele>
        <time>2015-03-16T10:58:48Z</time>
      </trkpt>
      <trkpt lat="47.05312" lon="-0.86516">
        <ele>74</ele>
        <time>2015-03-16T10:58:50Z</time>
      </trkpt>
      <trkpt lat="47.05313" lon="-0.86513">
        <ele>74</ele>
        <time>2015-03-16T10:58:52Z</time>
      </trkpt>
      <trkpt lat="47.05314" lon="-0.8651">
        <ele>75</ele>
        <time>2015-03-16T10:58:54Z</time>
      </trkpt>
      <trkpt lat="47.05315" lon="-0.86507">
        <ele>75</ele>
        <time>2015-03-16T10:58:56Z</time>
      </trkpt>
      <trkpt lat="47.05315" lon="-0.86503">
        <ele>75</ele>
        <time>2015-03-16T10:58:58Z</time>
      </trkpt>
      <trkpt lat="47.05317" lon="-0.86499">
        <ele>75</ele>
        <time>2015-03-16T10:59:01Z</time>
      </trkpt>
      <trkpt lat="47.05318" lon="-0.86496">
        <ele>75</ele>
        <time>2015-03-16T10:59:03Z</time>
      </trkpt>
      <trkpt lat="47.05319" lon="-0.86492">
        <ele>75</ele>
        <time>2015-03-16T10:59:05Z</time>
      </trkpt>
      <trkpt lat="47.0532" lon="-0.86489">
        <ele>75</ele>
        <time>2015-03-16T10:59:07Z</time>
      </trkpt>
      <trkpt lat="47.05321" lon="-0.86487">
        <ele>75</ele>
        <time>2015-03-16T10:59:09Z</time>
      </trkpt>
      <trkpt lat="47.05322" lon="-0.86483">
        <ele>75</ele>
        <time>2015-03-16T10:59:11Z</time>
      </trkpt>
      <trkpt lat="47.05324" lon="-0.86479">
        <ele>75</ele>
        <time>2015-03-16T10:59:14Z</time>
      </trkpt>
      <trkpt lat="47.05325" lon="-0.86476">
        <ele>75</ele>
        <time>2015-03-16T10:59:16Z</time>
      </trkpt>
      <trkpt lat="47.05326" lon="-0.86473">
        <ele>75</ele>
        <time>2015-03-16T10:59:18Z</time>
      </trkpt>
      <trkpt lat="47.05328" lon="-0.86468">
        <ele>75</ele>
        <time>2015-03-16T10:59:21Z</time>
      </trkpt>
      <trkpt lat="47.05328" lon="-0.86466">
        <ele>75</ele>
        <time>2015-03-16T10:59:23Z</time>
      </trkpt>
      <trkpt lat="47.0533" lon="-0.86463">
        <ele>75</ele>
        <time>2015-03-16T10:59:25Z</time>
      </trkpt>
      <trkpt lat="47.05331" lon="-0.86459">
        <ele>75</ele>
        <time>2015-03-16T10:59:27Z</time>
      </trkpt>
      <trkpt lat="47.05332" lon="-0.86456">
        <ele>75</ele>
        <time>2015-03-16T10:59:29Z</time>
      </trkpt>
      <trkpt lat="47.05332" lon="-0.86452">
        <ele>75</ele>
        <time>2015-03-16T10:59:31Z</time>
      </trkpt>
      <trkpt lat="47.05333" lon="-0.86449">
        <ele>75</ele>
        <time>2015-03-16T10:59:33Z</time>
      </trkpt>
      <trkpt lat="47.05334" lon="-0.86444">
        <ele>75</ele>
        <time>2015-03-16T10:59:35Z</time>
      </trkpt>
      <trkpt lat="47.05335" lon="-0.86441">
        <ele>75</ele>
        <time>2015-03-16T10:59:37Z</time>
      </trkpt>
      <trkpt lat="47.05336" lon="-0.86438">
        <ele>75</ele>
        <time>2015-03-16T10:59:39Z</time>
      </trkpt>
      <trkpt lat="47.05337" lon="-0.86435">
        <ele>75</ele>
        <time>2015-03-16T10:59:41Z</time>
      </trkpt>
      <trkpt lat="47.05339" lon="-0.86431">
        <ele>76</ele>
        <time>2015-03-16T10:59:44Z</time>
      </trkpt>
      <trkpt lat="47.0534" lon="-0.86427">
        <ele>76</ele>
        <time>2015-03-16T10:59:46Z</time>
      </trkpt>
      <trkpt lat="47.05341" lon="-0.86423">
        <ele>77</ele>
        <time>2015-03-16T10:59:48Z</time>
      </trkpt>
      <trkpt lat="47.05343" lon="-0.86419">
        <ele>77</ele>
        <time>2015-03-16T10:59:51Z</time>
      </trkpt>
      <trkpt lat="47.05343" lon="-0.86416">
        <ele>78</ele>
        <time>2015-03-16T10:59:53Z</time>
      </trkpt>
      <trkpt lat="47.05344" lon="-0.86413">
        <ele>78</ele>
        <time>2015-03-16T10:59:55Z</time>
      </trkpt>
      <trkpt lat="47.05344" lon="-0.86409">
        <ele>78</ele>
        <time>2015-03-16T10:59:57Z</time>
      </trkpt>
      <trkpt lat="47.05345" lon="-0.86405">
        <ele>78</ele>
        <time>2015-03-16T11:00:00Z</time>
      </trkpt>
      <trkpt lat="47.05346" lon="-0.86401">
        <ele>78</ele>
        <time>2015-03-16T11:00:02Z</time>
      </trkpt>
      <trkpt lat="47.05347" lon="-0.86398">
        <ele>78</ele>
        <time>2015-03-16T11:00:04Z</time>
      </trkpt>
      <trkpt lat="47.05348" lon="-0.86395">
        <ele>78</ele>
        <time>2015-03-16T11:00:06Z</time>
      </trkpt>
      <trkpt lat="47.05349" lon="-0.8639">
        <ele>78</ele>
        <time>2015-03-16T11:00:09Z</time>
      </trkpt>
      <trkpt lat="47.05349" lon="-0.86387">
        <ele>78</ele>
        <time>2015-03-16T11:00:11Z</time>
      </trkpt>
      <trkpt lat="47.0535" lon="-0.86383">
        <ele>79</ele>
        <time>2015-03-16T11:00:13Z</time>
      </trkpt>
      <trkpt lat="47.05351" lon="-0.86378">
        <ele>79</ele>
        <time>2015-03-16T11:00:16Z</time>
      </trkpt>
      <trkpt lat="47.05353" lon="-0.86374">
        <ele>79</ele>
        <time>2015-03-16T11:00:19Z</time>
      </trkpt>
      <trkpt lat="47.05353" lon="-0.8637">
        <ele>79</ele>
        <time>2015-03-16T11:00:21Z</time>
      </trkpt>
      <trkpt lat="47.05355" lon="-0.86367">
        <ele>79</ele>
        <time>2015-03-16T11:00:23Z</time>
      </trkpt>
      <trkpt lat="47.05355" lon="-0.86364">
        <ele>79</ele>
        <time>2015-03-16T11:00:25Z</time>
      </trkpt>
      <trkpt lat="47.05357" lon="-0.86361">
        <ele>79</ele>
        <time>2015-03-16T11:00:27Z</time>
      </trkpt>
      <trkpt lat="47.05357" lon="-0.86357">
        <ele>79</ele>
        <time>2015-03-16T11:00:29Z</time>
      </trkpt>
      <trkpt lat="47.05359" lon="-0.86353">
        <ele>79</ele>
        <time>2015-03-16T11:00:32Z</time>
      </trkpt>
      <trkpt lat="47.0536" lon="-0.8635">
        <ele>79</ele>
        <time>2015-03-16T11:00:34Z</time>
      </trkpt>
      <trkpt lat="47.05362" lon="-0.86346">
        <ele>79</ele>
        <time>2015-03-16T11:00:36Z</time>
      </trkpt>
      <trkpt lat="47.05363" lon="-0.86343">
        <ele>79</ele>
        <time>2015-03-16T11:00:38Z</time>
      </trkpt>
      <trkpt lat="47.05365" lon="-0.8634">
        <ele>79</ele>
        <time>2015-03-16T11:00:40Z</time>
      </trkpt>
      <trkpt lat="47.05365" lon="-0.86337">
        <ele>79</ele>
        <time>2015-03-16T11:00:42Z</time>
      </trkpt>
      <trkpt lat="47.05367" lon="-0.86334">
        <ele>79</ele>
        <time>2015-03-16T11:00:45Z</time>
      </trkpt>
      <trkpt lat="47.05368" lon="-0.86331">
        <ele>79</ele>
        <time>2015-03-16T11:00:47Z</time>
      </trkpt>
      <trkpt lat="47.0537" lon="-0.86327">
        <ele>79</ele>
        <time>2015-03-16T11:00:50Z</time>
      </trkpt>
      <trkpt lat="47.05371" lon="-0.86324">
        <ele>79</ele>
        <time>2015-03-16T11:00:52Z</time>
      </trkpt>
      <trkpt lat="47.05373" lon="-0.86322">
        <ele>79</ele>
        <time>2015-03-16T11:00:54Z</time>
      </trkpt>
      <trkpt lat="47.05374" lon="-0.8632">
        <ele>79</ele>
        <time>2015-03-16T11:00:56Z</time>
      </trkpt>
      <trkpt lat="47.05375" lon="-0.86317">
        <ele>79</ele>
        <time>2015-03-16T11:00:58Z</time>
      </trkpt>
      <trkpt lat="47.05376" lon="-0.86316">
        <ele>79</ele>
        <time>2015-03-16T11:01:00Z</time>
      </trkpt>
      <trkpt lat="47.05378" lon="-0.86314">
        <ele>79</ele>
        <time>2015-03-16T11:01:02Z</time>
      </trkpt>
      <trkpt lat="47.05379" lon="-0.86315">
        <ele>79</ele>
        <time>2015-03-16T11:01:04Z</time>
      </trkpt>
      <trkpt lat="47.05381" lon="-0.86316">
        <ele>79</ele>
        <time>2015-03-16T11:01:06Z</time>
      </trkpt>
      <trkpt lat="47.05384" lon="-0.86316">
        <ele>79</ele>
        <time>2015-03-16T11:01:08Z</time>
      </trkpt>
      <trkpt lat="47.05386" lon="-0.86317">
        <ele>79</ele>
        <time>2015-03-16T11:01:11Z</time>
      </trkpt>
      <trkpt lat="47.05389" lon="-0.86317">
        <ele>79</ele>
        <time>2015-03-16T11:01:14Z</time>
      </trkpt>
      <trkpt lat="47.05393" lon="-0.8632">
        <ele>79</ele>
        <time>2015-03-16T11:01:17Z</time>
      </trkpt>
      <trkpt lat="47.05396" lon="-0.86321">
        <ele>79</ele>
        <time>2015-03-16T11:01:19Z</time>
      </trkpt>
      <trkpt lat="47.05399" lon="-0.86323">
        <ele>79</ele>
        <time>2015-03-16T11:01:22Z</time>
      </trkpt>
      <trkpt lat="47.054" lon="-0.86324">
        <ele>79</ele>
        <time>2015-03-16T11:01:24Z</time>
      </trkpt>
      <trkpt lat="47.05404" lon="-0.86326">
        <ele>80</ele>
        <time>2015-03-16T11:01:28Z</time>
      </trkpt>
      <trkpt lat="47.05405" lon="-0.86326">
        <ele>80</ele>
        <time>2015-03-16T11:01:30Z</time>
      </trkpt>
      <trkpt lat="47.05407" lon="-0.86327">
        <ele>80</ele>
        <time>2015-03-16T11:01:32Z</time>
      </trkpt>
      <trkpt lat="47.05409" lon="-0.86328">
        <ele>80</ele>
        <time>2015-03-16T11:01:34Z</time>
      </trkpt>
      <trkpt lat="47.0541" lon="-0.86329">
        <ele>80</ele>
        <time>2015-03-16T11:01:36Z</time>
      </trkpt>
      <trkpt lat="47.05413" lon="-0.8633">
        <ele>80</ele>
        <time>2015-03-16T11:01:38Z</time>
      </trkpt>
      <trkpt lat="47.05415" lon="-0.86332">
        <ele>80</ele>
        <time>2015-03-16T11:01:40Z</time>
      </trkpt>
      <trkpt lat="47.05417" lon="-0.86333">
        <ele>80</ele>
        <time>2015-03-16T11:01:42Z</time>
      </trkpt>
      <trkpt lat="47.05421" lon="-0.86336">
        <ele>81</ele>
        <time>2015-03-16T11:01:46Z</time>
      </trkpt>
      <trkpt lat="47.05423" lon="-0.86338">
        <ele>81</ele>
        <time>2015-03-16T11:01:48Z</time>
      </trkpt>
      <trkpt lat="47.05427" lon="-0.86339">
        <ele>82</ele>
        <time>2015-03-16T11:01:51Z</time>
      </trkpt>
      <trkpt lat="47.0543" lon="-0.86341">
        <ele>83</ele>
        <time>2015-03-16T11:01:54Z</time>
      </trkpt>
      <trkpt lat="47.05434" lon="-0.86343">
        <ele>83</ele>
        <time>2015-03-16T11:01:57Z</time>
      </trkpt>
      <trkpt lat="47.05436" lon="-0.86345">
        <ele>83</ele>
        <time>2015-03-16T11:01:59Z</time>
      </trkpt>
      <trkpt lat="47.05439" lon="-0.86347">
        <ele>83</ele>
        <time>2015-03-16T11:02:02Z</time>
      </trkpt>
      <trkpt lat="47.05442" lon="-0.86348">
        <ele>83</ele>
        <time>2015-03-16T11:02:04Z</time>
      </trkpt>
      <trkpt lat="47.05444" lon="-0.86349">
        <ele>83</ele>
        <time>2015-03-16T11:02:06Z</time>
      </trkpt>
      <trkpt lat="47.05446" lon="-0.8635">
        <ele>83</ele>
        <time>2015-03-16T11:02:08Z</time>
      </trkpt>
      <trkpt lat="47.05448" lon="-0.86352">
        <ele>83</ele>
        <time>2015-03-16T11:02:10Z</time>
      </trkpt>
      <trkpt lat="47.05451" lon="-0.86354">
        <ele>83</ele>
        <time>2015-03-16T11:02:13Z</time>
      </trkpt>
      <trkpt lat="47.05454" lon="-0.86356">
        <ele>83</ele>
        <time>2015-03-16T11:02:16Z</time>
      </trkpt>
      <trkpt lat="47.05458" lon="-0.86357">
        <ele>83</ele>
        <time>2015-03-16T11:02:19Z</time>
      </trkpt>
      <trkpt lat="47.05461" lon="-0.86358">
        <ele>83</ele>
        <time>2015-03-16T11:02:22Z</time>
      </trkpt>
      <trkpt lat="47.05463" lon="-0.86359">
        <ele>83</ele>
        <time>2015-03-16T11:02:24Z</time>
      </trkpt>
      <trkpt lat="47.05466" lon="-0.8636">
        <ele>83</ele>
        <time>2015-03-16T11:02:27Z</time>
      </trkpt>
      <trkpt lat="47.0547" lon="-0.86361">
        <ele>84</ele>
        <time>2015-03-16T11:02:30Z</time>
      </trkpt>
      <trkpt lat="47.05473" lon="-0.86363">
        <ele>84</ele>
        <time>2015-03-16T11:02:32Z</time>
      </trkpt>
      <trkpt lat="47.05476" lon="-0.86366">
        <ele>85</ele>
        <time>2015-03-16T11:02:35Z</time>
      </trkpt>
      <trkpt lat="47.05479" lon="-0.86368">
        <ele>86</ele>
        <time>2015-03-16T11:02:38Z</time>
      </trkpt>
      <trkpt lat="47.05483" lon="-0.86369">
        <ele>87</ele>
        <time>2015-03-16T11:02:41Z</time>
      </trkpt>
      <trkpt lat="47.05485" lon="-0.8637">
        <ele>87</ele>
        <time>2015-03-16T11:02:43Z</time>
      </trkpt>
      <trkpt lat="47.05486" lon="-0.86372">
        <ele>87</ele>
        <time>2015-03-16T11:02:45Z</time>
      </trkpt>
      <trkpt lat="47.05489" lon="-0.86373">
        <ele>87</ele>
        <time>2015-03-16T11:02:48Z</time>
      </trkpt>
      <trkpt lat="47.05491" lon="-0.86375">
        <ele>87</ele>
        <time>2015-03-16T11:02:50Z</time>
      </trkpt>
      <trkpt lat="47.05493" lon="-0.86377">
        <ele>87</ele>
        <time>2015-03-16T11:02:53Z</time>
      </trkpt>
      <trkpt lat="47.05495" lon="-0.8638">
        <ele>87</ele>
        <time>2015-03-16T11:02:55Z</time>
      </trkpt>
      <trkpt lat="47.05498" lon="-0.86384">
        <ele>87</ele>
        <time>2015-03-16T11:02:59Z</time>
      </trkpt>
      <trkpt lat="47.05499" lon="-0.86387">
        <ele>87</ele>
        <time>2015-03-16T11:03:01Z</time>
      </trkpt>
      <trkpt lat="47.055" lon="-0.86392">
        <ele>87</ele>
        <time>2015-03-16T11:03:04Z</time>
      </trkpt>
      <trkpt lat="47.055" lon="-0.86396">
        <ele>87</ele>
        <time>2015-03-16T11:03:06Z</time>
      </trkpt>
      <trkpt lat="47.05502" lon="-0.86399">
        <ele>87</ele>
        <time>2015-03-16T11:03:09Z</time>
      </trkpt>
      <trkpt lat="47.05504" lon="-0.86403">
        <ele>87</ele>
        <time>2015-03-16T11:03:12Z</time>
      </trkpt>
      <trkpt lat="47.05508" lon="-0.86408">
        <ele>87</ele>
        <time>2015-03-16T11:03:16Z</time>
      </trkpt>
      <trkpt lat="47.05509" lon="-0.8641">
        <ele>87</ele>
        <time>2015-03-16T11:03:18Z</time>
      </trkpt>
      <trkpt lat="47.05513" lon="-0.86414">
        <ele>87</ele>
        <time>2015-03-16T11:03:22Z</time>
      </trkpt>
      <trkpt lat="47.05515" lon="-0.86416">
        <ele>87</ele>
        <time>2015-03-16T11:03:24Z</time>
      </trkpt>
      <trkpt lat="47.05519" lon="-0.86419">
        <ele>87</ele>
        <time>2015-03-16T11:03:28Z</time>
      </trkpt>
      <trkpt lat="47.05521" lon="-0.86421">
        <ele>87</ele>
        <time>2015-03-16T11:03:30Z</time>
      </trkpt>
      <trkpt lat="47.05524" lon="-0.86423">
        <ele>87</ele>
        <time>2015-03-16T11:03:33Z</time>
      </trkpt>
      <trkpt lat="47.05525" lon="-0.86426">
        <ele>87</ele>
        <time>2015-03-16T11:03:35Z</time>
      </trkpt>
      <trkpt lat="47.05527" lon="-0.86431">
        <ele>87</ele>
        <time>2015-03-16T11:03:39Z</time>
      </trkpt>
      <trkpt lat="47.05529" lon="-0.86434">
        <ele>87</ele>
        <time>2015-03-16T11:03:41Z</time>
      </trkpt>
      <trkpt lat="47.05531" lon="-0.8644">
        <ele>87</ele>
        <time>2015-03-16T11:03:44Z</time>
      </trkpt>
      <trkpt lat="47.05532" lon="-0.86442">
        <ele>87</ele>
        <time>2015-03-16T11:03:46Z</time>
      </trkpt>
      <trkpt lat="47.05535" lon="-0.86446">
        <ele>86</ele>
        <time>2015-03-16T11:03:50Z</time>
      </trkpt>
      <trkpt lat="47.05536" lon="-0.86449">
        <ele>86</ele>
        <time>2015-03-16T11:03:52Z</time>
      </trkpt>
      <trkpt lat="47.05539" lon="-0.86453">
        <ele>86</ele>
        <time>2015-03-16T11:03:56Z</time>
      </trkpt>
      <trkpt lat="47.05541" lon="-0.86455">
        <ele>86</ele>
        <time>2015-03-16T11:03:58Z</time>
      </trkpt>
      <trkpt lat="47.05544" lon="-0.86459">
        <ele>86</ele>
        <time>2015-03-16T11:04:02Z</time>
      </trkpt>
      <trkpt lat="47.05545" lon="-0.86462">
        <ele>86</ele>
        <time>2015-03-16T11:04:04Z</time>
      </trkpt>
      <trkpt lat="47.05549" lon="-0.86466">
        <ele>86</ele>
        <time>2015-03-16T11:04:08Z</time>
      </trkpt>
      <trkpt lat="47.0555" lon="-0.86469">
        <ele>86</ele>
        <time>2015-03-16T11:04:10Z</time>
      </trkpt>
      <trkpt lat="47.0555" lon="-0.86473">
        <ele>86</ele>
        <time>2015-03-16T11:04:13Z</time>
      </trkpt>
      <trkpt lat="47.05551" lon="-0.86477">
        <ele>86</ele>
        <time>2015-03-16T11:04:15Z</time>
      </trkpt>
      <trkpt lat="47.05553" lon="-0.8648">
        <ele>86</ele>
        <time>2015-03-16T11:04:18Z</time>
      </trkpt>
      <trkpt lat="47.05556" lon="-0.86481">
        <ele>86</ele>
        <time>2015-03-16T11:04:20Z</time>
      </trkpt>
      <trkpt lat="47.05559" lon="-0.86481">
        <ele>86</ele>
        <time>2015-03-16T11:04:23Z</time>
      </trkpt>
      <trkpt lat="47.05562" lon="-0.86484">
        <ele>86</ele>
        <time>2015-03-16T11:04:26Z</time>
      </trkpt>
      <trkpt lat="47.05565" lon="-0.86488">
        <ele>86</ele>
        <time>2015-03-16T11:04:30Z</time>
      </trkpt>
      <trkpt lat="47.05567" lon="-0.86491">
        <ele>86</ele>
        <time>2015-03-16T11:04:32Z</time>
      </trkpt>
      <trkpt lat="47.05568" lon="-0.86497">
        <ele>86</ele>
        <time>2015-03-16T11:04:35Z</time>
      </trkpt>
      <trkpt lat="47.05569" lon="-0.865">
        <ele>87</ele>
        <time>2015-03-16T11:04:37Z</time>
      </trkpt>
      <trkpt lat="47.0557" lon="-0.86503">
        <ele>87</ele>
        <time>2015-03-16T11:04:39Z</time>
      </trkpt>
      <trkpt lat="47.05572" lon="-0.86508">
        <ele>87</ele>
        <time>2015-03-16T11:04:42Z</time>
      </trkpt>
      <trkpt lat="47.05574" lon="-0.86514">
        <ele>87</ele>
        <time>2015-03-16T11:04:46Z</time>
      </trkpt>
      <trkpt lat="47.05575" lon="-0.86516">
        <ele>87</ele>
        <time>2015-03-16T11:04:48Z</time>
      </trkpt>
      <trkpt lat="47.05577" lon="-0.86521">
        <ele>87</ele>
        <time>2015-03-16T11:04:51Z</time>
      </trkpt>
      <trkpt lat="47.05578" lon="-0.86524">
        <ele>87</ele>
        <time>2015-03-16T11:04:53Z</time>
      </trkpt>
      <trkpt lat="47.0558" lon="-0.86529">
        <ele>87</ele>
        <time>2015-03-16T11:04:56Z</time>
      </trkpt>
      <trkpt lat="47.05581" lon="-0.86532">
        <ele>87</ele>
        <time>2015-03-16T11:04:58Z</time>
      </trkpt>
      <trkpt lat="47.05584" lon="-0.86537">
        <ele>87</ele>
        <time>2015-03-16T11:05:01Z</time>
      </trkpt>
      <trkpt lat="47.05585" lon="-0.86541">
        <ele>87</ele>
        <time>2015-03-16T11:05:03Z</time>
      </trkpt>
      <trkpt lat="47.05587" lon="-0.86547">
        <ele>87</ele>
        <time>2015-03-16T11:05:07Z</time>
      </trkpt>
      <trkpt lat="47.05589" lon="-0.8655">
        <ele>87</ele>
        <time>2015-03-16T11:05:09Z</time>
      </trkpt>
      <trkpt lat="47.0559" lon="-0.86553">
        <ele>87</ele>
        <time>2015-03-16T11:05:11Z</time>
      </trkpt>
      <trkpt lat="47.0559" lon="-0.86555">
        <ele>87</ele>
        <time>2015-03-16T11:05:13Z</time>
      </trkpt>
      <trkpt lat="47.05593" lon="-0.8656">
        <ele>88</ele>
        <time>2015-03-16T11:05:16Z</time>
      </trkpt>
      <trkpt lat="47.05594" lon="-0.86563">
        <ele>89</ele>
        <time>2015-03-16T11:05:18Z</time>
      </trkpt>
      <trkpt lat="47.05597" lon="-0.86569">
        <ele>90</ele>
        <time>2015-03-16T11:05:22Z</time>
      </trkpt>
      <trkpt lat="47.05598" lon="-0.86572">
        <ele>90</ele>
        <time>2015-03-16T11:05:24Z</time>
      </trkpt>
      <trkpt lat="47.05598" lon="-0.86575">
        <ele>90</ele>
        <time>2015-03-16T11:05:26Z</time>
      </trkpt>
      <trkpt lat="47.056" lon="-0.86578">
        <ele>90</ele>
        <time>2015-03-16T11:05:28Z</time>
      </trkpt>
      <trkpt lat="47.05602" lon="-0.86582">
        <ele>90</ele>
        <time>2015-03-16T11:05:31Z</time>
      </trkpt>
      <trkpt lat="47.05603" lon="-0.86585">
        <ele>90</ele>
        <time>2015-03-16T11:05:33Z</time>
      </trkpt>
      <trkpt lat="47.05605" lon="-0.86589">
        <ele>91</ele>
        <time>2015-03-16T11:05:36Z</time>
      </trkpt>
      <trkpt lat="47.05606" lon="-0.86593">
        <ele>91</ele>
        <time>2015-03-16T11:05:38Z</time>
      </trkpt>
      <trkpt lat="47.05608" lon="-0.86597">
        <ele>91</ele>
        <time>2015-03-16T11:05:41Z</time>
      </trkpt>
      <trkpt lat="47.05609" lon="-0.866">
        <ele>91</ele>
        <time>2015-03-16T11:05:43Z</time>
      </trkpt>
      <trkpt lat="47.05611" lon="-0.86604">
        <ele>91</ele>
        <time>2015-03-16T11:05:46Z</time>
      </trkpt>
      <trkpt lat="47.05612" lon="-0.86607">
        <ele>91</ele>
        <time>2015-03-16T11:05:48Z</time>
      </trkpt>
      <trkpt lat="47.05614" lon="-0.86611">
        <ele>91</ele>
        <time>2015-03-16T11:05:51Z</time>
      </trkpt>
      <trkpt lat="47.05616" lon="-0.86613">
        <ele>91</ele>
        <time>2015-03-16T11:05:53Z</time>
      </trkpt>
      <trkpt lat="47.05619" lon="-0.86619">
        <ele>91</ele>
        <time>2015-03-16T11:05:57Z</time>
      </trkpt>
      <trkpt lat="47.05621" lon="-0.86623">
        <ele>91</ele>
        <time>2015-03-16T11:06:00Z</time>
      </trkpt>
      <trkpt lat="47.05622" lon="-0.86626">
        <ele>91</ele>
        <time>2015-03-16T11:06:02Z</time>
      </trkpt>
      <trkpt lat="47.05625" lon="-0.86629">
        <ele>91</ele>
        <time>2015-03-16T11:06:05Z</time>
      </trkpt>
      <trkpt lat="47.05627" lon="-0.86632">
        <ele>91</ele>
        <time>2015-03-16T11:06:07Z</time>
      </trkpt>
      <trkpt lat="47.05629" lon="-0.86634">
        <ele>91</ele>
        <time>2015-03-16T11:06:09Z</time>
      </trkpt>
      <trkpt lat="47.05629" lon="-0.86638">
        <ele>91</ele>
        <time>2015-03-16T11:06:11Z</time>
      </trkpt>
      <trkpt lat="47.0563" lon="-0.86641">
        <ele>91</ele>
        <time>2015-03-16T11:06:13Z</time>
      </trkpt>
      <trkpt lat="47.05632" lon="-0.86644">
        <ele>91</ele>
        <time>2015-03-16T11:06:15Z</time>
      </trkpt>
      <trkpt lat="47.05634" lon="-0.8665">
        <ele>91</ele>
        <time>2015-03-16T11:06:19Z</time>
      </trkpt>
      <trkpt lat="47.05637" lon="-0.86652">
        <ele>91</ele>
        <time>2015-03-16T11:06:21Z</time>
      </trkpt>
      <trkpt lat="47.05641" lon="-0.86654">
        <ele>92</ele>
        <time>2015-03-16T11:06:24Z</time>
      </trkpt>
      <trkpt lat="47.05644" lon="-0.86658">
        <ele>92</ele>
        <time>2015-03-16T11:06:27Z</time>
      </trkpt>
      <trkpt lat="47.05645" lon="-0.86661">
        <ele>92</ele>
        <time>2015-03-16T11:06:29Z</time>
      </trkpt>
      <trkpt lat="47.05645" lon="-0.86666">
        <ele>93</ele>
        <time>2015-03-16T11:06:31Z</time>
      </trkpt>
      <trkpt lat="47.05646" lon="-0.8667">
        <ele>95</ele>
        <time>2015-03-16T11:06:33Z</time>
      </trkpt>
      <trkpt lat="47.05647" lon="-0.86674">
        <ele>96</ele>
        <time>2015-03-16T11:06:35Z</time>
      </trkpt>
      <trkpt lat="47.05647" lon="-0.86678">
        <ele>97</ele>
        <time>2015-03-16T11:06:37Z</time>
      </trkpt>
      <trkpt lat="47.05649" lon="-0.86683">
        <ele>98</ele>
        <time>2015-03-16T11:06:40Z</time>
      </trkpt>
      <trkpt lat="47.0565" lon="-0.86686">
        <ele>98</ele>
        <time>2015-03-16T11:06:42Z</time>
      </trkpt>
      <trkpt lat="47.05651" lon="-0.86689">
        <ele>99</ele>
        <time>2015-03-16T11:06:44Z</time>
      </trkpt>
      <trkpt lat="47.05653" lon="-0.86692">
        <ele>99</ele>
        <time>2015-03-16T11:06:46Z</time>
      </trkpt>
      <trkpt lat="47.05655" lon="-0.86694">
        <ele>99</ele>
        <time>2015-03-16T11:06:48Z</time>
      </trkpt>
      <trkpt lat="47.05657" lon="-0.86698">
        <ele>99</ele>
        <time>2015-03-16T11:06:51Z</time>
      </trkpt>
      <trkpt lat="47.05658" lon="-0.867">
        <ele>99</ele>
        <time>2015-03-16T11:06:53Z</time>
      </trkpt>
      <trkpt lat="47.05661" lon="-0.86704">
        <ele>99</ele>
        <time>2015-03-16T11:06:57Z</time>
      </trkpt>
      <trkpt lat="47.05663" lon="-0.86706">
        <ele>99</ele>
        <time>2015-03-16T11:06:59Z</time>
      </trkpt>
      <trkpt lat="47.05666" lon="-0.86711">
        <ele>99</ele>
        <time>2015-03-16T11:07:03Z</time>
      </trkpt>
      <trkpt lat="47.05668" lon="-0.86712">
        <ele>99</ele>
        <time>2015-03-16T11:07:05Z</time>
      </trkpt>
      <trkpt lat="47.05669" lon="-0.86714">
        <ele>97</ele>
        <time>2015-03-16T11:07:07Z</time>
      </trkpt>
      <trkpt lat="47.05672" lon="-0.86716">
        <ele>97</ele>
        <time>2015-03-16T11:07:09Z</time>
      </trkpt>
      <trkpt lat="47.05674" lon="-0.86717">
        <ele>97</ele>
        <time>2015-03-16T11:07:11Z</time>
      </trkpt>
    </trkseg>
  </trk>
</gpx>